<?xml version="1.0" encoding="UTF-8" standalone="no" ?>
  <gpx version="1.0" creator="Loctome.com">
  <metadata>
  <link href="https://play.google.com/store/apps/details?id=com.loctome.app.loctome">
      <text>Loctome Live Track GPS</text>
  </link>
  <desc>File created by Loctome Android Client Spring Edition</desc>
  <time>2017-04-09T11:17:42Z</time>
  </metadata>
  <trk>
    <name>2017-04-09T11:17:42Z</name>
    <trkseg>
      <trkpt lat="40.25226495" lon="-4.88811265"><ele>1079</ele><speed>0.00</speed><time>2017-04-09T11:17:42Z</time><pdop>3.0</pdop><geoidheight>0.00</geoidheight><course>0.0</course><type>1</type></trkpt>
      <trkpt lat="40.25226328" lon="-4.88811069"><ele>1079</ele><speed>0.00</speed><time>2017-04-09T11:18:42Z</time><pdop>3.0</pdop><geoidheight>0.00</geoidheight><course>0.0</course><type>1</type></trkpt>
      <trkpt lat="40.25226217" lon="-4.88810933"><ele>1079</ele><speed>0.00</speed><time>2017-04-09T11:19:42Z</time><pdop>3.0</pdop><geoidheight>0.00</geoidheight><course>0.0</course><type>1</type></trkpt>
      <trkpt lat="40.25226035" lon="-4.88810761"><ele>1080</ele><speed>0.00</speed><time>2017-04-09T11:20:42Z</time><pdop>5.0</pdop><geoidheight>0.00</geoidheight><course>0.0</course><type>1</type></trkpt>
      <trkpt lat="40.25225904" lon="-4.88810601"><ele>1080</ele><speed>0.00</speed><time>2017-04-09T11:21:42Z</time><pdop>3.0</pdop><geoidheight>0.00</geoidheight><course>0.0</course><type>1</type></trkpt>
      <trkpt lat="40.252258" lon="-4.88810551"><ele>1080</ele><speed>0.00</speed><time>2017-04-09T11:22:42Z</time><pdop>3.0</pdop><geoidheight>0.00</geoidheight><course>0.0</course><type>1</type></trkpt>
      <trkpt lat="40.25223271" lon="-4.88809898"><ele>1078</ele><speed>0.00</speed><time>2017-04-09T11:23:42Z</time><pdop>3.0</pdop><geoidheight>0.00</geoidheight><course>0.0</course><type>1</type></trkpt>
      <trkpt lat="40.25223206" lon="-4.88809855"><ele>1078</ele><speed>0.00</speed><time>2017-04-09T11:24:42Z</time><pdop>3.0</pdop><geoidheight>0.00</geoidheight><course>0.0</course><type>1</type></trkpt>
      <trkpt lat="40.25223204" lon="-4.88809844"><ele>1078</ele><speed>0.00</speed><time>2017-04-09T11:25:42Z</time><pdop>3.0</pdop><geoidheight>0.00</geoidheight><course>0.0</course><type>1</type></trkpt>
      <trkpt lat="40.25223169" lon="-4.88809844"><ele>1079</ele><speed>0.00</speed><time>2017-04-09T11:26:42Z</time><pdop>3.0</pdop><geoidheight>0.00</geoidheight><course>0.0</course><type>1</type></trkpt>
      <trkpt lat="40.25223163" lon="-4.88809799"><ele>1078</ele><speed>0.00</speed><time>2017-04-09T11:27:42Z</time><pdop>3.0</pdop><geoidheight>0.00</geoidheight><course>0.0</course><type>1</type></trkpt>
      <trkpt lat="40.25223179" lon="-4.88809775"><ele>1078</ele><speed>0.00</speed><time>2017-04-09T11:28:42Z</time><pdop>4.0</pdop><geoidheight>0.00</geoidheight><course>0.0</course><type>1</type></trkpt>
      <trkpt lat="40.25229467" lon="-4.88809194"><ele>1077</ele><speed>0.39</speed><time>2017-04-09T11:29:04Z</time><pdop>3.0</pdop><geoidheight>0.00</geoidheight><course>358.5</course><type>1</type></trkpt>
      <trkpt lat="40.25236129" lon="-4.88806728"><ele>1076</ele><speed>0.86</speed><time>2017-04-09T11:29:13Z</time><pdop>4.0</pdop><geoidheight>0.00</geoidheight><course>10.1</course><type>1</type></trkpt>
      <trkpt lat="40.25242261" lon="-4.88798264"><ele>1074</ele><speed>1.71</speed><time>2017-04-09T11:29:21Z</time><pdop>4.0</pdop><geoidheight>0.00</geoidheight><course>33.8</course><type>1</type></trkpt>
      <trkpt lat="40.2524439" lon="-4.88795913"><ele>1073</ele><speed>0.42</speed><time>2017-04-09T11:30:21Z</time><pdop>4.0</pdop><geoidheight>0.00</geoidheight><course>352.2</course><type>1</type></trkpt>
      <trkpt lat="40.25246373" lon="-4.88794539"><ele>1074</ele><speed>0.00</speed><time>2017-04-09T11:31:21Z</time><pdop>3.0</pdop><geoidheight>0.00</geoidheight><course>0.0</course><type>1</type></trkpt>
      <trkpt lat="40.25246304" lon="-4.88794647"><ele>1074</ele><speed>0.00</speed><time>2017-04-09T11:32:21Z</time><pdop>4.0</pdop><geoidheight>0.00</geoidheight><course>0.0</course><type>1</type></trkpt>
      <trkpt lat="40.25246178" lon="-4.88794758"><ele>1074</ele><speed>0.00</speed><time>2017-04-09T11:33:21Z</time><pdop>3.0</pdop><geoidheight>0.00</geoidheight><course>0.0</course><type>1</type></trkpt>
      <trkpt lat="40.25246119" lon="-4.88794817"><ele>1074</ele><speed>0.00</speed><time>2017-04-09T11:34:21Z</time><pdop>3.0</pdop><geoidheight>0.00</geoidheight><course>0.0</course><type>1</type></trkpt>
      <trkpt lat="40.25246034" lon="-4.8879487"><ele>1074</ele><speed>0.00</speed><time>2017-04-09T11:35:21Z</time><pdop>9.0</pdop><geoidheight>0.00</geoidheight><course>0.0</course><type>1</type></trkpt>
      <trkpt lat="40.25245969" lon="-4.8879494"><ele>1074</ele><speed>0.00</speed><time>2017-04-09T11:36:21Z</time><pdop>9.0</pdop><geoidheight>0.00</geoidheight><course>0.0</course><type>1</type></trkpt>
      <trkpt lat="40.25245901" lon="-4.88794985"><ele>1074</ele><speed>0.00</speed><time>2017-04-09T11:37:21Z</time><pdop>3.0</pdop><geoidheight>0.00</geoidheight><course>0.0</course><type>1</type></trkpt>
      <trkpt lat="40.25245845" lon="-4.88795027"><ele>1074</ele><speed>0.00</speed><time>2017-04-09T11:38:21Z</time><pdop>3.0</pdop><geoidheight>0.00</geoidheight><course>0.0</course><type>1</type></trkpt>
      <trkpt lat="40.25245834" lon="-4.88795109"><ele>1074</ele><speed>0.00</speed><time>2017-04-09T11:39:21Z</time><pdop>3.0</pdop><geoidheight>0.00</geoidheight><course>0.0</course><type>1</type></trkpt>
      <trkpt lat="40.25245844" lon="-4.88795123"><ele>1074</ele><speed>0.00</speed><time>2017-04-09T11:40:21Z</time><pdop>4.0</pdop><geoidheight>0.00</geoidheight><course>0.0</course><type>1</type></trkpt>
      <trkpt lat="40.25245822" lon="-4.88795142"><ele>1074</ele><speed>0.00</speed><time>2017-04-09T11:41:25Z</time><pdop>3.0</pdop><geoidheight>0.00</geoidheight><course>0.0</course><type>1</type></trkpt>
      <trkpt lat="40.25245866" lon="-4.88795165"><ele>1074</ele><speed>0.00</speed><time>2017-04-09T11:42:25Z</time><pdop>3.0</pdop><geoidheight>0.00</geoidheight><course>0.0</course><type>1</type></trkpt>
      <trkpt lat="40.25245872" lon="-4.88795173"><ele>1074</ele><speed>0.00</speed><time>2017-04-09T11:43:25Z</time><pdop>3.0</pdop><geoidheight>0.00</geoidheight><course>0.0</course><type>1</type></trkpt>
      <trkpt lat="40.25245886" lon="-4.88793883"><ele>1062</ele><speed>0.00</speed><time>2017-04-09T11:44:25Z</time><pdop>3.0</pdop><geoidheight>0.00</geoidheight><course>0.0</course><type>1</type></trkpt>
      <trkpt lat="40.25246456" lon="-4.88794325"><ele>1063</ele><speed>0.00</speed><time>2017-04-09T11:45:25Z</time><pdop>3.0</pdop><geoidheight>0.00</geoidheight><course>0.0</course><type>1</type></trkpt>
      <trkpt lat="40.25246525" lon="-4.88794413"><ele>1063</ele><speed>0.00</speed><time>2017-04-09T11:46:25Z</time><pdop>3.0</pdop><geoidheight>0.00</geoidheight><course>0.0</course><type>1</type></trkpt>
      <trkpt lat="40.25247512" lon="-4.88792944"><ele>1068</ele><speed>0.00</speed><time>2017-04-09T11:47:25Z</time><pdop>3.0</pdop><geoidheight>0.00</geoidheight><course>0.0</course><type>1</type></trkpt>
      <trkpt lat="40.25248941" lon="-4.88791291"><ele>1064</ele><speed>0.00</speed><time>2017-04-09T11:48:25Z</time><pdop>3.0</pdop><geoidheight>0.00</geoidheight><course>0.0</course><type>1</type></trkpt>
      <trkpt lat="40.25247564" lon="-4.88794416"><ele>1061</ele><speed>0.00</speed><time>2017-04-09T11:49:25Z</time><pdop>3.0</pdop><geoidheight>0.00</geoidheight><course>0.0</course><type>1</type></trkpt>
      <trkpt lat="40.25246736" lon="-4.88794348"><ele>1063</ele><speed>0.00</speed><time>2017-04-09T11:50:25Z</time><pdop>3.0</pdop><geoidheight>0.00</geoidheight><course>0.0</course><type>1</type></trkpt>
      <trkpt lat="40.25249247" lon="-4.88792732"><ele>1067</ele><speed>0.00</speed><time>2017-04-09T11:51:25Z</time><pdop>3.0</pdop><geoidheight>0.00</geoidheight><course>0.0</course><type>1</type></trkpt>
      <trkpt lat="40.25249187" lon="-4.88786424"><ele>1062</ele><speed>0.00</speed><time>2017-04-09T11:52:25Z</time><pdop>3.0</pdop><geoidheight>0.00</geoidheight><course>0.0</course><type>1</type></trkpt>
      <trkpt lat="40.25249229" lon="-4.88786471"><ele>1063</ele><speed>0.00</speed><time>2017-04-09T11:53:25Z</time><pdop>3.0</pdop><geoidheight>0.00</geoidheight><course>0.0</course><type>1</type></trkpt>
      <trkpt lat="40.25249805" lon="-4.88785317"><ele>1063</ele><speed>1.82</speed><time>2017-04-09T11:54:25Z</time><pdop>4.0</pdop><geoidheight>0.00</geoidheight><course>56.3</course><type>1</type></trkpt>
      <trkpt lat="40.25252632" lon="-4.88780013"><ele>1062</ele><speed>0.00</speed><time>2017-04-09T11:55:25Z</time><pdop>4.0</pdop><geoidheight>0.00</geoidheight><course>0.0</course><type>1</type></trkpt>
      <trkpt lat="40.25254092" lon="-4.88770446"><ele>1064</ele><speed>4.47</speed><time>2017-04-09T11:56:23Z</time><pdop>3.0</pdop><geoidheight>0.00</geoidheight><course>90.8</course><type>1</type></trkpt>
      <trkpt lat="40.25251321" lon="-4.88759234"><ele>1064</ele><speed>6.89</speed><time>2017-04-09T11:56:25Z</time><pdop>4.0</pdop><geoidheight>0.00</geoidheight><course>87.4</course><type>1</type></trkpt>
      <trkpt lat="40.25253794" lon="-4.88741077"><ele>1064</ele><speed>5.69</speed><time>2017-04-09T11:56:27Z</time><pdop>4.0</pdop><geoidheight>0.00</geoidheight><course>88.3</course><type>1</type></trkpt>
      <trkpt lat="40.2525099" lon="-4.88727833"><ele>1066</ele><speed>5.81</speed><time>2017-04-09T11:56:29Z</time><pdop>4.0</pdop><geoidheight>0.00</geoidheight><course>114.1</course><type>1</type></trkpt>
      <trkpt lat="40.25241622" lon="-4.88714907"><ele>1067</ele><speed>8.18</speed><time>2017-04-09T11:56:31Z</time><pdop>4.0</pdop><geoidheight>0.00</geoidheight><course>127.2</course><type>1</type></trkpt>
      <trkpt lat="40.25232896" lon="-4.88702274"><ele>1069</ele><speed>6.30</speed><time>2017-04-09T11:56:33Z</time><pdop>5.0</pdop><geoidheight>0.00</geoidheight><course>136.9</course><type>1</type></trkpt>
      <trkpt lat="40.2522445" lon="-4.88695267"><ele>1072</ele><speed>5.88</speed><time>2017-04-09T11:56:35Z</time><pdop>5.0</pdop><geoidheight>0.00</geoidheight><course>154.9</course><type>1</type></trkpt>
      <trkpt lat="40.25213343" lon="-4.8868969"><ele>1075</ele><speed>6.20</speed><time>2017-04-09T11:56:37Z</time><pdop>5.0</pdop><geoidheight>0.00</geoidheight><course>156.0</course><type>1</type></trkpt>
      <trkpt lat="40.25202937" lon="-4.88683247"><ele>1077</ele><speed>6.55</speed><time>2017-04-09T11:56:39Z</time><pdop>5.0</pdop><geoidheight>0.00</geoidheight><course>151.4</course><type>1</type></trkpt>
      <trkpt lat="40.25192711" lon="-4.88676167"><ele>1081</ele><speed>5.43</speed><time>2017-04-09T11:56:41Z</time><pdop>5.0</pdop><geoidheight>0.00</geoidheight><course>135.6</course><type>1</type></trkpt>
      <trkpt lat="40.25187841" lon="-4.88665669"><ele>1087</ele><speed>4.34</speed><time>2017-04-09T11:56:43Z</time><pdop>5.0</pdop><geoidheight>0.00</geoidheight><course>127.2</course><type>1</type></trkpt>
      <trkpt lat="40.25173401" lon="-4.88652662"><ele>1099</ele><speed>3.53</speed><time>2017-04-09T11:56:48Z</time><pdop>5.0</pdop><geoidheight>0.00</geoidheight><course>150.8</course><type>1</type></trkpt>
      <trkpt lat="40.25162976" lon="-4.88647831"><ele>1105</ele><speed>2.45</speed><time>2017-04-09T11:56:52Z</time><pdop>5.0</pdop><geoidheight>0.00</geoidheight><course>160.0</course><type>1</type></trkpt>
      <trkpt lat="40.25177376" lon="-4.88647313"><ele>1105</ele><speed>9.33</speed><time>2017-04-09T11:56:56Z</time><pdop>4.0</pdop><geoidheight>0.00</geoidheight><course>344.5</course><type>1</type></trkpt>
      <trkpt lat="40.2518598" lon="-4.88652412"><ele>1105</ele><speed>10.36</speed><time>2017-04-09T11:56:57Z</time><pdop>4.0</pdop><geoidheight>0.00</geoidheight><course>333.3</course><type>1</type></trkpt>
      <trkpt lat="40.25193316" lon="-4.88660047"><ele>1107</ele><speed>11.35</speed><time>2017-04-09T11:56:58Z</time><pdop>4.0</pdop><geoidheight>0.00</geoidheight><course>319.9</course><type>1</type></trkpt>
      <trkpt lat="40.25200935" lon="-4.88673913"><ele>1107</ele><speed>14.46</speed><time>2017-04-09T11:56:59Z</time><pdop>4.0</pdop><geoidheight>0.00</geoidheight><course>302.7</course><type>1</type></trkpt>
      <trkpt lat="40.25207045" lon="-4.8869135"><ele>1107</ele><speed>16.56</speed><time>2017-04-09T11:57:00Z</time><pdop>5.0</pdop><geoidheight>0.00</geoidheight><course>292.5</course><type>1</type></trkpt>
      <trkpt lat="40.25212801" lon="-4.88710771"><ele>1109</ele><speed>17.90</speed><time>2017-04-09T11:57:01Z</time><pdop>5.0</pdop><geoidheight>0.00</geoidheight><course>285.8</course><type>1</type></trkpt>
      <trkpt lat="40.25217199" lon="-4.8873101"><ele>1109</ele><speed>17.90</speed><time>2017-04-09T11:57:02Z</time><pdop>6.0</pdop><geoidheight>0.00</geoidheight><course>285.8</course><type>1</type></trkpt>
      <trkpt lat="40.2521052" lon="-4.8875207"><ele>1107</ele><speed>16.02</speed><time>2017-04-09T11:57:03Z</time><pdop>4.0</pdop><geoidheight>0.00</geoidheight><course>257.3</course><type>1</type></trkpt>
      <trkpt lat="40.25203961" lon="-4.88767846"><ele>1109</ele><speed>13.97</speed><time>2017-04-09T11:57:04Z</time><pdop>4.0</pdop><geoidheight>0.00</geoidheight><course>241.3</course><type>1</type></trkpt>
      <trkpt lat="40.25196648" lon="-4.88779551"><ele>1109</ele><speed>12.17</speed><time>2017-04-09T11:57:05Z</time><pdop>4.0</pdop><geoidheight>0.00</geoidheight><course>227.0</course><type>1</type></trkpt>
      <trkpt lat="40.25189518" lon="-4.88788678"><ele>1109</ele><speed>11.29</speed><time>2017-04-09T11:57:06Z</time><pdop>5.0</pdop><geoidheight>0.00</geoidheight><course>222.7</course><type>1</type></trkpt>
      <trkpt lat="40.25181451" lon="-4.88795329"><ele>1113</ele><speed>9.94</speed><time>2017-04-09T11:57:07Z</time><pdop>5.0</pdop><geoidheight>0.00</geoidheight><course>209.9</course><type>1</type></trkpt>
      <trkpt lat="40.25172947" lon="-4.88799574"><ele>1113</ele><speed>9.17</speed><time>2017-04-09T11:57:08Z</time><pdop>5.0</pdop><geoidheight>0.00</geoidheight><course>211.7</course><type>1</type></trkpt>
      <trkpt lat="40.25161039" lon="-4.88811108"><ele>1117</ele><speed>9.16</speed><time>2017-04-09T11:57:10Z</time><pdop>5.0</pdop><geoidheight>0.00</geoidheight><course>214.6</course><type>1</type></trkpt>
      <trkpt lat="40.25154011" lon="-4.88817579"><ele>1115</ele><speed>10.09</speed><time>2017-04-09T11:57:11Z</time><pdop>4.0</pdop><geoidheight>0.00</geoidheight><course>210.5</course><type>1</type></trkpt>
      <trkpt lat="40.25145999" lon="-4.88823364"><ele>1115</ele><speed>10.19</speed><time>2017-04-09T11:57:12Z</time><pdop>5.0</pdop><geoidheight>0.00</geoidheight><course>207.1</course><type>1</type></trkpt>
      <trkpt lat="40.25129868" lon="-4.88830223"><ele>1118</ele><speed>9.17</speed><time>2017-04-09T11:57:14Z</time><pdop>5.0</pdop><geoidheight>0.00</geoidheight><course>199.1</course><type>1</type></trkpt>
      <trkpt lat="40.25115719" lon="-4.88838787"><ele>1121</ele><speed>8.43</speed><time>2017-04-09T11:57:16Z</time><pdop>5.0</pdop><geoidheight>0.00</geoidheight><course>202.7</course><type>1</type></trkpt>
      <trkpt lat="40.25100976" lon="-4.88846496"><ele>1122</ele><speed>9.27</speed><time>2017-04-09T11:57:18Z</time><pdop>5.0</pdop><geoidheight>0.00</geoidheight><course>201.3</course><type>1</type></trkpt>
      <trkpt lat="40.25083981" lon="-4.88852421"><ele>1123</ele><speed>9.86</speed><time>2017-04-09T11:57:20Z</time><pdop>5.0</pdop><geoidheight>0.00</geoidheight><course>196.4</course><type>1</type></trkpt>
      <trkpt lat="40.25075899" lon="-4.88855752"><ele>1125</ele><speed>9.80</speed><time>2017-04-09T11:57:21Z</time><pdop>4.0</pdop><geoidheight>0.00</geoidheight><course>208.2</course><type>1</type></trkpt>
      <trkpt lat="40.25069067" lon="-4.88861652"><ele>1127</ele><speed>9.19</speed><time>2017-04-09T11:57:22Z</time><pdop>5.0</pdop><geoidheight>0.00</geoidheight><course>215.6</course><type>1</type></trkpt>
      <trkpt lat="40.2505532" lon="-4.88873559"><ele>1128</ele><speed>8.99</speed><time>2017-04-09T11:57:24Z</time><pdop>5.0</pdop><geoidheight>0.00</geoidheight><course>210.4</course><type>1</type></trkpt>
      <trkpt lat="40.25040244" lon="-4.88886983"><ele>1132</ele><speed>10.19</speed><time>2017-04-09T11:57:26Z</time><pdop>4.0</pdop><geoidheight>0.00</geoidheight><course>216.5</course><type>1</type></trkpt>
      <trkpt lat="40.25033178" lon="-4.88894793"><ele>1131</ele><speed>11.00</speed><time>2017-04-09T11:57:27Z</time><pdop>4.0</pdop><geoidheight>0.00</geoidheight><course>223.5</course><type>1</type></trkpt>
      <trkpt lat="40.25026144" lon="-4.88904273"><ele>1131</ele><speed>11.71</speed><time>2017-04-09T11:57:28Z</time><pdop>4.0</pdop><geoidheight>0.00</geoidheight><course>226.8</course><type>1</type></trkpt>
      <trkpt lat="40.25018644" lon="-4.88914756"><ele>1130</ele><speed>12.25</speed><time>2017-04-09T11:57:29Z</time><pdop>4.0</pdop><geoidheight>0.00</geoidheight><course>227.0</course><type>1</type></trkpt>
      <trkpt lat="40.2501099" lon="-4.88925107"><ele>1128</ele><speed>12.63</speed><time>2017-04-09T11:57:30Z</time><pdop>4.0</pdop><geoidheight>0.00</geoidheight><course>226.0</course><type>1</type></trkpt>
      <trkpt lat="40.25002394" lon="-4.88936989"><ele>1128</ele><speed>13.25</speed><time>2017-04-09T11:57:31Z</time><pdop>4.0</pdop><geoidheight>0.00</geoidheight><course>224.6</course><type>1</type></trkpt>
      <trkpt lat="40.24993826" lon="-4.8894712"><ele>1128</ele><speed>13.77</speed><time>2017-04-09T11:57:32Z</time><pdop>4.0</pdop><geoidheight>0.00</geoidheight><course>221.2</course><type>1</type></trkpt>
      <trkpt lat="40.24983544" lon="-4.88956489"><ele>1128</ele><speed>13.87</speed><time>2017-04-09T11:57:33Z</time><pdop>4.0</pdop><geoidheight>0.00</geoidheight><course>217.9</course><type>1</type></trkpt>
      <trkpt lat="40.24973214" lon="-4.88965619"><ele>1129</ele><speed>13.59</speed><time>2017-04-09T11:57:34Z</time><pdop>4.0</pdop><geoidheight>0.00</geoidheight><course>218.4</course><type>1</type></trkpt>
      <trkpt lat="40.24965776" lon="-4.88974809"><ele>1132</ele><speed>12.36</speed><time>2017-04-09T11:57:35Z</time><pdop>4.0</pdop><geoidheight>0.00</geoidheight><course>219.9</course><type>1</type></trkpt>
      <trkpt lat="40.24957915" lon="-4.88983303"><ele>1135</ele><speed>10.42</speed><time>2017-04-09T11:57:36Z</time><pdop>4.0</pdop><geoidheight>0.00</geoidheight><course>221.3</course><type>1</type></trkpt>
      <trkpt lat="40.24950666" lon="-4.88990468"><ele>1138</ele><speed>8.91</speed><time>2017-04-09T11:57:37Z</time><pdop>4.0</pdop><geoidheight>0.00</geoidheight><course>218.4</course><type>1</type></trkpt>
      <trkpt lat="40.24944186" lon="-4.88996863"><ele>1140</ele><speed>8.06</speed><time>2017-04-09T11:57:38Z</time><pdop>4.0</pdop><geoidheight>0.00</geoidheight><course>210.7</course><type>1</type></trkpt>
      <trkpt lat="40.24931397" lon="-4.89002778"><ele>1141</ele><speed>7.23</speed><time>2017-04-09T11:57:40Z</time><pdop>5.0</pdop><geoidheight>0.00</geoidheight><course>204.5</course><type>1</type></trkpt>
      <trkpt lat="40.24926009" lon="-4.8899231"><ele>1146</ele><speed>4.51</speed><time>2017-04-09T11:57:42Z</time><pdop>5.0</pdop><geoidheight>0.00</geoidheight><course>112.4</course><type>1</type></trkpt>
      <trkpt lat="40.24923978" lon="-4.88980756"><ele>1160</ele><speed>2.93</speed><time>2017-04-09T11:57:47Z</time><pdop>4.0</pdop><geoidheight>0.00</geoidheight><course>60.1</course><type>1</type></trkpt>
      <trkpt lat="40.24935208" lon="-4.88980907"><ele>1166</ele><speed>6.78</speed><time>2017-04-09T11:57:50Z</time><pdop>4.0</pdop><geoidheight>0.00</geoidheight><course>327.1</course><type>1</type></trkpt>
      <trkpt lat="40.24944844" lon="-4.88994296"><ele>1168</ele><speed>7.96</speed><time>2017-04-09T11:57:52Z</time><pdop>5.0</pdop><geoidheight>0.00</geoidheight><course>311.9</course><type>1</type></trkpt>
      <trkpt lat="40.24956638" lon="-4.89012282"><ele>1169</ele><speed>11.20</speed><time>2017-04-09T11:57:54Z</time><pdop>4.0</pdop><geoidheight>0.00</geoidheight><course>303.9</course><type>1</type></trkpt>
      <trkpt lat="40.24962229" lon="-4.89025356"><ele>1169</ele><speed>12.71</speed><time>2017-04-09T11:57:55Z</time><pdop>5.0</pdop><geoidheight>0.00</geoidheight><course>293.1</course><type>1</type></trkpt>
      <trkpt lat="40.24967461" lon="-4.89042405"><ele>1172</ele><speed>16.10</speed><time>2017-04-09T11:57:56Z</time><pdop>5.0</pdop><geoidheight>0.00</geoidheight><course>287.5</course><type>1</type></trkpt>
      <trkpt lat="40.24970967" lon="-4.89059781"><ele>1173</ele><speed>15.74</speed><time>2017-04-09T11:57:57Z</time><pdop>5.0</pdop><geoidheight>0.00</geoidheight><course>285.0</course><type>1</type></trkpt>
      <trkpt lat="40.24973388" lon="-4.89076711"><ele>1173</ele><speed>14.20</speed><time>2017-04-09T11:57:58Z</time><pdop>6.0</pdop><geoidheight>0.00</geoidheight><course>280.4</course><type>1</type></trkpt>
      <trkpt lat="40.2496824" lon="-4.89092514"><ele>1174</ele><speed>14.26</speed><time>2017-04-09T11:57:59Z</time><pdop>5.0</pdop><geoidheight>0.00</geoidheight><course>251.9</course><type>1</type></trkpt>
      <trkpt lat="40.24964137" lon="-4.89108949"><ele>1176</ele><speed>14.42</speed><time>2017-04-09T11:58:00Z</time><pdop>5.0</pdop><geoidheight>0.00</geoidheight><course>251.2</course><type>1</type></trkpt>
      <trkpt lat="40.24959814" lon="-4.8912494"><ele>1177</ele><speed>13.97</speed><time>2017-04-09T11:58:01Z</time><pdop>5.0</pdop><geoidheight>0.00</geoidheight><course>248.5</course><type>1</type></trkpt>
      <trkpt lat="40.249549" lon="-4.89139502"><ele>1180</ele><speed>12.81</speed><time>2017-04-09T11:58:02Z</time><pdop>5.0</pdop><geoidheight>0.00</geoidheight><course>242.2</course><type>1</type></trkpt>
      <trkpt lat="40.24948783" lon="-4.89152496"><ele>1184</ele><speed>12.48</speed><time>2017-04-09T11:58:03Z</time><pdop>5.0</pdop><geoidheight>0.00</geoidheight><course>231.6</course><type>1</type></trkpt>
      <trkpt lat="40.24942231" lon="-4.89163325"><ele>1184</ele><speed>11.61</speed><time>2017-04-09T11:58:04Z</time><pdop>4.0</pdop><geoidheight>0.00</geoidheight><course>221.6</course><type>1</type></trkpt>
      <trkpt lat="40.24935191" lon="-4.89170014"><ele>1186</ele><speed>10.75</speed><time>2017-04-09T11:58:05Z</time><pdop>4.0</pdop><geoidheight>0.00</geoidheight><course>210.9</course><type>1</type></trkpt>
      <trkpt lat="40.24926741" lon="-4.89175335"><ele>1187</ele><speed>9.30</speed><time>2017-04-09T11:58:06Z</time><pdop>4.0</pdop><geoidheight>0.00</geoidheight><course>199.9</course><type>1</type></trkpt>
      <trkpt lat="40.24918785" lon="-4.89180396"><ele>1188</ele><speed>7.63</speed><time>2017-04-09T11:58:07Z</time><pdop>4.0</pdop><geoidheight>0.00</geoidheight><course>189.5</course><type>1</type></trkpt>
      <trkpt lat="40.24907778" lon="-4.89177803"><ele>1189</ele><speed>5.49</speed><time>2017-04-09T11:58:09Z</time><pdop>4.0</pdop><geoidheight>0.00</geoidheight><course>145.4</course><type>1</type></trkpt>
      <trkpt lat="40.24899786" lon="-4.89169473"><ele>1191</ele><speed>5.52</speed><time>2017-04-09T11:58:11Z</time><pdop>4.0</pdop><geoidheight>0.00</geoidheight><course>129.4</course><type>1</type></trkpt>
      <trkpt lat="40.24894412" lon="-4.89162699"><ele>1198</ele><speed>2.87</speed><time>2017-04-09T11:58:13Z</time><pdop>4.0</pdop><geoidheight>0.00</geoidheight><course>139.3</course><type>1</type></trkpt>
      <trkpt lat="40.2488689" lon="-4.89157752"><ele>1199</ele><speed>2.76</speed><time>2017-04-09T11:58:16Z</time><pdop>4.0</pdop><geoidheight>0.00</geoidheight><course>158.9</course><type>1</type></trkpt>
      <trkpt lat="40.24878871" lon="-4.89153134"><ele>1199</ele><speed>2.02</speed><time>2017-04-09T11:58:19Z</time><pdop>5.0</pdop><geoidheight>0.00</geoidheight><course>139.4</course><type>1</type></trkpt>
      <trkpt lat="40.24887894" lon="-4.89145862"><ele>1199</ele><speed>4.53</speed><time>2017-04-09T11:58:21Z</time><pdop>5.0</pdop><geoidheight>0.00</geoidheight><course>358.5</course><type>1</type></trkpt>
      <trkpt lat="40.2490068" lon="-4.89151725"><ele>1201</ele><speed>6.48</speed><time>2017-04-09T11:58:24Z</time><pdop>5.0</pdop><geoidheight>0.00</geoidheight><course>333.2</course><type>1</type></trkpt>
      <trkpt lat="40.24911971" lon="-4.89160806"><ele>1203</ele><speed>7.36</speed><time>2017-04-09T11:58:26Z</time><pdop>5.0</pdop><geoidheight>0.00</geoidheight><course>325.9</course><type>1</type></trkpt>
      <trkpt lat="40.24921855" lon="-4.89166838"><ele>1203</ele><speed>6.43</speed><time>2017-04-09T11:58:28Z</time><pdop>5.0</pdop><geoidheight>0.00</geoidheight><course>344.5</course><type>1</type></trkpt>
      <trkpt lat="40.24932227" lon="-4.89168967"><ele>1203</ele><speed>5.78</speed><time>2017-04-09T11:58:30Z</time><pdop>4.0</pdop><geoidheight>0.00</geoidheight><course>351.4</course><type>1</type></trkpt>
      <trkpt lat="40.24939342" lon="-4.89166407"><ele>1204</ele><speed>4.68</speed><time>2017-04-09T11:58:32Z</time><pdop>4.0</pdop><geoidheight>0.00</geoidheight><course>25.2</course><type>1</type></trkpt>
      <trkpt lat="40.24942168" lon="-4.89156836"><ele>1210</ele><speed>1.43</speed><time>2017-04-09T11:58:36Z</time><pdop>4.0</pdop><geoidheight>0.00</geoidheight><course>73.9</course><type>1</type></trkpt>
      <trkpt lat="40.24941252" lon="-4.89147494"><ele>1208</ele><speed>2.85</speed><time>2017-04-09T11:58:39Z</time><pdop>4.0</pdop><geoidheight>0.00</geoidheight><course>92.6</course><type>1</type></trkpt>
      <trkpt lat="40.24937133" lon="-4.89138628"><ele>1210</ele><speed>1.98</speed><time>2017-04-09T11:58:43Z</time><pdop>4.0</pdop><geoidheight>0.00</geoidheight><course>154.0</course><type>1</type></trkpt>
      <trkpt lat="40.24927616" lon="-4.89137234"><ele>1208</ele><speed>3.03</speed><time>2017-04-09T11:58:47Z</time><pdop>3.0</pdop><geoidheight>0.00</geoidheight><course>179.5</course><type>1</type></trkpt>
      <trkpt lat="40.24922122" lon="-4.89133136"><ele>1206</ele><speed>2.76</speed><time>2017-04-09T11:58:50Z</time><pdop>3.0</pdop><geoidheight>0.00</geoidheight><course>132.3</course><type>1</type></trkpt>
      <trkpt lat="40.24924165" lon="-4.89124516"><ele>1208</ele><speed>2.95</speed><time>2017-04-09T11:58:53Z</time><pdop>3.0</pdop><geoidheight>0.00</geoidheight><course>17.0</course><type>1</type></trkpt>
      <trkpt lat="40.24936474" lon="-4.89123778"><ele>1207</ele><speed>5.84</speed><time>2017-04-09T11:58:55Z</time><pdop>3.0</pdop><geoidheight>0.00</geoidheight><course>353.5</course><type>1</type></trkpt>
      <trkpt lat="40.2494273" lon="-4.89124609"><ele>1205</ele><speed>7.27</speed><time>2017-04-09T11:58:56Z</time><pdop>3.0</pdop><geoidheight>0.00</geoidheight><course>347.1</course><type>1</type></trkpt>
      <trkpt lat="40.24949403" lon="-4.89126821"><ele>1205</ele><speed>8.22</speed><time>2017-04-09T11:58:57Z</time><pdop>3.0</pdop><geoidheight>0.00</geoidheight><course>341.2</course><type>1</type></trkpt>
      <trkpt lat="40.24957043" lon="-4.89131122"><ele>1204</ele><speed>9.59</speed><time>2017-04-09T11:58:58Z</time><pdop>3.0</pdop><geoidheight>0.00</geoidheight><course>329.7</course><type>1</type></trkpt>
      <trkpt lat="40.24964357" lon="-4.89138931"><ele>1204</ele><speed>11.45</speed><time>2017-04-09T11:58:59Z</time><pdop>3.0</pdop><geoidheight>0.00</geoidheight><course>315.8</course><type>1</type></trkpt>
      <trkpt lat="40.24971293" lon="-4.89150703"><ele>1203</ele><speed>13.03</speed><time>2017-04-09T11:59:00Z</time><pdop>3.0</pdop><geoidheight>0.00</geoidheight><course>301.6</course><type>1</type></trkpt>
      <trkpt lat="40.24976111" lon="-4.89162967"><ele>1203</ele><speed>12.53</speed><time>2017-04-09T11:59:01Z</time><pdop>4.0</pdop><geoidheight>0.00</geoidheight><course>291.3</course><type>1</type></trkpt>
      <trkpt lat="40.249764" lon="-4.8918258"><ele>1203</ele><speed>16.12</speed><time>2017-04-09T11:59:02Z</time><pdop>4.0</pdop><geoidheight>0.00</geoidheight><course>273.0</course><type>1</type></trkpt>
      <trkpt lat="40.24975831" lon="-4.89201674"><ele>1202</ele><speed>16.24</speed><time>2017-04-09T11:59:03Z</time><pdop>4.0</pdop><geoidheight>0.00</geoidheight><course>261.7</course><type>1</type></trkpt>
      <trkpt lat="40.24973096" lon="-4.89217404"><ele>1202</ele><speed>14.86</speed><time>2017-04-09T11:59:04Z</time><pdop>4.0</pdop><geoidheight>0.00</geoidheight><course>252.9</course><type>1</type></trkpt>
      <trkpt lat="40.24969856" lon="-4.89234605"><ele>1204</ele><speed>14.28</speed><time>2017-04-09T11:59:05Z</time><pdop>4.0</pdop><geoidheight>0.00</geoidheight><course>251.9</course><type>1</type></trkpt>
      <trkpt lat="40.24965538" lon="-4.89250425"><ele>1205</ele><speed>15.08</speed><time>2017-04-09T11:59:06Z</time><pdop>4.0</pdop><geoidheight>0.00</geoidheight><course>251.4</course><type>1</type></trkpt>
      <trkpt lat="40.24960145" lon="-4.89266421"><ele>1205</ele><speed>15.25</speed><time>2017-04-09T11:59:07Z</time><pdop>4.0</pdop><geoidheight>0.00</geoidheight><course>245.7</course><type>1</type></trkpt>
      <trkpt lat="40.24954195" lon="-4.89282893"><ele>1203</ele><speed>14.86</speed><time>2017-04-09T11:59:08Z</time><pdop>4.0</pdop><geoidheight>0.00</geoidheight><course>233.6</course><type>1</type></trkpt>
      <trkpt lat="40.2494566" lon="-4.89295853"><ele>1201</ele><speed>14.43</speed><time>2017-04-09T11:59:09Z</time><pdop>3.0</pdop><geoidheight>0.00</geoidheight><course>224.7</course><type>1</type></trkpt>
      <trkpt lat="40.24934716" lon="-4.89307429"><ele>1198</ele><speed>14.06</speed><time>2017-04-09T11:59:10Z</time><pdop>4.0</pdop><geoidheight>0.00</geoidheight><course>217.8</course><type>1</type></trkpt>
      <trkpt lat="40.24924183" lon="-4.89316777"><ele>1199</ele><speed>14.07</speed><time>2017-04-09T11:59:11Z</time><pdop>4.0</pdop><geoidheight>0.00</geoidheight><course>211.3</course><type>1</type></trkpt>
      <trkpt lat="40.24914365" lon="-4.89323577"><ele>1199</ele><speed>13.33</speed><time>2017-04-09T11:59:12Z</time><pdop>4.0</pdop><geoidheight>0.00</geoidheight><course>205.3</course><type>1</type></trkpt>
      <trkpt lat="40.24904471" lon="-4.89327286"><ele>1199</ele><speed>10.98</speed><time>2017-04-09T11:59:13Z</time><pdop>4.0</pdop><geoidheight>0.00</geoidheight><course>199.2</course><type>1</type></trkpt>
      <trkpt lat="40.24896202" lon="-4.8933007"><ele>1200</ele><speed>8.00</speed><time>2017-04-09T11:59:14Z</time><pdop>4.0</pdop><geoidheight>0.00</geoidheight><course>194.3</course><type>1</type></trkpt>
      <trkpt lat="40.24884531" lon="-4.89332282"><ele>1201</ele><speed>6.39</speed><time>2017-04-09T11:59:16Z</time><pdop>5.0</pdop><geoidheight>0.00</geoidheight><course>180.1</course><type>1</type></trkpt>
      <trkpt lat="40.24870803" lon="-4.89327985"><ele>1198</ele><speed>7.94</speed><time>2017-04-09T11:59:18Z</time><pdop>4.0</pdop><geoidheight>0.00</geoidheight><course>170.5</course><type>1</type></trkpt>
      <trkpt lat="40.2486353" lon="-4.89326741"><ele>1199</ele><speed>7.36</speed><time>2017-04-09T11:59:19Z</time><pdop>4.0</pdop><geoidheight>0.00</geoidheight><course>174.8</course><type>1</type></trkpt>
      <trkpt lat="40.24851597" lon="-4.89329039"><ele>1203</ele><speed>6.41</speed><time>2017-04-09T11:59:21Z</time><pdop>4.0</pdop><geoidheight>0.00</geoidheight><course>200.1</course><type>1</type></trkpt>
      <trkpt lat="40.24841048" lon="-4.89331801"><ele>1200</ele><speed>4.69</speed><time>2017-04-09T11:59:23Z</time><pdop>4.0</pdop><geoidheight>0.00</geoidheight><course>176.6</course><type>1</type></trkpt>
      <trkpt lat="40.24834882" lon="-4.89326366"><ele>1197</ele><speed>5.21</speed><time>2017-04-09T11:59:25Z</time><pdop>4.0</pdop><geoidheight>0.00</geoidheight><course>138.0</course><type>1</type></trkpt>
      <trkpt lat="40.24827328" lon="-4.89320497"><ele>1199</ele><speed>5.12</speed><time>2017-04-09T11:59:27Z</time><pdop>3.0</pdop><geoidheight>0.00</geoidheight><course>155.1</course><type>1</type></trkpt>
      <trkpt lat="40.24818712" lon="-4.89315126"><ele>1201</ele><speed>5.69</speed><time>2017-04-09T11:59:29Z</time><pdop>4.0</pdop><geoidheight>0.00</geoidheight><course>142.8</course><type>1</type></trkpt>
      <trkpt lat="40.24812108" lon="-4.893075"><ele>1206</ele><speed>5.17</speed><time>2017-04-09T11:59:31Z</time><pdop>3.0</pdop><geoidheight>0.00</geoidheight><course>136.2</course><type>1</type></trkpt>
      <trkpt lat="40.24803795" lon="-4.89302613"><ele>1209</ele><speed>5.11</speed><time>2017-04-09T11:59:33Z</time><pdop>3.0</pdop><geoidheight>0.00</geoidheight><course>160.4</course><type>1</type></trkpt>
      <trkpt lat="40.24797024" lon="-4.89295745"><ele>1211</ele><speed>5.92</speed><time>2017-04-09T11:59:35Z</time><pdop>3.0</pdop><geoidheight>0.00</geoidheight><course>124.6</course><type>1</type></trkpt>
      <trkpt lat="40.24794884" lon="-4.89289054"><ele>1213</ele><speed>5.63</speed><time>2017-04-09T11:59:36Z</time><pdop>3.0</pdop><geoidheight>0.00</geoidheight><course>122.0</course><type>1</type></trkpt>
      <trkpt lat="40.24788926" lon="-4.89282851"><ele>1217</ele><speed>4.30</speed><time>2017-04-09T11:59:38Z</time><pdop>3.0</pdop><geoidheight>0.00</geoidheight><course>161.7</course><type>1</type></trkpt>
      <trkpt lat="40.24781222" lon="-4.89280563"><ele>1216</ele><speed>4.25</speed><time>2017-04-09T11:59:40Z</time><pdop>3.0</pdop><geoidheight>0.00</geoidheight><course>157.2</course><type>1</type></trkpt>
      <trkpt lat="40.2477592" lon="-4.8927564"><ele>1217</ele><speed>3.26</speed><time>2017-04-09T11:59:42Z</time><pdop>3.0</pdop><geoidheight>0.00</geoidheight><course>122.3</course><type>1</type></trkpt>
      <trkpt lat="40.24769441" lon="-4.89269361"><ele>1217</ele><speed>3.32</speed><time>2017-04-09T11:59:45Z</time><pdop>3.0</pdop><geoidheight>0.00</geoidheight><course>125.9</course><type>1</type></trkpt>
      <trkpt lat="40.24762566" lon="-4.89262722"><ele>1216</ele><speed>5.12</speed><time>2017-04-09T11:59:47Z</time><pdop>3.0</pdop><geoidheight>0.00</geoidheight><course>141.0</course><type>1</type></trkpt>
      <trkpt lat="40.24757437" lon="-4.89256586"><ele>1215</ele><speed>2.18</speed><time>2017-04-09T11:59:49Z</time><pdop>3.0</pdop><geoidheight>0.00</geoidheight><course>123.5</course><type>1</type></trkpt>
      <trkpt lat="40.24763394" lon="-4.89250312"><ele>1215</ele><speed>4.81</speed><time>2017-04-09T11:59:52Z</time><pdop>4.0</pdop><geoidheight>0.00</geoidheight><course>27.8</course><type>1</type></trkpt>
      <trkpt lat="40.24774641" lon="-4.89251135"><ele>1217</ele><speed>6.97</speed><time>2017-04-09T11:59:54Z</time><pdop>4.0</pdop><geoidheight>0.00</geoidheight><course>348.3</course><type>1</type></trkpt>
      <trkpt lat="40.24787825" lon="-4.89259932"><ele>1219</ele><speed>8.95</speed><time>2017-04-09T11:59:56Z</time><pdop>4.0</pdop><geoidheight>0.00</geoidheight><course>326.0</course><type>1</type></trkpt>
      <trkpt lat="40.24794823" lon="-4.89265905"><ele>1219</ele><speed>9.20</speed><time>2017-04-09T11:59:57Z</time><pdop>4.0</pdop><geoidheight>0.00</geoidheight><course>323.4</course><type>1</type></trkpt>
      <trkpt lat="40.24801521" lon="-4.89271776"><ele>1220</ele><speed>8.53</speed><time>2017-04-09T11:59:58Z</time><pdop>4.0</pdop><geoidheight>0.00</geoidheight><course>326.7</course><type>1</type></trkpt>
      <trkpt lat="40.24807986" lon="-4.89276141"><ele>1221</ele><speed>7.98</speed><time>2017-04-09T11:59:59Z</time><pdop>4.0</pdop><geoidheight>0.00</geoidheight><course>333.7</course><type>1</type></trkpt>
      <trkpt lat="40.24815597" lon="-4.89278621"><ele>1222</ele><speed>8.22</speed><time>2017-04-09T12:00:00Z</time><pdop>3.0</pdop><geoidheight>0.00</geoidheight><course>341.3</course><type>1</type></trkpt>
      <trkpt lat="40.24823027" lon="-4.89282093"><ele>1222</ele><speed>8.35</speed><time>2017-04-09T12:00:01Z</time><pdop>3.0</pdop><geoidheight>0.00</geoidheight><course>337.0</course><type>1</type></trkpt>
      <trkpt lat="40.24830314" lon="-4.89285376"><ele>1224</ele><speed>8.19</speed><time>2017-04-09T12:00:02Z</time><pdop>3.0</pdop><geoidheight>0.00</geoidheight><course>333.8</course><type>1</type></trkpt>
      <trkpt lat="40.24836242" lon="-4.89289532"><ele>1226</ele><speed>8.49</speed><time>2017-04-09T12:00:03Z</time><pdop>3.0</pdop><geoidheight>0.00</geoidheight><course>330.7</course><type>1</type></trkpt>
      <trkpt lat="40.24843222" lon="-4.89294292"><ele>1228</ele><speed>8.99</speed><time>2017-04-09T12:00:04Z</time><pdop>3.0</pdop><geoidheight>0.00</geoidheight><course>331.1</course><type>1</type></trkpt>
      <trkpt lat="40.24850699" lon="-4.89298937"><ele>1228</ele><speed>9.30</speed><time>2017-04-09T12:00:05Z</time><pdop>3.0</pdop><geoidheight>0.00</geoidheight><course>334.0</course><type>1</type></trkpt>
      <trkpt lat="40.24858368" lon="-4.893041"><ele>1228</ele><speed>9.56</speed><time>2017-04-09T12:00:06Z</time><pdop>4.0</pdop><geoidheight>0.00</geoidheight><course>331.7</course><type>1</type></trkpt>
      <trkpt lat="40.24866767" lon="-4.89309782"><ele>1229</ele><speed>9.84</speed><time>2017-04-09T12:00:07Z</time><pdop>4.0</pdop><geoidheight>0.00</geoidheight><course>329.7</course><type>1</type></trkpt>
      <trkpt lat="40.24874381" lon="-4.89316681"><ele>1230</ele><speed>10.14</speed><time>2017-04-09T12:00:08Z</time><pdop>3.0</pdop><geoidheight>0.00</geoidheight><course>326.8</course><type>1</type></trkpt>
      <trkpt lat="40.24882535" lon="-4.89323026"><ele>1231</ele><speed>10.45</speed><time>2017-04-09T12:00:09Z</time><pdop>3.0</pdop><geoidheight>0.00</geoidheight><course>327.4</course><type>1</type></trkpt>
      <trkpt lat="40.24890511" lon="-4.89329283"><ele>1233</ele><speed>9.80</speed><time>2017-04-09T12:00:10Z</time><pdop>4.0</pdop><geoidheight>0.00</geoidheight><course>327.1</course><type>1</type></trkpt>
      <trkpt lat="40.24902418" lon="-4.89340311"><ele>1239</ele><speed>8.58</speed><time>2017-04-09T12:00:12Z</time><pdop>5.0</pdop><geoidheight>0.00</geoidheight><course>312.9</course><type>1</type></trkpt>
      <trkpt lat="40.24913326" lon="-4.8935367"><ele>1239</ele><speed>8.31</speed><time>2017-04-09T12:00:14Z</time><pdop>5.0</pdop><geoidheight>0.00</geoidheight><course>325.2</course><type>1</type></trkpt>
      <trkpt lat="40.24926923" lon="-4.8936062"><ele>1239</ele><speed>7.94</speed><time>2017-04-09T12:00:16Z</time><pdop>5.0</pdop><geoidheight>0.00</geoidheight><course>350.1</course><type>1</type></trkpt>
      <trkpt lat="40.24932889" lon="-4.89352451"><ele>1245</ele><speed>1.64</speed><time>2017-04-09T12:00:20Z</time><pdop>4.0</pdop><geoidheight>0.00</geoidheight><course>109.8</course><type>1</type></trkpt>
      <trkpt lat="40.24931894" lon="-4.89343074"><ele>1250</ele><speed>2.31</speed><time>2017-04-09T12:00:24Z</time><pdop>4.0</pdop><geoidheight>0.00</geoidheight><course>103.2</course><type>1</type></trkpt>
      <trkpt lat="40.2493036" lon="-4.89332039"><ele>1256</ele><speed>2.78</speed><time>2017-04-09T12:00:29Z</time><pdop>4.0</pdop><geoidheight>0.00</geoidheight><course>117.0</course><type>1</type></trkpt>
      <trkpt lat="40.24929326" lon="-4.89322025"><ele>1256</ele><speed>3.81</speed><time>2017-04-09T12:00:32Z</time><pdop>4.0</pdop><geoidheight>0.00</geoidheight><course>71.6</course><type>1</type></trkpt>
      <trkpt lat="40.24941689" lon="-4.89323408"><ele>1257</ele><speed>7.97</speed><time>2017-04-09T12:00:34Z</time><pdop>3.0</pdop><geoidheight>0.00</geoidheight><course>351.6</course><type>1</type></trkpt>
      <trkpt lat="40.24948385" lon="-4.89326168"><ele>1258</ele><speed>7.41</speed><time>2017-04-09T12:00:35Z</time><pdop>4.0</pdop><geoidheight>0.00</geoidheight><course>335.7</course><type>1</type></trkpt>
      <trkpt lat="40.24955986" lon="-4.89335055"><ele>1258</ele><speed>10.12</speed><time>2017-04-09T12:00:36Z</time><pdop>3.0</pdop><geoidheight>0.00</geoidheight><course>316.2</course><type>1</type></trkpt>
      <trkpt lat="40.24961303" lon="-4.89345813"><ele>1259</ele><speed>10.98</speed><time>2017-04-09T12:00:37Z</time><pdop>3.0</pdop><geoidheight>0.00</geoidheight><course>296.5</course><type>1</type></trkpt>
      <trkpt lat="40.24964767" lon="-4.89359074"><ele>1259</ele><speed>11.73</speed><time>2017-04-09T12:00:38Z</time><pdop>3.0</pdop><geoidheight>0.00</geoidheight><course>282.6</course><type>1</type></trkpt>
      <trkpt lat="40.24965882" lon="-4.89372974"><ele>1258</ele><speed>12.76</speed><time>2017-04-09T12:00:39Z</time><pdop>3.0</pdop><geoidheight>0.00</geoidheight><course>275.2</course><type>1</type></trkpt>
      <trkpt lat="40.24966968" lon="-4.89389301"><ele>1258</ele><speed>14.01</speed><time>2017-04-09T12:00:40Z</time><pdop>3.0</pdop><geoidheight>0.00</geoidheight><course>270.0</course><type>1</type></trkpt>
      <trkpt lat="40.24965574" lon="-4.89405436"><ele>1259</ele><speed>13.96</speed><time>2017-04-09T12:00:41Z</time><pdop>3.0</pdop><geoidheight>0.00</geoidheight><course>260.2</course><type>1</type></trkpt>
      <trkpt lat="40.24960262" lon="-4.89424302"><ele>1259</ele><speed>15.04</speed><time>2017-04-09T12:00:42Z</time><pdop>3.0</pdop><geoidheight>0.00</geoidheight><course>248.5</course><type>1</type></trkpt>
      <trkpt lat="40.24953536" lon="-4.89439249"><ele>1259</ele><speed>14.35</speed><time>2017-04-09T12:00:43Z</time><pdop>3.0</pdop><geoidheight>0.00</geoidheight><course>232.3</course><type>1</type></trkpt>
      <trkpt lat="40.24944536" lon="-4.89450603"><ele>1260</ele><speed>13.48</speed><time>2017-04-09T12:00:44Z</time><pdop>3.0</pdop><geoidheight>0.00</geoidheight><course>216.1</course><type>1</type></trkpt>
      <trkpt lat="40.24934728" lon="-4.8945774"><ele>1262</ele><speed>12.76</speed><time>2017-04-09T12:00:45Z</time><pdop>3.0</pdop><geoidheight>0.00</geoidheight><course>203.2</course><type>1</type></trkpt>
      <trkpt lat="40.24924779" lon="-4.89463173"><ele>1263</ele><speed>11.95</speed><time>2017-04-09T12:00:46Z</time><pdop>3.0</pdop><geoidheight>0.00</geoidheight><course>197.4</course><type>1</type></trkpt>
      <trkpt lat="40.24915241" lon="-4.89467939"><ele>1265</ele><speed>10.53</speed><time>2017-04-09T12:00:47Z</time><pdop>3.0</pdop><geoidheight>0.00</geoidheight><course>198.9</course><type>1</type></trkpt>
      <trkpt lat="40.2490702" lon="-4.89471467"><ele>1267</ele><speed>9.32</speed><time>2017-04-09T12:00:48Z</time><pdop>3.0</pdop><geoidheight>0.00</geoidheight><course>195.8</course><type>1</type></trkpt>
      <trkpt lat="40.24898755" lon="-4.89474512"><ele>1267</ele><speed>9.57</speed><time>2017-04-09T12:00:49Z</time><pdop>3.0</pdop><geoidheight>0.00</geoidheight><course>194.8</course><type>1</type></trkpt>
      <trkpt lat="40.2489042" lon="-4.89477182"><ele>1267</ele><speed>9.41</speed><time>2017-04-09T12:00:50Z</time><pdop>4.0</pdop><geoidheight>0.00</geoidheight><course>190.9</course><type>1</type></trkpt>
      <trkpt lat="40.24882205" lon="-4.89476309"><ele>1267</ele><speed>9.15</speed><time>2017-04-09T12:00:51Z</time><pdop>4.0</pdop><geoidheight>0.00</geoidheight><course>180.1</course><type>1</type></trkpt>
      <trkpt lat="40.24873786" lon="-4.89476715"><ele>1268</ele><speed>9.16</speed><time>2017-04-09T12:00:52Z</time><pdop>4.0</pdop><geoidheight>0.00</geoidheight><course>170.0</course><type>1</type></trkpt>
      <trkpt lat="40.24857925" lon="-4.89474169"><ele>1271</ele><speed>8.11</speed><time>2017-04-09T12:00:54Z</time><pdop>4.0</pdop><geoidheight>0.00</geoidheight><course>166.1</course><type>1</type></trkpt>
      <trkpt lat="40.24850233" lon="-4.89472442"><ele>1274</ele><speed>7.26</speed><time>2017-04-09T12:00:55Z</time><pdop>4.0</pdop><geoidheight>0.00</geoidheight><course>168.8</course><type>1</type></trkpt>
      <trkpt lat="40.2483844" lon="-4.89472597"><ele>1279</ele><speed>6.05</speed><time>2017-04-09T12:00:57Z</time><pdop>4.0</pdop><geoidheight>0.00</geoidheight><course>174.5</course><type>1</type></trkpt>
      <trkpt lat="40.24827056" lon="-4.89470739"><ele>1281</ele><speed>5.62</speed><time>2017-04-09T12:00:59Z</time><pdop>4.0</pdop><geoidheight>0.00</geoidheight><course>152.2</course><type>1</type></trkpt>
      <trkpt lat="40.24817666" lon="-4.89464915"><ele>1283</ele><speed>6.03</speed><time>2017-04-09T12:01:01Z</time><pdop>4.0</pdop><geoidheight>0.00</geoidheight><course>156.8</course><type>1</type></trkpt>
      <trkpt lat="40.24806873" lon="-4.8946328"><ele>1284</ele><speed>6.07</speed><time>2017-04-09T12:01:03Z</time><pdop>3.0</pdop><geoidheight>0.00</geoidheight><course>172.5</course><type>1</type></trkpt>
      <trkpt lat="40.24796502" lon="-4.89460538"><ele>1281</ele><speed>6.37</speed><time>2017-04-09T12:01:05Z</time><pdop>3.0</pdop><geoidheight>0.00</geoidheight><course>150.0</course><type>1</type></trkpt>
      <trkpt lat="40.24790671" lon="-4.8945801"><ele>1281</ele><speed>6.79</speed><time>2017-04-09T12:01:06Z</time><pdop>3.0</pdop><geoidheight>0.00</geoidheight><course>146.2</course><type>1</type></trkpt>
      <trkpt lat="40.24785151" lon="-4.89453859"><ele>1281</ele><speed>6.68</speed><time>2017-04-09T12:01:07Z</time><pdop>3.0</pdop><geoidheight>0.00</geoidheight><course>147.9</course><type>1</type></trkpt>
      <trkpt lat="40.24776999" lon="-4.89447728"><ele>1280</ele><speed>5.28</speed><time>2017-04-09T12:01:09Z</time><pdop>3.0</pdop><geoidheight>0.00</geoidheight><course>148.3</course><type>1</type></trkpt>
      <trkpt lat="40.24768657" lon="-4.89439905"><ele>1276</ele><speed>4.92</speed><time>2017-04-09T12:01:11Z</time><pdop>3.0</pdop><geoidheight>0.00</geoidheight><course>133.0</course><type>1</type></trkpt>
      <trkpt lat="40.24761501" lon="-4.89430156"><ele>1272</ele><speed>6.26</speed><time>2017-04-09T12:01:13Z</time><pdop>3.0</pdop><geoidheight>0.00</geoidheight><course>122.1</course><type>1</type></trkpt>
      <trkpt lat="40.24754877" lon="-4.89420671"><ele>1270</ele><speed>4.97</speed><time>2017-04-09T12:01:15Z</time><pdop>3.0</pdop><geoidheight>0.00</geoidheight><course>118.2</course><type>1</type></trkpt>
      <trkpt lat="40.24752434" lon="-4.89412664"><ele>1267</ele><speed>3.64</speed><time>2017-04-09T12:01:17Z</time><pdop>3.0</pdop><geoidheight>0.00</geoidheight><course>111.4</course><type>1</type></trkpt>
      <trkpt lat="40.24752513" lon="-4.89403454"><ele>1264</ele><speed>4.50</speed><time>2017-04-09T12:01:19Z</time><pdop>3.0</pdop><geoidheight>0.00</geoidheight><course>69.2</course><type>1</type></trkpt>
      <trkpt lat="40.24754241" lon="-4.89391775"><ele>1260</ele><speed>4.93</speed><time>2017-04-09T12:01:21Z</time><pdop>3.0</pdop><geoidheight>0.00</geoidheight><course>76.0</course><type>1</type></trkpt>
      <trkpt lat="40.24754891" lon="-4.89379812"><ele>1256</ele><speed>4.68</speed><time>2017-04-09T12:01:23Z</time><pdop>3.0</pdop><geoidheight>0.00</geoidheight><course>81.4</course><type>1</type></trkpt>
      <trkpt lat="40.24755389" lon="-4.89370425"><ele>1250</ele><speed>3.61</speed><time>2017-04-09T12:01:25Z</time><pdop>4.0</pdop><geoidheight>0.00</geoidheight><course>35.3</course><type>1</type></trkpt>
      <trkpt lat="40.24761374" lon="-4.89364727"><ele>1246</ele><speed>4.67</speed><time>2017-04-09T12:01:27Z</time><pdop>4.0</pdop><geoidheight>0.00</geoidheight><course>14.8</course><type>1</type></trkpt>
      <trkpt lat="40.24771475" lon="-4.89360301"><ele>1241</ele><speed>7.58</speed><time>2017-04-09T12:01:29Z</time><pdop>4.0</pdop><geoidheight>0.00</geoidheight><course>357.8</course><type>1</type></trkpt>
      <trkpt lat="40.24779233" lon="-4.89361299"><ele>1238</ele><speed>9.07</speed><time>2017-04-09T12:01:30Z</time><pdop>3.0</pdop><geoidheight>0.00</geoidheight><course>349.6</course><type>1</type></trkpt>
      <trkpt lat="40.24787047" lon="-4.89363995"><ele>1235</ele><speed>9.56</speed><time>2017-04-09T12:01:31Z</time><pdop>3.0</pdop><geoidheight>0.00</geoidheight><course>346.2</course><type>1</type></trkpt>
      <trkpt lat="40.2479596" lon="-4.8936727"><ele>1233</ele><speed>10.06</speed><time>2017-04-09T12:01:32Z</time><pdop>3.0</pdop><geoidheight>0.00</geoidheight><course>344.4</course><type>1</type></trkpt>
      <trkpt lat="40.24804878" lon="-4.89370901"><ele>1231</ele><speed>10.42</speed><time>2017-04-09T12:01:33Z</time><pdop>3.0</pdop><geoidheight>0.00</geoidheight><course>345.8</course><type>1</type></trkpt>
      <trkpt lat="40.24814361" lon="-4.89373408"><ele>1230</ele><speed>10.43</speed><time>2017-04-09T12:01:34Z</time><pdop>3.0</pdop><geoidheight>0.00</geoidheight><course>345.9</course><type>1</type></trkpt>
      <trkpt lat="40.24823259" lon="-4.89375953"><ele>1229</ele><speed>9.34</speed><time>2017-04-09T12:01:35Z</time><pdop>3.0</pdop><geoidheight>0.00</geoidheight><course>345.7</course><type>1</type></trkpt>
      <trkpt lat="40.24830558" lon="-4.89378805"><ele>1229</ele><speed>8.38</speed><time>2017-04-09T12:01:36Z</time><pdop>3.0</pdop><geoidheight>0.00</geoidheight><course>343.7</course><type>1</type></trkpt>
      <trkpt lat="40.24838124" lon="-4.89381479"><ele>1230</ele><speed>8.08</speed><time>2017-04-09T12:01:37Z</time><pdop>3.0</pdop><geoidheight>0.00</geoidheight><course>345.2</course><type>1</type></trkpt>
      <trkpt lat="40.24845056" lon="-4.89383569"><ele>1229</ele><speed>8.27</speed><time>2017-04-09T12:01:38Z</time><pdop>3.0</pdop><geoidheight>0.00</geoidheight><course>347.7</course><type>1</type></trkpt>
      <trkpt lat="40.24852484" lon="-4.89385632"><ele>1229</ele><speed>8.96</speed><time>2017-04-09T12:01:39Z</time><pdop>3.0</pdop><geoidheight>0.00</geoidheight><course>349.5</course><type>1</type></trkpt>
      <trkpt lat="40.2486026" lon="-4.89387108"><ele>1228</ele><speed>9.20</speed><time>2017-04-09T12:01:40Z</time><pdop>3.0</pdop><geoidheight>0.00</geoidheight><course>349.3</course><type>1</type></trkpt>
      <trkpt lat="40.24867867" lon="-4.89388405"><ele>1228</ele><speed>8.56</speed><time>2017-04-09T12:01:41Z</time><pdop>3.0</pdop><geoidheight>0.00</geoidheight><course>352.2</course><type>1</type></trkpt>
      <trkpt lat="40.24874828" lon="-4.89390384"><ele>1228</ele><speed>7.64</speed><time>2017-04-09T12:01:42Z</time><pdop>3.0</pdop><geoidheight>0.00</geoidheight><course>352.3</course><type>1</type></trkpt>
      <trkpt lat="40.24881376" lon="-4.89390517"><ele>1227</ele><speed>6.54</speed><time>2017-04-09T12:01:43Z</time><pdop>3.0</pdop><geoidheight>0.00</geoidheight><course>357.5</course><type>1</type></trkpt>
      <trkpt lat="40.24887147" lon="-4.89390994"><ele>1227</ele><speed>6.37</speed><time>2017-04-09T12:01:44Z</time><pdop>3.0</pdop><geoidheight>0.00</geoidheight><course>1.0</course><type>1</type></trkpt>
      <trkpt lat="40.24897109" lon="-4.89388191"><ele>1228</ele><speed>5.55</speed><time>2017-04-09T12:01:46Z</time><pdop>3.0</pdop><geoidheight>0.00</geoidheight><course>5.4</course><type>1</type></trkpt>
      <trkpt lat="40.24905153" lon="-4.89380317"><ele>1227</ele><speed>5.66</speed><time>2017-04-09T12:01:48Z</time><pdop>3.0</pdop><geoidheight>0.00</geoidheight><course>39.6</course><type>1</type></trkpt>
      <trkpt lat="40.24909032" lon="-4.89369212"><ele>1227</ele><speed>4.13</speed><time>2017-04-09T12:01:50Z</time><pdop>3.0</pdop><geoidheight>0.00</geoidheight><course>69.8</course><type>1</type></trkpt>
      <trkpt lat="40.24911733" lon="-4.89361495"><ele>1226</ele><speed>3.43</speed><time>2017-04-09T12:01:52Z</time><pdop>3.0</pdop><geoidheight>0.00</geoidheight><course>22.7</course><type>1</type></trkpt>
      <trkpt lat="40.24918291" lon="-4.89353452"><ele>1227</ele><speed>4.86</speed><time>2017-04-09T12:01:54Z</time><pdop>3.0</pdop><geoidheight>0.00</geoidheight><course>32.5</course><type>1</type></trkpt>
      <trkpt lat="40.24925275" lon="-4.8935012"><ele>1230</ele><speed>3.01</speed><time>2017-04-09T12:01:56Z</time><pdop>3.0</pdop><geoidheight>0.00</geoidheight><course>6.3</course><type>1</type></trkpt>
      <trkpt lat="40.24930963" lon="-4.89343151"><ele>1229</ele><speed>2.02</speed><time>2017-04-09T12:02:00Z</time><pdop>4.0</pdop><geoidheight>0.00</geoidheight><course>22.2</course><type>1</type></trkpt>
      <trkpt lat="40.24936542" lon="-4.89332293"><ele>1225</ele><speed>3.73</speed><time>2017-04-09T12:02:04Z</time><pdop>4.0</pdop><geoidheight>0.00</geoidheight><course>29.2</course><type>1</type></trkpt>
      <trkpt lat="40.24939813" lon="-4.89322505"><ele>1221</ele><speed>2.96</speed><time>2017-04-09T12:02:07Z</time><pdop>4.0</pdop><geoidheight>0.00</geoidheight><course>31.1</course><type>1</type></trkpt>
      <trkpt lat="40.24941906" lon="-4.89312258"><ele>1219</ele><speed>4.13</speed><time>2017-04-09T12:02:10Z</time><pdop>5.0</pdop><geoidheight>0.00</geoidheight><course>33.6</course><type>1</type></trkpt>
      <trkpt lat="40.24946828" lon="-4.8929745"><ele>1211</ele><speed>4.76</speed><time>2017-04-09T12:02:13Z</time><pdop>4.0</pdop><geoidheight>0.00</geoidheight><course>55.2</course><type>1</type></trkpt>
      <trkpt lat="40.24942534" lon="-4.89285598"><ele>1210</ele><speed>5.41</speed><time>2017-04-09T12:02:14Z</time><pdop>4.0</pdop><geoidheight>0.00</geoidheight><course>74.9</course><type>1</type></trkpt>
      <trkpt lat="40.24939723" lon="-4.89271101"><ele>1202</ele><speed>6.34</speed><time>2017-04-09T12:02:16Z</time><pdop>4.0</pdop><geoidheight>0.00</geoidheight><course>93.3</course><type>1</type></trkpt>
      <trkpt lat="40.2493655" lon="-4.8925856"><ele>1198</ele><speed>4.73</speed><time>2017-04-09T12:02:18Z</time><pdop>3.0</pdop><geoidheight>0.00</geoidheight><course>109.0</course><type>1</type></trkpt>
      <trkpt lat="40.24935016" lon="-4.89249162"><ele>1197</ele><speed>4.69</speed><time>2017-04-09T12:02:20Z</time><pdop>3.0</pdop><geoidheight>0.00</geoidheight><course>97.0</course><type>1</type></trkpt>
      <trkpt lat="40.24935318" lon="-4.89240762"><ele>1194</ele><speed>6.98</speed><time>2017-04-09T12:02:21Z</time><pdop>3.0</pdop><geoidheight>0.00</geoidheight><course>86.7</course><type>1</type></trkpt>
      <trkpt lat="40.24937758" lon="-4.8923213"><ele>1195</ele><speed>8.21</speed><time>2017-04-09T12:02:22Z</time><pdop>4.0</pdop><geoidheight>0.00</geoidheight><course>72.5</course><type>1</type></trkpt>
      <trkpt lat="40.24944316" lon="-4.89219376"><ele>1199</ele><speed>5.41</speed><time>2017-04-09T12:02:24Z</time><pdop>4.0</pdop><geoidheight>0.00</geoidheight><course>46.7</course><type>1</type></trkpt>
      <trkpt lat="40.24949901" lon="-4.89210921"><ele>1201</ele><speed>4.43</speed><time>2017-04-09T12:02:26Z</time><pdop>4.0</pdop><geoidheight>0.00</geoidheight><course>58.0</course><type>1</type></trkpt>
      <trkpt lat="40.24956371" lon="-4.89198192"><ele>1200</ele><speed>7.38</speed><time>2017-04-09T12:02:28Z</time><pdop>4.0</pdop><geoidheight>0.00</geoidheight><course>56.3</course><type>1</type></trkpt>
      <trkpt lat="40.2496426" lon="-4.89184645"><ele>1203</ele><speed>6.89</speed><time>2017-04-09T12:02:30Z</time><pdop>4.0</pdop><geoidheight>0.00</geoidheight><course>48.6</course><type>1</type></trkpt>
      <trkpt lat="40.24971466" lon="-4.89171807"><ele>1204</ele><speed>5.94</speed><time>2017-04-09T12:02:32Z</time><pdop>4.0</pdop><geoidheight>0.00</geoidheight><course>54.0</course><type>1</type></trkpt>
      <trkpt lat="40.24978617" lon="-4.89160679"><ele>1207</ele><speed>5.94</speed><time>2017-04-09T12:02:34Z</time><pdop>3.0</pdop><geoidheight>0.00</geoidheight><course>45.1</course><type>1</type></trkpt>
      <trkpt lat="40.24986234" lon="-4.89151741"><ele>1210</ele><speed>5.78</speed><time>2017-04-09T12:02:36Z</time><pdop>4.0</pdop><geoidheight>0.00</geoidheight><course>44.9</course><type>1</type></trkpt>
      <trkpt lat="40.249919" lon="-4.89143754"><ele>1217</ele><speed>4.09</speed><time>2017-04-09T12:02:38Z</time><pdop>3.0</pdop><geoidheight>0.00</geoidheight><course>49.6</course><type>1</type></trkpt>
      <trkpt lat="40.24990828" lon="-4.89136652"><ele>1229</ele><speed>1.59</speed><time>2017-04-09T12:02:41Z</time><pdop>3.0</pdop><geoidheight>0.00</geoidheight><course>133.2</course><type>1</type></trkpt>
      <trkpt lat="40.24988894" lon="-4.89126815"><ele>1236</ele><speed>4.59</speed><time>2017-04-09T12:02:45Z</time><pdop>3.0</pdop><geoidheight>0.00</geoidheight><course>153.9</course><type>1</type></trkpt>
      <trkpt lat="40.24983741" lon="-4.89120384"><ele>1239</ele><speed>3.41</speed><time>2017-04-09T12:02:47Z</time><pdop>3.0</pdop><geoidheight>0.00</geoidheight><course>122.9</course><type>1</type></trkpt>
      <trkpt lat="40.2498289" lon="-4.89111898"><ele>1240</ele><speed>1.73</speed><time>2017-04-09T12:02:51Z</time><pdop>3.0</pdop><geoidheight>0.00</geoidheight><course>80.1</course><type>1</type></trkpt>
      <trkpt lat="40.24984106" lon="-4.89102863"><ele>1241</ele><speed>3.37</speed><time>2017-04-09T12:02:54Z</time><pdop>3.0</pdop><geoidheight>0.00</geoidheight><course>29.0</course><type>1</type></trkpt>
      <trkpt lat="40.24993629" lon="-4.89102808"><ele>1241</ele><speed>6.56</speed><time>2017-04-09T12:02:56Z</time><pdop>3.0</pdop><geoidheight>0.00</geoidheight><course>350.9</course><type>1</type></trkpt>
      <trkpt lat="40.24999485" lon="-4.8910488"><ele>1242</ele><speed>7.36</speed><time>2017-04-09T12:02:57Z</time><pdop>3.0</pdop><geoidheight>0.00</geoidheight><course>343.2</course><type>1</type></trkpt>
      <trkpt lat="40.25005842" lon="-4.89109123"><ele>1242</ele><speed>8.31</speed><time>2017-04-09T12:02:58Z</time><pdop>3.0</pdop><geoidheight>0.00</geoidheight><course>335.5</course><type>1</type></trkpt>
      <trkpt lat="40.25012389" lon="-4.8911474"><ele>1243</ele><speed>8.96</speed><time>2017-04-09T12:02:59Z</time><pdop>3.0</pdop><geoidheight>0.00</geoidheight><course>326.7</course><type>1</type></trkpt>
      <trkpt lat="40.25019266" lon="-4.89121393"><ele>1243</ele><speed>9.46</speed><time>2017-04-09T12:03:00Z</time><pdop>3.0</pdop><geoidheight>0.00</geoidheight><course>313.1</course><type>1</type></trkpt>
      <trkpt lat="40.25026075" lon="-4.89129834"><ele>1242</ele><speed>10.35</speed><time>2017-04-09T12:03:01Z</time><pdop>3.0</pdop><geoidheight>0.00</geoidheight><course>314.6</course><type>1</type></trkpt>
      <trkpt lat="40.25032886" lon="-4.8913895"><ele>1242</ele><speed>10.65</speed><time>2017-04-09T12:03:02Z</time><pdop>3.0</pdop><geoidheight>0.00</geoidheight><course>311.3</course><type>1</type></trkpt>
      <trkpt lat="40.25039381" lon="-4.89148182"><ele>1242</ele><speed>10.49</speed><time>2017-04-09T12:03:03Z</time><pdop>3.0</pdop><geoidheight>0.00</geoidheight><course>305.1</course><type>1</type></trkpt>
      <trkpt lat="40.25044842" lon="-4.89160223"><ele>1241</ele><speed>11.80</speed><time>2017-04-09T12:03:04Z</time><pdop>3.0</pdop><geoidheight>0.00</geoidheight><course>294.0</course><type>1</type></trkpt>
      <trkpt lat="40.25049943" lon="-4.8917717"><ele>1241</ele><speed>14.99</speed><time>2017-04-09T12:03:05Z</time><pdop>3.0</pdop><geoidheight>0.00</geoidheight><course>285.7</course><type>1</type></trkpt>
      <trkpt lat="40.25054293" lon="-4.8919715"><ele>1239</ele><speed>16.58</speed><time>2017-04-09T12:03:06Z</time><pdop>3.0</pdop><geoidheight>0.00</geoidheight><course>280.2</course><type>1</type></trkpt>
      <trkpt lat="40.25056402" lon="-4.8921758"><ele>1239</ele><speed>17.54</speed><time>2017-04-09T12:03:07Z</time><pdop>3.0</pdop><geoidheight>0.00</geoidheight><course>274.4</course><type>1</type></trkpt>
      <trkpt lat="40.25054346" lon="-4.89237473"><ele>1241</ele><speed>17.10</speed><time>2017-04-09T12:03:08Z</time><pdop>3.0</pdop><geoidheight>0.00</geoidheight><course>260.1</course><type>1</type></trkpt>
      <trkpt lat="40.25049275" lon="-4.89253967"><ele>1242</ele><speed>16.06</speed><time>2017-04-09T12:03:09Z</time><pdop>3.0</pdop><geoidheight>0.00</geoidheight><course>245.4</course><type>1</type></trkpt>
      <trkpt lat="40.25042993" lon="-4.89269504"><ele>1243</ele><speed>15.26</speed><time>2017-04-09T12:03:10Z</time><pdop>3.0</pdop><geoidheight>0.00</geoidheight><course>232.1</course><type>1</type></trkpt>
      <trkpt lat="40.25034334" lon="-4.89281974"><ele>1243</ele><speed>14.53</speed><time>2017-04-09T12:03:11Z</time><pdop>3.0</pdop><geoidheight>0.00</geoidheight><course>223.6</course><type>1</type></trkpt>
      <trkpt lat="40.25024439" lon="-4.89292421"><ele>1242</ele><speed>13.84</speed><time>2017-04-09T12:03:12Z</time><pdop>3.0</pdop><geoidheight>0.00</geoidheight><course>219.2</course><type>1</type></trkpt>
      <trkpt lat="40.2501425" lon="-4.89301526"><ele>1242</ele><speed>13.04</speed><time>2017-04-09T12:03:13Z</time><pdop>3.0</pdop><geoidheight>0.00</geoidheight><course>215.9</course><type>1</type></trkpt>
      <trkpt lat="40.25003918" lon="-4.89310089"><ele>1242</ele><speed>13.14</speed><time>2017-04-09T12:03:14Z</time><pdop>3.0</pdop><geoidheight>0.00</geoidheight><course>211.6</course><type>1</type></trkpt>
      <trkpt lat="40.24993847" lon="-4.89319446"><ele>1244</ele><speed>12.97</speed><time>2017-04-09T12:03:15Z</time><pdop>3.0</pdop><geoidheight>0.00</geoidheight><course>210.8</course><type>1</type></trkpt>
      <trkpt lat="40.24986571" lon="-4.89328427"><ele>1248</ele><speed>11.34</speed><time>2017-04-09T12:03:16Z</time><pdop>4.0</pdop><geoidheight>0.00</geoidheight><course>216.7</course><type>1</type></trkpt>
      <trkpt lat="40.24979262" lon="-4.89335834"><ele>1252</ele><speed>9.48</speed><time>2017-04-09T12:03:17Z</time><pdop>4.0</pdop><geoidheight>0.00</geoidheight><course>217.6</course><type>1</type></trkpt>
      <trkpt lat="40.24972549" lon="-4.89341695"><ele>1255</ele><speed>8.40</speed><time>2017-04-09T12:03:18Z</time><pdop>4.0</pdop><geoidheight>0.00</geoidheight><course>211.5</course><type>1</type></trkpt>
      <trkpt lat="40.24965745" lon="-4.89347051"><ele>1256</ele><speed>8.60</speed><time>2017-04-09T12:03:19Z</time><pdop>4.0</pdop><geoidheight>0.00</geoidheight><course>207.4</course><type>1</type></trkpt>
      <trkpt lat="40.24958122" lon="-4.89352605"><ele>1258</ele><speed>10.33</speed><time>2017-04-09T12:03:20Z</time><pdop>4.0</pdop><geoidheight>0.00</geoidheight><course>208.9</course><type>1</type></trkpt>
      <trkpt lat="40.24950032" lon="-4.89359224"><ele>1260</ele><speed>10.82</speed><time>2017-04-09T12:03:21Z</time><pdop>4.0</pdop><geoidheight>0.00</geoidheight><course>213.6</course><type>1</type></trkpt>
      <trkpt lat="40.24941966" lon="-4.89365813"><ele>1261</ele><speed>10.34</speed><time>2017-04-09T12:03:22Z</time><pdop>4.0</pdop><geoidheight>0.00</geoidheight><course>213.3</course><type>1</type></trkpt>
      <trkpt lat="40.24933855" lon="-4.89370451"><ele>1262</ele><speed>9.57</speed><time>2017-04-09T12:03:23Z</time><pdop>4.0</pdop><geoidheight>0.00</geoidheight><course>198.6</course><type>1</type></trkpt>
      <trkpt lat="40.24925106" lon="-4.89373043"><ele>1264</ele><speed>9.84</speed><time>2017-04-09T12:03:24Z</time><pdop>4.0</pdop><geoidheight>0.00</geoidheight><course>189.5</course><type>1</type></trkpt>
      <trkpt lat="40.24915702" lon="-4.89373248"><ele>1266</ele><speed>9.23</speed><time>2017-04-09T12:03:25Z</time><pdop>3.0</pdop><geoidheight>0.00</geoidheight><course>177.3</course><type>1</type></trkpt>
      <trkpt lat="40.24908455" lon="-4.89373586"><ele>1271</ele><speed>8.25</speed><time>2017-04-09T12:03:26Z</time><pdop>3.0</pdop><geoidheight>0.00</geoidheight><course>182.3</course><type>1</type></trkpt>
      <trkpt lat="40.24901958" lon="-4.8937499"><ele>1274</ele><speed>7.38</speed><time>2017-04-09T12:03:27Z</time><pdop>3.0</pdop><geoidheight>0.00</geoidheight><course>192.6</course><type>1</type></trkpt>
      <trkpt lat="40.24895466" lon="-4.89377658"><ele>1275</ele><speed>7.51</speed><time>2017-04-09T12:03:28Z</time><pdop>3.0</pdop><geoidheight>0.00</geoidheight><course>201.7</course><type>1</type></trkpt>
      <trkpt lat="40.24889004" lon="-4.89380736"><ele>1275</ele><speed>7.83</speed><time>2017-04-09T12:03:29Z</time><pdop>3.0</pdop><geoidheight>0.00</geoidheight><course>198.2</course><type>1</type></trkpt>
      <trkpt lat="40.24882517" lon="-4.89382032"><ele>1273</ele><speed>7.95</speed><time>2017-04-09T12:03:30Z</time><pdop>3.0</pdop><geoidheight>0.00</geoidheight><course>183.9</course><type>1</type></trkpt>
      <trkpt lat="40.24874849" lon="-4.89382281"><ele>1273</ele><speed>7.69</speed><time>2017-04-09T12:03:31Z</time><pdop>3.0</pdop><geoidheight>0.00</geoidheight><course>172.8</course><type>1</type></trkpt>
      <trkpt lat="40.24867451" lon="-4.89380063"><ele>1273</ele><speed>7.06</speed><time>2017-04-09T12:03:32Z</time><pdop>3.0</pdop><geoidheight>0.00</geoidheight><course>164.7</course><type>1</type></trkpt>
      <trkpt lat="40.24861749" lon="-4.8937885"><ele>1273</ele><speed>6.36</speed><time>2017-04-09T12:03:33Z</time><pdop>3.0</pdop><geoidheight>0.00</geoidheight><course>157.4</course><type>1</type></trkpt>
      <trkpt lat="40.24855539" lon="-4.89376276"><ele>1274</ele><speed>5.72</speed><time>2017-04-09T12:03:34Z</time><pdop>3.0</pdop><geoidheight>0.00</geoidheight><course>157.9</course><type>1</type></trkpt>
      <trkpt lat="40.24846218" lon="-4.89371935"><ele>1275</ele><speed>5.42</speed><time>2017-04-09T12:03:36Z</time><pdop>3.0</pdop><geoidheight>0.00</geoidheight><course>164.0</course><type>1</type></trkpt>
      <trkpt lat="40.24837263" lon="-4.89368546"><ele>1277</ele><speed>4.64</speed><time>2017-04-09T12:03:38Z</time><pdop>3.0</pdop><geoidheight>0.00</geoidheight><course>157.6</course><type>1</type></trkpt>
      <trkpt lat="40.24829978" lon="-4.89363464"><ele>1277</ele><speed>4.83</speed><time>2017-04-09T12:03:40Z</time><pdop>3.0</pdop><geoidheight>0.00</geoidheight><course>159.4</course><type>1</type></trkpt>
      <trkpt lat="40.24822283" lon="-4.89359339"><ele>1277</ele><speed>4.56</speed><time>2017-04-09T12:03:42Z</time><pdop>3.0</pdop><geoidheight>0.00</geoidheight><course>156.7</course><type>1</type></trkpt>
      <trkpt lat="40.24814257" lon="-4.89350545"><ele>1277</ele><speed>5.37</speed><time>2017-04-09T12:03:44Z</time><pdop>3.0</pdop><geoidheight>0.00</geoidheight><course>139.0</course><type>1</type></trkpt>
      <trkpt lat="40.24809285" lon="-4.8934205"><ele>1283</ele><speed>3.59</speed><time>2017-04-09T12:03:46Z</time><pdop>3.0</pdop><geoidheight>0.00</geoidheight><course>131.8</course><type>1</type></trkpt>
      <trkpt lat="40.2480418" lon="-4.89336728"><ele>1287</ele><speed>2.87</speed><time>2017-04-09T12:03:48Z</time><pdop>3.0</pdop><geoidheight>0.00</geoidheight><course>145.4</course><type>1</type></trkpt>
      <trkpt lat="40.24798652" lon="-4.89333506"><ele>1284</ele><speed>2.68</speed><time>2017-04-09T12:03:50Z</time><pdop>3.0</pdop><geoidheight>0.00</geoidheight><course>134.6</course><type>1</type></trkpt>
      <trkpt lat="40.24802285" lon="-4.89325701"><ele>1278</ele><speed>4.50</speed><time>2017-04-09T12:03:53Z</time><pdop>3.0</pdop><geoidheight>0.00</geoidheight><course>42.1</course><type>1</type></trkpt>
      <trkpt lat="40.24806168" lon="-4.89316962"><ele>1275</ele><speed>3.63</speed><time>2017-04-09T12:03:55Z</time><pdop>3.0</pdop><geoidheight>0.00</geoidheight><course>103.0</course><type>1</type></trkpt>
      <trkpt lat="40.24806181" lon="-4.89306504"><ele>1267</ele><speed>3.70</speed><time>2017-04-09T12:03:58Z</time><pdop>3.0</pdop><geoidheight>0.00</geoidheight><course>111.6</course><type>1</type></trkpt>
      <trkpt lat="40.24816375" lon="-4.89297913"><ele>1263</ele><speed>5.63</speed><time>2017-04-09T12:04:00Z</time><pdop>4.0</pdop><geoidheight>0.00</geoidheight><course>47.3</course><type>1</type></trkpt>
      <trkpt lat="40.24827639" lon="-4.89292825"><ele>1260</ele><speed>7.59</speed><time>2017-04-09T12:04:02Z</time><pdop>3.0</pdop><geoidheight>0.00</geoidheight><course>4.4</course><type>1</type></trkpt>
      <trkpt lat="40.24843109" lon="-4.8929595"><ele>1257</ele><speed>8.81</speed><time>2017-04-09T12:04:04Z</time><pdop>3.0</pdop><geoidheight>0.00</geoidheight><course>348.9</course><type>1</type></trkpt>
      <trkpt lat="40.24850444" lon="-4.8929893"><ele>1257</ele><speed>8.32</speed><time>2017-04-09T12:04:05Z</time><pdop>3.0</pdop><geoidheight>0.00</geoidheight><course>345.0</course><type>1</type></trkpt>
      <trkpt lat="40.24857654" lon="-4.8930365"><ele>1256</ele><speed>8.54</speed><time>2017-04-09T12:04:06Z</time><pdop>3.0</pdop><geoidheight>0.00</geoidheight><course>333.7</course><type>1</type></trkpt>
      <trkpt lat="40.24864363" lon="-4.89311658"><ele>1254</ele><speed>10.49</speed><time>2017-04-09T12:04:07Z</time><pdop>3.0</pdop><geoidheight>0.00</geoidheight><course>319.8</course><type>1</type></trkpt>
      <trkpt lat="40.24872682" lon="-4.89322154"><ele>1254</ele><speed>12.90</speed><time>2017-04-09T12:04:08Z</time><pdop>3.0</pdop><geoidheight>0.00</geoidheight><course>306.8</course><type>1</type></trkpt>
      <trkpt lat="40.24878771" lon="-4.89337862"><ele>1251</ele><speed>15.40</speed><time>2017-04-09T12:04:09Z</time><pdop>3.0</pdop><geoidheight>0.00</geoidheight><course>291.9</course><type>1</type></trkpt>
      <trkpt lat="40.24881834" lon="-4.89355825"><ele>1249</ele><speed>16.63</speed><time>2017-04-09T12:04:10Z</time><pdop>3.0</pdop><geoidheight>0.00</geoidheight><course>279.0</course><type>1</type></trkpt>
      <trkpt lat="40.24883624" lon="-4.89374913"><ele>1248</ele><speed>16.07</speed><time>2017-04-09T12:04:11Z</time><pdop>3.0</pdop><geoidheight>0.00</geoidheight><course>274.3</course><type>1</type></trkpt>
      <trkpt lat="40.24881138" lon="-4.89391531"><ele>1247</ele><speed>14.87</speed><time>2017-04-09T12:04:12Z</time><pdop>4.0</pdop><geoidheight>0.00</geoidheight><course>257.1</course><type>1</type></trkpt>
      <trkpt lat="40.24875926" lon="-4.8941014"><ele>1247</ele><speed>15.49</speed><time>2017-04-09T12:04:13Z</time><pdop>4.0</pdop><geoidheight>0.00</geoidheight><course>250.1</course><type>1</type></trkpt>
      <trkpt lat="40.24871396" lon="-4.8942751"><ele>1246</ele><speed>15.31</speed><time>2017-04-09T12:04:14Z</time><pdop>3.0</pdop><geoidheight>0.00</geoidheight><course>247.1</course><type>1</type></trkpt>
      <trkpt lat="40.24866491" lon="-4.89444287"><ele>1245</ele><speed>14.86</speed><time>2017-04-09T12:04:15Z</time><pdop>3.0</pdop><geoidheight>0.00</geoidheight><course>246.7</course><type>1</type></trkpt>
      <trkpt lat="40.24860668" lon="-4.89461966"><ele>1243</ele><speed>14.60</speed><time>2017-04-09T12:04:16Z</time><pdop>3.0</pdop><geoidheight>0.00</geoidheight><course>246.8</course><type>1</type></trkpt>
      <trkpt lat="40.24854926" lon="-4.89477197"><ele>1242</ele><speed>14.90</speed><time>2017-04-09T12:04:17Z</time><pdop>3.0</pdop><geoidheight>0.00</geoidheight><course>242.0</course><type>1</type></trkpt>
      <trkpt lat="40.24848519" lon="-4.89493092"><ele>1240</ele><speed>15.34</speed><time>2017-04-09T12:04:18Z</time><pdop>3.0</pdop><geoidheight>0.00</geoidheight><course>239.0</course><type>1</type></trkpt>
      <trkpt lat="40.24840497" lon="-4.89507287"><ele>1238</ele><speed>15.63</speed><time>2017-04-09T12:04:19Z</time><pdop>3.0</pdop><geoidheight>0.00</geoidheight><course>229.0</course><type>1</type></trkpt>
      <trkpt lat="40.24830789" lon="-4.89518959"><ele>1236</ele><speed>14.40</speed><time>2017-04-09T12:04:20Z</time><pdop>3.0</pdop><geoidheight>0.00</geoidheight><course>219.6</course><type>1</type></trkpt>
      <trkpt lat="40.2482057" lon="-4.89527056"><ele>1236</ele><speed>12.37</speed><time>2017-04-09T12:04:21Z</time><pdop>3.0</pdop><geoidheight>0.00</geoidheight><course>207.0</course><type>1</type></trkpt>
      <trkpt lat="40.24811879" lon="-4.89532015"><ele>1236</ele><speed>10.39</speed><time>2017-04-09T12:04:22Z</time><pdop>3.0</pdop><geoidheight>0.00</geoidheight><course>196.5</course><type>1</type></trkpt>
      <trkpt lat="40.24804233" lon="-4.89534789"><ele>1235</ele><speed>8.97</speed><time>2017-04-09T12:04:23Z</time><pdop>3.0</pdop><geoidheight>0.00</geoidheight><course>189.5</course><type>1</type></trkpt>
      <trkpt lat="40.24796558" lon="-4.89536618"><ele>1236</ele><speed>7.44</speed><time>2017-04-09T12:04:24Z</time><pdop>3.0</pdop><geoidheight>0.00</geoidheight><course>184.9</course><type>1</type></trkpt>
      <trkpt lat="40.24790031" lon="-4.89536622"><ele>1235</ele><speed>6.57</speed><time>2017-04-09T12:04:25Z</time><pdop>3.0</pdop><geoidheight>0.00</geoidheight><course>178.6</course><type>1</type></trkpt>
      <trkpt lat="40.24783663" lon="-4.89535022"><ele>1234</ele><speed>6.19</speed><time>2017-04-09T12:04:26Z</time><pdop>3.0</pdop><geoidheight>0.00</geoidheight><course>168.9</course><type>1</type></trkpt>
      <trkpt lat="40.24777738" lon="-4.89534536"><ele>1233</ele><speed>5.87</speed><time>2017-04-09T12:04:27Z</time><pdop>3.0</pdop><geoidheight>0.00</geoidheight><course>169.7</course><type>1</type></trkpt>
      <trkpt lat="40.24772906" lon="-4.89531405"><ele>1230</ele><speed>5.72</speed><time>2017-04-09T12:04:28Z</time><pdop>3.0</pdop><geoidheight>0.00</geoidheight><course>148.2</course><type>1</type></trkpt>
      <trkpt lat="40.24764891" lon="-4.89524865"><ele>1224</ele><speed>5.99</speed><time>2017-04-09T12:04:30Z</time><pdop>3.0</pdop><geoidheight>0.00</geoidheight><course>141.8</course><type>1</type></trkpt>
      <trkpt lat="40.24758451" lon="-4.89517241"><ele>1221</ele><speed>4.39</speed><time>2017-04-09T12:04:32Z</time><pdop>3.0</pdop><geoidheight>0.00</geoidheight><course>137.0</course><type>1</type></trkpt>
      <trkpt lat="40.24755254" lon="-4.89511546"><ele>1218</ele><speed>4.56</speed><time>2017-04-09T12:04:33Z</time><pdop>3.0</pdop><geoidheight>0.00</geoidheight><course>128.5</course><type>1</type></trkpt>
      <trkpt lat="40.24750031" lon="-4.89503986"><ele>1215</ele><speed>5.27</speed><time>2017-04-09T12:04:35Z</time><pdop>3.0</pdop><geoidheight>0.00</geoidheight><course>128.5</course><type>1</type></trkpt>
      <trkpt lat="40.24744557" lon="-4.89494312"><ele>1209</ele><speed>5.07</speed><time>2017-04-09T12:04:37Z</time><pdop>4.0</pdop><geoidheight>0.00</geoidheight><course>121.6</course><type>1</type></trkpt>
      <trkpt lat="40.24740349" lon="-4.89483131"><ele>1207</ele><speed>4.96</speed><time>2017-04-09T12:04:39Z</time><pdop>3.0</pdop><geoidheight>0.00</geoidheight><course>117.4</course><type>1</type></trkpt>
      <trkpt lat="40.24735192" lon="-4.89473134"><ele>1204</ele><speed>5.16</speed><time>2017-04-09T12:04:41Z</time><pdop>3.0</pdop><geoidheight>0.00</geoidheight><course>131.3</course><type>1</type></trkpt>
      <trkpt lat="40.24729571" lon="-4.89463411"><ele>1202</ele><speed>5.13</speed><time>2017-04-09T12:04:43Z</time><pdop>3.0</pdop><geoidheight>0.00</geoidheight><course>125.4</course><type>1</type></trkpt>
      <trkpt lat="40.24726408" lon="-4.89455026"><ele>1202</ele><speed>4.14</speed><time>2017-04-09T12:04:45Z</time><pdop>3.0</pdop><geoidheight>0.00</geoidheight><course>111.8</course><type>1</type></trkpt>
      <trkpt lat="40.24725312" lon="-4.89445305"><ele>1201</ele><speed>3.87</speed><time>2017-04-09T12:04:47Z</time><pdop>3.0</pdop><geoidheight>0.00</geoidheight><course>117.3</course><type>1</type></trkpt>
      <trkpt lat="40.24724868" lon="-4.89435657"><ele>1195</ele><speed>3.93</speed><time>2017-04-09T12:04:49Z</time><pdop>3.0</pdop><geoidheight>0.00</geoidheight><course>82.6</course><type>1</type></trkpt>
      <trkpt lat="40.24727071" lon="-4.89420444"><ele>1193</ele><speed>4.05</speed><time>2017-04-09T12:04:52Z</time><pdop>4.0</pdop><geoidheight>0.00</geoidheight><course>72.9</course><type>1</type></trkpt>
      <trkpt lat="40.24728527" lon="-4.89408814"><ele>1193</ele><speed>3.73</speed><time>2017-04-09T12:04:55Z</time><pdop>4.0</pdop><geoidheight>0.00</geoidheight><course>81.3</course><type>1</type></trkpt>
      <trkpt lat="40.24731832" lon="-4.89400393"><ele>1191</ele><speed>4.73</speed><time>2017-04-09T12:04:57Z</time><pdop>4.0</pdop><geoidheight>0.00</geoidheight><course>56.8</course><type>1</type></trkpt>
      <trkpt lat="40.24740239" lon="-4.89393354"><ele>1188</ele><speed>4.96</speed><time>2017-04-09T12:04:59Z</time><pdop>4.0</pdop><geoidheight>0.00</geoidheight><course>41.9</course><type>1</type></trkpt>
      <trkpt lat="40.24750131" lon="-4.89386253"><ele>1187</ele><speed>6.28</speed><time>2017-04-09T12:05:01Z</time><pdop>4.0</pdop><geoidheight>0.00</geoidheight><course>18.3</course><type>1</type></trkpt>
      <trkpt lat="40.24760874" lon="-4.8938411"><ele>1190</ele><speed>5.11</speed><time>2017-04-09T12:05:03Z</time><pdop>4.0</pdop><geoidheight>0.00</geoidheight><course>15.4</course><type>1</type></trkpt>
      <trkpt lat="40.2476977" lon="-4.89380909"><ele>1195</ele><speed>2.46</speed><time>2017-04-09T12:05:06Z</time><pdop>4.0</pdop><geoidheight>0.00</geoidheight><course>44.7</course><type>1</type></trkpt>
      <trkpt lat="40.24776611" lon="-4.89377564"><ele>1195</ele><speed>3.45</speed><time>2017-04-09T12:05:09Z</time><pdop>4.0</pdop><geoidheight>0.00</geoidheight><course>42.9</course><type>1</type></trkpt>
      <trkpt lat="40.24779577" lon="-4.89365726"><ele>1197</ele><speed>2.81</speed><time>2017-04-09T12:05:12Z</time><pdop>4.0</pdop><geoidheight>0.00</geoidheight><course>49.7</course><type>1</type></trkpt>
      <trkpt lat="40.24777713" lon="-4.89356304"><ele>1194</ele><speed>3.71</speed><time>2017-04-09T12:05:19Z</time><pdop>4.0</pdop><geoidheight>0.00</geoidheight><course>135.9</course><type>1</type></trkpt>
      <trkpt lat="40.24771405" lon="-4.89349797"><ele>1192</ele><speed>1.51</speed><time>2017-04-09T12:05:22Z</time><pdop>4.0</pdop><geoidheight>0.00</geoidheight><course>135.9</course><type>1</type></trkpt>
      <trkpt lat="40.2476486" lon="-4.89342411"><ele>1187</ele><speed>4.71</speed><time>2017-04-09T12:05:25Z</time><pdop>4.0</pdop><geoidheight>0.00</geoidheight><course>133.7</course><type>1</type></trkpt>
      <trkpt lat="40.24758277" lon="-4.8933348"><ele>1185</ele><speed>5.52</speed><time>2017-04-09T12:05:27Z</time><pdop>4.0</pdop><geoidheight>0.00</geoidheight><course>134.3</course><type>1</type></trkpt>
      <trkpt lat="40.24751727" lon="-4.89325964"><ele>1184</ele><speed>3.70</speed><time>2017-04-09T12:05:29Z</time><pdop>4.0</pdop><geoidheight>0.00</geoidheight><course>129.6</course><type>1</type></trkpt>
      <trkpt lat="40.24747543" lon="-4.89317895"><ele>1180</ele><speed>2.24</speed><time>2017-04-09T12:05:32Z</time><pdop>4.0</pdop><geoidheight>0.00</geoidheight><course>108.6</course><type>1</type></trkpt>
      <trkpt lat="40.24747975" lon="-4.89304355"><ele>1174</ele><speed>4.89</speed><time>2017-04-09T12:05:35Z</time><pdop>4.0</pdop><geoidheight>0.00</geoidheight><course>89.4</course><type>1</type></trkpt>
      <trkpt lat="40.24745891" lon="-4.89292106"><ele>1173</ele><speed>3.22</speed><time>2017-04-09T12:05:38Z</time><pdop>4.0</pdop><geoidheight>0.00</geoidheight><course>97.5</course><type>1</type></trkpt>
      <trkpt lat="40.24745577" lon="-4.89283588"><ele>1167</ele><speed>4.35</speed><time>2017-04-09T12:05:40Z</time><pdop>3.0</pdop><geoidheight>0.00</geoidheight><course>80.9</course><type>1</type></trkpt>
      <trkpt lat="40.24748621" lon="-4.89271103"><ele>1162</ele><speed>5.18</speed><time>2017-04-09T12:05:42Z</time><pdop>4.0</pdop><geoidheight>0.00</geoidheight><course>77.8</course><type>1</type></trkpt>
      <trkpt lat="40.24749818" lon="-4.8925936"><ele>1159</ele><speed>4.33</speed><time>2017-04-09T12:05:44Z</time><pdop>4.0</pdop><geoidheight>0.00</geoidheight><course>77.3</course><type>1</type></trkpt>
      <trkpt lat="40.24754648" lon="-4.89246029"><ele>1157</ele><speed>4.43</speed><time>2017-04-09T12:05:47Z</time><pdop>4.0</pdop><geoidheight>0.00</geoidheight><course>58.0</course><type>1</type></trkpt>
      <trkpt lat="40.24760463" lon="-4.89236545"><ele>1154</ele><speed>5.57</speed><time>2017-04-09T12:05:49Z</time><pdop>4.0</pdop><geoidheight>0.00</geoidheight><course>55.7</course><type>1</type></trkpt>
      <trkpt lat="40.24764074" lon="-4.89226789"><ele>1154</ele><speed>4.45</speed><time>2017-04-09T12:05:51Z</time><pdop>4.0</pdop><geoidheight>0.00</geoidheight><course>59.8</course><type>1</type></trkpt>
      <trkpt lat="40.24766899" lon="-4.89216419"><ele>1151</ele><speed>4.51</speed><time>2017-04-09T12:05:53Z</time><pdop>4.0</pdop><geoidheight>0.00</geoidheight><course>57.8</course><type>1</type></trkpt>
      <trkpt lat="40.24773715" lon="-4.89200147"><ele>1148</ele><speed>5.56</speed><time>2017-04-09T12:05:56Z</time><pdop>5.0</pdop><geoidheight>0.00</geoidheight><course>64.3</course><type>1</type></trkpt>
      <trkpt lat="40.24775566" lon="-4.89188345"><ele>1147</ele><speed>4.87</speed><time>2017-04-09T12:05:58Z</time><pdop>5.0</pdop><geoidheight>0.00</geoidheight><course>80.7</course><type>1</type></trkpt>
      <trkpt lat="40.24777644" lon="-4.89172876"><ele>1149</ele><speed>4.88</speed><time>2017-04-09T12:06:01Z</time><pdop>5.0</pdop><geoidheight>0.00</geoidheight><course>74.3</course><type>1</type></trkpt>
      <trkpt lat="40.24777735" lon="-4.89159258"><ele>1147</ele><speed>6.31</speed><time>2017-04-09T12:06:03Z</time><pdop>5.0</pdop><geoidheight>0.00</geoidheight><course>95.0</course><type>1</type></trkpt>
      <trkpt lat="40.2477661" lon="-4.891461"><ele>1146</ele><speed>5.69</speed><time>2017-04-09T12:06:05Z</time><pdop>4.0</pdop><geoidheight>0.00</geoidheight><course>87.8</course><type>1</type></trkpt>
      <trkpt lat="40.24778516" lon="-4.89135101"><ele>1149</ele><speed>3.87</speed><time>2017-04-09T12:06:07Z</time><pdop>4.0</pdop><geoidheight>0.00</geoidheight><course>67.5</course><type>1</type></trkpt>
      <trkpt lat="40.24782671" lon="-4.8912511"><ele>1148</ele><speed>3.75</speed><time>2017-04-09T12:06:10Z</time><pdop>3.0</pdop><geoidheight>0.00</geoidheight><course>63.6</course><type>1</type></trkpt>
      <trkpt lat="40.2478733" lon="-4.89115426"><ele>1148</ele><speed>5.86</speed><time>2017-04-09T12:06:12Z</time><pdop>4.0</pdop><geoidheight>0.00</geoidheight><course>52.4</course><type>1</type></trkpt>
      <trkpt lat="40.2479328" lon="-4.89106505"><ele>1148</ele><speed>4.54</speed><time>2017-04-09T12:06:14Z</time><pdop>4.0</pdop><geoidheight>0.00</geoidheight><course>51.6</course><type>1</type></trkpt>
      <trkpt lat="40.24797365" lon="-4.89097444"><ele>1148</ele><speed>4.69</speed><time>2017-04-09T12:06:16Z</time><pdop>4.0</pdop><geoidheight>0.00</geoidheight><course>56.5</course><type>1</type></trkpt>
      <trkpt lat="40.24801856" lon="-4.89087878"><ele>1147</ele><speed>5.87</speed><time>2017-04-09T12:06:18Z</time><pdop>5.0</pdop><geoidheight>0.00</geoidheight><course>58.1</course><type>1</type></trkpt>
      <trkpt lat="40.24808532" lon="-4.89076498"><ele>1146</ele><speed>6.21</speed><time>2017-04-09T12:06:20Z</time><pdop>5.0</pdop><geoidheight>0.00</geoidheight><course>48.2</course><type>1</type></trkpt>
      <trkpt lat="40.24815503" lon="-4.89065925"><ele>1145</ele><speed>5.87</speed><time>2017-04-09T12:06:22Z</time><pdop>5.0</pdop><geoidheight>0.00</geoidheight><course>44.8</course><type>1</type></trkpt>
      <trkpt lat="40.24822592" lon="-4.89055297"><ele>1145</ele><speed>6.42</speed><time>2017-04-09T12:06:24Z</time><pdop>4.0</pdop><geoidheight>0.00</geoidheight><course>44.0</course><type>1</type></trkpt>
      <trkpt lat="40.2483072" lon="-4.89043517"><ele>1147</ele><speed>6.49</speed><time>2017-04-09T12:06:26Z</time><pdop>4.0</pdop><geoidheight>0.00</geoidheight><course>33.6</course><type>1</type></trkpt>
      <trkpt lat="40.24841035" lon="-4.89035008"><ele>1142</ele><speed>6.94</speed><time>2017-04-09T12:06:28Z</time><pdop>4.0</pdop><geoidheight>0.00</geoidheight><course>31.8</course><type>1</type></trkpt>
      <trkpt lat="40.24850793" lon="-4.8902643"><ele>1141</ele><speed>6.48</speed><time>2017-04-09T12:06:30Z</time><pdop>4.0</pdop><geoidheight>0.00</geoidheight><course>36.1</course><type>1</type></trkpt>
      <trkpt lat="40.2485814" lon="-4.89013506"><ele>1139</ele><speed>7.25</speed><time>2017-04-09T12:06:32Z</time><pdop>4.0</pdop><geoidheight>0.00</geoidheight><course>44.8</course><type>1</type></trkpt>
      <trkpt lat="40.24868733" lon="-4.89001863"><ele>1138</ele><speed>7.54</speed><time>2017-04-09T12:06:34Z</time><pdop>4.0</pdop><geoidheight>0.00</geoidheight><course>40.9</course><type>1</type></trkpt>
      <trkpt lat="40.24877197" lon="-4.88990616"><ele>1136</ele><speed>6.54</speed><time>2017-04-09T12:06:36Z</time><pdop>4.0</pdop><geoidheight>0.00</geoidheight><course>47.3</course><type>1</type></trkpt>
      <trkpt lat="40.24885371" lon="-4.88980165"><ele>1135</ele><speed>6.77</speed><time>2017-04-09T12:06:38Z</time><pdop>3.0</pdop><geoidheight>0.00</geoidheight><course>42.1</course><type>1</type></trkpt>
      <trkpt lat="40.24889809" lon="-4.88973671"><ele>1134</ele><speed>6.62</speed><time>2017-04-09T12:06:39Z</time><pdop>3.0</pdop><geoidheight>0.00</geoidheight><course>38.1</course><type>1</type></trkpt>
      <trkpt lat="40.24895192" lon="-4.88969003"><ele>1134</ele><speed>6.30</speed><time>2017-04-09T12:06:40Z</time><pdop>3.0</pdop><geoidheight>0.00</geoidheight><course>33.1</course><type>1</type></trkpt>
      <trkpt lat="40.24904558" lon="-4.88959679"><ele>1133</ele><speed>7.59</speed><time>2017-04-09T12:06:42Z</time><pdop>3.0</pdop><geoidheight>0.00</geoidheight><course>40.7</course><type>1</type></trkpt>
      <trkpt lat="40.24910036" lon="-4.8895384"><ele>1132</ele><speed>7.89</speed><time>2017-04-09T12:06:43Z</time><pdop>4.0</pdop><geoidheight>0.00</geoidheight><course>44.6</course><type>1</type></trkpt>
      <trkpt lat="40.24919126" lon="-4.88942209"><ele>1132</ele><speed>6.67</speed><time>2017-04-09T12:06:45Z</time><pdop>4.0</pdop><geoidheight>0.00</geoidheight><course>44.1</course><type>1</type></trkpt>
      <trkpt lat="40.24928449" lon="-4.88931385"><ele>1133</ele><speed>6.69</speed><time>2017-04-09T12:06:47Z</time><pdop>4.0</pdop><geoidheight>0.00</geoidheight><course>40.3</course><type>1</type></trkpt>
      <trkpt lat="40.24935619" lon="-4.88924631"><ele>1130</ele><speed>7.52</speed><time>2017-04-09T12:06:48Z</time><pdop>4.0</pdop><geoidheight>0.00</geoidheight><course>39.8</course><type>1</type></trkpt>
      <trkpt lat="40.24941431" lon="-4.88917638"><ele>1129</ele><speed>9.19</speed><time>2017-04-09T12:06:49Z</time><pdop>4.0</pdop><geoidheight>0.00</geoidheight><course>41.3</course><type>1</type></trkpt>
      <trkpt lat="40.24947911" lon="-4.88908861"><ele>1129</ele><speed>10.28</speed><time>2017-04-09T12:06:50Z</time><pdop>3.0</pdop><geoidheight>0.00</geoidheight><course>40.5</course><type>1</type></trkpt>
      <trkpt lat="40.24954522" lon="-4.88901566"><ele>1131</ele><speed>9.60</speed><time>2017-04-09T12:06:51Z</time><pdop>3.0</pdop><geoidheight>0.00</geoidheight><course>36.5</course><type>1</type></trkpt>
      <trkpt lat="40.24965602" lon="-4.88890586"><ele>1134</ele><speed>6.67</speed><time>2017-04-09T12:06:53Z</time><pdop>3.0</pdop><geoidheight>0.00</geoidheight><course>43.4</course><type>1</type></trkpt>
      <trkpt lat="40.2497018" lon="-4.88878646"><ele>1136</ele><speed>5.32</speed><time>2017-04-09T12:06:55Z</time><pdop>3.0</pdop><geoidheight>0.00</geoidheight><course>66.8</course><type>1</type></trkpt>
      <trkpt lat="40.24968308" lon="-4.88863572"><ele>1132</ele><speed>7.71</speed><time>2017-04-09T12:06:57Z</time><pdop>4.0</pdop><geoidheight>0.00</geoidheight><course>95.4</course><type>1</type></trkpt>
      <trkpt lat="40.24965288" lon="-4.88847033"><ele>1133</ele><speed>6.09</speed><time>2017-04-09T12:06:59Z</time><pdop>4.0</pdop><geoidheight>0.00</geoidheight><course>95.6</course><type>1</type></trkpt>
      <trkpt lat="40.24965278" lon="-4.88836317"><ele>1136</ele><speed>4.45</speed><time>2017-04-09T12:07:01Z</time><pdop>4.0</pdop><geoidheight>0.00</geoidheight><course>85.5</course><type>1</type></trkpt>
      <trkpt lat="40.24967846" lon="-4.88823028"><ele>1134</ele><speed>5.93</speed><time>2017-04-09T12:07:03Z</time><pdop>4.0</pdop><geoidheight>0.00</geoidheight><course>66.8</course><type>1</type></trkpt>
      <trkpt lat="40.24973188" lon="-4.88811197"><ele>1134</ele><speed>6.38</speed><time>2017-04-09T12:07:05Z</time><pdop>4.0</pdop><geoidheight>0.00</geoidheight><course>56.9</course><type>1</type></trkpt>
      <trkpt lat="40.24980179" lon="-4.8879926"><ele>1134</ele><speed>6.62</speed><time>2017-04-09T12:07:07Z</time><pdop>4.0</pdop><geoidheight>0.00</geoidheight><course>49.8</course><type>1</type></trkpt>
      <trkpt lat="40.24989244" lon="-4.88789577"><ele>1138</ele><speed>7.86</speed><time>2017-04-09T12:07:09Z</time><pdop>4.0</pdop><geoidheight>0.00</geoidheight><course>26.8</course><type>1</type></trkpt>
      <trkpt lat="40.25001517" lon="-4.88782773"><ele>1141</ele><speed>6.67</speed><time>2017-04-09T12:07:11Z</time><pdop>4.0</pdop><geoidheight>0.00</geoidheight><course>27.8</course><type>1</type></trkpt>
      <trkpt lat="40.2501039" lon="-4.88774643"><ele>1142</ele><speed>4.93</speed><time>2017-04-09T12:07:13Z</time><pdop>4.0</pdop><geoidheight>0.00</geoidheight><course>48.5</course><type>1</type></trkpt>
      <trkpt lat="40.25018323" lon="-4.88766955"><ele>1144</ele><speed>6.65</speed><time>2017-04-09T12:07:15Z</time><pdop>4.0</pdop><geoidheight>0.00</geoidheight><course>26.6</course><type>1</type></trkpt>
      <trkpt lat="40.25032694" lon="-4.88768222"><ele>1149</ele><speed>9.15</speed><time>2017-04-09T12:07:17Z</time><pdop>4.0</pdop><geoidheight>0.00</geoidheight><course>341.8</course><type>1</type></trkpt>
      <trkpt lat="40.25041035" lon="-4.88772796"><ele>1151</ele><speed>9.56</speed><time>2017-04-09T12:07:18Z</time><pdop>4.0</pdop><geoidheight>0.00</geoidheight><course>334.3</course><type>1</type></trkpt>
      <trkpt lat="40.25049156" lon="-4.88778182"><ele>1153</ele><speed>9.51</speed><time>2017-04-09T12:07:19Z</time><pdop>4.0</pdop><geoidheight>0.00</geoidheight><course>334.6</course><type>1</type></trkpt>
      <trkpt lat="40.25057273" lon="-4.88782421"><ele>1155</ele><speed>9.82</speed><time>2017-04-09T12:07:20Z</time><pdop>4.0</pdop><geoidheight>0.00</geoidheight><course>336.3</course><type>1</type></trkpt>
      <trkpt lat="40.25065335" lon="-4.88786475"><ele>1157</ele><speed>9.50</speed><time>2017-04-09T12:07:21Z</time><pdop>4.0</pdop><geoidheight>0.00</geoidheight><course>336.7</course><type>1</type></trkpt>
      <trkpt lat="40.25074059" lon="-4.88792943"><ele>1160</ele><speed>9.38</speed><time>2017-04-09T12:07:22Z</time><pdop>4.0</pdop><geoidheight>0.00</geoidheight><course>324.3</course><type>1</type></trkpt>
      <trkpt lat="40.25081038" lon="-4.88798908"><ele>1165</ele><speed>8.75</speed><time>2017-04-09T12:07:23Z</time><pdop>4.0</pdop><geoidheight>0.00</geoidheight><course>328.1</course><type>1</type></trkpt>
      <trkpt lat="40.25087519" lon="-4.88803828"><ele>1168</ele><speed>8.68</speed><time>2017-04-09T12:07:24Z</time><pdop>4.0</pdop><geoidheight>0.00</geoidheight><course>332.7</course><type>1</type></trkpt>
      <trkpt lat="40.2509503" lon="-4.88808253"><ele>1170</ele><speed>9.61</speed><time>2017-04-09T12:07:25Z</time><pdop>4.0</pdop><geoidheight>0.00</geoidheight><course>336.4</course><type>1</type></trkpt>
      <trkpt lat="40.25104069" lon="-4.8881238"><ele>1174</ele><speed>10.67</speed><time>2017-04-09T12:07:26Z</time><pdop>4.0</pdop><geoidheight>0.00</geoidheight><course>339.2</course><type>1</type></trkpt>
      <trkpt lat="40.25112737" lon="-4.88817103"><ele>1176</ele><speed>10.96</speed><time>2017-04-09T12:07:27Z</time><pdop>4.0</pdop><geoidheight>0.00</geoidheight><course>332.3</course><type>1</type></trkpt>
      <trkpt lat="40.2512086" lon="-4.88824487"><ele>1179</ele><speed>11.08</speed><time>2017-04-09T12:07:28Z</time><pdop>4.0</pdop><geoidheight>0.00</geoidheight><course>324.8</course><type>1</type></trkpt>
      <trkpt lat="40.25127356" lon="-4.88833531"><ele>1176</ele><speed>11.07</speed><time>2017-04-09T12:07:29Z</time><pdop>4.0</pdop><geoidheight>0.00</geoidheight><course>315.9</course><type>1</type></trkpt>
      <trkpt lat="40.25134401" lon="-4.88842653"><ele>1177</ele><speed>11.05</speed><time>2017-04-09T12:07:30Z</time><pdop>4.0</pdop><geoidheight>0.00</geoidheight><course>312.0</course><type>1</type></trkpt>
      <trkpt lat="40.25141103" lon="-4.88853009"><ele>1177</ele><speed>11.15</speed><time>2017-04-09T12:07:31Z</time><pdop>4.0</pdop><geoidheight>0.00</geoidheight><course>314.8</course><type>1</type></trkpt>
      <trkpt lat="40.2514954" lon="-4.8886161"><ele>1176</ele><speed>11.61</speed><time>2017-04-09T12:07:32Z</time><pdop>4.0</pdop><geoidheight>0.00</geoidheight><course>322.1</course><type>1</type></trkpt>
      <trkpt lat="40.25158182" lon="-4.88870035"><ele>1175</ele><speed>11.29</speed><time>2017-04-09T12:07:33Z</time><pdop>5.0</pdop><geoidheight>0.00</geoidheight><course>330.4</course><type>1</type></trkpt>
      <trkpt lat="40.25173444" lon="-4.88875236"><ele>1175</ele><speed>8.90</speed><time>2017-04-09T12:07:35Z</time><pdop>4.0</pdop><geoidheight>0.00</geoidheight><course>353.3</course><type>1</type></trkpt>
      <trkpt lat="40.25185814" lon="-4.88874067"><ele>1175</ele><speed>7.42</speed><time>2017-04-09T12:07:37Z</time><pdop>4.0</pdop><geoidheight>0.00</geoidheight><course>12.9</course><type>1</type></trkpt>
      <trkpt lat="40.25197839" lon="-4.88866037"><ele>1175</ele><speed>7.82</speed><time>2017-04-09T12:07:39Z</time><pdop>4.0</pdop><geoidheight>0.00</geoidheight><course>33.6</course><type>1</type></trkpt>
      <trkpt lat="40.25204281" lon="-4.88861129"><ele>1175</ele><speed>7.62</speed><time>2017-04-09T12:07:40Z</time><pdop>4.0</pdop><geoidheight>0.00</geoidheight><course>29.7</course><type>1</type></trkpt>
      <trkpt lat="40.25210222" lon="-4.88855526"><ele>1177</ele><speed>6.55</speed><time>2017-04-09T12:07:41Z</time><pdop>3.0</pdop><geoidheight>0.00</geoidheight><course>37.5</course><type>1</type></trkpt>
      <trkpt lat="40.25215936" lon="-4.88846132"><ele>1178</ele><speed>4.97</speed><time>2017-04-09T12:07:43Z</time><pdop>3.0</pdop><geoidheight>0.00</geoidheight><course>63.0</course><type>1</type></trkpt>
      <trkpt lat="40.25215859" lon="-4.8883678"><ele>1179</ele><speed>3.97</speed><time>2017-04-09T12:07:45Z</time><pdop>3.0</pdop><geoidheight>0.00</geoidheight><course>101.1</course><type>1</type></trkpt>
      <trkpt lat="40.25211789" lon="-4.88830049"><ele>1179</ele><speed>5.59</speed><time>2017-04-09T12:07:47Z</time><pdop>4.0</pdop><geoidheight>0.00</geoidheight><course>151.7</course><type>1</type></trkpt>
      <trkpt lat="40.25204358" lon="-4.88831535"><ele>1179</ele><speed>7.84</speed><time>2017-04-09T12:07:48Z</time><pdop>4.0</pdop><geoidheight>0.00</geoidheight><course>181.9</course><type>1</type></trkpt>
      <trkpt lat="40.25197191" lon="-4.8883318"><ele>1179</ele><speed>8.77</speed><time>2017-04-09T12:07:49Z</time><pdop>4.0</pdop><geoidheight>0.00</geoidheight><course>188.6</course><type>1</type></trkpt>
      <trkpt lat="40.2518689" lon="-4.88839579"><ele>1181</ele><speed>10.53</speed><time>2017-04-09T12:07:50Z</time><pdop>5.0</pdop><geoidheight>0.00</geoidheight><course>207.6</course><type>1</type></trkpt>
      <trkpt lat="40.25178906" lon="-4.88845388"><ele>1182</ele><speed>11.03</speed><time>2017-04-09T12:07:51Z</time><pdop>5.0</pdop><geoidheight>0.00</geoidheight><course>220.5</course><type>1</type></trkpt>
      <trkpt lat="40.25172603" lon="-4.88854458"><ele>1182</ele><speed>10.85</speed><time>2017-04-09T12:07:52Z</time><pdop>4.0</pdop><geoidheight>0.00</geoidheight><course>228.1</course><type>1</type></trkpt>
      <trkpt lat="40.25166378" lon="-4.8886425"><ele>1182</ele><speed>10.23</speed><time>2017-04-09T12:07:53Z</time><pdop>4.0</pdop><geoidheight>0.00</geoidheight><course>230.0</course><type>1</type></trkpt>
      <trkpt lat="40.25159382" lon="-4.8887401"><ele>1182</ele><speed>11.14</speed><time>2017-04-09T12:07:54Z</time><pdop>4.0</pdop><geoidheight>0.00</geoidheight><course>230.6</course><type>1</type></trkpt>
      <trkpt lat="40.25152189" lon="-4.88884793"><ele>1182</ele><speed>11.71</speed><time>2017-04-09T12:07:55Z</time><pdop>4.0</pdop><geoidheight>0.00</geoidheight><course>228.7</course><type>1</type></trkpt>
      <trkpt lat="40.25144937" lon="-4.88895587"><ele>1183</ele><speed>12.31</speed><time>2017-04-09T12:07:56Z</time><pdop>4.0</pdop><geoidheight>0.00</geoidheight><course>229.5</course><type>1</type></trkpt>
      <trkpt lat="40.25138477" lon="-4.88907316"><ele>1184</ele><speed>12.66</speed><time>2017-04-09T12:07:57Z</time><pdop>4.0</pdop><geoidheight>0.00</geoidheight><course>233.9</course><type>1</type></trkpt>
      <trkpt lat="40.25133633" lon="-4.88922339"><ele>1183</ele><speed>13.21</speed><time>2017-04-09T12:07:58Z</time><pdop>4.0</pdop><geoidheight>0.00</geoidheight><course>242.9</course><type>1</type></trkpt>
      <trkpt lat="40.251279" lon="-4.88936862"><ele>1183</ele><speed>14.16</speed><time>2017-04-09T12:07:59Z</time><pdop>4.0</pdop><geoidheight>0.00</geoidheight><course>242.7</course><type>1</type></trkpt>
      <trkpt lat="40.25123256" lon="-4.88952329"><ele>1186</ele><speed>13.43</speed><time>2017-04-09T12:08:00Z</time><pdop>4.0</pdop><geoidheight>0.00</geoidheight><course>248.7</course><type>1</type></trkpt>
      <trkpt lat="40.25117328" lon="-4.88966803"><ele>1190</ele><speed>12.97</speed><time>2017-04-09T12:08:01Z</time><pdop>4.0</pdop><geoidheight>0.00</geoidheight><course>243.4</course><type>1</type></trkpt>
      <trkpt lat="40.25111868" lon="-4.88979479"><ele>1193</ele><speed>12.87</speed><time>2017-04-09T12:08:02Z</time><pdop>4.0</pdop><geoidheight>0.00</geoidheight><course>242.2</course><type>1</type></trkpt>
      <trkpt lat="40.25105676" lon="-4.88992046"><ele>1196</ele><speed>11.88</speed><time>2017-04-09T12:08:03Z</time><pdop>4.0</pdop><geoidheight>0.00</geoidheight><course>238.1</course><type>1</type></trkpt>
      <trkpt lat="40.25100005" lon="-4.89003062"><ele>1199</ele><speed>11.52</speed><time>2017-04-09T12:08:04Z</time><pdop>4.0</pdop><geoidheight>0.00</geoidheight><course>233.1</course><type>1</type></trkpt>
      <trkpt lat="40.25093263" lon="-4.89014408"><ele>1199</ele><speed>12.12</speed><time>2017-04-09T12:08:05Z</time><pdop>3.0</pdop><geoidheight>0.00</geoidheight><course>230.7</course><type>1</type></trkpt>
      <trkpt lat="40.25085837" lon="-4.89025626"><ele>1201</ele><speed>12.86</speed><time>2017-04-09T12:08:06Z</time><pdop>3.0</pdop><geoidheight>0.00</geoidheight><course>226.5</course><type>1</type></trkpt>
      <trkpt lat="40.25078395" lon="-4.89035831"><ele>1204</ele><speed>11.66</speed><time>2017-04-09T12:08:07Z</time><pdop>3.0</pdop><geoidheight>0.00</geoidheight><course>224.9</course><type>1</type></trkpt>
      <trkpt lat="40.25071437" lon="-4.89043379"><ele>1205</ele><speed>9.25</speed><time>2017-04-09T12:08:08Z</time><pdop>3.0</pdop><geoidheight>0.00</geoidheight><course>213.8</course><type>1</type></trkpt>
      <trkpt lat="40.25064535" lon="-4.8904789"><ele>1207</ele><speed>7.95</speed><time>2017-04-09T12:08:09Z</time><pdop>3.0</pdop><geoidheight>0.00</geoidheight><course>198.8</course><type>1</type></trkpt>
      <trkpt lat="40.25058261" lon="-4.89048951"><ele>1207</ele><speed>6.88</speed><time>2017-04-09T12:08:10Z</time><pdop>4.0</pdop><geoidheight>0.00</geoidheight><course>185.8</course><type>1</type></trkpt>
      <trkpt lat="40.25046805" lon="-4.890498"><ele>1211</ele><speed>5.93</speed><time>2017-04-09T12:08:12Z</time><pdop>4.0</pdop><geoidheight>0.00</geoidheight><course>175.5</course><type>1</type></trkpt>
      <trkpt lat="40.25039531" lon="-4.89046809"><ele>1215</ele><speed>5.04</speed><time>2017-04-09T12:08:14Z</time><pdop>4.0</pdop><geoidheight>0.00</geoidheight><course>143.9</course><type>1</type></trkpt>
      <trkpt lat="40.25034742" lon="-4.89037773"><ele>1218</ele><speed>4.98</speed><time>2017-04-09T12:08:16Z</time><pdop>4.0</pdop><geoidheight>0.00</geoidheight><course>106.8</course><type>1</type></trkpt>
      <trkpt lat="40.25034288" lon="-4.89025274"><ele>1222</ele><speed>4.95</speed><time>2017-04-09T12:08:18Z</time><pdop>4.0</pdop><geoidheight>0.00</geoidheight><course>92.5</course><type>1</type></trkpt>
      <trkpt lat="40.2503539" lon="-4.89014802"><ele>1229</ele><speed>3.79</speed><time>2017-04-09T12:08:20Z</time><pdop>4.0</pdop><geoidheight>0.00</geoidheight><course>79.9</course><type>1</type></trkpt>
      <trkpt lat="40.25042052" lon="-4.89002385"><ele>1237</ele><speed>5.05</speed><time>2017-04-09T12:08:23Z</time><pdop>4.0</pdop><geoidheight>0.00</geoidheight><course>49.9</course><type>1</type></trkpt>
      <trkpt lat="40.25051931" lon="-4.88998763"><ele>1244</ele><speed>5.71</speed><time>2017-04-09T12:08:25Z</time><pdop>4.0</pdop><geoidheight>0.00</geoidheight><course>18.6</course><type>1</type></trkpt>
      <trkpt lat="40.25065434" lon="-4.88998062"><ele>1247</ele><speed>8.97</speed><time>2017-04-09T12:08:27Z</time><pdop>4.0</pdop><geoidheight>0.00</geoidheight><course>351.4</course><type>1</type></trkpt>
      <trkpt lat="40.25073247" lon="-4.89002145"><ele>1248</ele><speed>9.86</speed><time>2017-04-09T12:08:28Z</time><pdop>4.0</pdop><geoidheight>0.00</geoidheight><course>336.0</course><type>1</type></trkpt>
      <trkpt lat="40.25081583" lon="-4.89009205"><ele>1250</ele><speed>10.88</speed><time>2017-04-09T12:08:29Z</time><pdop>4.0</pdop><geoidheight>0.00</geoidheight><course>320.3</course><type>1</type></trkpt>
      <trkpt lat="40.25088795" lon="-4.89018883"><ele>1251</ele><speed>11.06</speed><time>2017-04-09T12:08:30Z</time><pdop>4.0</pdop><geoidheight>0.00</geoidheight><course>311.2</course><type>1</type></trkpt>
      <trkpt lat="40.2509454" lon="-4.89029094"><ele>1252</ele><speed>10.89</speed><time>2017-04-09T12:08:31Z</time><pdop>4.0</pdop><geoidheight>0.00</geoidheight><course>305.7</course><type>1</type></trkpt>
      <trkpt lat="40.25099765" lon="-4.89039904"><ele>1254</ele><speed>10.86</speed><time>2017-04-09T12:08:32Z</time><pdop>4.0</pdop><geoidheight>0.00</geoidheight><course>304.7</course><type>1</type></trkpt>
      <trkpt lat="40.25104998" lon="-4.89051752"><ele>1255</ele><speed>11.06</speed><time>2017-04-09T12:08:33Z</time><pdop>4.0</pdop><geoidheight>0.00</geoidheight><course>300.8</course><type>1</type></trkpt>
      <trkpt lat="40.25107969" lon="-4.8906429"><ele>1255</ele><speed>11.50</speed><time>2017-04-09T12:08:34Z</time><pdop>3.0</pdop><geoidheight>0.00</geoidheight><course>292.0</course><type>1</type></trkpt>
      <trkpt lat="40.25112645" lon="-4.89097423"><ele>1256</ele><speed>15.58</speed><time>2017-04-09T12:08:36Z</time><pdop>3.0</pdop><geoidheight>0.00</geoidheight><course>274.3</course><type>1</type></trkpt>
      <trkpt lat="40.25113073" lon="-4.89115861"><ele>1257</ele><speed>15.63</speed><time>2017-04-09T12:08:37Z</time><pdop>4.0</pdop><geoidheight>0.00</geoidheight><course>252.1</course><type>1</type></trkpt>
      <trkpt lat="40.25110832" lon="-4.89133497"><ele>1258</ele><speed>14.75</speed><time>2017-04-09T12:08:38Z</time><pdop>5.0</pdop><geoidheight>0.00</geoidheight><course>255.5</course><type>1</type></trkpt>
      <trkpt lat="40.25107725" lon="-4.89146645"><ele>1261</ele><speed>11.89</speed><time>2017-04-09T12:08:39Z</time><pdop>5.0</pdop><geoidheight>0.00</geoidheight><course>252.1</course><type>1</type></trkpt>
      <trkpt lat="40.25105576" lon="-4.89159443"><ele>1265</ele><speed>10.72</speed><time>2017-04-09T12:08:40Z</time><pdop>6.0</pdop><geoidheight>0.00</geoidheight><course>249.7</course><type>1</type></trkpt>
      <trkpt lat="40.25097868" lon="-4.89184163"><ele>1269</ele><speed>11.65</speed><time>2017-04-09T12:08:42Z</time><pdop>5.0</pdop><geoidheight>0.00</geoidheight><course>239.9</course><type>1</type></trkpt>
      <trkpt lat="40.25091881" lon="-4.89197348"><ele>1270</ele><speed>12.12</speed><time>2017-04-09T12:08:43Z</time><pdop>5.0</pdop><geoidheight>0.00</geoidheight><course>234.3</course><type>1</type></trkpt>
      <trkpt lat="40.25084437" lon="-4.89206059"><ele>1270</ele><speed>12.23</speed><time>2017-04-09T12:08:44Z</time><pdop>5.0</pdop><geoidheight>0.00</geoidheight><course>228.9</course><type>1</type></trkpt>
      <trkpt lat="40.25076825" lon="-4.89215451"><ele>1272</ele><speed>11.82</speed><time>2017-04-09T12:08:45Z</time><pdop>5.0</pdop><geoidheight>0.00</geoidheight><course>215.6</course><type>1</type></trkpt>
      <trkpt lat="40.25069376" lon="-4.89223702"><ele>1275</ele><speed>10.50</speed><time>2017-04-09T12:08:46Z</time><pdop>5.0</pdop><geoidheight>0.00</geoidheight><course>212.7</course><type>1</type></trkpt>
      <trkpt lat="40.25056042" lon="-4.89234167"><ele>1281</ele><speed>7.74</speed><time>2017-04-09T12:08:48Z</time><pdop>5.0</pdop><geoidheight>0.00</geoidheight><course>199.9</course><type>1</type></trkpt>
      <trkpt lat="40.25044302" lon="-4.89236195"><ele>1284</ele><speed>6.09</speed><time>2017-04-09T12:08:50Z</time><pdop>5.0</pdop><geoidheight>0.00</geoidheight><course>170.6</course><type>1</type></trkpt>
      <trkpt lat="40.25035071" lon="-4.89230447"><ele>1286</ele><speed>5.45</speed><time>2017-04-09T12:08:52Z</time><pdop>6.0</pdop><geoidheight>0.00</geoidheight><course>139.2</course><type>1</type></trkpt>
      <trkpt lat="40.25027792" lon="-4.89216653"><ele>1292</ele><speed>3.89</speed><time>2017-04-09T12:08:55Z</time><pdop>5.0</pdop><geoidheight>0.00</geoidheight><course>88.7</course><type>1</type></trkpt>
      <trkpt lat="40.25034346" lon="-4.89206918"><ele>1295</ele><speed>5.83</speed><time>2017-04-09T12:08:57Z</time><pdop>5.0</pdop><geoidheight>0.00</geoidheight><course>38.3</course><type>1</type></trkpt>
      <trkpt lat="40.25046329" lon="-4.8919889"><ele>1296</ele><speed>7.63</speed><time>2017-04-09T12:08:59Z</time><pdop>5.0</pdop><geoidheight>0.00</geoidheight><course>20.5</course><type>1</type></trkpt>
      <trkpt lat="40.2506072" lon="-4.89196001"><ele>1297</ele><speed>8.73</speed><time>2017-04-09T12:09:01Z</time><pdop>5.0</pdop><geoidheight>0.00</geoidheight><course>5.6</course><type>1</type></trkpt>
      <trkpt lat="40.25074851" lon="-4.89193072"><ele>1297</ele><speed>7.24</speed><time>2017-04-09T12:09:03Z</time><pdop>6.0</pdop><geoidheight>0.00</geoidheight><course>6.9</course><type>1</type></trkpt>
      <trkpt lat="40.25086458" lon="-4.89195517"><ele>1297</ele><speed>6.07</speed><time>2017-04-09T12:09:05Z</time><pdop>5.0</pdop><geoidheight>0.00</geoidheight><course>340.9</course><type>1</type></trkpt>
      <trkpt lat="40.25100087" lon="-4.89202243"><ele>1295</ele><speed>9.98</speed><time>2017-04-09T12:09:07Z</time><pdop>4.0</pdop><geoidheight>0.00</geoidheight><course>338.1</course><type>1</type></trkpt>
      <trkpt lat="40.2510884" lon="-4.89207378"><ele>1296</ele><speed>10.71</speed><time>2017-04-09T12:09:08Z</time><pdop>4.0</pdop><geoidheight>0.00</geoidheight><course>336.9</course><type>1</type></trkpt>
      <trkpt lat="40.25117028" lon="-4.89212091"><ele>1296</ele><speed>9.50</speed><time>2017-04-09T12:09:09Z</time><pdop>4.0</pdop><geoidheight>0.00</geoidheight><course>333.6</course><type>1</type></trkpt>
      <trkpt lat="40.25124402" lon="-4.89218422"><ele>1298</ele><speed>9.71</speed><time>2017-04-09T12:09:10Z</time><pdop>4.0</pdop><geoidheight>0.00</geoidheight><course>323.0</course><type>1</type></trkpt>
      <trkpt lat="40.25130661" lon="-4.89225776"><ele>1299</ele><speed>9.84</speed><time>2017-04-09T12:09:11Z</time><pdop>4.0</pdop><geoidheight>0.00</geoidheight><course>315.2</course><type>1</type></trkpt>
      <trkpt lat="40.25137753" lon="-4.8923503"><ele>1301</ele><speed>11.45</speed><time>2017-04-09T12:09:12Z</time><pdop>4.0</pdop><geoidheight>0.00</geoidheight><course>312.6</course><type>1</type></trkpt>
      <trkpt lat="40.25144131" lon="-4.89245994"><ele>1302</ele><speed>12.45</speed><time>2017-04-09T12:09:13Z</time><pdop>4.0</pdop><geoidheight>0.00</geoidheight><course>306.3</course><type>1</type></trkpt>
      <trkpt lat="40.25150812" lon="-4.89259498"><ele>1303</ele><speed>13.31</speed><time>2017-04-09T12:09:14Z</time><pdop>4.0</pdop><geoidheight>0.00</geoidheight><course>300.2</course><type>1</type></trkpt>
      <trkpt lat="40.25155894" lon="-4.89272501"><ele>1304</ele><speed>12.53</speed><time>2017-04-09T12:09:15Z</time><pdop>4.0</pdop><geoidheight>0.00</geoidheight><course>295.0</course><type>1</type></trkpt>
      <trkpt lat="40.25159735" lon="-4.89285724"><ele>1305</ele><speed>12.17</speed><time>2017-04-09T12:09:16Z</time><pdop>4.0</pdop><geoidheight>0.00</geoidheight><course>290.1</course><type>1</type></trkpt>
      <trkpt lat="40.25163389" lon="-4.8929989"><ele>1306</ele><speed>12.61</speed><time>2017-04-09T12:09:17Z</time><pdop>3.0</pdop><geoidheight>0.00</geoidheight><course>283.9</course><type>1</type></trkpt>
      <trkpt lat="40.251664" lon="-4.89315404"><ele>1306</ele><speed>14.40</speed><time>2017-04-09T12:09:18Z</time><pdop>3.0</pdop><geoidheight>0.00</geoidheight><course>283.3</course><type>1</type></trkpt>
      <trkpt lat="40.25170225" lon="-4.89331981"><ele>1309</ele><speed>15.41</speed><time>2017-04-09T12:09:19Z</time><pdop>3.0</pdop><geoidheight>0.00</geoidheight><course>280.1</course><type>1</type></trkpt>
      <trkpt lat="40.25171966" lon="-4.89349496"><ele>1311</ele><speed>14.33</speed><time>2017-04-09T12:09:20Z</time><pdop>4.0</pdop><geoidheight>0.00</geoidheight><course>272.5</course><type>1</type></trkpt>
      <trkpt lat="40.25170863" lon="-4.89367636"><ele>1311</ele><speed>13.92</speed><time>2017-04-09T12:09:21Z</time><pdop>4.0</pdop><geoidheight>0.00</geoidheight><course>260.5</course><type>1</type></trkpt>
      <trkpt lat="40.2516654" lon="-4.89382667"><ele>1314</ele><speed>13.21</speed><time>2017-04-09T12:09:22Z</time><pdop>3.0</pdop><geoidheight>0.00</geoidheight><course>248.2</course><type>1</type></trkpt>
      <trkpt lat="40.25161417" lon="-4.89396048"><ele>1317</ele><speed>12.52</speed><time>2017-04-09T12:09:23Z</time><pdop>3.0</pdop><geoidheight>0.00</geoidheight><course>237.7</course><type>1</type></trkpt>
      <trkpt lat="40.25154413" lon="-4.89408212"><ele>1318</ele><speed>12.86</speed><time>2017-04-09T12:09:24Z</time><pdop>3.0</pdop><geoidheight>0.00</geoidheight><course>230.7</course><type>1</type></trkpt>
      <trkpt lat="40.25147362" lon="-4.89417104"><ele>1318</ele><speed>11.31</speed><time>2017-04-09T12:09:25Z</time><pdop>3.0</pdop><geoidheight>0.00</geoidheight><course>234.4</course><type>1</type></trkpt>
      <trkpt lat="40.25141771" lon="-4.89428795"><ele>1321</ele><speed>10.11</speed><time>2017-04-09T12:09:26Z</time><pdop>3.0</pdop><geoidheight>0.00</geoidheight><course>237.3</course><type>1</type></trkpt>
      <trkpt lat="40.25138207" lon="-4.89438007"><ele>1324</ele><speed>8.92</speed><time>2017-04-09T12:09:27Z</time><pdop>4.0</pdop><geoidheight>0.00</geoidheight><course>231.8</course><type>1</type></trkpt>
      <trkpt lat="40.25132645" lon="-4.89444989"><ele>1326</ele><speed>8.74</speed><time>2017-04-09T12:09:28Z</time><pdop>4.0</pdop><geoidheight>0.00</geoidheight><course>219.1</course><type>1</type></trkpt>
      <trkpt lat="40.25125234" lon="-4.89451414"><ele>1327</ele><speed>9.36</speed><time>2017-04-09T12:09:29Z</time><pdop>4.0</pdop><geoidheight>0.00</geoidheight><course>211.6</course><type>1</type></trkpt>
      <trkpt lat="40.25111078" lon="-4.89458958"><ele>1326</ele><speed>7.54</speed><time>2017-04-09T12:09:31Z</time><pdop>4.0</pdop><geoidheight>0.00</geoidheight><course>201.7</course><type>1</type></trkpt>
      <trkpt lat="40.25099087" lon="-4.89460772"><ele>1329</ele><speed>6.55</speed><time>2017-04-09T12:09:33Z</time><pdop>4.0</pdop><geoidheight>0.00</geoidheight><course>185.8</course><type>1</type></trkpt>
      <trkpt lat="40.25087514" lon="-4.89460682"><ele>1331</ele><speed>7.22</speed><time>2017-04-09T12:09:35Z</time><pdop>4.0</pdop><geoidheight>0.00</geoidheight><course>180.8</course><type>1</type></trkpt>
      <trkpt lat="40.25076512" lon="-4.89457757"><ele>1336</ele><speed>6.17</speed><time>2017-04-09T12:09:37Z</time><pdop>5.0</pdop><geoidheight>0.00</geoidheight><course>150.2</course><type>1</type></trkpt>
      <trkpt lat="40.25070632" lon="-4.89447411"><ele>1339</ele><speed>5.37</speed><time>2017-04-09T12:09:39Z</time><pdop>5.0</pdop><geoidheight>0.00</geoidheight><course>121.2</course><type>1</type></trkpt>
      <trkpt lat="40.25064652" lon="-4.89439438"><ele>1342</ele><speed>4.58</speed><time>2017-04-09T12:09:41Z</time><pdop>4.0</pdop><geoidheight>0.00</geoidheight><course>131.4</course><type>1</type></trkpt>
      <trkpt lat="40.25060391" lon="-4.89430818"><ele>1345</ele><speed>3.94</speed><time>2017-04-09T12:09:43Z</time><pdop>4.0</pdop><geoidheight>0.00</geoidheight><course>110.2</course><type>1</type></trkpt>
      <trkpt lat="40.25061346" lon="-4.89417142"><ele>1352</ele><speed>3.59</speed><time>2017-04-09T12:09:46Z</time><pdop>4.0</pdop><geoidheight>0.00</geoidheight><course>66.6</course><type>1</type></trkpt>
      <trkpt lat="40.25071039" lon="-4.89408928"><ele>1360</ele><speed>5.21</speed><time>2017-04-09T12:09:49Z</time><pdop>4.0</pdop><geoidheight>0.00</geoidheight><course>17.1</course><type>1</type></trkpt>
      <trkpt lat="40.25081045" lon="-4.89408488"><ele>1367</ele><speed>7.03</speed><time>2017-04-09T12:09:51Z</time><pdop>4.0</pdop><geoidheight>0.00</geoidheight><course>347.8</course><type>1</type></trkpt>
      <trkpt lat="40.25093085" lon="-4.89414111"><ele>1370</ele><speed>7.01</speed><time>2017-04-09T12:09:53Z</time><pdop>4.0</pdop><geoidheight>0.00</geoidheight><course>342.1</course><type>1</type></trkpt>
      <trkpt lat="40.2510417" lon="-4.89420676"><ele>1371</ele><speed>8.12</speed><time>2017-04-09T12:09:55Z</time><pdop>4.0</pdop><geoidheight>0.00</geoidheight><course>336.5</course><type>1</type></trkpt>
      <trkpt lat="40.25119613" lon="-4.8943596"><ele>1374</ele><speed>12.95</speed><time>2017-04-09T12:09:57Z</time><pdop>5.0</pdop><geoidheight>0.00</geoidheight><course>318.1</course><type>1</type></trkpt>
      <trkpt lat="40.25127473" lon="-4.89448309"><ele>1375</ele><speed>13.41</speed><time>2017-04-09T12:09:58Z</time><pdop>5.0</pdop><geoidheight>0.00</geoidheight><course>303.2</course><type>1</type></trkpt>
      <trkpt lat="40.25134065" lon="-4.89462357"><ele>1375</ele><speed>14.37</speed><time>2017-04-09T12:09:59Z</time><pdop>4.0</pdop><geoidheight>0.00</geoidheight><course>298.8</course><type>1</type></trkpt>
      <trkpt lat="40.25139912" lon="-4.8947621"><ele>1377</ele><speed>14.27</speed><time>2017-04-09T12:10:00Z</time><pdop>4.0</pdop><geoidheight>0.00</geoidheight><course>297.3</course><type>1</type></trkpt>
      <trkpt lat="40.25145007" lon="-4.89491901"><ele>1378</ele><speed>14.63</speed><time>2017-04-09T12:10:01Z</time><pdop>4.0</pdop><geoidheight>0.00</geoidheight><course>292.8</course><type>1</type></trkpt>
      <trkpt lat="40.25149374" lon="-4.89508453"><ele>1379</ele><speed>14.23</speed><time>2017-04-09T12:10:02Z</time><pdop>3.0</pdop><geoidheight>0.00</geoidheight><course>287.3</course><type>1</type></trkpt>
      <trkpt lat="40.25152901" lon="-4.8952445"><ele>1380</ele><speed>14.09</speed><time>2017-04-09T12:10:03Z</time><pdop>4.0</pdop><geoidheight>0.00</geoidheight><course>285.6</course><type>1</type></trkpt>
      <trkpt lat="40.25153598" lon="-4.89538575"><ele>1382</ele><speed>11.63</speed><time>2017-04-09T12:10:04Z</time><pdop>5.0</pdop><geoidheight>0.00</geoidheight><course>274.2</course><type>1</type></trkpt>
      <trkpt lat="40.2515542" lon="-4.89552884"><ele>1385</ele><speed>11.37</speed><time>2017-04-09T12:10:05Z</time><pdop>5.0</pdop><geoidheight>0.00</geoidheight><course>267.6</course><type>1</type></trkpt>
      <trkpt lat="40.25153204" lon="-4.89567284"><ele>1384</ele><speed>12.36</speed><time>2017-04-09T12:10:06Z</time><pdop>5.0</pdop><geoidheight>0.00</geoidheight><course>260.6</course><type>1</type></trkpt>
      <trkpt lat="40.2515198" lon="-4.89580383"><ele>1383</ele><speed>13.62</speed><time>2017-04-09T12:10:07Z</time><pdop>5.0</pdop><geoidheight>0.00</geoidheight><course>251.5</course><type>1</type></trkpt>
      <trkpt lat="40.25145552" lon="-4.89594645"><ele>1383</ele><speed>14.48</speed><time>2017-04-09T12:10:08Z</time><pdop>5.0</pdop><geoidheight>0.00</geoidheight><course>236.0</course><type>1</type></trkpt>
      <trkpt lat="40.25136771" lon="-4.89608329"><ele>1384</ele><speed>14.46</speed><time>2017-04-09T12:10:09Z</time><pdop>4.0</pdop><geoidheight>0.00</geoidheight><course>224.9</course><type>1</type></trkpt>
      <trkpt lat="40.25126925" lon="-4.89619724"><ele>1385</ele><speed>13.28</speed><time>2017-04-09T12:10:10Z</time><pdop>4.0</pdop><geoidheight>0.00</geoidheight><course>222.9</course><type>1</type></trkpt>
      <trkpt lat="40.25119133" lon="-4.89630542"><ele>1386</ele><speed>12.39</speed><time>2017-04-09T12:10:11Z</time><pdop>5.0</pdop><geoidheight>0.00</geoidheight><course>224.9</course><type>1</type></trkpt>
      <trkpt lat="40.25111553" lon="-4.89640339"><ele>1386</ele><speed>12.18</speed><time>2017-04-09T12:10:12Z</time><pdop>5.0</pdop><geoidheight>0.00</geoidheight><course>223.8</course><type>1</type></trkpt>
      <trkpt lat="40.25102635" lon="-4.89649743"><ele>1386</ele><speed>13.21</speed><time>2017-04-09T12:10:13Z</time><pdop>5.0</pdop><geoidheight>0.00</geoidheight><course>216.3</course><type>1</type></trkpt>
      <trkpt lat="40.25091499" lon="-4.89658523"><ele>1388</ele><speed>14.48</speed><time>2017-04-09T12:10:14Z</time><pdop>5.0</pdop><geoidheight>0.00</geoidheight><course>206.6</course><type>1</type></trkpt>
      <trkpt lat="40.25081912" lon="-4.89665709"><ele>1391</ele><speed>12.89</speed><time>2017-04-09T12:10:15Z</time><pdop>5.0</pdop><geoidheight>0.00</geoidheight><course>205.8</course><type>1</type></trkpt>
      <trkpt lat="40.25072062" lon="-4.89672628"><ele>1395</ele><speed>11.07</speed><time>2017-04-09T12:10:16Z</time><pdop>5.0</pdop><geoidheight>0.00</geoidheight><course>211.4</course><type>1</type></trkpt>
      <trkpt lat="40.25048545" lon="-4.89690832"><ele>1401</ele><speed>10.47</speed><time>2017-04-09T12:10:19Z</time><pdop>5.0</pdop><geoidheight>0.00</geoidheight><course>203.2</course><type>1</type></trkpt>
      <trkpt lat="40.25031527" lon="-4.89696347"><ele>1401</ele><speed>10.09</speed><time>2017-04-09T12:10:21Z</time><pdop>5.0</pdop><geoidheight>0.00</geoidheight><course>187.5</course><type>1</type></trkpt>
      <trkpt lat="40.25014663" lon="-4.89695437"><ele>1400</ele><speed>9.29</speed><time>2017-04-09T12:10:23Z</time><pdop>6.0</pdop><geoidheight>0.00</geoidheight><course>163.7</course><type>1</type></trkpt>
      <trkpt lat="40.25001834" lon="-4.89690643"><ele>1400</ele><speed>6.11</speed><time>2017-04-09T12:10:25Z</time><pdop>5.0</pdop><geoidheight>0.00</geoidheight><course>138.1</course><type>1</type></trkpt>
      <trkpt lat="40.24997551" lon="-4.89679127"><ele>1398</ele><speed>5.20</speed><time>2017-04-09T12:10:27Z</time><pdop>5.0</pdop><geoidheight>0.00</geoidheight><course>84.7</course><type>1</type></trkpt>
      <trkpt lat="40.24997449" lon="-4.89668366"><ele>1397</ele><speed>4.89</speed><time>2017-04-09T12:10:29Z</time><pdop>4.0</pdop><geoidheight>0.00</geoidheight><course>77.3</course><type>1</type></trkpt>
      <trkpt lat="40.24997" lon="-4.89657026"><ele>1397</ele><speed>5.57</speed><time>2017-04-09T12:10:31Z</time><pdop>4.0</pdop><geoidheight>0.00</geoidheight><course>73.5</course><type>1</type></trkpt>
      <trkpt lat="40.24999049" lon="-4.8964783"><ele>1403</ele><speed>2.63</speed><time>2017-04-09T12:10:33Z</time><pdop>4.0</pdop><geoidheight>0.00</geoidheight><course>303.1</course><type>1</type></trkpt>
      <trkpt lat="40.25008464" lon="-4.89637113"><ele>1413</ele><speed>5.96</speed><time>2017-04-09T12:10:38Z</time><pdop>4.0</pdop><geoidheight>0.00</geoidheight><course>23.0</course><type>1</type></trkpt>
      <trkpt lat="40.25017669" lon="-4.89635254"><ele>1414</ele><speed>6.20</speed><time>2017-04-09T12:10:40Z</time><pdop>4.0</pdop><geoidheight>0.00</geoidheight><course>336.7</course><type>1</type></trkpt>
      <trkpt lat="40.2502591" lon="-4.89641198"><ele>1418</ele><speed>5.17</speed><time>2017-04-09T12:10:42Z</time><pdop>5.0</pdop><geoidheight>0.00</geoidheight><course>311.0</course><type>1</type></trkpt>
      <trkpt lat="40.250336" lon="-4.89650581"><ele>1419</ele><speed>6.48</speed><time>2017-04-09T12:10:44Z</time><pdop>5.0</pdop><geoidheight>0.00</geoidheight><course>316.5</course><type>1</type></trkpt>
      <trkpt lat="40.25045645" lon="-4.89662376"><ele>1420</ele><speed>9.33</speed><time>2017-04-09T12:10:46Z</time><pdop>4.0</pdop><geoidheight>0.00</geoidheight><course>320.6</course><type>1</type></trkpt>
      <trkpt lat="40.25053599" lon="-4.89670194"><ele>1420</ele><speed>11.08</speed><time>2017-04-09T12:10:47Z</time><pdop>4.0</pdop><geoidheight>0.00</geoidheight><course>321.2</course><type>1</type></trkpt>
      <trkpt lat="40.25061818" lon="-4.89680401"><ele>1419</ele><speed>13.22</speed><time>2017-04-09T12:10:48Z</time><pdop>4.0</pdop><geoidheight>0.00</geoidheight><course>313.4</course><type>1</type></trkpt>
      <trkpt lat="40.25068828" lon="-4.89693322"><ele>1418</ele><speed>13.72</speed><time>2017-04-09T12:10:49Z</time><pdop>4.0</pdop><geoidheight>0.00</geoidheight><course>302.8</course><type>1</type></trkpt>
      <trkpt lat="40.25073829" lon="-4.89705942"><ele>1417</ele><speed>13.13</speed><time>2017-04-09T12:10:50Z</time><pdop>4.0</pdop><geoidheight>0.00</geoidheight><course>295.2</course><type>1</type></trkpt>
      <trkpt lat="40.25078108" lon="-4.89720239"><ele>1417</ele><speed>12.51</speed><time>2017-04-09T12:10:51Z</time><pdop>4.0</pdop><geoidheight>0.00</geoidheight><course>294.6</course><type>1</type></trkpt>
      <trkpt lat="40.25082581" lon="-4.89733177"><ele>1416</ele><speed>11.81</speed><time>2017-04-09T12:10:52Z</time><pdop>4.0</pdop><geoidheight>0.00</geoidheight><course>294.8</course><type>1</type></trkpt>
      <trkpt lat="40.25087048" lon="-4.89745773"><ele>1415</ele><speed>11.81</speed><time>2017-04-09T12:10:53Z</time><pdop>4.0</pdop><geoidheight>0.00</geoidheight><course>159.6</course><type>1</type></trkpt>
      <trkpt lat="40.25093544" lon="-4.89759024"><ele>1414</ele><speed>13.30</speed><time>2017-04-09T12:10:54Z</time><pdop>4.0</pdop><geoidheight>0.00</geoidheight><course>293.9</course><type>1</type></trkpt>
      <trkpt lat="40.2510049" lon="-4.89772241"><ele>1414</ele><speed>13.72</speed><time>2017-04-09T12:10:55Z</time><pdop>4.0</pdop><geoidheight>0.00</geoidheight><course>302.9</course><type>1</type></trkpt>
      <trkpt lat="40.25106511" lon="-4.89786044"><ele>1414</ele><speed>13.50</speed><time>2017-04-09T12:10:56Z</time><pdop>4.0</pdop><geoidheight>0.00</geoidheight><course>300.1</course><type>1</type></trkpt>
      <trkpt lat="40.25111489" lon="-4.8980008"><ele>1414</ele><speed>13.70</speed><time>2017-04-09T12:10:57Z</time><pdop>4.0</pdop><geoidheight>0.00</geoidheight><course>293.5</course><type>1</type></trkpt>
      <trkpt lat="40.25115313" lon="-4.89816757"><ele>1412</ele><speed>15.00</speed><time>2017-04-09T12:10:58Z</time><pdop>4.0</pdop><geoidheight>0.00</geoidheight><course>287.0</course><type>1</type></trkpt>
      <trkpt lat="40.25119069" lon="-4.89835857"><ele>1412</ele><speed>16.23</speed><time>2017-04-09T12:10:59Z</time><pdop>4.0</pdop><geoidheight>0.00</geoidheight><course>281.3</course><type>1</type></trkpt>
      <trkpt lat="40.25119497" lon="-4.89857571"><ele>1411</ele><speed>17.94</speed><time>2017-04-09T12:11:00Z</time><pdop>4.0</pdop><geoidheight>0.00</geoidheight><course>273.5</course><type>1</type></trkpt>
      <trkpt lat="40.25121602" lon="-4.89877948"><ele>1412</ele><speed>17.65</speed><time>2017-04-09T12:11:01Z</time><pdop>4.0</pdop><geoidheight>0.00</geoidheight><course>267.3</course><type>1</type></trkpt>
      <trkpt lat="40.2511975" lon="-4.89898538"><ele>1413</ele><speed>16.14</speed><time>2017-04-09T12:11:02Z</time><pdop>4.0</pdop><geoidheight>0.00</geoidheight><course>259.7</course><type>1</type></trkpt>
      <trkpt lat="40.2511566" lon="-4.89915584"><ele>1414</ele><speed>15.37</speed><time>2017-04-09T12:11:03Z</time><pdop>4.0</pdop><geoidheight>0.00</geoidheight><course>250.3</course><type>1</type></trkpt>
      <trkpt lat="40.25110284" lon="-4.89932671"><ele>1415</ele><speed>16.21</speed><time>2017-04-09T12:11:04Z</time><pdop>4.0</pdop><geoidheight>0.00</geoidheight><course>245.1</course><type>1</type></trkpt>
      <trkpt lat="40.25102729" lon="-4.89950678"><ele>1414</ele><speed>17.04</speed><time>2017-04-09T12:11:05Z</time><pdop>4.0</pdop><geoidheight>0.00</geoidheight><course>241.7</course><type>1</type></trkpt>
      <trkpt lat="40.25092865" lon="-4.89968267"><ele>1415</ele><speed>17.13</speed><time>2017-04-09T12:11:06Z</time><pdop>4.0</pdop><geoidheight>0.00</geoidheight><course>232.3</course><type>1</type></trkpt>
      <trkpt lat="40.25083379" lon="-4.89984981"><ele>1416</ele><speed>15.36</speed><time>2017-04-09T12:11:07Z</time><pdop>4.0</pdop><geoidheight>0.00</geoidheight><course>225.8</course><type>1</type></trkpt>
      <trkpt lat="40.25072573" lon="-4.89996885"><ele>1419</ele><speed>13.50</speed><time>2017-04-09T12:11:08Z</time><pdop>4.0</pdop><geoidheight>0.00</geoidheight><course>221.2</course><type>1</type></trkpt>
      <trkpt lat="40.25063634" lon="-4.90007603"><ele>1422</ele><speed>12.41</speed><time>2017-04-09T12:11:09Z</time><pdop>5.0</pdop><geoidheight>0.00</geoidheight><course>223.5</course><type>1</type></trkpt>
      <trkpt lat="40.25055299" lon="-4.90017116"><ele>1423</ele><speed>11.18</speed><time>2017-04-09T12:11:10Z</time><pdop>4.0</pdop><geoidheight>0.00</geoidheight><course>224.6</course><type>1</type></trkpt>
      <trkpt lat="40.25048608" lon="-4.90026712"><ele>1424</ele><speed>10.76</speed><time>2017-04-09T12:11:11Z</time><pdop>4.0</pdop><geoidheight>0.00</geoidheight><course>222.8</course><type>1</type></trkpt>
      <trkpt lat="40.25040921" lon="-4.90035066"><ele>1425</ele><speed>11.38</speed><time>2017-04-09T12:11:12Z</time><pdop>4.0</pdop><geoidheight>0.00</geoidheight><course>219.7</course><type>1</type></trkpt>
      <trkpt lat="40.25033027" lon="-4.90043089"><ele>1425</ele><speed>12.48</speed><time>2017-04-09T12:11:13Z</time><pdop>4.0</pdop><geoidheight>0.00</geoidheight><course>220.0</course><type>1</type></trkpt>
      <trkpt lat="40.25022948" lon="-4.90052783"><ele>1426</ele><speed>13.41</speed><time>2017-04-09T12:11:14Z</time><pdop>4.0</pdop><geoidheight>0.00</geoidheight><course>215.9</course><type>1</type></trkpt>
      <trkpt lat="40.25013172" lon="-4.90060432"><ele>1427</ele><speed>13.01</speed><time>2017-04-09T12:11:15Z</time><pdop>4.0</pdop><geoidheight>0.00</geoidheight><course>213.7</course><type>1</type></trkpt>
      <trkpt lat="40.2500365" lon="-4.90068094"><ele>1428</ele><speed>11.79</speed><time>2017-04-09T12:11:16Z</time><pdop>5.0</pdop><geoidheight>0.00</geoidheight><course>212.2</course><type>1</type></trkpt>
      <trkpt lat="40.24994741" lon="-4.90075878"><ele>1429</ele><speed>11.84</speed><time>2017-04-09T12:11:17Z</time><pdop>6.0</pdop><geoidheight>0.00</geoidheight><course>216.4</course><type>1</type></trkpt>
      <trkpt lat="40.24969539" lon="-4.90080777"><ele>1427</ele><speed>9.47</speed><time>2017-04-09T12:11:20Z</time><pdop>6.0</pdop><geoidheight>0.00</geoidheight><course>190.6</course><type>1</type></trkpt>
      <trkpt lat="40.24953824" lon="-4.90076844"><ele>1427</ele><speed>7.62</speed><time>2017-04-09T12:11:22Z</time><pdop>5.0</pdop><geoidheight>0.00</geoidheight><course>166.7</course><type>1</type></trkpt>
      <trkpt lat="40.24942322" lon="-4.90070651"><ele>1426</ele><speed>6.33</speed><time>2017-04-09T12:11:24Z</time><pdop>5.0</pdop><geoidheight>0.00</geoidheight><course>147.1</course><type>1</type></trkpt>
      <trkpt lat="40.24937775" lon="-4.90059758"><ele>1426</ele><speed>5.18</speed><time>2017-04-09T12:11:26Z</time><pdop>5.0</pdop><geoidheight>0.00</geoidheight><course>110.1</course><type>1</type></trkpt>
      <trkpt lat="40.24938107" lon="-4.90047965"><ele>1427</ele><speed>3.44</speed><time>2017-04-09T12:11:28Z</time><pdop>4.0</pdop><geoidheight>0.00</geoidheight><course>80.7</course><type>1</type></trkpt>
      <trkpt lat="40.24937488" lon="-4.90033397"><ele>1430</ele><speed>4.09</speed><time>2017-04-09T12:11:31Z</time><pdop>4.0</pdop><geoidheight>0.00</geoidheight><course>97.0</course><type>1</type></trkpt>
      <trkpt lat="40.24937838" lon="-4.90023618"><ele>1432</ele><speed>3.74</speed><time>2017-04-09T12:11:33Z</time><pdop>3.0</pdop><geoidheight>0.00</geoidheight><course>86.7</course><type>1</type></trkpt>
      <trkpt lat="40.24937764" lon="-4.9001576"><ele>1435</ele><speed>2.74</speed><time>2017-04-09T12:11:35Z</time><pdop>3.0</pdop><geoidheight>0.00</geoidheight><course>164.0</course><type>1</type></trkpt>
      <trkpt lat="40.249318" lon="-4.90008982"><ele>1435</ele><speed>3.45</speed><time>2017-04-09T12:11:38Z</time><pdop>4.0</pdop><geoidheight>0.00</geoidheight><course>174.4</course><type>1</type></trkpt>
      <trkpt lat="40.24925886" lon="-4.90002514"><ele>1434</ele><speed>4.66</speed><time>2017-04-09T12:11:40Z</time><pdop>4.0</pdop><geoidheight>0.00</geoidheight><course>174.8</course><type>1</type></trkpt>
      <trkpt lat="40.24919432" lon="-4.89996458"><ele>1433</ele><speed>3.89</speed><time>2017-04-09T12:11:42Z</time><pdop>4.0</pdop><geoidheight>0.00</geoidheight><course>176.7</course><type>1</type></trkpt>
      <trkpt lat="40.24917211" lon="-4.89976363"><ele>1430</ele><speed>5.75</speed><time>2017-04-09T12:11:44Z</time><pdop>4.0</pdop><geoidheight>0.00</geoidheight><course>133.6</course><type>1</type></trkpt>
      <trkpt lat="40.24910788" lon="-4.89962372"><ele>1428</ele><speed>7.30</speed><time>2017-04-09T12:11:46Z</time><pdop>3.0</pdop><geoidheight>0.00</geoidheight><course>123.9</course><type>1</type></trkpt>
      <trkpt lat="40.24908482" lon="-4.89954166"><ele>1426</ele><speed>6.46</speed><time>2017-04-09T12:11:47Z</time><pdop>4.0</pdop><geoidheight>0.00</geoidheight><course>115.4</course><type>1</type></trkpt>
      <trkpt lat="40.24908332" lon="-4.89942649"><ele>1423</ele><speed>4.09</speed><time>2017-04-09T12:11:49Z</time><pdop>4.0</pdop><geoidheight>0.00</geoidheight><course>80.5</course><type>1</type></trkpt>
      <trkpt lat="40.24902501" lon="-4.89921889"><ele>1418</ele><speed>6.28</speed><time>2017-04-09T12:11:53Z</time><pdop>5.0</pdop><geoidheight>0.00</geoidheight><course>124.7</course><type>1</type></trkpt>
      <trkpt lat="40.24896002" lon="-4.89912932"><ele>1417</ele><speed>4.35</speed><time>2017-04-09T12:11:55Z</time><pdop>5.0</pdop><geoidheight>0.00</geoidheight><course>133.4</course><type>1</type></trkpt>
      <trkpt lat="40.24889266" lon="-4.89904907"><ele>1415</ele><speed>5.80</speed><time>2017-04-09T12:11:57Z</time><pdop>5.0</pdop><geoidheight>0.00</geoidheight><course>140.7</course><type>1</type></trkpt>
      <trkpt lat="40.2488229" lon="-4.8989363"><ele>1413</ele><speed>6.31</speed><time>2017-04-09T12:11:59Z</time><pdop>5.0</pdop><geoidheight>0.00</geoidheight><course>127.0</course><type>1</type></trkpt>
      <trkpt lat="40.2487733" lon="-4.89881188"><ele>1413</ele><speed>4.35</speed><time>2017-04-09T12:12:01Z</time><pdop>5.0</pdop><geoidheight>0.00</geoidheight><course>105.3</course><type>1</type></trkpt>
      <trkpt lat="40.24871354" lon="-4.89870684"><ele>1420</ele><speed>1.79</speed><time>2017-04-09T12:12:06Z</time><pdop>4.0</pdop><geoidheight>0.00</geoidheight><course>213.3</course><type>1</type></trkpt>
      <trkpt lat="40.24867372" lon="-4.89862636"><ele>1421</ele><speed>1.63</speed><time>2017-04-09T12:12:10Z</time><pdop>4.0</pdop><geoidheight>0.00</geoidheight><course>216.7</course><type>1</type></trkpt>
      <trkpt lat="40.24860189" lon="-4.89862097"><ele>1423</ele><speed>3.11</speed><time>2017-04-09T12:12:15Z</time><pdop>4.0</pdop><geoidheight>0.00</geoidheight><course>229.8</course><type>1</type></trkpt>
      <trkpt lat="40.2485095" lon="-4.89834825"><ele>1426</ele><speed>3.39</speed><time>2017-04-09T12:12:20Z</time><pdop>5.0</pdop><geoidheight>0.00</geoidheight><course>132.8</course><type>1</type></trkpt>
      <trkpt lat="40.2484289" lon="-4.89833863"><ele>1446</ele><speed>2.63</speed><time>2017-04-09T12:12:29Z</time><pdop>4.0</pdop><geoidheight>0.00</geoidheight><course>265.7</course><type>1</type></trkpt>
      <trkpt lat="40.24835633" lon="-4.89829883"><ele>1461</ele><speed>2.06</speed><time>2017-04-09T12:12:34Z</time><pdop>4.0</pdop><geoidheight>0.00</geoidheight><course>267.2</course><type>1</type></trkpt>
      <trkpt lat="40.24834014" lon="-4.89819618"><ele>1476</ele><speed>2.89</speed><time>2017-04-09T12:12:39Z</time><pdop>4.0</pdop><geoidheight>0.00</geoidheight><course>11.1</course><type>1</type></trkpt>
      <trkpt lat="40.24843922" lon="-4.89811476"><ele>1484</ele><speed>5.20</speed><time>2017-04-09T12:12:42Z</time><pdop>4.0</pdop><geoidheight>0.00</geoidheight><course>342.7</course><type>1</type></trkpt>
      <trkpt lat="40.24854091" lon="-4.89817006"><ele>1487</ele><speed>6.32</speed><time>2017-04-09T12:12:44Z</time><pdop>4.0</pdop><geoidheight>0.00</geoidheight><course>339.4</course><type>1</type></trkpt>
      <trkpt lat="40.24863509" lon="-4.89820428"><ele>1489</ele><speed>5.20</speed><time>2017-04-09T12:12:46Z</time><pdop>3.0</pdop><geoidheight>0.00</geoidheight><course>347.0</course><type>1</type></trkpt>
      <trkpt lat="40.24872653" lon="-4.89824002"><ele>1492</ele><speed>5.64</speed><time>2017-04-09T12:12:48Z</time><pdop>3.0</pdop><geoidheight>0.00</geoidheight><course>341.0</course><type>1</type></trkpt>
      <trkpt lat="40.24882144" lon="-4.89831257"><ele>1494</ele><speed>7.17</speed><time>2017-04-09T12:12:50Z</time><pdop>3.0</pdop><geoidheight>0.00</geoidheight><course>327.0</course><type>1</type></trkpt>
      <trkpt lat="40.24888196" lon="-4.89836992"><ele>1493</ele><speed>9.22</speed><time>2017-04-09T12:12:51Z</time><pdop>3.0</pdop><geoidheight>0.00</geoidheight><course>325.0</course><type>1</type></trkpt>
      <trkpt lat="40.24895528" lon="-4.89843734"><ele>1494</ele><speed>10.81</speed><time>2017-04-09T12:12:52Z</time><pdop>3.0</pdop><geoidheight>0.00</geoidheight><course>323.1</course><type>1</type></trkpt>
      <trkpt lat="40.24902752" lon="-4.89852757"><ele>1494</ele><speed>11.22</speed><time>2017-04-09T12:12:53Z</time><pdop>3.0</pdop><geoidheight>0.00</geoidheight><course>314.3</course><type>1</type></trkpt>
      <trkpt lat="40.24909859" lon="-4.89863663"><ele>1495</ele><speed>12.38</speed><time>2017-04-09T12:12:54Z</time><pdop>3.0</pdop><geoidheight>0.00</geoidheight><course>303.8</course><type>1</type></trkpt>
      <trkpt lat="40.2491535" lon="-4.89877035"><ele>1495</ele><speed>13.10</speed><time>2017-04-09T12:12:55Z</time><pdop>3.0</pdop><geoidheight>0.00</geoidheight><course>295.0</course><type>1</type></trkpt>
      <trkpt lat="40.24918897" lon="-4.89892733"><ele>1496</ele><speed>14.24</speed><time>2017-04-09T12:12:56Z</time><pdop>3.0</pdop><geoidheight>0.00</geoidheight><course>284.6</course><type>1</type></trkpt>
      <trkpt lat="40.2492144" lon="-4.89908835"><ele>1497</ele><speed>13.53</speed><time>2017-04-09T12:12:57Z</time><pdop>3.0</pdop><geoidheight>0.00</geoidheight><course>276.9</course><type>1</type></trkpt>
      <trkpt lat="40.24921088" lon="-4.89925905"><ele>1498</ele><speed>15.08</speed><time>2017-04-09T12:12:58Z</time><pdop>3.0</pdop><geoidheight>0.00</geoidheight><course>267.1</course><type>1</type></trkpt>
      <trkpt lat="40.24919007" lon="-4.89945113"><ele>1498</ele><speed>15.73</speed><time>2017-04-09T12:12:59Z</time><pdop>4.0</pdop><geoidheight>0.00</geoidheight><course>261.7</course><type>1</type></trkpt>
      <trkpt lat="40.24916609" lon="-4.89963193"><ele>1500</ele><speed>16.00</speed><time>2017-04-09T12:13:00Z</time><pdop>4.0</pdop><geoidheight>0.00</geoidheight><course>255.3</course><type>1</type></trkpt>
      <trkpt lat="40.24912579" lon="-4.89981871"><ele>1499</ele><speed>15.83</speed><time>2017-04-09T12:13:01Z</time><pdop>4.0</pdop><geoidheight>0.00</geoidheight><course>249.3</course><type>1</type></trkpt>
      <trkpt lat="40.24907384" lon="-4.89998686"><ele>1501</ele><speed>15.68</speed><time>2017-04-09T12:13:02Z</time><pdop>4.0</pdop><geoidheight>0.00</geoidheight><course>245.9</course><type>1</type></trkpt>
      <trkpt lat="40.24901461" lon="-4.90015184"><ele>1502</ele><speed>15.18</speed><time>2017-04-09T12:13:03Z</time><pdop>4.0</pdop><geoidheight>0.00</geoidheight><course>245.4</course><type>1</type></trkpt>
      <trkpt lat="40.24895737" lon="-4.90029919"><ele>1501</ele><speed>13.86</speed><time>2017-04-09T12:13:04Z</time><pdop>4.0</pdop><geoidheight>0.00</geoidheight><course>246.4</course><type>1</type></trkpt>
      <trkpt lat="40.248934" lon="-4.90044189"><ele>1502</ele><speed>13.43</speed><time>2017-04-09T12:13:05Z</time><pdop>4.0</pdop><geoidheight>0.00</geoidheight><course>248.2</course><type>1</type></trkpt>
      <trkpt lat="40.24889562" lon="-4.90056899"><ele>1500</ele><speed>14.27</speed><time>2017-04-09T12:13:06Z</time><pdop>4.0</pdop><geoidheight>0.00</geoidheight><course>245.1</course><type>1</type></trkpt>
      <trkpt lat="40.24883984" lon="-4.9007194"><ele>1500</ele><speed>14.28</speed><time>2017-04-09T12:13:07Z</time><pdop>4.0</pdop><geoidheight>0.00</geoidheight><course>244.4</course><type>1</type></trkpt>
      <trkpt lat="40.24876981" lon="-4.90086462"><ele>1500</ele><speed>14.20</speed><time>2017-04-09T12:13:08Z</time><pdop>5.0</pdop><geoidheight>0.00</geoidheight><course>238.2</course><type>1</type></trkpt>
      <trkpt lat="40.24869396" lon="-4.90100744"><ele>1499</ele><speed>13.70</speed><time>2017-04-09T12:13:09Z</time><pdop>4.0</pdop><geoidheight>0.00</geoidheight><course>230.8</course><type>1</type></trkpt>
      <trkpt lat="40.24861407" lon="-4.9011194"><ele>1498</ele><speed>13.43</speed><time>2017-04-09T12:13:10Z</time><pdop>4.0</pdop><geoidheight>0.00</geoidheight><course>207.6</course><type>1</type></trkpt>
      <trkpt lat="40.24851759" lon="-4.9012039"><ele>1498</ele><speed>13.11</speed><time>2017-04-09T12:13:11Z</time><pdop>5.0</pdop><geoidheight>0.00</geoidheight><course>207.3</course><type>1</type></trkpt>
      <trkpt lat="40.24841687" lon="-4.90125679"><ele>1498</ele><speed>12.14</speed><time>2017-04-09T12:13:12Z</time><pdop>5.0</pdop><geoidheight>0.00</geoidheight><course>196.8</course><type>1</type></trkpt>
      <trkpt lat="40.24831745" lon="-4.90127388"><ele>1498</ele><speed>10.88</speed><time>2017-04-09T12:13:13Z</time><pdop>6.0</pdop><geoidheight>0.00</geoidheight><course>186.9</course><type>1</type></trkpt>
      <trkpt lat="40.24813862" lon="-4.90131313"><ele>1501</ele><speed>8.23</speed><time>2017-04-09T12:13:15Z</time><pdop>6.0</pdop><geoidheight>0.00</geoidheight><course>193.5</course><type>1</type></trkpt>
      <trkpt lat="40.24801001" lon="-4.90136223"><ele>1504</ele><speed>7.66</speed><time>2017-04-09T12:13:17Z</time><pdop>6.0</pdop><geoidheight>0.00</geoidheight><course>191.1</course><type>1</type></trkpt>
      <trkpt lat="40.24787542" lon="-4.90137575"><ele>1505</ele><speed>6.89</speed><time>2017-04-09T12:13:19Z</time><pdop>5.0</pdop><geoidheight>0.00</geoidheight><course>176.9</course><type>1</type></trkpt>
      <trkpt lat="40.24776895" lon="-4.9013619"><ele>1511</ele><speed>6.11</speed><time>2017-04-09T12:13:21Z</time><pdop>5.0</pdop><geoidheight>0.00</geoidheight><course>175.2</course><type>1</type></trkpt>
      <trkpt lat="40.24767672" lon="-4.90133569"><ele>1512</ele><speed>4.85</speed><time>2017-04-09T12:13:23Z</time><pdop>5.0</pdop><geoidheight>0.00</geoidheight><course>174.5</course><type>1</type></trkpt>
      <trkpt lat="40.24755879" lon="-4.90127935"><ele>1514</ele><speed>4.42</speed><time>2017-04-09T12:13:26Z</time><pdop>5.0</pdop><geoidheight>0.00</geoidheight><course>142.7</course><type>1</type></trkpt>
      <trkpt lat="40.24749837" lon="-4.90120051"><ele>1515</ele><speed>4.76</speed><time>2017-04-09T12:13:28Z</time><pdop>4.0</pdop><geoidheight>0.00</geoidheight><course>127.8</course><type>1</type></trkpt>
      <trkpt lat="40.24739948" lon="-4.90107829"><ele>1515</ele><speed>4.77</speed><time>2017-04-09T12:13:32Z</time><pdop>4.0</pdop><geoidheight>0.00</geoidheight><course>140.9</course><type>1</type></trkpt>
      <trkpt lat="40.24733214" lon="-4.90099646"><ele>1514</ele><speed>5.79</speed><time>2017-04-09T12:13:34Z</time><pdop>5.0</pdop><geoidheight>0.00</geoidheight><course>143.9</course><type>1</type></trkpt>
      <trkpt lat="40.24723548" lon="-4.900929"><ele>1512</ele><speed>4.78</speed><time>2017-04-09T12:13:36Z</time><pdop>4.0</pdop><geoidheight>0.00</geoidheight><course>145.1</course><type>1</type></trkpt>
      <trkpt lat="40.24715385" lon="-4.90091277"><ele>1511</ele><speed>5.13</speed><time>2017-04-09T12:13:38Z</time><pdop>4.0</pdop><geoidheight>0.00</geoidheight><course>166.3</course><type>1</type></trkpt>
      <trkpt lat="40.24707462" lon="-4.90089089"><ele>1509</ele><speed>3.51</speed><time>2017-04-09T12:13:40Z</time><pdop>5.0</pdop><geoidheight>0.00</geoidheight><course>150.8</course><type>1</type></trkpt>
      <trkpt lat="40.24704167" lon="-4.90074704"><ele>1503</ele><speed>4.03</speed><time>2017-04-09T12:13:44Z</time><pdop>5.0</pdop><geoidheight>0.00</geoidheight><course>88.7</course><type>1</type></trkpt>
      <trkpt lat="40.24707836" lon="-4.90061677"><ele>1504</ele><speed>2.24</speed><time>2017-04-09T12:13:47Z</time><pdop>5.0</pdop><geoidheight>0.00</geoidheight><course>99.2</course><type>1</type></trkpt>
      <trkpt lat="40.24708922" lon="-4.90049414"><ele>1502</ele><speed>2.18</speed><time>2017-04-09T12:13:51Z</time><pdop>4.0</pdop><geoidheight>0.00</geoidheight><course>81.9</course><type>1</type></trkpt>
      <trkpt lat="40.24715043" lon="-4.90042065"><ele>1500</ele><speed>1.60</speed><time>2017-04-09T12:13:56Z</time><pdop>5.0</pdop><geoidheight>0.00</geoidheight><course>54.7</course><type>1</type></trkpt>
      <trkpt lat="40.24727399" lon="-4.90034075"><ele>1495</ele><speed>4.69</speed><time>2017-04-09T12:14:00Z</time><pdop>5.0</pdop><geoidheight>0.00</geoidheight><course>29.6</course><type>1</type></trkpt>
      <trkpt lat="40.24736595" lon="-4.90032219"><ele>1496</ele><speed>3.82</speed><time>2017-04-09T12:14:03Z</time><pdop>5.0</pdop><geoidheight>0.00</geoidheight><course>353.9</course><type>1</type></trkpt>
      <trkpt lat="40.24746185" lon="-4.90031987"><ele>1493</ele><speed>5.60</speed><time>2017-04-09T12:14:05Z</time><pdop>4.0</pdop><geoidheight>0.00</geoidheight><course>358.9</course><type>1</type></trkpt>
      <trkpt lat="40.24753624" lon="-4.9003197"><ele>1493</ele><speed>4.85</speed><time>2017-04-09T12:14:07Z</time><pdop>4.0</pdop><geoidheight>0.00</geoidheight><course>5.7</course><type>1</type></trkpt>
      <trkpt lat="40.24761484" lon="-4.90032138"><ele>1493</ele><speed>4.34</speed><time>2017-04-09T12:14:09Z</time><pdop>4.0</pdop><geoidheight>0.00</geoidheight><course>355.5</course><type>1</type></trkpt>
      <trkpt lat="40.24770597" lon="-4.90033479"><ele>1492</ele><speed>5.80</speed><time>2017-04-09T12:14:11Z</time><pdop>4.0</pdop><geoidheight>0.00</geoidheight><course>347.6</course><type>1</type></trkpt>
      <trkpt lat="40.24781061" lon="-4.90033378"><ele>1490</ele><speed>5.70</speed><time>2017-04-09T12:14:13Z</time><pdop>3.0</pdop><geoidheight>0.00</geoidheight><course>356.7</course><type>1</type></trkpt>
      <trkpt lat="40.24789742" lon="-4.90032187"><ele>1487</ele><speed>4.40</speed><time>2017-04-09T12:14:15Z</time><pdop>4.0</pdop><geoidheight>0.00</geoidheight><course>359.5</course><type>1</type></trkpt>
      <trkpt lat="40.2479704" lon="-4.90032276"><ele>1483</ele><speed>4.14</speed><time>2017-04-09T12:14:17Z</time><pdop>4.0</pdop><geoidheight>0.00</geoidheight><course>353.5</course><type>1</type></trkpt>
      <trkpt lat="40.24805208" lon="-4.90025658"><ele>1472</ele><speed>4.38</speed><time>2017-04-09T12:14:20Z</time><pdop>4.0</pdop><geoidheight>0.00</geoidheight><course>50.4</course><type>1</type></trkpt>
      <trkpt lat="40.24808911" lon="-4.90012382"><ele>1472</ele><speed>5.01</speed><time>2017-04-09T12:14:22Z</time><pdop>4.0</pdop><geoidheight>0.00</geoidheight><course>54.0</course><type>1</type></trkpt>
      <trkpt lat="40.24814049" lon="-4.90002978"><ele>1471</ele><speed>5.06</speed><time>2017-04-09T12:14:24Z</time><pdop>4.0</pdop><geoidheight>0.00</geoidheight><course>58.7</course><type>1</type></trkpt>
      <trkpt lat="40.24820767" lon="-4.89991452"><ele>1462</ele><speed>4.87</speed><time>2017-04-09T12:14:27Z</time><pdop>5.0</pdop><geoidheight>0.00</geoidheight><course>54.9</course><type>1</type></trkpt>
      <trkpt lat="40.24825813" lon="-4.89982693"><ele>1457</ele><speed>5.22</speed><time>2017-04-09T12:14:29Z</time><pdop>4.0</pdop><geoidheight>0.00</geoidheight><course>53.5</course><type>1</type></trkpt>
      <trkpt lat="40.24830893" lon="-4.89972235"><ele>1453</ele><speed>5.34</speed><time>2017-04-09T12:14:31Z</time><pdop>4.0</pdop><geoidheight>0.00</geoidheight><course>69.1</course><type>1</type></trkpt>
      <trkpt lat="40.2483654" lon="-4.89961175"><ele>1449</ele><speed>5.52</speed><time>2017-04-09T12:14:33Z</time><pdop>4.0</pdop><geoidheight>0.00</geoidheight><course>59.2</course><type>1</type></trkpt>
      <trkpt lat="40.24840682" lon="-4.89949071"><ele>1450</ele><speed>5.08</speed><time>2017-04-09T12:14:35Z</time><pdop>4.0</pdop><geoidheight>0.00</geoidheight><course>62.6</course><type>1</type></trkpt>
      <trkpt lat="40.24843634" lon="-4.89937461"><ele>1447</ele><speed>4.98</speed><time>2017-04-09T12:14:37Z</time><pdop>4.0</pdop><geoidheight>0.00</geoidheight><course>94.2</course><type>1</type></trkpt>
      <trkpt lat="40.24843608" lon="-4.89925107"><ele>1443</ele><speed>4.83</speed><time>2017-04-09T12:14:39Z</time><pdop>4.0</pdop><geoidheight>0.00</geoidheight><course>99.3</course><type>1</type></trkpt>
      <trkpt lat="40.24841718" lon="-4.89914274"><ele>1441</ele><speed>4.84</speed><time>2017-04-09T12:14:41Z</time><pdop>4.0</pdop><geoidheight>0.00</geoidheight><course>105.2</course><type>1</type></trkpt>
      <trkpt lat="40.24838229" lon="-4.89903806"><ele>1440</ele><speed>4.82</speed><time>2017-04-09T12:14:43Z</time><pdop>4.0</pdop><geoidheight>0.00</geoidheight><course>114.5</course><type>1</type></trkpt>
      <trkpt lat="40.24834023" lon="-4.89893825"><ele>1439</ele><speed>5.10</speed><time>2017-04-09T12:14:45Z</time><pdop>4.0</pdop><geoidheight>0.00</geoidheight><course>122.2</course><type>1</type></trkpt>
      <trkpt lat="40.24829712" lon="-4.89884545"><ele>1434</ele><speed>5.05</speed><time>2017-04-09T12:14:47Z</time><pdop>4.0</pdop><geoidheight>0.00</geoidheight><course>113.7</course><type>1</type></trkpt>
      <trkpt lat="40.24827157" lon="-4.89870499"><ele>1429</ele><speed>4.72</speed><time>2017-04-09T12:14:50Z</time><pdop>4.0</pdop><geoidheight>0.00</geoidheight><course>105.1</course><type>1</type></trkpt>
      <trkpt lat="40.24825756" lon="-4.89857674"><ele>1428</ele><speed>5.73</speed><time>2017-04-09T12:14:52Z</time><pdop>4.0</pdop><geoidheight>0.00</geoidheight><course>98.3</course><type>1</type></trkpt>
      <trkpt lat="40.24825266" lon="-4.89846793"><ele>1428</ele><speed>3.36</speed><time>2017-04-09T12:14:54Z</time><pdop>4.0</pdop><geoidheight>0.00</geoidheight><course>102.2</course><type>1</type></trkpt>
      <trkpt lat="40.24828418" lon="-4.89836152"><ele>1431</ele><speed>2.99</speed><time>2017-04-09T12:14:57Z</time><pdop>4.0</pdop><geoidheight>0.00</geoidheight><course>69.1</course><type>1</type></trkpt>
      <trkpt lat="40.24830282" lon="-4.89826472"><ele>1431</ele><speed>3.89</speed><time>2017-04-09T12:15:00Z</time><pdop>4.0</pdop><geoidheight>0.00</geoidheight><course>84.6</course><type>1</type></trkpt>
      <trkpt lat="40.24829906" lon="-4.89816773"><ele>1433</ele><speed>4.37</speed><time>2017-04-09T12:15:02Z</time><pdop>4.0</pdop><geoidheight>0.00</geoidheight><course>103.4</course><type>1</type></trkpt>
      <trkpt lat="40.24826333" lon="-4.89806552"><ele>1432</ele><speed>5.71</speed><time>2017-04-09T12:15:04Z</time><pdop>4.0</pdop><geoidheight>0.00</geoidheight><course>123.3</course><type>1</type></trkpt>
      <trkpt lat="40.24821366" lon="-4.89797216"><ele>1432</ele><speed>4.06</speed><time>2017-04-09T12:15:06Z</time><pdop>4.0</pdop><geoidheight>0.00</geoidheight><course>125.5</course><type>1</type></trkpt>
      <trkpt lat="40.2481824" lon="-4.89786239"><ele>1435</ele><speed>3.52</speed><time>2017-04-09T12:15:09Z</time><pdop>4.0</pdop><geoidheight>0.00</geoidheight><course>110.5</course><type>1</type></trkpt>
      <trkpt lat="40.24814751" lon="-4.89776607"><ele>1436</ele><speed>4.61</speed><time>2017-04-09T12:15:11Z</time><pdop>4.0</pdop><geoidheight>0.00</geoidheight><course>110.3</course><type>1</type></trkpt>
      <trkpt lat="40.24813132" lon="-4.89768571"><ele>1440</ele><speed>2.80</speed><time>2017-04-09T12:15:13Z</time><pdop>3.0</pdop><geoidheight>0.00</geoidheight><course>116.8</course><type>1</type></trkpt>
      <trkpt lat="40.24809975" lon="-4.8976145"><ele>1444</ele><speed>2.35</speed><time>2017-04-09T12:15:16Z</time><pdop>3.0</pdop><geoidheight>0.00</geoidheight><course>126.9</course><type>1</type></trkpt>
      <trkpt lat="40.24806591" lon="-4.8975178"><ele>1441</ele><speed>5.44</speed><time>2017-04-09T12:15:18Z</time><pdop>4.0</pdop><geoidheight>0.00</geoidheight><course>107.0</course><type>1</type></trkpt>
      <trkpt lat="40.24805177" lon="-4.89737765"><ele>1443</ele><speed>5.17</speed><time>2017-04-09T12:15:20Z</time><pdop>4.0</pdop><geoidheight>0.00</geoidheight><course>110.0</course><type>1</type></trkpt>
      <trkpt lat="40.24801754" lon="-4.89727437"><ele>1443</ele><speed>4.92</speed><time>2017-04-09T12:15:22Z</time><pdop>4.0</pdop><geoidheight>0.00</geoidheight><course>112.9</course><type>1</type></trkpt>
      <trkpt lat="40.24795798" lon="-4.89716353"><ele>1443</ele><speed>6.19</speed><time>2017-04-09T12:15:24Z</time><pdop>3.0</pdop><geoidheight>0.00</geoidheight><course>124.7</course><type>1</type></trkpt>
      <trkpt lat="40.24791716" lon="-4.89710624"><ele>1444</ele><speed>6.89</speed><time>2017-04-09T12:15:25Z</time><pdop>3.0</pdop><geoidheight>0.00</geoidheight><course>131.0</course><type>1</type></trkpt>
      <trkpt lat="40.24787831" lon="-4.89703837"><ele>1446</ele><speed>6.99</speed><time>2017-04-09T12:15:26Z</time><pdop>3.0</pdop><geoidheight>0.00</geoidheight><course>139.4</course><type>1</type></trkpt>
      <trkpt lat="40.2477932" lon="-4.89694373"><ele>1452</ele><speed>5.41</speed><time>2017-04-09T12:15:28Z</time><pdop>4.0</pdop><geoidheight>0.00</geoidheight><course>137.8</course><type>1</type></trkpt>
      <trkpt lat="40.24774066" lon="-4.8968565"><ele>1458</ele><speed>4.31</speed><time>2017-04-09T12:15:30Z</time><pdop>4.0</pdop><geoidheight>0.00</geoidheight><course>128.4</course><type>1</type></trkpt>
      <trkpt lat="40.24768183" lon="-4.89676061"><ele>1464</ele><speed>5.54</speed><time>2017-04-09T12:15:32Z</time><pdop>4.0</pdop><geoidheight>0.00</geoidheight><course>142.7</course><type>1</type></trkpt>
      <trkpt lat="40.24755331" lon="-4.89673175"><ele>1467</ele><speed>6.07</speed><time>2017-04-09T12:15:34Z</time><pdop>4.0</pdop><geoidheight>0.00</geoidheight><course>177.0</course><type>1</type></trkpt>
      <trkpt lat="40.24746801" lon="-4.89665632"><ele>1468</ele><speed>4.10</speed><time>2017-04-09T12:15:37Z</time><pdop>5.0</pdop><geoidheight>0.00</geoidheight><course>106.8</course><type>1</type></trkpt>
      <trkpt lat="40.24751765" lon="-4.89652613"><ele>1469</ele><speed>3.26</speed><time>2017-04-09T12:15:40Z</time><pdop>5.0</pdop><geoidheight>0.00</geoidheight><course>41.9</course><type>1</type></trkpt>
      <trkpt lat="40.24763793" lon="-4.89648743"><ele>1465</ele><speed>5.65</speed><time>2017-04-09T12:15:43Z</time><pdop>5.0</pdop><geoidheight>0.00</geoidheight><course>6.4</course><type>1</type></trkpt>
      <trkpt lat="40.24773946" lon="-4.8964598"><ele>1463</ele><speed>6.08</speed><time>2017-04-09T12:15:45Z</time><pdop>5.0</pdop><geoidheight>0.00</geoidheight><course>19.4</course><type>1</type></trkpt>
      <trkpt lat="40.24783264" lon="-4.89641172"><ele>1460</ele><speed>5.40</speed><time>2017-04-09T12:15:47Z</time><pdop>5.0</pdop><geoidheight>0.00</geoidheight><course>29.6</course><type>1</type></trkpt>
      <trkpt lat="40.24795182" lon="-4.89635034"><ele>1458</ele><speed>5.34</speed><time>2017-04-09T12:15:50Z</time><pdop>5.0</pdop><geoidheight>0.00</geoidheight><course>9.3</course><type>1</type></trkpt>
      <trkpt lat="40.24806366" lon="-4.89633525"><ele>1456</ele><speed>5.90</speed><time>2017-04-09T12:15:52Z</time><pdop>4.0</pdop><geoidheight>0.00</geoidheight><course>6.4</course><type>1</type></trkpt>
      <trkpt lat="40.2481575" lon="-4.89634478"><ele>1458</ele><speed>4.65</speed><time>2017-04-09T12:15:54Z</time><pdop>4.0</pdop><geoidheight>0.00</geoidheight><course>356.1</course><type>1</type></trkpt>
      <trkpt lat="40.24823768" lon="-4.89635842"><ele>1459</ele><speed>5.16</speed><time>2017-04-09T12:15:56Z</time><pdop>3.0</pdop><geoidheight>0.00</geoidheight><course>351.1</course><type>1</type></trkpt>
      <trkpt lat="40.24834187" lon="-4.89635296"><ele>1459</ele><speed>6.46</speed><time>2017-04-09T12:15:58Z</time><pdop>3.0</pdop><geoidheight>0.00</geoidheight><course>3.2</course><type>1</type></trkpt>
      <trkpt lat="40.24846435" lon="-4.89635622"><ele>1460</ele><speed>7.00</speed><time>2017-04-09T12:16:00Z</time><pdop>4.0</pdop><geoidheight>0.00</geoidheight><course>356.2</course><type>1</type></trkpt>
      <trkpt lat="40.2485723" lon="-4.89636253"><ele>1457</ele><speed>5.41</speed><time>2017-04-09T12:16:02Z</time><pdop>3.0</pdop><geoidheight>0.00</geoidheight><course>12.0</course><type>1</type></trkpt>
      <trkpt lat="40.24864243" lon="-4.89630311"><ele>1452</ele><speed>5.46</speed><time>2017-04-09T12:16:04Z</time><pdop>3.0</pdop><geoidheight>0.00</geoidheight><course>35.8</course><type>1</type></trkpt>
      <trkpt lat="40.24872712" lon="-4.89622555"><ele>1451</ele><speed>5.84</speed><time>2017-04-09T12:16:06Z</time><pdop>3.0</pdop><geoidheight>0.00</geoidheight><course>20.9</course><type>1</type></trkpt>
      <trkpt lat="40.24883269" lon="-4.89623081"><ele>1449</ele><speed>6.37</speed><time>2017-04-09T12:16:08Z</time><pdop>4.0</pdop><geoidheight>0.00</geoidheight><course>351.6</course><type>1</type></trkpt>
      <trkpt lat="40.24891006" lon="-4.89629813"><ele>1446</ele><speed>9.62</speed><time>2017-04-09T12:16:09Z</time><pdop>4.0</pdop><geoidheight>0.00</geoidheight><course>320.3</course><type>1</type></trkpt>
      <trkpt lat="40.24897299" lon="-4.89638992"><ele>1444</ele><speed>11.26</speed><time>2017-04-09T12:16:10Z</time><pdop>3.0</pdop><geoidheight>0.00</geoidheight><course>306.9</course><type>1</type></trkpt>
      <trkpt lat="40.24902753" lon="-4.89651713"><ele>1441</ele><speed>12.16</speed><time>2017-04-09T12:16:11Z</time><pdop>3.0</pdop><geoidheight>0.00</geoidheight><course>293.9</course><type>1</type></trkpt>
      <trkpt lat="40.24906715" lon="-4.89664927"><ele>1439</ele><speed>12.10</speed><time>2017-04-09T12:16:12Z</time><pdop>4.0</pdop><geoidheight>0.00</geoidheight><course>282.9</course><type>1</type></trkpt>
      <trkpt lat="40.24905097" lon="-4.89682922"><ele>1437</ele><speed>13.47</speed><time>2017-04-09T12:16:13Z</time><pdop>3.0</pdop><geoidheight>0.00</geoidheight><course>268.1</course><type>1</type></trkpt>
      <trkpt lat="40.24903249" lon="-4.89698638"><ele>1434</ele><speed>13.68</speed><time>2017-04-09T12:16:14Z</time><pdop>3.0</pdop><geoidheight>0.00</geoidheight><course>257.2</course><type>1</type></trkpt>
      <trkpt lat="40.24900467" lon="-4.8971357"><ele>1433</ele><speed>13.01</speed><time>2017-04-09T12:16:15Z</time><pdop>3.0</pdop><geoidheight>0.00</geoidheight><course>248.4</course><type>1</type></trkpt>
      <trkpt lat="40.24895754" lon="-4.89727006"><ele>1432</ele><speed>12.22</speed><time>2017-04-09T12:16:16Z</time><pdop>3.0</pdop><geoidheight>0.00</geoidheight><course>240.3</course><type>1</type></trkpt>
      <trkpt lat="40.24890675" lon="-4.89739456"><ele>1430</ele><speed>12.02</speed><time>2017-04-09T12:16:17Z</time><pdop>4.0</pdop><geoidheight>0.00</geoidheight><course>244.4</course><type>1</type></trkpt>
      <trkpt lat="40.2488603" lon="-4.89753151"><ele>1428</ele><speed>13.00</speed><time>2017-04-09T12:16:18Z</time><pdop>4.0</pdop><geoidheight>0.00</geoidheight><course>245.3</course><type>1</type></trkpt>
      <trkpt lat="40.24881243" lon="-4.89767497"><ele>1426</ele><speed>13.24</speed><time>2017-04-09T12:16:19Z</time><pdop>4.0</pdop><geoidheight>0.00</geoidheight><course>245.9</course><type>1</type></trkpt>
      <trkpt lat="40.24875941" lon="-4.89786259"><ele>1426</ele><speed>15.70</speed><time>2017-04-09T12:16:20Z</time><pdop>4.0</pdop><geoidheight>0.00</geoidheight><course>249.4</course><type>1</type></trkpt>
      <trkpt lat="40.24871273" lon="-4.89803601"><ele>1425</ele><speed>15.87</speed><time>2017-04-09T12:16:21Z</time><pdop>3.0</pdop><geoidheight>0.00</geoidheight><course>251.3</course><type>1</type></trkpt>
      <trkpt lat="40.24866197" lon="-4.8982214"><ele>1426</ele><speed>15.52</speed><time>2017-04-09T12:16:22Z</time><pdop>3.0</pdop><geoidheight>0.00</geoidheight><course>255.6</course><type>1</type></trkpt>
      <trkpt lat="40.24862883" lon="-4.89838085"><ele>1424</ele><speed>15.06</speed><time>2017-04-09T12:16:23Z</time><pdop>3.0</pdop><geoidheight>0.00</geoidheight><course>259.3</course><type>1</type></trkpt>
      <trkpt lat="40.24860084" lon="-4.89854911"><ele>1424</ele><speed>14.12</speed><time>2017-04-09T12:16:24Z</time><pdop>3.0</pdop><geoidheight>0.00</geoidheight><course>259.7</course><type>1</type></trkpt>
      <trkpt lat="40.24857236" lon="-4.8987078"><ele>1424</ele><speed>13.72</speed><time>2017-04-09T12:16:25Z</time><pdop>3.0</pdop><geoidheight>0.00</geoidheight><course>257.7</course><type>1</type></trkpt>
      <trkpt lat="40.24853646" lon="-4.89888404"><ele>1423</ele><speed>14.01</speed><time>2017-04-09T12:16:26Z</time><pdop>3.0</pdop><geoidheight>0.00</geoidheight><course>249.9</course><type>1</type></trkpt>
      <trkpt lat="40.24850097" lon="-4.89903312"><ele>1421</ele><speed>15.14</speed><time>2017-04-09T12:16:27Z</time><pdop>3.0</pdop><geoidheight>0.00</geoidheight><course>244.9</course><type>1</type></trkpt>
      <trkpt lat="40.2484409" lon="-4.89920519"><ele>1421</ele><speed>16.61</speed><time>2017-04-09T12:16:28Z</time><pdop>3.0</pdop><geoidheight>0.00</geoidheight><course>241.4</course><type>1</type></trkpt>
      <trkpt lat="40.24836744" lon="-4.8993741"><ele>1419</ele><speed>17.20</speed><time>2017-04-09T12:16:29Z</time><pdop>3.0</pdop><geoidheight>0.00</geoidheight><course>240.3</course><type>1</type></trkpt>
      <trkpt lat="40.24830387" lon="-4.8995459"><ele>1419</ele><speed>16.49</speed><time>2017-04-09T12:16:30Z</time><pdop>3.0</pdop><geoidheight>0.00</geoidheight><course>240.5</course><type>1</type></trkpt>
      <trkpt lat="40.24822866" lon="-4.89970602"><ele>1419</ele><speed>15.49</speed><time>2017-04-09T12:16:31Z</time><pdop>3.0</pdop><geoidheight>0.00</geoidheight><course>240.1</course><type>1</type></trkpt>
      <trkpt lat="40.2481625" lon="-4.89985544"><ele>1419</ele><speed>15.21</speed><time>2017-04-09T12:16:32Z</time><pdop>3.0</pdop><geoidheight>0.00</geoidheight><course>236.9</course><type>1</type></trkpt>
      <trkpt lat="40.24808766" lon="-4.89999651"><ele>1420</ele><speed>15.05</speed><time>2017-04-09T12:16:33Z</time><pdop>3.0</pdop><geoidheight>0.00</geoidheight><course>233.7</course><type>1</type></trkpt>
      <trkpt lat="40.24801372" lon="-4.90013444"><ele>1420</ele><speed>14.80</speed><time>2017-04-09T12:16:34Z</time><pdop>4.0</pdop><geoidheight>0.00</geoidheight><course>235.3</course><type>1</type></trkpt>
      <trkpt lat="40.24793845" lon="-4.90028709"><ele>1420</ele><speed>14.74</speed><time>2017-04-09T12:16:35Z</time><pdop>4.0</pdop><geoidheight>0.00</geoidheight><course>239.2</course><type>1</type></trkpt>
      <trkpt lat="40.24786434" lon="-4.90044345"><ele>1420</ele><speed>15.26</speed><time>2017-04-09T12:16:36Z</time><pdop>3.0</pdop><geoidheight>0.00</geoidheight><course>244.4</course><type>1</type></trkpt>
      <trkpt lat="40.2478195" lon="-4.90060691"><ele>1420</ele><speed>14.51</speed><time>2017-04-09T12:16:37Z</time><pdop>4.0</pdop><geoidheight>0.00</geoidheight><course>262.9</course><type>1</type></trkpt>
      <trkpt lat="40.24777695" lon="-4.90080117"><ele>1420</ele><speed>15.97</speed><time>2017-04-09T12:16:38Z</time><pdop>4.0</pdop><geoidheight>0.00</geoidheight><course>260.6</course><type>1</type></trkpt>
      <trkpt lat="40.24771896" lon="-4.90098263"><ele>1421</ele><speed>16.81</speed><time>2017-04-09T12:16:39Z</time><pdop>4.0</pdop><geoidheight>0.00</geoidheight><course>249.3</course><type>1</type></trkpt>
      <trkpt lat="40.24764474" lon="-4.90116812"><ele>1422</ele><speed>16.38</speed><time>2017-04-09T12:16:40Z</time><pdop>4.0</pdop><geoidheight>0.00</geoidheight><course>242.8</course><type>1</type></trkpt>
      <trkpt lat="40.24755609" lon="-4.90134169"><ele>1422</ele><speed>16.65</speed><time>2017-04-09T12:16:41Z</time><pdop>4.0</pdop><geoidheight>0.00</geoidheight><course>236.1</course><type>1</type></trkpt>
      <trkpt lat="40.24747303" lon="-4.90150865"><ele>1422</ele><speed>16.93</speed><time>2017-04-09T12:16:42Z</time><pdop>4.0</pdop><geoidheight>0.00</geoidheight><course>232.1</course><type>1</type></trkpt>
      <trkpt lat="40.24738883" lon="-4.90167178"><ele>1423</ele><speed>16.10</speed><time>2017-04-09T12:16:43Z</time><pdop>4.0</pdop><geoidheight>0.00</geoidheight><course>234.4</course><type>1</type></trkpt>
      <trkpt lat="40.24732064" lon="-4.90183131"><ele>1424</ele><speed>14.85</speed><time>2017-04-09T12:16:44Z</time><pdop>4.0</pdop><geoidheight>0.00</geoidheight><course>233.6</course><type>1</type></trkpt>
      <trkpt lat="40.24723015" lon="-4.90197497"><ele>1425</ele><speed>14.90</speed><time>2017-04-09T12:16:45Z</time><pdop>4.0</pdop><geoidheight>0.00</geoidheight><course>231.8</course><type>1</type></trkpt>
      <trkpt lat="40.2471622" lon="-4.90209212"><ele>1428</ele><speed>14.29</speed><time>2017-04-09T12:16:46Z</time><pdop>4.0</pdop><geoidheight>0.00</geoidheight><course>226.4</course><type>1</type></trkpt>
      <trkpt lat="40.24706424" lon="-4.90220439"><ele>1430</ele><speed>13.45</speed><time>2017-04-09T12:16:47Z</time><pdop>4.0</pdop><geoidheight>0.00</geoidheight><course>218.4</course><type>1</type></trkpt>
      <trkpt lat="40.24696904" lon="-4.90228415"><ele>1431</ele><speed>12.38</speed><time>2017-04-09T12:16:48Z</time><pdop>4.0</pdop><geoidheight>0.00</geoidheight><course>207.8</course><type>1</type></trkpt>
      <trkpt lat="40.24687774" lon="-4.90232242"><ele>1432</ele><speed>10.60</speed><time>2017-04-09T12:16:49Z</time><pdop>4.0</pdop><geoidheight>0.00</geoidheight><course>200.3</course><type>1</type></trkpt>
      <trkpt lat="40.24680681" lon="-4.90236762"><ele>1432</ele><speed>8.78</speed><time>2017-04-09T12:16:50Z</time><pdop>4.0</pdop><geoidheight>0.00</geoidheight><course>200.6</course><type>1</type></trkpt>
      <trkpt lat="40.24673731" lon="-4.90240043"><ele>1433</ele><speed>8.04</speed><time>2017-04-09T12:16:51Z</time><pdop>4.0</pdop><geoidheight>0.00</geoidheight><course>196.4</course><type>1</type></trkpt>
      <trkpt lat="40.2466694" lon="-4.9024446"><ele>1433</ele><speed>8.77</speed><time>2017-04-09T12:16:52Z</time><pdop>4.0</pdop><geoidheight>0.00</geoidheight><course>204.0</course><type>1</type></trkpt>
      <trkpt lat="40.24659437" lon="-4.90248258"><ele>1432</ele><speed>9.35</speed><time>2017-04-09T12:16:53Z</time><pdop>4.0</pdop><geoidheight>0.00</geoidheight><course>198.4</course><type>1</type></trkpt>
      <trkpt lat="40.24652203" lon="-4.90251406"><ele>1430</ele><speed>8.49</speed><time>2017-04-09T12:16:54Z</time><pdop>4.0</pdop><geoidheight>0.00</geoidheight><course>189.5</course><type>1</type></trkpt>
      <trkpt lat="40.24630669" lon="-4.90252285"><ele>1428</ele><speed>8.37</speed><time>2017-04-09T12:16:57Z</time><pdop>5.0</pdop><geoidheight>0.00</geoidheight><course>177.7</course><type>1</type></trkpt>
      <trkpt lat="40.2461614" lon="-4.90249432"><ele>1428</ele><speed>7.19</speed><time>2017-04-09T12:16:59Z</time><pdop>5.0</pdop><geoidheight>0.00</geoidheight><course>162.6</course><type>1</type></trkpt>
      <trkpt lat="40.2460644" lon="-4.90243144"><ele>1424</ele><speed>5.05</speed><time>2017-04-09T12:17:01Z</time><pdop>4.0</pdop><geoidheight>0.00</geoidheight><course>145.9</course><type>1</type></trkpt>
      <trkpt lat="40.24602173" lon="-4.90233488"><ele>1421</ele><speed>5.16</speed><time>2017-04-09T12:17:03Z</time><pdop>4.0</pdop><geoidheight>0.00</geoidheight><course>143.3</course><type>1</type></trkpt>
      <trkpt lat="40.24591429" lon="-4.90227672"><ele>1413</ele><speed>7.16</speed><time>2017-04-09T12:17:05Z</time><pdop>4.0</pdop><geoidheight>0.00</geoidheight><course>157.7</course><type>1</type></trkpt>
      <trkpt lat="40.2457612" lon="-4.9022641"><ele>1408</ele><speed>9.70</speed><time>2017-04-09T12:17:07Z</time><pdop>4.0</pdop><geoidheight>0.00</geoidheight><course>189.3</course><type>1</type></trkpt>
      <trkpt lat="40.24566734" lon="-4.90230057"><ele>1406</ele><speed>11.06</speed><time>2017-04-09T12:17:08Z</time><pdop>4.0</pdop><geoidheight>0.00</geoidheight><course>203.2</course><type>1</type></trkpt>
      <trkpt lat="40.24558182" lon="-4.90235941"><ele>1404</ele><speed>11.19</speed><time>2017-04-09T12:17:09Z</time><pdop>4.0</pdop><geoidheight>0.00</geoidheight><course>211.8</course><type>1</type></trkpt>
      <trkpt lat="40.24550307" lon="-4.9024297"><ele>1404</ele><speed>10.75</speed><time>2017-04-09T12:17:10Z</time><pdop>4.0</pdop><geoidheight>0.00</geoidheight><course>213.8</course><type>1</type></trkpt>
      <trkpt lat="40.24543031" lon="-4.90250364"><ele>1403</ele><speed>10.81</speed><time>2017-04-09T12:17:11Z</time><pdop>4.0</pdop><geoidheight>0.00</geoidheight><course>220.6</course><type>1</type></trkpt>
      <trkpt lat="40.24536248" lon="-4.90260057"><ele>1401</ele><speed>11.31</speed><time>2017-04-09T12:17:12Z</time><pdop>4.0</pdop><geoidheight>0.00</geoidheight><course>225.6</course><type>1</type></trkpt>
      <trkpt lat="40.24528698" lon="-4.90271125"><ele>1401</ele><speed>12.56</speed><time>2017-04-09T12:17:13Z</time><pdop>4.0</pdop><geoidheight>0.00</geoidheight><course>226.6</course><type>1</type></trkpt>
      <trkpt lat="40.2451979" lon="-4.90287125"><ele>1399</ele><speed>15.88</speed><time>2017-04-09T12:17:14Z</time><pdop>4.0</pdop><geoidheight>0.00</geoidheight><course>232.3</course><type>1</type></trkpt>
      <trkpt lat="40.24510593" lon="-4.9030158"><ele>1398</ele><speed>15.80</speed><time>2017-04-09T12:17:15Z</time><pdop>4.0</pdop><geoidheight>0.00</geoidheight><course>231.2</course><type>1</type></trkpt>
      <trkpt lat="40.24500168" lon="-4.90316321"><ele>1398</ele><speed>16.06</speed><time>2017-04-09T12:17:16Z</time><pdop>4.0</pdop><geoidheight>0.00</geoidheight><course>227.3</course><type>1</type></trkpt>
      <trkpt lat="40.24490161" lon="-4.90330376"><ele>1398</ele><speed>16.65</speed><time>2017-04-09T12:17:17Z</time><pdop>4.0</pdop><geoidheight>0.00</geoidheight><course>227.5</course><type>1</type></trkpt>
      <trkpt lat="40.24482184" lon="-4.9034553"><ele>1400</ele><speed>15.13</speed><time>2017-04-09T12:17:18Z</time><pdop>3.0</pdop><geoidheight>0.00</geoidheight><course>229.8</course><type>1</type></trkpt>
      <trkpt lat="40.24474358" lon="-4.90358805"><ele>1403</ele><speed>12.42</speed><time>2017-04-09T12:17:19Z</time><pdop>3.0</pdop><geoidheight>0.00</geoidheight><course>236.6</course><type>1</type></trkpt>
      <trkpt lat="40.24469224" lon="-4.90369733"><ele>1405</ele><speed>10.67</speed><time>2017-04-09T12:17:20Z</time><pdop>3.0</pdop><geoidheight>0.00</geoidheight><course>238.7</course><type>1</type></trkpt>
      <trkpt lat="40.24464262" lon="-4.90380208"><ele>1406</ele><speed>10.41</speed><time>2017-04-09T12:17:21Z</time><pdop>4.0</pdop><geoidheight>0.00</geoidheight><course>233.9</course><type>1</type></trkpt>
      <trkpt lat="40.24457826" lon="-4.90389184"><ele>1405</ele><speed>11.08</speed><time>2017-04-09T12:17:22Z</time><pdop>4.0</pdop><geoidheight>0.00</geoidheight><course>222.5</course><type>1</type></trkpt>
      <trkpt lat="40.24448726" lon="-4.90398337"><ele>1404</ele><speed>12.69</speed><time>2017-04-09T12:17:23Z</time><pdop>4.0</pdop><geoidheight>0.00</geoidheight><course>215.9</course><type>1</type></trkpt>
      <trkpt lat="40.24437251" lon="-4.90406037"><ele>1403</ele><speed>14.43</speed><time>2017-04-09T12:17:24Z</time><pdop>4.0</pdop><geoidheight>0.00</geoidheight><course>213.7</course><type>1</type></trkpt>
      <trkpt lat="40.24427709" lon="-4.90415889"><ele>1402</ele><speed>14.10</speed><time>2017-04-09T12:17:25Z</time><pdop>4.0</pdop><geoidheight>0.00</geoidheight><course>213.4</course><type>1</type></trkpt>
      <trkpt lat="40.24417376" lon="-4.90424717"><ele>1402</ele><speed>13.50</speed><time>2017-04-09T12:17:26Z</time><pdop>4.0</pdop><geoidheight>0.00</geoidheight><course>213.1</course><type>1</type></trkpt>
      <trkpt lat="40.24408028" lon="-4.90434095"><ele>1402</ele><speed>12.63</speed><time>2017-04-09T12:17:27Z</time><pdop>4.0</pdop><geoidheight>0.00</geoidheight><course>213.5</course><type>1</type></trkpt>
      <trkpt lat="40.2439836" lon="-4.90443119"><ele>1403</ele><speed>12.40</speed><time>2017-04-09T12:17:28Z</time><pdop>4.0</pdop><geoidheight>0.00</geoidheight><course>213.9</course><type>1</type></trkpt>
      <trkpt lat="40.24389712" lon="-4.90453127"><ele>1401</ele><speed>12.84</speed><time>2017-04-09T12:17:29Z</time><pdop>4.0</pdop><geoidheight>0.00</geoidheight><course>222.8</course><type>1</type></trkpt>
      <trkpt lat="40.24382179" lon="-4.90462241"><ele>1401</ele><speed>12.35</speed><time>2017-04-09T12:17:30Z</time><pdop>4.0</pdop><geoidheight>0.00</geoidheight><course>219.7</course><type>1</type></trkpt>
      <trkpt lat="40.24372929" lon="-4.90472311"><ele>1400</ele><speed>12.23</speed><time>2017-04-09T12:17:31Z</time><pdop>5.0</pdop><geoidheight>0.00</geoidheight><course>219.0</course><type>1</type></trkpt>
      <trkpt lat="40.24365047" lon="-4.90481398"><ele>1400</ele><speed>11.99</speed><time>2017-04-09T12:17:32Z</time><pdop>5.0</pdop><geoidheight>0.00</geoidheight><course>218.2</course><type>1</type></trkpt>
      <trkpt lat="40.24356469" lon="-4.90489687"><ele>1400</ele><speed>12.13</speed><time>2017-04-09T12:17:33Z</time><pdop>5.0</pdop><geoidheight>0.00</geoidheight><course>212.8</course><type>1</type></trkpt>
      <trkpt lat="40.24347688" lon="-4.90500499"><ele>1399</ele><speed>13.96</speed><time>2017-04-09T12:17:34Z</time><pdop>5.0</pdop><geoidheight>0.00</geoidheight><course>220.5</course><type>1</type></trkpt>
      <trkpt lat="40.24337025" lon="-4.90513358"><ele>1397</ele><speed>14.87</speed><time>2017-04-09T12:17:35Z</time><pdop>4.0</pdop><geoidheight>0.00</geoidheight><course>219.5</course><type>1</type></trkpt>
      <trkpt lat="40.24327466" lon="-4.90525442"><ele>1393</ele><speed>13.66</speed><time>2017-04-09T12:17:36Z</time><pdop>4.0</pdop><geoidheight>0.00</geoidheight><course>217.8</course><type>1</type></trkpt>
      <trkpt lat="40.24317541" lon="-4.90535524"><ele>1392</ele><speed>12.59</speed><time>2017-04-09T12:17:37Z</time><pdop>4.0</pdop><geoidheight>0.00</geoidheight><course>215.1</course><type>1</type></trkpt>
      <trkpt lat="40.24308135" lon="-4.90543025"><ele>1391</ele><speed>12.22</speed><time>2017-04-09T12:17:38Z</time><pdop>4.0</pdop><geoidheight>0.00</geoidheight><course>207.3</course><type>1</type></trkpt>
      <trkpt lat="40.24298541" lon="-4.90550506"><ele>1390</ele><speed>13.47</speed><time>2017-04-09T12:17:39Z</time><pdop>4.0</pdop><geoidheight>0.00</geoidheight><course>210.6</course><type>1</type></trkpt>
      <trkpt lat="40.24287562" lon="-4.90560781"><ele>1387</ele><speed>15.30</speed><time>2017-04-09T12:17:40Z</time><pdop>4.0</pdop><geoidheight>0.00</geoidheight><course>214.8</course><type>1</type></trkpt>
      <trkpt lat="40.24275805" lon="-4.90572492"><ele>1383</ele><speed>15.41</speed><time>2017-04-09T12:17:41Z</time><pdop>4.0</pdop><geoidheight>0.00</geoidheight><course>216.5</course><type>1</type></trkpt>
      <trkpt lat="40.24265819" lon="-4.90579746"><ele>1382</ele><speed>13.62</speed><time>2017-04-09T12:17:42Z</time><pdop>4.0</pdop><geoidheight>0.00</geoidheight><course>215.0</course><type>1</type></trkpt>
      <trkpt lat="40.24258392" lon="-4.90588244"><ele>1380</ele><speed>11.44</speed><time>2017-04-09T12:17:43Z</time><pdop>4.0</pdop><geoidheight>0.00</geoidheight><course>213.6</course><type>1</type></trkpt>
      <trkpt lat="40.24249615" lon="-4.90595282"><ele>1379</ele><speed>10.85</speed><time>2017-04-09T12:17:44Z</time><pdop>4.0</pdop><geoidheight>0.00</geoidheight><course>211.8</course><type>1</type></trkpt>
      <trkpt lat="40.24240667" lon="-4.90602012"><ele>1379</ele><speed>11.55</speed><time>2017-04-09T12:17:45Z</time><pdop>5.0</pdop><geoidheight>0.00</geoidheight><course>210.7</course><type>1</type></trkpt>
      <trkpt lat="40.24230735" lon="-4.90611203"><ele>1378</ele><speed>13.61</speed><time>2017-04-09T12:17:46Z</time><pdop>5.0</pdop><geoidheight>0.00</geoidheight><course>215.1</course><type>1</type></trkpt>
      <trkpt lat="40.24219943" lon="-4.90619577"><ele>1378</ele><speed>14.41</speed><time>2017-04-09T12:17:47Z</time><pdop>5.0</pdop><geoidheight>0.00</geoidheight><course>217.1</course><type>1</type></trkpt>
      <trkpt lat="40.24208924" lon="-4.90630696"><ele>1378</ele><speed>13.91</speed><time>2017-04-09T12:17:48Z</time><pdop>4.0</pdop><geoidheight>0.00</geoidheight><course>220.7</course><type>1</type></trkpt>
      <trkpt lat="40.24199215" lon="-4.90642424"><ele>1378</ele><speed>12.71</speed><time>2017-04-09T12:17:49Z</time><pdop>4.0</pdop><geoidheight>0.00</geoidheight><course>223.6</course><type>1</type></trkpt>
      <trkpt lat="40.2419196" lon="-4.90652179"><ele>1379</ele><speed>11.34</speed><time>2017-04-09T12:17:50Z</time><pdop>4.0</pdop><geoidheight>0.00</geoidheight><course>225.7</course><type>1</type></trkpt>
      <trkpt lat="40.24186197" lon="-4.90661814"><ele>1379</ele><speed>10.82</speed><time>2017-04-09T12:17:51Z</time><pdop>4.0</pdop><geoidheight>0.00</geoidheight><course>228.1</course><type>1</type></trkpt>
      <trkpt lat="40.24178893" lon="-4.90671808"><ele>1379</ele><speed>11.62</speed><time>2017-04-09T12:17:52Z</time><pdop>4.0</pdop><geoidheight>0.00</geoidheight><course>229.6</course><type>1</type></trkpt>
      <trkpt lat="40.24171251" lon="-4.90684531"><ele>1376</ele><speed>14.10</speed><time>2017-04-09T12:17:53Z</time><pdop>4.0</pdop><geoidheight>0.00</geoidheight><course>228.7</course><type>1</type></trkpt>
      <trkpt lat="40.24161588" lon="-4.90699053"><ele>1376</ele><speed>17.17</speed><time>2017-04-09T12:17:54Z</time><pdop>3.0</pdop><geoidheight>0.00</geoidheight><course>228.6</course><type>1</type></trkpt>
      <trkpt lat="40.24153055" lon="-4.90714705"><ele>1375</ele><speed>16.62</speed><time>2017-04-09T12:17:55Z</time><pdop>3.0</pdop><geoidheight>0.00</geoidheight><course>232.0</course><type>1</type></trkpt>
      <trkpt lat="40.24143438" lon="-4.90730615"><ele>1377</ele><speed>15.58</speed><time>2017-04-09T12:17:56Z</time><pdop>3.0</pdop><geoidheight>0.00</geoidheight><course>245.2</course><type>1</type></trkpt>
      <trkpt lat="40.24136979" lon="-4.90745589"><ele>1378</ele><speed>15.68</speed><time>2017-04-09T12:17:57Z</time><pdop>3.0</pdop><geoidheight>0.00</geoidheight><course>240.0</course><type>1</type></trkpt>
      <trkpt lat="40.24130111" lon="-4.90761458"><ele>1379</ele><speed>15.54</speed><time>2017-04-09T12:17:58Z</time><pdop>3.0</pdop><geoidheight>0.00</geoidheight><course>240.9</course><type>1</type></trkpt>
      <trkpt lat="40.24122741" lon="-4.90777786"><ele>1379</ele><speed>15.52</speed><time>2017-04-09T12:17:59Z</time><pdop>3.0</pdop><geoidheight>0.00</geoidheight><course>238.3</course><type>1</type></trkpt>
      <trkpt lat="40.24115699" lon="-4.90793765"><ele>1377</ele><speed>15.24</speed><time>2017-04-09T12:18:00Z</time><pdop>3.0</pdop><geoidheight>0.00</geoidheight><course>236.5</course><type>1</type></trkpt>
      <trkpt lat="40.24108083" lon="-4.90808305"><ele>1377</ele><speed>14.99</speed><time>2017-04-09T12:18:01Z</time><pdop>3.0</pdop><geoidheight>0.00</geoidheight><course>232.3</course><type>1</type></trkpt>
      <trkpt lat="40.24100297" lon="-4.90820935"><ele>1375</ele><speed>13.87</speed><time>2017-04-09T12:18:02Z</time><pdop>3.0</pdop><geoidheight>0.00</geoidheight><course>230.1</course><type>1</type></trkpt>
      <trkpt lat="40.24092665" lon="-4.90832544"><ele>1372</ele><speed>12.18</speed><time>2017-04-09T12:18:03Z</time><pdop>3.0</pdop><geoidheight>0.00</geoidheight><course>227.0</course><type>1</type></trkpt>
      <trkpt lat="40.24084149" lon="-4.90841769"><ele>1367</ele><speed>11.04</speed><time>2017-04-09T12:18:04Z</time><pdop>3.0</pdop><geoidheight>0.00</geoidheight><course>223.4</course><type>1</type></trkpt>
      <trkpt lat="40.24076474" lon="-4.90850663"><ele>1364</ele><speed>11.48</speed><time>2017-04-09T12:18:05Z</time><pdop>3.0</pdop><geoidheight>0.00</geoidheight><course>217.7</course><type>1</type></trkpt>
      <trkpt lat="40.24067332" lon="-4.90859341"><ele>1360</ele><speed>12.68</speed><time>2017-04-09T12:18:06Z</time><pdop>3.0</pdop><geoidheight>0.00</geoidheight><course>211.7</course><type>1</type></trkpt>
      <trkpt lat="40.24056908" lon="-4.90867572"><ele>1355</ele><speed>13.42</speed><time>2017-04-09T12:18:07Z</time><pdop>4.0</pdop><geoidheight>0.00</geoidheight><course>211.5</course><type>1</type></trkpt>
      <trkpt lat="40.24045435" lon="-4.90878724"><ele>1356</ele><speed>15.69</speed><time>2017-04-09T12:18:08Z</time><pdop>5.0</pdop><geoidheight>0.00</geoidheight><course>214.8</course><type>1</type></trkpt>
      <trkpt lat="40.24034406" lon="-4.90890549"><ele>1355</ele><speed>14.68</speed><time>2017-04-09T12:18:09Z</time><pdop>4.0</pdop><geoidheight>0.00</geoidheight><course>217.3</course><type>1</type></trkpt>
      <trkpt lat="40.24023561" lon="-4.90900793"><ele>1351</ele><speed>12.87</speed><time>2017-04-09T12:18:10Z</time><pdop>4.0</pdop><geoidheight>0.00</geoidheight><course>214.6</course><type>1</type></trkpt>
      <trkpt lat="40.24016204" lon="-4.90909518"><ele>1350</ele><speed>12.02</speed><time>2017-04-09T12:18:11Z</time><pdop>4.0</pdop><geoidheight>0.00</geoidheight><course>213.2</course><type>1</type></trkpt>
      <trkpt lat="40.24006629" lon="-4.90917371"><ele>1347</ele><speed>12.23</speed><time>2017-04-09T12:18:12Z</time><pdop>4.0</pdop><geoidheight>0.00</geoidheight><course>211.2</course><type>1</type></trkpt>
      <trkpt lat="40.23997235" lon="-4.90926033"><ele>1344</ele><speed>13.48</speed><time>2017-04-09T12:18:13Z</time><pdop>4.0</pdop><geoidheight>0.00</geoidheight><course>215.9</course><type>1</type></trkpt>
      <trkpt lat="40.2398641" lon="-4.90936583"><ele>1341</ele><speed>14.43</speed><time>2017-04-09T12:18:14Z</time><pdop>4.0</pdop><geoidheight>0.00</geoidheight><course>216.6</course><type>1</type></trkpt>
      <trkpt lat="40.2397562" lon="-4.90943614"><ele>1336</ele><speed>14.55</speed><time>2017-04-09T12:18:15Z</time><pdop>4.0</pdop><geoidheight>0.00</geoidheight><course>216.3</course><type>1</type></trkpt>
      <trkpt lat="40.23964537" lon="-4.90954199"><ele>1335</ele><speed>13.56</speed><time>2017-04-09T12:18:16Z</time><pdop>4.0</pdop><geoidheight>0.00</geoidheight><course>215.0</course><type>1</type></trkpt>
      <trkpt lat="40.2395647" lon="-4.90964042"><ele>1334</ele><speed>12.46</speed><time>2017-04-09T12:18:17Z</time><pdop>4.0</pdop><geoidheight>0.00</geoidheight><course>215.7</course><type>1</type></trkpt>
      <trkpt lat="40.23948306" lon="-4.90972248"><ele>1332</ele><speed>11.63</speed><time>2017-04-09T12:18:18Z</time><pdop>4.0</pdop><geoidheight>0.00</geoidheight><course>217.4</course><type>1</type></trkpt>
      <trkpt lat="40.23940319" lon="-4.90980828"><ele>1329</ele><speed>11.50</speed><time>2017-04-09T12:18:19Z</time><pdop>4.0</pdop><geoidheight>0.00</geoidheight><course>220.7</course><type>1</type></trkpt>
      <trkpt lat="40.23932323" lon="-4.90990778"><ele>1328</ele><speed>12.05</speed><time>2017-04-09T12:18:20Z</time><pdop>4.0</pdop><geoidheight>0.00</geoidheight><course>223.5</course><type>1</type></trkpt>
      <trkpt lat="40.23924253" lon="-4.91000706"><ele>1327</ele><speed>12.60</speed><time>2017-04-09T12:18:21Z</time><pdop>4.0</pdop><geoidheight>0.00</geoidheight><course>223.4</course><type>1</type></trkpt>
      <trkpt lat="40.2391553" lon="-4.91012386"><ele>1325</ele><speed>13.62</speed><time>2017-04-09T12:18:22Z</time><pdop>4.0</pdop><geoidheight>0.00</geoidheight><course>223.4</course><type>1</type></trkpt>
      <trkpt lat="40.23863904" lon="-4.9108543"><ele>1317</ele><speed>14.84</speed><time>2017-04-09T12:18:28Z</time><pdop>4.0</pdop><geoidheight>0.00</geoidheight><course>228.2</course><type>1</type></trkpt>
      <trkpt lat="40.23854762" lon="-4.91099101"><ele>1316</ele><speed>15.00</speed><time>2017-04-09T12:18:29Z</time><pdop>4.0</pdop><geoidheight>0.00</geoidheight><course>229.6</course><type>1</type></trkpt>
      <trkpt lat="40.23847157" lon="-4.91111785"><ele>1313</ele><speed>13.88</speed><time>2017-04-09T12:18:30Z</time><pdop>3.0</pdop><geoidheight>0.00</geoidheight><course>230.4</course><type>1</type></trkpt>
      <trkpt lat="40.23838925" lon="-4.91124671"><ele>1313</ele><speed>13.19</speed><time>2017-04-09T12:18:31Z</time><pdop>3.0</pdop><geoidheight>0.00</geoidheight><course>233.3</course><type>1</type></trkpt>
      <trkpt lat="40.23831868" lon="-4.91139008"><ele>1309</ele><speed>13.61</speed><time>2017-04-09T12:18:32Z</time><pdop>3.0</pdop><geoidheight>0.00</geoidheight><course>236.3</course><type>1</type></trkpt>
      <trkpt lat="40.23824224" lon="-4.91153044"><ele>1307</ele><speed>14.77</speed><time>2017-04-09T12:18:33Z</time><pdop>3.0</pdop><geoidheight>0.00</geoidheight><course>236.7</course><type>1</type></trkpt>
      <trkpt lat="40.23814897" lon="-4.91168504"><ele>1305</ele><speed>16.12</speed><time>2017-04-09T12:18:34Z</time><pdop>3.0</pdop><geoidheight>0.00</geoidheight><course>233.3</course><type>1</type></trkpt>
      <trkpt lat="40.238058" lon="-4.9118409"><ele>1304</ele><speed>16.85</speed><time>2017-04-09T12:18:35Z</time><pdop>3.0</pdop><geoidheight>0.00</geoidheight><course>235.2</course><type>1</type></trkpt>
      <trkpt lat="40.23797518" lon="-4.91199808"><ele>1304</ele><speed>15.24</speed><time>2017-04-09T12:18:36Z</time><pdop>3.0</pdop><geoidheight>0.00</geoidheight><course>234.9</course><type>1</type></trkpt>
      <trkpt lat="40.23790137" lon="-4.91214347"><ele>1304</ele><speed>13.03</speed><time>2017-04-09T12:18:37Z</time><pdop>3.0</pdop><geoidheight>0.00</geoidheight><course>235.5</course><type>1</type></trkpt>
      <trkpt lat="40.23783171" lon="-4.91227368"><ele>1305</ele><speed>12.16</speed><time>2017-04-09T12:18:38Z</time><pdop>3.0</pdop><geoidheight>0.00</geoidheight><course>233.3</course><type>1</type></trkpt>
      <trkpt lat="40.23776505" lon="-4.91239928"><ele>1304</ele><speed>13.32</speed><time>2017-04-09T12:18:39Z</time><pdop>3.0</pdop><geoidheight>0.00</geoidheight><course>232.3</course><type>1</type></trkpt>
      <trkpt lat="40.23768106" lon="-4.91253633"><ele>1303</ele><speed>14.83</speed><time>2017-04-09T12:18:40Z</time><pdop>3.0</pdop><geoidheight>0.00</geoidheight><course>230.9</course><type>1</type></trkpt>
      <trkpt lat="40.23759483" lon="-4.9126668"><ele>1301</ele><speed>15.37</speed><time>2017-04-09T12:18:41Z</time><pdop>4.0</pdop><geoidheight>0.00</geoidheight><course>231.2</course><type>1</type></trkpt>
      <trkpt lat="40.23750643" lon="-4.91279969"><ele>1303</ele><speed>14.46</speed><time>2017-04-09T12:18:42Z</time><pdop>3.0</pdop><geoidheight>0.00</geoidheight><course>232.0</course><type>1</type></trkpt>
      <trkpt lat="40.23743433" lon="-4.91292193"><ele>1304</ele><speed>13.16</speed><time>2017-04-09T12:18:43Z</time><pdop>3.0</pdop><geoidheight>0.00</geoidheight><course>232.1</course><type>1</type></trkpt>
      <trkpt lat="40.23736193" lon="-4.91303477"><ele>1304</ele><speed>12.47</speed><time>2017-04-09T12:18:44Z</time><pdop>3.0</pdop><geoidheight>0.00</geoidheight><course>230.5</course><type>1</type></trkpt>
      <trkpt lat="40.23728858" lon="-4.9131523"><ele>1303</ele><speed>12.79</speed><time>2017-04-09T12:18:45Z</time><pdop>3.0</pdop><geoidheight>0.00</geoidheight><course>229.7</course><type>1</type></trkpt>
      <trkpt lat="40.23720961" lon="-4.91326611"><ele>1303</ele><speed>13.22</speed><time>2017-04-09T12:18:46Z</time><pdop>3.0</pdop><geoidheight>0.00</geoidheight><course>226.6</course><type>1</type></trkpt>
      <trkpt lat="40.23713019" lon="-4.91338864"><ele>1302</ele><speed>13.95</speed><time>2017-04-09T12:18:47Z</time><pdop>3.0</pdop><geoidheight>0.00</geoidheight><course>227.9</course><type>1</type></trkpt>
      <trkpt lat="40.23705245" lon="-4.91351203"><ele>1301</ele><speed>14.34</speed><time>2017-04-09T12:18:48Z</time><pdop>3.0</pdop><geoidheight>0.00</geoidheight><course>227.7</course><type>1</type></trkpt>
      <trkpt lat="40.2369668" lon="-4.91364246"><ele>1301</ele><speed>14.70</speed><time>2017-04-09T12:18:49Z</time><pdop>3.0</pdop><geoidheight>0.00</geoidheight><course>229.5</course><type>1</type></trkpt>
      <trkpt lat="40.23687809" lon="-4.91376166"><ele>1300</ele><speed>14.41</speed><time>2017-04-09T12:18:50Z</time><pdop>3.0</pdop><geoidheight>0.00</geoidheight><course>230.8</course><type>1</type></trkpt>
      <trkpt lat="40.23679902" lon="-4.91389955"><ele>1300</ele><speed>14.19</speed><time>2017-04-09T12:18:51Z</time><pdop>3.0</pdop><geoidheight>0.00</geoidheight><course>231.9</course><type>1</type></trkpt>
      <trkpt lat="40.23672463" lon="-4.91402502"><ele>1300</ele><speed>14.03</speed><time>2017-04-09T12:18:52Z</time><pdop>3.0</pdop><geoidheight>0.00</geoidheight><course>233.0</course><type>1</type></trkpt>
      <trkpt lat="40.23664734" lon="-4.91414534"><ele>1299</ele><speed>13.76</speed><time>2017-04-09T12:18:53Z</time><pdop>3.0</pdop><geoidheight>0.00</geoidheight><course>234.2</course><type>1</type></trkpt>
      <trkpt lat="40.23657133" lon="-4.91428287"><ele>1298</ele><speed>13.74</speed><time>2017-04-09T12:18:54Z</time><pdop>3.0</pdop><geoidheight>0.00</geoidheight><course>237.0</course><type>1</type></trkpt>
      <trkpt lat="40.23650474" lon="-4.91442379"><ele>1298</ele><speed>14.00</speed><time>2017-04-09T12:18:55Z</time><pdop>3.0</pdop><geoidheight>0.00</geoidheight><course>238.7</course><type>1</type></trkpt>
      <trkpt lat="40.23643599" lon="-4.9145648"><ele>1298</ele><speed>14.44</speed><time>2017-04-09T12:18:56Z</time><pdop>3.0</pdop><geoidheight>0.00</geoidheight><course>240.3</course><type>1</type></trkpt>
      <trkpt lat="40.23637679" lon="-4.91473083"><ele>1294</ele><speed>14.78</speed><time>2017-04-09T12:18:57Z</time><pdop>3.0</pdop><geoidheight>0.00</geoidheight><course>242.0</course><type>1</type></trkpt>
      <trkpt lat="40.23631463" lon="-4.91489503"><ele>1294</ele><speed>15.11</speed><time>2017-04-09T12:18:58Z</time><pdop>3.0</pdop><geoidheight>0.00</geoidheight><course>242.3</course><type>1</type></trkpt>
      <trkpt lat="40.23625518" lon="-4.91505931"><ele>1292</ele><speed>15.02</speed><time>2017-04-09T12:18:59Z</time><pdop>3.0</pdop><geoidheight>0.00</geoidheight><course>241.8</course><type>1</type></trkpt>
      <trkpt lat="40.23617854" lon="-4.9152199"><ele>1291</ele><speed>14.75</speed><time>2017-04-09T12:19:00Z</time><pdop>3.0</pdop><geoidheight>0.00</geoidheight><course>238.3</course><type>1</type></trkpt>
      <trkpt lat="40.23581872" lon="-4.91595415"><ele>1289</ele><speed>15.01</speed><time>2017-04-09T12:19:05Z</time><pdop>3.0</pdop><geoidheight>0.00</geoidheight><course>239.3</course><type>1</type></trkpt>
      <trkpt lat="40.2357525" lon="-4.91610799"><ele>1288</ele><speed>15.14</speed><time>2017-04-09T12:19:06Z</time><pdop>3.0</pdop><geoidheight>0.00</geoidheight><course>240.0</course><type>1</type></trkpt>
      <trkpt lat="40.23568887" lon="-4.91626464"><ele>1289</ele><speed>15.49</speed><time>2017-04-09T12:19:07Z</time><pdop>3.0</pdop><geoidheight>0.00</geoidheight><course>242.3</course><type>1</type></trkpt>
      <trkpt lat="40.23562096" lon="-4.91641983"><ele>1289</ele><speed>15.84</speed><time>2017-04-09T12:19:08Z</time><pdop>3.0</pdop><geoidheight>0.00</geoidheight><course>238.2</course><type>1</type></trkpt>
      <trkpt lat="40.23554808" lon="-4.91657029"><ele>1290</ele><speed>15.65</speed><time>2017-04-09T12:19:09Z</time><pdop>3.0</pdop><geoidheight>0.00</geoidheight><course>234.5</course><type>1</type></trkpt>
      <trkpt lat="40.23547132" lon="-4.91671178"><ele>1290</ele><speed>14.50</speed><time>2017-04-09T12:19:10Z</time><pdop>3.0</pdop><geoidheight>0.00</geoidheight><course>233.6</course><type>1</type></trkpt>
      <trkpt lat="40.23539401" lon="-4.91684897"><ele>1290</ele><speed>14.52</speed><time>2017-04-09T12:19:11Z</time><pdop>3.0</pdop><geoidheight>0.00</geoidheight><course>234.6</course><type>1</type></trkpt>
      <trkpt lat="40.23531416" lon="-4.91699637"><ele>1289</ele><speed>15.49</speed><time>2017-04-09T12:19:12Z</time><pdop>3.0</pdop><geoidheight>0.00</geoidheight><course>233.8</course><type>1</type></trkpt>
      <trkpt lat="40.23523226" lon="-4.91714192"><ele>1288</ele><speed>16.22</speed><time>2017-04-09T12:19:13Z</time><pdop>3.0</pdop><geoidheight>0.00</geoidheight><course>233.5</course><type>1</type></trkpt>
      <trkpt lat="40.23514971" lon="-4.91729926"><ele>1288</ele><speed>16.26</speed><time>2017-04-09T12:19:14Z</time><pdop>3.0</pdop><geoidheight>0.00</geoidheight><course>233.6</course><type>1</type></trkpt>
      <trkpt lat="40.23506375" lon="-4.91742502"><ele>1287</ele><speed>15.63</speed><time>2017-04-09T12:19:15Z</time><pdop>3.0</pdop><geoidheight>0.00</geoidheight><course>232.1</course><type>1</type></trkpt>
      <trkpt lat="40.23497968" lon="-4.91756827"><ele>1287</ele><speed>15.30</speed><time>2017-04-09T12:19:16Z</time><pdop>3.0</pdop><geoidheight>0.00</geoidheight><course>234.0</course><type>1</type></trkpt>
      <trkpt lat="40.23489634" lon="-4.91771386"><ele>1286</ele><speed>16.14</speed><time>2017-04-09T12:19:17Z</time><pdop>3.0</pdop><geoidheight>0.00</geoidheight><course>233.6</course><type>1</type></trkpt>
      <trkpt lat="40.2348009" lon="-4.91788023"><ele>1285</ele><speed>16.52</speed><time>2017-04-09T12:19:18Z</time><pdop>3.0</pdop><geoidheight>0.00</geoidheight><course>232.1</course><type>1</type></trkpt>
      <trkpt lat="40.23471797" lon="-4.91803824"><ele>1283</ele><speed>16.40</speed><time>2017-04-09T12:19:19Z</time><pdop>3.0</pdop><geoidheight>0.00</geoidheight><course>230.3</course><type>1</type></trkpt>
      <trkpt lat="40.23462869" lon="-4.91818518"><ele>1280</ele><speed>15.89</speed><time>2017-04-09T12:19:20Z</time><pdop>3.0</pdop><geoidheight>0.00</geoidheight><course>229.6</course><type>1</type></trkpt>
      <trkpt lat="40.23453516" lon="-4.91832808"><ele>1280</ele><speed>15.59</speed><time>2017-04-09T12:19:21Z</time><pdop>3.0</pdop><geoidheight>0.00</geoidheight><course>228.9</course><type>1</type></trkpt>
      <trkpt lat="40.23443303" lon="-4.91847337"><ele>1279</ele><speed>16.15</speed><time>2017-04-09T12:19:22Z</time><pdop>3.0</pdop><geoidheight>0.00</geoidheight><course>228.2</course><type>1</type></trkpt>
      <trkpt lat="40.23434363" lon="-4.91862158"><ele>1278</ele><speed>16.41</speed><time>2017-04-09T12:19:23Z</time><pdop>3.0</pdop><geoidheight>0.00</geoidheight><course>230.1</course><type>1</type></trkpt>
      <trkpt lat="40.2342488" lon="-4.91877206"><ele>1278</ele><speed>16.59</speed><time>2017-04-09T12:19:24Z</time><pdop>3.0</pdop><geoidheight>0.00</geoidheight><course>230.1</course><type>1</type></trkpt>
      <trkpt lat="40.23415763" lon="-4.91892077"><ele>1278</ele><speed>16.18</speed><time>2017-04-09T12:19:25Z</time><pdop>4.0</pdop><geoidheight>0.00</geoidheight><course>230.3</course><type>1</type></trkpt>
      <trkpt lat="40.23407024" lon="-4.91906499"><ele>1275</ele><speed>14.66</speed><time>2017-04-09T12:19:26Z</time><pdop>4.0</pdop><geoidheight>0.00</geoidheight><course>230.6</course><type>1</type></trkpt>
      <trkpt lat="40.2339799" lon="-4.91918661"><ele>1274</ele><speed>13.45</speed><time>2017-04-09T12:19:27Z</time><pdop>3.0</pdop><geoidheight>0.00</geoidheight><course>227.6</course><type>1</type></trkpt>
      <trkpt lat="40.23379673" lon="-4.91941081"><ele>1266</ele><speed>14.49</speed><time>2017-04-09T12:19:29Z</time><pdop>3.0</pdop><geoidheight>0.00</geoidheight><course>220.0</course><type>1</type></trkpt>
      <trkpt lat="40.23368722" lon="-4.91952787"><ele>1261</ele><speed>16.06</speed><time>2017-04-09T12:19:30Z</time><pdop>3.0</pdop><geoidheight>0.00</geoidheight><course>222.4</course><type>1</type></trkpt>
      <trkpt lat="40.23357542" lon="-4.91965748"><ele>1259</ele><speed>16.47</speed><time>2017-04-09T12:19:31Z</time><pdop>3.0</pdop><geoidheight>0.00</geoidheight><course>224.6</course><type>1</type></trkpt>
      <trkpt lat="40.2334603" lon="-4.9197813"><ele>1259</ele><speed>15.72</speed><time>2017-04-09T12:19:32Z</time><pdop>3.0</pdop><geoidheight>0.00</geoidheight><course>221.8</course><type>1</type></trkpt>
      <trkpt lat="40.23335936" lon="-4.91989005"><ele>1259</ele><speed>14.03</speed><time>2017-04-09T12:19:33Z</time><pdop>3.0</pdop><geoidheight>0.00</geoidheight><course>220.8</course><type>1</type></trkpt>
      <trkpt lat="40.23327083" lon="-4.9200002"><ele>1258</ele><speed>13.78</speed><time>2017-04-09T12:19:34Z</time><pdop>3.0</pdop><geoidheight>0.00</geoidheight><course>222.8</course><type>1</type></trkpt>
      <trkpt lat="40.23318372" lon="-4.92012412"><ele>1257</ele><speed>14.59</speed><time>2017-04-09T12:19:35Z</time><pdop>3.0</pdop><geoidheight>0.00</geoidheight><course>227.2</course><type>1</type></trkpt>
      <trkpt lat="40.23309225" lon="-4.92025745"><ele>1256</ele><speed>15.66</speed><time>2017-04-09T12:19:36Z</time><pdop>4.0</pdop><geoidheight>0.00</geoidheight><course>228.3</course><type>1</type></trkpt>
      <trkpt lat="40.23299643" lon="-4.92037602"><ele>1253</ele><speed>15.46</speed><time>2017-04-09T12:19:37Z</time><pdop>3.0</pdop><geoidheight>0.00</geoidheight><course>223.9</course><type>1</type></trkpt>
      <trkpt lat="40.23288639" lon="-4.92051145"><ele>1252</ele><speed>15.78</speed><time>2017-04-09T12:19:38Z</time><pdop>3.0</pdop><geoidheight>0.00</geoidheight><course>223.7</course><type>1</type></trkpt>
      <trkpt lat="40.23277921" lon="-4.92063624"><ele>1251</ele><speed>16.52</speed><time>2017-04-09T12:19:39Z</time><pdop>3.0</pdop><geoidheight>0.00</geoidheight><course>224.2</course><type>1</type></trkpt>
      <trkpt lat="40.23267403" lon="-4.92076163"><ele>1251</ele><speed>15.84</speed><time>2017-04-09T12:19:40Z</time><pdop>3.0</pdop><geoidheight>0.00</geoidheight><course>224.6</course><type>1</type></trkpt>
      <trkpt lat="40.23257639" lon="-4.92089988"><ele>1249</ele><speed>15.31</speed><time>2017-04-09T12:19:41Z</time><pdop>3.0</pdop><geoidheight>0.00</geoidheight><course>226.4</course><type>1</type></trkpt>
      <trkpt lat="40.23249012" lon="-4.92102605"><ele>1248</ele><speed>14.70</speed><time>2017-04-09T12:19:42Z</time><pdop>3.0</pdop><geoidheight>0.00</geoidheight><course>228.8</course><type>1</type></trkpt>
      <trkpt lat="40.23239673" lon="-4.92115774"><ele>1248</ele><speed>14.48</speed><time>2017-04-09T12:19:43Z</time><pdop>3.0</pdop><geoidheight>0.00</geoidheight><course>226.6</course><type>1</type></trkpt>
      <trkpt lat="40.23230615" lon="-4.9212696"><ele>1246</ele><speed>14.87</speed><time>2017-04-09T12:19:44Z</time><pdop>3.0</pdop><geoidheight>0.00</geoidheight><course>224.0</course><type>1</type></trkpt>
      <trkpt lat="40.23220352" lon="-4.921398"><ele>1244</ele><speed>16.02</speed><time>2017-04-09T12:19:45Z</time><pdop>3.0</pdop><geoidheight>0.00</geoidheight><course>222.9</course><type>1</type></trkpt>
      <trkpt lat="40.23210194" lon="-4.92154721"><ele>1244</ele><speed>16.70</speed><time>2017-04-09T12:19:46Z</time><pdop>3.0</pdop><geoidheight>0.00</geoidheight><course>225.7</course><type>1</type></trkpt>
      <trkpt lat="40.23199473" lon="-4.92168592"><ele>1241</ele><speed>16.47</speed><time>2017-04-09T12:19:47Z</time><pdop>3.0</pdop><geoidheight>0.00</geoidheight><course>226.2</course><type>1</type></trkpt>
      <trkpt lat="40.23190235" lon="-4.92182712"><ele>1241</ele><speed>15.92</speed><time>2017-04-09T12:19:48Z</time><pdop>3.0</pdop><geoidheight>0.00</geoidheight><course>225.6</course><type>1</type></trkpt>
      <trkpt lat="40.23179932" lon="-4.92196133"><ele>1241</ele><speed>16.07</speed><time>2017-04-09T12:19:49Z</time><pdop>3.0</pdop><geoidheight>0.00</geoidheight><course>225.0</course><type>1</type></trkpt>
      <trkpt lat="40.23169243" lon="-4.92209562"><ele>1241</ele><speed>16.91</speed><time>2017-04-09T12:19:50Z</time><pdop>4.0</pdop><geoidheight>0.00</geoidheight><course>224.4</course><type>1</type></trkpt>
      <trkpt lat="40.23158277" lon="-4.92223125"><ele>1240</ele><speed>17.27</speed><time>2017-04-09T12:19:51Z</time><pdop>4.0</pdop><geoidheight>0.00</geoidheight><course>222.6</course><type>1</type></trkpt>
      <trkpt lat="40.23145755" lon="-4.92236531"><ele>1238</ele><speed>17.15</speed><time>2017-04-09T12:19:52Z</time><pdop>4.0</pdop><geoidheight>0.00</geoidheight><course>217.5</course><type>1</type></trkpt>
      <trkpt lat="40.23133566" lon="-4.92248796"><ele>1237</ele><speed>17.16</speed><time>2017-04-09T12:19:53Z</time><pdop>4.0</pdop><geoidheight>0.00</geoidheight><course>216.1</course><type>1</type></trkpt>
      <trkpt lat="40.23120583" lon="-4.92261165"><ele>1235</ele><speed>16.70</speed><time>2017-04-09T12:19:54Z</time><pdop>4.0</pdop><geoidheight>0.00</geoidheight><course>215.8</course><type>1</type></trkpt>
      <trkpt lat="40.23110078" lon="-4.92270411"><ele>1231</ele><speed>16.24</speed><time>2017-04-09T12:19:55Z</time><pdop>4.0</pdop><geoidheight>0.00</geoidheight><course>218.2</course><type>1</type></trkpt>
      <trkpt lat="40.23098543" lon="-4.92280939"><ele>1231</ele><speed>15.91</speed><time>2017-04-09T12:19:56Z</time><pdop>4.0</pdop><geoidheight>0.00</geoidheight><course>217.3</course><type>1</type></trkpt>
      <trkpt lat="40.23087449" lon="-4.92291125"><ele>1229</ele><speed>15.60</speed><time>2017-04-09T12:19:57Z</time><pdop>4.0</pdop><geoidheight>0.00</geoidheight><course>215.2</course><type>1</type></trkpt>
      <trkpt lat="40.23075862" lon="-4.92300682"><ele>1227</ele><speed>15.36</speed><time>2017-04-09T12:19:58Z</time><pdop>4.0</pdop><geoidheight>0.00</geoidheight><course>211.5</course><type>1</type></trkpt>
      <trkpt lat="40.23063494" lon="-4.92311242"><ele>1226</ele><speed>16.21</speed><time>2017-04-09T12:19:59Z</time><pdop>4.0</pdop><geoidheight>0.00</geoidheight><course>213.4</course><type>1</type></trkpt>
      <trkpt lat="40.23051132" lon="-4.92318959"><ele>1222</ele><speed>15.52</speed><time>2017-04-09T12:20:00Z</time><pdop>4.0</pdop><geoidheight>0.00</geoidheight><course>209.4</course><type>1</type></trkpt>
      <trkpt lat="40.2303871" lon="-4.92327286"><ele>1221</ele><speed>15.31</speed><time>2017-04-09T12:20:01Z</time><pdop>4.0</pdop><geoidheight>0.00</geoidheight><course>208.2</course><type>1</type></trkpt>
      <trkpt lat="40.23026381" lon="-4.92334586"><ele>1220</ele><speed>14.92</speed><time>2017-04-09T12:20:02Z</time><pdop>4.0</pdop><geoidheight>0.00</geoidheight><course>203.6</course><type>1</type></trkpt>
      <trkpt lat="40.23014901" lon="-4.92341938"><ele>1218</ele><speed>15.09</speed><time>2017-04-09T12:20:03Z</time><pdop>4.0</pdop><geoidheight>0.00</geoidheight><course>207.6</course><type>1</type></trkpt>
      <trkpt lat="40.23002652" lon="-4.92351177"><ele>1215</ele><speed>14.87</speed><time>2017-04-09T12:20:04Z</time><pdop>4.0</pdop><geoidheight>0.00</geoidheight><course>207.0</course><type>1</type></trkpt>
      <trkpt lat="40.22989944" lon="-4.92358315"><ele>1214</ele><speed>14.64</speed><time>2017-04-09T12:20:05Z</time><pdop>4.0</pdop><geoidheight>0.00</geoidheight><course>206.1</course><type>1</type></trkpt>
      <trkpt lat="40.22977885" lon="-4.92365262"><ele>1213</ele><speed>14.74</speed><time>2017-04-09T12:20:06Z</time><pdop>4.0</pdop><geoidheight>0.00</geoidheight><course>202.5</course><type>1</type></trkpt>
      <trkpt lat="40.229666" lon="-4.92373198"><ele>1212</ele><speed>14.07</speed><time>2017-04-09T12:20:07Z</time><pdop>4.0</pdop><geoidheight>0.00</geoidheight><course>205.6</course><type>1</type></trkpt>
      <trkpt lat="40.22954934" lon="-4.92379683"><ele>1211</ele><speed>14.37</speed><time>2017-04-09T12:20:08Z</time><pdop>4.0</pdop><geoidheight>0.00</geoidheight><course>203.2</course><type>1</type></trkpt>
      <trkpt lat="40.2294322" lon="-4.92387912"><ele>1208</ele><speed>14.45</speed><time>2017-04-09T12:20:09Z</time><pdop>4.0</pdop><geoidheight>0.00</geoidheight><course>204.3</course><type>1</type></trkpt>
      <trkpt lat="40.22931251" lon="-4.92394992"><ele>1207</ele><speed>14.76</speed><time>2017-04-09T12:20:10Z</time><pdop>4.0</pdop><geoidheight>0.00</geoidheight><course>205.8</course><type>1</type></trkpt>
      <trkpt lat="40.22918677" lon="-4.92402152"><ele>1206</ele><speed>14.95</speed><time>2017-04-09T12:20:11Z</time><pdop>4.0</pdop><geoidheight>0.00</geoidheight><course>207.0</course><type>1</type></trkpt>
      <trkpt lat="40.2290645" lon="-4.92410071"><ele>1205</ele><speed>15.01</speed><time>2017-04-09T12:20:12Z</time><pdop>4.0</pdop><geoidheight>0.00</geoidheight><course>208.1</course><type>1</type></trkpt>
      <trkpt lat="40.22893997" lon="-4.92419453"><ele>1202</ele><speed>15.02</speed><time>2017-04-09T12:20:13Z</time><pdop>4.0</pdop><geoidheight>0.00</geoidheight><course>207.6</course><type>1</type></trkpt>
      <trkpt lat="40.22882064" lon="-4.92427828"><ele>1201</ele><speed>15.25</speed><time>2017-04-09T12:20:14Z</time><pdop>3.0</pdop><geoidheight>0.00</geoidheight><course>209.0</course><type>1</type></trkpt>
      <trkpt lat="40.22869587" lon="-4.92436295"><ele>1198</ele><speed>15.46</speed><time>2017-04-09T12:20:15Z</time><pdop>3.0</pdop><geoidheight>0.00</geoidheight><course>210.0</course><type>1</type></trkpt>
      <trkpt lat="40.22858173" lon="-4.9244509"><ele>1198</ele><speed>15.04</speed><time>2017-04-09T12:20:16Z</time><pdop>3.0</pdop><geoidheight>0.00</geoidheight><course>212.2</course><type>1</type></trkpt>
      <trkpt lat="40.22846484" lon="-4.92455175"><ele>1198</ele><speed>14.07</speed><time>2017-04-09T12:20:17Z</time><pdop>3.0</pdop><geoidheight>0.00</geoidheight><course>214.0</course><type>1</type></trkpt>
      <trkpt lat="40.228376" lon="-4.92464967"><ele>1196</ele><speed>13.12</speed><time>2017-04-09T12:20:18Z</time><pdop>3.0</pdop><geoidheight>0.00</geoidheight><course>213.8</course><type>1</type></trkpt>
      <trkpt lat="40.22827639" lon="-4.92472314"><ele>1195</ele><speed>12.49</speed><time>2017-04-09T12:20:19Z</time><pdop>4.0</pdop><geoidheight>0.00</geoidheight><course>209.2</course><type>1</type></trkpt>
      <trkpt lat="40.2281755" lon="-4.92477859"><ele>1193</ele><speed>11.90</speed><time>2017-04-09T12:20:20Z</time><pdop>4.0</pdop><geoidheight>0.00</geoidheight><course>205.5</course><type>1</type></trkpt>
      <trkpt lat="40.22807417" lon="-4.92483141"><ele>1191</ele><speed>12.01</speed><time>2017-04-09T12:20:21Z</time><pdop>4.0</pdop><geoidheight>0.00</geoidheight><course>202.5</course><type>1</type></trkpt>
      <trkpt lat="40.22797279" lon="-4.92488777"><ele>1188</ele><speed>12.19</speed><time>2017-04-09T12:20:22Z</time><pdop>4.0</pdop><geoidheight>0.00</geoidheight><course>203.8</course><type>1</type></trkpt>
      <trkpt lat="40.22786392" lon="-4.92496238"><ele>1186</ele><speed>12.84</speed><time>2017-04-09T12:20:23Z</time><pdop>4.0</pdop><geoidheight>0.00</geoidheight><course>207.9</course><type>1</type></trkpt>
      <trkpt lat="40.22776079" lon="-4.92503824"><ele>1185</ele><speed>13.32</speed><time>2017-04-09T12:20:24Z</time><pdop>4.0</pdop><geoidheight>0.00</geoidheight><course>211.1</course><type>1</type></trkpt>
      <trkpt lat="40.22765977" lon="-4.92511634"><ele>1183</ele><speed>13.15</speed><time>2017-04-09T12:20:25Z</time><pdop>4.0</pdop><geoidheight>0.00</geoidheight><course>210.2</course><type>1</type></trkpt>
      <trkpt lat="40.22755874" lon="-4.92517698"><ele>1181</ele><speed>12.39</speed><time>2017-04-09T12:20:26Z</time><pdop>4.0</pdop><geoidheight>0.00</geoidheight><course>207.1</course><type>1</type></trkpt>
      <trkpt lat="40.22746163" lon="-4.92524877"><ele>1180</ele><speed>12.30</speed><time>2017-04-09T12:20:27Z</time><pdop>4.0</pdop><geoidheight>0.00</geoidheight><course>211.3</course><type>1</type></trkpt>
      <trkpt lat="40.22726221" lon="-4.92541834"><ele>1179</ele><speed>14.41</speed><time>2017-04-09T12:20:29Z</time><pdop>4.0</pdop><geoidheight>0.00</geoidheight><course>216.2</course><type>1</type></trkpt>
      <trkpt lat="40.22715892" lon="-4.92550177"><ele>1178</ele><speed>14.72</speed><time>2017-04-09T12:20:30Z</time><pdop>4.0</pdop><geoidheight>0.00</geoidheight><course>215.2</course><type>1</type></trkpt>
      <trkpt lat="40.2270633" lon="-4.92558705"><ele>1176</ele><speed>13.40</speed><time>2017-04-09T12:20:31Z</time><pdop>4.0</pdop><geoidheight>0.00</geoidheight><course>212.0</course><type>1</type></trkpt>
      <trkpt lat="40.22695808" lon="-4.92566407"><ele>1175</ele><speed>12.37</speed><time>2017-04-09T12:20:32Z</time><pdop>4.0</pdop><geoidheight>0.00</geoidheight><course>210.6</course><type>1</type></trkpt>
      <trkpt lat="40.22686368" lon="-4.92574469"><ele>1174</ele><speed>12.34</speed><time>2017-04-09T12:20:33Z</time><pdop>4.0</pdop><geoidheight>0.00</geoidheight><course>213.4</course><type>1</type></trkpt>
      <trkpt lat="40.22677295" lon="-4.92583244"><ele>1174</ele><speed>13.32</speed><time>2017-04-09T12:20:34Z</time><pdop>4.0</pdop><geoidheight>0.00</geoidheight><course>219.6</course><type>1</type></trkpt>
      <trkpt lat="40.226687" lon="-4.92591873"><ele>1170</ele><speed>13.52</speed><time>2017-04-09T12:20:35Z</time><pdop>3.0</pdop><geoidheight>0.00</geoidheight><course>218.8</course><type>1</type></trkpt>
      <trkpt lat="40.22659006" lon="-4.92602253"><ele>1169</ele><speed>13.60</speed><time>2017-04-09T12:20:36Z</time><pdop>3.0</pdop><geoidheight>0.00</geoidheight><course>216.7</course><type>1</type></trkpt>
      <trkpt lat="40.22649349" lon="-4.92612409"><ele>1168</ele><speed>13.68</speed><time>2017-04-09T12:20:37Z</time><pdop>3.0</pdop><geoidheight>0.00</geoidheight><course>217.9</course><type>1</type></trkpt>
      <trkpt lat="40.22638556" lon="-4.92620511"><ele>1166</ele><speed>13.87</speed><time>2017-04-09T12:20:38Z</time><pdop>3.0</pdop><geoidheight>0.00</geoidheight><course>214.2</course><type>1</type></trkpt>
      <trkpt lat="40.22628541" lon="-4.92630588"><ele>1165</ele><speed>14.68</speed><time>2017-04-09T12:20:39Z</time><pdop>3.0</pdop><geoidheight>0.00</geoidheight><course>218.2</course><type>1</type></trkpt>
      <trkpt lat="40.22617807" lon="-4.9264231"><ele>1165</ele><speed>15.47</speed><time>2017-04-09T12:20:40Z</time><pdop>3.0</pdop><geoidheight>0.00</geoidheight><course>219.7</course><type>1</type></trkpt>
      <trkpt lat="40.22607156" lon="-4.92652267"><ele>1163</ele><speed>15.53</speed><time>2017-04-09T12:20:41Z</time><pdop>3.0</pdop><geoidheight>0.00</geoidheight><course>218.0</course><type>1</type></trkpt>
      <trkpt lat="40.22597535" lon="-4.92664717"><ele>1159</ele><speed>15.19</speed><time>2017-04-09T12:20:42Z</time><pdop>3.0</pdop><geoidheight>0.00</geoidheight><course>217.0</course><type>1</type></trkpt>
      <trkpt lat="40.22586799" lon="-4.92675177"><ele>1158</ele><speed>14.84</speed><time>2017-04-09T12:20:43Z</time><pdop>4.0</pdop><geoidheight>0.00</geoidheight><course>217.7</course><type>1</type></trkpt>
      <trkpt lat="40.22577417" lon="-4.92688809"><ele>1156</ele><speed>14.73</speed><time>2017-04-09T12:20:44Z</time><pdop>4.0</pdop><geoidheight>0.00</geoidheight><course>219.5</course><type>1</type></trkpt>
      <trkpt lat="40.22567534" lon="-4.9270025"><ele>1155</ele><speed>14.68</speed><time>2017-04-09T12:20:45Z</time><pdop>4.0</pdop><geoidheight>0.00</geoidheight><course>219.9</course><type>1</type></trkpt>
      <trkpt lat="40.22557604" lon="-4.92710052"><ele>1151</ele><speed>14.74</speed><time>2017-04-09T12:20:46Z</time><pdop>3.0</pdop><geoidheight>0.00</geoidheight><course>218.1</course><type>1</type></trkpt>
      <trkpt lat="40.22547276" lon="-4.92720336"><ele>1148</ele><speed>15.04</speed><time>2017-04-09T12:20:47Z</time><pdop>4.0</pdop><geoidheight>0.00</geoidheight><course>213.5</course><type>1</type></trkpt>
      <trkpt lat="40.22535641" lon="-4.92730625"><ele>1145</ele><speed>15.55</speed><time>2017-04-09T12:20:48Z</time><pdop>4.0</pdop><geoidheight>0.00</geoidheight><course>211.4</course><type>1</type></trkpt>
      <trkpt lat="40.22523428" lon="-4.92740811"><ele>1143</ele><speed>15.88</speed><time>2017-04-09T12:20:49Z</time><pdop>4.0</pdop><geoidheight>0.00</geoidheight><course>213.6</course><type>1</type></trkpt>
      <trkpt lat="40.22511609" lon="-4.92752577"><ele>1141</ele><speed>16.49</speed><time>2017-04-09T12:20:50Z</time><pdop>4.0</pdop><geoidheight>0.00</geoidheight><course>218.2</course><type>1</type></trkpt>
      <trkpt lat="40.22500168" lon="-4.92764636"><ele>1139</ele><speed>16.26</speed><time>2017-04-09T12:20:51Z</time><pdop>4.0</pdop><geoidheight>0.00</geoidheight><course>220.0</course><type>1</type></trkpt>
      <trkpt lat="40.22489081" lon="-4.92775361"><ele>1139</ele><speed>15.61</speed><time>2017-04-09T12:20:52Z</time><pdop>4.0</pdop><geoidheight>0.00</geoidheight><course>220.2</course><type>1</type></trkpt>
      <trkpt lat="40.22478926" lon="-4.92787226"><ele>1139</ele><speed>14.97</speed><time>2017-04-09T12:20:53Z</time><pdop>4.0</pdop><geoidheight>0.00</geoidheight><course>223.9</course><type>1</type></trkpt>
      <trkpt lat="40.22468951" lon="-4.92799584"><ele>1139</ele><speed>14.92</speed><time>2017-04-09T12:20:54Z</time><pdop>4.0</pdop><geoidheight>0.00</geoidheight><course>225.6</course><type>1</type></trkpt>
      <trkpt lat="40.22460766" lon="-4.92812867"><ele>1138</ele><speed>15.12</speed><time>2017-04-09T12:20:55Z</time><pdop>4.0</pdop><geoidheight>0.00</geoidheight><course>232.6</course><type>1</type></trkpt>
      <trkpt lat="40.22452706" lon="-4.92827789"><ele>1136</ele><speed>15.73</speed><time>2017-04-09T12:20:56Z</time><pdop>4.0</pdop><geoidheight>0.00</geoidheight><course>238.8</course><type>1</type></trkpt>
      <trkpt lat="40.22445503" lon="-4.92844296"><ele>1135</ele><speed>16.33</speed><time>2017-04-09T12:20:57Z</time><pdop>4.0</pdop><geoidheight>0.00</geoidheight><course>241.4</course><type>1</type></trkpt>
      <trkpt lat="40.22437987" lon="-4.92861901"><ele>1134</ele><speed>17.04</speed><time>2017-04-09T12:20:58Z</time><pdop>4.0</pdop><geoidheight>0.00</geoidheight><course>242.2</course><type>1</type></trkpt>
      <trkpt lat="40.2242958" lon="-4.92879045"><ele>1133</ele><speed>17.44</speed><time>2017-04-09T12:20:59Z</time><pdop>4.0</pdop><geoidheight>0.00</geoidheight><course>238.3</course><type>1</type></trkpt>
      <trkpt lat="40.22421781" lon="-4.92896673"><ele>1133</ele><speed>17.31</speed><time>2017-04-09T12:21:00Z</time><pdop>4.0</pdop><geoidheight>0.00</geoidheight><course>242.0</course><type>1</type></trkpt>
      <trkpt lat="40.22415477" lon="-4.92914918"><ele>1132</ele><speed>16.50</speed><time>2017-04-09T12:21:01Z</time><pdop>4.0</pdop><geoidheight>0.00</geoidheight><course>245.9</course><type>1</type></trkpt>
      <trkpt lat="40.22409463" lon="-4.92931442"><ele>1130</ele><speed>16.52</speed><time>2017-04-09T12:21:02Z</time><pdop>4.0</pdop><geoidheight>0.00</geoidheight><course>249.4</course><type>1</type></trkpt>
      <trkpt lat="40.22404339" lon="-4.92949242"><ele>1130</ele><speed>16.91</speed><time>2017-04-09T12:21:03Z</time><pdop>4.0</pdop><geoidheight>0.00</geoidheight><course>251.4</course><type>1</type></trkpt>
      <trkpt lat="40.22398666" lon="-4.92969133"><ele>1128</ele><speed>17.79</speed><time>2017-04-09T12:21:04Z</time><pdop>4.0</pdop><geoidheight>0.00</geoidheight><course>248.4</course><type>1</type></trkpt>
      <trkpt lat="40.22390764" lon="-4.929887"><ele>1127</ele><speed>17.93</speed><time>2017-04-09T12:21:05Z</time><pdop>3.0</pdop><geoidheight>0.00</geoidheight><course>248.6</course><type>1</type></trkpt>
      <trkpt lat="40.22383767" lon="-4.93004504"><ele>1124</ele><speed>17.51</speed><time>2017-04-09T12:21:06Z</time><pdop>3.0</pdop><geoidheight>0.00</geoidheight><course>247.8</course><type>1</type></trkpt>
      <trkpt lat="40.22377441" lon="-4.93023156"><ele>1123</ele><speed>16.90</speed><time>2017-04-09T12:21:07Z</time><pdop>3.0</pdop><geoidheight>0.00</geoidheight><course>247.7</course><type>1</type></trkpt>
      <trkpt lat="40.2237209" lon="-4.93041787"><ele>1122</ele><speed>16.62</speed><time>2017-04-09T12:21:08Z</time><pdop>3.0</pdop><geoidheight>0.00</geoidheight><course>249.4</course><type>1</type></trkpt>
      <trkpt lat="40.22366793" lon="-4.93060615"><ele>1120</ele><speed>16.53</speed><time>2017-04-09T12:21:09Z</time><pdop>3.0</pdop><geoidheight>0.00</geoidheight><course>252.7</course><type>1</type></trkpt>
      <trkpt lat="40.22362408" lon="-4.93079581"><ele>1120</ele><speed>16.73</speed><time>2017-04-09T12:21:10Z</time><pdop>3.0</pdop><geoidheight>0.00</geoidheight><course>252.6</course><type>1</type></trkpt>
      <trkpt lat="40.22357923" lon="-4.93097241"><ele>1118</ele><speed>15.94</speed><time>2017-04-09T12:21:11Z</time><pdop>3.0</pdop><geoidheight>0.00</geoidheight><course>253.0</course><type>1</type></trkpt>
      <trkpt lat="40.22353977" lon="-4.93118053"><ele>1115</ele><speed>16.81</speed><time>2017-04-09T12:21:12Z</time><pdop>3.0</pdop><geoidheight>0.00</geoidheight><course>251.5</course><type>1</type></trkpt>
      <trkpt lat="40.22348542" lon="-4.93137008"><ele>1114</ele><speed>16.99</speed><time>2017-04-09T12:21:13Z</time><pdop>3.0</pdop><geoidheight>0.00</geoidheight><course>250.3</course><type>1</type></trkpt>
      <trkpt lat="40.22343499" lon="-4.93157183"><ele>1113</ele><speed>17.85</speed><time>2017-04-09T12:21:14Z</time><pdop>3.0</pdop><geoidheight>0.00</geoidheight><course>253.5</course><type>1</type></trkpt>
      <trkpt lat="40.22340586" lon="-4.93177058"><ele>1111</ele><speed>17.45</speed><time>2017-04-09T12:21:15Z</time><pdop>3.0</pdop><geoidheight>0.00</geoidheight><course>255.2</course><type>1</type></trkpt>
      <trkpt lat="40.22336586" lon="-4.93196403"><ele>1109</ele><speed>17.16</speed><time>2017-04-09T12:21:16Z</time><pdop>4.0</pdop><geoidheight>0.00</geoidheight><course>252.5</course><type>1</type></trkpt>
      <trkpt lat="40.22331812" lon="-4.93214742"><ele>1108</ele><speed>16.89</speed><time>2017-04-09T12:21:17Z</time><pdop>3.0</pdop><geoidheight>0.00</geoidheight><course>249.3</course><type>1</type></trkpt>
      <trkpt lat="40.22326644" lon="-4.93232765"><ele>1108</ele><speed>16.49</speed><time>2017-04-09T12:21:18Z</time><pdop>4.0</pdop><geoidheight>0.00</geoidheight><course>248.9</course><type>1</type></trkpt>
      <trkpt lat="40.22321534" lon="-4.93251284"><ele>1107</ele><speed>15.94</speed><time>2017-04-09T12:21:19Z</time><pdop>4.0</pdop><geoidheight>0.00</geoidheight><course>252.5</course><type>1</type></trkpt>
      <trkpt lat="40.22317937" lon="-4.932689"><ele>1105</ele><speed>15.91</speed><time>2017-04-09T12:21:20Z</time><pdop>3.0</pdop><geoidheight>0.00</geoidheight><course>256.4</course><type>1</type></trkpt>
      <trkpt lat="40.22313791" lon="-4.93286999"><ele>1103</ele><speed>15.82</speed><time>2017-04-09T12:21:21Z</time><pdop>3.0</pdop><geoidheight>0.00</geoidheight><course>256.0</course><type>1</type></trkpt>
      <trkpt lat="40.22311047" lon="-4.93305519"><ele>1102</ele><speed>16.59</speed><time>2017-04-09T12:21:22Z</time><pdop>3.0</pdop><geoidheight>0.00</geoidheight><course>257.6</course><type>1</type></trkpt>
      <trkpt lat="40.22307714" lon="-4.93325705"><ele>1099</ele><speed>17.16</speed><time>2017-04-09T12:21:23Z</time><pdop>3.0</pdop><geoidheight>0.00</geoidheight><course>257.3</course><type>1</type></trkpt>
      <trkpt lat="40.22304384" lon="-4.93345054"><ele>1097</ele><speed>16.97</speed><time>2017-04-09T12:21:24Z</time><pdop>3.0</pdop><geoidheight>0.00</geoidheight><course>256.9</course><type>1</type></trkpt>
      <trkpt lat="40.22301667" lon="-4.93364282"><ele>1096</ele><speed>16.44</speed><time>2017-04-09T12:21:25Z</time><pdop>3.0</pdop><geoidheight>0.00</geoidheight><course>259.4</course><type>1</type></trkpt>
      <trkpt lat="40.22298139" lon="-4.93383515"><ele>1095</ele><speed>16.12</speed><time>2017-04-09T12:21:26Z</time><pdop>3.0</pdop><geoidheight>0.00</geoidheight><course>259.4</course><type>1</type></trkpt>
      <trkpt lat="40.2229626" lon="-4.93400445"><ele>1095</ele><speed>15.81</speed><time>2017-04-09T12:21:27Z</time><pdop>3.0</pdop><geoidheight>0.00</geoidheight><course>259.8</course><type>1</type></trkpt>
      <trkpt lat="40.22294538" lon="-4.93419611"><ele>1094</ele><speed>15.34</speed><time>2017-04-09T12:21:28Z</time><pdop>3.0</pdop><geoidheight>0.00</geoidheight><course>259.9</course><type>1</type></trkpt>
      <trkpt lat="40.22292316" lon="-4.9343738"><ele>1093</ele><speed>15.31</speed><time>2017-04-09T12:21:29Z</time><pdop>3.0</pdop><geoidheight>0.00</geoidheight><course>264.4</course><type>1</type></trkpt>
      <trkpt lat="40.22291477" lon="-4.93453957"><ele>1092</ele><speed>15.13</speed><time>2017-04-09T12:21:30Z</time><pdop>3.0</pdop><geoidheight>0.00</geoidheight><course>264.3</course><type>1</type></trkpt>
      <trkpt lat="40.2228748" lon="-4.93469199"><ele>1088</ele><speed>14.37</speed><time>2017-04-09T12:21:31Z</time><pdop>3.0</pdop><geoidheight>0.00</geoidheight><course>260.7</course><type>1</type></trkpt>
      <trkpt lat="40.22285394" lon="-4.93486052"><ele>1086</ele><speed>14.61</speed><time>2017-04-09T12:21:32Z</time><pdop>3.0</pdop><geoidheight>0.00</geoidheight><course>258.9</course><type>1</type></trkpt>
      <trkpt lat="40.22281635" lon="-4.93503206"><ele>1083</ele><speed>15.34</speed><time>2017-04-09T12:21:33Z</time><pdop>4.0</pdop><geoidheight>0.00</geoidheight><course>254.8</course><type>1</type></trkpt>
      <trkpt lat="40.22278077" lon="-4.93521648"><ele>1079</ele><speed>16.17</speed><time>2017-04-09T12:21:34Z</time><pdop>4.0</pdop><geoidheight>0.00</geoidheight><course>251.3</course><type>1</type></trkpt>
      <trkpt lat="40.22273018" lon="-4.93539968"><ele>1077</ele><speed>16.50</speed><time>2017-04-09T12:21:35Z</time><pdop>4.0</pdop><geoidheight>0.00</geoidheight><course>248.9</course><type>1</type></trkpt>
      <trkpt lat="40.22267695" lon="-4.93560234"><ele>1075</ele><speed>17.08</speed><time>2017-04-09T12:21:36Z</time><pdop>3.0</pdop><geoidheight>0.00</geoidheight><course>249.6</course><type>1</type></trkpt>
      <trkpt lat="40.22261167" lon="-4.93578293"><ele>1071</ele><speed>16.74</speed><time>2017-04-09T12:21:37Z</time><pdop>3.0</pdop><geoidheight>0.00</geoidheight><course>250.7</course><type>1</type></trkpt>
      <trkpt lat="40.2225677" lon="-4.93597479"><ele>1070</ele><speed>15.78</speed><time>2017-04-09T12:21:38Z</time><pdop>3.0</pdop><geoidheight>0.00</geoidheight><course>251.8</course><type>1</type></trkpt>
      <trkpt lat="40.22251649" lon="-4.93614129"><ele>1069</ele><speed>15.07</speed><time>2017-04-09T12:21:39Z</time><pdop>3.0</pdop><geoidheight>0.00</geoidheight><course>253.4</course><type>1</type></trkpt>
      <trkpt lat="40.22247716" lon="-4.9363075"><ele>1068</ele><speed>14.88</speed><time>2017-04-09T12:21:40Z</time><pdop>3.0</pdop><geoidheight>0.00</geoidheight><course>254.3</course><type>1</type></trkpt>
      <trkpt lat="40.22244146" lon="-4.93648159"><ele>1067</ele><speed>15.95</speed><time>2017-04-09T12:21:41Z</time><pdop>3.0</pdop><geoidheight>0.00</geoidheight><course>254.7</course><type>1</type></trkpt>
      <trkpt lat="40.22240153" lon="-4.93666511"><ele>1066</ele><speed>15.89</speed><time>2017-04-09T12:21:42Z</time><pdop>3.0</pdop><geoidheight>0.00</geoidheight><course>254.5</course><type>1</type></trkpt>
      <trkpt lat="40.22237421" lon="-4.93683461"><ele>1066</ele><speed>14.66</speed><time>2017-04-09T12:21:43Z</time><pdop>3.0</pdop><geoidheight>0.00</geoidheight><course>256.8</course><type>1</type></trkpt>
      <trkpt lat="40.22224618" lon="-4.93768191"><ele>1080</ele><speed>10.77</speed><time>2017-04-09T12:21:49Z</time><pdop>3.0</pdop><geoidheight>0.00</geoidheight><course>255.4</course><type>1</type></trkpt>
      <trkpt lat="40.22221991" lon="-4.93780912"><ele>1080</ele><speed>11.00</speed><time>2017-04-09T12:21:50Z</time><pdop>3.0</pdop><geoidheight>0.00</geoidheight><course>254.9</course><type>1</type></trkpt>
      <trkpt lat="40.22219688" lon="-4.93794006"><ele>1081</ele><speed>11.43</speed><time>2017-04-09T12:21:51Z</time><pdop>3.0</pdop><geoidheight>0.00</geoidheight><course>257.6</course><type>1</type></trkpt>
      <trkpt lat="40.2221784" lon="-4.93807198"><ele>1082</ele><speed>11.37</speed><time>2017-04-09T12:21:52Z</time><pdop>4.0</pdop><geoidheight>0.00</geoidheight><course>265.3</course><type>1</type></trkpt>
      <trkpt lat="40.22213132" lon="-4.93824297"><ele>1085</ele><speed>12.66</speed><time>2017-04-09T12:21:53Z</time><pdop>3.0</pdop><geoidheight>0.00</geoidheight><course>253.5</course><type>1</type></trkpt>
      <trkpt lat="40.22208663" lon="-4.93837015"><ele>1087</ele><speed>11.61</speed><time>2017-04-09T12:21:54Z</time><pdop>4.0</pdop><geoidheight>0.00</geoidheight><course>242.7</course><type>1</type></trkpt>
      <trkpt lat="40.22203807" lon="-4.93848747"><ele>1089</ele><speed>11.62</speed><time>2017-04-09T12:21:55Z</time><pdop>4.0</pdop><geoidheight>0.00</geoidheight><course>239.0</course><type>1</type></trkpt>
      <trkpt lat="40.22198391" lon="-4.93861642"><ele>1092</ele><speed>12.14</speed><time>2017-04-09T12:21:56Z</time><pdop>4.0</pdop><geoidheight>0.00</geoidheight><course>242.0</course><type>1</type></trkpt>
      <trkpt lat="40.22194127" lon="-4.93872999"><ele>1093</ele><speed>12.01</speed><time>2017-04-09T12:21:57Z</time><pdop>4.0</pdop><geoidheight>0.00</geoidheight><course>245.8</course><type>1</type></trkpt>
      <trkpt lat="40.22189715" lon="-4.93886392"><ele>1095</ele><speed>12.14</speed><time>2017-04-09T12:21:58Z</time><pdop>4.0</pdop><geoidheight>0.00</geoidheight><course>246.3</course><type>1</type></trkpt>
      <trkpt lat="40.2218499" lon="-4.93899041"><ele>1097</ele><speed>11.45</speed><time>2017-04-09T12:21:59Z</time><pdop>4.0</pdop><geoidheight>0.00</geoidheight><course>245.1</course><type>1</type></trkpt>
      <trkpt lat="40.22179687" lon="-4.93910843"><ele>1099</ele><speed>12.16</speed><time>2017-04-09T12:22:00Z</time><pdop>4.0</pdop><geoidheight>0.00</geoidheight><course>239.3</course><type>1</type></trkpt>
      <trkpt lat="40.22174508" lon="-4.9392244"><ele>1103</ele><speed>12.24</speed><time>2017-04-09T12:22:01Z</time><pdop>4.0</pdop><geoidheight>0.00</geoidheight><course>233.5</course><type>1</type></trkpt>
      <trkpt lat="40.22168113" lon="-4.93932193"><ele>1105</ele><speed>11.52</speed><time>2017-04-09T12:22:02Z</time><pdop>4.0</pdop><geoidheight>0.00</geoidheight><course>225.3</course><type>1</type></trkpt>
      <trkpt lat="40.22161277" lon="-4.93938903"><ele>1105</ele><speed>10.60</speed><time>2017-04-09T12:22:03Z</time><pdop>4.0</pdop><geoidheight>0.00</geoidheight><course>211.8</course><type>1</type></trkpt>
      <trkpt lat="40.22151511" lon="-4.93943414"><ele>1106</ele><speed>10.90</speed><time>2017-04-09T12:22:04Z</time><pdop>4.0</pdop><geoidheight>0.00</geoidheight><course>198.5</course><type>1</type></trkpt>
      <trkpt lat="40.22141238" lon="-4.93945804"><ele>1107</ele><speed>10.97</speed><time>2017-04-09T12:22:05Z</time><pdop>4.0</pdop><geoidheight>0.00</geoidheight><course>184.7</course><type>1</type></trkpt>
      <trkpt lat="40.22110623" lon="-4.9391787"><ele>1106</ele><speed>6.89</speed><time>2017-04-09T12:22:10Z</time><pdop>4.0</pdop><geoidheight>0.00</geoidheight><course>123.9</course><type>1</type></trkpt>
      <trkpt lat="40.22105614" lon="-4.93903768"><ele>1105</ele><speed>6.56</speed><time>2017-04-09T12:22:12Z</time><pdop>3.0</pdop><geoidheight>0.00</geoidheight><course>105.2</course><type>1</type></trkpt>
      <trkpt lat="40.22105073" lon="-4.93895457"><ele>1105</ele><speed>7.57</speed><time>2017-04-09T12:22:13Z</time><pdop>3.0</pdop><geoidheight>0.00</geoidheight><course>88.7</course><type>1</type></trkpt>
      <trkpt lat="40.22105924" lon="-4.93886741"><ele>1105</ele><speed>7.92</speed><time>2017-04-09T12:22:14Z</time><pdop>3.0</pdop><geoidheight>0.00</geoidheight><course>77.2</course><type>1</type></trkpt>
      <trkpt lat="40.22107847" lon="-4.93879081"><ele>1107</ele><speed>6.92</speed><time>2017-04-09T12:22:15Z</time><pdop>3.0</pdop><geoidheight>0.00</geoidheight><course>69.4</course><type>1</type></trkpt>
      <trkpt lat="40.22109734" lon="-4.93872133"><ele>1109</ele><speed>6.13</speed><time>2017-04-09T12:22:16Z</time><pdop>3.0</pdop><geoidheight>0.00</geoidheight><course>63.2</course><type>1</type></trkpt>
      <trkpt lat="40.2211293" lon="-4.93866038"><ele>1110</ele><speed>5.97</speed><time>2017-04-09T12:22:17Z</time><pdop>3.0</pdop><geoidheight>0.00</geoidheight><course>62.1</course><type>1</type></trkpt>
      <trkpt lat="40.22115027" lon="-4.93859405"><ele>1110</ele><speed>6.31</speed><time>2017-04-09T12:22:18Z</time><pdop>3.0</pdop><geoidheight>0.00</geoidheight><course>69.1</course><type>1</type></trkpt>
      <trkpt lat="40.22119014" lon="-4.93844705"><ele>1111</ele><speed>6.09</speed><time>2017-04-09T12:22:20Z</time><pdop>4.0</pdop><geoidheight>0.00</geoidheight><course>73.0</course><type>1</type></trkpt>
      <trkpt lat="40.22122007" lon="-4.93829712"><ele>1114</ele><speed>5.91</speed><time>2017-04-09T12:22:22Z</time><pdop>4.0</pdop><geoidheight>0.00</geoidheight><course>73.3</course><type>1</type></trkpt>
      <trkpt lat="40.221257" lon="-4.93816516"><ele>1115</ele><speed>5.57</speed><time>2017-04-09T12:22:24Z</time><pdop>4.0</pdop><geoidheight>0.00</geoidheight><course>72.4</course><type>1</type></trkpt>
      <trkpt lat="40.22129462" lon="-4.93805794"><ele>1111</ele><speed>5.04</speed><time>2017-04-09T12:22:26Z</time><pdop>3.0</pdop><geoidheight>0.00</geoidheight><course>55.7</course><type>1</type></trkpt>
      <trkpt lat="40.22136418" lon="-4.93799393"><ele>1106</ele><speed>5.93</speed><time>2017-04-09T12:22:28Z</time><pdop>4.0</pdop><geoidheight>0.00</geoidheight><course>15.4</course><type>1</type></trkpt>
      <trkpt lat="40.22149369" lon="-4.93800044"><ele>1102</ele><speed>7.79</speed><time>2017-04-09T12:22:30Z</time><pdop>4.0</pdop><geoidheight>0.00</geoidheight><course>348.6</course><type>1</type></trkpt>
      <trkpt lat="40.22157613" lon="-4.93807067"><ele>1099</ele><speed>10.84</speed><time>2017-04-09T12:22:31Z</time><pdop>4.0</pdop><geoidheight>0.00</geoidheight><course>323.0</course><type>1</type></trkpt>
      <trkpt lat="40.22164696" lon="-4.93815837"><ele>1096</ele><speed>12.23</speed><time>2017-04-09T12:22:32Z</time><pdop>4.0</pdop><geoidheight>0.00</geoidheight><course>309.1</course><type>1</type></trkpt>
      <trkpt lat="40.2217135" lon="-4.93826997"><ele>1092</ele><speed>12.47</speed><time>2017-04-09T12:22:33Z</time><pdop>4.0</pdop><geoidheight>0.00</geoidheight><course>299.4</course><type>1</type></trkpt>
      <trkpt lat="40.22176617" lon="-4.93839808"><ele>1091</ele><speed>12.06</speed><time>2017-04-09T12:22:34Z</time><pdop>4.0</pdop><geoidheight>0.00</geoidheight><course>297.0</course><type>1</type></trkpt>
      <trkpt lat="40.22182017" lon="-4.93852407"><ele>1090</ele><speed>11.89</speed><time>2017-04-09T12:22:35Z</time><pdop>4.0</pdop><geoidheight>0.00</geoidheight><course>295.7</course><type>1</type></trkpt>
      <trkpt lat="40.22186761" lon="-4.93864937"><ele>1088</ele><speed>11.87</speed><time>2017-04-09T12:22:36Z</time><pdop>4.0</pdop><geoidheight>0.00</geoidheight><course>300.0</course><type>1</type></trkpt>
      <trkpt lat="40.2219058" lon="-4.93881527"><ele>1088</ele><speed>13.74</speed><time>2017-04-09T12:22:37Z</time><pdop>4.0</pdop><geoidheight>0.00</geoidheight><course>289.3</course><type>1</type></trkpt>
      <trkpt lat="40.22193131" lon="-4.93900202"><ele>1087</ele><speed>15.95</speed><time>2017-04-09T12:22:38Z</time><pdop>4.0</pdop><geoidheight>0.00</geoidheight><course>281.9</course><type>1</type></trkpt>
      <trkpt lat="40.22195382" lon="-4.93916473"><ele>1088</ele><speed>15.43</speed><time>2017-04-09T12:22:39Z</time><pdop>4.0</pdop><geoidheight>0.00</geoidheight><course>281.9</course><type>1</type></trkpt>
      <trkpt lat="40.22198243" lon="-4.93933386"><ele>1090</ele><speed>14.17</speed><time>2017-04-09T12:22:40Z</time><pdop>3.0</pdop><geoidheight>0.00</geoidheight><course>282.4</course><type>1</type></trkpt>
      <trkpt lat="40.2220136" lon="-4.9394737"><ele>1093</ele><speed>13.47</speed><time>2017-04-09T12:22:41Z</time><pdop>3.0</pdop><geoidheight>0.00</geoidheight><course>281.6</course><type>1</type></trkpt>
      <trkpt lat="40.2220368" lon="-4.93962901"><ele>1095</ele><speed>13.46</speed><time>2017-04-09T12:22:42Z</time><pdop>4.0</pdop><geoidheight>0.00</geoidheight><course>279.0</course><type>1</type></trkpt>
      <trkpt lat="40.2220407" lon="-4.93981595"><ele>1096</ele><speed>15.00</speed><time>2017-04-09T12:22:43Z</time><pdop>4.0</pdop><geoidheight>0.00</geoidheight><course>276.0</course><type>1</type></trkpt>
      <trkpt lat="40.22205111" lon="-4.93998712"><ele>1096</ele><speed>14.25</speed><time>2017-04-09T12:22:44Z</time><pdop>4.0</pdop><geoidheight>0.00</geoidheight><course>274.8</course><type>1</type></trkpt>
      <trkpt lat="40.2220661" lon="-4.94013229"><ele>1097</ele><speed>12.85</speed><time>2017-04-09T12:22:45Z</time><pdop>4.0</pdop><geoidheight>0.00</geoidheight><course>275.1</course><type>1</type></trkpt>
      <trkpt lat="40.22209045" lon="-4.94032982"><ele>1103</ele><speed>12.82</speed><time>2017-04-09T12:22:46Z</time><pdop>4.0</pdop><geoidheight>0.00</geoidheight><course>282.6</course><type>1</type></trkpt>
      <trkpt lat="40.22211186" lon="-4.94048918"><ele>1105</ele><speed>12.61</speed><time>2017-04-09T12:22:47Z</time><pdop>4.0</pdop><geoidheight>0.00</geoidheight><course>283.2</course><type>1</type></trkpt>
      <trkpt lat="40.22212154" lon="-4.94062029"><ele>1106</ele><speed>11.49</speed><time>2017-04-09T12:22:48Z</time><pdop>5.0</pdop><geoidheight>0.00</geoidheight><course>275.6</course><type>1</type></trkpt>
      <trkpt lat="40.22212717" lon="-4.94075403"><ele>1106</ele><speed>11.28</speed><time>2017-04-09T12:22:49Z</time><pdop>6.0</pdop><geoidheight>0.00</geoidheight><course>252.7</course><type>1</type></trkpt>
      <trkpt lat="40.22213714" lon="-4.94089767"><ele>1104</ele><speed>12.40</speed><time>2017-04-09T12:22:50Z</time><pdop>4.0</pdop><geoidheight>0.00</geoidheight><course>268.5</course><type>1</type></trkpt>
      <trkpt lat="40.22213493" lon="-4.94105517"><ele>1104</ele><speed>12.94</speed><time>2017-04-09T12:22:51Z</time><pdop>4.0</pdop><geoidheight>0.00</geoidheight><course>263.7</course><type>1</type></trkpt>
      <trkpt lat="40.22211851" lon="-4.9412067"><ele>1104</ele><speed>13.04</speed><time>2017-04-09T12:22:52Z</time><pdop>4.0</pdop><geoidheight>0.00</geoidheight><course>258.8</course><type>1</type></trkpt>
      <trkpt lat="40.22209466" lon="-4.94135151"><ele>1104</ele><speed>13.39</speed><time>2017-04-09T12:22:53Z</time><pdop>5.0</pdop><geoidheight>0.00</geoidheight><course>257.5</course><type>1</type></trkpt>
      <trkpt lat="40.22208575" lon="-4.94150736"><ele>1104</ele><speed>13.99</speed><time>2017-04-09T12:22:54Z</time><pdop>4.0</pdop><geoidheight>0.00</geoidheight><course>262.6</course><type>1</type></trkpt>
      <trkpt lat="40.22208348" lon="-4.94167427"><ele>1105</ele><speed>14.49</speed><time>2017-04-09T12:22:55Z</time><pdop>4.0</pdop><geoidheight>0.00</geoidheight><course>269.8</course><type>1</type></trkpt>
      <trkpt lat="40.22211682" lon="-4.94186677"><ele>1105</ele><speed>13.84</speed><time>2017-04-09T12:22:56Z</time><pdop>5.0</pdop><geoidheight>0.00</geoidheight><course>274.2</course><type>1</type></trkpt>
      <trkpt lat="40.22214214" lon="-4.94203236"><ele>1108</ele><speed>12.11</speed><time>2017-04-09T12:22:57Z</time><pdop>5.0</pdop><geoidheight>0.00</geoidheight><course>276.5</course><type>1</type></trkpt>
      <trkpt lat="40.22215115" lon="-4.94216896"><ele>1108</ele><speed>11.47</speed><time>2017-04-09T12:22:58Z</time><pdop>5.0</pdop><geoidheight>0.00</geoidheight><course>277.3</course><type>1</type></trkpt>
      <trkpt lat="40.22215318" lon="-4.9423171"><ele>1107</ele><speed>11.85</speed><time>2017-04-09T12:22:59Z</time><pdop>6.0</pdop><geoidheight>0.00</geoidheight><course>275.7</course><type>1</type></trkpt>
      <trkpt lat="40.22216721" lon="-4.94247227"><ele>1105</ele><speed>13.06</speed><time>2017-04-09T12:23:00Z</time><pdop>6.0</pdop><geoidheight>0.00</geoidheight><course>273.5</course><type>1</type></trkpt>
      <trkpt lat="40.22217951" lon="-4.94262912"><ele>1105</ele><speed>13.36</speed><time>2017-04-09T12:23:01Z</time><pdop>6.0</pdop><geoidheight>0.00</geoidheight><course>275.4</course><type>1</type></trkpt>
      <trkpt lat="40.22217576" lon="-4.94279603"><ele>1104</ele><speed>13.78</speed><time>2017-04-09T12:23:02Z</time><pdop>7.0</pdop><geoidheight>0.00</geoidheight><course>270.4</course><type>1</type></trkpt>
      <trkpt lat="40.22216263" lon="-4.94299389"><ele>1103</ele><speed>15.17</speed><time>2017-04-09T12:23:03Z</time><pdop>7.0</pdop><geoidheight>0.00</geoidheight><course>268.6</course><type>1</type></trkpt>
      <trkpt lat="40.22213462" lon="-4.94315127"><ele>1102</ele><speed>14.74</speed><time>2017-04-09T12:23:04Z</time><pdop>6.0</pdop><geoidheight>0.00</geoidheight><course>267.5</course><type>1</type></trkpt>
      <trkpt lat="40.22211915" lon="-4.9433"><ele>1100</ele><speed>13.96</speed><time>2017-04-09T12:23:05Z</time><pdop>6.0</pdop><geoidheight>0.00</geoidheight><course>265.1</course><type>1</type></trkpt>
      <trkpt lat="40.22210236" lon="-4.94347071"><ele>1099</ele><speed>13.41</speed><time>2017-04-09T12:23:06Z</time><pdop>6.0</pdop><geoidheight>0.00</geoidheight><course>264.9</course><type>1</type></trkpt>
      <trkpt lat="40.22210509" lon="-4.94363353"><ele>1098</ele><speed>13.37</speed><time>2017-04-09T12:23:07Z</time><pdop>5.0</pdop><geoidheight>0.00</geoidheight><course>265.7</course><type>1</type></trkpt>
      <trkpt lat="40.22210845" lon="-4.94380692"><ele>1096</ele><speed>14.28</speed><time>2017-04-09T12:23:08Z</time><pdop>4.0</pdop><geoidheight>0.00</geoidheight><course>268.8</course><type>1</type></trkpt>
      <trkpt lat="40.22209952" lon="-4.94398373"><ele>1096</ele><speed>15.72</speed><time>2017-04-09T12:23:09Z</time><pdop>5.0</pdop><geoidheight>0.00</geoidheight><course>266.5</course><type>1</type></trkpt>
      <trkpt lat="40.22208255" lon="-4.94416638"><ele>1094</ele><speed>15.11</speed><time>2017-04-09T12:23:10Z</time><pdop>5.0</pdop><geoidheight>0.00</geoidheight><course>264.9</course><type>1</type></trkpt>
      <trkpt lat="40.22207401" lon="-4.94434763"><ele>1093</ele><speed>14.91</speed><time>2017-04-09T12:23:11Z</time><pdop>5.0</pdop><geoidheight>0.00</geoidheight><course>264.6</course><type>1</type></trkpt>
      <trkpt lat="40.22207001" lon="-4.94452337"><ele>1092</ele><speed>14.79</speed><time>2017-04-09T12:23:12Z</time><pdop>5.0</pdop><geoidheight>0.00</geoidheight><course>267.3</course><type>1</type></trkpt>
      <trkpt lat="40.22206067" lon="-4.94470793"><ele>1090</ele><speed>14.71</speed><time>2017-04-09T12:23:13Z</time><pdop>4.0</pdop><geoidheight>0.00</geoidheight><course>267.5</course><type>1</type></trkpt>
      <trkpt lat="40.22205868" lon="-4.94488116"><ele>1090</ele><speed>14.72</speed><time>2017-04-09T12:23:14Z</time><pdop>5.0</pdop><geoidheight>0.00</geoidheight><course>270.4</course><type>1</type></trkpt>
      <trkpt lat="40.22203561" lon="-4.94505352"><ele>1088</ele><speed>14.81</speed><time>2017-04-09T12:23:15Z</time><pdop>4.0</pdop><geoidheight>0.00</geoidheight><course>268.9</course><type>1</type></trkpt>
      <trkpt lat="40.22203084" lon="-4.9452317"><ele>1085</ele><speed>14.38</speed><time>2017-04-09T12:23:16Z</time><pdop>4.0</pdop><geoidheight>0.00</geoidheight><course>267.7</course><type>1</type></trkpt>
      <trkpt lat="40.22202824" lon="-4.94540079"><ele>1085</ele><speed>14.39</speed><time>2017-04-09T12:23:17Z</time><pdop>5.0</pdop><geoidheight>0.00</geoidheight><course>269.4</course><type>1</type></trkpt>
      <trkpt lat="40.22201831" lon="-4.94554869"><ele>1082</ele><speed>14.49</speed><time>2017-04-09T12:23:18Z</time><pdop>5.0</pdop><geoidheight>0.00</geoidheight><course>269.0</course><type>1</type></trkpt>
      <trkpt lat="40.22201139" lon="-4.94571232"><ele>1079</ele><speed>14.33</speed><time>2017-04-09T12:23:19Z</time><pdop>5.0</pdop><geoidheight>0.00</geoidheight><course>270.6</course><type>1</type></trkpt>
      <trkpt lat="40.22201177" lon="-4.94588244"><ele>1078</ele><speed>15.05</speed><time>2017-04-09T12:23:20Z</time><pdop>5.0</pdop><geoidheight>0.00</geoidheight><course>271.8</course><type>1</type></trkpt>
      <trkpt lat="40.22198893" lon="-4.94603619"><ele>1075</ele><speed>14.93</speed><time>2017-04-09T12:23:21Z</time><pdop>5.0</pdop><geoidheight>0.00</geoidheight><course>271.3</course><type>1</type></trkpt>
      <trkpt lat="40.22199382" lon="-4.94622504"><ele>1074</ele><speed>15.22</speed><time>2017-04-09T12:23:22Z</time><pdop>5.0</pdop><geoidheight>0.00</geoidheight><course>271.8</course><type>1</type></trkpt>
      <trkpt lat="40.22199626" lon="-4.94640384"><ele>1073</ele><speed>15.22</speed><time>2017-04-09T12:23:23Z</time><pdop>6.0</pdop><geoidheight>0.00</geoidheight><course>270.0</course><type>1</type></trkpt>
      <trkpt lat="40.2219814" lon="-4.94658834"><ele>1074</ele><speed>15.26</speed><time>2017-04-09T12:23:24Z</time><pdop>5.0</pdop><geoidheight>0.00</geoidheight><course>265.9</course><type>1</type></trkpt>
      <trkpt lat="40.22197392" lon="-4.94676691"><ele>1075</ele><speed>15.23</speed><time>2017-04-09T12:23:25Z</time><pdop>6.0</pdop><geoidheight>0.00</geoidheight><course>268.5</course><type>1</type></trkpt>
      <trkpt lat="40.22197811" lon="-4.94692099"><ele>1074</ele><speed>14.93</speed><time>2017-04-09T12:23:26Z</time><pdop>5.0</pdop><geoidheight>0.00</geoidheight><course>267.6</course><type>1</type></trkpt>
      <trkpt lat="40.22198202" lon="-4.9470964"><ele>1072</ele><speed>15.08</speed><time>2017-04-09T12:23:27Z</time><pdop>4.0</pdop><geoidheight>0.00</geoidheight><course>268.4</course><type>1</type></trkpt>
      <trkpt lat="40.22195713" lon="-4.9472801"><ele>1072</ele><speed>14.72</speed><time>2017-04-09T12:23:28Z</time><pdop>5.0</pdop><geoidheight>0.00</geoidheight><course>270.8</course><type>1</type></trkpt>
      <trkpt lat="40.22194439" lon="-4.94743009"><ele>1071</ele><speed>13.63</speed><time>2017-04-09T12:23:29Z</time><pdop>5.0</pdop><geoidheight>0.00</geoidheight><course>270.2</course><type>1</type></trkpt>
      <trkpt lat="40.22193677" lon="-4.94758051"><ele>1073</ele><speed>12.58</speed><time>2017-04-09T12:23:30Z</time><pdop>5.0</pdop><geoidheight>0.00</geoidheight><course>270.5</course><type>1</type></trkpt>
      <trkpt lat="40.22192799" lon="-4.94772563"><ele>1073</ele><speed>12.27</speed><time>2017-04-09T12:23:31Z</time><pdop>5.0</pdop><geoidheight>0.00</geoidheight><course>272.0</course><type>1</type></trkpt>
      <trkpt lat="40.22193789" lon="-4.94787083"><ele>1073</ele><speed>12.52</speed><time>2017-04-09T12:23:32Z</time><pdop>6.0</pdop><geoidheight>0.00</geoidheight><course>274.5</course><type>1</type></trkpt>
      <trkpt lat="40.22193646" lon="-4.94815747"><ele>1073</ele><speed>12.21</speed><time>2017-04-09T12:23:34Z</time><pdop>5.0</pdop><geoidheight>0.00</geoidheight><course>265.3</course><type>1</type></trkpt>
      <trkpt lat="40.22192959" lon="-4.94829946"><ele>1073</ele><speed>12.15</speed><time>2017-04-09T12:23:35Z</time><pdop>6.0</pdop><geoidheight>0.00</geoidheight><course>268.2</course><type>1</type></trkpt>
      <trkpt lat="40.22191252" lon="-4.94848093"><ele>1070</ele><speed>13.54</speed><time>2017-04-09T12:23:36Z</time><pdop>4.0</pdop><geoidheight>0.00</geoidheight><course>255.4</course><type>1</type></trkpt>
      <trkpt lat="40.22189758" lon="-4.94864431"><ele>1069</ele><speed>14.74</speed><time>2017-04-09T12:23:37Z</time><pdop>5.0</pdop><geoidheight>0.00</geoidheight><course>260.2</course><type>1</type></trkpt>
      <trkpt lat="40.22187827" lon="-4.94882088"><ele>1068</ele><speed>14.91</speed><time>2017-04-09T12:23:38Z</time><pdop>5.0</pdop><geoidheight>0.00</geoidheight><course>261.6</course><type>1</type></trkpt>
      <trkpt lat="40.22186359" lon="-4.94898698"><ele>1066</ele><speed>14.65</speed><time>2017-04-09T12:23:39Z</time><pdop>5.0</pdop><geoidheight>0.00</geoidheight><course>259.8</course><type>1</type></trkpt>
      <trkpt lat="40.22183741" lon="-4.94915633"><ele>1066</ele><speed>14.85</speed><time>2017-04-09T12:23:40Z</time><pdop>5.0</pdop><geoidheight>0.00</geoidheight><course>258.4</course><type>1</type></trkpt>
      <trkpt lat="40.22181889" lon="-4.94931604"><ele>1068</ele><speed>14.32</speed><time>2017-04-09T12:23:41Z</time><pdop>4.0</pdop><geoidheight>0.00</geoidheight><course>260.4</course><type>1</type></trkpt>
      <trkpt lat="40.22178383" lon="-4.949484"><ele>1068</ele><speed>13.15</speed><time>2017-04-09T12:23:42Z</time><pdop>4.0</pdop><geoidheight>0.00</geoidheight><course>261.8</course><type>1</type></trkpt>
      <trkpt lat="40.22176593" lon="-4.94962971"><ele>1069</ele><speed>12.11</speed><time>2017-04-09T12:23:43Z</time><pdop>4.0</pdop><geoidheight>0.00</geoidheight><course>262.7</course><type>1</type></trkpt>
      <trkpt lat="40.22174904" lon="-4.94976645"><ele>1070</ele><speed>12.30</speed><time>2017-04-09T12:23:44Z</time><pdop>5.0</pdop><geoidheight>0.00</geoidheight><course>262.1</course><type>1</type></trkpt>
      <trkpt lat="40.22171729" lon="-4.94990371"><ele>1068</ele><speed>13.19</speed><time>2017-04-09T12:23:45Z</time><pdop>5.0</pdop><geoidheight>0.00</geoidheight><course>260.5</course><type>1</type></trkpt>
      <trkpt lat="40.22168609" lon="-4.95005209"><ele>1067</ele><speed>13.74</speed><time>2017-04-09T12:23:46Z</time><pdop>5.0</pdop><geoidheight>0.00</geoidheight><course>252.4</course><type>1</type></trkpt>
      <trkpt lat="40.22162732" lon="-4.95020551"><ele>1069</ele><speed>13.28</speed><time>2017-04-09T12:23:47Z</time><pdop>5.0</pdop><geoidheight>0.00</geoidheight><course>243.8</course><type>1</type></trkpt>
      <trkpt lat="40.22157303" lon="-4.9503399"><ele>1070</ele><speed>12.99</speed><time>2017-04-09T12:23:48Z</time><pdop>5.0</pdop><geoidheight>0.00</geoidheight><course>240.0</course><type>1</type></trkpt>
      <trkpt lat="40.22149785" lon="-4.9504569"><ele>1069</ele><speed>12.25</speed><time>2017-04-09T12:23:49Z</time><pdop>5.0</pdop><geoidheight>0.00</geoidheight><course>229.7</course><type>1</type></trkpt>
      <trkpt lat="40.22142622" lon="-4.95056539"><ele>1070</ele><speed>12.24</speed><time>2017-04-09T12:23:50Z</time><pdop>5.0</pdop><geoidheight>0.00</geoidheight><course>229.8</course><type>1</type></trkpt>
      <trkpt lat="40.22136936" lon="-4.95068543"><ele>1067</ele><speed>11.93</speed><time>2017-04-09T12:23:51Z</time><pdop>4.0</pdop><geoidheight>0.00</geoidheight><course>232.3</course><type>1</type></trkpt>
      <trkpt lat="40.22130899" lon="-4.95078695"><ele>1066</ele><speed>11.88</speed><time>2017-04-09T12:23:52Z</time><pdop>4.0</pdop><geoidheight>0.00</geoidheight><course>232.9</course><type>1</type></trkpt>
      <trkpt lat="40.22123817" lon="-4.95088861"><ele>1065</ele><speed>11.96</speed><time>2017-04-09T12:23:53Z</time><pdop>4.0</pdop><geoidheight>0.00</geoidheight><course>226.4</course><type>1</type></trkpt>
      <trkpt lat="40.22115735" lon="-4.95096266"><ele>1062</ele><speed>11.64</speed><time>2017-04-09T12:23:54Z</time><pdop>3.0</pdop><geoidheight>0.00</geoidheight><course>211.1</course><type>1</type></trkpt>
      <trkpt lat="40.22106765" lon="-4.95099556"><ele>1060</ele><speed>10.86</speed><time>2017-04-09T12:23:55Z</time><pdop>3.0</pdop><geoidheight>0.00</geoidheight><course>189.7</course><type>1</type></trkpt>
      <trkpt lat="40.22097966" lon="-4.95099655"><ele>1059</ele><speed>9.74</speed><time>2017-04-09T12:23:56Z</time><pdop>4.0</pdop><geoidheight>0.00</geoidheight><course>173.1</course><type>1</type></trkpt>
      <trkpt lat="40.22091364" lon="-4.95095686"><ele>1058</ele><speed>8.69</speed><time>2017-04-09T12:23:57Z</time><pdop>4.0</pdop><geoidheight>0.00</geoidheight><course>148.8</course><type>1</type></trkpt>
      <trkpt lat="40.22085521" lon="-4.95089904"><ele>1058</ele><speed>6.60</speed><time>2017-04-09T12:23:58Z</time><pdop>4.0</pdop><geoidheight>0.00</geoidheight><course>127.6</course><type>1</type></trkpt>
      <trkpt lat="40.22083063" lon="-4.95078583"><ele>1058</ele><speed>4.76</speed><time>2017-04-09T12:24:00Z</time><pdop>4.0</pdop><geoidheight>0.00</geoidheight><course>91.6</course><type>1</type></trkpt>
      <trkpt lat="40.22083588" lon="-4.95065117"><ele>1055</ele><speed>3.99</speed><time>2017-04-09T12:24:03Z</time><pdop>4.0</pdop><geoidheight>0.00</geoidheight><course>68.9</course><type>1</type></trkpt>
      <trkpt lat="40.22089687" lon="-4.95056832"><ele>1050</ele><speed>6.50</speed><time>2017-04-09T12:24:05Z</time><pdop>3.0</pdop><geoidheight>0.00</geoidheight><course>25.5</course><type>1</type></trkpt>
      <trkpt lat="40.22095862" lon="-4.95055691"><ele>1049</ele><speed>7.63</speed><time>2017-04-09T12:24:06Z</time><pdop>3.0</pdop><geoidheight>0.00</geoidheight><course>4.8</course><type>1</type></trkpt>
      <trkpt lat="40.22103237" lon="-4.95056947"><ele>1049</ele><speed>8.86</speed><time>2017-04-09T12:24:07Z</time><pdop>3.0</pdop><geoidheight>0.00</geoidheight><course>345.0</course><type>1</type></trkpt>
      <trkpt lat="40.22111453" lon="-4.95060845"><ele>1049</ele><speed>9.03</speed><time>2017-04-09T12:24:08Z</time><pdop>3.0</pdop><geoidheight>0.00</geoidheight><course>339.0</course><type>1</type></trkpt>
      <trkpt lat="40.22118639" lon="-4.95065131"><ele>1049</ele><speed>9.31</speed><time>2017-04-09T12:24:09Z</time><pdop>4.0</pdop><geoidheight>0.00</geoidheight><course>338.5</course><type>1</type></trkpt>
      <trkpt lat="40.22125894" lon="-4.95075631"><ele>1048</ele><speed>11.18</speed><time>2017-04-09T12:24:10Z</time><pdop>4.0</pdop><geoidheight>0.00</geoidheight><course>320.0</course><type>1</type></trkpt>
      <trkpt lat="40.22135238" lon="-4.95083067"><ele>1046</ele><speed>11.75</speed><time>2017-04-09T12:24:11Z</time><pdop>4.0</pdop><geoidheight>0.00</geoidheight><course>319.0</course><type>1</type></trkpt>
      <trkpt lat="40.22143654" lon="-4.9509276"><ele>1045</ele><speed>12.35</speed><time>2017-04-09T12:24:12Z</time><pdop>4.0</pdop><geoidheight>0.00</geoidheight><course>320.1</course><type>1</type></trkpt>
      <trkpt lat="40.22152772" lon="-4.95101265"><ele>1046</ele><speed>11.84</speed><time>2017-04-09T12:24:13Z</time><pdop>4.0</pdop><geoidheight>0.00</geoidheight><course>322.3</course><type>1</type></trkpt>
      <trkpt lat="40.22160059" lon="-4.9510938"><ele>1047</ele><speed>10.28</speed><time>2017-04-09T12:24:14Z</time><pdop>4.0</pdop><geoidheight>0.00</geoidheight><course>321.9</course><type>1</type></trkpt>
      <trkpt lat="40.22166829" lon="-4.95116202"><ele>1048</ele><speed>9.15</speed><time>2017-04-09T12:24:15Z</time><pdop>4.0</pdop><geoidheight>0.00</geoidheight><course>321.3</course><type>1</type></trkpt>
      <trkpt lat="40.22172748" lon="-4.95122728"><ele>1048</ele><speed>8.72</speed><time>2017-04-09T12:24:16Z</time><pdop>4.0</pdop><geoidheight>0.00</geoidheight><course>322.1</course><type>1</type></trkpt>
      <trkpt lat="40.22179318" lon="-4.951293"><ele>1046</ele><speed>8.76</speed><time>2017-04-09T12:24:17Z</time><pdop>5.0</pdop><geoidheight>0.00</geoidheight><course>322.7</course><type>1</type></trkpt>
      <trkpt lat="40.22189043" lon="-4.95139934"><ele>1043</ele><speed>8.90</speed><time>2017-04-09T12:24:19Z</time><pdop>6.0</pdop><geoidheight>0.00</geoidheight><course>323.2</course><type>1</type></trkpt>
      <trkpt lat="40.22202038" lon="-4.95150604"><ele>1043</ele><speed>7.96</speed><time>2017-04-09T12:24:21Z</time><pdop>6.0</pdop><geoidheight>0.00</geoidheight><course>332.1</course><type>1</type></trkpt>
      <trkpt lat="40.22212183" lon="-4.95148223"><ele>1044</ele><speed>5.72</speed><time>2017-04-09T12:24:23Z</time><pdop>5.0</pdop><geoidheight>0.00</geoidheight><course>26.6</course><type>1</type></trkpt>
      <trkpt lat="40.22213265" lon="-4.95128823"><ele>1046</ele><speed>7.93</speed><time>2017-04-09T12:24:26Z</time><pdop>5.0</pdop><geoidheight>0.00</geoidheight><course>115.7</course><type>1</type></trkpt>
      <trkpt lat="40.22209841" lon="-4.95117938"><ele>1048</ele><speed>8.47</speed><time>2017-04-09T12:24:27Z</time><pdop>5.0</pdop><geoidheight>0.00</geoidheight><course>134.3</course><type>1</type></trkpt>
      <trkpt lat="40.22195571" lon="-4.95108014"><ele>1049</ele><speed>8.59</speed><time>2017-04-09T12:24:29Z</time><pdop>6.0</pdop><geoidheight>0.00</geoidheight><course>165.9</course><type>1</type></trkpt>
      <trkpt lat="40.22179449" lon="-4.9510297"><ele>1050</ele><speed>8.44</speed><time>2017-04-09T12:24:31Z</time><pdop>6.0</pdop><geoidheight>0.00</geoidheight><course>128.7</course><type>1</type></trkpt>
      <trkpt lat="40.22168762" lon="-4.95102025"><ele>1052</ele><speed>10.86</speed><time>2017-04-09T12:24:32Z</time><pdop>5.0</pdop><geoidheight>0.00</geoidheight><course>173.3</course><type>1</type></trkpt>
      <trkpt lat="40.22158873" lon="-4.95102105"><ele>1052</ele><speed>10.95</speed><time>2017-04-09T12:24:33Z</time><pdop>6.0</pdop><geoidheight>0.00</geoidheight><course>180.1</course><type>1</type></trkpt>
      <trkpt lat="40.22139224" lon="-4.95103893"><ele>1054</ele><speed>10.49</speed><time>2017-04-09T12:24:35Z</time><pdop>5.0</pdop><geoidheight>0.00</geoidheight><course>191.6</course><type>1</type></trkpt>
      <trkpt lat="40.22129817" lon="-4.95106338"><ele>1054</ele><speed>10.58</speed><time>2017-04-09T12:24:36Z</time><pdop>5.0</pdop><geoidheight>0.00</geoidheight><course>190.4</course><type>1</type></trkpt>
      <trkpt lat="40.22119984" lon="-4.95109355"><ele>1054</ele><speed>11.62</speed><time>2017-04-09T12:24:37Z</time><pdop>5.0</pdop><geoidheight>0.00</geoidheight><course>193.7</course><type>1</type></trkpt>
      <trkpt lat="40.2210871" lon="-4.95113532"><ele>1055</ele><speed>12.30</speed><time>2017-04-09T12:24:38Z</time><pdop>5.0</pdop><geoidheight>0.00</geoidheight><course>195.8</course><type>1</type></trkpt>
      <trkpt lat="40.22098176" lon="-4.95118901"><ele>1057</ele><speed>12.38</speed><time>2017-04-09T12:24:39Z</time><pdop>5.0</pdop><geoidheight>0.00</geoidheight><course>202.8</course><type>1</type></trkpt>
      <trkpt lat="40.22087677" lon="-4.95125261"><ele>1059</ele><speed>11.32</speed><time>2017-04-09T12:24:40Z</time><pdop>5.0</pdop><geoidheight>0.00</geoidheight><course>207.6</course><type>1</type></trkpt>
      <trkpt lat="40.22080464" lon="-4.95132882"><ele>1061</ele><speed>10.81</speed><time>2017-04-09T12:24:41Z</time><pdop>4.0</pdop><geoidheight>0.00</geoidheight><course>213.4</course><type>1</type></trkpt>
      <trkpt lat="40.22072371" lon="-4.9513819"><ele>1062</ele><speed>10.46</speed><time>2017-04-09T12:24:42Z</time><pdop>4.0</pdop><geoidheight>0.00</geoidheight><course>215.0</course><type>1</type></trkpt>
      <trkpt lat="40.22064866" lon="-4.95144908"><ele>1062</ele><speed>10.51</speed><time>2017-04-09T12:24:43Z</time><pdop>4.0</pdop><geoidheight>0.00</geoidheight><course>211.8</course><type>1</type></trkpt>
      <trkpt lat="40.22056596" lon="-4.95151455"><ele>1063</ele><speed>10.67</speed><time>2017-04-09T12:24:44Z</time><pdop>4.0</pdop><geoidheight>0.00</geoidheight><course>207.0</course><type>1</type></trkpt>
      <trkpt lat="40.22047137" lon="-4.95157641"><ele>1063</ele><speed>11.13</speed><time>2017-04-09T12:24:45Z</time><pdop>4.0</pdop><geoidheight>0.00</geoidheight><course>202.9</course><type>1</type></trkpt>
      <trkpt lat="40.22038157" lon="-4.95162507"><ele>1064</ele><speed>11.23</speed><time>2017-04-09T12:24:46Z</time><pdop>4.0</pdop><geoidheight>0.00</geoidheight><course>202.6</course><type>1</type></trkpt>
      <trkpt lat="40.22028954" lon="-4.95166403"><ele>1065</ele><speed>10.25</speed><time>2017-04-09T12:24:47Z</time><pdop>4.0</pdop><geoidheight>0.00</geoidheight><course>199.0</course><type>1</type></trkpt>
      <trkpt lat="40.220208" lon="-4.95169536"><ele>1065</ele><speed>9.26</speed><time>2017-04-09T12:24:48Z</time><pdop>3.0</pdop><geoidheight>0.00</geoidheight><course>196.6</course><type>1</type></trkpt>
      <trkpt lat="40.22013195" lon="-4.9517153"><ele>1067</ele><speed>9.30</speed><time>2017-04-09T12:24:49Z</time><pdop>4.0</pdop><geoidheight>0.00</geoidheight><course>194.3</course><type>1</type></trkpt>
      <trkpt lat="40.22004571" lon="-4.95175395"><ele>1066</ele><speed>10.61</speed><time>2017-04-09T12:24:50Z</time><pdop>4.0</pdop><geoidheight>0.00</geoidheight><course>196.7</course><type>1</type></trkpt>
      <trkpt lat="40.21994681" lon="-4.95179466"><ele>1068</ele><speed>11.62</speed><time>2017-04-09T12:24:51Z</time><pdop>4.0</pdop><geoidheight>0.00</geoidheight><course>198.5</course><type>1</type></trkpt>
      <trkpt lat="40.21984877" lon="-4.9518486"><ele>1070</ele><speed>12.05</speed><time>2017-04-09T12:24:52Z</time><pdop>4.0</pdop><geoidheight>0.00</geoidheight><course>201.5</course><type>1</type></trkpt>
      <trkpt lat="40.21975678" lon="-4.95189421"><ele>1071</ele><speed>10.79</speed><time>2017-04-09T12:24:53Z</time><pdop>4.0</pdop><geoidheight>0.00</geoidheight><course>199.7</course><type>1</type></trkpt>
      <trkpt lat="40.21967878" lon="-4.95193045"><ele>1072</ele><speed>10.29</speed><time>2017-04-09T12:24:54Z</time><pdop>3.0</pdop><geoidheight>0.00</geoidheight><course>201.4</course><type>1</type></trkpt>
      <trkpt lat="40.21960201" lon="-4.95197751"><ele>1073</ele><speed>9.42</speed><time>2017-04-09T12:24:55Z</time><pdop>3.0</pdop><geoidheight>0.00</geoidheight><course>201.5</course><type>1</type></trkpt>
      <trkpt lat="40.21952395" lon="-4.9520032"><ele>1074</ele><speed>8.60</speed><time>2017-04-09T12:24:56Z</time><pdop>3.0</pdop><geoidheight>0.00</geoidheight><course>195.8</course><type>1</type></trkpt>
      <trkpt lat="40.21944939" lon="-4.95202046"><ele>1075</ele><speed>8.14</speed><time>2017-04-09T12:24:57Z</time><pdop>3.0</pdop><geoidheight>0.00</geoidheight><course>188.2</course><type>1</type></trkpt>
      <trkpt lat="40.21938173" lon="-4.95201683"><ele>1077</ele><speed>7.77</speed><time>2017-04-09T12:24:58Z</time><pdop>4.0</pdop><geoidheight>0.00</geoidheight><course>183.0</course><type>1</type></trkpt>
      <trkpt lat="40.21925798" lon="-4.95202871"><ele>1080</ele><speed>6.44</speed><time>2017-04-09T12:25:00Z</time><pdop>4.0</pdop><geoidheight>0.00</geoidheight><course>172.4</course><type>1</type></trkpt>
      <trkpt lat="40.21915224" lon="-4.9520007"><ele>1081</ele><speed>5.65</speed><time>2017-04-09T12:25:02Z</time><pdop>4.0</pdop><geoidheight>0.00</geoidheight><course>167.7</course><type>1</type></trkpt>
      <trkpt lat="40.21902852" lon="-4.95196061"><ele>1084</ele><speed>8.25</speed><time>2017-04-09T12:25:04Z</time><pdop>5.0</pdop><geoidheight>0.00</geoidheight><course>165.2</course><type>1</type></trkpt>
      <trkpt lat="40.21888104" lon="-4.9519102"><ele>1090</ele><speed>6.79</speed><time>2017-04-09T12:25:06Z</time><pdop>5.0</pdop><geoidheight>0.00</geoidheight><course>162.7</course><type>1</type></trkpt>
      <trkpt lat="40.21878673" lon="-4.95186244"><ele>1095</ele><speed>4.44</speed><time>2017-04-09T12:25:08Z</time><pdop>4.0</pdop><geoidheight>0.00</geoidheight><course>132.3</course><type>1</type></trkpt>
      <trkpt lat="40.21879531" lon="-4.95175306"><ele>1099</ele><speed>5.17</speed><time>2017-04-09T12:25:10Z</time><pdop>4.0</pdop><geoidheight>0.00</geoidheight><course>53.6</course><type>1</type></trkpt>
      <trkpt lat="40.21892162" lon="-4.9517226"><ele>1103</ele><speed>8.23</speed><time>2017-04-09T12:25:12Z</time><pdop>4.0</pdop><geoidheight>0.00</geoidheight><course>352.5</course><type>1</type></trkpt>
      <trkpt lat="40.21900426" lon="-4.95177365"><ele>1105</ele><speed>11.03</speed><time>2017-04-09T12:25:13Z</time><pdop>4.0</pdop><geoidheight>0.00</geoidheight><course>327.9</course><type>1</type></trkpt>
      <trkpt lat="40.21908982" lon="-4.95185487"><ele>1106</ele><speed>11.65</speed><time>2017-04-09T12:25:14Z</time><pdop>4.0</pdop><geoidheight>0.00</geoidheight><course>318.3</course><type>1</type></trkpt>
      <trkpt lat="40.21916034" lon="-4.95199239"><ele>1104</ele><speed>12.77</speed><time>2017-04-09T12:25:15Z</time><pdop>5.0</pdop><geoidheight>0.00</geoidheight><course>306.1</course><type>1</type></trkpt>
      <trkpt lat="40.2191895" lon="-4.95212562"><ele>1107</ele><speed>12.34</speed><time>2017-04-09T12:25:16Z</time><pdop>5.0</pdop><geoidheight>0.00</geoidheight><course>288.6</course><type>1</type></trkpt>
      <trkpt lat="40.21913839" lon="-4.95229639"><ele>1108</ele><speed>12.49</speed><time>2017-04-09T12:25:17Z</time><pdop>5.0</pdop><geoidheight>0.00</geoidheight><course>254.2</course><type>1</type></trkpt>
      <trkpt lat="40.21910207" lon="-4.95242146"><ele>1108</ele><speed>12.61</speed><time>2017-04-09T12:25:18Z</time><pdop>6.0</pdop><geoidheight>0.00</geoidheight><course>241.2</course><type>1</type></trkpt>
      <trkpt lat="40.21903002" lon="-4.95255217"><ele>1109</ele><speed>13.45</speed><time>2017-04-09T12:25:19Z</time><pdop>5.0</pdop><geoidheight>0.00</geoidheight><course>230.8</course><type>1</type></trkpt>
      <trkpt lat="40.21894543" lon="-4.95265678"><ele>1111</ele><speed>13.05</speed><time>2017-04-09T12:25:20Z</time><pdop>5.0</pdop><geoidheight>0.00</geoidheight><course>216.8</course><type>1</type></trkpt>
      <trkpt lat="40.21885855" lon="-4.95272764"><ele>1115</ele><speed>12.30</speed><time>2017-04-09T12:25:21Z</time><pdop>4.0</pdop><geoidheight>0.00</geoidheight><course>200.7</course><type>1</type></trkpt>
      <trkpt lat="40.21859956" lon="-4.95263005"><ele>1127</ele><speed>3.62</speed><time>2017-04-09T12:25:26Z</time><pdop>4.0</pdop><geoidheight>0.00</geoidheight><course>113.7</course><type>1</type></trkpt>
      <trkpt lat="40.21867184" lon="-4.95256448"><ele>1131</ele><speed>6.07</speed><time>2017-04-09T12:25:28Z</time><pdop>4.0</pdop><geoidheight>0.00</geoidheight><course>15.9</course><type>1</type></trkpt>
      <trkpt lat="40.21881057" lon="-4.95259302"><ele>1136</ele><speed>9.55</speed><time>2017-04-09T12:25:30Z</time><pdop>4.0</pdop><geoidheight>0.00</geoidheight><course>336.9</course><type>1</type></trkpt>
      <trkpt lat="40.21888375" lon="-4.95266133"><ele>1139</ele><speed>10.94</speed><time>2017-04-09T12:25:31Z</time><pdop>4.0</pdop><geoidheight>0.00</geoidheight><course>319.7</course><type>1</type></trkpt>
      <trkpt lat="40.21895624" lon="-4.95275723"><ele>1142</ele><speed>11.74</speed><time>2017-04-09T12:25:32Z</time><pdop>4.0</pdop><geoidheight>0.00</geoidheight><course>308.9</course><type>1</type></trkpt>
      <trkpt lat="40.21900699" lon="-4.95287867"><ele>1143</ele><speed>11.57</speed><time>2017-04-09T12:25:33Z</time><pdop>4.0</pdop><geoidheight>0.00</geoidheight><course>298.4</course><type>1</type></trkpt>
      <trkpt lat="40.21902807" lon="-4.95304151"><ele>1145</ele><speed>14.11</speed><time>2017-04-09T12:25:34Z</time><pdop>4.0</pdop><geoidheight>0.00</geoidheight><course>270.5</course><type>1</type></trkpt>
      <trkpt lat="40.21900288" lon="-4.95321341"><ele>1147</ele><speed>14.06</speed><time>2017-04-09T12:25:35Z</time><pdop>4.0</pdop><geoidheight>0.00</geoidheight><course>254.0</course><type>1</type></trkpt>
      <trkpt lat="40.2189443" lon="-4.95337378"><ele>1149</ele><speed>13.85</speed><time>2017-04-09T12:25:36Z</time><pdop>4.0</pdop><geoidheight>0.00</geoidheight><course>241.5</course><type>1</type></trkpt>
      <trkpt lat="40.2188686" lon="-4.95351392"><ele>1152</ele><speed>13.23</speed><time>2017-04-09T12:25:37Z</time><pdop>4.0</pdop><geoidheight>0.00</geoidheight><course>226.3</course><type>1</type></trkpt>
      <trkpt lat="40.21879081" lon="-4.95359605"><ele>1155</ele><speed>12.13</speed><time>2017-04-09T12:25:38Z</time><pdop>4.0</pdop><geoidheight>0.00</geoidheight><course>210.5</course><type>1</type></trkpt>
      <trkpt lat="40.21869546" lon="-4.95365195"><ele>1157</ele><speed>11.11</speed><time>2017-04-09T12:25:39Z</time><pdop>4.0</pdop><geoidheight>0.00</geoidheight><course>202.7</course><type>1</type></trkpt>
      <trkpt lat="40.21859864" lon="-4.95366126"><ele>1159</ele><speed>9.24</speed><time>2017-04-09T12:25:40Z</time><pdop>4.0</pdop><geoidheight>0.00</geoidheight><course>180.2</course><type>1</type></trkpt>
      <trkpt lat="40.21848692" lon="-4.95359888"><ele>1165</ele><speed>5.69</speed><time>2017-04-09T12:25:42Z</time><pdop>4.0</pdop><geoidheight>0.00</geoidheight><course>138.2</course><type>1</type></trkpt>
      <trkpt lat="40.21842451" lon="-4.95350515"><ele>1168</ele><speed>4.88</speed><time>2017-04-09T12:25:44Z</time><pdop>4.0</pdop><geoidheight>0.00</geoidheight><course>100.0</course><type>1</type></trkpt>
      <trkpt lat="40.21844986" lon="-4.95340523"><ele>1175</ele><speed>4.42</speed><time>2017-04-09T12:25:46Z</time><pdop>4.0</pdop><geoidheight>0.00</geoidheight><course>42.6</course><type>1</type></trkpt>
      <trkpt lat="40.2185421" lon="-4.95337848"><ele>1182</ele><speed>6.59</speed><time>2017-04-09T12:25:48Z</time><pdop>4.0</pdop><geoidheight>0.00</geoidheight><course>353.5</course><type>1</type></trkpt>
      <trkpt lat="40.21861052" lon="-4.95340893"><ele>1184</ele><speed>8.19</speed><time>2017-04-09T12:25:49Z</time><pdop>4.0</pdop><geoidheight>0.00</geoidheight><course>337.5</course><type>1</type></trkpt>
      <trkpt lat="40.21885648" lon="-4.95404196"><ele>1194</ele><speed>15.66</speed><time>2017-04-09T12:25:54Z</time><pdop>4.0</pdop><geoidheight>0.00</geoidheight><course>259.9</course><type>1</type></trkpt>
      <trkpt lat="40.21881509" lon="-4.95420021"><ele>1196</ele><speed>14.55</speed><time>2017-04-09T12:25:55Z</time><pdop>4.0</pdop><geoidheight>0.00</geoidheight><course>240.3</course><type>1</type></trkpt>
      <trkpt lat="40.2187304" lon="-4.95432657"><ele>1198</ele><speed>13.48</speed><time>2017-04-09T12:25:56Z</time><pdop>4.0</pdop><geoidheight>0.00</geoidheight><course>223.5</course><type>1</type></trkpt>
      <trkpt lat="40.21863355" lon="-4.95441601"><ele>1200</ele><speed>12.76</speed><time>2017-04-09T12:25:57Z</time><pdop>4.0</pdop><geoidheight>0.00</geoidheight><course>210.9</course><type>1</type></trkpt>
      <trkpt lat="40.21853642" lon="-4.95446156"><ele>1202</ele><speed>12.12</speed><time>2017-04-09T12:25:58Z</time><pdop>4.0</pdop><geoidheight>0.00</geoidheight><course>199.2</course><type>1</type></trkpt>
      <trkpt lat="40.21842781" lon="-4.95448002"><ele>1205</ele><speed>11.29</speed><time>2017-04-09T12:25:59Z</time><pdop>4.0</pdop><geoidheight>0.00</geoidheight><course>187.7</course><type>1</type></trkpt>
      <trkpt lat="40.21833508" lon="-4.95449055"><ele>1208</ele><speed>9.44</speed><time>2017-04-09T12:26:00Z</time><pdop>4.0</pdop><geoidheight>0.00</geoidheight><course>174.1</course><type>1</type></trkpt>
      <trkpt lat="40.21821972" lon="-4.95443622"><ele>1215</ele><speed>6.86</speed><time>2017-04-09T12:26:02Z</time><pdop>4.0</pdop><geoidheight>0.00</geoidheight><course>158.2</course><type>1</type></trkpt>
      <trkpt lat="40.21812393" lon="-4.95438049"><ele>1221</ele><speed>5.70</speed><time>2017-04-09T12:26:04Z</time><pdop>4.0</pdop><geoidheight>0.00</geoidheight><course>151.8</course><type>1</type></trkpt>
      <trkpt lat="40.21812613" lon="-4.95428761"><ele>1226</ele><speed>6.12</speed><time>2017-04-09T12:26:07Z</time><pdop>3.0</pdop><geoidheight>0.00</geoidheight><course>28.1</course><type>1</type></trkpt>
      <trkpt lat="40.21819317" lon="-4.95426417"><ele>1228</ele><speed>7.21</speed><time>2017-04-09T12:26:08Z</time><pdop>3.0</pdop><geoidheight>0.00</geoidheight><course>4.0</course><type>1</type></trkpt>
      <trkpt lat="40.21825526" lon="-4.95428232"><ele>1232</ele><speed>7.60</speed><time>2017-04-09T12:26:09Z</time><pdop>3.0</pdop><geoidheight>0.00</geoidheight><course>338.5</course><type>1</type></trkpt>
      <trkpt lat="40.21831587" lon="-4.95434182"><ele>1235</ele><speed>8.65</speed><time>2017-04-09T12:26:10Z</time><pdop>3.0</pdop><geoidheight>0.00</geoidheight><course>316.0</course><type>1</type></trkpt>
      <trkpt lat="40.2183723" lon="-4.95444134"><ele>1238</ele><speed>10.47</speed><time>2017-04-09T12:26:11Z</time><pdop>3.0</pdop><geoidheight>0.00</geoidheight><course>302.4</course><type>1</type></trkpt>
      <trkpt lat="40.21842371" lon="-4.95455977"><ele>1241</ele><speed>11.90</speed><time>2017-04-09T12:26:12Z</time><pdop>3.0</pdop><geoidheight>0.00</geoidheight><course>299.1</course><type>1</type></trkpt>
      <trkpt lat="40.21847293" lon="-4.95469384"><ele>1243</ele><speed>13.00</speed><time>2017-04-09T12:26:13Z</time><pdop>3.0</pdop><geoidheight>0.00</geoidheight><course>294.2</course><type>1</type></trkpt>
      <trkpt lat="40.21851202" lon="-4.95485311"><ele>1245</ele><speed>14.25</speed><time>2017-04-09T12:26:14Z</time><pdop>3.0</pdop><geoidheight>0.00</geoidheight><course>283.7</course><type>1</type></trkpt>
      <trkpt lat="40.21852519" lon="-4.95502013"><ele>1247</ele><speed>15.43</speed><time>2017-04-09T12:26:15Z</time><pdop>4.0</pdop><geoidheight>0.00</geoidheight><course>268.9</course><type>1</type></trkpt>
      <trkpt lat="40.21849356" lon="-4.95518793"><ele>1248</ele><speed>16.02</speed><time>2017-04-09T12:26:16Z</time><pdop>4.0</pdop><geoidheight>0.00</geoidheight><course>252.7</course><type>1</type></trkpt>
      <trkpt lat="40.21842732" lon="-4.95536331"><ele>1248</ele><speed>15.50</speed><time>2017-04-09T12:26:17Z</time><pdop>4.0</pdop><geoidheight>0.00</geoidheight><course>235.4</course><type>1</type></trkpt>
      <trkpt lat="40.21833578" lon="-4.95548859"><ele>1250</ele><speed>14.40</speed><time>2017-04-09T12:26:18Z</time><pdop>4.0</pdop><geoidheight>0.00</geoidheight><course>220.3</course><type>1</type></trkpt>
      <trkpt lat="40.21822937" lon="-4.95556763"><ele>1252</ele><speed>13.01</speed><time>2017-04-09T12:26:19Z</time><pdop>4.0</pdop><geoidheight>0.00</geoidheight><course>202.7</course><type>1</type></trkpt>
      <trkpt lat="40.21812366" lon="-4.95559754"><ele>1254</ele><speed>11.43</speed><time>2017-04-09T12:26:20Z</time><pdop>4.0</pdop><geoidheight>0.00</geoidheight><course>184.5</course><type>1</type></trkpt>
      <trkpt lat="40.21803152" lon="-4.95559666"><ele>1259</ele><speed>9.88</speed><time>2017-04-09T12:26:21Z</time><pdop>4.0</pdop><geoidheight>0.00</geoidheight><course>169.8</course><type>1</type></trkpt>
      <trkpt lat="40.21795125" lon="-4.95556435"><ele>1262</ele><speed>8.47</speed><time>2017-04-09T12:26:22Z</time><pdop>4.0</pdop><geoidheight>0.00</geoidheight><course>156.0</course><type>1</type></trkpt>
      <trkpt lat="40.21787957" lon="-4.9555178"><ele>1265</ele><speed>7.75</speed><time>2017-04-09T12:26:23Z</time><pdop>4.0</pdop><geoidheight>0.00</geoidheight><course>140.6</course><type>1</type></trkpt>
      <trkpt lat="40.21783609" lon="-4.95540532"><ele>1271</ele><speed>5.29</speed><time>2017-04-09T12:26:25Z</time><pdop>4.0</pdop><geoidheight>0.00</geoidheight><course>86.1</course><type>1</type></trkpt>
      <trkpt lat="40.2179207" lon="-4.95531848"><ele>1275</ele><speed>7.52</speed><time>2017-04-09T12:26:27Z</time><pdop>3.0</pdop><geoidheight>0.00</geoidheight><course>10.3</course><type>1</type></trkpt>
      <trkpt lat="40.21799235" lon="-4.95532121"><ele>1277</ele><speed>8.82</speed><time>2017-04-09T12:26:28Z</time><pdop>3.0</pdop><geoidheight>0.00</geoidheight><course>343.8</course><type>1</type></trkpt>
      <trkpt lat="40.21806675" lon="-4.95538539"><ele>1281</ele><speed>10.41</speed><time>2017-04-09T12:26:29Z</time><pdop>3.0</pdop><geoidheight>0.00</geoidheight><course>320.8</course><type>1</type></trkpt>
      <trkpt lat="40.21814141" lon="-4.95548587"><ele>1284</ele><speed>12.29</speed><time>2017-04-09T12:26:30Z</time><pdop>3.0</pdop><geoidheight>0.00</geoidheight><course>302.5</course><type>1</type></trkpt>
      <trkpt lat="40.21818496" lon="-4.95562623"><ele>1287</ele><speed>13.60</speed><time>2017-04-09T12:26:31Z</time><pdop>3.0</pdop><geoidheight>0.00</geoidheight><course>286.2</course><type>1</type></trkpt>
      <trkpt lat="40.21819742" lon="-4.9557918"><ele>1289</ele><speed>14.90</speed><time>2017-04-09T12:26:32Z</time><pdop>3.0</pdop><geoidheight>0.00</geoidheight><course>272.9</course><type>1</type></trkpt>
      <trkpt lat="40.218177" lon="-4.95596193"><ele>1290</ele><speed>15.91</speed><time>2017-04-09T12:26:33Z</time><pdop>3.0</pdop><geoidheight>0.00</geoidheight><course>257.6</course><type>1</type></trkpt>
      <trkpt lat="40.21812329" lon="-4.95614098"><ele>1291</ele><speed>15.78</speed><time>2017-04-09T12:26:34Z</time><pdop>3.0</pdop><geoidheight>0.00</geoidheight><course>240.1</course><type>1</type></trkpt>
      <trkpt lat="40.21801673" lon="-4.95629134"><ele>1291</ele><speed>15.74</speed><time>2017-04-09T12:26:35Z</time><pdop>3.0</pdop><geoidheight>0.00</geoidheight><course>217.5</course><type>1</type></trkpt>
      <trkpt lat="40.21788529" lon="-4.95636311"><ele>1292</ele><speed>15.48</speed><time>2017-04-09T12:26:36Z</time><pdop>3.0</pdop><geoidheight>0.00</geoidheight><course>194.5</course><type>1</type></trkpt>
      <trkpt lat="40.21776569" lon="-4.95636808"><ele>1296</ele><speed>12.88</speed><time>2017-04-09T12:26:37Z</time><pdop>3.0</pdop><geoidheight>0.00</geoidheight><course>175.3</course><type>1</type></trkpt>
      <trkpt lat="40.21767309" lon="-4.95633205"><ele>1301</ele><speed>9.32</speed><time>2017-04-09T12:26:38Z</time><pdop>4.0</pdop><geoidheight>0.00</geoidheight><course>153.9</course><type>1</type></trkpt>
      <trkpt lat="40.21761482" lon="-4.95622712"><ele>1310</ele><speed>5.34</speed><time>2017-04-09T12:26:40Z</time><pdop>3.0</pdop><geoidheight>0.00</geoidheight><course>89.5</course><type>1</type></trkpt>
      <trkpt lat="40.2176495" lon="-4.95612494"><ele>1318</ele><speed>5.11</speed><time>2017-04-09T12:26:42Z</time><pdop>3.0</pdop><geoidheight>0.00</geoidheight><course>45.8</course><type>1</type></trkpt>
      <trkpt lat="40.21773008" lon="-4.95609939"><ele>1327</ele><speed>5.16</speed><time>2017-04-09T12:26:44Z</time><pdop>3.0</pdop><geoidheight>0.00</geoidheight><course>349.4</course><type>1</type></trkpt>
      <trkpt lat="40.21782796" lon="-4.95620325"><ele>1331</ele><speed>9.52</speed><time>2017-04-09T12:26:46Z</time><pdop>3.0</pdop><geoidheight>0.00</geoidheight><course>303.8</course><type>1</type></trkpt>
      <trkpt lat="40.21786183" lon="-4.95631089"><ele>1332</ele><speed>10.86</speed><time>2017-04-09T12:26:47Z</time><pdop>3.0</pdop><geoidheight>0.00</geoidheight><course>287.9</course><type>1</type></trkpt>
      <trkpt lat="40.21788112" lon="-4.95644889"><ele>1333</ele><speed>12.75</speed><time>2017-04-09T12:26:48Z</time><pdop>3.0</pdop><geoidheight>0.00</geoidheight><course>277.5</course><type>1</type></trkpt>
      <trkpt lat="40.21788775" lon="-4.95661016"><ele>1333</ele><speed>14.26</speed><time>2017-04-09T12:26:49Z</time><pdop>3.0</pdop><geoidheight>0.00</geoidheight><course>270.8</course><type>1</type></trkpt>
      <trkpt lat="40.2178834" lon="-4.95679878"><ele>1334</ele><speed>15.26</speed><time>2017-04-09T12:26:50Z</time><pdop>3.0</pdop><geoidheight>0.00</geoidheight><course>262.6</course><type>1</type></trkpt>
      <trkpt lat="40.21785947" lon="-4.95697362"><ele>1336</ele><speed>15.68</speed><time>2017-04-09T12:26:51Z</time><pdop>3.0</pdop><geoidheight>0.00</geoidheight><course>249.6</course><type>1</type></trkpt>
      <trkpt lat="40.21779081" lon="-4.95711957"><ele>1338</ele><speed>15.68</speed><time>2017-04-09T12:26:52Z</time><pdop>3.0</pdop><geoidheight>0.00</geoidheight><course>234.4</course><type>1</type></trkpt>
      <trkpt lat="40.21769522" lon="-4.95725799"><ele>1340</ele><speed>15.16</speed><time>2017-04-09T12:26:53Z</time><pdop>3.0</pdop><geoidheight>0.00</geoidheight><course>221.9</course><type>1</type></trkpt>
      <trkpt lat="40.21759942" lon="-4.95736528"><ele>1343</ele><speed>13.70</speed><time>2017-04-09T12:26:54Z</time><pdop>3.0</pdop><geoidheight>0.00</geoidheight><course>216.4</course><type>1</type></trkpt>
      <trkpt lat="40.21750286" lon="-4.95743953"><ele>1347</ele><speed>12.08</speed><time>2017-04-09T12:26:55Z</time><pdop>3.0</pdop><geoidheight>0.00</geoidheight><course>204.9</course><type>1</type></trkpt>
      <trkpt lat="40.21740675" lon="-4.95747949"><ele>1351</ele><speed>10.73</speed><time>2017-04-09T12:26:56Z</time><pdop>3.0</pdop><geoidheight>0.00</geoidheight><course>195.4</course><type>1</type></trkpt>
      <trkpt lat="40.21732799" lon="-4.95750003"><ele>1354</ele><speed>8.29</speed><time>2017-04-09T12:26:57Z</time><pdop>3.0</pdop><geoidheight>0.00</geoidheight><course>186.9</course><type>1</type></trkpt>
      <trkpt lat="40.21724993" lon="-4.95748948"><ele>1356</ele><speed>8.09</speed><time>2017-04-09T12:26:58Z</time><pdop>3.0</pdop><geoidheight>0.00</geoidheight><course>172.7</course><type>1</type></trkpt>
      <trkpt lat="40.21717868" lon="-4.95747218"><ele>1357</ele><speed>8.60</speed><time>2017-04-09T12:26:59Z</time><pdop>3.0</pdop><geoidheight>0.00</geoidheight><course>163.0</course><type>1</type></trkpt>
      <trkpt lat="40.21710382" lon="-4.95743808"><ele>1360</ele><speed>8.22</speed><time>2017-04-09T12:27:00Z</time><pdop>4.0</pdop><geoidheight>0.00</geoidheight><course>153.9</course><type>1</type></trkpt>
      <trkpt lat="40.21702435" lon="-4.95731512"><ele>1365</ele><speed>6.03</speed><time>2017-04-09T12:27:02Z</time><pdop>4.0</pdop><geoidheight>0.00</geoidheight><course>118.1</course><type>1</type></trkpt>
      <trkpt lat="40.21705757" lon="-4.95721427"><ele>1371</ele><speed>4.58</speed><time>2017-04-09T12:27:04Z</time><pdop>4.0</pdop><geoidheight>0.00</geoidheight><course>24.6</course><type>1</type></trkpt>
      <trkpt lat="40.21715388" lon="-4.95721025"><ele>1374</ele><speed>5.88</speed><time>2017-04-09T12:27:06Z</time><pdop>4.0</pdop><geoidheight>0.00</geoidheight><course>339.2</course><type>1</type></trkpt>
      <trkpt lat="40.21721885" lon="-4.95730464"><ele>1379</ele><speed>5.94</speed><time>2017-04-09T12:27:08Z</time><pdop>4.0</pdop><geoidheight>0.00</geoidheight><course>313.5</course><type>1</type></trkpt>
      <trkpt lat="40.21727131" lon="-4.95744288"><ele>1379</ele><speed>7.72</speed><time>2017-04-09T12:27:10Z</time><pdop>4.0</pdop><geoidheight>0.00</geoidheight><course>301.8</course><type>1</type></trkpt>
      <trkpt lat="40.21731334" lon="-4.95754761"><ele>1378</ele><speed>9.94</speed><time>2017-04-09T12:27:11Z</time><pdop>4.0</pdop><geoidheight>0.00</geoidheight><course>293.1</course><type>1</type></trkpt>
      <trkpt lat="40.217344" lon="-4.95767533"><ele>1378</ele><speed>12.38</speed><time>2017-04-09T12:27:12Z</time><pdop>4.0</pdop><geoidheight>0.00</geoidheight><course>282.3</course><type>1</type></trkpt>
      <trkpt lat="40.21735619" lon="-4.95783122"><ele>1378</ele><speed>13.60</speed><time>2017-04-09T12:27:13Z</time><pdop>4.0</pdop><geoidheight>0.00</geoidheight><course>273.6</course><type>1</type></trkpt>
      <trkpt lat="40.21735239" lon="-4.95800452"><ele>1378</ele><speed>14.63</speed><time>2017-04-09T12:27:14Z</time><pdop>4.0</pdop><geoidheight>0.00</geoidheight><course>266.2</course><type>1</type></trkpt>
      <trkpt lat="40.21732524" lon="-4.95816393"><ele>1380</ele><speed>13.63</speed><time>2017-04-09T12:27:15Z</time><pdop>4.0</pdop><geoidheight>0.00</geoidheight><course>255.5</course><type>1</type></trkpt>
      <trkpt lat="40.21728133" lon="-4.95831506"><ele>1383</ele><speed>13.39</speed><time>2017-04-09T12:27:16Z</time><pdop>4.0</pdop><geoidheight>0.00</geoidheight><course>247.1</course><type>1</type></trkpt>
      <trkpt lat="40.21722196" lon="-4.9584745"><ele>1383</ele><speed>14.72</speed><time>2017-04-09T12:27:17Z</time><pdop>4.0</pdop><geoidheight>0.00</geoidheight><course>244.0</course><type>1</type></trkpt>
      <trkpt lat="40.21715899" lon="-4.95863216"><ele>1386</ele><speed>15.77</speed><time>2017-04-09T12:27:18Z</time><pdop>4.0</pdop><geoidheight>0.00</geoidheight><course>240.6</course><type>1</type></trkpt>
      <trkpt lat="40.21708324" lon="-4.95878784"><ele>1387</ele><speed>15.48</speed><time>2017-04-09T12:27:19Z</time><pdop>4.0</pdop><geoidheight>0.00</geoidheight><course>236.7</course><type>1</type></trkpt>
      <trkpt lat="40.21698171" lon="-4.95889566"><ele>1391</ele><speed>13.88</speed><time>2017-04-09T12:27:20Z</time><pdop>4.0</pdop><geoidheight>0.00</geoidheight><course>217.3</course><type>1</type></trkpt>
      <trkpt lat="40.21687852" lon="-4.958962"><ele>1394</ele><speed>12.43</speed><time>2017-04-09T12:27:21Z</time><pdop>4.0</pdop><geoidheight>0.00</geoidheight><course>201.6</course><type>1</type></trkpt>
      <trkpt lat="40.21677654" lon="-4.95898802"><ele>1396</ele><speed>10.42</speed><time>2017-04-09T12:27:22Z</time><pdop>4.0</pdop><geoidheight>0.00</geoidheight><course>186.0</course><type>1</type></trkpt>
      <trkpt lat="40.21669576" lon="-4.95901877"><ele>1399</ele><speed>9.79</speed><time>2017-04-09T12:27:23Z</time><pdop>5.0</pdop><geoidheight>0.00</geoidheight><course>198.8</course><type>1</type></trkpt>
      <trkpt lat="40.21659056" lon="-4.95895768"><ele>1406</ele><speed>5.64</speed><time>2017-04-09T12:27:25Z</time><pdop>5.0</pdop><geoidheight>0.00</geoidheight><course>166.9</course><type>1</type></trkpt>
      <trkpt lat="40.21651797" lon="-4.95888517"><ele>1411</ele><speed>6.05</speed><time>2017-04-09T12:27:27Z</time><pdop>5.0</pdop><geoidheight>0.00</geoidheight><course>140.9</course><type>1</type></trkpt>
      <trkpt lat="40.21647501" lon="-4.95877712"><ele>1415</ele><speed>3.90</speed><time>2017-04-09T12:27:29Z</time><pdop>4.0</pdop><geoidheight>0.00</geoidheight><course>96.0</course><type>1</type></trkpt>
      <trkpt lat="40.21655912" lon="-4.95873589"><ele>1421</ele><speed>4.92</speed><time>2017-04-09T12:27:32Z</time><pdop>4.0</pdop><geoidheight>0.00</geoidheight><course>327.6</course><type>1</type></trkpt>
      <trkpt lat="40.21664071" lon="-4.95880941"><ele>1422</ele><speed>7.44</speed><time>2017-04-09T12:27:34Z</time><pdop>5.0</pdop><geoidheight>0.00</geoidheight><course>308.6</course><type>1</type></trkpt>
      <trkpt lat="40.21672205" lon="-4.95898254"><ele>1423</ele><speed>10.34</speed><time>2017-04-09T12:27:36Z</time><pdop>4.0</pdop><geoidheight>0.00</geoidheight><course>289.2</course><type>1</type></trkpt>
      <trkpt lat="40.21675258" lon="-4.95909729"><ele>1423</ele><speed>10.34</speed><time>2017-04-09T12:27:37Z</time><pdop>6.0</pdop><geoidheight>0.00</geoidheight><course>144.7</course><type>1</type></trkpt>
      <trkpt lat="40.21672962" lon="-4.95926749"><ele>1422</ele><speed>13.02</speed><time>2017-04-09T12:27:38Z</time><pdop>4.0</pdop><geoidheight>0.00</geoidheight><course>258.9</course><type>1</type></trkpt>
      <trkpt lat="40.21670622" lon="-4.95944069"><ele>1423</ele><speed>15.33</speed><time>2017-04-09T12:27:39Z</time><pdop>4.0</pdop><geoidheight>0.00</geoidheight><course>257.2</course><type>1</type></trkpt>
      <trkpt lat="40.21667196" lon="-4.95962672"><ele>1422</ele><speed>15.15</speed><time>2017-04-09T12:27:40Z</time><pdop>4.0</pdop><geoidheight>0.00</geoidheight><course>257.9</course><type>1</type></trkpt>
      <trkpt lat="40.21664544" lon="-4.95979332"><ele>1423</ele><speed>14.23</speed><time>2017-04-09T12:27:41Z</time><pdop>5.0</pdop><geoidheight>0.00</geoidheight><course>259.3</course><type>1</type></trkpt>
      <trkpt lat="40.21661852" lon="-4.95995494"><ele>1425</ele><speed>14.65</speed><time>2017-04-09T12:27:42Z</time><pdop>5.0</pdop><geoidheight>0.00</geoidheight><course>260.2</course><type>1</type></trkpt>
      <trkpt lat="40.21659664" lon="-4.96012222"><ele>1426</ele><speed>15.08</speed><time>2017-04-09T12:27:43Z</time><pdop>4.0</pdop><geoidheight>0.00</geoidheight><course>257.5</course><type>1</type></trkpt>
      <trkpt lat="40.21656136" lon="-4.96028672"><ele>1428</ele><speed>14.81</speed><time>2017-04-09T12:27:44Z</time><pdop>4.0</pdop><geoidheight>0.00</geoidheight><course>254.6</course><type>1</type></trkpt>
      <trkpt lat="40.21651685" lon="-4.96045787"><ele>1431</ele><speed>15.06</speed><time>2017-04-09T12:27:45Z</time><pdop>4.0</pdop><geoidheight>0.00</geoidheight><course>247.9</course><type>1</type></trkpt>
      <trkpt lat="40.21645253" lon="-4.96061533"><ele>1434</ele><speed>15.05</speed><time>2017-04-09T12:27:46Z</time><pdop>4.0</pdop><geoidheight>0.00</geoidheight><course>240.1</course><type>1</type></trkpt>
      <trkpt lat="40.21639005" lon="-4.96078364"><ele>1434</ele><speed>14.25</speed><time>2017-04-09T12:27:47Z</time><pdop>4.0</pdop><geoidheight>0.00</geoidheight><course>230.2</course><type>1</type></trkpt>
      <trkpt lat="40.2162979" lon="-4.96090812"><ele>1436</ele><speed>12.53</speed><time>2017-04-09T12:27:48Z</time><pdop>4.0</pdop><geoidheight>0.00</geoidheight><course>220.9</course><type>1</type></trkpt>
      <trkpt lat="40.21622122" lon="-4.96098076"><ele>1438</ele><speed>11.45</speed><time>2017-04-09T12:27:49Z</time><pdop>3.0</pdop><geoidheight>0.00</geoidheight><course>213.8</course><type>1</type></trkpt>
      <trkpt lat="40.21612812" lon="-4.96103845"><ele>1439</ele><speed>11.63</speed><time>2017-04-09T12:27:50Z</time><pdop>3.0</pdop><geoidheight>0.00</geoidheight><course>201.3</course><type>1</type></trkpt>
      <trkpt lat="40.21603028" lon="-4.96107984"><ele>1439</ele><speed>12.11</speed><time>2017-04-09T12:27:51Z</time><pdop>3.0</pdop><geoidheight>0.00</geoidheight><course>187.7</course><type>1</type></trkpt>
      <trkpt lat="40.21593279" lon="-4.96107033"><ele>1439</ele><speed>11.20</speed><time>2017-04-09T12:27:52Z</time><pdop>3.0</pdop><geoidheight>0.00</geoidheight><course>170.4</course><type>1</type></trkpt>
      <trkpt lat="40.21584558" lon="-4.96103749"><ele>1439</ele><speed>9.93</speed><time>2017-04-09T12:27:53Z</time><pdop>3.0</pdop><geoidheight>0.00</geoidheight><course>153.9</course><type>1</type></trkpt>
      <trkpt lat="40.21579245" lon="-4.96097616"><ele>1440</ele><speed>7.75</speed><time>2017-04-09T12:27:54Z</time><pdop>4.0</pdop><geoidheight>0.00</geoidheight><course>127.2</course><type>1</type></trkpt>
      <trkpt lat="40.21574967" lon="-4.96082813"><ele>1441</ele><speed>5.57</speed><time>2017-04-09T12:27:56Z</time><pdop>4.0</pdop><geoidheight>0.00</geoidheight><course>106.8</course><type>1</type></trkpt>
      <trkpt lat="40.21573643" lon="-4.96071801"><ele>1450</ele><speed>2.90</speed><time>2017-04-09T12:27:59Z</time><pdop>4.0</pdop><geoidheight>0.00</geoidheight><course>142.6</course><type>1</type></trkpt>
      <trkpt lat="40.21572354" lon="-4.9605774"><ele>1451</ele><speed>3.64</speed><time>2017-04-09T12:28:03Z</time><pdop>5.0</pdop><geoidheight>0.00</geoidheight><course>21.6</course><type>1</type></trkpt>
      <trkpt lat="40.21584829" lon="-4.96070204"><ele>1450</ele><speed>10.96</speed><time>2017-04-09T12:28:06Z</time><pdop>4.0</pdop><geoidheight>0.00</geoidheight><course>303.4</course><type>1</type></trkpt>
      <trkpt lat="40.21589289" lon="-4.96082702"><ele>1451</ele><speed>12.68</speed><time>2017-04-09T12:28:07Z</time><pdop>4.0</pdop><geoidheight>0.00</geoidheight><course>289.4</course><type>1</type></trkpt>
      <trkpt lat="40.21592273" lon="-4.96098582"><ele>1451</ele><speed>13.68</speed><time>2017-04-09T12:28:08Z</time><pdop>4.0</pdop><geoidheight>0.00</geoidheight><course>279.5</course><type>1</type></trkpt>
      <trkpt lat="40.21593837" lon="-4.96114899"><ele>1452</ele><speed>13.91</speed><time>2017-04-09T12:28:09Z</time><pdop>4.0</pdop><geoidheight>0.00</geoidheight><course>272.3</course><type>1</type></trkpt>
      <trkpt lat="40.21593161" lon="-4.9613192"><ele>1452</ele><speed>14.61</speed><time>2017-04-09T12:28:10Z</time><pdop>4.0</pdop><geoidheight>0.00</geoidheight><course>264.5</course><type>1</type></trkpt>
      <trkpt lat="40.21589223" lon="-4.96148139"><ele>1454</ele><speed>15.11</speed><time>2017-04-09T12:28:11Z</time><pdop>4.0</pdop><geoidheight>0.00</geoidheight><course>254.0</course><type>1</type></trkpt>
      <trkpt lat="40.21584229" lon="-4.96164377"><ele>1454</ele><speed>14.81</speed><time>2017-04-09T12:28:12Z</time><pdop>4.0</pdop><geoidheight>0.00</geoidheight><course>243.8</course><type>1</type></trkpt>
      <trkpt lat="40.21577544" lon="-4.96178979"><ele>1455</ele><speed>13.89</speed><time>2017-04-09T12:28:13Z</time><pdop>4.0</pdop><geoidheight>0.00</geoidheight><course>230.3</course><type>1</type></trkpt>
      <trkpt lat="40.21569511" lon="-4.96191203"><ele>1459</ele><speed>12.09</speed><time>2017-04-09T12:28:14Z</time><pdop>4.0</pdop><geoidheight>0.00</geoidheight><course>218.5</course><type>1</type></trkpt>
      <trkpt lat="40.21560667" lon="-4.96200359"><ele>1461</ele><speed>10.81</speed><time>2017-04-09T12:28:15Z</time><pdop>4.0</pdop><geoidheight>0.00</geoidheight><course>210.8</course><type>1</type></trkpt>
      <trkpt lat="40.21553246" lon="-4.96206008"><ele>1462</ele><speed>10.32</speed><time>2017-04-09T12:28:16Z</time><pdop>4.0</pdop><geoidheight>0.00</geoidheight><course>206.3</course><type>1</type></trkpt>
      <trkpt lat="40.21544888" lon="-4.96211266"><ele>1463</ele><speed>10.30</speed><time>2017-04-09T12:28:17Z</time><pdop>4.0</pdop><geoidheight>0.00</geoidheight><course>196.6</course><type>1</type></trkpt>
      <trkpt lat="40.21536133" lon="-4.96215937"><ele>1463</ele><speed>10.62</speed><time>2017-04-09T12:28:18Z</time><pdop>4.0</pdop><geoidheight>0.00</geoidheight><course>205.5</course><type>1</type></trkpt>
      <trkpt lat="40.21527331" lon="-4.96220307"><ele>1465</ele><speed>11.69</speed><time>2017-04-09T12:28:19Z</time><pdop>4.0</pdop><geoidheight>0.00</geoidheight><course>209.9</course><type>1</type></trkpt>
      <trkpt lat="40.21517243" lon="-4.96222722"><ele>1466</ele><speed>11.26</speed><time>2017-04-09T12:28:20Z</time><pdop>4.0</pdop><geoidheight>0.00</geoidheight><course>191.0</course><type>1</type></trkpt>
      <trkpt lat="40.21507468" lon="-4.96224734"><ele>1466</ele><speed>11.27</speed><time>2017-04-09T12:28:21Z</time><pdop>4.0</pdop><geoidheight>0.00</geoidheight><course>183.8</course><type>1</type></trkpt>
      <trkpt lat="40.21498172" lon="-4.96222691"><ele>1465</ele><speed>10.01</speed><time>2017-04-09T12:28:22Z</time><pdop>4.0</pdop><geoidheight>0.00</geoidheight><course>170.6</course><type>1</type></trkpt>
      <trkpt lat="40.21490137" lon="-4.96220005"><ele>1464</ele><speed>8.73</speed><time>2017-04-09T12:28:23Z</time><pdop>4.0</pdop><geoidheight>0.00</geoidheight><course>163.2</course><type>1</type></trkpt>
      <trkpt lat="40.21479117" lon="-4.96211483"><ele>1465</ele><speed>6.48</speed><time>2017-04-09T12:28:25Z</time><pdop>4.0</pdop><geoidheight>0.00</geoidheight><course>125.6</course><type>1</type></trkpt>
      <trkpt lat="40.21476493" lon="-4.96200114"><ele>1466</ele><speed>4.18</speed><time>2017-04-09T12:28:27Z</time><pdop>4.0</pdop><geoidheight>0.00</geoidheight><course>94.3</course><type>1</type></trkpt>
      <trkpt lat="40.21484642" lon="-4.96193872"><ele>1467</ele><speed>6.02</speed><time>2017-04-09T12:28:31Z</time><pdop>4.0</pdop><geoidheight>0.00</geoidheight><course>357.2</course><type>1</type></trkpt>
      <trkpt lat="40.21492101" lon="-4.96198683"><ele>1465</ele><speed>8.61</speed><time>2017-04-09T12:28:32Z</time><pdop>4.0</pdop><geoidheight>0.00</geoidheight><course>334.7</course><type>1</type></trkpt>
      <trkpt lat="40.21498941" lon="-4.96205516"><ele>1465</ele><speed>9.44</speed><time>2017-04-09T12:28:33Z</time><pdop>4.0</pdop><geoidheight>0.00</geoidheight><course>314.5</course><type>1</type></trkpt>
      <trkpt lat="40.21503321" lon="-4.96214546"><ele>1465</ele><speed>10.34</speed><time>2017-04-09T12:28:34Z</time><pdop>4.0</pdop><geoidheight>0.00</geoidheight><course>298.2</course><type>1</type></trkpt>
      <trkpt lat="40.21507775" lon="-4.96225683"><ele>1464</ele><speed>11.56</speed><time>2017-04-09T12:28:35Z</time><pdop>4.0</pdop><geoidheight>0.00</geoidheight><course>290.1</course><type>1</type></trkpt>
      <trkpt lat="40.21511269" lon="-4.96238772"><ele>1463</ele><speed>13.25</speed><time>2017-04-09T12:28:36Z</time><pdop>4.0</pdop><geoidheight>0.00</geoidheight><course>287.9</course><type>1</type></trkpt>
      <trkpt lat="40.21514364" lon="-4.96255571"><ele>1461</ele><speed>15.05</speed><time>2017-04-09T12:28:37Z</time><pdop>4.0</pdop><geoidheight>0.00</geoidheight><course>288.5</course><type>1</type></trkpt>
      <trkpt lat="40.21517572" lon="-4.96273513"><ele>1461</ele><speed>15.85</speed><time>2017-04-09T12:28:38Z</time><pdop>4.0</pdop><geoidheight>0.00</geoidheight><course>283.0</course><type>1</type></trkpt>
      <trkpt lat="40.21520189" lon="-4.96291485"><ele>1461</ele><speed>15.60</speed><time>2017-04-09T12:28:39Z</time><pdop>4.0</pdop><geoidheight>0.00</geoidheight><course>280.7</course><type>1</type></trkpt>
      <trkpt lat="40.21518173" lon="-4.96309594"><ele>1461</ele><speed>15.08</speed><time>2017-04-09T12:28:40Z</time><pdop>5.0</pdop><geoidheight>0.00</geoidheight><course>263.2</course><type>1</type></trkpt>
      <trkpt lat="40.2151523" lon="-4.96326353"><ele>1461</ele><speed>14.58</speed><time>2017-04-09T12:28:41Z</time><pdop>4.0</pdop><geoidheight>0.00</geoidheight><course>255.4</course><type>1</type></trkpt>
      <trkpt lat="40.21510676" lon="-4.96343538"><ele>1460</ele><speed>14.24</speed><time>2017-04-09T12:28:42Z</time><pdop>4.0</pdop><geoidheight>0.00</geoidheight><course>254.9</course><type>1</type></trkpt>
      <trkpt lat="40.21507819" lon="-4.9636096"><ele>1458</ele><speed>15.59</speed><time>2017-04-09T12:28:43Z</time><pdop>4.0</pdop><geoidheight>0.00</geoidheight><course>257.6</course><type>1</type></trkpt>
      <trkpt lat="40.21503188" lon="-4.96378324"><ele>1455</ele><speed>17.22</speed><time>2017-04-09T12:28:44Z</time><pdop>4.0</pdop><geoidheight>0.00</geoidheight><course>253.6</course><type>1</type></trkpt>
      <trkpt lat="40.21498268" lon="-4.96395311"><ele>1455</ele><speed>18.40</speed><time>2017-04-09T12:28:45Z</time><pdop>4.0</pdop><geoidheight>0.00</geoidheight><course>248.8</course><type>1</type></trkpt>
      <trkpt lat="40.21491444" lon="-4.96414201"><ele>1456</ele><speed>16.99</speed><time>2017-04-09T12:28:46Z</time><pdop>4.0</pdop><geoidheight>0.00</geoidheight><course>246.0</course><type>1</type></trkpt>
      <trkpt lat="40.21486016" lon="-4.96433124"><ele>1457</ele><speed>16.48</speed><time>2017-04-09T12:28:47Z</time><pdop>4.0</pdop><geoidheight>0.00</geoidheight><course>250.1</course><type>1</type></trkpt>
      <trkpt lat="40.2148018" lon="-4.96449764"><ele>1457</ele><speed>14.98</speed><time>2017-04-09T12:28:48Z</time><pdop>4.0</pdop><geoidheight>0.00</geoidheight><course>245.6</course><type>1</type></trkpt>
      <trkpt lat="40.21473915" lon="-4.96466425"><ele>1458</ele><speed>15.44</speed><time>2017-04-09T12:28:49Z</time><pdop>4.0</pdop><geoidheight>0.00</geoidheight><course>245.5</course><type>1</type></trkpt>
      <trkpt lat="40.21467053" lon="-4.96482884"><ele>1458</ele><speed>16.15</speed><time>2017-04-09T12:28:50Z</time><pdop>4.0</pdop><geoidheight>0.00</geoidheight><course>242.4</course><type>1</type></trkpt>
      <trkpt lat="40.21457883" lon="-4.96501094"><ele>1457</ele><speed>15.59</speed><time>2017-04-09T12:28:51Z</time><pdop>4.0</pdop><geoidheight>0.00</geoidheight><course>234.1</course><type>1</type></trkpt>
      <trkpt lat="40.21450173" lon="-4.96515995"><ele>1458</ele><speed>15.08</speed><time>2017-04-09T12:28:52Z</time><pdop>4.0</pdop><geoidheight>0.00</geoidheight><course>223.2</course><type>1</type></trkpt>
      <trkpt lat="40.21438571" lon="-4.96527431"><ele>1457</ele><speed>14.79</speed><time>2017-04-09T12:28:53Z</time><pdop>4.0</pdop><geoidheight>0.00</geoidheight><course>210.5</course><type>1</type></trkpt>
      <trkpt lat="40.21426472" lon="-4.96534049"><ele>1456</ele><speed>14.13</speed><time>2017-04-09T12:28:54Z</time><pdop>4.0</pdop><geoidheight>0.00</geoidheight><course>200.6</course><type>1</type></trkpt>
      <trkpt lat="40.21413666" lon="-4.96536967"><ele>1456</ele><speed>13.03</speed><time>2017-04-09T12:28:55Z</time><pdop>4.0</pdop><geoidheight>0.00</geoidheight><course>187.1</course><type>1</type></trkpt>
      <trkpt lat="40.21403002" lon="-4.96537601"><ele>1455</ele><speed>11.24</speed><time>2017-04-09T12:28:56Z</time><pdop>4.0</pdop><geoidheight>0.00</geoidheight><course>176.1</course><type>1</type></trkpt>
      <trkpt lat="40.21394061" lon="-4.96535207"><ele>1455</ele><speed>9.43</speed><time>2017-04-09T12:28:57Z</time><pdop>4.0</pdop><geoidheight>0.00</geoidheight><course>167.3</course><type>1</type></trkpt>
      <trkpt lat="40.21387206" lon="-4.96531883"><ele>1455</ele><speed>7.33</speed><time>2017-04-09T12:28:58Z</time><pdop>3.0</pdop><geoidheight>0.00</geoidheight><course>158.0</course><type>1</type></trkpt>
      <trkpt lat="40.2138046" lon="-4.96524321"><ele>1452</ele><speed>3.22</speed><time>2017-04-09T12:29:00Z</time><pdop>3.0</pdop><geoidheight>0.00</geoidheight><course>133.6</course><type>1</type></trkpt>
      <trkpt lat="40.21383249" lon="-4.96515437"><ele>1449</ele><speed>4.22</speed><time>2017-04-09T12:29:02Z</time><pdop>3.0</pdop><geoidheight>0.00</geoidheight><course>49.0</course><type>1</type></trkpt>
      <trkpt lat="40.21387642" lon="-4.96510861"><ele>1449</ele><speed>2.74</speed><time>2017-04-09T12:29:04Z</time><pdop>3.0</pdop><geoidheight>0.00</geoidheight><course>2.8</course><type>1</type></trkpt>
      <trkpt lat="40.21395018" lon="-4.96518156"><ele>1448</ele><speed>7.68</speed><time>2017-04-09T12:29:06Z</time><pdop>3.0</pdop><geoidheight>0.00</geoidheight><course>313.2</course><type>1</type></trkpt>
      <trkpt lat="40.2140146" lon="-4.96526711"><ele>1446</ele><speed>9.82</speed><time>2017-04-09T12:29:07Z</time><pdop>3.0</pdop><geoidheight>0.00</geoidheight><course>309.7</course><type>1</type></trkpt>
      <trkpt lat="40.21407382" lon="-4.96537009"><ele>1444</ele><speed>11.11</speed><time>2017-04-09T12:29:08Z</time><pdop>3.0</pdop><geoidheight>0.00</geoidheight><course>302.9</course><type>1</type></trkpt>
      <trkpt lat="40.2141198" lon="-4.96548453"><ele>1443</ele><speed>13.40</speed><time>2017-04-09T12:29:09Z</time><pdop>3.0</pdop><geoidheight>0.00</geoidheight><course>291.0</course><type>1</type></trkpt>
      <trkpt lat="40.21414789" lon="-4.96566034"><ele>1441</ele><speed>16.43</speed><time>2017-04-09T12:29:10Z</time><pdop>3.0</pdop><geoidheight>0.00</geoidheight><course>277.1</course><type>1</type></trkpt>
      <trkpt lat="40.21415866" lon="-4.96585451"><ele>1441</ele><speed>16.28</speed><time>2017-04-09T12:29:11Z</time><pdop>3.0</pdop><geoidheight>0.00</geoidheight><course>272.0</course><type>1</type></trkpt>
      <trkpt lat="40.21410752" lon="-4.96607065"><ele>1441</ele><speed>18.97</speed><time>2017-04-09T12:29:12Z</time><pdop>4.0</pdop><geoidheight>0.00</geoidheight><course>253.0</course><type>1</type></trkpt>
      <trkpt lat="40.21369485" lon="-4.96711273"><ele>1441</ele><speed>15.69</speed><time>2017-04-09T12:29:18Z</time><pdop>4.0</pdop><geoidheight>0.00</geoidheight><course>241.8</course><type>1</type></trkpt>
      <trkpt lat="40.21363303" lon="-4.96728667"><ele>1439</ele><speed>15.36</speed><time>2017-04-09T12:29:19Z</time><pdop>4.0</pdop><geoidheight>0.00</geoidheight><course>244.5</course><type>1</type></trkpt>
      <trkpt lat="40.21356917" lon="-4.96745212"><ele>1438</ele><speed>15.98</speed><time>2017-04-09T12:29:20Z</time><pdop>4.0</pdop><geoidheight>0.00</geoidheight><course>245.8</course><type>1</type></trkpt>
      <trkpt lat="40.2134926" lon="-4.96763235"><ele>1435</ele><speed>16.82</speed><time>2017-04-09T12:29:21Z</time><pdop>3.0</pdop><geoidheight>0.00</geoidheight><course>240.2</course><type>1</type></trkpt>
      <trkpt lat="40.21341624" lon="-4.96781174"><ele>1432</ele><speed>17.48</speed><time>2017-04-09T12:29:22Z</time><pdop>3.0</pdop><geoidheight>0.00</geoidheight><course>242.3</course><type>1</type></trkpt>
      <trkpt lat="40.21335464" lon="-4.96799942"><ele>1431</ele><speed>17.63</speed><time>2017-04-09T12:29:23Z</time><pdop>4.0</pdop><geoidheight>0.00</geoidheight><course>246.9</course><type>1</type></trkpt>
      <trkpt lat="40.21329665" lon="-4.96818541"><ele>1429</ele><speed>17.33</speed><time>2017-04-09T12:29:24Z</time><pdop>3.0</pdop><geoidheight>0.00</geoidheight><course>250.3</course><type>1</type></trkpt>
      <trkpt lat="40.21322547" lon="-4.9683779"><ele>1426</ele><speed>17.39</speed><time>2017-04-09T12:29:25Z</time><pdop>3.0</pdop><geoidheight>0.00</geoidheight><course>247.4</course><type>1</type></trkpt>
      <trkpt lat="40.21316964" lon="-4.96856097"><ele>1423</ele><speed>17.07</speed><time>2017-04-09T12:29:26Z</time><pdop>3.0</pdop><geoidheight>0.00</geoidheight><course>244.9</course><type>1</type></trkpt>
      <trkpt lat="40.21310043" lon="-4.96874257"><ele>1422</ele><speed>16.99</speed><time>2017-04-09T12:29:27Z</time><pdop>3.0</pdop><geoidheight>0.00</geoidheight><course>245.8</course><type>1</type></trkpt>
      <trkpt lat="40.21305108" lon="-4.96892758"><ele>1421</ele><speed>16.86</speed><time>2017-04-09T12:29:28Z</time><pdop>3.0</pdop><geoidheight>0.00</geoidheight><course>249.6</course><type>1</type></trkpt>
      <trkpt lat="40.21301054" lon="-4.96912298"><ele>1417</ele><speed>16.97</speed><time>2017-04-09T12:29:29Z</time><pdop>3.0</pdop><geoidheight>0.00</geoidheight><course>255.3</course><type>1</type></trkpt>
      <trkpt lat="40.21297768" lon="-4.96933456"><ele>1415</ele><speed>17.48</speed><time>2017-04-09T12:29:30Z</time><pdop>3.0</pdop><geoidheight>0.00</geoidheight><course>256.6</course><type>1</type></trkpt>
      <trkpt lat="40.21293349" lon="-4.96952798"><ele>1414</ele><speed>17.60</speed><time>2017-04-09T12:29:31Z</time><pdop>3.0</pdop><geoidheight>0.00</geoidheight><course>251.3</course><type>1</type></trkpt>
      <trkpt lat="40.21287311" lon="-4.96973688"><ele>1412</ele><speed>18.20</speed><time>2017-04-09T12:29:32Z</time><pdop>3.0</pdop><geoidheight>0.00</geoidheight><course>252.0</course><type>1</type></trkpt>
      <trkpt lat="40.21260923" lon="-4.97079962"><ele>1406</ele><speed>18.45</speed><time>2017-04-09T12:29:37Z</time><pdop>4.0</pdop><geoidheight>0.00</geoidheight><course>251.6</course><type>1</type></trkpt>
      <trkpt lat="40.21255705" lon="-4.97099867"><ele>1406</ele><speed>18.09</speed><time>2017-04-09T12:29:38Z</time><pdop>4.0</pdop><geoidheight>0.00</geoidheight><course>251.0</course><type>1</type></trkpt>
      <trkpt lat="40.2125043" lon="-4.97119349"><ele>1405</ele><speed>18.43</speed><time>2017-04-09T12:29:39Z</time><pdop>4.0</pdop><geoidheight>0.00</geoidheight><course>252.3</course><type>1</type></trkpt>
      <trkpt lat="40.21245759" lon="-4.97140078"><ele>1404</ele><speed>18.64</speed><time>2017-04-09T12:29:40Z</time><pdop>4.0</pdop><geoidheight>0.00</geoidheight><course>254.5</course><type>1</type></trkpt>
      <trkpt lat="40.21241798" lon="-4.9716162"><ele>1403</ele><speed>18.78</speed><time>2017-04-09T12:29:41Z</time><pdop>4.0</pdop><geoidheight>0.00</geoidheight><course>256.9</course><type>1</type></trkpt>
      <trkpt lat="40.21237664" lon="-4.97183509"><ele>1402</ele><speed>19.16</speed><time>2017-04-09T12:29:42Z</time><pdop>4.0</pdop><geoidheight>0.00</geoidheight><course>255.2</course><type>1</type></trkpt>
      <trkpt lat="40.21231864" lon="-4.97206228"><ele>1400</ele><speed>20.43</speed><time>2017-04-09T12:29:43Z</time><pdop>5.0</pdop><geoidheight>0.00</geoidheight><course>253.4</course><type>1</type></trkpt>
      <trkpt lat="40.21227015" lon="-4.97227366"><ele>1400</ele><speed>20.26</speed><time>2017-04-09T12:29:44Z</time><pdop>4.0</pdop><geoidheight>0.00</geoidheight><course>251.7</course><type>1</type></trkpt>
      <trkpt lat="40.21221154" lon="-4.97249016"><ele>1398</ele><speed>19.46</speed><time>2017-04-09T12:29:45Z</time><pdop>3.0</pdop><geoidheight>0.00</geoidheight><course>250.8</course><type>1</type></trkpt>
      <trkpt lat="40.21215003" lon="-4.97269972"><ele>1397</ele><speed>18.55</speed><time>2017-04-09T12:29:46Z</time><pdop>3.0</pdop><geoidheight>0.00</geoidheight><course>252.5</course><type>1</type></trkpt>
      <trkpt lat="40.21210178" lon="-4.97290092"><ele>1396</ele><speed>18.05</speed><time>2017-04-09T12:29:47Z</time><pdop>3.0</pdop><geoidheight>0.00</geoidheight><course>253.4</course><type>1</type></trkpt>
      <trkpt lat="40.21203758" lon="-4.97312182"><ele>1392</ele><speed>18.65</speed><time>2017-04-09T12:29:48Z</time><pdop>4.0</pdop><geoidheight>0.00</geoidheight><course>254.1</course><type>1</type></trkpt>
      <trkpt lat="40.21198938" lon="-4.9733383"><ele>1391</ele><speed>20.07</speed><time>2017-04-09T12:29:49Z</time><pdop>4.0</pdop><geoidheight>0.00</geoidheight><course>254.2</course><type>1</type></trkpt>
      <trkpt lat="40.21192656" lon="-4.97357349"><ele>1387</ele><speed>19.50</speed><time>2017-04-09T12:29:50Z</time><pdop>3.0</pdop><geoidheight>0.00</geoidheight><course>254.5</course><type>1</type></trkpt>
      <trkpt lat="40.21187865" lon="-4.97380063"><ele>1385</ele><speed>19.09</speed><time>2017-04-09T12:29:51Z</time><pdop>3.0</pdop><geoidheight>0.00</geoidheight><course>256.5</course><type>1</type></trkpt>
      <trkpt lat="40.21183417" lon="-4.97402031"><ele>1384</ele><speed>19.22</speed><time>2017-04-09T12:29:52Z</time><pdop>5.0</pdop><geoidheight>0.00</geoidheight><course>255.5</course><type>1</type></trkpt>
      <trkpt lat="40.21178687" lon="-4.97418723"><ele>1379</ele><speed>16.89</speed><time>2017-04-09T12:29:53Z</time><pdop>4.0</pdop><geoidheight>0.00</geoidheight><course>255.5</course><type>1</type></trkpt>
      <trkpt lat="40.21175425" lon="-4.97440163"><ele>1376</ele><speed>18.13</speed><time>2017-04-09T12:29:54Z</time><pdop>4.0</pdop><geoidheight>0.00</geoidheight><course>254.9</course><type>1</type></trkpt>
      <trkpt lat="40.21172377" lon="-4.97461564"><ele>1371</ele><speed>18.55</speed><time>2017-04-09T12:29:55Z</time><pdop>4.0</pdop><geoidheight>0.00</geoidheight><course>256.7</course><type>1</type></trkpt>
      <trkpt lat="40.21169535" lon="-4.97482599"><ele>1367</ele><speed>18.25</speed><time>2017-04-09T12:29:56Z</time><pdop>4.0</pdop><geoidheight>0.00</geoidheight><course>265.2</course><type>1</type></trkpt>
      <trkpt lat="40.21166569" lon="-4.97499793"><ele>1363</ele><speed>18.57</speed><time>2017-04-09T12:29:57Z</time><pdop>3.0</pdop><geoidheight>0.00</geoidheight><course>258.6</course><type>1</type></trkpt>
      <trkpt lat="40.21163357" lon="-4.97521227"><ele>1360</ele><speed>18.56</speed><time>2017-04-09T12:29:58Z</time><pdop>4.0</pdop><geoidheight>0.00</geoidheight><course>257.6</course><type>1</type></trkpt>
      <trkpt lat="40.21161141" lon="-4.97542221"><ele>1357</ele><speed>17.78</speed><time>2017-04-09T12:29:59Z</time><pdop>3.0</pdop><geoidheight>0.00</geoidheight><course>256.3</course><type>1</type></trkpt>
      <trkpt lat="40.21157546" lon="-4.97563421"><ele>1356</ele><speed>18.47</speed><time>2017-04-09T12:30:00Z</time><pdop>3.0</pdop><geoidheight>0.00</geoidheight><course>255.7</course><type>1</type></trkpt>
      <trkpt lat="40.21154544" lon="-4.97586092"><ele>1353</ele><speed>19.62</speed><time>2017-04-09T12:30:01Z</time><pdop>3.0</pdop><geoidheight>0.00</geoidheight><course>259.1</course><type>1</type></trkpt>
      <trkpt lat="40.21151858" lon="-4.97608918"><ele>1350</ele><speed>19.14</speed><time>2017-04-09T12:30:02Z</time><pdop>3.0</pdop><geoidheight>0.00</geoidheight><course>258.4</course><type>1</type></trkpt>
      <trkpt lat="40.21148686" lon="-4.97630399"><ele>1349</ele><speed>19.19</speed><time>2017-04-09T12:30:03Z</time><pdop>3.0</pdop><geoidheight>0.00</geoidheight><course>257.0</course><type>1</type></trkpt>
      <trkpt lat="40.21145753" lon="-4.97651711"><ele>1347</ele><speed>19.11</speed><time>2017-04-09T12:30:04Z</time><pdop>3.0</pdop><geoidheight>0.00</geoidheight><course>255.4</course><type>1</type></trkpt>
      <trkpt lat="40.21141924" lon="-4.97674134"><ele>1345</ele><speed>19.17</speed><time>2017-04-09T12:30:05Z</time><pdop>4.0</pdop><geoidheight>0.00</geoidheight><course>255.6</course><type>1</type></trkpt>
      <trkpt lat="40.21136568" lon="-4.97697213"><ele>1343</ele><speed>19.64</speed><time>2017-04-09T12:30:06Z</time><pdop>4.0</pdop><geoidheight>0.00</geoidheight><course>254.3</course><type>1</type></trkpt>
      <trkpt lat="40.21133194" lon="-4.97719558"><ele>1340</ele><speed>20.09</speed><time>2017-04-09T12:30:07Z</time><pdop>4.0</pdop><geoidheight>0.00</geoidheight><course>256.4</course><type>1</type></trkpt>
      <trkpt lat="40.21128363" lon="-4.97740771"><ele>1336</ele><speed>20.32</speed><time>2017-04-09T12:30:08Z</time><pdop>4.0</pdop><geoidheight>0.00</geoidheight><course>254.9</course><type>1</type></trkpt>
      <trkpt lat="40.21123601" lon="-4.97762956"><ele>1332</ele><speed>20.07</speed><time>2017-04-09T12:30:09Z</time><pdop>4.0</pdop><geoidheight>0.00</geoidheight><course>253.0</course><type>1</type></trkpt>
      <trkpt lat="40.21117773" lon="-4.97785584"><ele>1331</ele><speed>19.76</speed><time>2017-04-09T12:30:10Z</time><pdop>4.0</pdop><geoidheight>0.00</geoidheight><course>253.3</course><type>1</type></trkpt>
      <trkpt lat="40.21112321" lon="-4.97807456"><ele>1328</ele><speed>19.54</speed><time>2017-04-09T12:30:11Z</time><pdop>4.0</pdop><geoidheight>0.00</geoidheight><course>253.6</course><type>1</type></trkpt>
      <trkpt lat="40.21108337" lon="-4.97829999"><ele>1326</ele><speed>19.62</speed><time>2017-04-09T12:30:12Z</time><pdop>4.0</pdop><geoidheight>0.00</geoidheight><course>253.1</course><type>1</type></trkpt>
      <trkpt lat="40.21102447" lon="-4.97851688"><ele>1323</ele><speed>19.42</speed><time>2017-04-09T12:30:13Z</time><pdop>4.0</pdop><geoidheight>0.00</geoidheight><course>250.8</course><type>1</type></trkpt>
      <trkpt lat="40.21097096" lon="-4.97873711"><ele>1320</ele><speed>19.51</speed><time>2017-04-09T12:30:14Z</time><pdop>4.0</pdop><geoidheight>0.00</geoidheight><course>252.0</course><type>1</type></trkpt>
      <trkpt lat="40.21091716" lon="-4.9789609"><ele>1319</ele><speed>20.58</speed><time>2017-04-09T12:30:15Z</time><pdop>4.0</pdop><geoidheight>0.00</geoidheight><course>249.7</course><type>1</type></trkpt>
      <trkpt lat="40.21086138" lon="-4.97919598"><ele>1318</ele><speed>20.60</speed><time>2017-04-09T12:30:16Z</time><pdop>4.0</pdop><geoidheight>0.00</geoidheight><course>251.3</course><type>1</type></trkpt>
      <trkpt lat="40.21081947" lon="-4.97941578"><ele>1315</ele><speed>19.85</speed><time>2017-04-09T12:30:17Z</time><pdop>4.0</pdop><geoidheight>0.00</geoidheight><course>257.0</course><type>1</type></trkpt>
      <trkpt lat="40.21077656" lon="-4.97963504"><ele>1312</ele><speed>17.97</speed><time>2017-04-09T12:30:18Z</time><pdop>4.0</pdop><geoidheight>0.00</geoidheight><course>261.3</course><type>1</type></trkpt>
      <trkpt lat="40.2107575" lon="-4.9798435"><ele>1311</ele><speed>17.14</speed><time>2017-04-09T12:30:19Z</time><pdop>4.0</pdop><geoidheight>0.00</geoidheight><course>262.5</course><type>1</type></trkpt>
      <trkpt lat="40.21073997" lon="-4.98005511"><ele>1310</ele><speed>18.21</speed><time>2017-04-09T12:30:20Z</time><pdop>4.0</pdop><geoidheight>0.00</geoidheight><course>263.1</course><type>1</type></trkpt>
      <trkpt lat="40.21071253" lon="-4.98028966"><ele>1308</ele><speed>20.45</speed><time>2017-04-09T12:30:21Z</time><pdop>4.0</pdop><geoidheight>0.00</geoidheight><course>260.9</course><type>1</type></trkpt>
      <trkpt lat="40.21068301" lon="-4.98051897"><ele>1306</ele><speed>20.37</speed><time>2017-04-09T12:30:22Z</time><pdop>4.0</pdop><geoidheight>0.00</geoidheight><course>258.9</course><type>1</type></trkpt>
      <trkpt lat="40.21063808" lon="-4.98075074"><ele>1301</ele><speed>20.47</speed><time>2017-04-09T12:30:23Z</time><pdop>4.0</pdop><geoidheight>0.00</geoidheight><course>258.4</course><type>1</type></trkpt>
      <trkpt lat="40.21061024" lon="-4.98098464"><ele>1300</ele><speed>19.17</speed><time>2017-04-09T12:30:24Z</time><pdop>4.0</pdop><geoidheight>0.00</geoidheight><course>261.3</course><type>1</type></trkpt>
      <trkpt lat="40.21059435" lon="-4.98118331"><ele>1299</ele><speed>17.88</speed><time>2017-04-09T12:30:25Z</time><pdop>4.0</pdop><geoidheight>0.00</geoidheight><course>260.5</course><type>1</type></trkpt>
      <trkpt lat="40.21056285" lon="-4.98136577"><ele>1296</ele><speed>17.84</speed><time>2017-04-09T12:30:26Z</time><pdop>4.0</pdop><geoidheight>0.00</geoidheight><course>261.6</course><type>1</type></trkpt>
      <trkpt lat="40.21052846" lon="-4.98157503"><ele>1294</ele><speed>18.96</speed><time>2017-04-09T12:30:27Z</time><pdop>4.0</pdop><geoidheight>0.00</geoidheight><course>258.5</course><type>1</type></trkpt>
      <trkpt lat="40.21049781" lon="-4.98179965"><ele>1293</ele><speed>19.63</speed><time>2017-04-09T12:30:28Z</time><pdop>4.0</pdop><geoidheight>0.00</geoidheight><course>256.8</course><type>1</type></trkpt>
      <trkpt lat="40.21043745" lon="-4.98203439"><ele>1289</ele><speed>19.78</speed><time>2017-04-09T12:30:29Z</time><pdop>4.0</pdop><geoidheight>0.00</geoidheight><course>253.7</course><type>1</type></trkpt>
      <trkpt lat="40.21037659" lon="-4.98227307"><ele>1287</ele><speed>19.06</speed><time>2017-04-09T12:30:30Z</time><pdop>4.0</pdop><geoidheight>0.00</geoidheight><course>254.3</course><type>1</type></trkpt>
      <trkpt lat="40.21033316" lon="-4.98248944"><ele>1286</ele><speed>19.03</speed><time>2017-04-09T12:30:31Z</time><pdop>4.0</pdop><geoidheight>0.00</geoidheight><course>257.3</course><type>1</type></trkpt>
      <trkpt lat="40.21028223" lon="-4.98269358"><ele>1285</ele><speed>19.34</speed><time>2017-04-09T12:30:32Z</time><pdop>3.0</pdop><geoidheight>0.00</geoidheight><course>256.0</course><type>1</type></trkpt>
      <trkpt lat="40.2102427" lon="-4.98291783"><ele>1281</ele><speed>19.54</speed><time>2017-04-09T12:30:33Z</time><pdop>3.0</pdop><geoidheight>0.00</geoidheight><course>254.9</course><type>1</type></trkpt>
      <trkpt lat="40.21019188" lon="-4.98310173"><ele>1276</ele><speed>19.68</speed><time>2017-04-09T12:30:34Z</time><pdop>4.0</pdop><geoidheight>0.00</geoidheight><course>253.3</course><type>1</type></trkpt>
      <trkpt lat="40.21014194" lon="-4.98332358"><ele>1275</ele><speed>19.68</speed><time>2017-04-09T12:30:35Z</time><pdop>4.0</pdop><geoidheight>0.00</geoidheight><course>253.5</course><type>1</type></trkpt>
      <trkpt lat="40.21009038" lon="-4.98354769"><ele>1273</ele><speed>19.01</speed><time>2017-04-09T12:30:36Z</time><pdop>4.0</pdop><geoidheight>0.00</geoidheight><course>254.1</course><type>1</type></trkpt>
      <trkpt lat="40.21003709" lon="-4.98376381"><ele>1272</ele><speed>19.17</speed><time>2017-04-09T12:30:37Z</time><pdop>4.0</pdop><geoidheight>0.00</geoidheight><course>253.3</course><type>1</type></trkpt>
      <trkpt lat="40.20999564" lon="-4.98398215"><ele>1270</ele><speed>18.82</speed><time>2017-04-09T12:30:38Z</time><pdop>3.0</pdop><geoidheight>0.00</geoidheight><course>254.2</course><type>1</type></trkpt>
      <trkpt lat="40.20994306" lon="-4.98419344"><ele>1268</ele><speed>19.09</speed><time>2017-04-09T12:30:39Z</time><pdop>3.0</pdop><geoidheight>0.00</geoidheight><course>255.2</course><type>1</type></trkpt>
      <trkpt lat="40.20990144" lon="-4.98440937"><ele>1268</ele><speed>19.13</speed><time>2017-04-09T12:30:40Z</time><pdop>3.0</pdop><geoidheight>0.00</geoidheight><course>256.1</course><type>1</type></trkpt>
      <trkpt lat="40.20985681" lon="-4.98462179"><ele>1265</ele><speed>19.34</speed><time>2017-04-09T12:30:41Z</time><pdop>3.0</pdop><geoidheight>0.00</geoidheight><course>253.5</course><type>1</type></trkpt>
      <trkpt lat="40.20980358" lon="-4.98483956"><ele>1263</ele><speed>19.19</speed><time>2017-04-09T12:30:42Z</time><pdop>3.0</pdop><geoidheight>0.00</geoidheight><course>253.9</course><type>1</type></trkpt>
      <trkpt lat="40.20975955" lon="-4.98505925"><ele>1261</ele><speed>18.93</speed><time>2017-04-09T12:30:43Z</time><pdop>3.0</pdop><geoidheight>0.00</geoidheight><course>255.0</course><type>1</type></trkpt>
      <trkpt lat="40.20971074" lon="-4.98527673"><ele>1260</ele><speed>19.04</speed><time>2017-04-09T12:30:44Z</time><pdop>3.0</pdop><geoidheight>0.00</geoidheight><course>254.6</course><type>1</type></trkpt>
      <trkpt lat="40.20966222" lon="-4.98549455"><ele>1258</ele><speed>19.17</speed><time>2017-04-09T12:30:45Z</time><pdop>3.0</pdop><geoidheight>0.00</geoidheight><course>254.8</course><type>1</type></trkpt>
      <trkpt lat="40.209619" lon="-4.98571337"><ele>1257</ele><speed>19.24</speed><time>2017-04-09T12:30:46Z</time><pdop>3.0</pdop><geoidheight>0.00</geoidheight><course>254.9</course><type>1</type></trkpt>
      <trkpt lat="40.20957174" lon="-4.98592903"><ele>1256</ele><speed>19.17</speed><time>2017-04-09T12:30:47Z</time><pdop>3.0</pdop><geoidheight>0.00</geoidheight><course>254.8</course><type>1</type></trkpt>
      <trkpt lat="40.20952849" lon="-4.98613718"><ele>1254</ele><speed>18.95</speed><time>2017-04-09T12:30:48Z</time><pdop>3.0</pdop><geoidheight>0.00</geoidheight><course>254.5</course><type>1</type></trkpt>
      <trkpt lat="40.20948504" lon="-4.98635406"><ele>1253</ele><speed>19.02</speed><time>2017-04-09T12:30:49Z</time><pdop>3.0</pdop><geoidheight>0.00</geoidheight><course>255.7</course><type>1</type></trkpt>
      <trkpt lat="40.20943387" lon="-4.9865678"><ele>1251</ele><speed>19.17</speed><time>2017-04-09T12:30:50Z</time><pdop>3.0</pdop><geoidheight>0.00</geoidheight><course>254.9</course><type>1</type></trkpt>
      <trkpt lat="40.20938785" lon="-4.98678205"><ele>1249</ele><speed>19.21</speed><time>2017-04-09T12:30:51Z</time><pdop>3.0</pdop><geoidheight>0.00</geoidheight><course>254.8</course><type>1</type></trkpt>
      <trkpt lat="40.20932842" lon="-4.98700088"><ele>1247</ele><speed>19.05</speed><time>2017-04-09T12:30:52Z</time><pdop>3.0</pdop><geoidheight>0.00</geoidheight><course>253.9</course><type>1</type></trkpt>
      <trkpt lat="40.20928879" lon="-4.98720119"><ele>1245</ele><speed>19.01</speed><time>2017-04-09T12:30:53Z</time><pdop>3.0</pdop><geoidheight>0.00</geoidheight><course>253.3</course><type>1</type></trkpt>
      <trkpt lat="40.20923822" lon="-4.98743189"><ele>1244</ele><speed>19.25</speed><time>2017-04-09T12:30:54Z</time><pdop>3.0</pdop><geoidheight>0.00</geoidheight><course>253.3</course><type>1</type></trkpt>
      <trkpt lat="40.20918915" lon="-4.98764699"><ele>1242</ele><speed>19.29</speed><time>2017-04-09T12:30:55Z</time><pdop>3.0</pdop><geoidheight>0.00</geoidheight><course>253.8</course><type>1</type></trkpt>
      <trkpt lat="40.20914888" lon="-4.9878783"><ele>1239</ele><speed>20.05</speed><time>2017-04-09T12:30:56Z</time><pdop>3.0</pdop><geoidheight>0.00</geoidheight><course>256.4</course><type>1</type></trkpt>
      <trkpt lat="40.20910125" lon="-4.98810987"><ele>1236</ele><speed>20.86</speed><time>2017-04-09T12:30:57Z</time><pdop>3.0</pdop><geoidheight>0.00</geoidheight><course>254.9</course><type>1</type></trkpt>
      <trkpt lat="40.20905211" lon="-4.98833364"><ele>1233</ele><speed>20.85</speed><time>2017-04-09T12:30:58Z</time><pdop>3.0</pdop><geoidheight>0.00</geoidheight><course>254.5</course><type>1</type></trkpt>
      <trkpt lat="40.2090093" lon="-4.98856618"><ele>1233</ele><speed>20.34</speed><time>2017-04-09T12:30:59Z</time><pdop>3.0</pdop><geoidheight>0.00</geoidheight><course>253.4</course><type>1</type></trkpt>
      <trkpt lat="40.2089511" lon="-4.98879442"><ele>1231</ele><speed>19.91</speed><time>2017-04-09T12:31:00Z</time><pdop>3.0</pdop><geoidheight>0.00</geoidheight><course>254.9</course><type>1</type></trkpt>
      <trkpt lat="40.20889015" lon="-4.98901535"><ele>1229</ele><speed>20.25</speed><time>2017-04-09T12:31:01Z</time><pdop>3.0</pdop><geoidheight>0.00</geoidheight><course>250.1</course><type>1</type></trkpt>
      <trkpt lat="40.20882753" lon="-4.98923487"><ele>1227</ele><speed>20.23</speed><time>2017-04-09T12:31:02Z</time><pdop>3.0</pdop><geoidheight>0.00</geoidheight><course>249.2</course><type>1</type></trkpt>
      <trkpt lat="40.2087616" lon="-4.98943927"><ele>1224</ele><speed>19.95</speed><time>2017-04-09T12:31:03Z</time><pdop>3.0</pdop><geoidheight>0.00</geoidheight><course>249.9</course><type>1</type></trkpt>
      <trkpt lat="40.20870368" lon="-4.98967179"><ele>1222</ele><speed>19.81</speed><time>2017-04-09T12:31:04Z</time><pdop>3.0</pdop><geoidheight>0.00</geoidheight><course>250.3</course><type>1</type></trkpt>
      <trkpt lat="40.20863705" lon="-4.98987715"><ele>1219</ele><speed>20.22</speed><time>2017-04-09T12:31:05Z</time><pdop>3.0</pdop><geoidheight>0.00</geoidheight><course>251.8</course><type>1</type></trkpt>
      <trkpt lat="40.20858204" lon="-4.99009467"><ele>1219</ele><speed>20.07</speed><time>2017-04-09T12:31:06Z</time><pdop>3.0</pdop><geoidheight>0.00</geoidheight><course>253.2</course><type>1</type></trkpt>
      <trkpt lat="40.20853717" lon="-4.99030857"><ele>1220</ele><speed>18.97</speed><time>2017-04-09T12:31:07Z</time><pdop>3.0</pdop><geoidheight>0.00</geoidheight><course>256.2</course><type>1</type></trkpt>
      <trkpt lat="40.20850295" lon="-4.99051595"><ele>1221</ele><speed>17.76</speed><time>2017-04-09T12:31:08Z</time><pdop>3.0</pdop><geoidheight>0.00</geoidheight><course>260.9</course><type>1</type></trkpt>
      <trkpt lat="40.20848204" lon="-4.99071803"><ele>1221</ele><speed>17.03</speed><time>2017-04-09T12:31:09Z</time><pdop>3.0</pdop><geoidheight>0.00</geoidheight><course>265.7</course><type>1</type></trkpt>
      <trkpt lat="40.20846892" lon="-4.99091772"><ele>1220</ele><speed>17.06</speed><time>2017-04-09T12:31:10Z</time><pdop>3.0</pdop><geoidheight>0.00</geoidheight><course>263.7</course><type>1</type></trkpt>
      <trkpt lat="40.2084476" lon="-4.99112179"><ele>1219</ele><speed>17.77</speed><time>2017-04-09T12:31:11Z</time><pdop>3.0</pdop><geoidheight>0.00</geoidheight><course>262.2</course><type>1</type></trkpt>
      <trkpt lat="40.20841485" lon="-4.99134417"><ele>1217</ele><speed>18.55</speed><time>2017-04-09T12:31:12Z</time><pdop>3.0</pdop><geoidheight>0.00</geoidheight><course>259.1</course><type>1</type></trkpt>
      <trkpt lat="40.20838118" lon="-4.99155942"><ele>1216</ele><speed>18.56</speed><time>2017-04-09T12:31:13Z</time><pdop>3.0</pdop><geoidheight>0.00</geoidheight><course>259.4</course><type>1</type></trkpt>
      <trkpt lat="40.20836136" lon="-4.99177556"><ele>1216</ele><speed>18.34</speed><time>2017-04-09T12:31:14Z</time><pdop>3.0</pdop><geoidheight>0.00</geoidheight><course>263.5</course><type>1</type></trkpt>
      <trkpt lat="40.20835045" lon="-4.99199142"><ele>1217</ele><speed>18.19</speed><time>2017-04-09T12:31:15Z</time><pdop>3.0</pdop><geoidheight>0.00</geoidheight><course>265.6</course><type>1</type></trkpt>
      <trkpt lat="40.20832474" lon="-4.99220292"><ele>1215</ele><speed>18.33</speed><time>2017-04-09T12:31:16Z</time><pdop>3.0</pdop><geoidheight>0.00</geoidheight><course>262.6</course><type>1</type></trkpt>
      <trkpt lat="40.20830287" lon="-4.99241634"><ele>1213</ele><speed>18.64</speed><time>2017-04-09T12:31:17Z</time><pdop>3.0</pdop><geoidheight>0.00</geoidheight><course>260.0</course><type>1</type></trkpt>
      <trkpt lat="40.20826966" lon="-4.99263976"><ele>1211</ele><speed>19.03</speed><time>2017-04-09T12:31:18Z</time><pdop>3.0</pdop><geoidheight>0.00</geoidheight><course>258.3</course><type>1</type></trkpt>
      <trkpt lat="40.20823905" lon="-4.99286103"><ele>1210</ele><speed>19.35</speed><time>2017-04-09T12:31:19Z</time><pdop>3.0</pdop><geoidheight>0.00</geoidheight><course>261.1</course><type>1</type></trkpt>
      <trkpt lat="40.20821023" lon="-4.99309313"><ele>1210</ele><speed>19.43</speed><time>2017-04-09T12:31:20Z</time><pdop>3.0</pdop><geoidheight>0.00</geoidheight><course>262.9</course><type>1</type></trkpt>
      <trkpt lat="40.208197" lon="-4.99332047"><ele>1211</ele><speed>19.38</speed><time>2017-04-09T12:31:21Z</time><pdop>3.0</pdop><geoidheight>0.00</geoidheight><course>266.8</course><type>1</type></trkpt>
      <trkpt lat="40.20817733" lon="-4.9935554"><ele>1210</ele><speed>20.10</speed><time>2017-04-09T12:31:22Z</time><pdop>4.0</pdop><geoidheight>0.00</geoidheight><course>264.3</course><type>1</type></trkpt>
      <trkpt lat="40.20811259" lon="-4.99379126"><ele>1206</ele><speed>20.60</speed><time>2017-04-09T12:31:23Z</time><pdop>4.0</pdop><geoidheight>0.00</geoidheight><course>258.8</course><type>1</type></trkpt>
      <trkpt lat="40.20806894" lon="-4.9940327"><ele>1204</ele><speed>21.16</speed><time>2017-04-09T12:31:24Z</time><pdop>4.0</pdop><geoidheight>0.00</geoidheight><course>258.9</course><type>1</type></trkpt>
      <trkpt lat="40.20802847" lon="-4.99428366"><ele>1203</ele><speed>21.41</speed><time>2017-04-09T12:31:25Z</time><pdop>4.0</pdop><geoidheight>0.00</geoidheight><course>255.8</course><type>1</type></trkpt>
      <trkpt lat="40.20797242" lon="-4.99451796"><ele>1202</ele><speed>20.68</speed><time>2017-04-09T12:31:26Z</time><pdop>3.0</pdop><geoidheight>0.00</geoidheight><course>252.3</course><type>1</type></trkpt>
      <trkpt lat="40.20791374" lon="-4.99474256"><ele>1202</ele><speed>19.94</speed><time>2017-04-09T12:31:27Z</time><pdop>4.0</pdop><geoidheight>0.00</geoidheight><course>249.0</course><type>1</type></trkpt>
      <trkpt lat="40.20784172" lon="-4.99495712"><ele>1201</ele><speed>19.32</speed><time>2017-04-09T12:31:28Z</time><pdop>3.0</pdop><geoidheight>0.00</geoidheight><course>249.9</course><type>1</type></trkpt>
      <trkpt lat="40.20778601" lon="-4.99517233"><ele>1200</ele><speed>18.97</speed><time>2017-04-09T12:31:29Z</time><pdop>3.0</pdop><geoidheight>0.00</geoidheight><course>253.5</course><type>1</type></trkpt>
      <trkpt lat="40.20774598" lon="-4.99539176"><ele>1199</ele><speed>19.46</speed><time>2017-04-09T12:31:30Z</time><pdop>3.0</pdop><geoidheight>0.00</geoidheight><course>258.5</course><type>1</type></trkpt>
      <trkpt lat="40.2077151" lon="-4.99562117"><ele>1197</ele><speed>20.01</speed><time>2017-04-09T12:31:31Z</time><pdop>3.0</pdop><geoidheight>0.00</geoidheight><course>259.4</course><type>1</type></trkpt>
      <trkpt lat="40.20768861" lon="-4.99586984"><ele>1195</ele><speed>20.74</speed><time>2017-04-09T12:31:32Z</time><pdop>3.0</pdop><geoidheight>0.00</geoidheight><course>257.7</course><type>1</type></trkpt>
      <trkpt lat="40.20764907" lon="-4.99610775"><ele>1194</ele><speed>21.38</speed><time>2017-04-09T12:31:33Z</time><pdop>3.0</pdop><geoidheight>0.00</geoidheight><course>256.8</course><type>1</type></trkpt>
      <trkpt lat="40.20760449" lon="-4.99634426"><ele>1192</ele><speed>21.42</speed><time>2017-04-09T12:31:34Z</time><pdop>3.0</pdop><geoidheight>0.00</geoidheight><course>256.7</course><type>1</type></trkpt>
      <trkpt lat="40.20755178" lon="-4.99658212"><ele>1191</ele><speed>21.19</speed><time>2017-04-09T12:31:35Z</time><pdop>3.0</pdop><geoidheight>0.00</geoidheight><course>254.8</course><type>1</type></trkpt>
      <trkpt lat="40.20749566" lon="-4.99681382"><ele>1191</ele><speed>20.39</speed><time>2017-04-09T12:31:36Z</time><pdop>3.0</pdop><geoidheight>0.00</geoidheight><course>252.8</course><type>1</type></trkpt>
      <trkpt lat="40.20743438" lon="-4.99705199"><ele>1192</ele><speed>19.26</speed><time>2017-04-09T12:31:37Z</time><pdop>3.0</pdop><geoidheight>0.00</geoidheight><course>251.8</course><type>1</type></trkpt>
      <trkpt lat="40.20735891" lon="-4.9972596"><ele>1190</ele><speed>18.57</speed><time>2017-04-09T12:31:38Z</time><pdop>3.0</pdop><geoidheight>0.00</geoidheight><course>252.4</course><type>1</type></trkpt>
      <trkpt lat="40.20731324" lon="-4.99747534"><ele>1189</ele><speed>19.18</speed><time>2017-04-09T12:31:39Z</time><pdop>4.0</pdop><geoidheight>0.00</geoidheight><course>255.5</course><type>1</type></trkpt>
      <trkpt lat="40.20728159" lon="-4.99770429"><ele>1188</ele><speed>20.19</speed><time>2017-04-09T12:31:40Z</time><pdop>4.0</pdop><geoidheight>0.00</geoidheight><course>259.0</course><type>1</type></trkpt>
      <trkpt lat="40.20724096" lon="-4.99793893"><ele>1187</ele><speed>20.82</speed><time>2017-04-09T12:31:41Z</time><pdop>4.0</pdop><geoidheight>0.00</geoidheight><course>256.2</course><type>1</type></trkpt>
      <trkpt lat="40.20719275" lon="-4.99817409"><ele>1186</ele><speed>20.62</speed><time>2017-04-09T12:31:42Z</time><pdop>4.0</pdop><geoidheight>0.00</geoidheight><course>258.2</course><type>1</type></trkpt>
      <trkpt lat="40.20714643" lon="-4.99840981"><ele>1186</ele><speed>20.02</speed><time>2017-04-09T12:31:43Z</time><pdop>4.0</pdop><geoidheight>0.00</geoidheight><course>256.3</course><type>1</type></trkpt>
      <trkpt lat="40.20708432" lon="-4.99863687"><ele>1186</ele><speed>19.19</speed><time>2017-04-09T12:31:44Z</time><pdop>4.0</pdop><geoidheight>0.00</geoidheight><course>254.3</course><type>1</type></trkpt>
      <trkpt lat="40.20704834" lon="-4.99885199"><ele>1187</ele><speed>18.41</speed><time>2017-04-09T12:31:45Z</time><pdop>4.0</pdop><geoidheight>0.00</geoidheight><course>254.3</course><type>1</type></trkpt>
      <trkpt lat="40.20700922" lon="-4.9990581"><ele>1187</ele><speed>18.03</speed><time>2017-04-09T12:31:46Z</time><pdop>4.0</pdop><geoidheight>0.00</geoidheight><course>257.1</course><type>1</type></trkpt>
      <trkpt lat="40.20698294" lon="-4.99925665"><ele>1184</ele><speed>17.45</speed><time>2017-04-09T12:31:47Z</time><pdop>4.0</pdop><geoidheight>0.00</geoidheight><course>260.8</course><type>1</type></trkpt>
      <trkpt lat="40.20696627" lon="-4.99947091"><ele>1182</ele><speed>18.37</speed><time>2017-04-09T12:31:48Z</time><pdop>4.0</pdop><geoidheight>0.00</geoidheight><course>262.1</course><type>1</type></trkpt>
      <trkpt lat="40.20693714" lon="-4.99969057"><ele>1180</ele><speed>18.77</speed><time>2017-04-09T12:31:49Z</time><pdop>4.0</pdop><geoidheight>0.00</geoidheight><course>262.3</course><type>1</type></trkpt>
      <trkpt lat="40.20692378" lon="-4.99991517"><ele>1180</ele><speed>18.75</speed><time>2017-04-09T12:31:50Z</time><pdop>4.0</pdop><geoidheight>0.00</geoidheight><course>260.1</course><type>1</type></trkpt>
      <trkpt lat="40.20689255" lon="-5.00011784"><ele>1179</ele><speed>18.20</speed><time>2017-04-09T12:31:51Z</time><pdop>4.0</pdop><geoidheight>0.00</geoidheight><course>260.1</course><type>1</type></trkpt>
      <trkpt lat="40.20687041" lon="-5.00032506"><ele>1179</ele><speed>18.23</speed><time>2017-04-09T12:31:52Z</time><pdop>4.0</pdop><geoidheight>0.00</geoidheight><course>260.5</course><type>1</type></trkpt>
      <trkpt lat="40.20683562" lon="-5.00054351"><ele>1178</ele><speed>19.14</speed><time>2017-04-09T12:31:53Z</time><pdop>4.0</pdop><geoidheight>0.00</geoidheight><course>258.2</course><type>1</type></trkpt>
      <trkpt lat="40.20679527" lon="-5.0007798"><ele>1177</ele><speed>19.55</speed><time>2017-04-09T12:31:54Z</time><pdop>4.0</pdop><geoidheight>0.00</geoidheight><course>257.2</course><type>1</type></trkpt>
      <trkpt lat="40.20673822" lon="-5.00100446"><ele>1176</ele><speed>19.13</speed><time>2017-04-09T12:31:55Z</time><pdop>4.0</pdop><geoidheight>0.00</geoidheight><course>255.8</course><type>1</type></trkpt>
      <trkpt lat="40.20670312" lon="-5.00122485"><ele>1177</ele><speed>18.71</speed><time>2017-04-09T12:31:56Z</time><pdop>4.0</pdop><geoidheight>0.00</geoidheight><course>254.6</course><type>1</type></trkpt>
      <trkpt lat="40.20666721" lon="-5.00143637"><ele>1177</ele><speed>18.42</speed><time>2017-04-09T12:31:57Z</time><pdop>4.0</pdop><geoidheight>0.00</geoidheight><course>256.5</course><type>1</type></trkpt>
      <trkpt lat="40.20663168" lon="-5.00164581"><ele>1178</ele><speed>17.85</speed><time>2017-04-09T12:31:58Z</time><pdop>4.0</pdop><geoidheight>0.00</geoidheight><course>254.3</course><type>1</type></trkpt>
      <trkpt lat="40.20660107" lon="-5.00186292"><ele>1176</ele><speed>18.65</speed><time>2017-04-09T12:31:59Z</time><pdop>4.0</pdop><geoidheight>0.00</geoidheight><course>256.6</course><type>1</type></trkpt>
      <trkpt lat="40.20656617" lon="-5.00208133"><ele>1175</ele><speed>19.47</speed><time>2017-04-09T12:32:00Z</time><pdop>4.0</pdop><geoidheight>0.00</geoidheight><course>255.4</course><type>1</type></trkpt>
      <trkpt lat="40.2065338" lon="-5.0022956"><ele>1175</ele><speed>19.74</speed><time>2017-04-09T12:32:01Z</time><pdop>4.0</pdop><geoidheight>0.00</geoidheight><course>255.8</course><type>1</type></trkpt>
      <trkpt lat="40.20649611" lon="-5.0025172"><ele>1176</ele><speed>19.53</speed><time>2017-04-09T12:32:02Z</time><pdop>3.0</pdop><geoidheight>0.00</geoidheight><course>257.8</course><type>1</type></trkpt>
      <trkpt lat="40.20645262" lon="-5.00274912"><ele>1175</ele><speed>19.32</speed><time>2017-04-09T12:32:03Z</time><pdop>4.0</pdop><geoidheight>0.00</geoidheight><course>259.1</course><type>1</type></trkpt>
      <trkpt lat="40.2064198" lon="-5.00296878"><ele>1175</ele><speed>18.93</speed><time>2017-04-09T12:32:04Z</time><pdop>4.0</pdop><geoidheight>0.00</geoidheight><course>258.5</course><type>1</type></trkpt>
      <trkpt lat="40.20638131" lon="-5.00319074"><ele>1175</ele><speed>18.75</speed><time>2017-04-09T12:32:05Z</time><pdop>4.0</pdop><geoidheight>0.00</geoidheight><course>256.4</course><type>1</type></trkpt>
      <trkpt lat="40.20633654" lon="-5.00339243"><ele>1174</ele><speed>18.96</speed><time>2017-04-09T12:32:06Z</time><pdop>5.0</pdop><geoidheight>0.00</geoidheight><course>254.5</course><type>1</type></trkpt>
      <trkpt lat="40.20629504" lon="-5.00361164"><ele>1174</ele><speed>19.44</speed><time>2017-04-09T12:32:07Z</time><pdop>5.0</pdop><geoidheight>0.00</geoidheight><course>255.8</course><type>1</type></trkpt>
      <trkpt lat="40.20625988" lon="-5.00383807"><ele>1173</ele><speed>19.60</speed><time>2017-04-09T12:32:08Z</time><pdop>5.0</pdop><geoidheight>0.00</geoidheight><course>256.1</course><type>1</type></trkpt>
      <trkpt lat="40.20622351" lon="-5.00406148"><ele>1173</ele><speed>19.20</speed><time>2017-04-09T12:32:09Z</time><pdop>5.0</pdop><geoidheight>0.00</geoidheight><course>257.6</course><type>1</type></trkpt>
      <trkpt lat="40.20618414" lon="-5.00427491"><ele>1172</ele><speed>19.11</speed><time>2017-04-09T12:32:10Z</time><pdop>5.0</pdop><geoidheight>0.00</geoidheight><course>257.9</course><type>1</type></trkpt>
      <trkpt lat="40.20615514" lon="-5.0044929"><ele>1172</ele><speed>18.96</speed><time>2017-04-09T12:32:11Z</time><pdop>5.0</pdop><geoidheight>0.00</geoidheight><course>257.9</course><type>1</type></trkpt>
      <trkpt lat="40.20611936" lon="-5.00471452"><ele>1172</ele><speed>18.68</speed><time>2017-04-09T12:32:12Z</time><pdop>5.0</pdop><geoidheight>0.00</geoidheight><course>256.9</course><type>1</type></trkpt>
      <trkpt lat="40.20607266" lon="-5.00492182"><ele>1171</ele><speed>18.41</speed><time>2017-04-09T12:32:13Z</time><pdop>5.0</pdop><geoidheight>0.00</geoidheight><course>256.8</course><type>1</type></trkpt>
      <trkpt lat="40.20603993" lon="-5.00512834"><ele>1170</ele><speed>18.33</speed><time>2017-04-09T12:32:14Z</time><pdop>4.0</pdop><geoidheight>0.00</geoidheight><course>257.6</course><type>1</type></trkpt>
      <trkpt lat="40.20600854" lon="-5.00533189"><ele>1169</ele><speed>18.43</speed><time>2017-04-09T12:32:15Z</time><pdop>5.0</pdop><geoidheight>0.00</geoidheight><course>258.9</course><type>1</type></trkpt>
      <trkpt lat="40.20598423" lon="-5.00554508"><ele>1169</ele><speed>18.65</speed><time>2017-04-09T12:32:16Z</time><pdop>5.0</pdop><geoidheight>0.00</geoidheight><course>260.5</course><type>1</type></trkpt>
      <trkpt lat="40.20595449" lon="-5.00575757"><ele>1167</ele><speed>19.12</speed><time>2017-04-09T12:32:17Z</time><pdop>5.0</pdop><geoidheight>0.00</geoidheight><course>260.5</course><type>1</type></trkpt>
      <trkpt lat="40.20592985" lon="-5.00597893"><ele>1167</ele><speed>19.03</speed><time>2017-04-09T12:32:18Z</time><pdop>5.0</pdop><geoidheight>0.00</geoidheight><course>259.7</course><type>1</type></trkpt>
      <trkpt lat="40.20592583" lon="-5.00619586"><ele>1167</ele><speed>18.42</speed><time>2017-04-09T12:32:19Z</time><pdop>5.0</pdop><geoidheight>0.00</geoidheight><course>262.2</course><type>1</type></trkpt>
      <trkpt lat="40.20590539" lon="-5.00639812"><ele>1167</ele><speed>17.55</speed><time>2017-04-09T12:32:20Z</time><pdop>5.0</pdop><geoidheight>0.00</geoidheight><course>264.4</course><type>1</type></trkpt>
      <trkpt lat="40.20588538" lon="-5.0065945"><ele>1167</ele><speed>17.02</speed><time>2017-04-09T12:32:21Z</time><pdop>5.0</pdop><geoidheight>0.00</geoidheight><course>265.5</course><type>1</type></trkpt>
      <trkpt lat="40.20586324" lon="-5.00679839"><ele>1167</ele><speed>18.03</speed><time>2017-04-09T12:32:22Z</time><pdop>5.0</pdop><geoidheight>0.00</geoidheight><course>260.5</course><type>1</type></trkpt>
      <trkpt lat="40.20584094" lon="-5.00700728"><ele>1166</ele><speed>18.58</speed><time>2017-04-09T12:32:23Z</time><pdop>4.0</pdop><geoidheight>0.00</geoidheight><course>261.8</course><type>1</type></trkpt>
      <trkpt lat="40.20581142" lon="-5.00722763"><ele>1166</ele><speed>18.83</speed><time>2017-04-09T12:32:24Z</time><pdop>4.0</pdop><geoidheight>0.00</geoidheight><course>260.7</course><type>1</type></trkpt>
      <trkpt lat="40.20578564" lon="-5.00743594"><ele>1165</ele><speed>18.52</speed><time>2017-04-09T12:32:25Z</time><pdop>4.0</pdop><geoidheight>0.00</geoidheight><course>260.5</course><type>1</type></trkpt>
      <trkpt lat="40.20576232" lon="-5.00765639"><ele>1165</ele><speed>18.18</speed><time>2017-04-09T12:32:26Z</time><pdop>4.0</pdop><geoidheight>0.00</geoidheight><course>263.0</course><type>1</type></trkpt>
      <trkpt lat="40.20573381" lon="-5.00786142"><ele>1164</ele><speed>18.02</speed><time>2017-04-09T12:32:27Z</time><pdop>4.0</pdop><geoidheight>0.00</geoidheight><course>262.0</course><type>1</type></trkpt>
      <trkpt lat="40.20570905" lon="-5.00806073"><ele>1163</ele><speed>17.80</speed><time>2017-04-09T12:32:28Z</time><pdop>4.0</pdop><geoidheight>0.00</geoidheight><course>264.8</course><type>1</type></trkpt>
      <trkpt lat="40.20569232" lon="-5.00827251"><ele>1160</ele><speed>18.14</speed><time>2017-04-09T12:32:29Z</time><pdop>3.0</pdop><geoidheight>0.00</geoidheight><course>264.7</course><type>1</type></trkpt>
      <trkpt lat="40.20566088" lon="-5.00847554"><ele>1159</ele><speed>17.87</speed><time>2017-04-09T12:32:30Z</time><pdop>3.0</pdop><geoidheight>0.00</geoidheight><course>263.9</course><type>1</type></trkpt>
      <trkpt lat="40.20564014" lon="-5.00868643"><ele>1159</ele><speed>17.97</speed><time>2017-04-09T12:32:31Z</time><pdop>3.0</pdop><geoidheight>0.00</geoidheight><course>260.1</course><type>1</type></trkpt>
      <trkpt lat="40.20560989" lon="-5.00890253"><ele>1157</ele><speed>18.13</speed><time>2017-04-09T12:32:32Z</time><pdop>3.0</pdop><geoidheight>0.00</geoidheight><course>259.7</course><type>1</type></trkpt>
      <trkpt lat="40.20559652" lon="-5.00911617"><ele>1156</ele><speed>18.03</speed><time>2017-04-09T12:32:33Z</time><pdop>3.0</pdop><geoidheight>0.00</geoidheight><course>263.3</course><type>1</type></trkpt>
      <trkpt lat="40.20559465" lon="-5.00932269"><ele>1156</ele><speed>17.76</speed><time>2017-04-09T12:32:34Z</time><pdop>3.0</pdop><geoidheight>0.00</geoidheight><course>266.6</course><type>1</type></trkpt>
      <trkpt lat="40.20559395" lon="-5.00953606"><ele>1155</ele><speed>17.95</speed><time>2017-04-09T12:32:35Z</time><pdop>3.0</pdop><geoidheight>0.00</geoidheight><course>268.2</course><type>1</type></trkpt>
      <trkpt lat="40.20558139" lon="-5.00975735"><ele>1154</ele><speed>18.40</speed><time>2017-04-09T12:32:36Z</time><pdop>3.0</pdop><geoidheight>0.00</geoidheight><course>266.2</course><type>1</type></trkpt>
      <trkpt lat="40.20555868" lon="-5.00997946"><ele>1153</ele><speed>18.62</speed><time>2017-04-09T12:32:37Z</time><pdop>3.0</pdop><geoidheight>0.00</geoidheight><course>263.5</course><type>1</type></trkpt>
      <trkpt lat="40.20554661" lon="-5.01019522"><ele>1153</ele><speed>18.77</speed><time>2017-04-09T12:32:38Z</time><pdop>3.0</pdop><geoidheight>0.00</geoidheight><course>264.9</course><type>1</type></trkpt>
      <trkpt lat="40.20554308" lon="-5.01041901"><ele>1153</ele><speed>19.11</speed><time>2017-04-09T12:32:39Z</time><pdop>3.0</pdop><geoidheight>0.00</geoidheight><course>268.0</course><type>1</type></trkpt>
      <trkpt lat="40.20555239" lon="-5.01064699"><ele>1153</ele><speed>19.20</speed><time>2017-04-09T12:32:40Z</time><pdop>3.0</pdop><geoidheight>0.00</geoidheight><course>272.8</course><type>1</type></trkpt>
      <trkpt lat="40.20554764" lon="-5.01087081"><ele>1152</ele><speed>19.56</speed><time>2017-04-09T12:32:41Z</time><pdop>3.0</pdop><geoidheight>0.00</geoidheight><course>270.9</course><type>1</type></trkpt>
      <trkpt lat="40.20553627" lon="-5.01109633"><ele>1150</ele><speed>20.22</speed><time>2017-04-09T12:32:42Z</time><pdop>3.0</pdop><geoidheight>0.00</geoidheight><course>267.8</course><type>1</type></trkpt>
      <trkpt lat="40.20551741" lon="-5.01131945"><ele>1149</ele><speed>20.55</speed><time>2017-04-09T12:32:43Z</time><pdop>3.0</pdop><geoidheight>0.00</geoidheight><course>264.2</course><type>1</type></trkpt>
      <trkpt lat="40.205479" lon="-5.01155536"><ele>1148</ele><speed>20.01</speed><time>2017-04-09T12:32:44Z</time><pdop>3.0</pdop><geoidheight>0.00</geoidheight><course>262.9</course><type>1</type></trkpt>
      <trkpt lat="40.20546085" lon="-5.01178231"><ele>1149</ele><speed>19.37</speed><time>2017-04-09T12:32:45Z</time><pdop>3.0</pdop><geoidheight>0.00</geoidheight><course>264.0</course><type>1</type></trkpt>
      <trkpt lat="40.20544177" lon="-5.0120069"><ele>1148</ele><speed>19.46</speed><time>2017-04-09T12:32:46Z</time><pdop>3.0</pdop><geoidheight>0.00</geoidheight><course>266.7</course><type>1</type></trkpt>
      <trkpt lat="40.20542432" lon="-5.01224005"><ele>1147</ele><speed>20.25</speed><time>2017-04-09T12:32:47Z</time><pdop>3.0</pdop><geoidheight>0.00</geoidheight><course>268.3</course><type>1</type></trkpt>
      <trkpt lat="40.20542277" lon="-5.01248309"><ele>1146</ele><speed>21.01</speed><time>2017-04-09T12:32:48Z</time><pdop>4.0</pdop><geoidheight>0.00</geoidheight><course>271.8</course><type>1</type></trkpt>
      <trkpt lat="40.20543472" lon="-5.01274217"><ele>1147</ele><speed>20.26</speed><time>2017-04-09T12:32:49Z</time><pdop>3.0</pdop><geoidheight>0.00</geoidheight><course>273.6</course><type>1</type></trkpt>
      <trkpt lat="40.20542912" lon="-5.01299055"><ele>1146</ele><speed>20.51</speed><time>2017-04-09T12:32:50Z</time><pdop>4.0</pdop><geoidheight>0.00</geoidheight><course>271.1</course><type>1</type></trkpt>
      <trkpt lat="40.20543793" lon="-5.01319499"><ele>1145</ele><speed>19.43</speed><time>2017-04-09T12:32:51Z</time><pdop>3.0</pdop><geoidheight>0.00</geoidheight><course>271.1</course><type>1</type></trkpt>
      <trkpt lat="40.20544198" lon="-5.01342458"><ele>1145</ele><speed>18.67</speed><time>2017-04-09T12:32:52Z</time><pdop>3.0</pdop><geoidheight>0.00</geoidheight><course>273.4</course><type>1</type></trkpt>
      <trkpt lat="40.20544598" lon="-5.01365851"><ele>1145</ele><speed>18.67</speed><time>2017-04-09T12:32:53Z</time><pdop>3.0</pdop><geoidheight>0.00</geoidheight><course>272.0</course><type>1</type></trkpt>
      <trkpt lat="40.20545817" lon="-5.01385842"><ele>1143</ele><speed>18.42</speed><time>2017-04-09T12:32:54Z</time><pdop>3.0</pdop><geoidheight>0.00</geoidheight><course>272.3</course><type>1</type></trkpt>
      <trkpt lat="40.20545204" lon="-5.01408343"><ele>1143</ele><speed>18.74</speed><time>2017-04-09T12:32:55Z</time><pdop>3.0</pdop><geoidheight>0.00</geoidheight><course>269.3</course><type>1</type></trkpt>
      <trkpt lat="40.20543891" lon="-5.01428043"><ele>1143</ele><speed>17.97</speed><time>2017-04-09T12:32:56Z</time><pdop>3.0</pdop><geoidheight>0.00</geoidheight><course>265.9</course><type>1</type></trkpt>
      <trkpt lat="40.20544631" lon="-5.01449692"><ele>1142</ele><speed>17.66</speed><time>2017-04-09T12:32:57Z</time><pdop>3.0</pdop><geoidheight>0.00</geoidheight><course>269.8</course><type>1</type></trkpt>
      <trkpt lat="40.20544816" lon="-5.01471021"><ele>1142</ele><speed>18.03</speed><time>2017-04-09T12:32:58Z</time><pdop>3.0</pdop><geoidheight>0.00</geoidheight><course>271.5</course><type>1</type></trkpt>
      <trkpt lat="40.20546261" lon="-5.01493185"><ele>1141</ele><speed>18.65</speed><time>2017-04-09T12:32:59Z</time><pdop>4.0</pdop><geoidheight>0.00</geoidheight><course>270.2</course><type>1</type></trkpt>
      <trkpt lat="40.20545962" lon="-5.01515071"><ele>1140</ele><speed>18.65</speed><time>2017-04-09T12:33:00Z</time><pdop>4.0</pdop><geoidheight>0.00</geoidheight><course>268.0</course><type>1</type></trkpt>
      <trkpt lat="40.205461" lon="-5.01538223"><ele>1141</ele><speed>19.02</speed><time>2017-04-09T12:33:01Z</time><pdop>3.0</pdop><geoidheight>0.00</geoidheight><course>266.9</course><type>1</type></trkpt>
      <trkpt lat="40.20543923" lon="-5.01560414"><ele>1141</ele><speed>18.85</speed><time>2017-04-09T12:33:02Z</time><pdop>3.0</pdop><geoidheight>0.00</geoidheight><course>265.5</course><type>1</type></trkpt>
      <trkpt lat="40.20543113" lon="-5.01579063"><ele>1139</ele><speed>18.03</speed><time>2017-04-09T12:33:03Z</time><pdop>3.0</pdop><geoidheight>0.00</geoidheight><course>266.3</course><type>1</type></trkpt>
      <trkpt lat="40.20543358" lon="-5.01600659"><ele>1137</ele><speed>18.10</speed><time>2017-04-09T12:33:04Z</time><pdop>3.0</pdop><geoidheight>0.00</geoidheight><course>270.4</course><type>1</type></trkpt>
      <trkpt lat="40.20544084" lon="-5.0162095"><ele>1135</ele><speed>18.16</speed><time>2017-04-09T12:33:05Z</time><pdop>3.0</pdop><geoidheight>0.00</geoidheight><course>271.2</course><type>1</type></trkpt>
      <trkpt lat="40.20543345" lon="-5.01642698"><ele>1135</ele><speed>18.42</speed><time>2017-04-09T12:33:06Z</time><pdop>4.0</pdop><geoidheight>0.00</geoidheight><course>267.9</course><type>1</type></trkpt>
      <trkpt lat="40.20541727" lon="-5.01665187"><ele>1133</ele><speed>18.31</speed><time>2017-04-09T12:33:07Z</time><pdop>4.0</pdop><geoidheight>0.00</geoidheight><course>267.2</course><type>1</type></trkpt>
      <trkpt lat="40.20539865" lon="-5.0168739"><ele>1133</ele><speed>18.51</speed><time>2017-04-09T12:33:08Z</time><pdop>4.0</pdop><geoidheight>0.00</geoidheight><course>264.9</course><type>1</type></trkpt>
      <trkpt lat="40.20538365" lon="-5.01706195"><ele>1132</ele><speed>17.54</speed><time>2017-04-09T12:33:09Z</time><pdop>3.0</pdop><geoidheight>0.00</geoidheight><course>265.4</course><type>1</type></trkpt>
      <trkpt lat="40.20537257" lon="-5.01726211"><ele>1132</ele><speed>17.25</speed><time>2017-04-09T12:33:10Z</time><pdop>4.0</pdop><geoidheight>0.00</geoidheight><course>267.1</course><type>1</type></trkpt>
      <trkpt lat="40.20536455" lon="-5.01746457"><ele>1131</ele><speed>16.91</speed><time>2017-04-09T12:33:11Z</time><pdop>4.0</pdop><geoidheight>0.00</geoidheight><course>265.4</course><type>1</type></trkpt>
      <trkpt lat="40.20534415" lon="-5.01765842"><ele>1129</ele><speed>17.23</speed><time>2017-04-09T12:33:12Z</time><pdop>4.0</pdop><geoidheight>0.00</geoidheight><course>262.7</course><type>1</type></trkpt>
      <trkpt lat="40.20533682" lon="-5.01786782"><ele>1127</ele><speed>18.04</speed><time>2017-04-09T12:33:13Z</time><pdop>4.0</pdop><geoidheight>0.00</geoidheight><course>262.2</course><type>1</type></trkpt>
      <trkpt lat="40.20529784" lon="-5.01807053"><ele>1125</ele><speed>18.22</speed><time>2017-04-09T12:33:14Z</time><pdop>4.0</pdop><geoidheight>0.00</geoidheight><course>261.6</course><type>1</type></trkpt>
      <trkpt lat="40.20527561" lon="-5.01828386"><ele>1125</ele><speed>18.16</speed><time>2017-04-09T12:33:15Z</time><pdop>4.0</pdop><geoidheight>0.00</geoidheight><course>260.5</course><type>1</type></trkpt>
      <trkpt lat="40.20523976" lon="-5.01849688"><ele>1123</ele><speed>17.82</speed><time>2017-04-09T12:33:16Z</time><pdop>4.0</pdop><geoidheight>0.00</geoidheight><course>263.5</course><type>1</type></trkpt>
      <trkpt lat="40.20521086" lon="-5.01870652"><ele>1123</ele><speed>16.97</speed><time>2017-04-09T12:33:17Z</time><pdop>4.0</pdop><geoidheight>0.00</geoidheight><course>261.0</course><type>1</type></trkpt>
      <trkpt lat="40.20518226" lon="-5.01888563"><ele>1121</ele><speed>16.55</speed><time>2017-04-09T12:33:18Z</time><pdop>3.0</pdop><geoidheight>0.00</geoidheight><course>258.0</course><type>1</type></trkpt>
      <trkpt lat="40.20515673" lon="-5.01906849"><ele>1118</ele><speed>16.69</speed><time>2017-04-09T12:33:19Z</time><pdop>3.0</pdop><geoidheight>0.00</geoidheight><course>257.3</course><type>1</type></trkpt>
      <trkpt lat="40.20512425" lon="-5.01926195"><ele>1116</ele><speed>17.29</speed><time>2017-04-09T12:33:20Z</time><pdop>3.0</pdop><geoidheight>0.00</geoidheight><course>258.1</course><type>1</type></trkpt>
      <trkpt lat="40.20508618" lon="-5.01946859"><ele>1114</ele><speed>18.39</speed><time>2017-04-09T12:33:21Z</time><pdop>4.0</pdop><geoidheight>0.00</geoidheight><course>256.6</course><type>1</type></trkpt>
      <trkpt lat="40.20506614" lon="-5.01967801"><ele>1112</ele><speed>18.00</speed><time>2017-04-09T12:33:22Z</time><pdop>3.0</pdop><geoidheight>0.00</geoidheight><course>258.8</course><type>1</type></trkpt>
      <trkpt lat="40.20502813" lon="-5.01989495"><ele>1111</ele><speed>17.46</speed><time>2017-04-09T12:33:23Z</time><pdop>3.0</pdop><geoidheight>0.00</geoidheight><course>257.5</course><type>1</type></trkpt>
      <trkpt lat="40.20500107" lon="-5.02008569"><ele>1109</ele><speed>16.92</speed><time>2017-04-09T12:33:24Z</time><pdop>3.0</pdop><geoidheight>0.00</geoidheight><course>256.8</course><type>1</type></trkpt>
      <trkpt lat="40.20497051" lon="-5.02027825"><ele>1109</ele><speed>16.81</speed><time>2017-04-09T12:33:25Z</time><pdop>3.0</pdop><geoidheight>0.00</geoidheight><course>256.7</course><type>1</type></trkpt>
      <trkpt lat="40.20493462" lon="-5.02046339"><ele>1107</ele><speed>16.93</speed><time>2017-04-09T12:33:26Z</time><pdop>3.0</pdop><geoidheight>0.00</geoidheight><course>256.9</course><type>1</type></trkpt>
      <trkpt lat="40.20490171" lon="-5.02066172"><ele>1104</ele><speed>17.17</speed><time>2017-04-09T12:33:27Z</time><pdop>3.0</pdop><geoidheight>0.00</geoidheight><course>256.4</course><type>1</type></trkpt>
      <trkpt lat="40.20486199" lon="-5.02086898"><ele>1101</ele><speed>17.72</speed><time>2017-04-09T12:33:28Z</time><pdop>3.0</pdop><geoidheight>0.00</geoidheight><course>255.0</course><type>1</type></trkpt>
      <trkpt lat="40.20481803" lon="-5.02107623"><ele>1100</ele><speed>17.84</speed><time>2017-04-09T12:33:29Z</time><pdop>3.0</pdop><geoidheight>0.00</geoidheight><course>253.5</course><type>1</type></trkpt>
      <trkpt lat="40.20477102" lon="-5.02128251"><ele>1099</ele><speed>18.63</speed><time>2017-04-09T12:33:30Z</time><pdop>3.0</pdop><geoidheight>0.00</geoidheight><course>253.2</course><type>1</type></trkpt>
      <trkpt lat="40.2047198" lon="-5.02149441"><ele>1097</ele><speed>18.82</speed><time>2017-04-09T12:33:31Z</time><pdop>3.0</pdop><geoidheight>0.00</geoidheight><course>253.1</course><type>1</type></trkpt>
      <trkpt lat="40.20467061" lon="-5.02169549"><ele>1095</ele><speed>18.67</speed><time>2017-04-09T12:33:32Z</time><pdop>3.0</pdop><geoidheight>0.00</geoidheight><course>252.3</course><type>1</type></trkpt>
      <trkpt lat="40.20461635" lon="-5.02190689"><ele>1095</ele><speed>18.68</speed><time>2017-04-09T12:33:33Z</time><pdop>3.0</pdop><geoidheight>0.00</geoidheight><course>252.6</course><type>1</type></trkpt>
      <trkpt lat="40.20457062" lon="-5.02211812"><ele>1096</ele><speed>18.72</speed><time>2017-04-09T12:33:34Z</time><pdop>4.0</pdop><geoidheight>0.00</geoidheight><course>254.3</course><type>1</type></trkpt>
      <trkpt lat="40.20452782" lon="-5.02234015"><ele>1096</ele><speed>18.79</speed><time>2017-04-09T12:33:35Z</time><pdop>4.0</pdop><geoidheight>0.00</geoidheight><course>256.5</course><type>1</type></trkpt>
      <trkpt lat="40.20448744" lon="-5.0225499"><ele>1095</ele><speed>18.77</speed><time>2017-04-09T12:33:36Z</time><pdop>4.0</pdop><geoidheight>0.00</geoidheight><course>257.4</course><type>1</type></trkpt>
      <trkpt lat="40.20444863" lon="-5.02276457"><ele>1095</ele><speed>18.54</speed><time>2017-04-09T12:33:37Z</time><pdop>4.0</pdop><geoidheight>0.00</geoidheight><course>256.7</course><type>1</type></trkpt>
      <trkpt lat="40.20441262" lon="-5.02297547"><ele>1094</ele><speed>18.29</speed><time>2017-04-09T12:33:38Z</time><pdop>3.0</pdop><geoidheight>0.00</geoidheight><course>258.0</course><type>1</type></trkpt>
      <trkpt lat="40.20437395" lon="-5.02318922"><ele>1093</ele><speed>18.61</speed><time>2017-04-09T12:33:39Z</time><pdop>3.0</pdop><geoidheight>0.00</geoidheight><course>256.3</course><type>1</type></trkpt>
      <trkpt lat="40.20433944" lon="-5.02340763"><ele>1093</ele><speed>18.88</speed><time>2017-04-09T12:33:40Z</time><pdop>3.0</pdop><geoidheight>0.00</geoidheight><course>259.8</course><type>1</type></trkpt>
      <trkpt lat="40.20431083" lon="-5.02362815"><ele>1092</ele><speed>18.89</speed><time>2017-04-09T12:33:41Z</time><pdop>3.0</pdop><geoidheight>0.00</geoidheight><course>264.9</course><type>1</type></trkpt>
      <trkpt lat="40.20429356" lon="-5.02383555"><ele>1091</ele><speed>18.32</speed><time>2017-04-09T12:33:42Z</time><pdop>3.0</pdop><geoidheight>0.00</geoidheight><course>264.3</course><type>1</type></trkpt>
      <trkpt lat="40.20428624" lon="-5.02403402"><ele>1091</ele><speed>16.86</speed><time>2017-04-09T12:33:43Z</time><pdop>3.0</pdop><geoidheight>0.00</geoidheight><course>263.0</course><type>1</type></trkpt>
      <trkpt lat="40.20426972" lon="-5.02421539"><ele>1091</ele><speed>15.76</speed><time>2017-04-09T12:33:44Z</time><pdop>3.0</pdop><geoidheight>0.00</geoidheight><course>265.2</course><type>1</type></trkpt>
      <trkpt lat="40.20425006" lon="-5.0244122"><ele>1091</ele><speed>16.70</speed><time>2017-04-09T12:33:45Z</time><pdop>4.0</pdop><geoidheight>0.00</geoidheight><course>263.1</course><type>1</type></trkpt>
      <trkpt lat="40.2042363" lon="-5.02461151"><ele>1090</ele><speed>17.52</speed><time>2017-04-09T12:33:46Z</time><pdop>4.0</pdop><geoidheight>0.00</geoidheight><course>266.7</course><type>1</type></trkpt>
      <trkpt lat="40.20421716" lon="-5.0248316"><ele>1089</ele><speed>18.48</speed><time>2017-04-09T12:33:47Z</time><pdop>4.0</pdop><geoidheight>0.00</geoidheight><course>262.7</course><type>1</type></trkpt>
      <trkpt lat="40.20419374" lon="-5.02504912"><ele>1088</ele><speed>18.24</speed><time>2017-04-09T12:33:48Z</time><pdop>4.0</pdop><geoidheight>0.00</geoidheight><course>262.0</course><type>1</type></trkpt>
      <trkpt lat="40.20416614" lon="-5.02524593"><ele>1086</ele><speed>17.77</speed><time>2017-04-09T12:33:49Z</time><pdop>4.0</pdop><geoidheight>0.00</geoidheight><course>263.1</course><type>1</type></trkpt>
      <trkpt lat="40.20415114" lon="-5.02543321"><ele>1085</ele><speed>17.11</speed><time>2017-04-09T12:33:50Z</time><pdop>4.0</pdop><geoidheight>0.00</geoidheight><course>266.6</course><type>1</type></trkpt>
      <trkpt lat="40.20415182" lon="-5.02563782"><ele>1086</ele><speed>16.75</speed><time>2017-04-09T12:33:51Z</time><pdop>4.0</pdop><geoidheight>0.00</geoidheight><course>268.9</course><type>1</type></trkpt>
      <trkpt lat="40.20415054" lon="-5.0258451"><ele>1084</ele><speed>16.45</speed><time>2017-04-09T12:33:52Z</time><pdop>4.0</pdop><geoidheight>0.00</geoidheight><course>268.1</course><type>1</type></trkpt>
      <trkpt lat="40.20414304" lon="-5.02603345"><ele>1082</ele><speed>16.19</speed><time>2017-04-09T12:33:53Z</time><pdop>4.0</pdop><geoidheight>0.00</geoidheight><course>265.0</course><type>1</type></trkpt>
      <trkpt lat="40.20412799" lon="-5.02622446"><ele>1080</ele><speed>15.97</speed><time>2017-04-09T12:33:54Z</time><pdop>4.0</pdop><geoidheight>0.00</geoidheight><course>265.0</course><type>1</type></trkpt>
      <trkpt lat="40.20411655" lon="-5.02641392"><ele>1079</ele><speed>15.81</speed><time>2017-04-09T12:33:55Z</time><pdop>4.0</pdop><geoidheight>0.00</geoidheight><course>264.2</course><type>1</type></trkpt>
      <trkpt lat="40.2041014" lon="-5.02659629"><ele>1078</ele><speed>15.81</speed><time>2017-04-09T12:33:56Z</time><pdop>4.0</pdop><geoidheight>0.00</geoidheight><course>261.2</course><type>1</type></trkpt>
      <trkpt lat="40.20407359" lon="-5.02678453"><ele>1076</ele><speed>16.41</speed><time>2017-04-09T12:33:57Z</time><pdop>4.0</pdop><geoidheight>0.00</geoidheight><course>257.5</course><type>1</type></trkpt>
      <trkpt lat="40.20403872" lon="-5.02696511"><ele>1074</ele><speed>15.86</speed><time>2017-04-09T12:33:58Z</time><pdop>4.0</pdop><geoidheight>0.00</geoidheight><course>256.3</course><type>1</type></trkpt>
      <trkpt lat="40.20402027" lon="-5.02713297"><ele>1073</ele><speed>15.21</speed><time>2017-04-09T12:33:59Z</time><pdop>4.0</pdop><geoidheight>0.00</geoidheight><course>257.9</course><type>1</type></trkpt>
      <trkpt lat="40.20399455" lon="-5.02730193"><ele>1071</ele><speed>14.77</speed><time>2017-04-09T12:34:00Z</time><pdop>4.0</pdop><geoidheight>0.00</geoidheight><course>259.9</course><type>1</type></trkpt>
      <trkpt lat="40.20397304" lon="-5.02747147"><ele>1070</ele><speed>14.69</speed><time>2017-04-09T12:34:01Z</time><pdop>3.0</pdop><geoidheight>0.00</geoidheight><course>260.3</course><type>1</type></trkpt>
      <trkpt lat="40.20394788" lon="-5.02764087"><ele>1068</ele><speed>14.84</speed><time>2017-04-09T12:34:02Z</time><pdop>4.0</pdop><geoidheight>0.00</geoidheight><course>259.3</course><type>1</type></trkpt>
      <trkpt lat="40.20392086" lon="-5.02780259"><ele>1065</ele><speed>14.94</speed><time>2017-04-09T12:34:03Z</time><pdop>4.0</pdop><geoidheight>0.00</geoidheight><course>256.2</course><type>1</type></trkpt>
      <trkpt lat="40.20388064" lon="-5.02797284"><ele>1063</ele><speed>15.35</speed><time>2017-04-09T12:34:04Z</time><pdop>3.0</pdop><geoidheight>0.00</geoidheight><course>250.9</course><type>1</type></trkpt>
      <trkpt lat="40.20383432" lon="-5.02814525"><ele>1060</ele><speed>15.69</speed><time>2017-04-09T12:34:05Z</time><pdop>4.0</pdop><geoidheight>0.00</geoidheight><course>249.4</course><type>1</type></trkpt>
      <trkpt lat="40.20378511" lon="-5.02831568"><ele>1059</ele><speed>15.06</speed><time>2017-04-09T12:34:06Z</time><pdop>4.0</pdop><geoidheight>0.00</geoidheight><course>250.5</course><type>1</type></trkpt>
      <trkpt lat="40.20374287" lon="-5.02848668"><ele>1058</ele><speed>14.21</speed><time>2017-04-09T12:34:07Z</time><pdop>3.0</pdop><geoidheight>0.00</geoidheight><course>253.0</course><type>1</type></trkpt>
      <trkpt lat="40.20371242" lon="-5.02865498"><ele>1058</ele><speed>14.09</speed><time>2017-04-09T12:34:08Z</time><pdop>4.0</pdop><geoidheight>0.00</geoidheight><course>259.2</course><type>1</type></trkpt>
      <trkpt lat="40.20370222" lon="-5.02882363"><ele>1057</ele><speed>13.74</speed><time>2017-04-09T12:34:09Z</time><pdop>4.0</pdop><geoidheight>0.00</geoidheight><course>262.7</course><type>1</type></trkpt>
      <trkpt lat="40.20368195" lon="-5.02898278"><ele>1057</ele><speed>14.02</speed><time>2017-04-09T12:34:10Z</time><pdop>4.0</pdop><geoidheight>0.00</geoidheight><course>262.6</course><type>1</type></trkpt>
      <trkpt lat="40.20366302" lon="-5.02914751"><ele>1056</ele><speed>14.50</speed><time>2017-04-09T12:34:11Z</time><pdop>3.0</pdop><geoidheight>0.00</geoidheight><course>261.5</course><type>1</type></trkpt>
      <trkpt lat="40.2036385" lon="-5.02931156"><ele>1056</ele><speed>14.76</speed><time>2017-04-09T12:34:12Z</time><pdop>3.0</pdop><geoidheight>0.00</geoidheight><course>261.7</course><type>1</type></trkpt>
      <trkpt lat="40.20362355" lon="-5.02949799"><ele>1055</ele><speed>14.67</speed><time>2017-04-09T12:34:13Z</time><pdop>3.0</pdop><geoidheight>0.00</geoidheight><course>262.5</course><type>1</type></trkpt>
      <trkpt lat="40.20360255" lon="-5.02966215"><ele>1053</ele><speed>14.24</speed><time>2017-04-09T12:34:14Z</time><pdop>3.0</pdop><geoidheight>0.00</geoidheight><course>262.9</course><type>1</type></trkpt>
      <trkpt lat="40.20357796" lon="-5.02982162"><ele>1051</ele><speed>13.98</speed><time>2017-04-09T12:34:15Z</time><pdop>3.0</pdop><geoidheight>0.00</geoidheight><course>258.7</course><type>1</type></trkpt>
      <trkpt lat="40.20354918" lon="-5.02998028"><ele>1049</ele><speed>13.94</speed><time>2017-04-09T12:34:16Z</time><pdop>3.0</pdop><geoidheight>0.00</geoidheight><course>257.0</course><type>1</type></trkpt>
      <trkpt lat="40.20351298" lon="-5.03014235"><ele>1047</ele><speed>14.35</speed><time>2017-04-09T12:34:17Z</time><pdop>3.0</pdop><geoidheight>0.00</geoidheight><course>255.0</course><type>1</type></trkpt>
      <trkpt lat="40.20347631" lon="-5.03030367"><ele>1044</ele><speed>14.64</speed><time>2017-04-09T12:34:18Z</time><pdop>3.0</pdop><geoidheight>0.00</geoidheight><course>252.4</course><type>1</type></trkpt>
      <trkpt lat="40.20342169" lon="-5.03047559"><ele>1039</ele><speed>15.28</speed><time>2017-04-09T12:34:19Z</time><pdop>3.0</pdop><geoidheight>0.00</geoidheight><course>249.6</course><type>1</type></trkpt>
      <trkpt lat="40.20337014" lon="-5.03064223"><ele>1036</ele><speed>15.75</speed><time>2017-04-09T12:34:20Z</time><pdop>3.0</pdop><geoidheight>0.00</geoidheight><course>247.2</course><type>1</type></trkpt>
      <trkpt lat="40.20331704" lon="-5.03079523"><ele>1033</ele><speed>15.70</speed><time>2017-04-09T12:34:21Z</time><pdop>3.0</pdop><geoidheight>0.00</geoidheight><course>251.1</course><type>1</type></trkpt>
      <trkpt lat="40.20327986" lon="-5.03097033"><ele>1031</ele><speed>15.54</speed><time>2017-04-09T12:34:22Z</time><pdop>3.0</pdop><geoidheight>0.00</geoidheight><course>257.2</course><type>1</type></trkpt>
      <trkpt lat="40.20325141" lon="-5.03113711"><ele>1028</ele><speed>14.85</speed><time>2017-04-09T12:34:23Z</time><pdop>3.0</pdop><geoidheight>0.00</geoidheight><course>258.8</course><type>1</type></trkpt>
      <trkpt lat="40.20321694" lon="-5.0313023"><ele>1026</ele><speed>13.85</speed><time>2017-04-09T12:34:24Z</time><pdop>3.0</pdop><geoidheight>0.00</geoidheight><course>253.7</course><type>1</type></trkpt>
      <trkpt lat="40.20317729" lon="-5.03145089"><ele>1022</ele><speed>13.47</speed><time>2017-04-09T12:34:25Z</time><pdop>3.0</pdop><geoidheight>0.00</geoidheight><course>246.3</course><type>1</type></trkpt>
      <trkpt lat="40.20312363" lon="-5.03159101"><ele>1019</ele><speed>13.72</speed><time>2017-04-09T12:34:26Z</time><pdop>3.0</pdop><geoidheight>0.00</geoidheight><course>240.7</course><type>1</type></trkpt>
      <trkpt lat="40.20305236" lon="-5.03173134"><ele>1015</ele><speed>13.93</speed><time>2017-04-09T12:34:27Z</time><pdop>3.0</pdop><geoidheight>0.00</geoidheight><course>237.6</course><type>1</type></trkpt>
      <trkpt lat="40.20297441" lon="-5.03187727"><ele>1012</ele><speed>14.23</speed><time>2017-04-09T12:34:28Z</time><pdop>3.0</pdop><geoidheight>0.00</geoidheight><course>236.0</course><type>1</type></trkpt>
      <trkpt lat="40.20290272" lon="-5.03201072"><ele>1008</ele><speed>13.87</speed><time>2017-04-09T12:34:29Z</time><pdop>3.0</pdop><geoidheight>0.00</geoidheight><course>236.1</course><type>1</type></trkpt>
      <trkpt lat="40.20283239" lon="-5.03214227"><ele>1006</ele><speed>13.52</speed><time>2017-04-09T12:34:30Z</time><pdop>3.0</pdop><geoidheight>0.00</geoidheight><course>234.7</course><type>1</type></trkpt>
      <trkpt lat="40.20277074" lon="-5.0322521"><ele>1004</ele><speed>11.65</speed><time>2017-04-09T12:34:31Z</time><pdop>3.0</pdop><geoidheight>0.00</geoidheight><course>231.8</course><type>1</type></trkpt>
      <trkpt lat="40.20270378" lon="-5.0323499"><ele>1002</ele><speed>10.78</speed><time>2017-04-09T12:34:32Z</time><pdop>3.0</pdop><geoidheight>0.00</geoidheight><course>228.0</course><type>1</type></trkpt>
      <trkpt lat="40.20263958" lon="-5.03247554"><ele>998</ele><speed>11.78</speed><time>2017-04-09T12:34:33Z</time><pdop>4.0</pdop><geoidheight>0.00</geoidheight><course>232.1</course><type>1</type></trkpt>
      <trkpt lat="40.20256537" lon="-5.0325823"><ele>993</ele><speed>12.08</speed><time>2017-04-09T12:34:34Z</time><pdop>3.0</pdop><geoidheight>0.00</geoidheight><course>226.2</course><type>1</type></trkpt>
      <trkpt lat="40.20248105" lon="-5.03268967"><ele>988</ele><speed>13.02</speed><time>2017-04-09T12:34:35Z</time><pdop>3.0</pdop><geoidheight>0.00</geoidheight><course>223.1</course><type>1</type></trkpt>
      <trkpt lat="40.20239706" lon="-5.03279601"><ele>984</ele><speed>13.29</speed><time>2017-04-09T12:34:36Z</time><pdop>3.0</pdop><geoidheight>0.00</geoidheight><course>222.6</course><type>1</type></trkpt>
      <trkpt lat="40.20231565" lon="-5.03289596"><ele>982</ele><speed>13.38</speed><time>2017-04-09T12:34:37Z</time><pdop>4.0</pdop><geoidheight>0.00</geoidheight><course>223.8</course><type>1</type></trkpt>
      <trkpt lat="40.20222596" lon="-5.03300786"><ele>981</ele><speed>13.90</speed><time>2017-04-09T12:34:38Z</time><pdop>4.0</pdop><geoidheight>0.00</geoidheight><course>222.5</course><type>1</type></trkpt>
      <trkpt lat="40.20213743" lon="-5.03312444"><ele>981</ele><speed>14.06</speed><time>2017-04-09T12:34:39Z</time><pdop>4.0</pdop><geoidheight>0.00</geoidheight><course>227.3</course><type>1</type></trkpt>
      <trkpt lat="40.2020751" lon="-5.03326035"><ele>981</ele><speed>13.62</speed><time>2017-04-09T12:34:40Z</time><pdop>4.0</pdop><geoidheight>0.00</geoidheight><course>243.5</course><type>1</type></trkpt>
      <trkpt lat="40.20204409" lon="-5.03342765"><ele>980</ele><speed>14.00</speed><time>2017-04-09T12:34:41Z</time><pdop>4.0</pdop><geoidheight>0.00</geoidheight><course>257.0</course><type>1</type></trkpt>
      <trkpt lat="40.20202664" lon="-5.03356503"><ele>978</ele><speed>12.75</speed><time>2017-04-09T12:34:42Z</time><pdop>3.0</pdop><geoidheight>0.00</geoidheight><course>259.1</course><type>1</type></trkpt>
      <trkpt lat="40.20200625" lon="-5.03371371"><ele>978</ele><speed>12.53</speed><time>2017-04-09T12:34:43Z</time><pdop>3.0</pdop><geoidheight>0.00</geoidheight><course>258.2</course><type>1</type></trkpt>
      <trkpt lat="40.20196244" lon="-5.03385873"><ele>977</ele><speed>12.74</speed><time>2017-04-09T12:34:44Z</time><pdop>4.0</pdop><geoidheight>0.00</geoidheight><course>249.2</course><type>1</type></trkpt>
      <trkpt lat="40.20187955" lon="-5.03399994"><ele>975</ele><speed>14.58</speed><time>2017-04-09T12:34:45Z</time><pdop>3.0</pdop><geoidheight>0.00</geoidheight><course>236.9</course><type>1</type></trkpt>
      <trkpt lat="40.20179891" lon="-5.03415185"><ele>973</ele><speed>15.17</speed><time>2017-04-09T12:34:46Z</time><pdop>3.0</pdop><geoidheight>0.00</geoidheight><course>242.5</course><type>1</type></trkpt>
      <trkpt lat="40.20173259" lon="-5.03432401"><ele>975</ele><speed>14.53</speed><time>2017-04-09T12:34:47Z</time><pdop>3.0</pdop><geoidheight>0.00</geoidheight><course>243.7</course><type>1</type></trkpt>
      <trkpt lat="40.20168911" lon="-5.03446347"><ele>974</ele><speed>12.48</speed><time>2017-04-09T12:34:48Z</time><pdop>3.0</pdop><geoidheight>0.00</geoidheight><course>245.3</course><type>1</type></trkpt>
      <trkpt lat="40.20165104" lon="-5.03458917"><ele>975</ele><speed>11.76</speed><time>2017-04-09T12:34:49Z</time><pdop>3.0</pdop><geoidheight>0.00</geoidheight><course>248.8</course><type>1</type></trkpt>
      <trkpt lat="40.20161025" lon="-5.03472105"><ele>973</ele><speed>12.64</speed><time>2017-04-09T12:34:50Z</time><pdop>3.0</pdop><geoidheight>0.00</geoidheight><course>248.8</course><type>1</type></trkpt>
      <trkpt lat="40.2015642" lon="-5.03486282"><ele>971</ele><speed>13.94</speed><time>2017-04-09T12:34:51Z</time><pdop>3.0</pdop><geoidheight>0.00</geoidheight><course>245.6</course><type>1</type></trkpt>
      <trkpt lat="40.20149533" lon="-5.03501026"><ele>969</ele><speed>14.93</speed><time>2017-04-09T12:34:52Z</time><pdop>3.0</pdop><geoidheight>0.00</geoidheight><course>240.4</course><type>1</type></trkpt>
      <trkpt lat="40.20143192" lon="-5.03516527"><ele>967</ele><speed>15.18</speed><time>2017-04-09T12:34:53Z</time><pdop>3.0</pdop><geoidheight>0.00</geoidheight><course>243.5</course><type>1</type></trkpt>
      <trkpt lat="40.20136979" lon="-5.03531921"><ele>967</ele><speed>14.52</speed><time>2017-04-09T12:34:54Z</time><pdop>3.0</pdop><geoidheight>0.00</geoidheight><course>245.6</course><type>1</type></trkpt>
      <trkpt lat="40.2013227" lon="-5.03547817"><ele>965</ele><speed>14.21</speed><time>2017-04-09T12:34:55Z</time><pdop>3.0</pdop><geoidheight>0.00</geoidheight><course>249.4</course><type>1</type></trkpt>
      <trkpt lat="40.2012792" lon="-5.03562891"><ele>964</ele><speed>13.90</speed><time>2017-04-09T12:34:56Z</time><pdop>3.0</pdop><geoidheight>0.00</geoidheight><course>247.4</course><type>1</type></trkpt>
      <trkpt lat="40.20122727" lon="-5.03578164"><ele>964</ele><speed>14.62</speed><time>2017-04-09T12:34:57Z</time><pdop>3.0</pdop><geoidheight>0.00</geoidheight><course>245.5</course><type>1</type></trkpt>
      <trkpt lat="40.20116576" lon="-5.03591261"><ele>959</ele><speed>14.26</speed><time>2017-04-09T12:34:58Z</time><pdop>3.0</pdop><geoidheight>0.00</geoidheight><course>241.0</course><type>1</type></trkpt>
      <trkpt lat="40.20110309" lon="-5.03606477"><ele>957</ele><speed>13.88</speed><time>2017-04-09T12:34:59Z</time><pdop>3.0</pdop><geoidheight>0.00</geoidheight><course>240.8</course><type>1</type></trkpt>
      <trkpt lat="40.20103442" lon="-5.03620888"><ele>956</ele><speed>14.28</speed><time>2017-04-09T12:35:00Z</time><pdop>3.0</pdop><geoidheight>0.00</geoidheight><course>238.1</course><type>1</type></trkpt>
      <trkpt lat="40.20095713" lon="-5.03634828"><ele>955</ele><speed>13.59</speed><time>2017-04-09T12:35:01Z</time><pdop>3.0</pdop><geoidheight>0.00</geoidheight><course>234.8</course><type>1</type></trkpt>
      <trkpt lat="40.20089199" lon="-5.03647051"><ele>953</ele><speed>13.16</speed><time>2017-04-09T12:35:02Z</time><pdop>3.0</pdop><geoidheight>0.00</geoidheight><course>234.1</course><type>1</type></trkpt>
      <trkpt lat="40.20082245" lon="-5.03660039"><ele>951</ele><speed>12.77</speed><time>2017-04-09T12:35:03Z</time><pdop>3.0</pdop><geoidheight>0.00</geoidheight><course>236.6</course><type>1</type></trkpt>
      <trkpt lat="40.20076092" lon="-5.03673517"><ele>950</ele><speed>12.80</speed><time>2017-04-09T12:35:04Z</time><pdop>3.0</pdop><geoidheight>0.00</geoidheight><course>241.6</course><type>1</type></trkpt>
      <trkpt lat="40.20071647" lon="-5.0368729"><ele>947</ele><speed>13.04</speed><time>2017-04-09T12:35:05Z</time><pdop>3.0</pdop><geoidheight>0.00</geoidheight><course>246.2</course><type>1</type></trkpt>
      <trkpt lat="40.20066669" lon="-5.03701263"><ele>947</ele><speed>13.62</speed><time>2017-04-09T12:35:06Z</time><pdop>3.0</pdop><geoidheight>0.00</geoidheight><course>248.1</course><type>1</type></trkpt>
      <trkpt lat="40.20062078" lon="-5.0371568"><ele>946</ele><speed>13.77</speed><time>2017-04-09T12:35:07Z</time><pdop>3.0</pdop><geoidheight>0.00</geoidheight><course>247.5</course><type>1</type></trkpt>
      <trkpt lat="40.20057504" lon="-5.03730331"><ele>945</ele><speed>13.10</speed><time>2017-04-09T12:35:08Z</time><pdop>3.0</pdop><geoidheight>0.00</geoidheight><course>248.0</course><type>1</type></trkpt>
      <trkpt lat="40.20053794" lon="-5.03744314"><ele>945</ele><speed>12.02</speed><time>2017-04-09T12:35:09Z</time><pdop>3.0</pdop><geoidheight>0.00</geoidheight><course>245.7</course><type>1</type></trkpt>
      <trkpt lat="40.20048995" lon="-5.03756921"><ele>945</ele><speed>12.62</speed><time>2017-04-09T12:35:10Z</time><pdop>3.0</pdop><geoidheight>0.00</geoidheight><course>242.3</course><type>1</type></trkpt>
      <trkpt lat="40.20042794" lon="-5.03769763"><ele>944</ele><speed>12.99</speed><time>2017-04-09T12:35:11Z</time><pdop>3.0</pdop><geoidheight>0.00</geoidheight><course>238.3</course><type>1</type></trkpt>
      <trkpt lat="40.2003536" lon="-5.03780904"><ele>942</ele><speed>13.26</speed><time>2017-04-09T12:35:12Z</time><pdop>3.0</pdop><geoidheight>0.00</geoidheight><course>231.5</course><type>1</type></trkpt>
      <trkpt lat="40.20027578" lon="-5.03794345"><ele>941</ele><speed>13.93</speed><time>2017-04-09T12:35:13Z</time><pdop>3.0</pdop><geoidheight>0.00</geoidheight><course>235.1</course><type>1</type></trkpt>
      <trkpt lat="40.20019816" lon="-5.03810713"><ele>940</ele><speed>16.37</speed><time>2017-04-09T12:35:14Z</time><pdop>3.0</pdop><geoidheight>0.00</geoidheight><course>238.3</course><type>1</type></trkpt>
      <trkpt lat="40.20013201" lon="-5.03828031"><ele>939</ele><speed>16.21</speed><time>2017-04-09T12:35:15Z</time><pdop>3.0</pdop><geoidheight>0.00</geoidheight><course>239.0</course><type>1</type></trkpt>
      <trkpt lat="40.2000604" lon="-5.0384358"><ele>937</ele><speed>15.09</speed><time>2017-04-09T12:35:16Z</time><pdop>3.0</pdop><geoidheight>0.00</geoidheight><course>235.4</course><type>1</type></trkpt>
      <trkpt lat="40.19998047" lon="-5.03857401"><ele>936</ele><speed>14.63</speed><time>2017-04-09T12:35:17Z</time><pdop>3.0</pdop><geoidheight>0.00</geoidheight><course>232.1</course><type>1</type></trkpt>
      <trkpt lat="40.19989456" lon="-5.03872276"><ele>935</ele><speed>13.79</speed><time>2017-04-09T12:35:18Z</time><pdop>3.0</pdop><geoidheight>0.00</geoidheight><course>230.2</course><type>1</type></trkpt>
      <trkpt lat="40.19981324" lon="-5.03884154"><ele>934</ele><speed>13.70</speed><time>2017-04-09T12:35:19Z</time><pdop>3.0</pdop><geoidheight>0.00</geoidheight><course>230.1</course><type>1</type></trkpt>
      <trkpt lat="40.19973662" lon="-5.03898237"><ele>931</ele><speed>15.25</speed><time>2017-04-09T12:35:20Z</time><pdop>3.0</pdop><geoidheight>0.00</geoidheight><course>232.8</course><type>1</type></trkpt>
      <trkpt lat="40.19965047" lon="-5.03911583"><ele>930</ele><speed>14.18</speed><time>2017-04-09T12:35:21Z</time><pdop>3.0</pdop><geoidheight>0.00</geoidheight><course>231.1</course><type>1</type></trkpt>
      <trkpt lat="40.19956658" lon="-5.03924542"><ele>929</ele><speed>13.42</speed><time>2017-04-09T12:35:22Z</time><pdop>3.0</pdop><geoidheight>0.00</geoidheight><course>228.9</course><type>1</type></trkpt>
      <trkpt lat="40.19949264" lon="-5.03935276"><ele>927</ele><speed>13.00</speed><time>2017-04-09T12:35:23Z</time><pdop>3.0</pdop><geoidheight>0.00</geoidheight><course>228.6</course><type>1</type></trkpt>
      <trkpt lat="40.19942149" lon="-5.03946441"><ele>926</ele><speed>12.88</speed><time>2017-04-09T12:35:24Z</time><pdop>3.0</pdop><geoidheight>0.00</geoidheight><course>228.8</course><type>1</type></trkpt>
      <trkpt lat="40.19934957" lon="-5.03959293"><ele>925</ele><speed>13.51</speed><time>2017-04-09T12:35:25Z</time><pdop>3.0</pdop><geoidheight>0.00</geoidheight><course>231.2</course><type>1</type></trkpt>
      <trkpt lat="40.19928853" lon="-5.03969368"><ele>920</ele><speed>13.61</speed><time>2017-04-09T12:35:26Z</time><pdop>3.0</pdop><geoidheight>0.00</geoidheight><course>235.0</course><type>1</type></trkpt>
      <trkpt lat="40.19922286" lon="-5.03981321"><ele>917</ele><speed>14.08</speed><time>2017-04-09T12:35:27Z</time><pdop>3.0</pdop><geoidheight>0.00</geoidheight><course>234.0</course><type>1</type></trkpt>
      <trkpt lat="40.19914142" lon="-5.03995728"><ele>915</ele><speed>14.55</speed><time>2017-04-09T12:35:28Z</time><pdop>3.0</pdop><geoidheight>0.00</geoidheight><course>234.0</course><type>1</type></trkpt>
      <trkpt lat="40.19906255" lon="-5.0401038"><ele>915</ele><speed>14.40</speed><time>2017-04-09T12:35:29Z</time><pdop>3.0</pdop><geoidheight>0.00</geoidheight><course>235.6</course><type>1</type></trkpt>
      <trkpt lat="40.19898844" lon="-5.04025922"><ele>915</ele><speed>14.11</speed><time>2017-04-09T12:35:30Z</time><pdop>3.0</pdop><geoidheight>0.00</geoidheight><course>238.2</course><type>1</type></trkpt>
      <trkpt lat="40.19893367" lon="-5.04039734"><ele>915</ele><speed>12.94</speed><time>2017-04-09T12:35:31Z</time><pdop>3.0</pdop><geoidheight>0.00</geoidheight><course>238.5</course><type>1</type></trkpt>
      <trkpt lat="40.19887858" lon="-5.04052378"><ele>913</ele><speed>12.31</speed><time>2017-04-09T12:35:32Z</time><pdop>3.0</pdop><geoidheight>0.00</geoidheight><course>235.7</course><type>1</type></trkpt>
      <trkpt lat="40.19880155" lon="-5.0406421"><ele>912</ele><speed>12.84</speed><time>2017-04-09T12:35:33Z</time><pdop>3.0</pdop><geoidheight>0.00</geoidheight><course>229.1</course><type>1</type></trkpt>
      <trkpt lat="40.19871879" lon="-5.04077424"><ele>910</ele><speed>14.45</speed><time>2017-04-09T12:35:34Z</time><pdop>3.0</pdop><geoidheight>0.00</geoidheight><course>229.3</course><type>1</type></trkpt>
      <trkpt lat="40.19863445" lon="-5.04090984"><ele>910</ele><speed>14.84</speed><time>2017-04-09T12:35:35Z</time><pdop>3.0</pdop><geoidheight>0.00</geoidheight><course>230.9</course><type>1</type></trkpt>
      <trkpt lat="40.19855042" lon="-5.04104656"><ele>910</ele><speed>14.75</speed><time>2017-04-09T12:35:36Z</time><pdop>3.0</pdop><geoidheight>0.00</geoidheight><course>233.4</course><type>1</type></trkpt>
      <trkpt lat="40.1984786" lon="-5.0411759"><ele>911</ele><speed>13.36</speed><time>2017-04-09T12:35:37Z</time><pdop>3.0</pdop><geoidheight>0.00</geoidheight><course>235.3</course><type>1</type></trkpt>
      <trkpt lat="40.19841268" lon="-5.04129202"><ele>910</ele><speed>12.83</speed><time>2017-04-09T12:35:38Z</time><pdop>3.0</pdop><geoidheight>0.00</geoidheight><course>235.8</course><type>1</type></trkpt>
      <trkpt lat="40.19833566" lon="-5.04142494"><ele>909</ele><speed>13.40</speed><time>2017-04-09T12:35:39Z</time><pdop>3.0</pdop><geoidheight>0.00</geoidheight><course>234.3</course><type>1</type></trkpt>
      <trkpt lat="40.19825489" lon="-5.04156486"><ele>908</ele><speed>14.65</speed><time>2017-04-09T12:35:40Z</time><pdop>3.0</pdop><geoidheight>0.00</geoidheight><course>233.2</course><type>1</type></trkpt>
      <trkpt lat="40.19816579" lon="-5.04170742"><ele>908</ele><speed>15.59</speed><time>2017-04-09T12:35:41Z</time><pdop>3.0</pdop><geoidheight>0.00</geoidheight><course>231.7</course><type>1</type></trkpt>
      <trkpt lat="40.19808708" lon="-5.04183108"><ele>908</ele><speed>14.79</speed><time>2017-04-09T12:35:42Z</time><pdop>3.0</pdop><geoidheight>0.00</geoidheight><course>230.2</course><type>1</type></trkpt>
      <trkpt lat="40.19800247" lon="-5.04194338"><ele>908</ele><speed>13.56</speed><time>2017-04-09T12:35:43Z</time><pdop>3.0</pdop><geoidheight>0.00</geoidheight><course>231.0</course><type>1</type></trkpt>
      <trkpt lat="40.19793009" lon="-5.04207264"><ele>908</ele><speed>13.37</speed><time>2017-04-09T12:35:44Z</time><pdop>3.0</pdop><geoidheight>0.00</geoidheight><course>233.7</course><type>1</type></trkpt>
      <trkpt lat="40.197857" lon="-5.0422133"><ele>907</ele><speed>14.41</speed><time>2017-04-09T12:35:45Z</time><pdop>3.0</pdop><geoidheight>0.00</geoidheight><course>235.2</course><type>1</type></trkpt>
      <trkpt lat="40.19777437" lon="-5.04236835"><ele>907</ele><speed>15.28</speed><time>2017-04-09T12:35:46Z</time><pdop>3.0</pdop><geoidheight>0.00</geoidheight><course>233.0</course><type>1</type></trkpt>
      <trkpt lat="40.19768894" lon="-5.04248682"><ele>905</ele><speed>15.34</speed><time>2017-04-09T12:35:47Z</time><pdop>3.0</pdop><geoidheight>0.00</geoidheight><course>227.1</course><type>1</type></trkpt>
      <trkpt lat="40.19759392" lon="-5.04260666"><ele>905</ele><speed>14.23</speed><time>2017-04-09T12:35:48Z</time><pdop>3.0</pdop><geoidheight>0.00</geoidheight><course>224.1</course><type>1</type></trkpt>
      <trkpt lat="40.19753711" lon="-5.04271583"><ele>902</ele><speed>12.98</speed><time>2017-04-09T12:35:49Z</time><pdop>3.0</pdop><geoidheight>0.00</geoidheight><course>226.6</course><type>1</type></trkpt>
      <trkpt lat="40.19745517" lon="-5.0428223"><ele>902</ele><speed>12.66</speed><time>2017-04-09T12:35:50Z</time><pdop>3.0</pdop><geoidheight>0.00</geoidheight><course>231.3</course><type>1</type></trkpt>
      <trkpt lat="40.19738298" lon="-5.0429439"><ele>900</ele><speed>13.41</speed><time>2017-04-09T12:35:51Z</time><pdop>3.0</pdop><geoidheight>0.00</geoidheight><course>233.3</course><type>1</type></trkpt>
      <trkpt lat="40.19730903" lon="-5.04306483"><ele>896</ele><speed>13.51</speed><time>2017-04-09T12:35:52Z</time><pdop>3.0</pdop><geoidheight>0.00</geoidheight><course>232.7</course><type>1</type></trkpt>
      <trkpt lat="40.19723722" lon="-5.04319418"><ele>893</ele><speed>13.77</speed><time>2017-04-09T12:35:53Z</time><pdop>3.0</pdop><geoidheight>0.00</geoidheight><course>231.8</course><type>1</type></trkpt>
      <trkpt lat="40.19715275" lon="-5.04331527"><ele>889</ele><speed>14.34</speed><time>2017-04-09T12:35:54Z</time><pdop>3.0</pdop><geoidheight>0.00</geoidheight><course>231.6</course><type>1</type></trkpt>
      <trkpt lat="40.19707971" lon="-5.0434469"><ele>887</ele><speed>14.20</speed><time>2017-04-09T12:35:55Z</time><pdop>3.0</pdop><geoidheight>0.00</geoidheight><course>233.4</course><type>1</type></trkpt>
      <trkpt lat="40.19700339" lon="-5.04358533"><ele>883</ele><speed>13.89</speed><time>2017-04-09T12:35:56Z</time><pdop>3.0</pdop><geoidheight>0.00</geoidheight><course>235.2</course><type>1</type></trkpt>
      <trkpt lat="40.19693422" lon="-5.04370802"><ele>881</ele><speed>13.35</speed><time>2017-04-09T12:35:57Z</time><pdop>3.0</pdop><geoidheight>0.00</geoidheight><course>233.3</course><type>1</type></trkpt>
      <trkpt lat="40.19685415" lon="-5.04383965"><ele>879</ele><speed>14.77</speed><time>2017-04-09T12:35:58Z</time><pdop>3.0</pdop><geoidheight>0.00</geoidheight><course>232.7</course><type>1</type></trkpt>
      <trkpt lat="40.19676682" lon="-5.04399489"><ele>877</ele><speed>16.69</speed><time>2017-04-09T12:35:59Z</time><pdop>3.0</pdop><geoidheight>0.00</geoidheight><course>232.2</course><type>1</type></trkpt>
      <trkpt lat="40.19667511" lon="-5.04415557"><ele>875</ele><speed>16.42</speed><time>2017-04-09T12:36:00Z</time><pdop>3.0</pdop><geoidheight>0.00</geoidheight><course>231.9</course><type>1</type></trkpt>
      <trkpt lat="40.1965873" lon="-5.04428937"><ele>874</ele><speed>15.01</speed><time>2017-04-09T12:36:01Z</time><pdop>3.0</pdop><geoidheight>0.00</geoidheight><course>233.8</course><type>1</type></trkpt>
      <trkpt lat="40.19652744" lon="-5.04441847"><ele>871</ele><speed>13.22</speed><time>2017-04-09T12:36:02Z</time><pdop>3.0</pdop><geoidheight>0.00</geoidheight><course>239.0</course><type>1</type></trkpt>
      <trkpt lat="40.19646725" lon="-5.04453546"><ele>868</ele><speed>12.36</speed><time>2017-04-09T12:36:03Z</time><pdop>3.0</pdop><geoidheight>0.00</geoidheight><course>232.4</course><type>1</type></trkpt>
      <trkpt lat="40.19638311" lon="-5.04467414"><ele>866</ele><speed>13.89</speed><time>2017-04-09T12:36:04Z</time><pdop>3.0</pdop><geoidheight>0.00</geoidheight><course>229.0</course><type>1</type></trkpt>
      <trkpt lat="40.19630855" lon="-5.04481162"><ele>862</ele><speed>14.61</speed><time>2017-04-09T12:36:05Z</time><pdop>3.0</pdop><geoidheight>0.00</geoidheight><course>232.4</course><type>1</type></trkpt>
      <trkpt lat="40.19622941" lon="-5.04494338"><ele>858</ele><speed>14.90</speed><time>2017-04-09T12:36:06Z</time><pdop>3.0</pdop><geoidheight>0.00</geoidheight><course>232.4</course><type>1</type></trkpt>
      <trkpt lat="40.19615833" lon="-5.0450971"><ele>854</ele><speed>14.52</speed><time>2017-04-09T12:36:07Z</time><pdop>3.0</pdop><geoidheight>0.00</geoidheight><course>232.2</course><type>1</type></trkpt>
      <trkpt lat="40.19607291" lon="-5.04523123"><ele>851</ele><speed>13.77</speed><time>2017-04-09T12:36:08Z</time><pdop>3.0</pdop><geoidheight>0.00</geoidheight><course>229.4</course><type>1</type></trkpt>
      <trkpt lat="40.19598509" lon="-5.04533874"><ele>848</ele><speed>13.37</speed><time>2017-04-09T12:36:09Z</time><pdop>3.0</pdop><geoidheight>0.00</geoidheight><course>222.8</course><type>1</type></trkpt>
      <trkpt lat="40.19589286" lon="-5.04545123"><ele>844</ele><speed>13.63</speed><time>2017-04-09T12:36:10Z</time><pdop>3.0</pdop><geoidheight>0.00</geoidheight><course>224.7</course><type>1</type></trkpt>
      <trkpt lat="40.1957927" lon="-5.04556237"><ele>843</ele><speed>13.64</speed><time>2017-04-09T12:36:11Z</time><pdop>3.0</pdop><geoidheight>0.00</geoidheight><course>222.5</course><type>1</type></trkpt>
      <trkpt lat="40.19571513" lon="-5.04566267"><ele>840</ele><speed>13.33</speed><time>2017-04-09T12:36:12Z</time><pdop>3.0</pdop><geoidheight>0.00</geoidheight><course>224.3</course><type>1</type></trkpt>
      <trkpt lat="40.19562374" lon="-5.04576442"><ele>838</ele><speed>12.59</speed><time>2017-04-09T12:36:13Z</time><pdop>3.0</pdop><geoidheight>0.00</geoidheight><course>221.0</course><type>1</type></trkpt>
      <trkpt lat="40.19553436" lon="-5.04584891"><ele>836</ele><speed>12.24</speed><time>2017-04-09T12:36:14Z</time><pdop>3.0</pdop><geoidheight>0.00</geoidheight><course>214.5</course><type>1</type></trkpt>
      <trkpt lat="40.19544631" lon="-5.04592709"><ele>833</ele><speed>12.45</speed><time>2017-04-09T12:36:15Z</time><pdop>3.0</pdop><geoidheight>0.00</geoidheight><course>212.3</course><type>1</type></trkpt>
      <trkpt lat="40.19535336" lon="-5.04601173"><ele>832</ele><speed>13.18</speed><time>2017-04-09T12:36:16Z</time><pdop>3.0</pdop><geoidheight>0.00</geoidheight><course>215.0</course><type>1</type></trkpt>
      <trkpt lat="40.19525895" lon="-5.04610683"><ele>831</ele><speed>13.50</speed><time>2017-04-09T12:36:17Z</time><pdop>3.0</pdop><geoidheight>0.00</geoidheight><course>219.9</course><type>1</type></trkpt>
      <trkpt lat="40.19517236" lon="-5.04622198"><ele>829</ele><speed>13.39</speed><time>2017-04-09T12:36:18Z</time><pdop>3.0</pdop><geoidheight>0.00</geoidheight><course>225.9</course><type>1</type></trkpt>
      <trkpt lat="40.19509213" lon="-5.04634656"><ele>829</ele><speed>14.29</speed><time>2017-04-09T12:36:19Z</time><pdop>3.0</pdop><geoidheight>0.00</geoidheight><course>230.1</course><type>1</type></trkpt>
      <trkpt lat="40.19500921" lon="-5.04647327"><ele>828</ele><speed>14.86</speed><time>2017-04-09T12:36:20Z</time><pdop>3.0</pdop><geoidheight>0.00</geoidheight><course>229.1</course><type>1</type></trkpt>
      <trkpt lat="40.19491582" lon="-5.0466106"><ele>828</ele><speed>15.72</speed><time>2017-04-09T12:36:21Z</time><pdop>4.0</pdop><geoidheight>0.00</geoidheight><course>228.5</course><type>1</type></trkpt>
      <trkpt lat="40.19483313" lon="-5.04674092"><ele>824</ele><speed>15.70</speed><time>2017-04-09T12:36:22Z</time><pdop>3.0</pdop><geoidheight>0.00</geoidheight><course>230.7</course><type>1</type></trkpt>
      <trkpt lat="40.19476002" lon="-5.0468655"><ele>819</ele><speed>14.96</speed><time>2017-04-09T12:36:23Z</time><pdop>3.0</pdop><geoidheight>0.00</geoidheight><course>232.1</course><type>1</type></trkpt>
      <trkpt lat="40.19467933" lon="-5.04699444"><ele>818</ele><speed>14.21</speed><time>2017-04-09T12:36:24Z</time><pdop>3.0</pdop><geoidheight>0.00</geoidheight><course>232.8</course><type>1</type></trkpt>
      <trkpt lat="40.19459934" lon="-5.04714182"><ele>814</ele><speed>14.07</speed><time>2017-04-09T12:36:25Z</time><pdop>3.0</pdop><geoidheight>0.00</geoidheight><course>230.6</course><type>1</type></trkpt>
      <trkpt lat="40.19450963" lon="-5.04727781"><ele>810</ele><speed>14.33</speed><time>2017-04-09T12:36:26Z</time><pdop>3.0</pdop><geoidheight>0.00</geoidheight><course>227.6</course><type>1</type></trkpt>
      <trkpt lat="40.19441801" lon="-5.04740605"><ele>807</ele><speed>14.98</speed><time>2017-04-09T12:36:27Z</time><pdop>3.0</pdop><geoidheight>0.00</geoidheight><course>226.1</course><type>1</type></trkpt>
      <trkpt lat="40.19432996" lon="-5.04752407"><ele>804</ele><speed>15.19</speed><time>2017-04-09T12:36:28Z</time><pdop>3.0</pdop><geoidheight>0.00</geoidheight><course>225.9</course><type>1</type></trkpt>
      <trkpt lat="40.19424059" lon="-5.04764632"><ele>802</ele><speed>14.62</speed><time>2017-04-09T12:36:29Z</time><pdop>3.0</pdop><geoidheight>0.00</geoidheight><course>224.9</course><type>1</type></trkpt>
      <trkpt lat="40.19414692" lon="-5.04775898"><ele>800</ele><speed>13.75</speed><time>2017-04-09T12:36:30Z</time><pdop>3.0</pdop><geoidheight>0.00</geoidheight><course>223.2</course><type>1</type></trkpt>
      <trkpt lat="40.19405829" lon="-5.04785928"><ele>798</ele><speed>13.09</speed><time>2017-04-09T12:36:31Z</time><pdop>3.0</pdop><geoidheight>0.00</geoidheight><course>221.9</course><type>1</type></trkpt>
      <trkpt lat="40.19396919" lon="-5.04795844"><ele>797</ele><speed>13.58</speed><time>2017-04-09T12:36:32Z</time><pdop>3.0</pdop><geoidheight>0.00</geoidheight><course>221.1</course><type>1</type></trkpt>
      <trkpt lat="40.19389102" lon="-5.04807813"><ele>792</ele><speed>14.58</speed><time>2017-04-09T12:36:33Z</time><pdop>3.0</pdop><geoidheight>0.00</geoidheight><course>226.6</course><type>1</type></trkpt>
      <trkpt lat="40.19380236" lon="-5.04819688"><ele>790</ele><speed>14.74</speed><time>2017-04-09T12:36:34Z</time><pdop>3.0</pdop><geoidheight>0.00</geoidheight><course>226.0</course><type>1</type></trkpt>
      <trkpt lat="40.19369728" lon="-5.04832355"><ele>785</ele><speed>14.63</speed><time>2017-04-09T12:36:35Z</time><pdop>3.0</pdop><geoidheight>0.00</geoidheight><course>222.8</course><type>1</type></trkpt>
      <trkpt lat="40.19359479" lon="-5.04843737"><ele>783</ele><speed>14.65</speed><time>2017-04-09T12:36:36Z</time><pdop>3.0</pdop><geoidheight>0.00</geoidheight><course>220.3</course><type>1</type></trkpt>
      <trkpt lat="40.19349845" lon="-5.04853127"><ele>777</ele><speed>14.03</speed><time>2017-04-09T12:36:37Z</time><pdop>3.0</pdop><geoidheight>0.00</geoidheight><course>220.3</course><type>1</type></trkpt>
      <trkpt lat="40.19340431" lon="-5.04864362"><ele>774</ele><speed>13.10</speed><time>2017-04-09T12:36:38Z</time><pdop>4.0</pdop><geoidheight>0.00</geoidheight><course>221.4</course><type>1</type></trkpt>
      <trkpt lat="40.19331516" lon="-5.0487376"><ele>772</ele><speed>13.14</speed><time>2017-04-09T12:36:39Z</time><pdop>3.0</pdop><geoidheight>0.00</geoidheight><course>218.6</course><type>1</type></trkpt>
      <trkpt lat="40.1932174" lon="-5.04882814"><ele>769</ele><speed>13.80</speed><time>2017-04-09T12:36:40Z</time><pdop>3.0</pdop><geoidheight>0.00</geoidheight><course>214.1</course><type>1</type></trkpt>
      <trkpt lat="40.19310799" lon="-5.04891993"><ele>766</ele><speed>14.40</speed><time>2017-04-09T12:36:41Z</time><pdop>4.0</pdop><geoidheight>0.00</geoidheight><course>211.4</course><type>1</type></trkpt>
      <trkpt lat="40.19299724" lon="-5.04901518"><ele>764</ele><speed>14.65</speed><time>2017-04-09T12:36:42Z</time><pdop>4.0</pdop><geoidheight>0.00</geoidheight><course>210.8</course><type>1</type></trkpt>
      <trkpt lat="40.19288156" lon="-5.04907862"><ele>762</ele><speed>13.85</speed><time>2017-04-09T12:36:43Z</time><pdop>4.0</pdop><geoidheight>0.00</geoidheight><course>210.0</course><type>1</type></trkpt>
      <trkpt lat="40.19278357" lon="-5.04916765"><ele>762</ele><speed>12.53</speed><time>2017-04-09T12:36:44Z</time><pdop>4.0</pdop><geoidheight>0.00</geoidheight><course>211.6</course><type>1</type></trkpt>
      <trkpt lat="40.19268561" lon="-5.04924583"><ele>761</ele><speed>12.08</speed><time>2017-04-09T12:36:45Z</time><pdop>4.0</pdop><geoidheight>0.00</geoidheight><course>211.2</course><type>1</type></trkpt>
      <trkpt lat="40.19259892" lon="-5.04934879"><ele>758</ele><speed>13.57</speed><time>2017-04-09T12:36:46Z</time><pdop>4.0</pdop><geoidheight>0.00</geoidheight><course>218.2</course><type>1</type></trkpt>
      <trkpt lat="40.19249802" lon="-5.04945709"><ele>757</ele><speed>14.85</speed><time>2017-04-09T12:36:47Z</time><pdop>4.0</pdop><geoidheight>0.00</geoidheight><course>218.2</course><type>1</type></trkpt>
      <trkpt lat="40.19239364" lon="-5.04954351"><ele>755</ele><speed>14.72</speed><time>2017-04-09T12:36:48Z</time><pdop>5.0</pdop><geoidheight>0.00</geoidheight><course>213.5</course><type>1</type></trkpt>
      <trkpt lat="40.1922665" lon="-5.04964754"><ele>752</ele><speed>16.48</speed><time>2017-04-09T12:36:49Z</time><pdop>5.0</pdop><geoidheight>0.00</geoidheight><course>211.5</course><type>1</type></trkpt>
      <trkpt lat="40.19214844" lon="-5.04976009"><ele>750</ele><speed>16.06</speed><time>2017-04-09T12:36:50Z</time><pdop>4.0</pdop><geoidheight>0.00</geoidheight><course>216.1</course><type>1</type></trkpt>
      <trkpt lat="40.19203103" lon="-5.04987797"><ele>749</ele><speed>15.07</speed><time>2017-04-09T12:36:51Z</time><pdop>4.0</pdop><geoidheight>0.00</geoidheight><course>217.8</course><type>1</type></trkpt>
      <trkpt lat="40.19193347" lon="-5.0499729"><ele>747</ele><speed>13.61</speed><time>2017-04-09T12:36:52Z</time><pdop>4.0</pdop><geoidheight>0.00</geoidheight><course>217.2</course><type>1</type></trkpt>
      <trkpt lat="40.19183739" lon="-5.05005002"><ele>746</ele><speed>12.41</speed><time>2017-04-09T12:36:53Z</time><pdop>4.0</pdop><geoidheight>0.00</geoidheight><course>214.9</course><type>1</type></trkpt>
      <trkpt lat="40.19174086" lon="-5.05014017"><ele>744</ele><speed>12.97</speed><time>2017-04-09T12:36:54Z</time><pdop>4.0</pdop><geoidheight>0.00</geoidheight><course>215.3</course><type>1</type></trkpt>
      <trkpt lat="40.19164747" lon="-5.05023018"><ele>740</ele><speed>12.90</speed><time>2017-04-09T12:36:55Z</time><pdop>4.0</pdop><geoidheight>0.00</geoidheight><course>214.4</course><type>1</type></trkpt>
      <trkpt lat="40.19154879" lon="-5.050306"><ele>738</ele><speed>12.68</speed><time>2017-04-09T12:36:56Z</time><pdop>5.0</pdop><geoidheight>0.00</geoidheight><course>203.9</course><type>1</type></trkpt>
      <trkpt lat="40.19143885" lon="-5.05038814"><ele>734</ele><speed>13.77</speed><time>2017-04-09T12:36:57Z</time><pdop>4.0</pdop><geoidheight>0.00</geoidheight><course>205.7</course><type>1</type></trkpt>
      <trkpt lat="40.1913542" lon="-5.05045858"><ele>730</ele><speed>13.26</speed><time>2017-04-09T12:36:58Z</time><pdop>4.0</pdop><geoidheight>0.00</geoidheight><course>205.2</course><type>1</type></trkpt>
      <trkpt lat="40.19124493" lon="-5.05051912"><ele>727</ele><speed>12.55</speed><time>2017-04-09T12:36:59Z</time><pdop>4.0</pdop><geoidheight>0.00</geoidheight><course>210.5</course><type>1</type></trkpt>
      <trkpt lat="40.19115268" lon="-5.05058783"><ele>724</ele><speed>12.00</speed><time>2017-04-09T12:37:00Z</time><pdop>4.0</pdop><geoidheight>0.00</geoidheight><course>217.4</course><type>1</type></trkpt>
      <trkpt lat="40.19107719" lon="-5.05068226"><ele>723</ele><speed>11.89</speed><time>2017-04-09T12:37:01Z</time><pdop>4.0</pdop><geoidheight>0.00</geoidheight><course>223.1</course><type>1</type></trkpt>
      <trkpt lat="40.19099846" lon="-5.05078292"><ele>722</ele><speed>12.37</speed><time>2017-04-09T12:37:02Z</time><pdop>4.0</pdop><geoidheight>0.00</geoidheight><course>222.9</course><type>1</type></trkpt>
      <trkpt lat="40.19092133" lon="-5.05089477"><ele>720</ele><speed>13.18</speed><time>2017-04-09T12:37:03Z</time><pdop>4.0</pdop><geoidheight>0.00</geoidheight><course>227.9</course><type>1</type></trkpt>
      <trkpt lat="40.190835" lon="-5.05101637"><ele>718</ele><speed>14.73</speed><time>2017-04-09T12:37:04Z</time><pdop>4.0</pdop><geoidheight>0.00</geoidheight><course>230.9</course><type>1</type></trkpt>
      <trkpt lat="40.1907405" lon="-5.05115723"><ele>716</ele><speed>16.11</speed><time>2017-04-09T12:37:05Z</time><pdop>4.0</pdop><geoidheight>0.00</geoidheight><course>231.8</course><type>1</type></trkpt>
      <trkpt lat="40.19064428" lon="-5.0513104"><ele>714</ele><speed>16.76</speed><time>2017-04-09T12:37:06Z</time><pdop>4.0</pdop><geoidheight>0.00</geoidheight><course>229.5</course><type>1</type></trkpt>
      <trkpt lat="40.19054735" lon="-5.05145718"><ele>713</ele><speed>16.34</speed><time>2017-04-09T12:37:07Z</time><pdop>4.0</pdop><geoidheight>0.00</geoidheight><course>228.8</course><type>1</type></trkpt>
      <trkpt lat="40.1904667" lon="-5.05158992"><ele>711</ele><speed>14.98</speed><time>2017-04-09T12:37:08Z</time><pdop>4.0</pdop><geoidheight>0.00</geoidheight><course>231.6</course><type>1</type></trkpt>
      <trkpt lat="40.19038463" lon="-5.05172446"><ele>710</ele><speed>14.17</speed><time>2017-04-09T12:37:09Z</time><pdop>4.0</pdop><geoidheight>0.00</geoidheight><course>233.2</course><type>1</type></trkpt>
      <trkpt lat="40.19031058" lon="-5.05185183"><ele>710</ele><speed>13.76</speed><time>2017-04-09T12:37:10Z</time><pdop>4.0</pdop><geoidheight>0.00</geoidheight><course>232.8</course><type>1</type></trkpt>
      <trkpt lat="40.19023421" lon="-5.05198585"><ele>708</ele><speed>14.61</speed><time>2017-04-09T12:37:11Z</time><pdop>4.0</pdop><geoidheight>0.00</geoidheight><course>229.2</course><type>1</type></trkpt>
      <trkpt lat="40.19014366" lon="-5.05211918"><ele>706</ele><speed>15.35</speed><time>2017-04-09T12:37:12Z</time><pdop>4.0</pdop><geoidheight>0.00</geoidheight><course>225.5</course><type>1</type></trkpt>
      <trkpt lat="40.19004954" lon="-5.05223707"><ele>704</ele><speed>15.19</speed><time>2017-04-09T12:37:13Z</time><pdop>4.0</pdop><geoidheight>0.00</geoidheight><course>223.4</course><type>1</type></trkpt>
      <trkpt lat="40.18995004" lon="-5.05235724"><ele>703</ele><speed>14.26</speed><time>2017-04-09T12:37:14Z</time><pdop>3.0</pdop><geoidheight>0.00</geoidheight><course>221.4</course><type>1</type></trkpt>
      <trkpt lat="40.1898587" lon="-5.05244208"><ele>701</ele><speed>13.37</speed><time>2017-04-09T12:37:15Z</time><pdop>3.0</pdop><geoidheight>0.00</geoidheight><course>222.8</course><type>1</type></trkpt>
      <trkpt lat="40.18977875" lon="-5.05255736"><ele>700</ele><speed>12.85</speed><time>2017-04-09T12:37:16Z</time><pdop>4.0</pdop><geoidheight>0.00</geoidheight><course>224.9</course><type>1</type></trkpt>
      <trkpt lat="40.18968819" lon="-5.05267573"><ele>697</ele><speed>14.26</speed><time>2017-04-09T12:37:17Z</time><pdop>4.0</pdop><geoidheight>0.00</geoidheight><course>226.1</course><type>1</type></trkpt>
      <trkpt lat="40.18958853" lon="-5.05280449"><ele>696</ele><speed>15.63</speed><time>2017-04-09T12:37:18Z</time><pdop>4.0</pdop><geoidheight>0.00</geoidheight><course>223.5</course><type>1</type></trkpt>
      <trkpt lat="40.18947526" lon="-5.05291769"><ele>695</ele><speed>15.73</speed><time>2017-04-09T12:37:19Z</time><pdop>4.0</pdop><geoidheight>0.00</geoidheight><course>218.3</course><type>1</type></trkpt>
      <trkpt lat="40.18935428" lon="-5.0530283"><ele>695</ele><speed>15.09</speed><time>2017-04-09T12:37:20Z</time><pdop>3.0</pdop><geoidheight>0.00</geoidheight><course>211.7</course><type>1</type></trkpt>
      <trkpt lat="40.18924263" lon="-5.05312833"><ele>695</ele><speed>15.40</speed><time>2017-04-09T12:37:21Z</time><pdop>3.0</pdop><geoidheight>0.00</geoidheight><course>212.8</course><type>1</type></trkpt>
      <trkpt lat="40.18913052" lon="-5.05323504"><ele>697</ele><speed>15.13</speed><time>2017-04-09T12:37:22Z</time><pdop>3.0</pdop><geoidheight>0.00</geoidheight><course>219.3</course><type>1</type></trkpt>
      <trkpt lat="40.18903305" lon="-5.05336335"><ele>698</ele><speed>15.31</speed><time>2017-04-09T12:37:23Z</time><pdop>3.0</pdop><geoidheight>0.00</geoidheight><course>229.3</course><type>1</type></trkpt>
      <trkpt lat="40.18891534" lon="-5.05369435"><ele>700</ele><speed>14.63</speed><time>2017-04-09T12:37:25Z</time><pdop>3.0</pdop><geoidheight>0.00</geoidheight><course>251.8</course><type>1</type></trkpt>
      <trkpt lat="40.18882334" lon="-5.05399608"><ele>696</ele><speed>14.94</speed><time>2017-04-09T12:37:27Z</time><pdop>3.0</pdop><geoidheight>0.00</geoidheight><course>240.9</course><type>1</type></trkpt>
      <trkpt lat="40.18874773" lon="-5.05413992"><ele>692</ele><speed>15.42</speed><time>2017-04-09T12:37:28Z</time><pdop>3.0</pdop><geoidheight>0.00</geoidheight><course>228.5</course><type>1</type></trkpt>
      <trkpt lat="40.18864429" lon="-5.05426771"><ele>688</ele><speed>15.33</speed><time>2017-04-09T12:37:29Z</time><pdop>4.0</pdop><geoidheight>0.00</geoidheight><course>221.3</course><type>1</type></trkpt>
      <trkpt lat="40.18852915" lon="-5.05437474"><ele>687</ele><speed>14.86</speed><time>2017-04-09T12:37:30Z</time><pdop>4.0</pdop><geoidheight>0.00</geoidheight><course>217.2</course><type>1</type></trkpt>
      <trkpt lat="40.18843345" lon="-5.05447468"><ele>687</ele><speed>13.56</speed><time>2017-04-09T12:37:31Z</time><pdop>4.0</pdop><geoidheight>0.00</geoidheight><course>220.2</course><type>1</type></trkpt>
      <trkpt lat="40.18834829" lon="-5.0545859"><ele>687</ele><speed>12.74</speed><time>2017-04-09T12:37:32Z</time><pdop>4.0</pdop><geoidheight>0.00</geoidheight><course>224.0</course><type>1</type></trkpt>
      <trkpt lat="40.18827304" lon="-5.05469329"><ele>686</ele><speed>12.41</speed><time>2017-04-09T12:37:33Z</time><pdop>4.0</pdop><geoidheight>0.00</geoidheight><course>226.3</course><type>1</type></trkpt>
      <trkpt lat="40.18818619" lon="-5.05480533"><ele>685</ele><speed>13.39</speed><time>2017-04-09T12:37:34Z</time><pdop>4.0</pdop><geoidheight>0.00</geoidheight><course>222.7</course><type>1</type></trkpt>
      <trkpt lat="40.18809695" lon="-5.05491993"><ele>684</ele><speed>13.51</speed><time>2017-04-09T12:37:35Z</time><pdop>4.0</pdop><geoidheight>0.00</geoidheight><course>221.2</course><type>1</type></trkpt>
      <trkpt lat="40.18801056" lon="-5.05502032"><ele>684</ele><speed>13.52</speed><time>2017-04-09T12:37:36Z</time><pdop>5.0</pdop><geoidheight>0.00</geoidheight><course>218.7</course><type>1</type></trkpt>
      <trkpt lat="40.18789908" lon="-5.05510291"><ele>683</ele><speed>13.70</speed><time>2017-04-09T12:37:37Z</time><pdop>4.0</pdop><geoidheight>0.00</geoidheight><course>212.8</course><type>1</type></trkpt>
      <trkpt lat="40.18780048" lon="-5.05518258"><ele>683</ele><speed>12.51</speed><time>2017-04-09T12:37:38Z</time><pdop>4.0</pdop><geoidheight>0.00</geoidheight><course>214.0</course><type>1</type></trkpt>
      <trkpt lat="40.18772734" lon="-5.05526543"><ele>683</ele><speed>11.21</speed><time>2017-04-09T12:37:39Z</time><pdop>4.0</pdop><geoidheight>0.00</geoidheight><course>215.5</course><type>1</type></trkpt>
      <trkpt lat="40.18764277" lon="-5.05534217"><ele>682</ele><speed>11.78</speed><time>2017-04-09T12:37:40Z</time><pdop>4.0</pdop><geoidheight>0.00</geoidheight><course>215.6</course><type>1</type></trkpt>
      <trkpt lat="40.18753551" lon="-5.05544918"><ele>680</ele><speed>12.54</speed><time>2017-04-09T12:37:41Z</time><pdop>4.0</pdop><geoidheight>0.00</geoidheight><course>214.1</course><type>1</type></trkpt>
      <trkpt lat="40.18743877" lon="-5.05553037"><ele>679</ele><speed>12.99</speed><time>2017-04-09T12:37:42Z</time><pdop>4.0</pdop><geoidheight>0.00</geoidheight><course>212.1</course><type>1</type></trkpt>
      <trkpt lat="40.18733475" lon="-5.05561543"><ele>678</ele><speed>12.97</speed><time>2017-04-09T12:37:43Z</time><pdop>4.0</pdop><geoidheight>0.00</geoidheight><course>210.2</course><type>1</type></trkpt>
      <trkpt lat="40.18721842" lon="-5.05568986"><ele>677</ele><speed>11.98</speed><time>2017-04-09T12:37:44Z</time><pdop>4.0</pdop><geoidheight>0.00</geoidheight><course>204.8</course><type>1</type></trkpt>
      <trkpt lat="40.187123" lon="-5.05574567"><ele>676</ele><speed>11.16</speed><time>2017-04-09T12:37:45Z</time><pdop>4.0</pdop><geoidheight>0.00</geoidheight><course>204.5</course><type>1</type></trkpt>
      <trkpt lat="40.18703614" lon="-5.05575367"><ele>675</ele><speed>10.51</speed><time>2017-04-09T12:37:46Z</time><pdop>4.0</pdop><geoidheight>0.00</geoidheight><course>201.8</course><type>1</type></trkpt>
      <trkpt lat="40.18694181" lon="-5.05581909"><ele>675</ele><speed>9.90</speed><time>2017-04-09T12:37:47Z</time><pdop>4.0</pdop><geoidheight>0.00</geoidheight><course>201.4</course><type>1</type></trkpt>
      <trkpt lat="40.18682967" lon="-5.05586109"><ele>673</ele><speed>8.34</speed><time>2017-04-09T12:37:49Z</time><pdop>5.0</pdop><geoidheight>0.00</geoidheight><course>194.1</course><type>1</type></trkpt>
      <trkpt lat="40.18671811" lon="-5.05588522"><ele>674</ele><speed>5.76</speed><time>2017-04-09T12:37:51Z</time><pdop>5.0</pdop><geoidheight>0.00</geoidheight><course>187.1</course><type>1</type></trkpt>
      <trkpt lat="40.18661051" lon="-5.0559087"><ele>678</ele><speed>6.05</speed><time>2017-04-09T12:37:53Z</time><pdop>5.0</pdop><geoidheight>0.00</geoidheight><course>192.8</course><type>1</type></trkpt>
      <trkpt lat="40.18651968" lon="-5.05595201"><ele>681</ele><speed>5.07</speed><time>2017-04-09T12:37:55Z</time><pdop>4.0</pdop><geoidheight>0.00</geoidheight><course>191.4</course><type>1</type></trkpt>
      <trkpt lat="40.186437" lon="-5.05593074"><ele>686</ele><speed>3.07</speed><time>2017-04-09T12:37:58Z</time><pdop>4.0</pdop><geoidheight>0.00</geoidheight><course>147.7</course><type>1</type></trkpt>
      <trkpt lat="40.18637931" lon="-5.05587392"><ele>688</ele><speed>4.67</speed><time>2017-04-09T12:38:00Z</time><pdop>4.0</pdop><geoidheight>0.00</geoidheight><course>138.2</course><type>1</type></trkpt>
      <trkpt lat="40.1864182" lon="-5.0557563"><ele>688</ele><speed>7.50</speed><time>2017-04-09T12:38:03Z</time><pdop>4.0</pdop><geoidheight>0.00</geoidheight><course>45.1</course><type>1</type></trkpt>
      <trkpt lat="40.18648035" lon="-5.05570594"><ele>687</ele><speed>8.35</speed><time>2017-04-09T12:38:04Z</time><pdop>4.0</pdop><geoidheight>0.00</geoidheight><course>25.7</course><type>1</type></trkpt>
      <trkpt lat="40.18656278" lon="-5.05567444"><ele>691</ele><speed>8.85</speed><time>2017-04-09T12:38:05Z</time><pdop>4.0</pdop><geoidheight>0.00</geoidheight><course>4.9</course><type>1</type></trkpt>
      <trkpt lat="40.1866435" lon="-5.05568383"><ele>693</ele><speed>10.18</speed><time>2017-04-09T12:38:06Z</time><pdop>3.0</pdop><geoidheight>0.00</geoidheight><course>348.5</course><type>1</type></trkpt>
      <trkpt lat="40.18674073" lon="-5.0557102"><ele>694</ele><speed>11.43</speed><time>2017-04-09T12:38:07Z</time><pdop>3.0</pdop><geoidheight>0.00</geoidheight><course>339.6</course><type>1</type></trkpt>
      <trkpt lat="40.18683646" lon="-5.05576155"><ele>697</ele><speed>11.28</speed><time>2017-04-09T12:38:08Z</time><pdop>4.0</pdop><geoidheight>0.00</geoidheight><course>333.9</course><type>1</type></trkpt>
      <trkpt lat="40.18691971" lon="-5.05582145"><ele>699</ele><speed>10.77</speed><time>2017-04-09T12:38:09Z</time><pdop>4.0</pdop><geoidheight>0.00</geoidheight><course>326.5</course><type>1</type></trkpt>
      <trkpt lat="40.18697641" lon="-5.05591291"><ele>700</ele><speed>10.56</speed><time>2017-04-09T12:38:10Z</time><pdop>4.0</pdop><geoidheight>0.00</geoidheight><course>308.2</course><type>1</type></trkpt>
      <trkpt lat="40.18702576" lon="-5.05602189"><ele>701</ele><speed>11.04</speed><time>2017-04-09T12:38:11Z</time><pdop>5.0</pdop><geoidheight>0.00</geoidheight><course>300.1</course><type>1</type></trkpt>
      <trkpt lat="40.18709998" lon="-5.05627538"><ele>702</ele><speed>11.87</speed><time>2017-04-09T12:38:13Z</time><pdop>7.0</pdop><geoidheight>0.00</geoidheight><course>289.5</course><type>1</type></trkpt>
      <trkpt lat="40.18717512" lon="-5.05647869"><ele>702</ele><speed>17.66</speed><time>2017-04-09T12:38:14Z</time><pdop>7.0</pdop><geoidheight>0.00</geoidheight><course>291.5</course><type>1</type></trkpt>
      <trkpt lat="40.18722859" lon="-5.05665425"><ele>701</ele><speed>16.77</speed><time>2017-04-09T12:38:15Z</time><pdop>7.0</pdop><geoidheight>0.00</geoidheight><course>286.3</course><type>1</type></trkpt>
      <trkpt lat="40.18724986" lon="-5.05685673"><ele>702</ele><speed>16.05</speed><time>2017-04-09T12:38:16Z</time><pdop>7.0</pdop><geoidheight>0.00</geoidheight><course>281.6</course><type>1</type></trkpt>
      <trkpt lat="40.18715967" lon="-5.05710168"><ele>703</ele><speed>13.91</speed><time>2017-04-09T12:38:17Z</time><pdop>6.0</pdop><geoidheight>0.00</geoidheight><course>242.3</course><type>1</type></trkpt>
      <trkpt lat="40.18708105" lon="-5.05720825"><ele>704</ele><speed>10.93</speed><time>2017-04-09T12:38:18Z</time><pdop>5.0</pdop><geoidheight>0.00</geoidheight><course>224.1</course><type>1</type></trkpt>
      <trkpt lat="40.18701203" lon="-5.05729603"><ele>705</ele><speed>10.15</speed><time>2017-04-09T12:38:19Z</time><pdop>5.0</pdop><geoidheight>0.00</geoidheight><course>222.7</course><type>1</type></trkpt>
      <trkpt lat="40.1869288" lon="-5.0574207"><ele>710</ele><speed>7.01</speed><time>2017-04-09T12:38:21Z</time><pdop>5.0</pdop><geoidheight>0.00</geoidheight><course>235.9</course><type>1</type></trkpt>
      <trkpt lat="40.1868529" lon="-5.05756412"><ele>711</ele><speed>7.41</speed><time>2017-04-09T12:38:23Z</time><pdop>6.0</pdop><geoidheight>0.00</geoidheight><course>234.2</course><type>1</type></trkpt>
      <trkpt lat="40.18675354" lon="-5.05759769"><ele>708</ele><speed>5.67</speed><time>2017-04-09T12:38:25Z</time><pdop>5.0</pdop><geoidheight>0.00</geoidheight><course>171.4</course><type>1</type></trkpt>
      <trkpt lat="40.18670025" lon="-5.05748029"><ele>708</ele><speed>5.26</speed><time>2017-04-09T12:38:28Z</time><pdop>5.0</pdop><geoidheight>0.00</geoidheight><course>62.1</course><type>1</type></trkpt>
      <trkpt lat="40.18676815" lon="-5.05739941"><ele>711</ele><speed>5.03</speed><time>2017-04-09T12:38:30Z</time><pdop>4.0</pdop><geoidheight>0.00</geoidheight><course>19.9</course><type>1</type></trkpt>
      <trkpt lat="40.18689197" lon="-5.05742149"><ele>714</ele><speed>8.28</speed><time>2017-04-09T12:38:32Z</time><pdop>5.0</pdop><geoidheight>0.00</geoidheight><course>342.9</course><type>1</type></trkpt>
      <trkpt lat="40.18705089" lon="-5.05755956"><ele>714</ele><speed>11.93</speed><time>2017-04-09T12:38:34Z</time><pdop>5.0</pdop><geoidheight>0.00</geoidheight><course>317.2</course><type>1</type></trkpt>
      <trkpt lat="40.18714919" lon="-5.05768166"><ele>713</ele><speed>13.96</speed><time>2017-04-09T12:38:35Z</time><pdop>5.0</pdop><geoidheight>0.00</geoidheight><course>308.2</course><type>1</type></trkpt>
      <trkpt lat="40.18722768" lon="-5.05782634"><ele>712</ele><speed>15.46</speed><time>2017-04-09T12:38:36Z</time><pdop>5.0</pdop><geoidheight>0.00</geoidheight><course>301.9</course><type>1</type></trkpt>
      <trkpt lat="40.18729132" lon="-5.05799649"><ele>711</ele><speed>16.34</speed><time>2017-04-09T12:38:37Z</time><pdop>5.0</pdop><geoidheight>0.00</geoidheight><course>293.3</course><type>1</type></trkpt>
      <trkpt lat="40.18732922" lon="-5.05819604"><ele>710</ele><speed>17.32</speed><time>2017-04-09T12:38:38Z</time><pdop>4.0</pdop><geoidheight>0.00</geoidheight><course>279.1</course><type>1</type></trkpt>
      <trkpt lat="40.18732149" lon="-5.05839138"><ele>709</ele><speed>17.89</speed><time>2017-04-09T12:38:39Z</time><pdop>4.0</pdop><geoidheight>0.00</geoidheight><course>263.9</course><type>1</type></trkpt>
      <trkpt lat="40.18728008" lon="-5.05858368"><ele>708</ele><speed>17.02</speed><time>2017-04-09T12:38:40Z</time><pdop>4.0</pdop><geoidheight>0.00</geoidheight><course>246.8</course><type>1</type></trkpt>
      <trkpt lat="40.18720441" lon="-5.05874714"><ele>707</ele><speed>14.89</speed><time>2017-04-09T12:38:41Z</time><pdop>4.0</pdop><geoidheight>0.00</geoidheight><course>230.4</course><type>1</type></trkpt>
      <trkpt lat="40.18704977" lon="-5.05892539"><ele>709</ele><speed>9.19</speed><time>2017-04-09T12:38:43Z</time><pdop>4.0</pdop><geoidheight>0.00</geoidheight><course>216.0</course><type>1</type></trkpt>
      <trkpt lat="40.18695055" lon="-5.05905948"><ele>711</ele><speed>8.38</speed><time>2017-04-09T12:38:45Z</time><pdop>4.0</pdop><geoidheight>0.00</geoidheight><course>229.1</course><type>1</type></trkpt>
      <trkpt lat="40.18689527" lon="-5.05912489"><ele>711</ele><speed>8.40</speed><time>2017-04-09T12:38:46Z</time><pdop>4.0</pdop><geoidheight>0.00</geoidheight><course>222.2</course><type>1</type></trkpt>
      <trkpt lat="40.18675689" lon="-5.05921451"><ele>710</ele><speed>9.42</speed><time>2017-04-09T12:38:48Z</time><pdop>5.0</pdop><geoidheight>0.00</geoidheight><course>207.0</course><type>1</type></trkpt>
      <trkpt lat="40.18661287" lon="-5.05930142"><ele>715</ele><speed>8.17</speed><time>2017-04-09T12:38:50Z</time><pdop>4.0</pdop><geoidheight>0.00</geoidheight><course>214.0</course><type>1</type></trkpt>
      <trkpt lat="40.18649497" lon="-5.05941165"><ele>718</ele><speed>8.37</speed><time>2017-04-09T12:38:52Z</time><pdop>5.0</pdop><geoidheight>0.00</geoidheight><course>213.6</course><type>1</type></trkpt>
      <trkpt lat="40.18637048" lon="-5.05947016"><ele>718</ele><speed>8.12</speed><time>2017-04-09T12:38:54Z</time><pdop>5.0</pdop><geoidheight>0.00</geoidheight><course>192.9</course><type>1</type></trkpt>
      <trkpt lat="40.18623877" lon="-5.05951027"><ele>717</ele><speed>8.55</speed><time>2017-04-09T12:38:56Z</time><pdop>5.0</pdop><geoidheight>0.00</geoidheight><course>188.2</course><type>1</type></trkpt>
      <trkpt lat="40.18607824" lon="-5.05954289"><ele>717</ele><speed>7.34</speed><time>2017-04-09T12:38:58Z</time><pdop>5.0</pdop><geoidheight>0.00</geoidheight><course>191.7</course><type>1</type></trkpt>
      <trkpt lat="40.18597212" lon="-5.05953847"><ele>716</ele><speed>5.62</speed><time>2017-04-09T12:39:00Z</time><pdop>5.0</pdop><geoidheight>0.00</geoidheight><course>169.6</course><type>1</type></trkpt>
      <trkpt lat="40.1858993" lon="-5.05943103"><ele>715</ele><speed>3.00</speed><time>2017-04-09T12:39:03Z</time><pdop>5.0</pdop><geoidheight>0.00</geoidheight><course>126.4</course><type>1</type></trkpt>
      <trkpt lat="40.18595835" lon="-5.05928983"><ele>716</ele><speed>7.30</speed><time>2017-04-09T12:39:06Z</time><pdop>4.0</pdop><geoidheight>0.00</geoidheight><course>37.0</course><type>1</type></trkpt>
      <trkpt lat="40.18609258" lon="-5.0592315"><ele>717</ele><speed>9.10</speed><time>2017-04-09T12:39:08Z</time><pdop>4.0</pdop><geoidheight>0.00</geoidheight><course>4.7</course><type>1</type></trkpt>
      <trkpt lat="40.18617531" lon="-5.05923288"><ele>718</ele><speed>8.95</speed><time>2017-04-09T12:39:09Z</time><pdop>4.0</pdop><geoidheight>0.00</geoidheight><course>357.2</course><type>1</type></trkpt>
      <trkpt lat="40.18627117" lon="-5.05926801"><ele>720</ele><speed>11.08</speed><time>2017-04-09T12:39:10Z</time><pdop>4.0</pdop><geoidheight>0.00</geoidheight><course>343.6</course><type>1</type></trkpt>
      <trkpt lat="40.18635799" lon="-5.05931179"><ele>723</ele><speed>10.72</speed><time>2017-04-09T12:39:11Z</time><pdop>4.0</pdop><geoidheight>0.00</geoidheight><course>333.7</course><type>1</type></trkpt>
      <trkpt lat="40.18643702" lon="-5.05936823"><ele>726</ele><speed>9.45</speed><time>2017-04-09T12:39:12Z</time><pdop>4.0</pdop><geoidheight>0.00</geoidheight><course>330.5</course><type>1</type></trkpt>
      <trkpt lat="40.18649861" lon="-5.05942253"><ele>727</ele><speed>7.84</speed><time>2017-04-09T12:39:13Z</time><pdop>4.0</pdop><geoidheight>0.00</geoidheight><course>327.5</course><type>1</type></trkpt>
      <trkpt lat="40.18661642" lon="-5.05952623"><ele>727</ele><speed>8.64</speed><time>2017-04-09T12:39:15Z</time><pdop>4.0</pdop><geoidheight>0.00</geoidheight><course>325.3</course><type>1</type></trkpt>
      <trkpt lat="40.18669617" lon="-5.05960162"><ele>725</ele><speed>11.26</speed><time>2017-04-09T12:39:16Z</time><pdop>4.0</pdop><geoidheight>0.00</geoidheight><course>321.6</course><type>1</type></trkpt>
      <trkpt lat="40.18678104" lon="-5.05972369"><ele>722</ele><speed>14.00</speed><time>2017-04-09T12:39:17Z</time><pdop>4.0</pdop><geoidheight>0.00</geoidheight><course>311.7</course><type>1</type></trkpt>
      <trkpt lat="40.18685262" lon="-5.05984874"><ele>721</ele><speed>13.17</speed><time>2017-04-09T12:39:18Z</time><pdop>4.0</pdop><geoidheight>0.00</geoidheight><course>301.8</course><type>1</type></trkpt>
      <trkpt lat="40.18689769" lon="-5.06004668"><ele>721</ele><speed>17.59</speed><time>2017-04-09T12:39:19Z</time><pdop>4.0</pdop><geoidheight>0.00</geoidheight><course>281.8</course><type>1</type></trkpt>
      <trkpt lat="40.18691015" lon="-5.06024936"><ele>718</ele><speed>18.12</speed><time>2017-04-09T12:39:20Z</time><pdop>4.0</pdop><geoidheight>0.00</geoidheight><course>264.8</course><type>1</type></trkpt>
      <trkpt lat="40.18688433" lon="-5.06045861"><ele>718</ele><speed>17.28</speed><time>2017-04-09T12:39:21Z</time><pdop>4.0</pdop><geoidheight>0.00</geoidheight><course>256.1</course><type>1</type></trkpt>
      <trkpt lat="40.18679833" lon="-5.06063297"><ele>717</ele><speed>16.01</speed><time>2017-04-09T12:39:22Z</time><pdop>4.0</pdop><geoidheight>0.00</geoidheight><course>234.3</course><type>1</type></trkpt>
      <trkpt lat="40.18671316" lon="-5.06075089"><ele>719</ele><speed>13.46</speed><time>2017-04-09T12:39:23Z</time><pdop>4.0</pdop><geoidheight>0.00</geoidheight><course>223.3</course><type>1</type></trkpt>
      <trkpt lat="40.18662831" lon="-5.06085728"><ele>719</ele><speed>11.08</speed><time>2017-04-09T12:39:24Z</time><pdop>4.0</pdop><geoidheight>0.00</geoidheight><course>215.6</course><type>1</type></trkpt>
      <trkpt lat="40.18655482" lon="-5.06092"><ele>720</ele><speed>9.81</speed><time>2017-04-09T12:39:25Z</time><pdop>4.0</pdop><geoidheight>0.00</geoidheight><course>212.6</course><type>1</type></trkpt>
      <trkpt lat="40.18648159" lon="-5.06099589"><ele>720</ele><speed>9.51</speed><time>2017-04-09T12:39:26Z</time><pdop>4.0</pdop><geoidheight>0.00</geoidheight><course>210.1</course><type>1</type></trkpt>
      <trkpt lat="40.18640355" lon="-5.06105065"><ele>721</ele><speed>8.93</speed><time>2017-04-09T12:39:27Z</time><pdop>4.0</pdop><geoidheight>0.00</geoidheight><course>201.5</course><type>1</type></trkpt>
      <trkpt lat="40.18627879" lon="-5.06109259"><ele>723</ele><speed>6.69</speed><time>2017-04-09T12:39:29Z</time><pdop>5.0</pdop><geoidheight>0.00</geoidheight><course>186.8</course><type>1</type></trkpt>
      <trkpt lat="40.18616809" lon="-5.0611036"><ele>725</ele><speed>6.60</speed><time>2017-04-09T12:39:31Z</time><pdop>5.0</pdop><geoidheight>0.00</geoidheight><course>181.0</course><type>1</type></trkpt>
      <trkpt lat="40.18603257" lon="-5.06108158"><ele>724</ele><speed>7.54</speed><time>2017-04-09T12:39:33Z</time><pdop>5.0</pdop><geoidheight>0.00</geoidheight><course>167.0</course><type>1</type></trkpt>
      <trkpt lat="40.18588707" lon="-5.06105996"><ele>725</ele><speed>7.23</speed><time>2017-04-09T12:39:35Z</time><pdop>6.0</pdop><geoidheight>0.00</geoidheight><course>164.1</course><type>1</type></trkpt>
      <trkpt lat="40.18578158" lon="-5.06102008"><ele>730</ele><speed>6.32</speed><time>2017-04-09T12:39:37Z</time><pdop>5.0</pdop><geoidheight>0.00</geoidheight><course>156.7</course><type>1</type></trkpt>
      <trkpt lat="40.18567844" lon="-5.06099665"><ele>729</ele><speed>6.48</speed><time>2017-04-09T12:39:39Z</time><pdop>5.0</pdop><geoidheight>0.00</geoidheight><course>172.6</course><type>1</type></trkpt>
      <trkpt lat="40.18557176" lon="-5.06097747"><ele>731</ele><speed>6.05</speed><time>2017-04-09T12:39:41Z</time><pdop>6.0</pdop><geoidheight>0.00</geoidheight><course>154.5</course><type>1</type></trkpt>
      <trkpt lat="40.18567176" lon="-5.06090585"><ele>733</ele><speed>6.21</speed><time>2017-04-09T12:39:47Z</time><pdop>5.0</pdop><geoidheight>0.00</geoidheight><course>340.3</course><type>1</type></trkpt>
      <trkpt lat="40.18580472" lon="-5.06102204"><ele>732</ele><speed>10.28</speed><time>2017-04-09T12:39:49Z</time><pdop>4.0</pdop><geoidheight>0.00</geoidheight><course>319.4</course><type>1</type></trkpt>
      <trkpt lat="40.18586206" lon="-5.06112803"><ele>732</ele><speed>11.54</speed><time>2017-04-09T12:39:50Z</time><pdop>4.0</pdop><geoidheight>0.00</geoidheight><course>305.7</course><type>1</type></trkpt>
      <trkpt lat="40.1859123" lon="-5.06125389"><ele>733</ele><speed>12.37</speed><time>2017-04-09T12:39:51Z</time><pdop>4.0</pdop><geoidheight>0.00</geoidheight><course>288.9</course><type>1</type></trkpt>
      <trkpt lat="40.18594112" lon="-5.06138365"><ele>733</ele><speed>10.95</speed><time>2017-04-09T12:39:52Z</time><pdop>5.0</pdop><geoidheight>0.00</geoidheight><course>280.8</course><type>1</type></trkpt>
      <trkpt lat="40.18590041" lon="-5.0615354"><ele>734</ele><speed>14.87</speed><time>2017-04-09T12:39:53Z</time><pdop>5.0</pdop><geoidheight>0.00</geoidheight><course>254.3</course><type>1</type></trkpt>
      <trkpt lat="40.18584406" lon="-5.0616977"><ele>736</ele><speed>14.91</speed><time>2017-04-09T12:39:54Z</time><pdop>5.0</pdop><geoidheight>0.00</geoidheight><course>241.4</course><type>1</type></trkpt>
      <trkpt lat="40.18575149" lon="-5.06182922"><ele>737</ele><speed>13.78</speed><time>2017-04-09T12:39:55Z</time><pdop>4.0</pdop><geoidheight>0.00</geoidheight><course>223.6</course><type>1</type></trkpt>
      <trkpt lat="40.18566037" lon="-5.06190671"><ele>739</ele><speed>11.64</speed><time>2017-04-09T12:39:56Z</time><pdop>4.0</pdop><geoidheight>0.00</geoidheight><course>209.4</course><type>1</type></trkpt>
      <trkpt lat="40.18557503" lon="-5.06196273"><ele>742</ele><speed>9.47</speed><time>2017-04-09T12:39:57Z</time><pdop>4.0</pdop><geoidheight>0.00</geoidheight><course>203.9</course><type>1</type></trkpt>
      <trkpt lat="40.18549054" lon="-5.06200176"><ele>743</ele><speed>10.29</speed><time>2017-04-09T12:39:58Z</time><pdop>4.0</pdop><geoidheight>0.00</geoidheight><course>194.4</course><type>1</type></trkpt>
      <trkpt lat="40.18542047" lon="-5.06209427"><ele>742</ele><speed>11.14</speed><time>2017-04-09T12:39:59Z</time><pdop>4.0</pdop><geoidheight>0.00</geoidheight><course>214.8</course><type>1</type></trkpt>
      <trkpt lat="40.18532646" lon="-5.06216828"><ele>741</ele><speed>12.39</speed><time>2017-04-09T12:40:00Z</time><pdop>4.0</pdop><geoidheight>0.00</geoidheight><course>212.5</course><type>1</type></trkpt>
      <trkpt lat="40.18523167" lon="-5.06222647"><ele>741</ele><speed>11.82</speed><time>2017-04-09T12:40:01Z</time><pdop>5.0</pdop><geoidheight>0.00</geoidheight><course>200.3</course><type>1</type></trkpt>
      <trkpt lat="40.18513416" lon="-5.0622751"><ele>741</ele><speed>11.01</speed><time>2017-04-09T12:40:02Z</time><pdop>5.0</pdop><geoidheight>0.00</geoidheight><course>198.3</course><type>1</type></trkpt>
      <trkpt lat="40.18503198" lon="-5.06222497"><ele>744</ele><speed>2.01</speed><time>2017-04-09T12:40:05Z</time><pdop>4.0</pdop><geoidheight>0.00</geoidheight><course>97.3</course><type>1</type></trkpt>
      <trkpt lat="40.18504631" lon="-5.06212468"><ele>745</ele><speed>3.02</speed><time>2017-04-09T12:40:09Z</time><pdop>4.0</pdop><geoidheight>0.00</geoidheight><course>77.5</course><type>1</type></trkpt>
      <trkpt lat="40.18502373" lon="-5.06198967"><ele>744</ele><speed>3.94</speed><time>2017-04-09T12:40:12Z</time><pdop>5.0</pdop><geoidheight>0.00</geoidheight><course>114.5</course><type>1</type></trkpt>
      <trkpt lat="40.18512305" lon="-5.06188419"><ele>742</ele><speed>6.42</speed><time>2017-04-09T12:40:15Z</time><pdop>4.0</pdop><geoidheight>0.00</geoidheight><course>18.2</course><type>1</type></trkpt>
      <trkpt lat="40.18523612" lon="-5.06186336"><ele>742</ele><speed>7.36</speed><time>2017-04-09T12:40:17Z</time><pdop>6.0</pdop><geoidheight>0.00</geoidheight><course>9.4</course><type>1</type></trkpt>
      <trkpt lat="40.18536885" lon="-5.06192595"><ele>745</ele><speed>6.44</speed><time>2017-04-09T12:40:19Z</time><pdop>7.0</pdop><geoidheight>0.00</geoidheight><course>330.6</course><type>1</type></trkpt>
      <trkpt lat="40.18547186" lon="-5.06200794"><ele>746</ele><speed>7.46</speed><time>2017-04-09T12:40:21Z</time><pdop>6.0</pdop><geoidheight>0.00</geoidheight><course>337.8</course><type>1</type></trkpt>
      <trkpt lat="40.18560835" lon="-5.06212576"><ele>748</ele><speed>11.68</speed><time>2017-04-09T12:40:23Z</time><pdop>5.0</pdop><geoidheight>0.00</geoidheight><course>316.9</course><type>1</type></trkpt>
      <trkpt lat="40.18568636" lon="-5.06226856"><ele>750</ele><speed>13.40</speed><time>2017-04-09T12:40:24Z</time><pdop>5.0</pdop><geoidheight>0.00</geoidheight><course>296.6</course><type>1</type></trkpt>
      <trkpt lat="40.1857239" lon="-5.06241968"><ele>752</ele><speed>13.02</speed><time>2017-04-09T12:40:25Z</time><pdop>5.0</pdop><geoidheight>0.00</geoidheight><course>282.0</course><type>1</type></trkpt>
      <trkpt lat="40.1857215" lon="-5.06260238"><ele>753</ele><speed>15.07</speed><time>2017-04-09T12:40:26Z</time><pdop>6.0</pdop><geoidheight>0.00</geoidheight><course>265.3</course><type>1</type></trkpt>
      <trkpt lat="40.18569958" lon="-5.06276244"><ele>753</ele><speed>14.57</speed><time>2017-04-09T12:40:27Z</time><pdop>6.0</pdop><geoidheight>0.00</geoidheight><course>252.3</course><type>1</type></trkpt>
      <trkpt lat="40.18566117" lon="-5.0629273"><ele>755</ele><speed>13.85</speed><time>2017-04-09T12:40:28Z</time><pdop>7.0</pdop><geoidheight>0.00</geoidheight><course>246.9</course><type>1</type></trkpt>
      <trkpt lat="40.18554517" lon="-5.06305917"><ele>756</ele><speed>13.65</speed><time>2017-04-09T12:40:29Z</time><pdop>5.0</pdop><geoidheight>0.00</geoidheight><course>215.7</course><type>1</type></trkpt>
      <trkpt lat="40.18543986" lon="-5.0631286"><ele>759</ele><speed>11.58</speed><time>2017-04-09T12:40:30Z</time><pdop>5.0</pdop><geoidheight>0.00</geoidheight><course>200.0</course><type>1</type></trkpt>
      <trkpt lat="40.18528892" lon="-5.06315058"><ele>764</ele><speed>6.49</speed><time>2017-04-09T12:40:32Z</time><pdop>5.0</pdop><geoidheight>0.00</geoidheight><course>165.4</course><type>1</type></trkpt>
      <trkpt lat="40.18522013" lon="-5.0630498"><ele>771</ele><speed>4.36</speed><time>2017-04-09T12:40:35Z</time><pdop>4.0</pdop><geoidheight>0.00</geoidheight><course>93.1</course><type>1</type></trkpt>
      <trkpt lat="40.18525556" lon="-5.06296456"><ele>774</ele><speed>5.30</speed><time>2017-04-09T12:40:37Z</time><pdop>4.0</pdop><geoidheight>0.00</geoidheight><course>38.8</course><type>1</type></trkpt>
      <trkpt lat="40.18538069" lon="-5.06294189"><ele>778</ele><speed>8.62</speed><time>2017-04-09T12:40:39Z</time><pdop>3.0</pdop><geoidheight>0.00</geoidheight><course>354.8</course><type>1</type></trkpt>
      <trkpt lat="40.18546816" lon="-5.06297531"><ele>779</ele><speed>9.62</speed><time>2017-04-09T12:40:40Z</time><pdop>3.0</pdop><geoidheight>0.00</geoidheight><course>340.6</course><type>1</type></trkpt>
      <trkpt lat="40.18554486" lon="-5.06302056"><ele>782</ele><speed>10.41</speed><time>2017-04-09T12:40:41Z</time><pdop>3.0</pdop><geoidheight>0.00</geoidheight><course>329.1</course><type>1</type></trkpt>
      <trkpt lat="40.18562619" lon="-5.06308769"><ele>785</ele><speed>11.61</speed><time>2017-04-09T12:40:42Z</time><pdop>3.0</pdop><geoidheight>0.00</geoidheight><course>322.6</course><type>1</type></trkpt>
      <trkpt lat="40.18570759" lon="-5.06317773"><ele>788</ele><speed>11.77</speed><time>2017-04-09T12:40:43Z</time><pdop>4.0</pdop><geoidheight>0.00</geoidheight><course>318.2</course><type>1</type></trkpt>
      <trkpt lat="40.18577023" lon="-5.06330033"><ele>791</ele><speed>12.83</speed><time>2017-04-09T12:40:44Z</time><pdop>4.0</pdop><geoidheight>0.00</geoidheight><course>306.1</course><type>1</type></trkpt>
      <trkpt lat="40.18582757" lon="-5.06343751"><ele>795</ele><speed>13.47</speed><time>2017-04-09T12:40:45Z</time><pdop>4.0</pdop><geoidheight>0.00</geoidheight><course>295.9</course><type>1</type></trkpt>
      <trkpt lat="40.1858813" lon="-5.06359126"><ele>798</ele><speed>14.80</speed><time>2017-04-09T12:40:46Z</time><pdop>4.0</pdop><geoidheight>0.00</geoidheight><course>289.8</course><type>1</type></trkpt>
      <trkpt lat="40.18591854" lon="-5.06376571"><ele>799</ele><speed>15.70</speed><time>2017-04-09T12:40:47Z</time><pdop>4.0</pdop><geoidheight>0.00</geoidheight><course>283.0</course><type>1</type></trkpt>
      <trkpt lat="40.18588475" lon="-5.06415052"><ele>802</ele><speed>16.58</speed><time>2017-04-09T12:40:49Z</time><pdop>4.0</pdop><geoidheight>0.00</geoidheight><course>253.0</course><type>1</type></trkpt>
      <trkpt lat="40.18582513" lon="-5.06433097"><ele>803</ele><speed>17.00</speed><time>2017-04-09T12:40:50Z</time><pdop>4.0</pdop><geoidheight>0.00</geoidheight><course>237.0</course><type>1</type></trkpt>
      <trkpt lat="40.18573686" lon="-5.06446364"><ele>804</ele><speed>15.54</speed><time>2017-04-09T12:40:51Z</time><pdop>3.0</pdop><geoidheight>0.00</geoidheight><course>220.4</course><type>1</type></trkpt>
      <trkpt lat="40.18563443" lon="-5.06456332"><ele>805</ele><speed>13.53</speed><time>2017-04-09T12:40:52Z</time><pdop>4.0</pdop><geoidheight>0.00</geoidheight><course>214.2</course><type>1</type></trkpt>
      <trkpt lat="40.18553399" lon="-5.06462678"><ele>805</ele><speed>12.26</speed><time>2017-04-09T12:40:53Z</time><pdop>6.0</pdop><geoidheight>0.00</geoidheight><course>206.8</course><type>1</type></trkpt>
      <trkpt lat="40.18541334" lon="-5.06458245"><ele>810</ele><speed>7.85</speed><time>2017-04-09T12:40:55Z</time><pdop>5.0</pdop><geoidheight>0.00</geoidheight><course>170.6</course><type>1</type></trkpt>
      <trkpt lat="40.18529439" lon="-5.0645579"><ele>814</ele><speed>5.51</speed><time>2017-04-09T12:40:57Z</time><pdop>4.0</pdop><geoidheight>0.00</geoidheight><course>157.8</course><type>1</type></trkpt>
      <trkpt lat="40.18527991" lon="-5.0643929"><ele>817</ele><speed>6.18</speed><time>2017-04-09T12:41:00Z</time><pdop>4.0</pdop><geoidheight>0.00</geoidheight><course>65.9</course><type>1</type></trkpt>
      <trkpt lat="40.18536296" lon="-5.06427966"><ele>824</ele><speed>6.69</speed><time>2017-04-09T12:41:02Z</time><pdop>4.0</pdop><geoidheight>0.00</geoidheight><course>18.7</course><type>1</type></trkpt>
      <trkpt lat="40.18547992" lon="-5.06429054"><ele>830</ele><speed>7.24</speed><time>2017-04-09T12:41:04Z</time><pdop>4.0</pdop><geoidheight>0.00</geoidheight><course>341.8</course><type>1</type></trkpt>
      <trkpt lat="40.18561062" lon="-5.0643698"><ele>834</ele><speed>9.18</speed><time>2017-04-09T12:41:06Z</time><pdop>4.0</pdop><geoidheight>0.00</geoidheight><course>328.5</course><type>1</type></trkpt>
      <trkpt lat="40.18568098" lon="-5.06443829"><ele>837</ele><speed>9.75</speed><time>2017-04-09T12:41:07Z</time><pdop>4.0</pdop><geoidheight>0.00</geoidheight><course>319.1</course><type>1</type></trkpt>
      <trkpt lat="40.18573445" lon="-5.06453736"><ele>840</ele><speed>10.88</speed><time>2017-04-09T12:41:08Z</time><pdop>4.0</pdop><geoidheight>0.00</geoidheight><course>307.7</course><type>1</type></trkpt>
      <trkpt lat="40.18579374" lon="-5.06466228"><ele>842</ele><speed>13.08</speed><time>2017-04-09T12:41:09Z</time><pdop>3.0</pdop><geoidheight>0.00</geoidheight><course>299.5</course><type>1</type></trkpt>
      <trkpt lat="40.18584573" lon="-5.06481812"><ele>843</ele><speed>15.80</speed><time>2017-04-09T12:41:10Z</time><pdop>3.0</pdop><geoidheight>0.00</geoidheight><course>289.3</course><type>1</type></trkpt>
      <trkpt lat="40.18589284" lon="-5.06500271"><ele>843</ele><speed>16.43</speed><time>2017-04-09T12:41:11Z</time><pdop>4.0</pdop><geoidheight>0.00</geoidheight><course>285.3</course><type>1</type></trkpt>
      <trkpt lat="40.18592108" lon="-5.06519006"><ele>843</ele><speed>16.18</speed><time>2017-04-09T12:41:12Z</time><pdop>5.0</pdop><geoidheight>0.00</geoidheight><course>281.0</course><type>1</type></trkpt>
      <trkpt lat="40.18589776" lon="-5.06542653"><ele>843</ele><speed>18.00</speed><time>2017-04-09T12:41:13Z</time><pdop>7.0</pdop><geoidheight>0.00</geoidheight><course>270.2</course><type>1</type></trkpt>
      <trkpt lat="40.18570795" lon="-5.06554665"><ele>845</ele><speed>14.37</speed><time>2017-04-09T12:41:14Z</time><pdop>5.0</pdop><geoidheight>0.00</geoidheight><course>218.0</course><type>1</type></trkpt>
      <trkpt lat="40.18559743" lon="-5.06562135"><ele>847</ele><speed>11.64</speed><time>2017-04-09T12:41:15Z</time><pdop>4.0</pdop><geoidheight>0.00</geoidheight><course>202.3</course><type>1</type></trkpt>
      <trkpt lat="40.18551541" lon="-5.0656742"><ele>851</ele><speed>8.90</speed><time>2017-04-09T12:41:16Z</time><pdop>4.0</pdop><geoidheight>0.00</geoidheight><course>195.1</course><type>1</type></trkpt>
      <trkpt lat="40.18543987" lon="-5.06568365"><ele>854</ele><speed>7.11</speed><time>2017-04-09T12:41:17Z</time><pdop>4.0</pdop><geoidheight>0.00</geoidheight><course>193.5</course><type>1</type></trkpt>
      <trkpt lat="40.18534392" lon="-5.06569319"><ele>857</ele><speed>4.93</speed><time>2017-04-09T12:41:19Z</time><pdop>4.0</pdop><geoidheight>0.00</geoidheight><course>178.6</course><type>1</type></trkpt>
      <trkpt lat="40.18528238" lon="-5.0656296"><ele>857</ele><speed>4.46</speed><time>2017-04-09T12:41:21Z</time><pdop>4.0</pdop><geoidheight>0.00</geoidheight><course>104.9</course><type>1</type></trkpt>
      <trkpt lat="40.18541913" lon="-5.06554061"><ele>861</ele><speed>9.37</speed><time>2017-04-09T12:41:24Z</time><pdop>4.0</pdop><geoidheight>0.00</geoidheight><course>351.1</course><type>1</type></trkpt>
      <trkpt lat="40.18550645" lon="-5.06558917"><ele>865</ele><speed>10.31</speed><time>2017-04-09T12:41:25Z</time><pdop>4.0</pdop><geoidheight>0.00</geoidheight><course>331.9</course><type>1</type></trkpt>
      <trkpt lat="40.18556566" lon="-5.06566513"><ele>872</ele><speed>9.77</speed><time>2017-04-09T12:41:26Z</time><pdop>4.0</pdop><geoidheight>0.00</geoidheight><course>315.6</course><type>1</type></trkpt>
      <trkpt lat="40.18560964" lon="-5.06574429"><ele>875</ele><speed>9.40</speed><time>2017-04-09T12:41:27Z</time><pdop>4.0</pdop><geoidheight>0.00</geoidheight><course>304.2</course><type>1</type></trkpt>
      <trkpt lat="40.18564051" lon="-5.06585033"><ele>877</ele><speed>10.10</speed><time>2017-04-09T12:41:28Z</time><pdop>4.0</pdop><geoidheight>0.00</geoidheight><course>300.2</course><type>1</type></trkpt>
      <trkpt lat="40.1856863" lon="-5.06596948"><ele>878</ele><speed>12.00</speed><time>2017-04-09T12:41:29Z</time><pdop>3.0</pdop><geoidheight>0.00</geoidheight><course>298.9</course><type>1</type></trkpt>
      <trkpt lat="40.18573915" lon="-5.06611025"><ele>878</ele><speed>14.49</speed><time>2017-04-09T12:41:30Z</time><pdop>3.0</pdop><geoidheight>0.00</geoidheight><course>297.7</course><type>1</type></trkpt>
      <trkpt lat="40.18579729" lon="-5.06626944"><ele>878</ele><speed>15.37</speed><time>2017-04-09T12:41:31Z</time><pdop>3.0</pdop><geoidheight>0.00</geoidheight><course>295.6</course><type>1</type></trkpt>
      <trkpt lat="40.1858147" lon="-5.06646214"><ele>881</ele><speed>16.57</speed><time>2017-04-09T12:41:32Z</time><pdop>3.0</pdop><geoidheight>0.00</geoidheight><course>277.7</course><type>1</type></trkpt>
      <trkpt lat="40.18580219" lon="-5.06664952"><ele>882</ele><speed>16.22</speed><time>2017-04-09T12:41:33Z</time><pdop>3.0</pdop><geoidheight>0.00</geoidheight><course>260.3</course><type>1</type></trkpt>
      <trkpt lat="40.18574732" lon="-5.06681547"><ele>884</ele><speed>15.71</speed><time>2017-04-09T12:41:34Z</time><pdop>3.0</pdop><geoidheight>0.00</geoidheight><course>241.3</course><type>1</type></trkpt>
      <trkpt lat="40.18566524" lon="-5.06696397"><ele>887</ele><speed>14.64</speed><time>2017-04-09T12:41:35Z</time><pdop>3.0</pdop><geoidheight>0.00</geoidheight><course>223.7</course><type>1</type></trkpt>
      <trkpt lat="40.18558307" lon="-5.06705853"><ele>888</ele><speed>12.33</speed><time>2017-04-09T12:41:36Z</time><pdop>3.0</pdop><geoidheight>0.00</geoidheight><course>220.0</course><type>1</type></trkpt>
      <trkpt lat="40.18551736" lon="-5.06708232"><ele>891</ele><speed>8.26</speed><time>2017-04-09T12:41:37Z</time><pdop>4.0</pdop><geoidheight>0.00</geoidheight><course>194.0</course><type>1</type></trkpt>
      <trkpt lat="40.18541606" lon="-5.06708308"><ele>894</ele><speed>4.73</speed><time>2017-04-09T12:41:39Z</time><pdop>4.0</pdop><geoidheight>0.00</geoidheight><course>174.3</course><type>1</type></trkpt>
      <trkpt lat="40.18533956" lon="-5.0670591"><ele>895</ele><speed>3.81</speed><time>2017-04-09T12:41:41Z</time><pdop>4.0</pdop><geoidheight>0.00</geoidheight><course>132.6</course><type>1</type></trkpt>
      <trkpt lat="40.18539081" lon="-5.06697976"><ele>899</ele><speed>5.02</speed><time>2017-04-09T12:41:43Z</time><pdop>3.0</pdop><geoidheight>0.00</geoidheight><course>94.3</course><type>1</type></trkpt>
      <trkpt lat="40.18545781" lon="-5.0669624"><ele>902</ele><speed>6.99</speed><time>2017-04-09T12:41:44Z</time><pdop>3.0</pdop><geoidheight>0.00</geoidheight><course>73.9</course><type>1</type></trkpt>
      <trkpt lat="40.18553396" lon="-5.06697141"><ele>906</ele><speed>5.87</speed><time>2017-04-09T12:41:45Z</time><pdop>3.0</pdop><geoidheight>0.00</geoidheight><course>59.8</course><type>1</type></trkpt>
      <trkpt lat="40.18560448" lon="-5.0670287"><ele>909</ele><speed>8.49</speed><time>2017-04-09T12:41:46Z</time><pdop>3.0</pdop><geoidheight>0.00</geoidheight><course>44.9</course><type>1</type></trkpt>
      <trkpt lat="40.18566201" lon="-5.06711888"><ele>912</ele><speed>9.66</speed><time>2017-04-09T12:41:47Z</time><pdop>3.0</pdop><geoidheight>0.00</geoidheight><course>9.7</course><type>1</type></trkpt>
      <trkpt lat="40.18572186" lon="-5.06722298"><ele>914</ele><speed>8.57</speed><time>2017-04-09T12:41:48Z</time><pdop>3.0</pdop><geoidheight>0.00</geoidheight><course>342.7</course><type>1</type></trkpt>
      <trkpt lat="40.18577797" lon="-5.06738649"><ele>915</ele><speed>13.32</speed><time>2017-04-09T12:41:49Z</time><pdop>3.0</pdop><geoidheight>0.00</geoidheight><course>297.8</course><type>1</type></trkpt>
      <trkpt lat="40.18582373" lon="-5.06754795"><ele>918</ele><speed>14.49</speed><time>2017-04-09T12:41:50Z</time><pdop>3.0</pdop><geoidheight>0.00</geoidheight><course>292.0</course><type>1</type></trkpt>
      <trkpt lat="40.18584311" lon="-5.06773289"><ele>920</ele><speed>15.30</speed><time>2017-04-09T12:41:51Z</time><pdop>3.0</pdop><geoidheight>0.00</geoidheight><course>282.1</course><type>1</type></trkpt>
      <trkpt lat="40.18582301" lon="-5.06792962"><ele>922</ele><speed>16.15</speed><time>2017-04-09T12:41:52Z</time><pdop>3.0</pdop><geoidheight>0.00</geoidheight><course>265.2</course><type>1</type></trkpt>
      <trkpt lat="40.18578732" lon="-5.06810933"><ele>923</ele><speed>15.53</speed><time>2017-04-09T12:41:53Z</time><pdop>3.0</pdop><geoidheight>0.00</geoidheight><course>251.2</course><type>1</type></trkpt>
      <trkpt lat="40.18574823" lon="-5.0682331"><ele>924</ele><speed>12.63</speed><time>2017-04-09T12:41:54Z</time><pdop>4.0</pdop><geoidheight>0.00</geoidheight><course>215.6</course><type>1</type></trkpt>
      <trkpt lat="40.18561817" lon="-5.06828106"><ele>926</ele><speed>11.65</speed><time>2017-04-09T12:41:55Z</time><pdop>3.0</pdop><geoidheight>0.00</geoidheight><course>202.7</course><type>1</type></trkpt>
      <trkpt lat="40.18552832" lon="-5.06831207"><ele>928</ele><speed>9.72</speed><time>2017-04-09T12:41:56Z</time><pdop>3.0</pdop><geoidheight>0.00</geoidheight><course>184.6</course><type>1</type></trkpt>
      <trkpt lat="40.18545877" lon="-5.06831238"><ele>932</ele><speed>7.84</speed><time>2017-04-09T12:41:57Z</time><pdop>3.0</pdop><geoidheight>0.00</geoidheight><course>164.3</course><type>1</type></trkpt>
      <trkpt lat="40.18539797" lon="-5.06830218"><ele>936</ele><speed>6.48</speed><time>2017-04-09T12:41:58Z</time><pdop>3.0</pdop><geoidheight>0.00</geoidheight><course>160.9</course><type>1</type></trkpt>
      <trkpt lat="40.1853328" lon="-5.06827323"><ele>942</ele><speed>3.28</speed><time>2017-04-09T12:42:00Z</time><pdop>3.0</pdop><geoidheight>0.00</geoidheight><course>111.4</course><type>1</type></trkpt>
      <trkpt lat="40.18533788" lon="-5.06818897"><ele>944</ele><speed>4.38</speed><time>2017-04-09T12:42:02Z</time><pdop>3.0</pdop><geoidheight>0.00</geoidheight><course>79.7</course><type>1</type></trkpt>
      <trkpt lat="40.18540079" lon="-5.06815983"><ele>945</ele><speed>6.35</speed><time>2017-04-09T12:42:03Z</time><pdop>3.0</pdop><geoidheight>0.00</geoidheight><course>56.2</course><type>1</type></trkpt>
      <trkpt lat="40.18549319" lon="-5.06817526"><ele>947</ele><speed>9.02</speed><time>2017-04-09T12:42:04Z</time><pdop>3.0</pdop><geoidheight>0.00</geoidheight><course>30.6</course><type>1</type></trkpt>
      <trkpt lat="40.18558002" lon="-5.06825444"><ele>950</ele><speed>11.05</speed><time>2017-04-09T12:42:05Z</time><pdop>3.0</pdop><geoidheight>0.00</geoidheight><course>9.3</course><type>1</type></trkpt>
      <trkpt lat="40.18564445" lon="-5.06837828"><ele>954</ele><speed>12.31</speed><time>2017-04-09T12:42:06Z</time><pdop>3.0</pdop><geoidheight>0.00</geoidheight><course>352.5</course><type>1</type></trkpt>
      <trkpt lat="40.18568599" lon="-5.06852468"><ele>957</ele><speed>12.65</speed><time>2017-04-09T12:42:07Z</time><pdop>3.0</pdop><geoidheight>0.00</geoidheight><course>329.0</course><type>1</type></trkpt>
      <trkpt lat="40.18571814" lon="-5.06867603"><ele>959</ele><speed>12.91</speed><time>2017-04-09T12:42:08Z</time><pdop>3.0</pdop><geoidheight>0.00</geoidheight><course>310.2</course><type>1</type></trkpt>
      <trkpt lat="40.18573917" lon="-5.06882973"><ele>959</ele><speed>13.52</speed><time>2017-04-09T12:42:09Z</time><pdop>3.0</pdop><geoidheight>0.00</geoidheight><course>294.1</course><type>1</type></trkpt>
      <trkpt lat="40.1857526" lon="-5.06899786"><ele>960</ele><speed>14.42</speed><time>2017-04-09T12:42:10Z</time><pdop>3.0</pdop><geoidheight>0.00</geoidheight><course>277.8</course><type>1</type></trkpt>
      <trkpt lat="40.18573491" lon="-5.06918502"><ele>962</ele><speed>15.81</speed><time>2017-04-09T12:42:11Z</time><pdop>3.0</pdop><geoidheight>0.00</geoidheight><course>257.5</course><type>1</type></trkpt>
      <trkpt lat="40.18568097" lon="-5.06936665"><ele>963</ele><speed>16.22</speed><time>2017-04-09T12:42:12Z</time><pdop>3.0</pdop><geoidheight>0.00</geoidheight><course>233.0</course><type>1</type></trkpt>
      <trkpt lat="40.18560012" lon="-5.06951757"><ele>965</ele><speed>15.61</speed><time>2017-04-09T12:42:13Z</time><pdop>3.0</pdop><geoidheight>0.00</geoidheight><course>211.8</course><type>1</type></trkpt>
      <trkpt lat="40.1854951" lon="-5.0695968"><ele>967</ele><speed>13.35</speed><time>2017-04-09T12:42:14Z</time><pdop>3.0</pdop><geoidheight>0.00</geoidheight><course>213.0</course><type>1</type></trkpt>
      <trkpt lat="40.18540691" lon="-5.06961421"><ele>970</ele><speed>10.18</speed><time>2017-04-09T12:42:15Z</time><pdop>3.0</pdop><geoidheight>0.00</geoidheight><course>190.7</course><type>1</type></trkpt>
      <trkpt lat="40.18534815" lon="-5.06960526"><ele>974</ele><speed>7.22</speed><time>2017-04-09T12:42:16Z</time><pdop>3.0</pdop><geoidheight>0.00</geoidheight><course>161.7</course><type>1</type></trkpt>
      <trkpt lat="40.18528831" lon="-5.06956631"><ele>980</ele><speed>3.61</speed><time>2017-04-09T12:42:18Z</time><pdop>3.0</pdop><geoidheight>0.00</geoidheight><course>136.7</course><type>1</type></trkpt>
      <trkpt lat="40.18527699" lon="-5.06948564"><ele>983</ele><speed>3.76</speed><time>2017-04-09T12:42:20Z</time><pdop>3.0</pdop><geoidheight>0.00</geoidheight><course>68.0</course><type>1</type></trkpt>
      <trkpt lat="40.18538002" lon="-5.06945092"><ele>986</ele><speed>6.68</speed><time>2017-04-09T12:42:22Z</time><pdop>3.0</pdop><geoidheight>0.00</geoidheight><course>351.6</course><type>1</type></trkpt>
      <trkpt lat="40.18545961" lon="-5.06950015"><ele>988</ele><speed>9.57</speed><time>2017-04-09T12:42:23Z</time><pdop>3.0</pdop><geoidheight>0.00</geoidheight><course>322.3</course><type>1</type></trkpt>
      <trkpt lat="40.1855381" lon="-5.06959589"><ele>991</ele><speed>11.90</speed><time>2017-04-09T12:42:24Z</time><pdop>3.0</pdop><geoidheight>0.00</geoidheight><course>311.4</course><type>1</type></trkpt>
      <trkpt lat="40.18559174" lon="-5.06970112"><ele>992</ele><speed>10.89</speed><time>2017-04-09T12:42:25Z</time><pdop>3.0</pdop><geoidheight>0.00</geoidheight><course>295.2</course><type>1</type></trkpt>
      <trkpt lat="40.18561893" lon="-5.06986045"><ele>993</ele><speed>13.89</speed><time>2017-04-09T12:42:26Z</time><pdop>3.0</pdop><geoidheight>0.00</geoidheight><course>281.4</course><type>1</type></trkpt>
      <trkpt lat="40.18563731" lon="-5.07002823"><ele>993</ele><speed>14.95</speed><time>2017-04-09T12:42:27Z</time><pdop>3.0</pdop><geoidheight>0.00</geoidheight><course>268.0</course><type>1</type></trkpt>
      <trkpt lat="40.18561305" lon="-5.07020536"><ele>994</ele><speed>15.49</speed><time>2017-04-09T12:42:28Z</time><pdop>3.0</pdop><geoidheight>0.00</geoidheight><course>258.7</course><type>1</type></trkpt>
      <trkpt lat="40.18556742" lon="-5.07037743"><ele>996</ele><speed>15.61</speed><time>2017-04-09T12:42:29Z</time><pdop>3.0</pdop><geoidheight>0.00</geoidheight><course>248.4</course><type>1</type></trkpt>
      <trkpt lat="40.18548952" lon="-5.07053675"><ele>998</ele><speed>14.78</speed><time>2017-04-09T12:42:30Z</time><pdop>3.0</pdop><geoidheight>0.00</geoidheight><course>237.1</course><type>1</type></trkpt>
      <trkpt lat="40.18540625" lon="-5.07065939"><ele>999</ele><speed>13.29</speed><time>2017-04-09T12:42:31Z</time><pdop>3.0</pdop><geoidheight>0.00</geoidheight><course>222.5</course><type>1</type></trkpt>
      <trkpt lat="40.18532104" lon="-5.07075762"><ele>1000</ele><speed>12.50</speed><time>2017-04-09T12:42:32Z</time><pdop>3.0</pdop><geoidheight>0.00</geoidheight><course>218.0</course><type>1</type></trkpt>
      <trkpt lat="40.18522549" lon="-5.07080942"><ele>1002</ele><speed>10.51</speed><time>2017-04-09T12:42:33Z</time><pdop>3.0</pdop><geoidheight>0.00</geoidheight><course>200.6</course><type>1</type></trkpt>
      <trkpt lat="40.18513723" lon="-5.07085724"><ele>1004</ele><speed>8.86</speed><time>2017-04-09T12:42:34Z</time><pdop>3.0</pdop><geoidheight>0.00</geoidheight><course>191.6</course><type>1</type></trkpt>
      <trkpt lat="40.18507068" lon="-5.07085945"><ele>1006</ele><speed>6.88</speed><time>2017-04-09T12:42:35Z</time><pdop>3.0</pdop><geoidheight>0.00</geoidheight><course>177.2</course><type>1</type></trkpt>
      <trkpt lat="40.18499834" lon="-5.07082726"><ele>1010</ele><speed>4.85</speed><time>2017-04-09T12:42:37Z</time><pdop>3.0</pdop><geoidheight>0.00</geoidheight><course>134.6</course><type>1</type></trkpt>
      <trkpt lat="40.18500067" lon="-5.07071643"><ele>1014</ele><speed>5.07</speed><time>2017-04-09T12:42:39Z</time><pdop>3.0</pdop><geoidheight>0.00</geoidheight><course>55.3</course><type>1</type></trkpt>
      <trkpt lat="40.18504979" lon="-5.07067844"><ele>1016</ele><speed>6.73</speed><time>2017-04-09T12:42:40Z</time><pdop>3.0</pdop><geoidheight>0.00</geoidheight><course>17.1</course><type>1</type></trkpt>
      <trkpt lat="40.18511901" lon="-5.07068321"><ele>1018</ele><speed>8.05</speed><time>2017-04-09T12:42:41Z</time><pdop>3.0</pdop><geoidheight>0.00</geoidheight><course>353.6</course><type>1</type></trkpt>
      <trkpt lat="40.18519934" lon="-5.0707143"><ele>1018</ele><speed>9.37</speed><time>2017-04-09T12:42:42Z</time><pdop>3.0</pdop><geoidheight>0.00</geoidheight><course>337.0</course><type>1</type></trkpt>
      <trkpt lat="40.1852734" lon="-5.07077953"><ele>1020</ele><speed>10.82</speed><time>2017-04-09T12:42:43Z</time><pdop>4.0</pdop><geoidheight>0.00</geoidheight><course>324.2</course><type>1</type></trkpt>
      <trkpt lat="40.18534592" lon="-5.07085625"><ele>1022</ele><speed>12.30</speed><time>2017-04-09T12:42:44Z</time><pdop>3.0</pdop><geoidheight>0.00</geoidheight><course>313.8</course><type>1</type></trkpt>
      <trkpt lat="40.18541632" lon="-5.07095698"><ele>1023</ele><speed>14.25</speed><time>2017-04-09T12:42:45Z</time><pdop>3.0</pdop><geoidheight>0.00</geoidheight><course>299.4</course><type>1</type></trkpt>
      <trkpt lat="40.18546235" lon="-5.07112321"><ele>1024</ele><speed>16.04</speed><time>2017-04-09T12:42:46Z</time><pdop>3.0</pdop><geoidheight>0.00</geoidheight><course>286.0</course><type>1</type></trkpt>
      <trkpt lat="40.18549985" lon="-5.07131798"><ele>1028</ele><speed>16.95</speed><time>2017-04-09T12:42:47Z</time><pdop>3.0</pdop><geoidheight>0.00</geoidheight><course>272.3</course><type>1</type></trkpt>
      <trkpt lat="40.18548457" lon="-5.07151223"><ele>1030</ele><speed>16.52</speed><time>2017-04-09T12:42:48Z</time><pdop>3.0</pdop><geoidheight>0.00</geoidheight><course>260.0</course><type>1</type></trkpt>
      <trkpt lat="40.18543983" lon="-5.07169508"><ele>1033</ele><speed>15.23</speed><time>2017-04-09T12:42:49Z</time><pdop>3.0</pdop><geoidheight>0.00</geoidheight><course>248.2</course><type>1</type></trkpt>
      <trkpt lat="40.18538287" lon="-5.07184705"><ele>1037</ele><speed>13.70</speed><time>2017-04-09T12:42:50Z</time><pdop>3.0</pdop><geoidheight>0.00</geoidheight><course>238.8</course><type>1</type></trkpt>
      <trkpt lat="40.18530938" lon="-5.07196499"><ele>1040</ele><speed>12.25</speed><time>2017-04-09T12:42:51Z</time><pdop>3.0</pdop><geoidheight>0.00</geoidheight><course>226.1</course><type>1</type></trkpt>
      <trkpt lat="40.18523473" lon="-5.07204406"><ele>1043</ele><speed>10.55</speed><time>2017-04-09T12:42:52Z</time><pdop>3.0</pdop><geoidheight>0.00</geoidheight><course>209.7</course><type>1</type></trkpt>
      <trkpt lat="40.18514879" lon="-5.07207993"><ele>1043</ele><speed>8.94</speed><time>2017-04-09T12:42:53Z</time><pdop>3.0</pdop><geoidheight>0.00</geoidheight><course>186.8</course><type>1</type></trkpt>
      <trkpt lat="40.18507959" lon="-5.07205756"><ele>1044</ele><speed>7.09</speed><time>2017-04-09T12:42:54Z</time><pdop>3.0</pdop><geoidheight>0.00</geoidheight><course>148.8</course><type>1</type></trkpt>
      <trkpt lat="40.18510618" lon="-5.07195413"><ele>1047</ele><speed>7.80</speed><time>2017-04-09T12:42:56Z</time><pdop>3.0</pdop><geoidheight>0.00</geoidheight><course>24.7</course><type>1</type></trkpt>
      <trkpt lat="40.18518889" lon="-5.07193649"><ele>1049</ele><speed>11.82</speed><time>2017-04-09T12:42:57Z</time><pdop>4.0</pdop><geoidheight>0.00</geoidheight><course>349.2</course><type>1</type></trkpt>
      <trkpt lat="40.18528898" lon="-5.07199585"><ele>1052</ele><speed>13.24</speed><time>2017-04-09T12:42:58Z</time><pdop>3.0</pdop><geoidheight>0.00</geoidheight><course>328.3</course><type>1</type></trkpt>
      <trkpt lat="40.18538324" lon="-5.07209464"><ele>1053</ele><speed>12.96</speed><time>2017-04-09T12:42:59Z</time><pdop>4.0</pdop><geoidheight>0.00</geoidheight><course>318.6</course><type>1</type></trkpt>
      <trkpt lat="40.18544442" lon="-5.07222496"><ele>1055</ele><speed>13.30</speed><time>2017-04-09T12:43:00Z</time><pdop>4.0</pdop><geoidheight>0.00</geoidheight><course>306.6</course><type>1</type></trkpt>
      <trkpt lat="40.18550865" lon="-5.07235469"><ele>1058</ele><speed>13.18</speed><time>2017-04-09T12:43:01Z</time><pdop>4.0</pdop><geoidheight>0.00</geoidheight><course>300.0</course><type>1</type></trkpt>
      <trkpt lat="40.18555568" lon="-5.0724994"><ele>1059</ele><speed>13.44</speed><time>2017-04-09T12:43:02Z</time><pdop>4.0</pdop><geoidheight>0.00</geoidheight><course>291.0</course><type>1</type></trkpt>
      <trkpt lat="40.18559364" lon="-5.07267692"><ele>1062</ele><speed>15.30</speed><time>2017-04-09T12:43:03Z</time><pdop>4.0</pdop><geoidheight>0.00</geoidheight><course>279.9</course><type>1</type></trkpt>
      <trkpt lat="40.18559116" lon="-5.07287347"><ele>1063</ele><speed>16.80</speed><time>2017-04-09T12:43:04Z</time><pdop>4.0</pdop><geoidheight>0.00</geoidheight><course>266.7</course><type>1</type></trkpt>
      <trkpt lat="40.18555921" lon="-5.07307208"><ele>1064</ele><speed>17.14</speed><time>2017-04-09T12:43:05Z</time><pdop>4.0</pdop><geoidheight>0.00</geoidheight><course>251.2</course><type>1</type></trkpt>
      <trkpt lat="40.18549041" lon="-5.07323307"><ele>1066</ele><speed>16.01</speed><time>2017-04-09T12:43:06Z</time><pdop>4.0</pdop><geoidheight>0.00</geoidheight><course>235.1</course><type>1</type></trkpt>
      <trkpt lat="40.18539806" lon="-5.07335386"><ele>1069</ele><speed>14.12</speed><time>2017-04-09T12:43:07Z</time><pdop>3.0</pdop><geoidheight>0.00</geoidheight><course>217.2</course><type>1</type></trkpt>
      <trkpt lat="40.1853014" lon="-5.07342345"><ele>1072</ele><speed>11.64</speed><time>2017-04-09T12:43:08Z</time><pdop>3.0</pdop><geoidheight>0.00</geoidheight><course>201.1</course><type>1</type></trkpt>
      <trkpt lat="40.18521249" lon="-5.07345391"><ele>1075</ele><speed>8.59</speed><time>2017-04-09T12:43:09Z</time><pdop>3.0</pdop><geoidheight>0.00</geoidheight><course>183.5</course><type>1</type></trkpt>
      <trkpt lat="40.18514928" lon="-5.07344782"><ele>1078</ele><speed>6.31</speed><time>2017-04-09T12:43:10Z</time><pdop>3.0</pdop><geoidheight>0.00</geoidheight><course>162.0</course><type>1</type></trkpt>
      <trkpt lat="40.18507761" lon="-5.0734121"><ele>1080</ele><speed>2.94</speed><time>2017-04-09T12:43:12Z</time><pdop>3.0</pdop><geoidheight>0.00</geoidheight><course>19.4</course><type>1</type></trkpt>
      <trkpt lat="40.18511378" lon="-5.07334803"><ele>1082</ele><speed>5.16</speed><time>2017-04-09T12:43:15Z</time><pdop>3.0</pdop><geoidheight>0.00</geoidheight><course>20.1</course><type>1</type></trkpt>
      <trkpt lat="40.1851814" lon="-5.07332676"><ele>1082</ele><speed>8.28</speed><time>2017-04-09T12:43:16Z</time><pdop>3.0</pdop><geoidheight>0.00</geoidheight><course>2.8</course><type>1</type></trkpt>
      <trkpt lat="40.18527837" lon="-5.07335578"><ele>1083</ele><speed>12.43</speed><time>2017-04-09T12:43:17Z</time><pdop>3.0</pdop><geoidheight>0.00</geoidheight><course>339.2</course><type>1</type></trkpt>
      <trkpt lat="40.18538471" lon="-5.07345375"><ele>1085</ele><speed>15.51</speed><time>2017-04-09T12:43:18Z</time><pdop>3.0</pdop><geoidheight>0.00</geoidheight><course>315.5</course><type>1</type></trkpt>
      <trkpt lat="40.18546646" lon="-5.07361748"><ele>1086</ele><speed>16.43</speed><time>2017-04-09T12:43:19Z</time><pdop>3.0</pdop><geoidheight>0.00</geoidheight><course>297.4</course><type>1</type></trkpt>
      <trkpt lat="40.1855108" lon="-5.07379424"><ele>1090</ele><speed>15.77</speed><time>2017-04-09T12:43:20Z</time><pdop>3.0</pdop><geoidheight>0.00</geoidheight><course>283.8</course><type>1</type></trkpt>
      <trkpt lat="40.18553334" lon="-5.07396793"><ele>1094</ele><speed>14.54</speed><time>2017-04-09T12:43:21Z</time><pdop>3.0</pdop><geoidheight>0.00</geoidheight><course>278.1</course><type>1</type></trkpt>
      <trkpt lat="40.18554839" lon="-5.07413315"><ele>1097</ele><speed>14.13</speed><time>2017-04-09T12:43:22Z</time><pdop>3.0</pdop><geoidheight>0.00</geoidheight><course>277.1</course><type>1</type></trkpt>
      <trkpt lat="40.18555725" lon="-5.07428961"><ele>1097</ele><speed>14.22</speed><time>2017-04-09T12:43:23Z</time><pdop>3.0</pdop><geoidheight>0.00</geoidheight><course>274.4</course><type>1</type></trkpt>
      <trkpt lat="40.18555868" lon="-5.07445595"><ele>1098</ele><speed>14.30</speed><time>2017-04-09T12:43:24Z</time><pdop>3.0</pdop><geoidheight>0.00</geoidheight><course>266.4</course><type>1</type></trkpt>
      <trkpt lat="40.18552867" lon="-5.0746269"><ele>1097</ele><speed>14.85</speed><time>2017-04-09T12:43:25Z</time><pdop>3.0</pdop><geoidheight>0.00</geoidheight><course>254.3</course><type>1</type></trkpt>
      <trkpt lat="40.18547351" lon="-5.07478542"><ele>1097</ele><speed>15.28</speed><time>2017-04-09T12:43:26Z</time><pdop>3.0</pdop><geoidheight>0.00</geoidheight><course>241.9</course><type>1</type></trkpt>
      <trkpt lat="40.18538792" lon="-5.0749243"><ele>1098</ele><speed>15.53</speed><time>2017-04-09T12:43:27Z</time><pdop>3.0</pdop><geoidheight>0.00</geoidheight><course>223.3</course><type>1</type></trkpt>
      <trkpt lat="40.1852755" lon="-5.07501963"><ele>1099</ele><speed>13.59</speed><time>2017-04-09T12:43:28Z</time><pdop>3.0</pdop><geoidheight>0.00</geoidheight><course>203.5</course><type>1</type></trkpt>
      <trkpt lat="40.18515963" lon="-5.07504181"><ele>1099</ele><speed>10.71</speed><time>2017-04-09T12:43:29Z</time><pdop>3.0</pdop><geoidheight>0.00</geoidheight><course>181.6</course><type>1</type></trkpt>
      <trkpt lat="40.18507851" lon="-5.07502319"><ele>1101</ele><speed>8.09</speed><time>2017-04-09T12:43:30Z</time><pdop>3.0</pdop><geoidheight>0.00</geoidheight><course>160.4</course><type>1</type></trkpt>
      <trkpt lat="40.18502692" lon="-5.07498948"><ele>1105</ele><speed>5.66</speed><time>2017-04-09T12:43:31Z</time><pdop>3.0</pdop><geoidheight>0.00</geoidheight><course>151.8</course><type>1</type></trkpt>
      <trkpt lat="40.18495114" lon="-5.07494804"><ele>1110</ele><speed>4.09</speed><time>2017-04-09T12:43:33Z</time><pdop>3.0</pdop><geoidheight>0.00</geoidheight><course>162.0</course><type>1</type></trkpt>
      <trkpt lat="40.1851191" lon="-5.07503755"><ele>1111</ele><speed>13.88</speed><time>2017-04-09T12:43:39Z</time><pdop>4.0</pdop><geoidheight>0.00</geoidheight><course>314.9</course><type>1</type></trkpt>
      <trkpt lat="40.18520441" lon="-5.07515995"><ele>1112</ele><speed>14.44</speed><time>2017-04-09T12:43:40Z</time><pdop>4.0</pdop><geoidheight>0.00</geoidheight><course>303.4</course><type>1</type></trkpt>
      <trkpt lat="40.18525948" lon="-5.07532647"><ele>1113</ele><speed>15.11</speed><time>2017-04-09T12:43:41Z</time><pdop>3.0</pdop><geoidheight>0.00</geoidheight><course>288.0</course><type>1</type></trkpt>
      <trkpt lat="40.18531106" lon="-5.07549059"><ele>1114</ele><speed>14.14</speed><time>2017-04-09T12:43:42Z</time><pdop>3.0</pdop><geoidheight>0.00</geoidheight><course>280.7</course><type>1</type></trkpt>
      <trkpt lat="40.18534805" lon="-5.07565852"><ele>1116</ele><speed>13.49</speed><time>2017-04-09T12:43:43Z</time><pdop>3.0</pdop><geoidheight>0.00</geoidheight><course>276.1</course><type>1</type></trkpt>
      <trkpt lat="40.18533887" lon="-5.0758137"><ele>1118</ele><speed>13.95</speed><time>2017-04-09T12:43:44Z</time><pdop>3.0</pdop><geoidheight>0.00</geoidheight><course>270.4</course><type>1</type></trkpt>
      <trkpt lat="40.18533882" lon="-5.07598911"><ele>1117</ele><speed>15.12</speed><time>2017-04-09T12:43:45Z</time><pdop>3.0</pdop><geoidheight>0.00</geoidheight><course>263.5</course><type>1</type></trkpt>
      <trkpt lat="40.18528497" lon="-5.0761614"><ele>1116</ele><speed>16.91</speed><time>2017-04-09T12:43:46Z</time><pdop>3.0</pdop><geoidheight>0.00</geoidheight><course>249.5</course><type>1</type></trkpt>
      <trkpt lat="40.18520755" lon="-5.07633576"><ele>1116</ele><speed>17.58</speed><time>2017-04-09T12:43:47Z</time><pdop>3.0</pdop><geoidheight>0.00</geoidheight><course>236.7</course><type>1</type></trkpt>
      <trkpt lat="40.18510774" lon="-5.07648242"><ele>1116</ele><speed>16.05</speed><time>2017-04-09T12:43:48Z</time><pdop>3.0</pdop><geoidheight>0.00</geoidheight><course>223.9</course><type>1</type></trkpt>
      <trkpt lat="40.18499794" lon="-5.07657651"><ele>1118</ele><speed>13.94</speed><time>2017-04-09T12:43:49Z</time><pdop>3.0</pdop><geoidheight>0.00</geoidheight><course>211.0</course><type>1</type></trkpt>
      <trkpt lat="40.18490647" lon="-5.07663494"><ele>1120</ele><speed>11.78</speed><time>2017-04-09T12:43:50Z</time><pdop>3.0</pdop><geoidheight>0.00</geoidheight><course>204.6</course><type>1</type></trkpt>
      <trkpt lat="40.1848199" lon="-5.07668532"><ele>1122</ele><speed>9.96</speed><time>2017-04-09T12:43:51Z</time><pdop>3.0</pdop><geoidheight>0.00</geoidheight><course>201.4</course><type>1</type></trkpt>
      <trkpt lat="40.18474106" lon="-5.07670453"><ele>1123</ele><speed>8.91</speed><time>2017-04-09T12:43:52Z</time><pdop>3.0</pdop><geoidheight>0.00</geoidheight><course>196.2</course><type>1</type></trkpt>
      <trkpt lat="40.18466936" lon="-5.0767248"><ele>1123</ele><speed>7.93</speed><time>2017-04-09T12:43:53Z</time><pdop>3.0</pdop><geoidheight>0.00</geoidheight><course>187.4</course><type>1</type></trkpt>
      <trkpt lat="40.18460701" lon="-5.07672349"><ele>1125</ele><speed>6.91</speed><time>2017-04-09T12:43:54Z</time><pdop>3.0</pdop><geoidheight>0.00</geoidheight><course>173.1</course><type>1</type></trkpt>
      <trkpt lat="40.18455319" lon="-5.07670945"><ele>1126</ele><speed>4.93</speed><time>2017-04-09T12:43:55Z</time><pdop>3.0</pdop><geoidheight>0.00</geoidheight><course>151.9</course><type>1</type></trkpt>
      <trkpt lat="40.18475652" lon="-5.07675342"><ele>1129</ele><speed>10.48</speed><time>2017-04-09T12:44:01Z</time><pdop>3.0</pdop><geoidheight>0.00</geoidheight><course>320.8</course><type>1</type></trkpt>
      <trkpt lat="40.18482163" lon="-5.07685549"><ele>1129</ele><speed>12.77</speed><time>2017-04-09T12:44:02Z</time><pdop>3.0</pdop><geoidheight>0.00</geoidheight><course>308.4</course><type>1</type></trkpt>
      <trkpt lat="40.18488322" lon="-5.07698972"><ele>1130</ele><speed>13.96</speed><time>2017-04-09T12:44:03Z</time><pdop>3.0</pdop><geoidheight>0.00</geoidheight><course>299.5</course><type>1</type></trkpt>
      <trkpt lat="40.18493404" lon="-5.0771422"><ele>1130</ele><speed>14.66</speed><time>2017-04-09T12:44:04Z</time><pdop>3.0</pdop><geoidheight>0.00</geoidheight><course>291.8</course><type>1</type></trkpt>
      <trkpt lat="40.18498261" lon="-5.07731173"><ele>1131</ele><speed>15.33</speed><time>2017-04-09T12:44:05Z</time><pdop>3.0</pdop><geoidheight>0.00</geoidheight><course>285.6</course><type>1</type></trkpt>
      <trkpt lat="40.18501463" lon="-5.0774834"><ele>1132</ele><speed>15.28</speed><time>2017-04-09T12:44:06Z</time><pdop>3.0</pdop><geoidheight>0.00</geoidheight><course>283.0</course><type>1</type></trkpt>
      <trkpt lat="40.18503134" lon="-5.07765722"><ele>1133</ele><speed>15.46</speed><time>2017-04-09T12:44:07Z</time><pdop>3.0</pdop><geoidheight>0.00</geoidheight><course>278.2</course><type>1</type></trkpt>
      <trkpt lat="40.18504844" lon="-5.07784627"><ele>1134</ele><speed>16.02</speed><time>2017-04-09T12:44:08Z</time><pdop>3.0</pdop><geoidheight>0.00</geoidheight><course>273.2</course><type>1</type></trkpt>
      <trkpt lat="40.18504885" lon="-5.07802513"><ele>1134</ele><speed>16.23</speed><time>2017-04-09T12:44:09Z</time><pdop>3.0</pdop><geoidheight>0.00</geoidheight><course>266.3</course><type>1</type></trkpt>
      <trkpt lat="40.18504007" lon="-5.07819329"><ele>1134</ele><speed>15.88</speed><time>2017-04-09T12:44:10Z</time><pdop>3.0</pdop><geoidheight>0.00</geoidheight><course>262.8</course><type>1</type></trkpt>
      <trkpt lat="40.18502115" lon="-5.07836864"><ele>1135</ele><speed>15.12</speed><time>2017-04-09T12:44:11Z</time><pdop>3.0</pdop><geoidheight>0.00</geoidheight><course>260.5</course><type>1</type></trkpt>
      <trkpt lat="40.18499333" lon="-5.07853927"><ele>1135</ele><speed>14.31</speed><time>2017-04-09T12:44:12Z</time><pdop>3.0</pdop><geoidheight>0.00</geoidheight><course>255.4</course><type>1</type></trkpt>
      <trkpt lat="40.18494893" lon="-5.07869832"><ele>1135</ele><speed>14.19</speed><time>2017-04-09T12:44:13Z</time><pdop>3.0</pdop><geoidheight>0.00</geoidheight><course>247.4</course><type>1</type></trkpt>
      <trkpt lat="40.18488413" lon="-5.07883496"><ele>1135</ele><speed>14.79</speed><time>2017-04-09T12:44:14Z</time><pdop>3.0</pdop><geoidheight>0.00</geoidheight><course>236.8</course><type>1</type></trkpt>
      <trkpt lat="40.18479454" lon="-5.07897008"><ele>1134</ele><speed>15.05</speed><time>2017-04-09T12:44:15Z</time><pdop>3.0</pdop><geoidheight>0.00</geoidheight><course>223.2</course><type>1</type></trkpt>
      <trkpt lat="40.18467975" lon="-5.07907707"><ele>1134</ele><speed>14.12</speed><time>2017-04-09T12:44:16Z</time><pdop>3.0</pdop><geoidheight>0.00</geoidheight><course>209.3</course><type>1</type></trkpt>
      <trkpt lat="40.18457732" lon="-5.07912208"><ele>1134</ele><speed>12.13</speed><time>2017-04-09T12:44:17Z</time><pdop>3.0</pdop><geoidheight>0.00</geoidheight><course>193.8</course><type>1</type></trkpt>
      <trkpt lat="40.18448315" lon="-5.07913796"><ele>1135</ele><speed>9.84</speed><time>2017-04-09T12:44:18Z</time><pdop>3.0</pdop><geoidheight>0.00</geoidheight><course>182.3</course><type>1</type></trkpt>
      <trkpt lat="40.18440512" lon="-5.07913472"><ele>1135</ele><speed>7.79</speed><time>2017-04-09T12:44:19Z</time><pdop>3.0</pdop><geoidheight>0.00</geoidheight><course>178.2</course><type>1</type></trkpt>
      <trkpt lat="40.18434198" lon="-5.07911717"><ele>1135</ele><speed>6.64</speed><time>2017-04-09T12:44:20Z</time><pdop>3.0</pdop><geoidheight>0.00</geoidheight><course>175.8</course><type>1</type></trkpt>
      <trkpt lat="40.18428387" lon="-5.0790968"><ele>1135</ele><speed>6.26</speed><time>2017-04-09T12:44:21Z</time><pdop>3.0</pdop><geoidheight>0.00</geoidheight><course>172.0</course><type>1</type></trkpt>
      <trkpt lat="40.18423499" lon="-5.07906153"><ele>1134</ele><speed>5.83</speed><time>2017-04-09T12:44:22Z</time><pdop>3.0</pdop><geoidheight>0.00</geoidheight><course>165.6</course><type>1</type></trkpt>
      <trkpt lat="40.18417197" lon="-5.07897735"><ele>1132</ele><speed>4.98</speed><time>2017-04-09T12:44:24Z</time><pdop>3.0</pdop><geoidheight>0.00</geoidheight><course>121.0</course><type>1</type></trkpt>
      <trkpt lat="40.18419332" lon="-5.07887567"><ele>1132</ele><speed>4.95</speed><time>2017-04-09T12:44:26Z</time><pdop>3.0</pdop><geoidheight>0.00</geoidheight><course>46.8</course><type>1</type></trkpt>
      <trkpt lat="40.18430599" lon="-5.07884749"><ele>1130</ele><speed>9.05</speed><time>2017-04-09T12:44:28Z</time><pdop>3.0</pdop><geoidheight>0.00</geoidheight><course>342.4</course><type>1</type></trkpt>
      <trkpt lat="40.18438909" lon="-5.07890999"><ele>1129</ele><speed>11.10</speed><time>2017-04-09T12:44:29Z</time><pdop>3.0</pdop><geoidheight>0.00</geoidheight><course>321.8</course><type>1</type></trkpt>
      <trkpt lat="40.18446443" lon="-5.07903071"><ele>1130</ele><speed>12.79</speed><time>2017-04-09T12:44:30Z</time><pdop>3.0</pdop><geoidheight>0.00</geoidheight><course>307.8</course><type>1</type></trkpt>
      <trkpt lat="40.18453402" lon="-5.07916616"><ele>1130</ele><speed>14.19</speed><time>2017-04-09T12:44:31Z</time><pdop>3.0</pdop><geoidheight>0.00</geoidheight><course>300.6</course><type>1</type></trkpt>
      <trkpt lat="40.18460214" lon="-5.07931827"><ele>1130</ele><speed>14.92</speed><time>2017-04-09T12:44:32Z</time><pdop>3.0</pdop><geoidheight>0.00</geoidheight><course>295.5</course><type>1</type></trkpt>
      <trkpt lat="40.18465658" lon="-5.07948076"><ele>1131</ele><speed>15.04</speed><time>2017-04-09T12:44:33Z</time><pdop>3.0</pdop><geoidheight>0.00</geoidheight><course>291.0</course><type>1</type></trkpt>
      <trkpt lat="40.18470086" lon="-5.07965087"><ele>1131</ele><speed>15.07</speed><time>2017-04-09T12:44:34Z</time><pdop>3.0</pdop><geoidheight>0.00</geoidheight><course>287.2</course><type>1</type></trkpt>
      <trkpt lat="40.18473508" lon="-5.07982337"><ele>1131</ele><speed>15.61</speed><time>2017-04-09T12:44:35Z</time><pdop>3.0</pdop><geoidheight>0.00</geoidheight><course>280.3</course><type>1</type></trkpt>
      <trkpt lat="40.18478837" lon="-5.08021038"><ele>1128</ele><speed>17.05</speed><time>2017-04-09T12:44:37Z</time><pdop>3.0</pdop><geoidheight>0.00</geoidheight><course>280.1</course><type>1</type></trkpt>
      <trkpt lat="40.18482238" lon="-5.08039622"><ele>1127</ele><speed>17.05</speed><time>2017-04-09T12:44:38Z</time><pdop>3.0</pdop><geoidheight>0.00</geoidheight><course>277.8</course><type>1</type></trkpt>
      <trkpt lat="40.18483676" lon="-5.08058851"><ele>1127</ele><speed>16.53</speed><time>2017-04-09T12:44:39Z</time><pdop>3.0</pdop><geoidheight>0.00</geoidheight><course>276.5</course><type>1</type></trkpt>
      <trkpt lat="40.18486024" lon="-5.08076816"><ele>1127</ele><speed>16.16</speed><time>2017-04-09T12:44:40Z</time><pdop>3.0</pdop><geoidheight>0.00</geoidheight><course>276.9</course><type>1</type></trkpt>
      <trkpt lat="40.18487988" lon="-5.08096272"><ele>1127</ele><speed>16.15</speed><time>2017-04-09T12:44:41Z</time><pdop>3.0</pdop><geoidheight>0.00</geoidheight><course>77.9</course><type>1</type></trkpt>
      <trkpt lat="40.18489227" lon="-5.08115932"><ele>1126</ele><speed>16.37</speed><time>2017-04-09T12:44:42Z</time><pdop>3.0</pdop><geoidheight>0.00</geoidheight><course>273.4</course><type>1</type></trkpt>
      <trkpt lat="40.18490432" lon="-5.08135053"><ele>1126</ele><speed>16.50</speed><time>2017-04-09T12:44:43Z</time><pdop>3.0</pdop><geoidheight>0.00</geoidheight><course>271.9</course><type>1</type></trkpt>
      <trkpt lat="40.18490617" lon="-5.08154247"><ele>1126</ele><speed>16.39</speed><time>2017-04-09T12:44:44Z</time><pdop>3.0</pdop><geoidheight>0.00</geoidheight><course>271.4</course><type>1</type></trkpt>
      <trkpt lat="40.18491615" lon="-5.08172557"><ele>1125</ele><speed>16.36</speed><time>2017-04-09T12:44:45Z</time><pdop>3.0</pdop><geoidheight>0.00</geoidheight><course>273.9</course><type>1</type></trkpt>
      <trkpt lat="40.18491615" lon="-5.08191454"><ele>1124</ele><speed>16.03</speed><time>2017-04-09T12:44:46Z</time><pdop>3.0</pdop><geoidheight>0.00</geoidheight><course>273.6</course><type>1</type></trkpt>
      <trkpt lat="40.18492055" lon="-5.08209667"><ele>1123</ele><speed>15.49</speed><time>2017-04-09T12:44:47Z</time><pdop>3.0</pdop><geoidheight>0.00</geoidheight><course>271.0</course><type>1</type></trkpt>
      <trkpt lat="40.18491406" lon="-5.08228547"><ele>1123</ele><speed>15.40</speed><time>2017-04-09T12:44:48Z</time><pdop>3.0</pdop><geoidheight>0.00</geoidheight><course>267.1</course><type>1</type></trkpt>
      <trkpt lat="40.18489916" lon="-5.08246552"><ele>1122</ele><speed>15.81</speed><time>2017-04-09T12:44:49Z</time><pdop>3.0</pdop><geoidheight>0.00</geoidheight><course>263.9</course><type>1</type></trkpt>
      <trkpt lat="40.18487758" lon="-5.08265178"><ele>1120</ele><speed>16.12</speed><time>2017-04-09T12:44:50Z</time><pdop>3.0</pdop><geoidheight>0.00</geoidheight><course>262.2</course><type>1</type></trkpt>
      <trkpt lat="40.18484204" lon="-5.08285338"><ele>1118</ele><speed>16.24</speed><time>2017-04-09T12:44:51Z</time><pdop>3.0</pdop><geoidheight>0.00</geoidheight><course>260.4</course><type>1</type></trkpt>
      <trkpt lat="40.18481455" lon="-5.08303254"><ele>1116</ele><speed>16.39</speed><time>2017-04-09T12:44:52Z</time><pdop>3.0</pdop><geoidheight>0.00</geoidheight><course>258.6</course><type>1</type></trkpt>
      <trkpt lat="40.18478773" lon="-5.08322804"><ele>1115</ele><speed>16.72</speed><time>2017-04-09T12:44:53Z</time><pdop>3.0</pdop><geoidheight>0.00</geoidheight><course>257.6</course><type>1</type></trkpt>
      <trkpt lat="40.18475379" lon="-5.08342125"><ele>1114</ele><speed>16.90</speed><time>2017-04-09T12:44:54Z</time><pdop>3.0</pdop><geoidheight>0.00</geoidheight><course>256.0</course><type>1</type></trkpt>
      <trkpt lat="40.18472698" lon="-5.08362049"><ele>1113</ele><speed>16.71</speed><time>2017-04-09T12:44:55Z</time><pdop>3.0</pdop><geoidheight>0.00</geoidheight><course>258.7</course><type>1</type></trkpt>
      <trkpt lat="40.18469916" lon="-5.08381257"><ele>1111</ele><speed>16.79</speed><time>2017-04-09T12:44:56Z</time><pdop>3.0</pdop><geoidheight>0.00</geoidheight><course>258.3</course><type>1</type></trkpt>
      <trkpt lat="40.18466697" lon="-5.08401751"><ele>1108</ele><speed>17.30</speed><time>2017-04-09T12:44:57Z</time><pdop>3.0</pdop><geoidheight>0.00</geoidheight><course>256.0</course><type>1</type></trkpt>
      <trkpt lat="40.18461927" lon="-5.08422358"><ele>1105</ele><speed>18.19</speed><time>2017-04-09T12:44:58Z</time><pdop>3.0</pdop><geoidheight>0.00</geoidheight><course>251.1</course><type>1</type></trkpt>
      <trkpt lat="40.18456161" lon="-5.08441955"><ele>1103</ele><speed>18.59</speed><time>2017-04-09T12:44:59Z</time><pdop>3.0</pdop><geoidheight>0.00</geoidheight><course>246.5</course><type>1</type></trkpt>
      <trkpt lat="40.18449025" lon="-5.08462185"><ele>1101</ele><speed>18.46</speed><time>2017-04-09T12:45:00Z</time><pdop>3.0</pdop><geoidheight>0.00</geoidheight><course>244.4</course><type>1</type></trkpt>
      <trkpt lat="40.18443086" lon="-5.08481043"><ele>1099</ele><speed>18.11</speed><time>2017-04-09T12:45:01Z</time><pdop>3.0</pdop><geoidheight>0.00</geoidheight><course>245.9</course><type>1</type></trkpt>
      <trkpt lat="40.18436525" lon="-5.08499812"><ele>1098</ele><speed>17.54</speed><time>2017-04-09T12:45:02Z</time><pdop>3.0</pdop><geoidheight>0.00</geoidheight><course>247.8</course><type>1</type></trkpt>
      <trkpt lat="40.18429931" lon="-5.0851825"><ele>1096</ele><speed>17.07</speed><time>2017-04-09T12:45:03Z</time><pdop>3.0</pdop><geoidheight>0.00</geoidheight><course>248.0</course><type>1</type></trkpt>
      <trkpt lat="40.18423387" lon="-5.08537329"><ele>1094</ele><speed>17.05</speed><time>2017-04-09T12:45:04Z</time><pdop>3.0</pdop><geoidheight>0.00</geoidheight><course>247.0</course><type>1</type></trkpt>
      <trkpt lat="40.18417826" lon="-5.08556165"><ele>1091</ele><speed>17.57</speed><time>2017-04-09T12:45:05Z</time><pdop>3.0</pdop><geoidheight>0.00</geoidheight><course>247.3</course><type>1</type></trkpt>
      <trkpt lat="40.18411987" lon="-5.08576077"><ele>1088</ele><speed>18.52</speed><time>2017-04-09T12:45:06Z</time><pdop>3.0</pdop><geoidheight>0.00</geoidheight><course>248.3</course><type>1</type></trkpt>
      <trkpt lat="40.18405805" lon="-5.08595912"><ele>1085</ele><speed>19.10</speed><time>2017-04-09T12:45:07Z</time><pdop>3.0</pdop><geoidheight>0.00</geoidheight><course>248.4</course><type>1</type></trkpt>
      <trkpt lat="40.18399799" lon="-5.08617382"><ele>1083</ele><speed>18.75</speed><time>2017-04-09T12:45:08Z</time><pdop>3.0</pdop><geoidheight>0.00</geoidheight><course>248.6</course><type>1</type></trkpt>
      <trkpt lat="40.18393233" lon="-5.08637729"><ele>1082</ele><speed>18.49</speed><time>2017-04-09T12:45:09Z</time><pdop>3.0</pdop><geoidheight>0.00</geoidheight><course>249.8</course><type>1</type></trkpt>
      <trkpt lat="40.18387309" lon="-5.08657546"><ele>1080</ele><speed>18.31</speed><time>2017-04-09T12:45:10Z</time><pdop>3.0</pdop><geoidheight>0.00</geoidheight><course>249.8</course><type>1</type></trkpt>
      <trkpt lat="40.18381822" lon="-5.08677697"><ele>1079</ele><speed>18.10</speed><time>2017-04-09T12:45:11Z</time><pdop>3.0</pdop><geoidheight>0.00</geoidheight><course>249.2</course><type>1</type></trkpt>
      <trkpt lat="40.18375587" lon="-5.08697276"><ele>1076</ele><speed>17.73</speed><time>2017-04-09T12:45:12Z</time><pdop>3.0</pdop><geoidheight>0.00</geoidheight><course>248.8</course><type>1</type></trkpt>
      <trkpt lat="40.18369438" lon="-5.08716792"><ele>1074</ele><speed>17.74</speed><time>2017-04-09T12:45:13Z</time><pdop>3.0</pdop><geoidheight>0.00</geoidheight><course>249.7</course><type>1</type></trkpt>
      <trkpt lat="40.18364167" lon="-5.08736698"><ele>1071</ele><speed>18.28</speed><time>2017-04-09T12:45:14Z</time><pdop>3.0</pdop><geoidheight>0.00</geoidheight><course>251.5</course><type>1</type></trkpt>
      <trkpt lat="40.18359273" lon="-5.08757768"><ele>1069</ele><speed>18.84</speed><time>2017-04-09T12:45:15Z</time><pdop>3.0</pdop><geoidheight>0.00</geoidheight><course>251.2</course><type>1</type></trkpt>
      <trkpt lat="40.1835392" lon="-5.08778618"><ele>1068</ele><speed>18.49</speed><time>2017-04-09T12:45:16Z</time><pdop>3.0</pdop><geoidheight>0.00</geoidheight><course>249.9</course><type>1</type></trkpt>
      <trkpt lat="40.18347886" lon="-5.08798085"><ele>1066</ele><speed>17.62</speed><time>2017-04-09T12:45:17Z</time><pdop>3.0</pdop><geoidheight>0.00</geoidheight><course>249.1</course><type>1</type></trkpt>
      <trkpt lat="40.1834258" lon="-5.08817273"><ele>1065</ele><speed>17.24</speed><time>2017-04-09T12:45:18Z</time><pdop>3.0</pdop><geoidheight>0.00</geoidheight><course>250.5</course><type>1</type></trkpt>
      <trkpt lat="40.18337709" lon="-5.08836684"><ele>1063</ele><speed>17.55</speed><time>2017-04-09T12:45:19Z</time><pdop>3.0</pdop><geoidheight>0.00</geoidheight><course>252.6</course><type>1</type></trkpt>
      <trkpt lat="40.18331565" lon="-5.08856813"><ele>1059</ele><speed>18.23</speed><time>2017-04-09T12:45:20Z</time><pdop>3.0</pdop><geoidheight>0.00</geoidheight><course>252.4</course><type>1</type></trkpt>
      <trkpt lat="40.18326704" lon="-5.08876985"><ele>1057</ele><speed>17.99</speed><time>2017-04-09T12:45:21Z</time><pdop>3.0</pdop><geoidheight>0.00</geoidheight><course>250.1</course><type>1</type></trkpt>
      <trkpt lat="40.18320243" lon="-5.08895312"><ele>1054</ele><speed>16.92</speed><time>2017-04-09T12:45:22Z</time><pdop>3.0</pdop><geoidheight>0.00</geoidheight><course>248.3</course><type>1</type></trkpt>
      <trkpt lat="40.1831532" lon="-5.08913056"><ele>1053</ele><speed>15.71</speed><time>2017-04-09T12:45:23Z</time><pdop>3.0</pdop><geoidheight>0.00</geoidheight><course>249.3</course><type>1</type></trkpt>
      <trkpt lat="40.18310087" lon="-5.08930289"><ele>1052</ele><speed>15.51</speed><time>2017-04-09T12:45:24Z</time><pdop>3.0</pdop><geoidheight>0.00</geoidheight><course>250.1</course><type>1</type></trkpt>
      <trkpt lat="40.18304828" lon="-5.08948277"><ele>1049</ele><speed>16.36</speed><time>2017-04-09T12:45:25Z</time><pdop>3.0</pdop><geoidheight>0.00</geoidheight><course>250.4</course><type>1</type></trkpt>
      <trkpt lat="40.18300131" lon="-5.08966955"><ele>1047</ele><speed>17.27</speed><time>2017-04-09T12:45:26Z</time><pdop>3.0</pdop><geoidheight>0.00</geoidheight><course>249.3</course><type>1</type></trkpt>
      <trkpt lat="40.18295482" lon="-5.0898648"><ele>1046</ele><speed>17.38</speed><time>2017-04-09T12:45:27Z</time><pdop>3.0</pdop><geoidheight>0.00</geoidheight><course>249.8</course><type>1</type></trkpt>
      <trkpt lat="40.18290395" lon="-5.09005361"><ele>1046</ele><speed>16.95</speed><time>2017-04-09T12:45:28Z</time><pdop>3.0</pdop><geoidheight>0.00</geoidheight><course>251.4</course><type>1</type></trkpt>
      <trkpt lat="40.18285417" lon="-5.09024826"><ele>1044</ele><speed>16.61</speed><time>2017-04-09T12:45:29Z</time><pdop>3.0</pdop><geoidheight>0.00</geoidheight><course>252.2</course><type>1</type></trkpt>
      <trkpt lat="40.18281194" lon="-5.09043547"><ele>1043</ele><speed>16.60</speed><time>2017-04-09T12:45:30Z</time><pdop>3.0</pdop><geoidheight>0.00</geoidheight><course>252.6</course><type>1</type></trkpt>
      <trkpt lat="40.18276517" lon="-5.09062345"><ele>1041</ele><speed>16.90</speed><time>2017-04-09T12:45:31Z</time><pdop>3.0</pdop><geoidheight>0.00</geoidheight><course>251.6</course><type>1</type></trkpt>
      <trkpt lat="40.18271806" lon="-5.09081526"><ele>1039</ele><speed>17.41</speed><time>2017-04-09T12:45:32Z</time><pdop>3.0</pdop><geoidheight>0.00</geoidheight><course>250.9</course><type>1</type></trkpt>
      <trkpt lat="40.18266775" lon="-5.09100948"><ele>1038</ele><speed>17.93</speed><time>2017-04-09T12:45:33Z</time><pdop>3.0</pdop><geoidheight>0.00</geoidheight><course>251.5</course><type>1</type></trkpt>
      <trkpt lat="40.1826142" lon="-5.09120741"><ele>1036</ele><speed>17.97</speed><time>2017-04-09T12:45:34Z</time><pdop>3.0</pdop><geoidheight>0.00</geoidheight><course>251.4</course><type>1</type></trkpt>
      <trkpt lat="40.18255732" lon="-5.09139425"><ele>1036</ele><speed>17.18</speed><time>2017-04-09T12:45:35Z</time><pdop>3.0</pdop><geoidheight>0.00</geoidheight><course>247.6</course><type>1</type></trkpt>
      <trkpt lat="40.18250073" lon="-5.09158828"><ele>1036</ele><speed>16.59</speed><time>2017-04-09T12:45:36Z</time><pdop>3.0</pdop><geoidheight>0.00</geoidheight><course>246.0</course><type>1</type></trkpt>
      <trkpt lat="40.1824245" lon="-5.09176152"><ele>1033</ele><speed>16.41</speed><time>2017-04-09T12:45:37Z</time><pdop>3.0</pdop><geoidheight>0.00</geoidheight><course>246.9</course><type>1</type></trkpt>
      <trkpt lat="40.18237416" lon="-5.09194276"><ele>1031</ele><speed>16.62</speed><time>2017-04-09T12:45:38Z</time><pdop>3.0</pdop><geoidheight>0.00</geoidheight><course>248.1</course><type>1</type></trkpt>
      <trkpt lat="40.18230123" lon="-5.09212313"><ele>1027</ele><speed>17.18</speed><time>2017-04-09T12:45:39Z</time><pdop>3.0</pdop><geoidheight>0.00</geoidheight><course>247.8</course><type>1</type></trkpt>
      <trkpt lat="40.18223796" lon="-5.09231195"><ele>1024</ele><speed>17.64</speed><time>2017-04-09T12:45:40Z</time><pdop>3.0</pdop><geoidheight>0.00</geoidheight><course>247.2</course><type>1</type></trkpt>
      <trkpt lat="40.18217952" lon="-5.09251044"><ele>1022</ele><speed>18.14</speed><time>2017-04-09T12:45:41Z</time><pdop>3.0</pdop><geoidheight>0.00</geoidheight><course>249.2</course><type>1</type></trkpt>
      <trkpt lat="40.18212414" lon="-5.0927116"><ele>1020</ele><speed>18.05</speed><time>2017-04-09T12:45:42Z</time><pdop>3.0</pdop><geoidheight>0.00</geoidheight><course>249.2</course><type>1</type></trkpt>
      <trkpt lat="40.18206639" lon="-5.09291253"><ele>1019</ele><speed>17.35</speed><time>2017-04-09T12:45:43Z</time><pdop>3.0</pdop><geoidheight>0.00</geoidheight><course>247.9</course><type>1</type></trkpt>
      <trkpt lat="40.18201313" lon="-5.09309722"><ele>1018</ele><speed>16.68</speed><time>2017-04-09T12:45:44Z</time><pdop>3.0</pdop><geoidheight>0.00</geoidheight><course>246.6</course><type>1</type></trkpt>
      <trkpt lat="40.18195682" lon="-5.09328061"><ele>1015</ele><speed>16.88</speed><time>2017-04-09T12:45:45Z</time><pdop>3.0</pdop><geoidheight>0.00</geoidheight><course>246.4</course><type>1</type></trkpt>
      <trkpt lat="40.18188977" lon="-5.09346271"><ele>1012</ele><speed>17.46</speed><time>2017-04-09T12:45:46Z</time><pdop>3.0</pdop><geoidheight>0.00</geoidheight><course>247.3</course><type>1</type></trkpt>
      <trkpt lat="40.18183143" lon="-5.09365541"><ele>1010</ele><speed>18.01</speed><time>2017-04-09T12:45:47Z</time><pdop>3.0</pdop><geoidheight>0.00</geoidheight><course>247.6</course><type>1</type></trkpt>
      <trkpt lat="40.18176909" lon="-5.09385"><ele>1008</ele><speed>18.02</speed><time>2017-04-09T12:45:48Z</time><pdop>3.0</pdop><geoidheight>0.00</geoidheight><course>246.4</course><type>1</type></trkpt>
      <trkpt lat="40.1817027" lon="-5.0940362"><ele>1006</ele><speed>17.48</speed><time>2017-04-09T12:45:49Z</time><pdop>3.0</pdop><geoidheight>0.00</geoidheight><course>244.8</course><type>1</type></trkpt>
      <trkpt lat="40.18164373" lon="-5.09421957"><ele>1004</ele><speed>17.02</speed><time>2017-04-09T12:45:50Z</time><pdop>3.0</pdop><geoidheight>0.00</geoidheight><course>246.1</course><type>1</type></trkpt>
      <trkpt lat="40.18158639" lon="-5.09440974"><ele>1002</ele><speed>17.18</speed><time>2017-04-09T12:45:51Z</time><pdop>3.0</pdop><geoidheight>0.00</geoidheight><course>250.6</course><type>1</type></trkpt>
      <trkpt lat="40.18153592" lon="-5.09459586"><ele>1000</ele><speed>17.23</speed><time>2017-04-09T12:45:52Z</time><pdop>3.0</pdop><geoidheight>0.00</geoidheight><course>250.6</course><type>1</type></trkpt>
      <trkpt lat="40.18148068" lon="-5.09478808"><ele>997</ele><speed>17.79</speed><time>2017-04-09T12:45:53Z</time><pdop>3.0</pdop><geoidheight>0.00</geoidheight><course>248.6</course><type>1</type></trkpt>
      <trkpt lat="40.18141737" lon="-5.09498539"><ele>994</ele><speed>17.91</speed><time>2017-04-09T12:45:54Z</time><pdop>3.0</pdop><geoidheight>0.00</geoidheight><course>244.9</course><type>1</type></trkpt>
      <trkpt lat="40.18134916" lon="-5.09517324"><ele>992</ele><speed>17.56</speed><time>2017-04-09T12:45:55Z</time><pdop>3.0</pdop><geoidheight>0.00</geoidheight><course>243.1</course><type>1</type></trkpt>
      <trkpt lat="40.18127987" lon="-5.09536049"><ele>990</ele><speed>16.86</speed><time>2017-04-09T12:45:56Z</time><pdop>3.0</pdop><geoidheight>0.00</geoidheight><course>246.7</course><type>1</type></trkpt>
      <trkpt lat="40.18122795" lon="-5.09553484"><ele>988</ele><speed>16.32</speed><time>2017-04-09T12:45:57Z</time><pdop>3.0</pdop><geoidheight>0.00</geoidheight><course>248.0</course><type>1</type></trkpt>
      <trkpt lat="40.18116573" lon="-5.0957125"><ele>986</ele><speed>16.29</speed><time>2017-04-09T12:45:58Z</time><pdop>3.0</pdop><geoidheight>0.00</geoidheight><course>246.0</course><type>1</type></trkpt>
      <trkpt lat="40.18109934" lon="-5.09588897"><ele>984</ele><speed>16.63</speed><time>2017-04-09T12:45:59Z</time><pdop>3.0</pdop><geoidheight>0.00</geoidheight><course>243.1</course><type>1</type></trkpt>
      <trkpt lat="40.18102489" lon="-5.09606127"><ele>981</ele><speed>16.83</speed><time>2017-04-09T12:46:00Z</time><pdop>3.0</pdop><geoidheight>0.00</geoidheight><course>241.3</course><type>1</type></trkpt>
      <trkpt lat="40.18095678" lon="-5.09623575"><ele>979</ele><speed>16.98</speed><time>2017-04-09T12:46:01Z</time><pdop>3.0</pdop><geoidheight>0.00</geoidheight><course>242.2</course><type>1</type></trkpt>
      <trkpt lat="40.18088795" lon="-5.09641292"><ele>977</ele><speed>17.20</speed><time>2017-04-09T12:46:02Z</time><pdop>3.0</pdop><geoidheight>0.00</geoidheight><course>244.2</course><type>1</type></trkpt>
      <trkpt lat="40.18082394" lon="-5.09658443"><ele>975</ele><speed>16.86</speed><time>2017-04-09T12:46:03Z</time><pdop>3.0</pdop><geoidheight>0.00</geoidheight><course>245.8</course><type>1</type></trkpt>
      <trkpt lat="40.18076165" lon="-5.0967624"><ele>973</ele><speed>16.17</speed><time>2017-04-09T12:46:04Z</time><pdop>3.0</pdop><geoidheight>0.00</geoidheight><course>245.8</course><type>1</type></trkpt>
      <trkpt lat="40.180703" lon="-5.09693379"><ele>972</ele><speed>15.69</speed><time>2017-04-09T12:46:05Z</time><pdop>3.0</pdop><geoidheight>0.00</geoidheight><course>245.3</course><type>1</type></trkpt>
      <trkpt lat="40.18064013" lon="-5.09709894"><ele>969</ele><speed>15.73</speed><time>2017-04-09T12:46:06Z</time><pdop>3.0</pdop><geoidheight>0.00</geoidheight><course>245.4</course><type>1</type></trkpt>
      <trkpt lat="40.18057296" lon="-5.09726681"><ele>967</ele><speed>16.55</speed><time>2017-04-09T12:46:07Z</time><pdop>3.0</pdop><geoidheight>0.00</geoidheight><course>244.7</course><type>1</type></trkpt>
      <trkpt lat="40.18050645" lon="-5.09744396"><ele>964</ele><speed>17.34</speed><time>2017-04-09T12:46:08Z</time><pdop>3.0</pdop><geoidheight>0.00</geoidheight><course>243.1</course><type>1</type></trkpt>
      <trkpt lat="40.18043249" lon="-5.09762559"><ele>962</ele><speed>17.53</speed><time>2017-04-09T12:46:09Z</time><pdop>3.0</pdop><geoidheight>0.00</geoidheight><course>241.0</course><type>1</type></trkpt>
      <trkpt lat="40.18035557" lon="-5.09780039"><ele>962</ele><speed>16.43</speed><time>2017-04-09T12:46:10Z</time><pdop>3.0</pdop><geoidheight>0.00</geoidheight><course>240.1</course><type>1</type></trkpt>
      <trkpt lat="40.18029045" lon="-5.09796193"><ele>962</ele><speed>14.48</speed><time>2017-04-09T12:46:11Z</time><pdop>3.0</pdop><geoidheight>0.00</geoidheight><course>241.8</course><type>1</type></trkpt>
      <trkpt lat="40.18022829" lon="-5.09810328"><ele>960</ele><speed>13.02</speed><time>2017-04-09T12:46:12Z</time><pdop>3.0</pdop><geoidheight>0.00</geoidheight><course>244.0</course><type>1</type></trkpt>
      <trkpt lat="40.18018328" lon="-5.09824057"><ele>957</ele><speed>12.72</speed><time>2017-04-09T12:46:13Z</time><pdop>3.0</pdop><geoidheight>0.00</geoidheight><course>245.1</course><type>1</type></trkpt>
      <trkpt lat="40.18013303" lon="-5.09838501"><ele>954</ele><speed>13.72</speed><time>2017-04-09T12:46:14Z</time><pdop>3.0</pdop><geoidheight>0.00</geoidheight><course>244.6</course><type>1</type></trkpt>
      <trkpt lat="40.18007433" lon="-5.0985371"><ele>950</ele><speed>14.82</speed><time>2017-04-09T12:46:15Z</time><pdop>3.0</pdop><geoidheight>0.00</geoidheight><course>243.0</course><type>1</type></trkpt>
      <trkpt lat="40.18000325" lon="-5.09869952"><ele>946</ele><speed>16.60</speed><time>2017-04-09T12:46:16Z</time><pdop>3.0</pdop><geoidheight>0.00</geoidheight><course>241.4</course><type>1</type></trkpt>
      <trkpt lat="40.17992539" lon="-5.09888307"><ele>942</ele><speed>18.04</speed><time>2017-04-09T12:46:17Z</time><pdop>3.0</pdop><geoidheight>0.00</geoidheight><course>239.4</course><type>1</type></trkpt>
      <trkpt lat="40.17983876" lon="-5.09905753"><ele>941</ele><speed>17.86</speed><time>2017-04-09T12:46:18Z</time><pdop>3.0</pdop><geoidheight>0.00</geoidheight><course>236.6</course><type>1</type></trkpt>
      <trkpt lat="40.17976506" lon="-5.0992161"><ele>940</ele><speed>16.58</speed><time>2017-04-09T12:46:19Z</time><pdop>3.0</pdop><geoidheight>0.00</geoidheight><course>236.9</course><type>1</type></trkpt>
      <trkpt lat="40.17969679" lon="-5.09937068"><ele>940</ele><speed>15.26</speed><time>2017-04-09T12:46:20Z</time><pdop>3.0</pdop><geoidheight>0.00</geoidheight><course>239.7</course><type>1</type></trkpt>
      <trkpt lat="40.17964109" lon="-5.099533"><ele>939</ele><speed>14.55</speed><time>2017-04-09T12:46:21Z</time><pdop>3.0</pdop><geoidheight>0.00</geoidheight><course>242.9</course><type>1</type></trkpt>
      <trkpt lat="40.1795871" lon="-5.0996945"><ele>938</ele><speed>14.72</speed><time>2017-04-09T12:46:22Z</time><pdop>3.0</pdop><geoidheight>0.00</geoidheight><course>245.5</course><type>1</type></trkpt>
      <trkpt lat="40.17953816" lon="-5.09985183"><ele>936</ele><speed>15.40</speed><time>2017-04-09T12:46:23Z</time><pdop>3.0</pdop><geoidheight>0.00</geoidheight><course>245.6</course><type>1</type></trkpt>
      <trkpt lat="40.17947847" lon="-5.10002201"><ele>934</ele><speed>16.62</speed><time>2017-04-09T12:46:24Z</time><pdop>3.0</pdop><geoidheight>0.00</geoidheight><course>245.9</course><type>1</type></trkpt>
      <trkpt lat="40.17941292" lon="-5.1002013"><ele>931</ele><speed>17.59</speed><time>2017-04-09T12:46:25Z</time><pdop>3.0</pdop><geoidheight>0.00</geoidheight><course>244.7</course><type>1</type></trkpt>
      <trkpt lat="40.17933546" lon="-5.10038158"><ele>930</ele><speed>17.54</speed><time>2017-04-09T12:46:26Z</time><pdop>3.0</pdop><geoidheight>0.00</geoidheight><course>242.5</course><type>1</type></trkpt>
      <trkpt lat="40.17926108" lon="-5.10056082"><ele>929</ele><speed>17.31</speed><time>2017-04-09T12:46:27Z</time><pdop>3.0</pdop><geoidheight>0.00</geoidheight><course>242.9</course><type>1</type></trkpt>
      <trkpt lat="40.17919541" lon="-5.10074558"><ele>929</ele><speed>16.89</speed><time>2017-04-09T12:46:28Z</time><pdop>3.0</pdop><geoidheight>0.00</geoidheight><course>244.5</course><type>1</type></trkpt>
      <trkpt lat="40.17912649" lon="-5.10092106"><ele>927</ele><speed>16.57</speed><time>2017-04-09T12:46:29Z</time><pdop>3.0</pdop><geoidheight>0.00</geoidheight><course>245.0</course><type>1</type></trkpt>
      <trkpt lat="40.1790643" lon="-5.10109709"><ele>926</ele><speed>16.78</speed><time>2017-04-09T12:46:30Z</time><pdop>3.0</pdop><geoidheight>0.00</geoidheight><course>243.0</course><type>1</type></trkpt>
      <trkpt lat="40.17898857" lon="-5.10126811"><ele>924</ele><speed>17.46</speed><time>2017-04-09T12:46:31Z</time><pdop>3.0</pdop><geoidheight>0.00</geoidheight><course>241.1</course><type>1</type></trkpt>
      <trkpt lat="40.17890887" lon="-5.10145294"><ele>923</ele><speed>18.25</speed><time>2017-04-09T12:46:32Z</time><pdop>3.0</pdop><geoidheight>0.00</geoidheight><course>240.5</course><type>1</type></trkpt>
      <trkpt lat="40.17882414" lon="-5.10164102"><ele>923</ele><speed>18.43</speed><time>2017-04-09T12:46:33Z</time><pdop>3.0</pdop><geoidheight>0.00</geoidheight><course>241.0</course><type>1</type></trkpt>
      <trkpt lat="40.17875048" lon="-5.10182565"><ele>925</ele><speed>18.04</speed><time>2017-04-09T12:46:34Z</time><pdop>3.0</pdop><geoidheight>0.00</geoidheight><course>242.9</course><type>1</type></trkpt>
      <trkpt lat="40.17868411" lon="-5.10201043"><ele>926</ele><speed>17.18</speed><time>2017-04-09T12:46:35Z</time><pdop>3.0</pdop><geoidheight>0.00</geoidheight><course>245.6</course><type>1</type></trkpt>
      <trkpt lat="40.17861989" lon="-5.10219122"><ele>927</ele><speed>16.62</speed><time>2017-04-09T12:46:36Z</time><pdop>3.0</pdop><geoidheight>0.00</geoidheight><course>246.1</course><type>1</type></trkpt>
      <trkpt lat="40.17856378" lon="-5.1023753"><ele>928</ele><speed>16.09</speed><time>2017-04-09T12:46:37Z</time><pdop>3.0</pdop><geoidheight>0.00</geoidheight><course>247.3</course><type>1</type></trkpt>
      <trkpt lat="40.1785168" lon="-5.10254961"><ele>929</ele><speed>15.65</speed><time>2017-04-09T12:46:38Z</time><pdop>3.0</pdop><geoidheight>0.00</geoidheight><course>252.6</course><type>1</type></trkpt>
      <trkpt lat="40.1784695" lon="-5.1027219"><ele>929</ele><speed>15.47</speed><time>2017-04-09T12:46:39Z</time><pdop>3.0</pdop><geoidheight>0.00</geoidheight><course>255.0</course><type>1</type></trkpt>
      <trkpt lat="40.17842392" lon="-5.10290019"><ele>930</ele><speed>15.76</speed><time>2017-04-09T12:46:40Z</time><pdop>3.0</pdop><geoidheight>0.00</geoidheight><course>253.7</course><type>1</type></trkpt>
      <trkpt lat="40.17838117" lon="-5.10307991"><ele>930</ele><speed>16.31</speed><time>2017-04-09T12:46:41Z</time><pdop>3.0</pdop><geoidheight>0.00</geoidheight><course>253.0</course><type>1</type></trkpt>
      <trkpt lat="40.17833555" lon="-5.10325591"><ele>929</ele><speed>16.62</speed><time>2017-04-09T12:46:42Z</time><pdop>3.0</pdop><geoidheight>0.00</geoidheight><course>252.1</course><type>1</type></trkpt>
      <trkpt lat="40.17829253" lon="-5.10343694"><ele>930</ele><speed>16.35</speed><time>2017-04-09T12:46:43Z</time><pdop>3.0</pdop><geoidheight>0.00</geoidheight><course>252.8</course><type>1</type></trkpt>
      <trkpt lat="40.17823952" lon="-5.10361827"><ele>931</ele><speed>15.84</speed><time>2017-04-09T12:46:44Z</time><pdop>3.0</pdop><geoidheight>0.00</geoidheight><course>254.4</course><type>1</type></trkpt>
      <trkpt lat="40.17820274" lon="-5.10379799"><ele>932</ele><speed>15.15</speed><time>2017-04-09T12:46:45Z</time><pdop>3.0</pdop><geoidheight>0.00</geoidheight><course>255.5</course><type>1</type></trkpt>
      <trkpt lat="40.17817252" lon="-5.10396069"><ele>934</ele><speed>14.33</speed><time>2017-04-09T12:46:46Z</time><pdop>3.0</pdop><geoidheight>0.00</geoidheight><course>256.2</course><type>1</type></trkpt>
      <trkpt lat="40.17813959" lon="-5.10413871"><ele>934</ele><speed>14.09</speed><time>2017-04-09T12:46:47Z</time><pdop>3.0</pdop><geoidheight>0.00</geoidheight><course>258.1</course><type>1</type></trkpt>
      <trkpt lat="40.17812111" lon="-5.10429655"><ele>935</ele><speed>14.28</speed><time>2017-04-09T12:46:48Z</time><pdop>3.0</pdop><geoidheight>0.00</geoidheight><course>261.2</course><type>1</type></trkpt>
      <trkpt lat="40.17809288" lon="-5.10464386"><ele>935</ele><speed>14.67</speed><time>2017-04-09T12:46:50Z</time><pdop>4.0</pdop><geoidheight>0.00</geoidheight><course>264.6</course><type>1</type></trkpt>
      <trkpt lat="40.17810441" lon="-5.10478971"><ele>936</ele><speed>13.17</speed><time>2017-04-09T12:46:51Z</time><pdop>4.0</pdop><geoidheight>0.00</geoidheight><course>263.9</course><type>1</type></trkpt>
      <trkpt lat="40.17809903" lon="-5.10493831"><ele>937</ele><speed>12.23</speed><time>2017-04-09T12:46:52Z</time><pdop>4.0</pdop><geoidheight>0.00</geoidheight><course>264.7</course><type>1</type></trkpt>
      <trkpt lat="40.17808213" lon="-5.10509505"><ele>937</ele><speed>13.05</speed><time>2017-04-09T12:46:53Z</time><pdop>4.0</pdop><geoidheight>0.00</geoidheight><course>263.0</course><type>1</type></trkpt>
      <trkpt lat="40.17805936" lon="-5.10524491"><ele>937</ele><speed>13.18</speed><time>2017-04-09T12:46:54Z</time><pdop>4.0</pdop><geoidheight>0.00</geoidheight><course>257.7</course><type>1</type></trkpt>
      <trkpt lat="40.17801784" lon="-5.10539786"><ele>937</ele><speed>14.24</speed><time>2017-04-09T12:46:55Z</time><pdop>4.0</pdop><geoidheight>0.00</geoidheight><course>254.7</course><type>1</type></trkpt>
      <trkpt lat="40.17797755" lon="-5.10556296"><ele>938</ele><speed>14.37</speed><time>2017-04-09T12:46:56Z</time><pdop>4.0</pdop><geoidheight>0.00</geoidheight><course>252.8</course><type>1</type></trkpt>
      <trkpt lat="40.17794154" lon="-5.10572817"><ele>938</ele><speed>13.96</speed><time>2017-04-09T12:46:57Z</time><pdop>3.0</pdop><geoidheight>0.00</geoidheight><course>251.0</course><type>1</type></trkpt>
      <trkpt lat="40.17789924" lon="-5.10586918"><ele>938</ele><speed>13.07</speed><time>2017-04-09T12:46:58Z</time><pdop>3.0</pdop><geoidheight>0.00</geoidheight><course>249.6</course><type>1</type></trkpt>
      <trkpt lat="40.17785219" lon="-5.10601011"><ele>939</ele><speed>12.46</speed><time>2017-04-09T12:46:59Z</time><pdop>3.0</pdop><geoidheight>0.00</geoidheight><course>248.4</course><type>1</type></trkpt>
      <trkpt lat="40.17780877" lon="-5.10614015"><ele>939</ele><speed>12.55</speed><time>2017-04-09T12:47:00Z</time><pdop>3.0</pdop><geoidheight>0.00</geoidheight><course>248.6</course><type>1</type></trkpt>
      <trkpt lat="40.17777138" lon="-5.10628589"><ele>939</ele><speed>13.08</speed><time>2017-04-09T12:47:01Z</time><pdop>3.0</pdop><geoidheight>0.00</geoidheight><course>248.4</course><type>1</type></trkpt>
      <trkpt lat="40.1777277" lon="-5.10644463"><ele>938</ele><speed>13.75</speed><time>2017-04-09T12:47:02Z</time><pdop>3.0</pdop><geoidheight>0.00</geoidheight><course>251.7</course><type>1</type></trkpt>
      <trkpt lat="40.17769651" lon="-5.10660687"><ele>939</ele><speed>13.91</speed><time>2017-04-09T12:47:03Z</time><pdop>3.0</pdop><geoidheight>0.00</geoidheight><course>254.2</course><type>1</type></trkpt>
      <trkpt lat="40.17765555" lon="-5.10676289"><ele>940</ele><speed>13.56</speed><time>2017-04-09T12:47:04Z</time><pdop>3.0</pdop><geoidheight>0.00</geoidheight><course>258.7</course><type>1</type></trkpt>
      <trkpt lat="40.17764146" lon="-5.10691955"><ele>940</ele><speed>14.02</speed><time>2017-04-09T12:47:05Z</time><pdop>3.0</pdop><geoidheight>0.00</geoidheight><course>261.4</course><type>1</type></trkpt>
      <trkpt lat="40.17761826" lon="-5.1070776"><ele>938</ele><speed>15.06</speed><time>2017-04-09T12:47:06Z</time><pdop>3.0</pdop><geoidheight>0.00</geoidheight><course>260.8</course><type>1</type></trkpt>
      <trkpt lat="40.17759239" lon="-5.10726048"><ele>937</ele><speed>15.91</speed><time>2017-04-09T12:47:07Z</time><pdop>3.0</pdop><geoidheight>0.00</geoidheight><course>258.5</course><type>1</type></trkpt>
      <trkpt lat="40.17756339" lon="-5.10744032"><ele>937</ele><speed>15.87</speed><time>2017-04-09T12:47:08Z</time><pdop>3.0</pdop><geoidheight>0.00</geoidheight><course>257.9</course><type>1</type></trkpt>
      <trkpt lat="40.1775272" lon="-5.10762098"><ele>937</ele><speed>15.58</speed><time>2017-04-09T12:47:09Z</time><pdop>3.0</pdop><geoidheight>0.00</geoidheight><course>258.4</course><type>1</type></trkpt>
      <trkpt lat="40.17750271" lon="-5.10778122"><ele>936</ele><speed>14.63</speed><time>2017-04-09T12:47:10Z</time><pdop>3.0</pdop><geoidheight>0.00</geoidheight><course>261.2</course><type>1</type></trkpt>
      <trkpt lat="40.17748368" lon="-5.10794909"><ele>936</ele><speed>14.20</speed><time>2017-04-09T12:47:11Z</time><pdop>3.0</pdop><geoidheight>0.00</geoidheight><course>263.1</course><type>1</type></trkpt>
      <trkpt lat="40.17746888" lon="-5.10812301"><ele>936</ele><speed>14.40</speed><time>2017-04-09T12:47:12Z</time><pdop>3.0</pdop><geoidheight>0.00</geoidheight><course>261.5</course><type>1</type></trkpt>
      <trkpt lat="40.17743698" lon="-5.10828658"><ele>933</ele><speed>15.15</speed><time>2017-04-09T12:47:13Z</time><pdop>3.0</pdop><geoidheight>0.00</geoidheight><course>254.5</course><type>1</type></trkpt>
      <trkpt lat="40.17738516" lon="-5.10844454"><ele>932</ele><speed>14.32</speed><time>2017-04-09T12:47:14Z</time><pdop>3.0</pdop><geoidheight>0.00</geoidheight><course>244.9</course><type>1</type></trkpt>
      <trkpt lat="40.17731696" lon="-5.10858938"><ele>931</ele><speed>13.77</speed><time>2017-04-09T12:47:15Z</time><pdop>3.0</pdop><geoidheight>0.00</geoidheight><course>239.0</course><type>1</type></trkpt>
      <trkpt lat="40.17725655" lon="-5.10872445"><ele>932</ele><speed>13.49</speed><time>2017-04-09T12:47:16Z</time><pdop>3.0</pdop><geoidheight>0.00</geoidheight><course>239.9</course><type>1</type></trkpt>
      <trkpt lat="40.17720254" lon="-5.10886807"><ele>932</ele><speed>13.36</speed><time>2017-04-09T12:47:17Z</time><pdop>3.0</pdop><geoidheight>0.00</geoidheight><course>242.8</course><type>1</type></trkpt>
      <trkpt lat="40.17714873" lon="-5.1090044"><ele>932</ele><speed>13.24</speed><time>2017-04-09T12:47:18Z</time><pdop>3.0</pdop><geoidheight>0.00</geoidheight><course>242.2</course><type>1</type></trkpt>
      <trkpt lat="40.1770889" lon="-5.10914218"><ele>931</ele><speed>13.20</speed><time>2017-04-09T12:47:19Z</time><pdop>3.0</pdop><geoidheight>0.00</geoidheight><course>237.4</course><type>1</type></trkpt>
      <trkpt lat="40.17701835" lon="-5.10926931"><ele>931</ele><speed>13.82</speed><time>2017-04-09T12:47:20Z</time><pdop>3.0</pdop><geoidheight>0.00</geoidheight><course>231.6</course><type>1</type></trkpt>
      <trkpt lat="40.1769342" lon="-5.10940129"><ele>930</ele><speed>14.49</speed><time>2017-04-09T12:47:21Z</time><pdop>3.0</pdop><geoidheight>0.00</geoidheight><course>229.0</course><type>1</type></trkpt>
      <trkpt lat="40.17683848" lon="-5.1095342"><ele>931</ele><speed>14.46</speed><time>2017-04-09T12:47:22Z</time><pdop>3.0</pdop><geoidheight>0.00</geoidheight><course>228.4</course><type>1</type></trkpt>
      <trkpt lat="40.17675297" lon="-5.10964461"><ele>931</ele><speed>13.79</speed><time>2017-04-09T12:47:23Z</time><pdop>3.0</pdop><geoidheight>0.00</geoidheight><course>221.8</course><type>1</type></trkpt>
      <trkpt lat="40.17666078" lon="-5.10974228"><ele>931</ele><speed>12.73</speed><time>2017-04-09T12:47:24Z</time><pdop>3.0</pdop><geoidheight>0.00</geoidheight><course>220.6</course><type>1</type></trkpt>
      <trkpt lat="40.17657382" lon="-5.10983252"><ele>932</ele><speed>11.83</speed><time>2017-04-09T12:47:25Z</time><pdop>3.0</pdop><geoidheight>0.00</geoidheight><course>218.9</course><type>1</type></trkpt>
      <trkpt lat="40.17649262" lon="-5.10991866"><ele>931</ele><speed>11.10</speed><time>2017-04-09T12:47:26Z</time><pdop>3.0</pdop><geoidheight>0.00</geoidheight><course>217.4</course><type>1</type></trkpt>
      <trkpt lat="40.1764123" lon="-5.10999861"><ele>931</ele><speed>11.12</speed><time>2017-04-09T12:47:27Z</time><pdop>3.0</pdop><geoidheight>0.00</geoidheight><course>217.6</course><type>1</type></trkpt>
      <trkpt lat="40.17632274" lon="-5.1100822"><ele>929</ele><speed>12.14</speed><time>2017-04-09T12:47:28Z</time><pdop>3.0</pdop><geoidheight>0.00</geoidheight><course>221.3</course><type>1</type></trkpt>
      <trkpt lat="40.1762345" lon="-5.11018042"><ele>929</ele><speed>13.26</speed><time>2017-04-09T12:47:29Z</time><pdop>3.0</pdop><geoidheight>0.00</geoidheight><course>220.1</course><type>1</type></trkpt>
      <trkpt lat="40.17613352" lon="-5.11027961"><ele>928</ele><speed>13.20</speed><time>2017-04-09T12:47:30Z</time><pdop>3.0</pdop><geoidheight>0.00</geoidheight><course>213.0</course><type>1</type></trkpt>
      <trkpt lat="40.17603391" lon="-5.11033726"><ele>927</ele><speed>11.67</speed><time>2017-04-09T12:47:31Z</time><pdop>3.0</pdop><geoidheight>0.00</geoidheight><course>199.3</course><type>1</type></trkpt>
      <trkpt lat="40.17594353" lon="-5.11035481"><ele>926</ele><speed>9.59</speed><time>2017-04-09T12:47:32Z</time><pdop>3.0</pdop><geoidheight>0.00</geoidheight><course>180.8</course><type>1</type></trkpt>
      <trkpt lat="40.17587605" lon="-5.11034384"><ele>925</ele><speed>7.71</speed><time>2017-04-09T12:47:33Z</time><pdop>3.0</pdop><geoidheight>0.00</geoidheight><course>165.2</course><type>1</type></trkpt>
      <trkpt lat="40.17582243" lon="-5.1103073"><ele>925</ele><speed>6.48</speed><time>2017-04-09T12:47:34Z</time><pdop>3.0</pdop><geoidheight>0.00</geoidheight><course>149.2</course><type>1</type></trkpt>
      <trkpt lat="40.17575274" lon="-5.11024623"><ele>925</ele><speed>3.55</speed><time>2017-04-09T12:47:36Z</time><pdop>3.0</pdop><geoidheight>0.00</geoidheight><course>144.7</course><type>1</type></trkpt>
      <trkpt lat="40.17572605" lon="-5.11018296"><ele>923</ele><speed>4.49</speed><time>2017-04-09T12:47:38Z</time><pdop>3.0</pdop><geoidheight>0.00</geoidheight><course>110.2</course><type>1</type></trkpt>
      <trkpt lat="40.17563606" lon="-5.10980119"><ele>930</ele><speed>3.39</speed><time>2017-04-09T12:47:45Z</time><pdop>3.0</pdop><geoidheight>0.00</geoidheight><course>130.7</course><type>1</type></trkpt>
      <trkpt lat="40.17561972" lon="-5.10971916"><ele>930</ele><speed>2.50</speed><time>2017-04-09T12:47:48Z</time><pdop>3.0</pdop><geoidheight>0.00</geoidheight><course>132.2</course><type>1</type></trkpt>
      <trkpt lat="40.17557523" lon="-5.10963224"><ele>929</ele><speed>3.24</speed><time>2017-04-09T12:47:51Z</time><pdop>3.0</pdop><geoidheight>0.00</geoidheight><course>135.1</course><type>1</type></trkpt>
      <trkpt lat="40.17557759" lon="-5.10953026"><ele>932</ele><speed>3.36</speed><time>2017-04-09T12:47:54Z</time><pdop>3.0</pdop><geoidheight>0.00</geoidheight><course>89.0</course><type>1</type></trkpt>
      <trkpt lat="40.17569191" lon="-5.10951298"><ele>934</ele><speed>5.10</speed><time>2017-04-09T12:47:56Z</time><pdop>3.0</pdop><geoidheight>0.00</geoidheight><course>14.1</course><type>1</type></trkpt>
      <trkpt lat="40.17578386" lon="-5.10948266"><ele>934</ele><speed>5.76</speed><time>2017-04-09T12:47:58Z</time><pdop>3.0</pdop><geoidheight>0.00</geoidheight><course>13.1</course><type>1</type></trkpt>
      <trkpt lat="40.17590755" lon="-5.10952866"><ele>932</ele><speed>9.79</speed><time>2017-04-09T12:48:00Z</time><pdop>3.0</pdop><geoidheight>0.00</geoidheight><course>332.1</course><type>1</type></trkpt>
      <trkpt lat="40.17599475" lon="-5.10960745"><ele>931</ele><speed>12.74</speed><time>2017-04-09T12:48:01Z</time><pdop>3.0</pdop><geoidheight>0.00</geoidheight><course>320.7</course><type>1</type></trkpt>
      <trkpt lat="40.17623405" lon="-5.11053851"><ele>930</ele><speed>18.33</speed><time>2017-04-09T12:48:06Z</time><pdop>3.0</pdop><geoidheight>0.00</geoidheight><course>267.6</course><type>1</type></trkpt>
      <trkpt lat="40.17621575" lon="-5.11074266"><ele>934</ele><speed>15.90</speed><time>2017-04-09T12:48:07Z</time><pdop>3.0</pdop><geoidheight>0.00</geoidheight><course>268.9</course><type>1</type></trkpt>
      <trkpt lat="40.17621743" lon="-5.11091847"><ele>935</ele><speed>14.87</speed><time>2017-04-09T12:48:08Z</time><pdop>3.0</pdop><geoidheight>0.00</geoidheight><course>270.5</course><type>1</type></trkpt>
      <trkpt lat="40.17621916" lon="-5.11109626"><ele>936</ele><speed>15.03</speed><time>2017-04-09T12:48:09Z</time><pdop>4.0</pdop><geoidheight>0.00</geoidheight><course>270.9</course><type>1</type></trkpt>
      <trkpt lat="40.1762181" lon="-5.11127866"><ele>936</ele><speed>16.44</speed><time>2017-04-09T12:48:10Z</time><pdop>4.0</pdop><geoidheight>0.00</geoidheight><course>269.5</course><type>1</type></trkpt>
      <trkpt lat="40.17621063" lon="-5.11147215"><ele>936</ele><speed>16.95</speed><time>2017-04-09T12:48:11Z</time><pdop>4.0</pdop><geoidheight>0.00</geoidheight><course>267.2</course><type>1</type></trkpt>
      <trkpt lat="40.17619645" lon="-5.11166597"><ele>935</ele><speed>16.74</speed><time>2017-04-09T12:48:12Z</time><pdop>4.0</pdop><geoidheight>0.00</geoidheight><course>265.6</course><type>1</type></trkpt>
      <trkpt lat="40.17618011" lon="-5.11185735"><ele>935</ele><speed>15.71</speed><time>2017-04-09T12:48:13Z</time><pdop>3.0</pdop><geoidheight>0.00</geoidheight><course>263.9</course><type>1</type></trkpt>
      <trkpt lat="40.17615996" lon="-5.11203313"><ele>936</ele><speed>14.58</speed><time>2017-04-09T12:48:14Z</time><pdop>3.0</pdop><geoidheight>0.00</geoidheight><course>259.5</course><type>1</type></trkpt>
      <trkpt lat="40.17612941" lon="-5.112203"><ele>936</ele><speed>13.87</speed><time>2017-04-09T12:48:15Z</time><pdop>3.0</pdop><geoidheight>0.00</geoidheight><course>247.7</course><type>1</type></trkpt>
      <trkpt lat="40.17606531" lon="-5.11233909"><ele>936</ele><speed>13.79</speed><time>2017-04-09T12:48:16Z</time><pdop>3.0</pdop><geoidheight>0.00</geoidheight><course>231.5</course><type>1</type></trkpt>
      <trkpt lat="40.17596474" lon="-5.11244805"><ele>935</ele><speed>13.70</speed><time>2017-04-09T12:48:17Z</time><pdop>3.0</pdop><geoidheight>0.00</geoidheight><course>214.4</course><type>1</type></trkpt>
      <trkpt lat="40.17586287" lon="-5.11251504"><ele>936</ele><speed>12.16</speed><time>2017-04-09T12:48:18Z</time><pdop>3.0</pdop><geoidheight>0.00</geoidheight><course>199.0</course><type>1</type></trkpt>
      <trkpt lat="40.17576689" lon="-5.11254063"><ele>938</ele><speed>9.96</speed><time>2017-04-09T12:48:19Z</time><pdop>3.0</pdop><geoidheight>0.00</geoidheight><course>185.5</course><type>1</type></trkpt>
      <trkpt lat="40.17569471" lon="-5.11255007"><ele>940</ele><speed>7.88</speed><time>2017-04-09T12:48:20Z</time><pdop>3.0</pdop><geoidheight>0.00</geoidheight><course>174.6</course><type>1</type></trkpt>
      <trkpt lat="40.17561884" lon="-5.11253002"><ele>940</ele><speed>7.09</speed><time>2017-04-09T12:48:21Z</time><pdop>3.0</pdop><geoidheight>0.00</geoidheight><course>169.8</course><type>1</type></trkpt>
      <trkpt lat="40.17555664" lon="-5.11251639"><ele>941</ele><speed>7.04</speed><time>2017-04-09T12:48:22Z</time><pdop>3.0</pdop><geoidheight>0.00</geoidheight><course>168.7</course><type>1</type></trkpt>
      <trkpt lat="40.1754923" lon="-5.11249981"><ele>941</ele><speed>7.36</speed><time>2017-04-09T12:48:23Z</time><pdop>4.0</pdop><geoidheight>0.00</geoidheight><course>163.5</course><type>1</type></trkpt>
      <trkpt lat="40.17542994" lon="-5.11247474"><ele>940</ele><speed>7.42</speed><time>2017-04-09T12:48:24Z</time><pdop>3.0</pdop><geoidheight>0.00</geoidheight><course>155.4</course><type>1</type></trkpt>
      <trkpt lat="40.175331" lon="-5.11238546"><ele>942</ele><speed>6.32</speed><time>2017-04-09T12:48:26Z</time><pdop>4.0</pdop><geoidheight>0.00</geoidheight><course>137.8</course><type>1</type></trkpt>
      <trkpt lat="40.17524316" lon="-5.11233511"><ele>945</ele><speed>5.41</speed><time>2017-04-09T12:48:28Z</time><pdop>4.0</pdop><geoidheight>0.00</geoidheight><course>163.3</course><type>1</type></trkpt>
      <trkpt lat="40.17516003" lon="-5.11232034"><ele>946</ele><speed>5.11</speed><time>2017-04-09T12:48:30Z</time><pdop>4.0</pdop><geoidheight>0.00</geoidheight><course>159.7</course><type>1</type></trkpt>
      <trkpt lat="40.17508321" lon="-5.11225595"><ele>945</ele><speed>4.75</speed><time>2017-04-09T12:48:32Z</time><pdop>3.0</pdop><geoidheight>0.00</geoidheight><course>127.6</course><type>1</type></trkpt>
      <trkpt lat="40.17508428" lon="-5.11217325"><ele>947</ele><speed>3.75</speed><time>2017-04-09T12:48:34Z</time><pdop>3.0</pdop><geoidheight>0.00</geoidheight><course>51.5</course><type>1</type></trkpt>
      <trkpt lat="40.17512803" lon="-5.11213146"><ele>948</ele><speed>6.50</speed><time>2017-04-09T12:48:35Z</time><pdop>3.0</pdop><geoidheight>0.00</geoidheight><course>23.3</course><type>1</type></trkpt>
      <trkpt lat="40.17519141" lon="-5.11211002"><ele>949</ele><speed>7.48</speed><time>2017-04-09T12:48:36Z</time><pdop>3.0</pdop><geoidheight>0.00</geoidheight><course>14.0</course><type>1</type></trkpt>
      <trkpt lat="40.17526261" lon="-5.11211772"><ele>951</ele><speed>7.14</speed><time>2017-04-09T12:48:37Z</time><pdop>3.0</pdop><geoidheight>0.00</geoidheight><course>2.2</course><type>1</type></trkpt>
      <trkpt lat="40.17532394" lon="-5.11212088"><ele>953</ele><speed>6.15</speed><time>2017-04-09T12:48:38Z</time><pdop>3.0</pdop><geoidheight>0.00</geoidheight><course>354.5</course><type>1</type></trkpt>
      <trkpt lat="40.17542202" lon="-5.11215849"><ele>954</ele><speed>6.24</speed><time>2017-04-09T12:48:40Z</time><pdop>3.0</pdop><geoidheight>0.00</geoidheight><course>344.2</course><type>1</type></trkpt>
      <trkpt lat="40.17548319" lon="-5.11218074"><ele>953</ele><speed>7.61</speed><time>2017-04-09T12:48:41Z</time><pdop>3.0</pdop><geoidheight>0.00</geoidheight><course>346.5</course><type>1</type></trkpt>
      <trkpt lat="40.17556514" lon="-5.11221977"><ele>951</ele><speed>9.46</speed><time>2017-04-09T12:48:42Z</time><pdop>3.0</pdop><geoidheight>0.00</geoidheight><course>338.8</course><type>1</type></trkpt>
      <trkpt lat="40.17564059" lon="-5.1122853"><ele>949</ele><speed>11.72</speed><time>2017-04-09T12:48:43Z</time><pdop>3.0</pdop><geoidheight>0.00</geoidheight><course>327.3</course><type>1</type></trkpt>
      <trkpt lat="40.17573228" lon="-5.11238617"><ele>948</ele><speed>14.09</speed><time>2017-04-09T12:48:44Z</time><pdop>3.0</pdop><geoidheight>0.00</geoidheight><course>314.4</course><type>1</type></trkpt>
      <trkpt lat="40.17581238" lon="-5.11253491"><ele>947</ele><speed>16.58</speed><time>2017-04-09T12:48:45Z</time><pdop>3.0</pdop><geoidheight>0.00</geoidheight><course>300.2</course><type>1</type></trkpt>
      <trkpt lat="40.17586788" lon="-5.11272694"><ele>947</ele><speed>17.77</speed><time>2017-04-09T12:48:46Z</time><pdop>3.0</pdop><geoidheight>0.00</geoidheight><course>287.1</course><type>1</type></trkpt>
      <trkpt lat="40.17590334" lon="-5.11293513"><ele>946</ele><speed>18.04</speed><time>2017-04-09T12:48:47Z</time><pdop>3.0</pdop><geoidheight>0.00</geoidheight><course>277.9</course><type>1</type></trkpt>
      <trkpt lat="40.17591629" lon="-5.1131422"><ele>947</ele><speed>17.42</speed><time>2017-04-09T12:48:48Z</time><pdop>3.0</pdop><geoidheight>0.00</geoidheight><course>272.4</course><type>1</type></trkpt>
      <trkpt lat="40.17591053" lon="-5.11331772"><ele>947</ele><speed>16.13</speed><time>2017-04-09T12:48:49Z</time><pdop>3.0</pdop><geoidheight>0.00</geoidheight><course>268.5</course><type>1</type></trkpt>
      <trkpt lat="40.17589818" lon="-5.1135031"><ele>947</ele><speed>15.37</speed><time>2017-04-09T12:48:50Z</time><pdop>3.0</pdop><geoidheight>0.00</geoidheight><course>262.3</course><type>1</type></trkpt>
      <trkpt lat="40.17586564" lon="-5.11368289"><ele>946</ele><speed>15.95</speed><time>2017-04-09T12:48:51Z</time><pdop>3.0</pdop><geoidheight>0.00</geoidheight><course>254.9</course><type>1</type></trkpt>
      <trkpt lat="40.17581804" lon="-5.11386359"><ele>945</ele><speed>16.83</speed><time>2017-04-09T12:48:52Z</time><pdop>3.0</pdop><geoidheight>0.00</geoidheight><course>248.2</course><type>1</type></trkpt>
      <trkpt lat="40.1757587" lon="-5.11405274"><ele>944</ele><speed>16.78</speed><time>2017-04-09T12:48:53Z</time><pdop>3.0</pdop><geoidheight>0.00</geoidheight><course>243.5</course><type>1</type></trkpt>
      <trkpt lat="40.17569086" lon="-5.11421964"><ele>944</ele><speed>16.01</speed><time>2017-04-09T12:48:54Z</time><pdop>3.0</pdop><geoidheight>0.00</geoidheight><course>238.9</course><type>1</type></trkpt>
      <trkpt lat="40.17561033" lon="-5.11436737"><ele>944</ele><speed>14.36</speed><time>2017-04-09T12:48:55Z</time><pdop>3.0</pdop><geoidheight>0.00</geoidheight><course>233.6</course><type>1</type></trkpt>
      <trkpt lat="40.17553192" lon="-5.11449116"><ele>945</ele><speed>12.73</speed><time>2017-04-09T12:48:56Z</time><pdop>3.0</pdop><geoidheight>0.00</geoidheight><course>225.5</course><type>1</type></trkpt>
      <trkpt lat="40.17545271" lon="-5.11458212"><ele>945</ele><speed>11.71</speed><time>2017-04-09T12:48:57Z</time><pdop>3.0</pdop><geoidheight>0.00</geoidheight><course>218.3</course><type>1</type></trkpt>
      <trkpt lat="40.1753671" lon="-5.11466008"><ele>945</ele><speed>11.08</speed><time>2017-04-09T12:48:58Z</time><pdop>3.0</pdop><geoidheight>0.00</geoidheight><course>211.3</course><type>1</type></trkpt>
      <trkpt lat="40.17527329" lon="-5.11472224"><ele>944</ele><speed>11.84</speed><time>2017-04-09T12:48:59Z</time><pdop>3.0</pdop><geoidheight>0.00</geoidheight><course>208.6</course><type>1</type></trkpt>
      <trkpt lat="40.17517693" lon="-5.114779"><ele>944</ele><speed>11.50</speed><time>2017-04-09T12:49:00Z</time><pdop>3.0</pdop><geoidheight>0.00</geoidheight><course>203.8</course><type>1</type></trkpt>
      <trkpt lat="40.17509426" lon="-5.11482359"><ele>944</ele><speed>9.51</speed><time>2017-04-09T12:49:01Z</time><pdop>3.0</pdop><geoidheight>0.00</geoidheight><course>198.5</course><type>1</type></trkpt>
      <trkpt lat="40.17504135" lon="-5.11484295"><ele>943</ele><speed>8.09</speed><time>2017-04-09T12:49:02Z</time><pdop>3.0</pdop><geoidheight>0.00</geoidheight><course>198.3</course><type>1</type></trkpt>
      <trkpt lat="40.17497151" lon="-5.11487476"><ele>945</ele><speed>7.54</speed><time>2017-04-09T12:49:03Z</time><pdop>3.0</pdop><geoidheight>0.00</geoidheight><course>196.7</course><type>1</type></trkpt>
      <trkpt lat="40.17490441" lon="-5.11489496"><ele>944</ele><speed>8.40</speed><time>2017-04-09T12:49:04Z</time><pdop>3.0</pdop><geoidheight>0.00</geoidheight><course>194.4</course><type>1</type></trkpt>
      <trkpt lat="40.17482007" lon="-5.11492278"><ele>945</ele><speed>9.34</speed><time>2017-04-09T12:49:05Z</time><pdop>3.0</pdop><geoidheight>0.00</geoidheight><course>188.8</course><type>1</type></trkpt>
      <trkpt lat="40.17473008" lon="-5.11493738"><ele>945</ele><speed>8.97</speed><time>2017-04-09T12:49:06Z</time><pdop>3.0</pdop><geoidheight>0.00</geoidheight><course>183.9</course><type>1</type></trkpt>
      <trkpt lat="40.17465046" lon="-5.11493228"><ele>946</ele><speed>7.83</speed><time>2017-04-09T12:49:07Z</time><pdop>3.0</pdop><geoidheight>0.00</geoidheight><course>179.9</course><type>1</type></trkpt>
      <trkpt lat="40.17456991" lon="-5.11493024"><ele>947</ele><speed>7.49</speed><time>2017-04-09T12:49:08Z</time><pdop>4.0</pdop><geoidheight>0.00</geoidheight><course>184.8</course><type>1</type></trkpt>
      <trkpt lat="40.17450739" lon="-5.11495973"><ele>949</ele><speed>7.58</speed><time>2017-04-09T12:49:09Z</time><pdop>3.0</pdop><geoidheight>0.00</geoidheight><course>196.3</course><type>1</type></trkpt>
      <trkpt lat="40.17444622" lon="-5.11499488"><ele>949</ele><speed>7.51</speed><time>2017-04-09T12:49:10Z</time><pdop>3.0</pdop><geoidheight>0.00</geoidheight><course>199.8</course><type>1</type></trkpt>
      <trkpt lat="40.1743341" lon="-5.11503395"><ele>948</ele><speed>6.14</speed><time>2017-04-09T12:49:12Z</time><pdop>4.0</pdop><geoidheight>0.00</geoidheight><course>173.7</course><type>1</type></trkpt>
      <trkpt lat="40.17422276" lon="-5.11502739"><ele>946</ele><speed>6.13</speed><time>2017-04-09T12:49:14Z</time><pdop>4.0</pdop><geoidheight>0.00</geoidheight><course>181.3</course><type>1</type></trkpt>
      <trkpt lat="40.17415442" lon="-5.11503972"><ele>947</ele><speed>7.68</speed><time>2017-04-09T12:49:15Z</time><pdop>3.0</pdop><geoidheight>0.00</geoidheight><course>184.0</course><type>1</type></trkpt>
      <trkpt lat="40.17408131" lon="-5.11503191"><ele>948</ele><speed>7.88</speed><time>2017-04-09T12:49:16Z</time><pdop>3.0</pdop><geoidheight>0.00</geoidheight><course>178.3</course><type>1</type></trkpt>
      <trkpt lat="40.17400851" lon="-5.11502358"><ele>949</ele><speed>7.55</speed><time>2017-04-09T12:49:17Z</time><pdop>3.0</pdop><geoidheight>0.00</geoidheight><course>170.1</course><type>1</type></trkpt>
      <trkpt lat="40.17394197" lon="-5.11500382"><ele>952</ele><speed>6.49</speed><time>2017-04-09T12:49:18Z</time><pdop>3.0</pdop><geoidheight>0.00</geoidheight><course>163.5</course><type>1</type></trkpt>
      <trkpt lat="40.17385432" lon="-5.11497714"><ele>957</ele><speed>4.47</speed><time>2017-04-09T12:49:20Z</time><pdop>3.0</pdop><geoidheight>0.00</geoidheight><course>172.2</course><type>1</type></trkpt>
      <trkpt lat="40.17377088" lon="-5.11497448"><ele>960</ele><speed>5.88</speed><time>2017-04-09T12:49:22Z</time><pdop>3.0</pdop><geoidheight>0.00</geoidheight><course>171.4</course><type>1</type></trkpt>
      <trkpt lat="40.17365227" lon="-5.11491442"><ele>964</ele><speed>8.11</speed><time>2017-04-09T12:49:24Z</time><pdop>4.0</pdop><geoidheight>0.00</geoidheight><course>164.0</course><type>1</type></trkpt>
      <trkpt lat="40.17352721" lon="-5.1148797"><ele>971</ele><speed>5.93</speed><time>2017-04-09T12:49:26Z</time><pdop>5.0</pdop><geoidheight>0.00</geoidheight><course>171.1</course><type>1</type></trkpt>
      <trkpt lat="40.17343475" lon="-5.11484293"><ele>974</ele><speed>3.03</speed><time>2017-04-09T12:49:29Z</time><pdop>4.0</pdop><geoidheight>0.00</geoidheight><course>131.2</course><type>1</type></trkpt>
      <trkpt lat="40.17349318" lon="-5.1147838"><ele>971</ele><speed>6.90</speed><time>2017-04-09T12:49:31Z</time><pdop>3.0</pdop><geoidheight>0.00</geoidheight><course>6.5</course><type>1</type></trkpt>
      <trkpt lat="40.17357299" lon="-5.11480907"><ele>971</ele><speed>11.17</speed><time>2017-04-09T12:49:32Z</time><pdop>3.0</pdop><geoidheight>0.00</geoidheight><course>337.6</course><type>1</type></trkpt>
      <trkpt lat="40.17365617" lon="-5.11490755"><ele>972</ele><speed>13.94</speed><time>2017-04-09T12:49:33Z</time><pdop>3.0</pdop><geoidheight>0.00</geoidheight><course>313.7</course><type>1</type></trkpt>
      <trkpt lat="40.17372986" lon="-5.11505656"><ele>972</ele><speed>16.14</speed><time>2017-04-09T12:49:34Z</time><pdop>3.0</pdop><geoidheight>0.00</geoidheight><course>293.7</course><type>1</type></trkpt>
      <trkpt lat="40.17376798" lon="-5.11524948"><ele>973</ele><speed>17.41</speed><time>2017-04-09T12:49:35Z</time><pdop>3.0</pdop><geoidheight>0.00</geoidheight><course>278.1</course><type>1</type></trkpt>
      <trkpt lat="40.17377742" lon="-5.11545653"><ele>973</ele><speed>17.33</speed><time>2017-04-09T12:49:36Z</time><pdop>3.0</pdop><geoidheight>0.00</geoidheight><course>268.9</course><type>1</type></trkpt>
      <trkpt lat="40.17376437" lon="-5.11565717"><ele>974</ele><speed>16.45</speed><time>2017-04-09T12:49:37Z</time><pdop>3.0</pdop><geoidheight>0.00</geoidheight><course>265.1</course><type>1</type></trkpt>
      <trkpt lat="40.17373878" lon="-5.11584137"><ele>973</ele><speed>15.84</speed><time>2017-04-09T12:49:38Z</time><pdop>3.0</pdop><geoidheight>0.00</geoidheight><course>262.9</course><type>1</type></trkpt>
      <trkpt lat="40.17372173" lon="-5.11602887"><ele>974</ele><speed>16.00</speed><time>2017-04-09T12:49:39Z</time><pdop>3.0</pdop><geoidheight>0.00</geoidheight><course>259.7</course><type>1</type></trkpt>
      <trkpt lat="40.17369107" lon="-5.11621424"><ele>976</ele><speed>17.30</speed><time>2017-04-09T12:49:40Z</time><pdop>3.0</pdop><geoidheight>0.00</geoidheight><course>252.7</course><type>1</type></trkpt>
      <trkpt lat="40.17363352" lon="-5.11639084"><ele>977</ele><speed>16.34</speed><time>2017-04-09T12:49:41Z</time><pdop>3.0</pdop><geoidheight>0.00</geoidheight><course>243.6</course><type>1</type></trkpt>
      <trkpt lat="40.1735652" lon="-5.11654388"><ele>979</ele><speed>14.19</speed><time>2017-04-09T12:49:42Z</time><pdop>3.0</pdop><geoidheight>0.00</geoidheight><course>234.2</course><type>1</type></trkpt>
      <trkpt lat="40.17349098" lon="-5.11666847"><ele>982</ele><speed>12.10</speed><time>2017-04-09T12:49:43Z</time><pdop>3.0</pdop><geoidheight>0.00</geoidheight><course>230.8</course><type>1</type></trkpt>
      <trkpt lat="40.17342605" lon="-5.11676825"><ele>984</ele><speed>10.94</speed><time>2017-04-09T12:49:44Z</time><pdop>3.0</pdop><geoidheight>0.00</geoidheight><course>228.7</course><type>1</type></trkpt>
      <trkpt lat="40.17334875" lon="-5.11685054"><ele>985</ele><speed>11.49</speed><time>2017-04-09T12:49:45Z</time><pdop>3.0</pdop><geoidheight>0.00</geoidheight><course>219.4</course><type>1</type></trkpt>
      <trkpt lat="40.17326703" lon="-5.11692629"><ele>986</ele><speed>11.42</speed><time>2017-04-09T12:49:46Z</time><pdop>3.0</pdop><geoidheight>0.00</geoidheight><course>213.4</course><type>1</type></trkpt>
      <trkpt lat="40.173147" lon="-5.11690046"><ele>985</ele><speed>11.68</speed><time>2017-04-09T12:49:47Z</time><pdop>4.0</pdop><geoidheight>0.00</geoidheight><course>175.5</course><type>1</type></trkpt>
      <trkpt lat="40.17305096" lon="-5.11686369"><ele>985</ele><speed>9.75</speed><time>2017-04-09T12:49:48Z</time><pdop>4.0</pdop><geoidheight>0.00</geoidheight><course>157.3</course><type>1</type></trkpt>
      <trkpt lat="40.17299427" lon="-5.11676764"><ele>988</ele><speed>9.01</speed><time>2017-04-09T12:49:49Z</time><pdop>3.0</pdop><geoidheight>0.00</geoidheight><course>117.2</course><type>1</type></trkpt>
      <trkpt lat="40.1729932" lon="-5.11668298"><ele>991</ele><speed>5.68</speed><time>2017-04-09T12:49:50Z</time><pdop>3.0</pdop><geoidheight>0.00</geoidheight><course>72.1</course><type>1</type></trkpt>
      <trkpt lat="40.17311002" lon="-5.11666122"><ele>998</ele><speed>8.27</speed><time>2017-04-09T12:49:52Z</time><pdop>3.0</pdop><geoidheight>0.00</geoidheight><course>343.7</course><type>1</type></trkpt>
      <trkpt lat="40.17317977" lon="-5.11671282"><ele>998</ele><speed>9.18</speed><time>2017-04-09T12:49:53Z</time><pdop>3.0</pdop><geoidheight>0.00</geoidheight><course>331.4</course><type>1</type></trkpt>
      <trkpt lat="40.1732449" lon="-5.1167709"><ele>1000</ele><speed>9.29</speed><time>2017-04-09T12:49:54Z</time><pdop>4.0</pdop><geoidheight>0.00</geoidheight><course>323.0</course><type>1</type></trkpt>
      <trkpt lat="40.17330811" lon="-5.11685437"><ele>1001</ele><speed>9.28</speed><time>2017-04-09T12:49:55Z</time><pdop>3.0</pdop><geoidheight>0.00</geoidheight><course>315.4</course><type>1</type></trkpt>
      <trkpt lat="40.17336906" lon="-5.11695106"><ele>1001</ele><speed>10.86</speed><time>2017-04-09T12:49:56Z</time><pdop>3.0</pdop><geoidheight>0.00</geoidheight><course>308.4</course><type>1</type></trkpt>
      <trkpt lat="40.17343373" lon="-5.11707172"><ele>1001</ele><speed>13.57</speed><time>2017-04-09T12:49:57Z</time><pdop>3.0</pdop><geoidheight>0.00</geoidheight><course>303.8</course><type>1</type></trkpt>
      <trkpt lat="40.17349824" lon="-5.11723327"><ele>999</ele><speed>16.06</speed><time>2017-04-09T12:49:58Z</time><pdop>3.0</pdop><geoidheight>0.00</geoidheight><course>294.5</course><type>1</type></trkpt>
      <trkpt lat="40.1735463" lon="-5.11742566"><ele>1000</ele><speed>17.81</speed><time>2017-04-09T12:49:59Z</time><pdop>3.0</pdop><geoidheight>0.00</geoidheight><course>283.2</course><type>1</type></trkpt>
      <trkpt lat="40.17356285" lon="-5.11763823"><ele>1004</ele><speed>18.16</speed><time>2017-04-09T12:50:00Z</time><pdop>3.0</pdop><geoidheight>0.00</geoidheight><course>267.8</course><type>1</type></trkpt>
      <trkpt lat="40.17352573" lon="-5.1178349"><ele>1007</ele><speed>16.35</speed><time>2017-04-09T12:50:01Z</time><pdop>3.0</pdop><geoidheight>0.00</geoidheight><course>253.1</course><type>1</type></trkpt>
      <trkpt lat="40.17347979" lon="-5.11801633"><ele>1012</ele><speed>16.22</speed><time>2017-04-09T12:50:02Z</time><pdop>3.0</pdop><geoidheight>0.00</geoidheight><course>245.2</course><type>1</type></trkpt>
      <trkpt lat="40.17342391" lon="-5.11813142"><ele>1013</ele><speed>11.73</speed><time>2017-04-09T12:50:03Z</time><pdop>3.0</pdop><geoidheight>0.00</geoidheight><course>239.3</course><type>1</type></trkpt>
      <trkpt lat="40.17337442" lon="-5.1182546"><ele>1014</ele><speed>11.81</speed><time>2017-04-09T12:50:04Z</time><pdop>4.0</pdop><geoidheight>0.00</geoidheight><course>241.4</course><type>1</type></trkpt>
      <trkpt lat="40.17330894" lon="-5.11839019"><ele>1014</ele><speed>13.27</speed><time>2017-04-09T12:50:05Z</time><pdop>3.0</pdop><geoidheight>0.00</geoidheight><course>238.9</course><type>1</type></trkpt>
      <trkpt lat="40.17323888" lon="-5.11851608"><ele>1014</ele><speed>13.70</speed><time>2017-04-09T12:50:06Z</time><pdop>3.0</pdop><geoidheight>0.00</geoidheight><course>228.5</course><type>1</type></trkpt>
      <trkpt lat="40.17314267" lon="-5.11859163"><ele>1013</ele><speed>12.85</speed><time>2017-04-09T12:50:07Z</time><pdop>4.0</pdop><geoidheight>0.00</geoidheight><course>210.9</course><type>1</type></trkpt>
      <trkpt lat="40.17303513" lon="-5.11864696"><ele>1015</ele><speed>11.72</speed><time>2017-04-09T12:50:08Z</time><pdop>3.0</pdop><geoidheight>0.00</geoidheight><course>191.5</course><type>1</type></trkpt>
      <trkpt lat="40.17293504" lon="-5.11865603"><ele>1014</ele><speed>10.24</speed><time>2017-04-09T12:50:09Z</time><pdop>4.0</pdop><geoidheight>0.00</geoidheight><course>175.9</course><type>1</type></trkpt>
      <trkpt lat="40.17285084" lon="-5.11860373"><ele>1015</ele><speed>9.23</speed><time>2017-04-09T12:50:10Z</time><pdop>4.0</pdop><geoidheight>0.00</geoidheight><course>148.1</course><type>1</type></trkpt>
      <trkpt lat="40.17280752" lon="-5.11852642"><ele>1016</ele><speed>7.12</speed><time>2017-04-09T12:50:11Z</time><pdop>3.0</pdop><geoidheight>0.00</geoidheight><course>116.2</course><type>1</type></trkpt>
      <trkpt lat="40.17279691" lon="-5.11845043"><ele>1017</ele><speed>6.34</speed><time>2017-04-09T12:50:12Z</time><pdop>3.0</pdop><geoidheight>0.00</geoidheight><course>79.9</course><type>1</type></trkpt>
      <trkpt lat="40.17284071" lon="-5.11838391"><ele>1018</ele><speed>6.71</speed><time>2017-04-09T12:50:13Z</time><pdop>3.0</pdop><geoidheight>0.00</geoidheight><course>42.9</course><type>1</type></trkpt>
      <trkpt lat="40.17290934" lon="-5.1183545"><ele>1018</ele><speed>7.38</speed><time>2017-04-09T12:50:14Z</time><pdop>3.0</pdop><geoidheight>0.00</geoidheight><course>11.8</course><type>1</type></trkpt>
      <trkpt lat="40.17297859" lon="-5.11836073"><ele>1020</ele><speed>8.25</speed><time>2017-04-09T12:50:15Z</time><pdop>3.0</pdop><geoidheight>0.00</geoidheight><course>344.2</course><type>1</type></trkpt>
      <trkpt lat="40.17303608" lon="-5.1184167"><ele>1022</ele><speed>9.03</speed><time>2017-04-09T12:50:16Z</time><pdop>3.0</pdop><geoidheight>0.00</geoidheight><course>330.0</course><type>1</type></trkpt>
      <trkpt lat="40.17309061" lon="-5.11847342"><ele>1022</ele><speed>8.54</speed><time>2017-04-09T12:50:17Z</time><pdop>3.0</pdop><geoidheight>0.00</geoidheight><course>321.9</course><type>1</type></trkpt>
      <trkpt lat="40.17314289" lon="-5.11853276"><ele>1024</ele><speed>7.95</speed><time>2017-04-09T12:50:18Z</time><pdop>3.0</pdop><geoidheight>0.00</geoidheight><course>312.1</course><type>1</type></trkpt>
      <trkpt lat="40.17319562" lon="-5.118604"><ele>1025</ele><speed>8.79</speed><time>2017-04-09T12:50:19Z</time><pdop>3.0</pdop><geoidheight>0.00</geoidheight><course>310.9</course><type>1</type></trkpt>
      <trkpt lat="40.17325672" lon="-5.11869679"><ele>1026</ele><speed>10.77</speed><time>2017-04-09T12:50:20Z</time><pdop>3.0</pdop><geoidheight>0.00</geoidheight><course>309.7</course><type>1</type></trkpt>
      <trkpt lat="40.17332554" lon="-5.11881379"><ele>1026</ele><speed>12.94</speed><time>2017-04-09T12:50:21Z</time><pdop>3.0</pdop><geoidheight>0.00</geoidheight><course>302.6</course><type>1</type></trkpt>
      <trkpt lat="40.17337168" lon="-5.11895882"><ele>1028</ele><speed>14.28</speed><time>2017-04-09T12:50:22Z</time><pdop>3.0</pdop><geoidheight>0.00</geoidheight><course>288.0</course><type>1</type></trkpt>
      <trkpt lat="40.17339738" lon="-5.1191217"><ele>1030</ele><speed>15.10</speed><time>2017-04-09T12:50:23Z</time><pdop>3.0</pdop><geoidheight>0.00</geoidheight><course>273.7</course><type>1</type></trkpt>
      <trkpt lat="40.17339508" lon="-5.11929253"><ele>1033</ele><speed>13.61</speed><time>2017-04-09T12:50:24Z</time><pdop>3.0</pdop><geoidheight>0.00</geoidheight><course>262.2</course><type>1</type></trkpt>
      <trkpt lat="40.1733705" lon="-5.11945295"><ele>1037</ele><speed>11.55</speed><time>2017-04-09T12:50:25Z</time><pdop>3.0</pdop><geoidheight>0.00</geoidheight><course>258.8</course><type>1</type></trkpt>
      <trkpt lat="40.17334026" lon="-5.11957958"><ele>1038</ele><speed>10.52</speed><time>2017-04-09T12:50:26Z</time><pdop>3.0</pdop><geoidheight>0.00</geoidheight><course>256.1</course><type>1</type></trkpt>
      <trkpt lat="40.17331788" lon="-5.1196967"><ele>1040</ele><speed>11.38</speed><time>2017-04-09T12:50:27Z</time><pdop>3.0</pdop><geoidheight>0.00</geoidheight><course>251.9</course><type>1</type></trkpt>
      <trkpt lat="40.17327406" lon="-5.11982625"><ele>1041</ele><speed>12.63</speed><time>2017-04-09T12:50:28Z</time><pdop>3.0</pdop><geoidheight>0.00</geoidheight><course>243.9</course><type>1</type></trkpt>
      <trkpt lat="40.17320042" lon="-5.11995199"><ele>1041</ele><speed>13.68</speed><time>2017-04-09T12:50:29Z</time><pdop>3.0</pdop><geoidheight>0.00</geoidheight><course>227.7</course><type>1</type></trkpt>
      <trkpt lat="40.17310039" lon="-5.12004002"><ele>1040</ele><speed>13.94</speed><time>2017-04-09T12:50:30Z</time><pdop>3.0</pdop><geoidheight>0.00</geoidheight><course>207.1</course><type>1</type></trkpt>
      <trkpt lat="40.17298418" lon="-5.12007779"><ele>1040</ele><speed>13.48</speed><time>2017-04-09T12:50:31Z</time><pdop>3.0</pdop><geoidheight>0.00</geoidheight><course>184.7</course><type>1</type></trkpt>
      <trkpt lat="40.17287495" lon="-5.12005562"><ele>1041</ele><speed>11.86</speed><time>2017-04-09T12:50:32Z</time><pdop>3.0</pdop><geoidheight>0.00</geoidheight><course>163.2</course><type>1</type></trkpt>
      <trkpt lat="40.17279009" lon="-5.12000737"><ele>1045</ele><speed>9.44</speed><time>2017-04-09T12:50:33Z</time><pdop>3.0</pdop><geoidheight>0.00</geoidheight><course>144.6</course><type>1</type></trkpt>
      <trkpt lat="40.17274224" lon="-5.11994448"><ele>1048</ele><speed>6.89</speed><time>2017-04-09T12:50:34Z</time><pdop>3.0</pdop><geoidheight>0.00</geoidheight><course>130.3</course><type>1</type></trkpt>
      <trkpt lat="40.17270633" lon="-5.11989184"><ele>1050</ele><speed>5.70</speed><time>2017-04-09T12:50:35Z</time><pdop>3.0</pdop><geoidheight>0.00</geoidheight><course>127.9</course><type>1</type></trkpt>
      <trkpt lat="40.17262559" lon="-5.11981034"><ele>1056</ele><speed>5.10</speed><time>2017-04-09T12:50:37Z</time><pdop>3.0</pdop><geoidheight>0.00</geoidheight><course>140.6</course><type>1</type></trkpt>
      <trkpt lat="40.17257938" lon="-5.11973004"><ele>1057</ele><speed>4.91</speed><time>2017-04-09T12:50:39Z</time><pdop>3.0</pdop><geoidheight>0.00</geoidheight><course>99.5</course><type>1</type></trkpt>
      <trkpt lat="40.1726201" lon="-5.1196351"><ele>1059</ele><speed>5.08</speed><time>2017-04-09T12:50:41Z</time><pdop>3.0</pdop><geoidheight>0.00</geoidheight><course>33.3</course><type>1</type></trkpt>
      <trkpt lat="40.17272459" lon="-5.11967931"><ele>1062</ele><speed>7.85</speed><time>2017-04-09T12:50:43Z</time><pdop>3.0</pdop><geoidheight>0.00</geoidheight><course>320.0</course><type>1</type></trkpt>
      <trkpt lat="40.17278607" lon="-5.11977267"><ele>1061</ele><speed>10.84</speed><time>2017-04-09T12:50:44Z</time><pdop>3.0</pdop><geoidheight>0.00</geoidheight><course>307.4</course><type>1</type></trkpt>
      <trkpt lat="40.17284408" lon="-5.11989657"><ele>1061</ele><speed>13.42</speed><time>2017-04-09T12:50:45Z</time><pdop>3.0</pdop><geoidheight>0.00</geoidheight><course>300.3</course><type>1</type></trkpt>
      <trkpt lat="40.17289934" lon="-5.12004992"><ele>1061</ele><speed>14.85</speed><time>2017-04-09T12:50:46Z</time><pdop>3.0</pdop><geoidheight>0.00</geoidheight><course>291.6</course><type>1</type></trkpt>
      <trkpt lat="40.17294521" lon="-5.12021109"><ele>1061</ele><speed>15.72</speed><time>2017-04-09T12:50:47Z</time><pdop>3.0</pdop><geoidheight>0.00</geoidheight><course>283.6</course><type>1</type></trkpt>
      <trkpt lat="40.17297171" lon="-5.12039453"><ele>1063</ele><speed>15.56</speed><time>2017-04-09T12:50:48Z</time><pdop>3.0</pdop><geoidheight>0.00</geoidheight><course>275.8</course><type>1</type></trkpt>
      <trkpt lat="40.17296239" lon="-5.12056236"><ele>1065</ele><speed>15.04</speed><time>2017-04-09T12:50:49Z</time><pdop>3.0</pdop><geoidheight>0.00</geoidheight><course>270.0</course><type>1</type></trkpt>
      <trkpt lat="40.17295871" lon="-5.12073064"><ele>1067</ele><speed>14.16</speed><time>2017-04-09T12:50:50Z</time><pdop>3.0</pdop><geoidheight>0.00</geoidheight><course>265.9</course><type>1</type></trkpt>
      <trkpt lat="40.17294391" lon="-5.12088923"><ele>1070</ele><speed>12.95</speed><time>2017-04-09T12:50:51Z</time><pdop>3.0</pdop><geoidheight>0.00</geoidheight><course>262.3</course><type>1</type></trkpt>
      <trkpt lat="40.17291499" lon="-5.12103441"><ele>1072</ele><speed>12.54</speed><time>2017-04-09T12:50:52Z</time><pdop>3.0</pdop><geoidheight>0.00</geoidheight><course>260.5</course><type>1</type></trkpt>
      <trkpt lat="40.1728919" lon="-5.12117633"><ele>1074</ele><speed>13.06</speed><time>2017-04-09T12:50:53Z</time><pdop>3.0</pdop><geoidheight>0.00</geoidheight><course>256.6</course><type>1</type></trkpt>
      <trkpt lat="40.17285651" lon="-5.12132101"><ele>1076</ele><speed>12.89</speed><time>2017-04-09T12:50:54Z</time><pdop>3.0</pdop><geoidheight>0.00</geoidheight><course>248.7</course><type>1</type></trkpt>
      <trkpt lat="40.17279863" lon="-5.12144732"><ele>1078</ele><speed>12.85</speed><time>2017-04-09T12:50:55Z</time><pdop>3.0</pdop><geoidheight>0.00</geoidheight><course>223.0</course><type>1</type></trkpt>
      <trkpt lat="40.17270612" lon="-5.12156198"><ele>1080</ele><speed>12.93</speed><time>2017-04-09T12:50:56Z</time><pdop>3.0</pdop><geoidheight>0.00</geoidheight><course>218.8</course><type>1</type></trkpt>
      <trkpt lat="40.17261271" lon="-5.12163845"><ele>1081</ele><speed>11.69</speed><time>2017-04-09T12:50:57Z</time><pdop>3.0</pdop><geoidheight>0.00</geoidheight><course>208.1</course><type>1</type></trkpt>
      <trkpt lat="40.17251229" lon="-5.12164917"><ele>1081</ele><speed>11.59</speed><time>2017-04-09T12:50:58Z</time><pdop>3.0</pdop><geoidheight>0.00</geoidheight><course>181.8</course><type>1</type></trkpt>
      <trkpt lat="40.172418" lon="-5.12162537"><ele>1082</ele><speed>9.84</speed><time>2017-04-09T12:50:59Z</time><pdop>3.0</pdop><geoidheight>0.00</geoidheight><course>160.7</course><type>1</type></trkpt>
      <trkpt lat="40.17235437" lon="-5.12158465"><ele>1085</ele><speed>8.53</speed><time>2017-04-09T12:51:00Z</time><pdop>3.0</pdop><geoidheight>0.00</geoidheight><course>141.7</course><type>1</type></trkpt>
      <trkpt lat="40.17230037" lon="-5.12152651"><ele>1088</ele><speed>7.40</speed><time>2017-04-09T12:51:01Z</time><pdop>3.0</pdop><geoidheight>0.00</geoidheight><course>132.3</course><type>1</type></trkpt>
      <trkpt lat="40.17224569" lon="-5.12142225"><ele>1091</ele><speed>4.62</speed><time>2017-04-09T12:51:03Z</time><pdop>3.0</pdop><geoidheight>0.00</geoidheight><course>118.1</course><type>1</type></trkpt>
      <trkpt lat="40.17223171" lon="-5.12131192"><ele>1092</ele><speed>5.88</speed><time>2017-04-09T12:51:05Z</time><pdop>3.0</pdop><geoidheight>0.00</geoidheight><course>87.5</course><type>1</type></trkpt>
      <trkpt lat="40.17224401" lon="-5.12124152"><ele>1093</ele><speed>6.47</speed><time>2017-04-09T12:51:06Z</time><pdop>3.0</pdop><geoidheight>0.00</geoidheight><course>71.1</course><type>1</type></trkpt>
      <trkpt lat="40.17228204" lon="-5.12118423"><ele>1094</ele><speed>5.59</speed><time>2017-04-09T12:51:07Z</time><pdop>3.0</pdop><geoidheight>0.00</geoidheight><course>46.2</course><type>1</type></trkpt>
      <trkpt lat="40.17237795" lon="-5.12118029"><ele>1096</ele><speed>6.42</speed><time>2017-04-09T12:51:09Z</time><pdop>3.0</pdop><geoidheight>0.00</geoidheight><course>333.8</course><type>1</type></trkpt>
      <trkpt lat="40.17243189" lon="-5.12124256"><ele>1096</ele><speed>8.17</speed><time>2017-04-09T12:51:10Z</time><pdop>3.0</pdop><geoidheight>0.00</geoidheight><course>316.6</course><type>1</type></trkpt>
      <trkpt lat="40.17248617" lon="-5.1213264"><ele>1094</ele><speed>10.02</speed><time>2017-04-09T12:51:11Z</time><pdop>3.0</pdop><geoidheight>0.00</geoidheight><course>311.5</course><type>1</type></trkpt>
      <trkpt lat="40.17254723" lon="-5.12143126"><ele>1094</ele><speed>12.15</speed><time>2017-04-09T12:51:12Z</time><pdop>3.0</pdop><geoidheight>0.00</geoidheight><course>302.8</course><type>1</type></trkpt>
      <trkpt lat="40.17259683" lon="-5.12157184"><ele>1093</ele><speed>14.04</speed><time>2017-04-09T12:51:13Z</time><pdop>3.0</pdop><geoidheight>0.00</geoidheight><course>291.1</course><type>1</type></trkpt>
      <trkpt lat="40.17262976" lon="-5.12174308"><ele>1092</ele><speed>15.77</speed><time>2017-04-09T12:51:14Z</time><pdop>3.0</pdop><geoidheight>0.00</geoidheight><course>277.3</course><type>1</type></trkpt>
      <trkpt lat="40.17263091" lon="-5.12193299"><ele>1093</ele><speed>16.45</speed><time>2017-04-09T12:51:15Z</time><pdop>3.0</pdop><geoidheight>0.00</geoidheight><course>266.0</course><type>1</type></trkpt>
      <trkpt lat="40.17261371" lon="-5.12212654"><ele>1095</ele><speed>15.62</speed><time>2017-04-09T12:51:16Z</time><pdop>3.0</pdop><geoidheight>0.00</geoidheight><course>259.1</course><type>1</type></trkpt>
      <trkpt lat="40.17258597" lon="-5.12230097"><ele>1097</ele><speed>14.23</speed><time>2017-04-09T12:51:17Z</time><pdop>3.0</pdop><geoidheight>0.00</geoidheight><course>254.0</course><type>1</type></trkpt>
      <trkpt lat="40.17254453" lon="-5.12244604"><ele>1100</ele><speed>12.91</speed><time>2017-04-09T12:51:18Z</time><pdop>3.0</pdop><geoidheight>0.00</geoidheight><course>250.4</course><type>1</type></trkpt>
      <trkpt lat="40.17250553" lon="-5.12258079"><ele>1101</ele><speed>11.94</speed><time>2017-04-09T12:51:19Z</time><pdop>3.0</pdop><geoidheight>0.00</geoidheight><course>246.0</course><type>1</type></trkpt>
      <trkpt lat="40.17245755" lon="-5.12270769"><ele>1103</ele><speed>11.39</speed><time>2017-04-09T12:51:20Z</time><pdop>3.0</pdop><geoidheight>0.00</geoidheight><course>240.7</course><type>1</type></trkpt>
      <trkpt lat="40.1723994" lon="-5.12281526"><ele>1104</ele><speed>11.50</speed><time>2017-04-09T12:51:21Z</time><pdop>3.0</pdop><geoidheight>0.00</geoidheight><course>230.2</course><type>1</type></trkpt>
      <trkpt lat="40.17232581" lon="-5.12289047"><ele>1103</ele><speed>12.39</speed><time>2017-04-09T12:51:22Z</time><pdop>3.0</pdop><geoidheight>0.00</geoidheight><course>217.1</course><type>1</type></trkpt>
      <trkpt lat="40.17222576" lon="-5.12297266"><ele>1105</ele><speed>12.79</speed><time>2017-04-09T12:51:23Z</time><pdop>3.0</pdop><geoidheight>0.00</geoidheight><course>203.0</course><type>1</type></trkpt>
      <trkpt lat="40.17212556" lon="-5.12301546"><ele>1106</ele><speed>11.27</speed><time>2017-04-09T12:51:24Z</time><pdop>3.0</pdop><geoidheight>0.00</geoidheight><course>188.3</course><type>1</type></trkpt>
      <trkpt lat="40.17203012" lon="-5.12300382"><ele>1108</ele><speed>9.52</speed><time>2017-04-09T12:51:25Z</time><pdop>3.0</pdop><geoidheight>0.00</geoidheight><course>165.5</course><type>1</type></trkpt>
      <trkpt lat="40.1719772" lon="-5.12296337"><ele>1109</ele><speed>7.37</speed><time>2017-04-09T12:51:26Z</time><pdop>3.0</pdop><geoidheight>0.00</geoidheight><course>147.6</course><type>1</type></trkpt>
      <trkpt lat="40.17191463" lon="-5.12286758"><ele>1111</ele><speed>4.23</speed><time>2017-04-09T12:51:28Z</time><pdop>3.0</pdop><geoidheight>0.00</geoidheight><course>113.0</course><type>1</type></trkpt>
      <trkpt lat="40.17188888" lon="-5.12278069"><ele>1113</ele><speed>3.87</speed><time>2017-04-09T12:51:30Z</time><pdop>3.0</pdop><geoidheight>0.00</geoidheight><course>99.3</course><type>1</type></trkpt>
      <trkpt lat="40.17190963" lon="-5.12269921"><ele>1112</ele><speed>3.90</speed><time>2017-04-09T12:51:32Z</time><pdop>3.0</pdop><geoidheight>0.00</geoidheight><course>41.0</course><type>1</type></trkpt>
      <trkpt lat="40.17202635" lon="-5.12273464"><ele>1109</ele><speed>9.00</speed><time>2017-04-09T12:51:34Z</time><pdop>3.0</pdop><geoidheight>0.00</geoidheight><course>329.7</course><type>1</type></trkpt>
      <trkpt lat="40.17210149" lon="-5.12282093"><ele>1107</ele><speed>12.13</speed><time>2017-04-09T12:51:35Z</time><pdop>3.0</pdop><geoidheight>0.00</geoidheight><course>311.7</course><type>1</type></trkpt>
      <trkpt lat="40.1721592" lon="-5.12295905"><ele>1106</ele><speed>14.38</speed><time>2017-04-09T12:51:36Z</time><pdop>3.0</pdop><geoidheight>0.00</geoidheight><course>294.8</course><type>1</type></trkpt>
      <trkpt lat="40.17219843" lon="-5.12313239"><ele>1105</ele><speed>15.90</speed><time>2017-04-09T12:51:37Z</time><pdop>3.0</pdop><geoidheight>0.00</geoidheight><course>281.9</course><type>1</type></trkpt>
      <trkpt lat="40.17221628" lon="-5.12332544"><ele>1105</ele><speed>16.40</speed><time>2017-04-09T12:51:38Z</time><pdop>3.0</pdop><geoidheight>0.00</geoidheight><course>274.9</course><type>1</type></trkpt>
      <trkpt lat="40.17222273" lon="-5.12351494"><ele>1106</ele><speed>15.59</speed><time>2017-04-09T12:51:39Z</time><pdop>3.0</pdop><geoidheight>0.00</geoidheight><course>271.1</course><type>1</type></trkpt>
      <trkpt lat="40.17222607" lon="-5.12368358"><ele>1108</ele><speed>14.07</speed><time>2017-04-09T12:51:40Z</time><pdop>3.0</pdop><geoidheight>0.00</geoidheight><course>271.2</course><type>1</type></trkpt>
      <trkpt lat="40.17224309" lon="-5.12385456"><ele>1109</ele><speed>13.95</speed><time>2017-04-09T12:51:41Z</time><pdop>3.0</pdop><geoidheight>0.00</geoidheight><course>275.5</course><type>1</type></trkpt>
      <trkpt lat="40.17226489" lon="-5.12399563"><ele>1108</ele><speed>14.05</speed><time>2017-04-09T12:51:42Z</time><pdop>3.0</pdop><geoidheight>0.00</geoidheight><course>277.5</course><type>1</type></trkpt>
      <trkpt lat="40.17227704" lon="-5.12415535"><ele>1109</ele><speed>13.92</speed><time>2017-04-09T12:51:43Z</time><pdop>3.0</pdop><geoidheight>0.00</geoidheight><course>276.4</course><type>1</type></trkpt>
      <trkpt lat="40.17228373" lon="-5.12431153"><ele>1109</ele><speed>12.84</speed><time>2017-04-09T12:51:44Z</time><pdop>3.0</pdop><geoidheight>0.00</geoidheight><course>272.1</course><type>1</type></trkpt>
      <trkpt lat="40.17230451" lon="-5.12444696"><ele>1112</ele><speed>13.37</speed><time>2017-04-09T12:51:45Z</time><pdop>3.0</pdop><geoidheight>0.00</geoidheight><course>270.5</course><type>1</type></trkpt>
      <trkpt lat="40.17229376" lon="-5.12461617"><ele>1112</ele><speed>14.05</speed><time>2017-04-09T12:51:46Z</time><pdop>3.0</pdop><geoidheight>0.00</geoidheight><course>265.2</course><type>1</type></trkpt>
      <trkpt lat="40.17228558" lon="-5.12478934"><ele>1113</ele><speed>14.94</speed><time>2017-04-09T12:51:47Z</time><pdop>3.0</pdop><geoidheight>0.00</geoidheight><course>261.1</course><type>1</type></trkpt>
      <trkpt lat="40.17225226" lon="-5.12497218"><ele>1113</ele><speed>15.31</speed><time>2017-04-09T12:51:48Z</time><pdop>3.0</pdop><geoidheight>0.00</geoidheight><course>255.7</course><type>1</type></trkpt>
      <trkpt lat="40.17221355" lon="-5.12513743"><ele>1113</ele><speed>14.65</speed><time>2017-04-09T12:51:49Z</time><pdop>3.0</pdop><geoidheight>0.00</geoidheight><course>247.9</course><type>1</type></trkpt>
      <trkpt lat="40.17214764" lon="-5.12528864"><ele>1114</ele><speed>14.18</speed><time>2017-04-09T12:51:50Z</time><pdop>3.0</pdop><geoidheight>0.00</geoidheight><course>235.4</course><type>1</type></trkpt>
      <trkpt lat="40.17206397" lon="-5.12540756"><ele>1116</ele><speed>13.11</speed><time>2017-04-09T12:51:51Z</time><pdop>3.0</pdop><geoidheight>0.00</geoidheight><course>220.3</course><type>1</type></trkpt>
      <trkpt lat="40.17198086" lon="-5.12548423"><ele>1116</ele><speed>12.18</speed><time>2017-04-09T12:51:52Z</time><pdop>3.0</pdop><geoidheight>0.00</geoidheight><course>204.5</course><type>1</type></trkpt>
      <trkpt lat="40.17189153" lon="-5.12552977"><ele>1118</ele><speed>10.78</speed><time>2017-04-09T12:51:53Z</time><pdop>3.0</pdop><geoidheight>0.00</geoidheight><course>193.6</course><type>1</type></trkpt>
      <trkpt lat="40.17180186" lon="-5.1255555"><ele>1119</ele><speed>9.23</speed><time>2017-04-09T12:51:54Z</time><pdop>3.0</pdop><geoidheight>0.00</geoidheight><course>182.5</course><type>1</type></trkpt>
      <trkpt lat="40.17172695" lon="-5.12555138"><ele>1120</ele><speed>7.70</speed><time>2017-04-09T12:51:55Z</time><pdop>3.0</pdop><geoidheight>0.00</geoidheight><course>165.4</course><type>1</type></trkpt>
      <trkpt lat="40.17166202" lon="-5.12552478"><ele>1121</ele><speed>6.96</speed><time>2017-04-09T12:51:56Z</time><pdop>4.0</pdop><geoidheight>0.00</geoidheight><course>145.5</course><type>1</type></trkpt>
      <trkpt lat="40.17159862" lon="-5.12542929"><ele>1124</ele><speed>3.91</speed><time>2017-04-09T12:51:58Z</time><pdop>4.0</pdop><geoidheight>0.00</geoidheight><course>95.8</course><type>1</type></trkpt>
      <trkpt lat="40.17163863" lon="-5.12536084"><ele>1124</ele><speed>5.74</speed><time>2017-04-09T12:52:00Z</time><pdop>3.0</pdop><geoidheight>0.00</geoidheight><course>17.1</course><type>1</type></trkpt>
      <trkpt lat="40.17170825" lon="-5.1253675"><ele>1123</ele><speed>8.39</speed><time>2017-04-09T12:52:01Z</time><pdop>4.0</pdop><geoidheight>0.00</geoidheight><course>355.9</course><type>1</type></trkpt>
      <trkpt lat="40.17178843" lon="-5.12538603"><ele>1123</ele><speed>10.23</speed><time>2017-04-09T12:52:02Z</time><pdop>3.0</pdop><geoidheight>0.00</geoidheight><course>337.4</course><type>1</type></trkpt>
      <trkpt lat="40.1718636" lon="-5.12546707"><ele>1124</ele><speed>11.73</speed><time>2017-04-09T12:52:03Z</time><pdop>3.0</pdop><geoidheight>0.00</geoidheight><course>316.1</course><type>1</type></trkpt>
      <trkpt lat="40.17192122" lon="-5.12558644"><ele>1125</ele><speed>12.80</speed><time>2017-04-09T12:52:04Z</time><pdop>3.0</pdop><geoidheight>0.00</geoidheight><course>297.2</course><type>1</type></trkpt>
      <trkpt lat="40.17196261" lon="-5.12573206"><ele>1126</ele><speed>13.39</speed><time>2017-04-09T12:52:05Z</time><pdop>3.0</pdop><geoidheight>0.00</geoidheight><course>285.4</course><type>1</type></trkpt>
      <trkpt lat="40.1719869" lon="-5.12588065"><ele>1127</ele><speed>13.54</speed><time>2017-04-09T12:52:06Z</time><pdop>3.0</pdop><geoidheight>0.00</geoidheight><course>280.9</course><type>1</type></trkpt>
      <trkpt lat="40.17201204" lon="-5.12603924"><ele>1128</ele><speed>13.40</speed><time>2017-04-09T12:52:07Z</time><pdop>3.0</pdop><geoidheight>0.00</geoidheight><course>280.7</course><type>1</type></trkpt>
      <trkpt lat="40.17203716" lon="-5.12619038"><ele>1127</ele><speed>13.83</speed><time>2017-04-09T12:52:08Z</time><pdop>3.0</pdop><geoidheight>0.00</geoidheight><course>278.8</course><type>1</type></trkpt>
      <trkpt lat="40.17205251" lon="-5.12635971"><ele>1128</ele><speed>14.25</speed><time>2017-04-09T12:52:09Z</time><pdop>3.0</pdop><geoidheight>0.00</geoidheight><course>267.7</course><type>1</type></trkpt>
      <trkpt lat="40.17205136" lon="-5.12652845"><ele>1128</ele><speed>14.54</speed><time>2017-04-09T12:52:10Z</time><pdop>3.0</pdop><geoidheight>0.00</geoidheight><course>268.7</course><type>1</type></trkpt>
      <trkpt lat="40.17204067" lon="-5.12669179"><ele>1128</ele><speed>13.77</speed><time>2017-04-09T12:52:11Z</time><pdop>3.0</pdop><geoidheight>0.00</geoidheight><course>263.4</course><type>1</type></trkpt>
      <trkpt lat="40.17202693" lon="-5.12685482"><ele>1129</ele><speed>13.83</speed><time>2017-04-09T12:52:12Z</time><pdop>3.0</pdop><geoidheight>0.00</geoidheight><course>263.1</course><type>1</type></trkpt>
      <trkpt lat="40.17200783" lon="-5.12701442"><ele>1131</ele><speed>13.66</speed><time>2017-04-09T12:52:13Z</time><pdop>3.0</pdop><geoidheight>0.00</geoidheight><course>257.9</course><type>1</type></trkpt>
      <trkpt lat="40.17198156" lon="-5.12716666"><ele>1131</ele><speed>14.39</speed><time>2017-04-09T12:52:14Z</time><pdop>3.0</pdop><geoidheight>0.00</geoidheight><course>253.9</course><type>1</type></trkpt>
      <trkpt lat="40.17193067" lon="-5.12733197"><ele>1131</ele><speed>15.09</speed><time>2017-04-09T12:52:15Z</time><pdop>3.0</pdop><geoidheight>0.00</geoidheight><course>243.2</course><type>1</type></trkpt>
      <trkpt lat="40.17185632" lon="-5.12746673"><ele>1133</ele><speed>14.55</speed><time>2017-04-09T12:52:16Z</time><pdop>3.0</pdop><geoidheight>0.00</geoidheight><course>227.8</course><type>1</type></trkpt>
      <trkpt lat="40.17175445" lon="-5.12758017"><ele>1133</ele><speed>13.34</speed><time>2017-04-09T12:52:17Z</time><pdop>3.0</pdop><geoidheight>0.00</geoidheight><course>207.8</course><type>1</type></trkpt>
      <trkpt lat="40.17164578" lon="-5.12762022"><ele>1132</ele><speed>12.14</speed><time>2017-04-09T12:52:18Z</time><pdop>3.0</pdop><geoidheight>0.00</geoidheight><course>184.7</course><type>1</type></trkpt>
      <trkpt lat="40.17154559" lon="-5.12759241"><ele>1131</ele><speed>11.01</speed><time>2017-04-09T12:52:19Z</time><pdop>3.0</pdop><geoidheight>0.00</geoidheight><course>166.9</course><type>1</type></trkpt>
      <trkpt lat="40.17146457" lon="-5.12755851"><ele>1131</ele><speed>9.25</speed><time>2017-04-09T12:52:20Z</time><pdop>3.0</pdop><geoidheight>0.00</geoidheight><course>154.3</course><type>1</type></trkpt>
      <trkpt lat="40.17139784" lon="-5.12752691"><ele>1131</ele><speed>7.49</speed><time>2017-04-09T12:52:21Z</time><pdop>3.0</pdop><geoidheight>0.00</geoidheight><course>144.3</course><type>1</type></trkpt>
      <trkpt lat="40.1713461" lon="-5.12747497"><ele>1131</ele><speed>6.89</speed><time>2017-04-09T12:52:22Z</time><pdop>3.0</pdop><geoidheight>0.00</geoidheight><course>134.0</course><type>1</type></trkpt>
      <trkpt lat="40.17130704" lon="-5.12740962"><ele>1130</ele><speed>7.37</speed><time>2017-04-09T12:52:23Z</time><pdop>3.0</pdop><geoidheight>0.00</geoidheight><course>121.8</course><type>1</type></trkpt>
      <trkpt lat="40.17128283" lon="-5.12732721"><ele>1128</ele><speed>8.04</speed><time>2017-04-09T12:52:24Z</time><pdop>3.0</pdop><geoidheight>0.00</geoidheight><course>107.4</course><type>1</type></trkpt>
      <trkpt lat="40.17127041" lon="-5.12722866"><ele>1127</ele><speed>7.92</speed><time>2017-04-09T12:52:25Z</time><pdop>3.0</pdop><geoidheight>0.00</geoidheight><course>83.1</course><type>1</type></trkpt>
      <trkpt lat="40.1712962" lon="-5.12715243"><ele>1128</ele><speed>6.81</speed><time>2017-04-09T12:52:26Z</time><pdop>3.0</pdop><geoidheight>0.00</geoidheight><course>58.9</course><type>1</type></trkpt>
      <trkpt lat="40.17136701" lon="-5.12707375"><ele>1132</ele><speed>3.93</speed><time>2017-04-09T12:52:28Z</time><pdop>3.0</pdop><geoidheight>0.00</geoidheight><course>32.7</course><type>1</type></trkpt>
      <trkpt lat="40.17141615" lon="-5.12700498"><ele>1133</ele><speed>4.17</speed><time>2017-04-09T12:52:30Z</time><pdop>3.0</pdop><geoidheight>0.00</geoidheight><course>51.6</course><type>1</type></trkpt>
      <trkpt lat="40.17151873" lon="-5.12694253"><ele>1131</ele><speed>8.08</speed><time>2017-04-09T12:52:32Z</time><pdop>3.0</pdop><geoidheight>0.00</geoidheight><course>6.4</course><type>1</type></trkpt>
      <trkpt lat="40.17160553" lon="-5.12696069"><ele>1131</ele><speed>10.56</speed><time>2017-04-09T12:52:33Z</time><pdop>3.0</pdop><geoidheight>0.00</geoidheight><course>343.0</course><type>1</type></trkpt>
      <trkpt lat="40.17169302" lon="-5.12703649"><ele>1132</ele><speed>12.52</speed><time>2017-04-09T12:52:34Z</time><pdop>3.0</pdop><geoidheight>0.00</geoidheight><course>321.1</course><type>1</type></trkpt>
      <trkpt lat="40.17176948" lon="-5.12715587"><ele>1134</ele><speed>13.58</speed><time>2017-04-09T12:52:35Z</time><pdop>3.0</pdop><geoidheight>0.00</geoidheight><course>302.5</course><type>1</type></trkpt>
      <trkpt lat="40.17184387" lon="-5.1274792"><ele>1135</ele><speed>14.73</speed><time>2017-04-09T12:52:37Z</time><pdop>3.0</pdop><geoidheight>0.00</geoidheight><course>278.6</course><type>1</type></trkpt>
      <trkpt lat="40.17185433" lon="-5.12765076"><ele>1135</ele><speed>15.02</speed><time>2017-04-09T12:52:38Z</time><pdop>3.0</pdop><geoidheight>0.00</geoidheight><course>272.7</course><type>1</type></trkpt>
      <trkpt lat="40.17186393" lon="-5.12782753"><ele>1134</ele><speed>15.54</speed><time>2017-04-09T12:52:39Z</time><pdop>3.0</pdop><geoidheight>0.00</geoidheight><course>270.8</course><type>1</type></trkpt>
      <trkpt lat="40.17185637" lon="-5.12802077"><ele>1132</ele><speed>16.26</speed><time>2017-04-09T12:52:40Z</time><pdop>3.0</pdop><geoidheight>0.00</geoidheight><course>268.7</course><type>1</type></trkpt>
      <trkpt lat="40.17184987" lon="-5.12820805"><ele>1132</ele><speed>16.89</speed><time>2017-04-09T12:52:41Z</time><pdop>3.0</pdop><geoidheight>0.00</geoidheight><course>266.3</course><type>1</type></trkpt>
      <trkpt lat="40.17183885" lon="-5.12839213"><ele>1132</ele><speed>17.01</speed><time>2017-04-09T12:52:42Z</time><pdop>3.0</pdop><geoidheight>0.00</geoidheight><course>263.3</course><type>1</type></trkpt>
      <trkpt lat="40.17182077" lon="-5.12859574"><ele>1132</ele><speed>16.73</speed><time>2017-04-09T12:52:43Z</time><pdop>3.0</pdop><geoidheight>0.00</geoidheight><course>261.5</course><type>1</type></trkpt>
      <trkpt lat="40.1718007" lon="-5.12878586"><ele>1132</ele><speed>16.37</speed><time>2017-04-09T12:52:44Z</time><pdop>3.0</pdop><geoidheight>0.00</geoidheight><course>260.0</course><type>1</type></trkpt>
      <trkpt lat="40.17176844" lon="-5.12898018"><ele>1132</ele><speed>16.32</speed><time>2017-04-09T12:52:45Z</time><pdop>3.0</pdop><geoidheight>0.00</geoidheight><course>255.2</course><type>1</type></trkpt>
      <trkpt lat="40.17172256" lon="-5.12916614"><ele>1131</ele><speed>16.37</speed><time>2017-04-09T12:52:46Z</time><pdop>4.0</pdop><geoidheight>0.00</geoidheight><course>250.6</course><type>1</type></trkpt>
      <trkpt lat="40.17168035" lon="-5.12935682"><ele>1130</ele><speed>16.69</speed><time>2017-04-09T12:52:47Z</time><pdop>4.0</pdop><geoidheight>0.00</geoidheight><course>254.2</course><type>1</type></trkpt>
      <trkpt lat="40.17163565" lon="-5.12954697"><ele>1130</ele><speed>17.06</speed><time>2017-04-09T12:52:48Z</time><pdop>4.0</pdop><geoidheight>0.00</geoidheight><course>250.5</course><type>1</type></trkpt>
      <trkpt lat="40.17156941" lon="-5.12972796"><ele>1130</ele><speed>16.66</speed><time>2017-04-09T12:52:49Z</time><pdop>4.0</pdop><geoidheight>0.00</geoidheight><course>245.9</course><type>1</type></trkpt>
      <trkpt lat="40.17153398" lon="-5.12990227"><ele>1130</ele><speed>14.85</speed><time>2017-04-09T12:52:50Z</time><pdop>4.0</pdop><geoidheight>0.00</geoidheight><course>252.3</course><type>1</type></trkpt>
      <trkpt lat="40.17150679" lon="-5.13006068"><ele>1130</ele><speed>13.57</speed><time>2017-04-09T12:52:51Z</time><pdop>4.0</pdop><geoidheight>0.00</geoidheight><course>260.5</course><type>1</type></trkpt>
      <trkpt lat="40.17150639" lon="-5.13021424"><ele>1129</ele><speed>12.93</speed><time>2017-04-09T12:52:52Z</time><pdop>4.0</pdop><geoidheight>0.00</geoidheight><course>266.1</course><type>1</type></trkpt>
      <trkpt lat="40.17150223" lon="-5.13036351"><ele>1126</ele><speed>12.88</speed><time>2017-04-09T12:52:53Z</time><pdop>4.0</pdop><geoidheight>0.00</geoidheight><course>265.0</course><type>1</type></trkpt>
      <trkpt lat="40.17148477" lon="-5.1305254"><ele>1125</ele><speed>13.86</speed><time>2017-04-09T12:52:54Z</time><pdop>4.0</pdop><geoidheight>0.00</geoidheight><course>261.0</course><type>1</type></trkpt>
      <trkpt lat="40.17146861" lon="-5.13069191"><ele>1121</ele><speed>14.86</speed><time>2017-04-09T12:52:55Z</time><pdop>4.0</pdop><geoidheight>0.00</geoidheight><course>260.0</course><type>1</type></trkpt>
      <trkpt lat="40.17145358" lon="-5.13086957"><ele>1120</ele><speed>15.27</speed><time>2017-04-09T12:52:56Z</time><pdop>4.0</pdop><geoidheight>0.00</geoidheight><course>261.8</course><type>1</type></trkpt>
      <trkpt lat="40.17144851" lon="-5.1310502"><ele>1116</ele><speed>14.95</speed><time>2017-04-09T12:52:57Z</time><pdop>4.0</pdop><geoidheight>0.00</geoidheight><course>261.5</course><type>1</type></trkpt>
      <trkpt lat="40.17142463" lon="-5.1312107"><ele>1113</ele><speed>14.63</speed><time>2017-04-09T12:52:58Z</time><pdop>4.0</pdop><geoidheight>0.00</geoidheight><course>260.3</course><type>1</type></trkpt>
      <trkpt lat="40.17140082" lon="-5.131382"><ele>1111</ele><speed>15.05</speed><time>2017-04-09T12:52:59Z</time><pdop>4.0</pdop><geoidheight>0.00</geoidheight><course>258.0</course><type>1</type></trkpt>
      <trkpt lat="40.17136765" lon="-5.13156458"><ele>1109</ele><speed>16.08</speed><time>2017-04-09T12:53:00Z</time><pdop>3.0</pdop><geoidheight>0.00</geoidheight><course>253.0</course><type>1</type></trkpt>
      <trkpt lat="40.17131849" lon="-5.13174056"><ele>1107</ele><speed>16.24</speed><time>2017-04-09T12:53:01Z</time><pdop>3.0</pdop><geoidheight>0.00</geoidheight><course>248.6</course><type>1</type></trkpt>
      <trkpt lat="40.1712735" lon="-5.13191677"><ele>1107</ele><speed>15.48</speed><time>2017-04-09T12:53:02Z</time><pdop>3.0</pdop><geoidheight>0.00</geoidheight><course>248.9</course><type>1</type></trkpt>
      <trkpt lat="40.17123034" lon="-5.13208578"><ele>1106</ele><speed>14.59</speed><time>2017-04-09T12:53:03Z</time><pdop>3.0</pdop><geoidheight>0.00</geoidheight><course>252.6</course><type>1</type></trkpt>
      <trkpt lat="40.17119627" lon="-5.13224137"><ele>1105</ele><speed>14.33</speed><time>2017-04-09T12:53:04Z</time><pdop>3.0</pdop><geoidheight>0.00</geoidheight><course>255.7</course><type>1</type></trkpt>
      <trkpt lat="40.17115762" lon="-5.13240826"><ele>1103</ele><speed>14.86</speed><time>2017-04-09T12:53:05Z</time><pdop>3.0</pdop><geoidheight>0.00</geoidheight><course>257.1</course><type>1</type></trkpt>
      <trkpt lat="40.1711237" lon="-5.1325755"><ele>1101</ele><speed>15.32</speed><time>2017-04-09T12:53:06Z</time><pdop>3.0</pdop><geoidheight>0.00</geoidheight><course>256.3</course><type>1</type></trkpt>
      <trkpt lat="40.17109727" lon="-5.13275492"><ele>1100</ele><speed>15.57</speed><time>2017-04-09T12:53:07Z</time><pdop>3.0</pdop><geoidheight>0.00</geoidheight><course>259.3</course><type>1</type></trkpt>
      <trkpt lat="40.17106199" lon="-5.13293607"><ele>1098</ele><speed>15.97</speed><time>2017-04-09T12:53:08Z</time><pdop>3.0</pdop><geoidheight>0.00</geoidheight><course>257.4</course><type>1</type></trkpt>
      <trkpt lat="40.17102472" lon="-5.13312309"><ele>1094</ele><speed>16.94</speed><time>2017-04-09T12:53:09Z</time><pdop>3.0</pdop><geoidheight>0.00</geoidheight><course>253.1</course><type>1</type></trkpt>
      <trkpt lat="40.1709641" lon="-5.13332072"><ele>1090</ele><speed>18.07</speed><time>2017-04-09T12:53:10Z</time><pdop>3.0</pdop><geoidheight>0.00</geoidheight><course>248.1</course><type>1</type></trkpt>
      <trkpt lat="40.17088108" lon="-5.13351406"><ele>1087</ele><speed>19.04</speed><time>2017-04-09T12:53:11Z</time><pdop>3.0</pdop><geoidheight>0.00</geoidheight><course>245.4</course><type>1</type></trkpt>
      <trkpt lat="40.17081034" lon="-5.13372482"><ele>1086</ele><speed>18.97</speed><time>2017-04-09T12:53:12Z</time><pdop>3.0</pdop><geoidheight>0.00</geoidheight><course>246.1</course><type>1</type></trkpt>
      <trkpt lat="40.17075022" lon="-5.13392509"><ele>1087</ele><speed>17.82</speed><time>2017-04-09T12:53:13Z</time><pdop>3.0</pdop><geoidheight>0.00</geoidheight><course>248.5</course><type>1</type></trkpt>
      <trkpt lat="40.17070427" lon="-5.13410932"><ele>1087</ele><speed>15.94</speed><time>2017-04-09T12:53:14Z</time><pdop>3.0</pdop><geoidheight>0.00</geoidheight><course>248.7</course><type>1</type></trkpt>
      <trkpt lat="40.17065869" lon="-5.13428715"><ele>1087</ele><speed>15.17</speed><time>2017-04-09T12:53:15Z</time><pdop>3.0</pdop><geoidheight>0.00</geoidheight><course>250.5</course><type>1</type></trkpt>
      <trkpt lat="40.17061659" lon="-5.13445446"><ele>1086</ele><speed>14.82</speed><time>2017-04-09T12:53:16Z</time><pdop>3.0</pdop><geoidheight>0.00</geoidheight><course>252.0</course><type>1</type></trkpt>
      <trkpt lat="40.17058286" lon="-5.13462737"><ele>1084</ele><speed>15.18</speed><time>2017-04-09T12:53:17Z</time><pdop>3.0</pdop><geoidheight>0.00</geoidheight><course>253.6</course><type>1</type></trkpt>
      <trkpt lat="40.17054162" lon="-5.13480664"><ele>1080</ele><speed>16.27</speed><time>2017-04-09T12:53:18Z</time><pdop>3.0</pdop><geoidheight>0.00</geoidheight><course>254.2</course><type>1</type></trkpt>
      <trkpt lat="40.17049829" lon="-5.13499324"><ele>1075</ele><speed>17.68</speed><time>2017-04-09T12:53:19Z</time><pdop>3.0</pdop><geoidheight>0.00</geoidheight><course>253.1</course><type>1</type></trkpt>
      <trkpt lat="40.1704444" lon="-5.13519469"><ele>1071</ele><speed>18.68</speed><time>2017-04-09T12:53:20Z</time><pdop>3.0</pdop><geoidheight>0.00</geoidheight><course>249.6</course><type>1</type></trkpt>
      <trkpt lat="40.17038559" lon="-5.13540104"><ele>1069</ele><speed>19.14</speed><time>2017-04-09T12:53:21Z</time><pdop>3.0</pdop><geoidheight>0.00</geoidheight><course>248.8</course><type>1</type></trkpt>
      <trkpt lat="40.17033048" lon="-5.13560873"><ele>1068</ele><speed>18.27</speed><time>2017-04-09T12:53:22Z</time><pdop>3.0</pdop><geoidheight>0.00</geoidheight><course>250.7</course><type>1</type></trkpt>
      <trkpt lat="40.17027764" lon="-5.13580534"><ele>1068</ele><speed>17.29</speed><time>2017-04-09T12:53:23Z</time><pdop>3.0</pdop><geoidheight>0.00</geoidheight><course>251.6</course><type>1</type></trkpt>
      <trkpt lat="40.17023134" lon="-5.13599698"><ele>1067</ele><speed>16.54</speed><time>2017-04-09T12:53:24Z</time><pdop>3.0</pdop><geoidheight>0.00</geoidheight><course>250.1</course><type>1</type></trkpt>
      <trkpt lat="40.17017702" lon="-5.13617801"><ele>1066</ele><speed>16.20</speed><time>2017-04-09T12:53:25Z</time><pdop>3.0</pdop><geoidheight>0.00</geoidheight><course>247.5</course><type>1</type></trkpt>
      <trkpt lat="40.17012503" lon="-5.13635088"><ele>1063</ele><speed>16.68</speed><time>2017-04-09T12:53:26Z</time><pdop>3.0</pdop><geoidheight>0.00</geoidheight><course>247.2</course><type>1</type></trkpt>
      <trkpt lat="40.17006696" lon="-5.13653656"><ele>1060</ele><speed>17.56</speed><time>2017-04-09T12:53:27Z</time><pdop>3.0</pdop><geoidheight>0.00</geoidheight><course>248.5</course><type>1</type></trkpt>
      <trkpt lat="40.17001033" lon="-5.13673661"><ele>1058</ele><speed>18.20</speed><time>2017-04-09T12:53:28Z</time><pdop>3.0</pdop><geoidheight>0.00</geoidheight><course>250.0</course><type>1</type></trkpt>
      <trkpt lat="40.16994883" lon="-5.13693304"><ele>1056</ele><speed>17.84</speed><time>2017-04-09T12:53:29Z</time><pdop>3.0</pdop><geoidheight>0.00</geoidheight><course>249.3</course><type>1</type></trkpt>
      <trkpt lat="40.16988847" lon="-5.13711988"><ele>1054</ele><speed>17.07</speed><time>2017-04-09T12:53:30Z</time><pdop>3.0</pdop><geoidheight>0.00</geoidheight><course>246.9</course><type>1</type></trkpt>
      <trkpt lat="40.16982624" lon="-5.13730253"><ele>1051</ele><speed>16.56</speed><time>2017-04-09T12:53:31Z</time><pdop>3.0</pdop><geoidheight>0.00</geoidheight><course>244.4</course><type>1</type></trkpt>
      <trkpt lat="40.16976217" lon="-5.13747893"><ele>1048</ele><speed>16.68</speed><time>2017-04-09T12:53:32Z</time><pdop>3.0</pdop><geoidheight>0.00</geoidheight><course>243.9</course><type>1</type></trkpt>
      <trkpt lat="40.16969374" lon="-5.13765691"><ele>1044</ele><speed>17.13</speed><time>2017-04-09T12:53:33Z</time><pdop>3.0</pdop><geoidheight>0.00</geoidheight><course>245.5</course><type>1</type></trkpt>
      <trkpt lat="40.16963506" lon="-5.13784145"><ele>1041</ele><speed>17.51</speed><time>2017-04-09T12:53:34Z</time><pdop>3.0</pdop><geoidheight>0.00</geoidheight><course>246.9</course><type>1</type></trkpt>
      <trkpt lat="40.16957107" lon="-5.13802547"><ele>1038</ele><speed>17.52</speed><time>2017-04-09T12:53:35Z</time><pdop>3.0</pdop><geoidheight>0.00</geoidheight><course>245.3</course><type>1</type></trkpt>
      <trkpt lat="40.16949809" lon="-5.13820417"><ele>1035</ele><speed>17.44</speed><time>2017-04-09T12:53:36Z</time><pdop>3.0</pdop><geoidheight>0.00</geoidheight><course>242.7</course><type>1</type></trkpt>
      <trkpt lat="40.16942225" lon="-5.13838441"><ele>1032</ele><speed>17.56</speed><time>2017-04-09T12:53:37Z</time><pdop>3.0</pdop><geoidheight>0.00</geoidheight><course>243.7</course><type>1</type></trkpt>
      <trkpt lat="40.16935166" lon="-5.13856694"><ele>1029</ele><speed>17.19</speed><time>2017-04-09T12:53:38Z</time><pdop>3.0</pdop><geoidheight>0.00</geoidheight><course>244.4</course><type>1</type></trkpt>
      <trkpt lat="40.16928211" lon="-5.13874448"><ele>1027</ele><speed>16.94</speed><time>2017-04-09T12:53:39Z</time><pdop>3.0</pdop><geoidheight>0.00</geoidheight><course>244.2</course><type>1</type></trkpt>
      <trkpt lat="40.16921587" lon="-5.13891609"><ele>1025</ele><speed>16.37</speed><time>2017-04-09T12:53:40Z</time><pdop>3.0</pdop><geoidheight>0.00</geoidheight><course>241.5</course><type>1</type></trkpt>
      <trkpt lat="40.16914651" lon="-5.13908949"><ele>1022</ele><speed>16.33</speed><time>2017-04-09T12:53:41Z</time><pdop>3.0</pdop><geoidheight>0.00</geoidheight><course>241.6</course><type>1</type></trkpt>
      <trkpt lat="40.16907711" lon="-5.13926639"><ele>1018</ele><speed>17.01</speed><time>2017-04-09T12:53:42Z</time><pdop>3.0</pdop><geoidheight>0.00</geoidheight><course>242.9</course><type>1</type></trkpt>
      <trkpt lat="40.1690021" lon="-5.13944859"><ele>1014</ele><speed>17.81</speed><time>2017-04-09T12:53:43Z</time><pdop>3.0</pdop><geoidheight>0.00</geoidheight><course>241.7</course><type>1</type></trkpt>
      <trkpt lat="40.16892186" lon="-5.13963664"><ele>1011</ele><speed>18.31</speed><time>2017-04-09T12:53:44Z</time><pdop>3.0</pdop><geoidheight>0.00</geoidheight><course>239.6</course><type>1</type></trkpt>
      <trkpt lat="40.16883243" lon="-5.13982167"><ele>1008</ele><speed>18.45</speed><time>2017-04-09T12:53:45Z</time><pdop>3.0</pdop><geoidheight>0.00</geoidheight><course>237.3</course><type>1</type></trkpt>
      <trkpt lat="40.16874385" lon="-5.1399945"><ele>1006</ele><speed>17.64</speed><time>2017-04-09T12:53:46Z</time><pdop>3.0</pdop><geoidheight>0.00</geoidheight><course>235.3</course><type>1</type></trkpt>
      <trkpt lat="40.16864725" lon="-5.14016267"><ele>1006</ele><speed>16.47</speed><time>2017-04-09T12:53:47Z</time><pdop>3.0</pdop><geoidheight>0.00</geoidheight><course>232.9</course><type>1</type></trkpt>
      <trkpt lat="40.16856178" lon="-5.14030816"><ele>1006</ele><speed>15.26</speed><time>2017-04-09T12:53:48Z</time><pdop>3.0</pdop><geoidheight>0.00</geoidheight><course>231.1</course><type>1</type></trkpt>
      <trkpt lat="40.16848087" lon="-5.14043826"><ele>1006</ele><speed>14.62</speed><time>2017-04-09T12:53:49Z</time><pdop>3.0</pdop><geoidheight>0.00</geoidheight><course>232.8</course><type>1</type></trkpt>
      <trkpt lat="40.1684048" lon="-5.14057391"><ele>1005</ele><speed>14.35</speed><time>2017-04-09T12:53:50Z</time><pdop>3.0</pdop><geoidheight>0.00</geoidheight><course>235.9</course><type>1</type></trkpt>
      <trkpt lat="40.16833764" lon="-5.14071866"><ele>1003</ele><speed>14.75</speed><time>2017-04-09T12:53:51Z</time><pdop>3.0</pdop><geoidheight>0.00</geoidheight><course>239.4</course><type>1</type></trkpt>
      <trkpt lat="40.168274" lon="-5.14087156"><ele>1002</ele><speed>15.30</speed><time>2017-04-09T12:53:52Z</time><pdop>3.0</pdop><geoidheight>0.00</geoidheight><course>240.4</course><type>1</type></trkpt>
      <trkpt lat="40.16819969" lon="-5.14103209"><ele>999</ele><speed>16.12</speed><time>2017-04-09T12:53:53Z</time><pdop>3.0</pdop><geoidheight>0.00</geoidheight><course>241.4</course><type>1</type></trkpt>
      <trkpt lat="40.16813129" lon="-5.14120601"><ele>998</ele><speed>16.87</speed><time>2017-04-09T12:53:54Z</time><pdop>3.0</pdop><geoidheight>0.00</geoidheight><course>241.6</course><type>1</type></trkpt>
      <trkpt lat="40.16805391" lon="-5.14137971"><ele>997</ele><speed>16.69</speed><time>2017-04-09T12:53:55Z</time><pdop>3.0</pdop><geoidheight>0.00</geoidheight><course>239.5</course><type>1</type></trkpt>
      <trkpt lat="40.16798149" lon="-5.14154867"><ele>999</ele><speed>15.66</speed><time>2017-04-09T12:53:56Z</time><pdop>3.0</pdop><geoidheight>0.00</geoidheight><course>240.0</course><type>1</type></trkpt>
      <trkpt lat="40.16791576" lon="-5.1416975"><ele>997</ele><speed>15.05</speed><time>2017-04-09T12:53:57Z</time><pdop>3.0</pdop><geoidheight>0.00</geoidheight><course>242.2</course><type>1</type></trkpt>
      <trkpt lat="40.1678545" lon="-5.14185981"><ele>995</ele><speed>15.30</speed><time>2017-04-09T12:53:58Z</time><pdop>3.0</pdop><geoidheight>0.00</geoidheight><course>244.3</course><type>1</type></trkpt>
      <trkpt lat="40.16778344" lon="-5.1420208"><ele>992</ele><speed>16.90</speed><time>2017-04-09T12:53:59Z</time><pdop>3.0</pdop><geoidheight>0.00</geoidheight><course>242.7</course><type>1</type></trkpt>
      <trkpt lat="40.16770305" lon="-5.14220118"><ele>989</ele><speed>18.07</speed><time>2017-04-09T12:54:00Z</time><pdop>3.0</pdop><geoidheight>0.00</geoidheight><course>242.3</course><type>1</type></trkpt>
      <trkpt lat="40.16763589" lon="-5.14240279"><ele>987</ele><speed>17.74</speed><time>2017-04-09T12:54:01Z</time><pdop>3.0</pdop><geoidheight>0.00</geoidheight><course>246.1</course><type>1</type></trkpt>
      <trkpt lat="40.16756677" lon="-5.14258692"><ele>986</ele><speed>16.95</speed><time>2017-04-09T12:54:02Z</time><pdop>3.0</pdop><geoidheight>0.00</geoidheight><course>244.9</course><type>1</type></trkpt>
      <trkpt lat="40.16750844" lon="-5.14276142"><ele>985</ele><speed>16.14</speed><time>2017-04-09T12:54:03Z</time><pdop>3.0</pdop><geoidheight>0.00</geoidheight><course>243.8</course><type>1</type></trkpt>
      <trkpt lat="40.16744229" lon="-5.14292665"><ele>984</ele><speed>15.68</speed><time>2017-04-09T12:54:04Z</time><pdop>3.0</pdop><geoidheight>0.00</geoidheight><course>241.8</course><type>1</type></trkpt>
      <trkpt lat="40.16736795" lon="-5.14308563"><ele>981</ele><speed>16.35</speed><time>2017-04-09T12:54:05Z</time><pdop>3.0</pdop><geoidheight>0.00</geoidheight><course>241.1</course><type>1</type></trkpt>
      <trkpt lat="40.16729629" lon="-5.14326162"><ele>987</ele><speed>17.83</speed><time>2017-04-09T12:54:06Z</time><pdop>3.0</pdop><geoidheight>0.00</geoidheight><course>241.1</course><type>1</type></trkpt>
      <trkpt lat="40.16721927" lon="-5.14345974"><ele>980</ele><speed>18.86</speed><time>2017-04-09T12:54:07Z</time><pdop>3.0</pdop><geoidheight>0.00</geoidheight><course>241.5</course><type>1</type></trkpt>
      <trkpt lat="40.1671453" lon="-5.14364435"><ele>977</ele><speed>18.75</speed><time>2017-04-09T12:54:08Z</time><pdop>3.0</pdop><geoidheight>0.00</geoidheight><course>243.0</course><type>1</type></trkpt>
      <trkpt lat="40.16707227" lon="-5.14383378"><ele>975</ele><speed>17.99</speed><time>2017-04-09T12:54:09Z</time><pdop>3.0</pdop><geoidheight>0.00</geoidheight><course>245.3</course><type>1</type></trkpt>
      <trkpt lat="40.16700609" lon="-5.14402037"><ele>975</ele><speed>16.83</speed><time>2017-04-09T12:54:10Z</time><pdop>3.0</pdop><geoidheight>0.00</geoidheight><course>245.7</course><type>1</type></trkpt>
      <trkpt lat="40.16694581" lon="-5.14419432"><ele>975</ele><speed>15.75</speed><time>2017-04-09T12:54:11Z</time><pdop>3.0</pdop><geoidheight>0.00</geoidheight><course>244.2</course><type>1</type></trkpt>
      <trkpt lat="40.16689087" lon="-5.144354"><ele>974</ele><speed>14.57</speed><time>2017-04-09T12:54:12Z</time><pdop>3.0</pdop><geoidheight>0.00</geoidheight><course>247.8</course><type>1</type></trkpt>
      <trkpt lat="40.1668503" lon="-5.14451593"><ele>973</ele><speed>14.04</speed><time>2017-04-09T12:54:13Z</time><pdop>3.0</pdop><geoidheight>0.00</geoidheight><course>254.0</course><type>1</type></trkpt>
      <trkpt lat="40.16681632" lon="-5.14467916"><ele>972</ele><speed>14.38</speed><time>2017-04-09T12:54:14Z</time><pdop>3.0</pdop><geoidheight>0.00</geoidheight><course>256.9</course><type>1</type></trkpt>
      <trkpt lat="40.16677895" lon="-5.14484885"><ele>970</ele><speed>15.03</speed><time>2017-04-09T12:54:15Z</time><pdop>3.0</pdop><geoidheight>0.00</geoidheight><course>253.4</course><type>1</type></trkpt>
      <trkpt lat="40.16673894" lon="-5.14502534"><ele>969</ele><speed>15.43</speed><time>2017-04-09T12:54:16Z</time><pdop>3.0</pdop><geoidheight>0.00</geoidheight><course>250.2</course><type>1</type></trkpt>
      <trkpt lat="40.1666908" lon="-5.14519791"><ele>968</ele><speed>15.33</speed><time>2017-04-09T12:54:17Z</time><pdop>3.0</pdop><geoidheight>0.00</geoidheight><course>247.7</course><type>1</type></trkpt>
      <trkpt lat="40.16663878" lon="-5.14536517"><ele>969</ele><speed>14.98</speed><time>2017-04-09T12:54:18Z</time><pdop>3.0</pdop><geoidheight>0.00</geoidheight><course>245.7</course><type>1</type></trkpt>
      <trkpt lat="40.16658221" lon="-5.14552602"><ele>968</ele><speed>14.40</speed><time>2017-04-09T12:54:19Z</time><pdop>3.0</pdop><geoidheight>0.00</geoidheight><course>245.1</course><type>1</type></trkpt>
      <trkpt lat="40.16652935" lon="-5.14567588"><ele>967</ele><speed>14.12</speed><time>2017-04-09T12:54:20Z</time><pdop>3.0</pdop><geoidheight>0.00</geoidheight><course>244.3</course><type>1</type></trkpt>
      <trkpt lat="40.16647461" lon="-5.14582813"><ele>965</ele><speed>14.64</speed><time>2017-04-09T12:54:21Z</time><pdop>3.0</pdop><geoidheight>0.00</geoidheight><course>245.4</course><type>1</type></trkpt>
      <trkpt lat="40.16641741" lon="-5.14598788"><ele>964</ele><speed>15.41</speed><time>2017-04-09T12:54:22Z</time><pdop>3.0</pdop><geoidheight>0.00</geoidheight><course>245.9</course><type>1</type></trkpt>
      <trkpt lat="40.16636038" lon="-5.14616209"><ele>964</ele><speed>16.29</speed><time>2017-04-09T12:54:23Z</time><pdop>3.0</pdop><geoidheight>0.00</geoidheight><course>247.8</course><type>1</type></trkpt>
      <trkpt lat="40.16630798" lon="-5.14633325"><ele>964</ele><speed>16.21</speed><time>2017-04-09T12:54:24Z</time><pdop>3.0</pdop><geoidheight>0.00</geoidheight><course>247.4</course><type>1</type></trkpt>
      <trkpt lat="40.16624469" lon="-5.14649495"><ele>964</ele><speed>14.84</speed><time>2017-04-09T12:54:25Z</time><pdop>3.0</pdop><geoidheight>0.00</geoidheight><course>245.6</course><type>1</type></trkpt>
      <trkpt lat="40.16619016" lon="-5.14665075"><ele>964</ele><speed>14.06</speed><time>2017-04-09T12:54:26Z</time><pdop>3.0</pdop><geoidheight>0.00</geoidheight><course>243.4</course><type>1</type></trkpt>
      <trkpt lat="40.16613284" lon="-5.14679438"><ele>964</ele><speed>14.30</speed><time>2017-04-09T12:54:27Z</time><pdop>3.0</pdop><geoidheight>0.00</geoidheight><course>239.4</course><type>1</type></trkpt>
      <trkpt lat="40.16607422" lon="-5.14694799"><ele>964</ele><speed>14.98</speed><time>2017-04-09T12:54:28Z</time><pdop>3.0</pdop><geoidheight>0.00</geoidheight><course>243.0</course><type>1</type></trkpt>
      <trkpt lat="40.16601913" lon="-5.14711219"><ele>963</ele><speed>15.33</speed><time>2017-04-09T12:54:29Z</time><pdop>3.0</pdop><geoidheight>0.00</geoidheight><course>245.0</course><type>1</type></trkpt>
      <trkpt lat="40.1659674" lon="-5.14728235"><ele>963</ele><speed>15.50</speed><time>2017-04-09T12:54:30Z</time><pdop>3.0</pdop><geoidheight>0.00</geoidheight><course>247.9</course><type>1</type></trkpt>
      <trkpt lat="40.16591271" lon="-5.14744983"><ele>963</ele><speed>15.45</speed><time>2017-04-09T12:54:31Z</time><pdop>3.0</pdop><geoidheight>0.00</geoidheight><course>248.7</course><type>1</type></trkpt>
      <trkpt lat="40.16586188" lon="-5.14762147"><ele>963</ele><speed>15.47</speed><time>2017-04-09T12:54:32Z</time><pdop>3.0</pdop><geoidheight>0.00</geoidheight><course>247.6</course><type>1</type></trkpt>
      <trkpt lat="40.16580858" lon="-5.14779353"><ele>964</ele><speed>15.54</speed><time>2017-04-09T12:54:33Z</time><pdop>3.0</pdop><geoidheight>0.00</geoidheight><course>246.9</course><type>1</type></trkpt>
      <trkpt lat="40.16575897" lon="-5.1479592"><ele>965</ele><speed>15.45</speed><time>2017-04-09T12:54:34Z</time><pdop>3.0</pdop><geoidheight>0.00</geoidheight><course>246.4</course><type>1</type></trkpt>
      <trkpt lat="40.16570334" lon="-5.14813159"><ele>965</ele><speed>15.52</speed><time>2017-04-09T12:54:35Z</time><pdop>3.0</pdop><geoidheight>0.00</geoidheight><course>244.4</course><type>1</type></trkpt>
      <trkpt lat="40.16564553" lon="-5.14829606"><ele>966</ele><speed>15.91</speed><time>2017-04-09T12:54:36Z</time><pdop>3.0</pdop><geoidheight>0.00</geoidheight><course>244.2</course><type>1</type></trkpt>
      <trkpt lat="40.16558805" lon="-5.14846729"><ele>967</ele><speed>16.29</speed><time>2017-04-09T12:54:37Z</time><pdop>3.0</pdop><geoidheight>0.00</geoidheight><course>244.6</course><type>1</type></trkpt>
      <trkpt lat="40.16552493" lon="-5.14863994"><ele>968</ele><speed>16.29</speed><time>2017-04-09T12:54:38Z</time><pdop>3.0</pdop><geoidheight>0.00</geoidheight><course>244.8</course><type>1</type></trkpt>
      <trkpt lat="40.16546368" lon="-5.14881184"><ele>970</ele><speed>16.05</speed><time>2017-04-09T12:54:39Z</time><pdop>3.0</pdop><geoidheight>0.00</geoidheight><course>246.0</course><type>1</type></trkpt>
      <trkpt lat="40.16541086" lon="-5.14897991"><ele>972</ele><speed>14.84</speed><time>2017-04-09T12:54:40Z</time><pdop>3.0</pdop><geoidheight>0.00</geoidheight><course>246.3</course><type>1</type></trkpt>
      <trkpt lat="40.1653588" lon="-5.14914533"><ele>974</ele><speed>14.19</speed><time>2017-04-09T12:54:41Z</time><pdop>3.0</pdop><geoidheight>0.00</geoidheight><course>248.1</course><type>1</type></trkpt>
      <trkpt lat="40.16530731" lon="-5.1492879"><ele>975</ele><speed>14.09</speed><time>2017-04-09T12:54:42Z</time><pdop>3.0</pdop><geoidheight>0.00</geoidheight><course>247.4</course><type>1</type></trkpt>
      <trkpt lat="40.16525388" lon="-5.14944606"><ele>975</ele><speed>14.34</speed><time>2017-04-09T12:54:43Z</time><pdop>3.0</pdop><geoidheight>0.00</geoidheight><course>244.4</course><type>1</type></trkpt>
      <trkpt lat="40.16518934" lon="-5.14959584"><ele>974</ele><speed>14.78</speed><time>2017-04-09T12:54:44Z</time><pdop>3.0</pdop><geoidheight>0.00</geoidheight><course>241.1</course><type>1</type></trkpt>
      <trkpt lat="40.16512786" lon="-5.14975089"><ele>975</ele><speed>15.14</speed><time>2017-04-09T12:54:45Z</time><pdop>3.0</pdop><geoidheight>0.00</geoidheight><course>240.4</course><type>1</type></trkpt>
      <trkpt lat="40.16506417" lon="-5.14989939"><ele>976</ele><speed>14.82</speed><time>2017-04-09T12:54:46Z</time><pdop>3.0</pdop><geoidheight>0.00</geoidheight><course>244.4</course><type>1</type></trkpt>
      <trkpt lat="40.16500695" lon="-5.15005386"><ele>976</ele><speed>14.34</speed><time>2017-04-09T12:54:47Z</time><pdop>3.0</pdop><geoidheight>0.00</geoidheight><course>246.8</course><type>1</type></trkpt>
      <trkpt lat="40.1649497" lon="-5.15020618"><ele>976</ele><speed>14.20</speed><time>2017-04-09T12:54:48Z</time><pdop>3.0</pdop><geoidheight>0.00</geoidheight><course>245.1</course><type>1</type></trkpt>
      <trkpt lat="40.16482435" lon="-5.15050602"><ele>975</ele><speed>14.75</speed><time>2017-04-09T12:54:50Z</time><pdop>3.0</pdop><geoidheight>0.00</geoidheight><course>241.9</course><type>1</type></trkpt>
      <trkpt lat="40.16476625" lon="-5.15066307"><ele>976</ele><speed>15.14</speed><time>2017-04-09T12:54:51Z</time><pdop>3.0</pdop><geoidheight>0.00</geoidheight><course>244.2</course><type>1</type></trkpt>
      <trkpt lat="40.16470958" lon="-5.15081616"><ele>976</ele><speed>14.77</speed><time>2017-04-09T12:54:52Z</time><pdop>3.0</pdop><geoidheight>0.00</geoidheight><course>244.9</course><type>1</type></trkpt>
      <trkpt lat="40.16464836" lon="-5.15097439"><ele>977</ele><speed>14.58</speed><time>2017-04-09T12:54:53Z</time><pdop>3.0</pdop><geoidheight>0.00</geoidheight><course>242.7</course><type>1</type></trkpt>
      <trkpt lat="40.16458438" lon="-5.15112875"><ele>978</ele><speed>14.62</speed><time>2017-04-09T12:54:54Z</time><pdop>3.0</pdop><geoidheight>0.00</geoidheight><course>240.1</course><type>1</type></trkpt>
      <trkpt lat="40.16450964" lon="-5.15128059"><ele>977</ele><speed>14.82</speed><time>2017-04-09T12:54:55Z</time><pdop>3.0</pdop><geoidheight>0.00</geoidheight><course>242.0</course><type>1</type></trkpt>
      <trkpt lat="40.1644422" lon="-5.15143604"><ele>976</ele><speed>14.97</speed><time>2017-04-09T12:54:56Z</time><pdop>3.0</pdop><geoidheight>0.00</geoidheight><course>241.7</course><type>1</type></trkpt>
      <trkpt lat="40.1643731" lon="-5.15158154"><ele>975</ele><speed>14.94</speed><time>2017-04-09T12:54:57Z</time><pdop>3.0</pdop><geoidheight>0.00</geoidheight><course>237.6</course><type>1</type></trkpt>
      <trkpt lat="40.16429533" lon="-5.15172537"><ele>975</ele><speed>14.55</speed><time>2017-04-09T12:54:58Z</time><pdop>3.0</pdop><geoidheight>0.00</geoidheight><course>235.2</course><type>1</type></trkpt>
      <trkpt lat="40.16422532" lon="-5.15186254"><ele>975</ele><speed>14.31</speed><time>2017-04-09T12:54:59Z</time><pdop>3.0</pdop><geoidheight>0.00</geoidheight><course>238.3</course><type>1</type></trkpt>
      <trkpt lat="40.16416684" lon="-5.15200995"><ele>975</ele><speed>14.02</speed><time>2017-04-09T12:55:00Z</time><pdop>3.0</pdop><geoidheight>0.00</geoidheight><course>242.1</course><type>1</type></trkpt>
      <trkpt lat="40.16411077" lon="-5.15214783"><ele>974</ele><speed>14.19</speed><time>2017-04-09T12:55:01Z</time><pdop>3.0</pdop><geoidheight>0.00</geoidheight><course>241.5</course><type>1</type></trkpt>
      <trkpt lat="40.16405332" lon="-5.15229763"><ele>973</ele><speed>14.33</speed><time>2017-04-09T12:55:02Z</time><pdop>3.0</pdop><geoidheight>0.00</geoidheight><course>240.5</course><type>1</type></trkpt>
      <trkpt lat="40.16398617" lon="-5.15244603"><ele>971</ele><speed>14.53</speed><time>2017-04-09T12:55:03Z</time><pdop>3.0</pdop><geoidheight>0.00</geoidheight><course>240.8</course><type>1</type></trkpt>
      <trkpt lat="40.16392471" lon="-5.15259766"><ele>970</ele><speed>15.08</speed><time>2017-04-09T12:55:04Z</time><pdop>3.0</pdop><geoidheight>0.00</geoidheight><course>242.9</course><type>1</type></trkpt>
      <trkpt lat="40.16386979" lon="-5.15275365"><ele>967</ele><speed>14.88</speed><time>2017-04-09T12:55:05Z</time><pdop>3.0</pdop><geoidheight>0.00</geoidheight><course>246.0</course><type>1</type></trkpt>
      <trkpt lat="40.16381136" lon="-5.15290085"><ele>965</ele><speed>14.34</speed><time>2017-04-09T12:55:06Z</time><pdop>3.0</pdop><geoidheight>0.00</geoidheight><course>245.3</course><type>1</type></trkpt>
      <trkpt lat="40.16375589" lon="-5.15305747"><ele>962</ele><speed>14.74</speed><time>2017-04-09T12:55:07Z</time><pdop>3.0</pdop><geoidheight>0.00</geoidheight><course>244.5</course><type>1</type></trkpt>
      <trkpt lat="40.16368991" lon="-5.15321773"><ele>958</ele><speed>15.69</speed><time>2017-04-09T12:55:08Z</time><pdop>3.0</pdop><geoidheight>0.00</geoidheight><course>245.7</course><type>1</type></trkpt>
      <trkpt lat="40.16363384" lon="-5.15339743"><ele>956</ele><speed>16.77</speed><time>2017-04-09T12:55:09Z</time><pdop>3.0</pdop><geoidheight>0.00</geoidheight><course>248.1</course><type>1</type></trkpt>
      <trkpt lat="40.16357198" lon="-5.1535836"><ele>953</ele><speed>17.60</speed><time>2017-04-09T12:55:10Z</time><pdop>3.0</pdop><geoidheight>0.00</geoidheight><course>245.9</course><type>1</type></trkpt>
      <trkpt lat="40.16349788" lon="-5.15376006"><ele>952</ele><speed>16.85</speed><time>2017-04-09T12:55:11Z</time><pdop>3.0</pdop><geoidheight>0.00</geoidheight><course>239.5</course><type>1</type></trkpt>
      <trkpt lat="40.16342192" lon="-5.15392703"><ele>949</ele><speed>16.02</speed><time>2017-04-09T12:55:12Z</time><pdop>3.0</pdop><geoidheight>0.00</geoidheight><course>235.7</course><type>1</type></trkpt>
      <trkpt lat="40.16334967" lon="-5.15407999"><ele>947</ele><speed>15.81</speed><time>2017-04-09T12:55:13Z</time><pdop>3.0</pdop><geoidheight>0.00</geoidheight><course>238.3</course><type>1</type></trkpt>
      <trkpt lat="40.16327485" lon="-5.15424488"><ele>944</ele><speed>16.21</speed><time>2017-04-09T12:55:14Z</time><pdop>3.0</pdop><geoidheight>0.00</geoidheight><course>241.9</course><type>1</type></trkpt>
      <trkpt lat="40.16320799" lon="-5.1544261"><ele>941</ele><speed>17.06</speed><time>2017-04-09T12:55:15Z</time><pdop>3.0</pdop><geoidheight>0.00</geoidheight><course>242.1</course><type>1</type></trkpt>
      <trkpt lat="40.16313242" lon="-5.15460676"><ele>937</ele><speed>17.72</speed><time>2017-04-09T12:55:16Z</time><pdop>3.0</pdop><geoidheight>0.00</geoidheight><course>241.5</course><type>1</type></trkpt>
      <trkpt lat="40.16305942" lon="-5.15479554"><ele>934</ele><speed>18.13</speed><time>2017-04-09T12:55:17Z</time><pdop>3.0</pdop><geoidheight>0.00</geoidheight><course>241.8</course><type>1</type></trkpt>
      <trkpt lat="40.16298289" lon="-5.15497974"><ele>932</ele><speed>17.88</speed><time>2017-04-09T12:55:18Z</time><pdop>3.0</pdop><geoidheight>0.00</geoidheight><course>243.1</course><type>1</type></trkpt>
      <trkpt lat="40.1629084" lon="-5.15516351"><ele>930</ele><speed>17.39</speed><time>2017-04-09T12:55:19Z</time><pdop>3.0</pdop><geoidheight>0.00</geoidheight><course>244.0</course><type>1</type></trkpt>
      <trkpt lat="40.16283812" lon="-5.1553395"><ele>928</ele><speed>17.07</speed><time>2017-04-09T12:55:20Z</time><pdop>3.0</pdop><geoidheight>0.00</geoidheight><course>244.5</course><type>1</type></trkpt>
      <trkpt lat="40.1624863" lon="-5.15625902"><ele>913</ele><speed>17.07</speed><time>2017-04-09T12:55:25Z</time><pdop>3.0</pdop><geoidheight>0.00</geoidheight><course>242.5</course><type>1</type></trkpt>
      <trkpt lat="40.16213649" lon="-5.1573021"><ele>898</ele><speed>16.57</speed><time>2017-04-09T12:55:31Z</time><pdop>3.0</pdop><geoidheight>0.00</geoidheight><course>242.8</course><type>1</type></trkpt>
      <trkpt lat="40.16206571" lon="-5.15747631"><ele>894</ele><speed>16.77</speed><time>2017-04-09T12:55:32Z</time><pdop>3.0</pdop><geoidheight>0.00</geoidheight><course>241.2</course><type>1</type></trkpt>
      <trkpt lat="40.16199611" lon="-5.15764721"><ele>891</ele><speed>16.80</speed><time>2017-04-09T12:55:33Z</time><pdop>3.0</pdop><geoidheight>0.00</geoidheight><course>240.6</course><type>1</type></trkpt>
      <trkpt lat="40.1619251" lon="-5.15782413"><ele>889</ele><speed>16.72</speed><time>2017-04-09T12:55:34Z</time><pdop>3.0</pdop><geoidheight>0.00</geoidheight><course>242.6</course><type>1</type></trkpt>
      <trkpt lat="40.16185945" lon="-5.15800025"><ele>887</ele><speed>16.63</speed><time>2017-04-09T12:55:35Z</time><pdop>3.0</pdop><geoidheight>0.00</geoidheight><course>244.8</course><type>1</type></trkpt>
      <trkpt lat="40.16179401" lon="-5.15817544"><ele>884</ele><speed>16.38</speed><time>2017-04-09T12:55:36Z</time><pdop>3.0</pdop><geoidheight>0.00</geoidheight><course>246.4</course><type>1</type></trkpt>
      <trkpt lat="40.16173545" lon="-5.15835105"><ele>881</ele><speed>15.87</speed><time>2017-04-09T12:55:37Z</time><pdop>3.0</pdop><geoidheight>0.00</geoidheight><course>245.1</course><type>1</type></trkpt>
      <trkpt lat="40.16166977" lon="-5.15851107"><ele>879</ele><speed>15.62</speed><time>2017-04-09T12:55:38Z</time><pdop>3.0</pdop><geoidheight>0.00</geoidheight><course>243.9</course><type>1</type></trkpt>
      <trkpt lat="40.16160337" lon="-5.15868336"><ele>876</ele><speed>16.30</speed><time>2017-04-09T12:55:39Z</time><pdop>3.0</pdop><geoidheight>0.00</geoidheight><course>242.8</course><type>1</type></trkpt>
      <trkpt lat="40.16152789" lon="-5.15885066"><ele>873</ele><speed>17.10</speed><time>2017-04-09T12:55:40Z</time><pdop>3.0</pdop><geoidheight>0.00</geoidheight><course>239.3</course><type>1</type></trkpt>
      <trkpt lat="40.16144905" lon="-5.15901769"><ele>871</ele><speed>17.21</speed><time>2017-04-09T12:55:41Z</time><pdop>3.0</pdop><geoidheight>0.00</geoidheight><course>236.1</course><type>1</type></trkpt>
      <trkpt lat="40.16136732" lon="-5.15918712"><ele>870</ele><speed>16.66</speed><time>2017-04-09T12:55:42Z</time><pdop>3.0</pdop><geoidheight>0.00</geoidheight><course>236.2</course><type>1</type></trkpt>
      <trkpt lat="40.16129413" lon="-5.15934734"><ele>870</ele><speed>16.00</speed><time>2017-04-09T12:55:43Z</time><pdop>3.0</pdop><geoidheight>0.00</geoidheight><course>238.3</course><type>1</type></trkpt>
      <trkpt lat="40.16121737" lon="-5.15949278"><ele>869</ele><speed>15.78</speed><time>2017-04-09T12:55:44Z</time><pdop>3.0</pdop><geoidheight>0.00</geoidheight><course>239.2</course><type>1</type></trkpt>
      <trkpt lat="40.16114122" lon="-5.15965285"><ele>867</ele><speed>16.18</speed><time>2017-04-09T12:55:45Z</time><pdop>3.0</pdop><geoidheight>0.00</geoidheight><course>236.3</course><type>1</type></trkpt>
      <trkpt lat="40.16105233" lon="-5.15981585"><ele>864</ele><speed>16.82</speed><time>2017-04-09T12:55:46Z</time><pdop>3.0</pdop><geoidheight>0.00</geoidheight><course>232.8</course><type>1</type></trkpt>
      <trkpt lat="40.16095952" lon="-5.1599631"><ele>859</ele><speed>17.28</speed><time>2017-04-09T12:55:47Z</time><pdop>3.0</pdop><geoidheight>0.00</geoidheight><course>231.8</course><type>1</type></trkpt>
      <trkpt lat="40.16051341" lon="-5.16079233"><ele>848</ele><speed>17.08</speed><time>2017-04-09T12:55:52Z</time><pdop>3.0</pdop><geoidheight>0.00</geoidheight><course>237.5</course><type>1</type></trkpt>
      <trkpt lat="40.16043045" lon="-5.16096724"><ele>845</ele><speed>17.27</speed><time>2017-04-09T12:55:53Z</time><pdop>3.0</pdop><geoidheight>0.00</geoidheight><course>240.2</course><type>1</type></trkpt>
      <trkpt lat="40.16035377" lon="-5.16114747"><ele>843</ele><speed>17.29</speed><time>2017-04-09T12:55:54Z</time><pdop>3.0</pdop><geoidheight>0.00</geoidheight><course>239.9</course><type>1</type></trkpt>
      <trkpt lat="40.16027714" lon="-5.1613212"><ele>842</ele><speed>16.71</speed><time>2017-04-09T12:55:55Z</time><pdop>3.0</pdop><geoidheight>0.00</geoidheight><course>238.4</course><type>1</type></trkpt>
      <trkpt lat="40.16020024" lon="-5.16148578"><ele>840</ele><speed>16.03</speed><time>2017-04-09T12:55:56Z</time><pdop>3.0</pdop><geoidheight>0.00</geoidheight><course>236.6</course><type>1</type></trkpt>
      <trkpt lat="40.16012123" lon="-5.16164087"><ele>838</ele><speed>15.89</speed><time>2017-04-09T12:55:57Z</time><pdop>3.0</pdop><geoidheight>0.00</geoidheight><course>238.2</course><type>1</type></trkpt>
      <trkpt lat="40.16005033" lon="-5.16180385"><ele>836</ele><speed>16.30</speed><time>2017-04-09T12:55:58Z</time><pdop>3.0</pdop><geoidheight>0.00</geoidheight><course>239.9</course><type>1</type></trkpt>
      <trkpt lat="40.15997457" lon="-5.16196423"><ele>832</ele><speed>16.66</speed><time>2017-04-09T12:55:59Z</time><pdop>3.0</pdop><geoidheight>0.00</geoidheight><course>240.5</course><type>1</type></trkpt>
      <trkpt lat="40.15990344" lon="-5.16213993"><ele>829</ele><speed>16.79</speed><time>2017-04-09T12:56:00Z</time><pdop>3.0</pdop><geoidheight>0.00</geoidheight><course>241.0</course><type>1</type></trkpt>
      <trkpt lat="40.1598366" lon="-5.1623137"><ele>827</ele><speed>16.64</speed><time>2017-04-09T12:56:01Z</time><pdop>3.0</pdop><geoidheight>0.00</geoidheight><course>242.3</course><type>1</type></trkpt>
      <trkpt lat="40.15977041" lon="-5.16248407"><ele>825</ele><speed>16.38</speed><time>2017-04-09T12:56:02Z</time><pdop>3.0</pdop><geoidheight>0.00</geoidheight><course>242.6</course><type>1</type></trkpt>
      <trkpt lat="40.15970231" lon="-5.16265365"><ele>822</ele><speed>16.27</speed><time>2017-04-09T12:56:03Z</time><pdop>3.0</pdop><geoidheight>0.00</geoidheight><course>241.2</course><type>1</type></trkpt>
      <trkpt lat="40.15963159" lon="-5.16282238"><ele>820</ele><speed>16.61</speed><time>2017-04-09T12:56:04Z</time><pdop>3.0</pdop><geoidheight>0.00</geoidheight><course>240.6</course><type>1</type></trkpt>
      <trkpt lat="40.15955959" lon="-5.16299632"><ele>817</ele><speed>17.20</speed><time>2017-04-09T12:56:05Z</time><pdop>3.0</pdop><geoidheight>0.00</geoidheight><course>242.4</course><type>1</type></trkpt>
      <trkpt lat="40.15949174" lon="-5.16318234"><ele>815</ele><speed>17.51</speed><time>2017-04-09T12:56:06Z</time><pdop>3.0</pdop><geoidheight>0.00</geoidheight><course>245.3</course><type>1</type></trkpt>
      <trkpt lat="40.15941923" lon="-5.16337633"><ele>812</ele><speed>17.20</speed><time>2017-04-09T12:56:07Z</time><pdop>3.0</pdop><geoidheight>0.00</geoidheight><course>244.9</course><type>1</type></trkpt>
      <trkpt lat="40.15935233" lon="-5.16355498"><ele>811</ele><speed>16.54</speed><time>2017-04-09T12:56:08Z</time><pdop>3.0</pdop><geoidheight>0.00</geoidheight><course>240.9</course><type>1</type></trkpt>
      <trkpt lat="40.15927734" lon="-5.16371981"><ele>809</ele><speed>16.19</speed><time>2017-04-09T12:56:09Z</time><pdop>3.0</pdop><geoidheight>0.00</geoidheight><course>239.4</course><type>1</type></trkpt>
      <trkpt lat="40.1592048" lon="-5.1638823"><ele>806</ele><speed>16.33</speed><time>2017-04-09T12:56:10Z</time><pdop>3.0</pdop><geoidheight>0.00</geoidheight><course>239.7</course><type>1</type></trkpt>
      <trkpt lat="40.15912434" lon="-5.16403949"><ele>803</ele><speed>16.64</speed><time>2017-04-09T12:56:11Z</time><pdop>3.0</pdop><geoidheight>0.00</geoidheight><course>240.5</course><type>1</type></trkpt>
      <trkpt lat="40.15905403" lon="-5.16421572"><ele>800</ele><speed>16.93</speed><time>2017-04-09T12:56:12Z</time><pdop>3.0</pdop><geoidheight>0.00</geoidheight><course>239.6</course><type>1</type></trkpt>
      <trkpt lat="40.1589764" lon="-5.16438983"><ele>797</ele><speed>16.91</speed><time>2017-04-09T12:56:13Z</time><pdop>3.0</pdop><geoidheight>0.00</geoidheight><course>238.1</course><type>1</type></trkpt>
      <trkpt lat="40.15889347" lon="-5.16455543"><ele>795</ele><speed>16.80</speed><time>2017-04-09T12:56:14Z</time><pdop>3.0</pdop><geoidheight>0.00</geoidheight><course>237.4</course><type>1</type></trkpt>
      <trkpt lat="40.15881075" lon="-5.16471709"><ele>792</ele><speed>16.77</speed><time>2017-04-09T12:56:15Z</time><pdop>3.0</pdop><geoidheight>0.00</geoidheight><course>233.1</course><type>1</type></trkpt>
      <trkpt lat="40.15872972" lon="-5.16488702"><ele>788</ele><speed>16.94</speed><time>2017-04-09T12:56:16Z</time><pdop>3.0</pdop><geoidheight>0.00</geoidheight><course>237.0</course><type>1</type></trkpt>
      <trkpt lat="40.15864204" lon="-5.16505841"><ele>784</ele><speed>17.32</speed><time>2017-04-09T12:56:17Z</time><pdop>3.0</pdop><geoidheight>0.00</geoidheight><course>234.8</course><type>1</type></trkpt>
      <trkpt lat="40.1585611" lon="-5.16523802"><ele>781</ele><speed>17.72</speed><time>2017-04-09T12:56:18Z</time><pdop>3.0</pdop><geoidheight>0.00</geoidheight><course>238.3</course><type>1</type></trkpt>
      <trkpt lat="40.15848041" lon="-5.16542364"><ele>779</ele><speed>18.14</speed><time>2017-04-09T12:56:19Z</time><pdop>3.0</pdop><geoidheight>0.00</geoidheight><course>240.2</course><type>1</type></trkpt>
      <trkpt lat="40.15813926" lon="-5.1663468"><ele>769</ele><speed>17.11</speed><time>2017-04-09T12:56:24Z</time><pdop>3.0</pdop><geoidheight>0.00</geoidheight><course>250.0</course><type>1</type></trkpt>
      <trkpt lat="40.15806018" lon="-5.16653394"><ele>765</ele><speed>17.97</speed><time>2017-04-09T12:56:25Z</time><pdop>3.0</pdop><geoidheight>0.00</geoidheight><course>243.1</course><type>1</type></trkpt>
      <trkpt lat="40.15797914" lon="-5.16672527"><ele>762</ele><speed>18.54</speed><time>2017-04-09T12:56:26Z</time><pdop>3.0</pdop><geoidheight>0.00</geoidheight><course>238.6</course><type>1</type></trkpt>
      <trkpt lat="40.15790328" lon="-5.16691865"><ele>759</ele><speed>18.32</speed><time>2017-04-09T12:56:27Z</time><pdop>3.0</pdop><geoidheight>0.00</geoidheight><course>237.2</course><type>1</type></trkpt>
      <trkpt lat="40.15783733" lon="-5.16710586"><ele>757</ele><speed>17.94</speed><time>2017-04-09T12:56:28Z</time><pdop>3.0</pdop><geoidheight>0.00</geoidheight><course>244.1</course><type>1</type></trkpt>
      <trkpt lat="40.15776934" lon="-5.16729206"><ele>755</ele><speed>17.57</speed><time>2017-04-09T12:56:29Z</time><pdop>3.0</pdop><geoidheight>0.00</geoidheight><course>242.4</course><type>1</type></trkpt>
      <trkpt lat="40.15770545" lon="-5.16748517"><ele>752</ele><speed>17.50</speed><time>2017-04-09T12:56:30Z</time><pdop>3.0</pdop><geoidheight>0.00</geoidheight><course>240.2</course><type>1</type></trkpt>
      <trkpt lat="40.1576451" lon="-5.16768431"><ele>749</ele><speed>17.99</speed><time>2017-04-09T12:56:31Z</time><pdop>3.0</pdop><geoidheight>0.00</geoidheight><course>246.7</course><type>1</type></trkpt>
      <trkpt lat="40.1575799" lon="-5.16787982"><ele>746</ele><speed>18.12</speed><time>2017-04-09T12:56:32Z</time><pdop>3.0</pdop><geoidheight>0.00</geoidheight><course>258.4</course><type>1</type></trkpt>
      <trkpt lat="40.15751145" lon="-5.16807883"><ele>745</ele><speed>18.48</speed><time>2017-04-09T12:56:33Z</time><pdop>3.0</pdop><geoidheight>0.00</geoidheight><course>252.5</course><type>1</type></trkpt>
      <trkpt lat="40.15744094" lon="-5.16826637"><ele>744</ele><speed>17.68</speed><time>2017-04-09T12:56:34Z</time><pdop>3.0</pdop><geoidheight>0.00</geoidheight><course>238.0</course><type>1</type></trkpt>
      <trkpt lat="40.15738348" lon="-5.16844455"><ele>743</ele><speed>16.38</speed><time>2017-04-09T12:56:35Z</time><pdop>3.0</pdop><geoidheight>0.00</geoidheight><course>249.2</course><type>1</type></trkpt>
      <trkpt lat="40.15732951" lon="-5.16861269"><ele>741</ele><speed>15.55</speed><time>2017-04-09T12:56:36Z</time><pdop>3.0</pdop><geoidheight>0.00</geoidheight><course>251.2</course><type>1</type></trkpt>
      <trkpt lat="40.15727128" lon="-5.16878951"><ele>739</ele><speed>16.19</speed><time>2017-04-09T12:56:37Z</time><pdop>3.0</pdop><geoidheight>0.00</geoidheight><course>244.7</course><type>1</type></trkpt>
      <trkpt lat="40.15720806" lon="-5.16897447"><ele>736</ele><speed>17.57</speed><time>2017-04-09T12:56:38Z</time><pdop>3.0</pdop><geoidheight>0.00</geoidheight><course>243.7</course><type>1</type></trkpt>
      <trkpt lat="40.15714324" lon="-5.16917581"><ele>733</ele><speed>18.51</speed><time>2017-04-09T12:56:39Z</time><pdop>3.0</pdop><geoidheight>0.00</geoidheight><course>250.8</course><type>1</type></trkpt>
      <trkpt lat="40.15707835" lon="-5.16938101"><ele>730</ele><speed>18.64</speed><time>2017-04-09T12:56:40Z</time><pdop>3.0</pdop><geoidheight>0.00</geoidheight><course>251.1</course><type>1</type></trkpt>
      <trkpt lat="40.15700064" lon="-5.16957502"><ele>728</ele><speed>18.56</speed><time>2017-04-09T12:56:41Z</time><pdop>3.0</pdop><geoidheight>0.00</geoidheight><course>236.3</course><type>1</type></trkpt>
      <trkpt lat="40.15692048" lon="-5.16977955"><ele>726</ele><speed>18.97</speed><time>2017-04-09T12:56:42Z</time><pdop>3.0</pdop><geoidheight>0.00</geoidheight><course>244.3</course><type>1</type></trkpt>
      <trkpt lat="40.15683918" lon="-5.16998837"><ele>724</ele><speed>18.98</speed><time>2017-04-09T12:56:43Z</time><pdop>3.0</pdop><geoidheight>0.00</geoidheight><course>243.7</course><type>1</type></trkpt>
      <trkpt lat="40.15676272" lon="-5.17018819"><ele>722</ele><speed>18.81</speed><time>2017-04-09T12:56:44Z</time><pdop>3.0</pdop><geoidheight>0.00</geoidheight><course>243.3</course><type>1</type></trkpt>
      <trkpt lat="40.15669064" lon="-5.1703913"><ele>720</ele><speed>18.43</speed><time>2017-04-09T12:56:45Z</time><pdop>3.0</pdop><geoidheight>0.00</geoidheight><course>242.9</course><type>1</type></trkpt>
      <trkpt lat="40.15661325" lon="-5.17057686"><ele>719</ele><speed>17.96</speed><time>2017-04-09T12:56:46Z</time><pdop>3.0</pdop><geoidheight>0.00</geoidheight><course>241.4</course><type>1</type></trkpt>
      <trkpt lat="40.1565424" lon="-5.17075378"><ele>717</ele><speed>17.90</speed><time>2017-04-09T12:56:47Z</time><pdop>3.0</pdop><geoidheight>0.00</geoidheight><course>240.0</course><type>1</type></trkpt>
      <trkpt lat="40.15646899" lon="-5.17092839"><ele>714</ele><speed>18.05</speed><time>2017-04-09T12:56:48Z</time><pdop>3.0</pdop><geoidheight>0.00</geoidheight><course>240.6</course><type>1</type></trkpt>
      <trkpt lat="40.1563889" lon="-5.17112327"><ele>711</ele><speed>18.67</speed><time>2017-04-09T12:56:49Z</time><pdop>3.0</pdop><geoidheight>0.00</geoidheight><course>242.3</course><type>1</type></trkpt>
      <trkpt lat="40.15630703" lon="-5.17132109"><ele>708</ele><speed>19.13</speed><time>2017-04-09T12:56:50Z</time><pdop>3.0</pdop><geoidheight>0.00</geoidheight><course>242.4</course><type>1</type></trkpt>
      <trkpt lat="40.15622473" lon="-5.17152496"><ele>706</ele><speed>19.18</speed><time>2017-04-09T12:56:51Z</time><pdop>3.0</pdop><geoidheight>0.00</geoidheight><course>240.7</course><type>1</type></trkpt>
      <trkpt lat="40.15614321" lon="-5.17171924"><ele>705</ele><speed>18.78</speed><time>2017-04-09T12:56:52Z</time><pdop>3.0</pdop><geoidheight>0.00</geoidheight><course>239.2</course><type>1</type></trkpt>
      <trkpt lat="40.15606283" lon="-5.17190535"><ele>703</ele><speed>17.93</speed><time>2017-04-09T12:56:53Z</time><pdop>3.0</pdop><geoidheight>0.00</geoidheight><course>240.1</course><type>1</type></trkpt>
      <trkpt lat="40.1559811" lon="-5.1720811"><ele>702</ele><speed>17.16</speed><time>2017-04-09T12:56:54Z</time><pdop>3.0</pdop><geoidheight>0.00</geoidheight><course>241.7</course><type>1</type></trkpt>
      <trkpt lat="40.15591598" lon="-5.17225512"><ele>700</ele><speed>16.99</speed><time>2017-04-09T12:56:55Z</time><pdop>3.0</pdop><geoidheight>0.00</geoidheight><course>241.9</course><type>1</type></trkpt>
      <trkpt lat="40.15584051" lon="-5.17243785"><ele>697</ele><speed>17.68</speed><time>2017-04-09T12:56:56Z</time><pdop>3.0</pdop><geoidheight>0.00</geoidheight><course>242.0</course><type>1</type></trkpt>
      <trkpt lat="40.15576617" lon="-5.17263134"><ele>694</ele><speed>18.78</speed><time>2017-04-09T12:56:57Z</time><pdop>3.0</pdop><geoidheight>0.00</geoidheight><course>242.8</course><type>1</type></trkpt>
      <trkpt lat="40.15568916" lon="-5.17283621"><ele>691</ele><speed>19.63</speed><time>2017-04-09T12:56:58Z</time><pdop>3.0</pdop><geoidheight>0.00</geoidheight><course>244.1</course><type>1</type></trkpt>
      <trkpt lat="40.15561261" lon="-5.17303767"><ele>689</ele><speed>18.85</speed><time>2017-04-09T12:56:59Z</time><pdop>3.0</pdop><geoidheight>0.00</geoidheight><course>244.1</course><type>1</type></trkpt>
      <trkpt lat="40.15552943" lon="-5.17322323"><ele>688</ele><speed>18.03</speed><time>2017-04-09T12:57:00Z</time><pdop>3.0</pdop><geoidheight>0.00</geoidheight><course>242.3</course><type>1</type></trkpt>
      <trkpt lat="40.15544112" lon="-5.17339824"><ele>687</ele><speed>17.20</speed><time>2017-04-09T12:57:01Z</time><pdop>3.0</pdop><geoidheight>0.00</geoidheight><course>241.2</course><type>1</type></trkpt>
      <trkpt lat="40.15536934" lon="-5.17356748"><ele>687</ele><speed>16.05</speed><time>2017-04-09T12:57:02Z</time><pdop>3.0</pdop><geoidheight>0.00</geoidheight><course>240.5</course><type>1</type></trkpt>
      <trkpt lat="40.15529798" lon="-5.17373329"><ele>686</ele><speed>15.42</speed><time>2017-04-09T12:57:03Z</time><pdop>3.0</pdop><geoidheight>0.00</geoidheight><course>244.1</course><type>1</type></trkpt>
      <trkpt lat="40.15524213" lon="-5.17390223"><ele>686</ele><speed>16.12</speed><time>2017-04-09T12:57:04Z</time><pdop>3.0</pdop><geoidheight>0.00</geoidheight><course>247.1</course><type>1</type></trkpt>
      <trkpt lat="40.1551834" lon="-5.17408352"><ele>684</ele><speed>16.66</speed><time>2017-04-09T12:57:05Z</time><pdop>3.0</pdop><geoidheight>0.00</geoidheight><course>246.1</course><type>1</type></trkpt>
      <trkpt lat="40.15511728" lon="-5.17425504"><ele>682</ele><speed>16.66</speed><time>2017-04-09T12:57:06Z</time><pdop>3.0</pdop><geoidheight>0.00</geoidheight><course>245.3</course><type>1</type></trkpt>
      <trkpt lat="40.15505508" lon="-5.17442598"><ele>682</ele><speed>15.92</speed><time>2017-04-09T12:57:07Z</time><pdop>3.0</pdop><geoidheight>0.00</geoidheight><course>245.4</course><type>1</type></trkpt>
      <trkpt lat="40.15499627" lon="-5.17458817"><ele>682</ele><speed>15.25</speed><time>2017-04-09T12:57:08Z</time><pdop>3.0</pdop><geoidheight>0.00</geoidheight><course>246.0</course><type>1</type></trkpt>
      <trkpt lat="40.15494111" lon="-5.17474988"><ele>681</ele><speed>14.96</speed><time>2017-04-09T12:57:09Z</time><pdop>3.0</pdop><geoidheight>0.00</geoidheight><course>245.8</course><type>1</type></trkpt>
      <trkpt lat="40.15488526" lon="-5.17490434"><ele>680</ele><speed>15.23</speed><time>2017-04-09T12:57:10Z</time><pdop>3.0</pdop><geoidheight>0.00</geoidheight><course>244.3</course><type>1</type></trkpt>
      <trkpt lat="40.15482627" lon="-5.17506871"><ele>678</ele><speed>15.80</speed><time>2017-04-09T12:57:11Z</time><pdop>3.0</pdop><geoidheight>0.00</geoidheight><course>243.7</course><type>1</type></trkpt>
      <trkpt lat="40.15476405" lon="-5.17524055"><ele>677</ele><speed>16.41</speed><time>2017-04-09T12:57:12Z</time><pdop>3.0</pdop><geoidheight>0.00</geoidheight><course>245.2</course><type>1</type></trkpt>
      <trkpt lat="40.15470668" lon="-5.17541482"><ele>677</ele><speed>16.12</speed><time>2017-04-09T12:57:13Z</time><pdop>3.0</pdop><geoidheight>0.00</geoidheight><course>247.7</course><type>1</type></trkpt>
      <trkpt lat="40.15465677" lon="-5.17557948"><ele>675</ele><speed>15.63</speed><time>2017-04-09T12:57:14Z</time><pdop>3.0</pdop><geoidheight>0.00</geoidheight><course>247.9</course><type>1</type></trkpt>
      <trkpt lat="40.15460342" lon="-5.17575449"><ele>674</ele><speed>15.76</speed><time>2017-04-09T12:57:15Z</time><pdop>3.0</pdop><geoidheight>0.00</geoidheight><course>245.8</course><type>1</type></trkpt>
      <trkpt lat="40.15454757" lon="-5.17591504"><ele>673</ele><speed>16.06</speed><time>2017-04-09T12:57:16Z</time><pdop>3.0</pdop><geoidheight>0.00</geoidheight><course>243.3</course><type>1</type></trkpt>
      <trkpt lat="40.15448343" lon="-5.17607271"><ele>672</ele><speed>16.12</speed><time>2017-04-09T12:57:17Z</time><pdop>3.0</pdop><geoidheight>0.00</geoidheight><course>242.8</course><type>1</type></trkpt>
      <trkpt lat="40.15441573" lon="-5.17624494"><ele>671</ele><speed>16.51</speed><time>2017-04-09T12:57:18Z</time><pdop>3.0</pdop><geoidheight>0.00</geoidheight><course>244.7</course><type>1</type></trkpt>
      <trkpt lat="40.15435056" lon="-5.17641524"><ele>670</ele><speed>16.00</speed><time>2017-04-09T12:57:19Z</time><pdop>3.0</pdop><geoidheight>0.00</geoidheight><course>245.7</course><type>1</type></trkpt>
      <trkpt lat="40.15429424" lon="-5.17658881"><ele>669</ele><speed>15.67</speed><time>2017-04-09T12:57:20Z</time><pdop>3.0</pdop><geoidheight>0.00</geoidheight><course>245.2</course><type>1</type></trkpt>
      <trkpt lat="40.15423327" lon="-5.17674694"><ele>666</ele><speed>15.66</speed><time>2017-04-09T12:57:21Z</time><pdop>3.0</pdop><geoidheight>0.00</geoidheight><course>243.1</course><type>1</type></trkpt>
      <trkpt lat="40.15416906" lon="-5.17690994"><ele>663</ele><speed>15.86</speed><time>2017-04-09T12:57:22Z</time><pdop>3.0</pdop><geoidheight>0.00</geoidheight><course>241.8</course><type>1</type></trkpt>
      <trkpt lat="40.1541004" lon="-5.17708145"><ele>661</ele><speed>16.26</speed><time>2017-04-09T12:57:23Z</time><pdop>3.0</pdop><geoidheight>0.00</geoidheight><course>240.9</course><type>1</type></trkpt>
      <trkpt lat="40.15402526" lon="-5.17725062"><ele>659</ele><speed>16.64</speed><time>2017-04-09T12:57:24Z</time><pdop>3.0</pdop><geoidheight>0.00</geoidheight><course>241.1</course><type>1</type></trkpt>
      <trkpt lat="40.15395378" lon="-5.1774215"><ele>656</ele><speed>16.77</speed><time>2017-04-09T12:57:25Z</time><pdop>3.0</pdop><geoidheight>0.00</geoidheight><course>241.4</course><type>1</type></trkpt>
      <trkpt lat="40.15387961" lon="-5.17758593"><ele>653</ele><speed>16.95</speed><time>2017-04-09T12:57:26Z</time><pdop>3.0</pdop><geoidheight>0.00</geoidheight><course>240.7</course><type>1</type></trkpt>
      <trkpt lat="40.15380334" lon="-5.17776544"><ele>652</ele><speed>17.20</speed><time>2017-04-09T12:57:27Z</time><pdop>3.0</pdop><geoidheight>0.00</geoidheight><course>239.5</course><type>1</type></trkpt>
      <trkpt lat="40.15372532" lon="-5.17794626"><ele>649</ele><speed>17.56</speed><time>2017-04-09T12:57:28Z</time><pdop>3.0</pdop><geoidheight>0.00</geoidheight><course>238.9</course><type>1</type></trkpt>
      <trkpt lat="40.15364767" lon="-5.1781282"><ele>647</ele><speed>17.90</speed><time>2017-04-09T12:57:29Z</time><pdop>3.0</pdop><geoidheight>0.00</geoidheight><course>239.6</course><type>1</type></trkpt>
      <trkpt lat="40.15357245" lon="-5.17831084"><ele>646</ele><speed>17.28</speed><time>2017-04-09T12:57:30Z</time><pdop>3.0</pdop><geoidheight>0.00</geoidheight><course>241.0</course><type>1</type></trkpt>
      <trkpt lat="40.15350148" lon="-5.17848614"><ele>645</ele><speed>16.26</speed><time>2017-04-09T12:57:31Z</time><pdop>3.0</pdop><geoidheight>0.00</geoidheight><course>242.1</course><type>1</type></trkpt>
      <trkpt lat="40.15343571" lon="-5.17865043"><ele>644</ele><speed>15.70</speed><time>2017-04-09T12:57:32Z</time><pdop>3.0</pdop><geoidheight>0.00</geoidheight><course>242.1</course><type>1</type></trkpt>
      <trkpt lat="40.15336613" lon="-5.17881128"><ele>641</ele><speed>16.38</speed><time>2017-04-09T12:57:33Z</time><pdop>3.0</pdop><geoidheight>0.00</geoidheight><course>242.3</course><type>1</type></trkpt>
      <trkpt lat="40.15330441" lon="-5.17899025"><ele>638</ele><speed>17.09</speed><time>2017-04-09T12:57:34Z</time><pdop>3.0</pdop><geoidheight>0.00</geoidheight><course>243.7</course><type>1</type></trkpt>
      <trkpt lat="40.1532352" lon="-5.17917858"><ele>635</ele><speed>17.70</speed><time>2017-04-09T12:57:35Z</time><pdop>3.0</pdop><geoidheight>0.00</geoidheight><course>243.4</course><type>1</type></trkpt>
      <trkpt lat="40.15316454" lon="-5.17936013"><ele>634</ele><speed>17.21</speed><time>2017-04-09T12:57:36Z</time><pdop>3.0</pdop><geoidheight>0.00</geoidheight><course>242.2</course><type>1</type></trkpt>
      <trkpt lat="40.15309186" lon="-5.17953555"><ele>632</ele><speed>16.33</speed><time>2017-04-09T12:57:37Z</time><pdop>3.0</pdop><geoidheight>0.00</geoidheight><course>240.7</course><type>1</type></trkpt>
      <trkpt lat="40.15302175" lon="-5.17969908"><ele>630</ele><speed>16.36</speed><time>2017-04-09T12:57:38Z</time><pdop>3.0</pdop><geoidheight>0.00</geoidheight><course>239.4</course><type>1</type></trkpt>
      <trkpt lat="40.15294122" lon="-5.17987084"><ele>629</ele><speed>17.35</speed><time>2017-04-09T12:57:39Z</time><pdop>3.0</pdop><geoidheight>0.00</geoidheight><course>238.2</course><type>1</type></trkpt>
      <trkpt lat="40.15285339" lon="-5.18005148"><ele>627</ele><speed>18.60</speed><time>2017-04-09T12:57:40Z</time><pdop>3.0</pdop><geoidheight>0.00</geoidheight><course>238.1</course><type>1</type></trkpt>
      <trkpt lat="40.15276334" lon="-5.18023191"><ele>624</ele><speed>19.61</speed><time>2017-04-09T12:57:41Z</time><pdop>3.0</pdop><geoidheight>0.00</geoidheight><course>237.7</course><type>1</type></trkpt>
      <trkpt lat="40.15266783" lon="-5.18042267"><ele>623</ele><speed>19.67</speed><time>2017-04-09T12:57:42Z</time><pdop>3.0</pdop><geoidheight>0.00</geoidheight><course>237.9</course><type>1</type></trkpt>
      <trkpt lat="40.15257953" lon="-5.1806041"><ele>624</ele><speed>18.00</speed><time>2017-04-09T12:57:43Z</time><pdop>3.0</pdop><geoidheight>0.00</geoidheight><course>239.0</course><type>1</type></trkpt>
      <trkpt lat="40.152508" lon="-5.18078108"><ele>624</ele><speed>16.45</speed><time>2017-04-09T12:57:44Z</time><pdop>3.0</pdop><geoidheight>0.00</geoidheight><course>241.7</course><type>1</type></trkpt>
      <trkpt lat="40.15244344" lon="-5.18094519"><ele>624</ele><speed>15.19</speed><time>2017-04-09T12:57:45Z</time><pdop>3.0</pdop><geoidheight>0.00</geoidheight><course>245.9</course><type>1</type></trkpt>
      <trkpt lat="40.15238859" lon="-5.18110348"><ele>625</ele><speed>15.06</speed><time>2017-04-09T12:57:46Z</time><pdop>3.0</pdop><geoidheight>0.00</geoidheight><course>247.0</course><type>1</type></trkpt>
      <trkpt lat="40.15232606" lon="-5.18127313"><ele>624</ele><speed>15.34</speed><time>2017-04-09T12:57:47Z</time><pdop>3.0</pdop><geoidheight>0.00</geoidheight><course>247.3</course><type>1</type></trkpt>
      <trkpt lat="40.15226508" lon="-5.18144575"><ele>623</ele><speed>16.21</speed><time>2017-04-09T12:57:48Z</time><pdop>3.0</pdop><geoidheight>0.00</geoidheight><course>245.6</course><type>1</type></trkpt>
      <trkpt lat="40.15220538" lon="-5.18162847"><ele>622</ele><speed>16.66</speed><time>2017-04-09T12:57:49Z</time><pdop>3.0</pdop><geoidheight>0.00</geoidheight><course>246.6</course><type>1</type></trkpt>
      <trkpt lat="40.15214242" lon="-5.18181477"><ele>621</ele><speed>16.55</speed><time>2017-04-09T12:57:50Z</time><pdop>3.0</pdop><geoidheight>0.00</geoidheight><course>248.4</course><type>1</type></trkpt>
      <trkpt lat="40.1520973" lon="-5.18199868"><ele>621</ele><speed>16.06</speed><time>2017-04-09T12:57:51Z</time><pdop>3.0</pdop><geoidheight>0.00</geoidheight><course>250.1</course><type>1</type></trkpt>
      <trkpt lat="40.15204156" lon="-5.18217275"><ele>620</ele><speed>15.60</speed><time>2017-04-09T12:57:52Z</time><pdop>3.0</pdop><geoidheight>0.00</geoidheight><course>251.3</course><type>1</type></trkpt>
      <trkpt lat="40.15199754" lon="-5.18234823"><ele>619</ele><speed>15.52</speed><time>2017-04-09T12:57:53Z</time><pdop>3.0</pdop><geoidheight>0.00</geoidheight><course>249.6</course><type>1</type></trkpt>
      <trkpt lat="40.15192736" lon="-5.1825161"><ele>618</ele><speed>15.67</speed><time>2017-04-09T12:57:54Z</time><pdop>3.0</pdop><geoidheight>0.00</geoidheight><course>245.7</course><type>1</type></trkpt>
      <trkpt lat="40.15186399" lon="-5.18268202"><ele>617</ele><speed>16.03</speed><time>2017-04-09T12:57:55Z</time><pdop>3.0</pdop><geoidheight>0.00</geoidheight><course>242.6</course><type>1</type></trkpt>
      <trkpt lat="40.15179094" lon="-5.18285333"><ele>616</ele><speed>16.27</speed><time>2017-04-09T12:57:56Z</time><pdop>3.0</pdop><geoidheight>0.00</geoidheight><course>242.0</course><type>1</type></trkpt>
      <trkpt lat="40.15173648" lon="-5.18302535"><ele>616</ele><speed>15.84</speed><time>2017-04-09T12:57:57Z</time><pdop>3.0</pdop><geoidheight>0.00</geoidheight><course>251.5</course><type>1</type></trkpt>
      <trkpt lat="40.1516864" lon="-5.18320371"><ele>615</ele><speed>15.92</speed><time>2017-04-09T12:57:58Z</time><pdop>3.0</pdop><geoidheight>0.00</geoidheight><course>248.1</course><type>1</type></trkpt>
      <trkpt lat="40.15163955" lon="-5.18337271"><ele>615</ele><speed>15.16</speed><time>2017-04-09T12:57:59Z</time><pdop>3.0</pdop><geoidheight>0.00</geoidheight><course>257.1</course><type>1</type></trkpt>
      <trkpt lat="40.15160832" lon="-5.18354498"><ele>614</ele><speed>14.90</speed><time>2017-04-09T12:58:00Z</time><pdop>3.0</pdop><geoidheight>0.00</geoidheight><course>257.2</course><type>1</type></trkpt>
      <trkpt lat="40.15157516" lon="-5.18371315"><ele>613</ele><speed>14.59</speed><time>2017-04-09T12:58:01Z</time><pdop>3.0</pdop><geoidheight>0.00</geoidheight><course>255.5</course><type>1</type></trkpt>
      <trkpt lat="40.15154005" lon="-5.18388453"><ele>610</ele><speed>15.18</speed><time>2017-04-09T12:58:02Z</time><pdop>3.0</pdop><geoidheight>0.00</geoidheight><course>252.9</course><type>1</type></trkpt>
      <trkpt lat="40.15148562" lon="-5.18405754"><ele>609</ele><speed>15.80</speed><time>2017-04-09T12:58:03Z</time><pdop>3.0</pdop><geoidheight>0.00</geoidheight><course>249.8</course><type>1</type></trkpt>
      <trkpt lat="40.15142829" lon="-5.18422177"><ele>607</ele><speed>15.93</speed><time>2017-04-09T12:58:04Z</time><pdop>3.0</pdop><geoidheight>0.00</geoidheight><course>245.7</course><type>1</type></trkpt>
      <trkpt lat="40.15137188" lon="-5.18438659"><ele>606</ele><speed>15.21</speed><time>2017-04-09T12:58:05Z</time><pdop>3.0</pdop><geoidheight>0.00</geoidheight><course>242.4</course><type>1</type></trkpt>
      <trkpt lat="40.15130427" lon="-5.18454024"><ele>604</ele><speed>14.94</speed><time>2017-04-09T12:58:06Z</time><pdop>3.0</pdop><geoidheight>0.00</geoidheight><course>239.8</course><type>1</type></trkpt>
      <trkpt lat="40.15123003" lon="-5.18469344"><ele>603</ele><speed>15.68</speed><time>2017-04-09T12:58:07Z</time><pdop>3.0</pdop><geoidheight>0.00</geoidheight><course>235.8</course><type>1</type></trkpt>
      <trkpt lat="40.15113682" lon="-5.18483748"><ele>602</ele><speed>16.46</speed><time>2017-04-09T12:58:08Z</time><pdop>3.0</pdop><geoidheight>0.00</geoidheight><course>232.3</course><type>1</type></trkpt>
      <trkpt lat="40.15104093" lon="-5.18498224"><ele>603</ele><speed>15.30</speed><time>2017-04-09T12:58:09Z</time><pdop>3.0</pdop><geoidheight>0.00</geoidheight><course>229.1</course><type>1</type></trkpt>
      <trkpt lat="40.15095651" lon="-5.185118"><ele>605</ele><speed>14.00</speed><time>2017-04-09T12:58:10Z</time><pdop>3.0</pdop><geoidheight>0.00</geoidheight><course>228.1</course><type>1</type></trkpt>
      <trkpt lat="40.15087801" lon="-5.18522302"><ele>606</ele><speed>12.99</speed><time>2017-04-09T12:58:11Z</time><pdop>3.0</pdop><geoidheight>0.00</geoidheight><course>225.1</course><type>1</type></trkpt>
      <trkpt lat="40.15079586" lon="-5.18532838"><ele>606</ele><speed>12.65</speed><time>2017-04-09T12:58:12Z</time><pdop>3.0</pdop><geoidheight>0.00</geoidheight><course>223.8</course><type>1</type></trkpt>
      <trkpt lat="40.15072034" lon="-5.18544746"><ele>606</ele><speed>12.84</speed><time>2017-04-09T12:58:13Z</time><pdop>4.0</pdop><geoidheight>0.00</geoidheight><course>224.7</course><type>1</type></trkpt>
      <trkpt lat="40.15063012" lon="-5.185549"><ele>605</ele><speed>12.88</speed><time>2017-04-09T12:58:14Z</time><pdop>4.0</pdop><geoidheight>0.00</geoidheight><course>220.8</course><type>1</type></trkpt>
      <trkpt lat="40.15053001" lon="-5.1856278"><ele>604</ele><speed>12.96</speed><time>2017-04-09T12:58:15Z</time><pdop>4.0</pdop><geoidheight>0.00</geoidheight><course>210.5</course><type>1</type></trkpt>
      <trkpt lat="40.1504249" lon="-5.18568674"><ele>603</ele><speed>13.40</speed><time>2017-04-09T12:58:16Z</time><pdop>3.0</pdop><geoidheight>0.00</geoidheight><course>198.8</course><type>1</type></trkpt>
      <trkpt lat="40.15030243" lon="-5.18572369"><ele>602</ele><speed>14.04</speed><time>2017-04-09T12:58:17Z</time><pdop>3.0</pdop><geoidheight>0.00</geoidheight><course>190.9</course><type>1</type></trkpt>
      <trkpt lat="40.15018881" lon="-5.18574864"><ele>602</ele><speed>12.62</speed><time>2017-04-09T12:58:18Z</time><pdop>3.0</pdop><geoidheight>0.00</geoidheight><course>188.6</course><type>1</type></trkpt>
      <trkpt lat="40.15009054" lon="-5.18577855"><ele>603</ele><speed>11.82</speed><time>2017-04-09T12:58:19Z</time><pdop>3.0</pdop><geoidheight>0.00</geoidheight><course>195.7</course><type>1</type></trkpt>
      <trkpt lat="40.149996" lon="-5.18583318"><ele>604</ele><speed>11.03</speed><time>2017-04-09T12:58:20Z</time><pdop>3.0</pdop><geoidheight>0.00</geoidheight><course>199.9</course><type>1</type></trkpt>
      <trkpt lat="40.14989842" lon="-5.18588605"><ele>603</ele><speed>10.51</speed><time>2017-04-09T12:58:21Z</time><pdop>4.0</pdop><geoidheight>0.00</geoidheight><course>198.3</course><type>1</type></trkpt>
      <trkpt lat="40.14980567" lon="-5.18591468"><ele>602</ele><speed>10.54</speed><time>2017-04-09T12:58:22Z</time><pdop>4.0</pdop><geoidheight>0.00</geoidheight><course>192.9</course><type>1</type></trkpt>
      <trkpt lat="40.1497057" lon="-5.18593604"><ele>601</ele><speed>10.74</speed><time>2017-04-09T12:58:23Z</time><pdop>4.0</pdop><geoidheight>0.00</geoidheight><course>186.0</course><type>1</type></trkpt>
      <trkpt lat="40.1496058" lon="-5.18594731"><ele>600</ele><speed>10.78</speed><time>2017-04-09T12:58:24Z</time><pdop>4.0</pdop><geoidheight>0.00</geoidheight><course>184.0</course><type>1</type></trkpt>
      <trkpt lat="40.14951458" lon="-5.18595205"><ele>600</ele><speed>10.40</speed><time>2017-04-09T12:58:25Z</time><pdop>4.0</pdop><geoidheight>0.00</geoidheight><course>183.5</course><type>1</type></trkpt>
      <trkpt lat="40.14941395" lon="-5.18593979"><ele>599</ele><speed>9.12</speed><time>2017-04-09T12:58:26Z</time><pdop>4.0</pdop><geoidheight>0.00</geoidheight><course>178.2</course><type>1</type></trkpt>
      <trkpt lat="40.14933784" lon="-5.18593378"><ele>598</ele><speed>8.43</speed><time>2017-04-09T12:58:27Z</time><pdop>4.0</pdop><geoidheight>0.00</geoidheight><course>168.0</course><type>1</type></trkpt>
      <trkpt lat="40.1492563" lon="-5.18591108"><ele>596</ele><speed>8.51</speed><time>2017-04-09T12:58:28Z</time><pdop>4.0</pdop><geoidheight>0.00</geoidheight><course>160.0</course><type>1</type></trkpt>
      <trkpt lat="40.14918217" lon="-5.18586973"><ele>596</ele><speed>8.84</speed><time>2017-04-09T12:58:29Z</time><pdop>4.0</pdop><geoidheight>0.00</geoidheight><course>157.8</course><type>1</type></trkpt>
      <trkpt lat="40.14908844" lon="-5.18581785"><ele>594</ele><speed>8.81</speed><time>2017-04-09T12:58:30Z</time><pdop>4.0</pdop><geoidheight>0.00</geoidheight><course>153.5</course><type>1</type></trkpt>
      <trkpt lat="40.14902043" lon="-5.18576315"><ele>594</ele><speed>8.88</speed><time>2017-04-09T12:58:31Z</time><pdop>4.0</pdop><geoidheight>0.00</geoidheight><course>147.1</course><type>1</type></trkpt>
      <trkpt lat="40.14896047" lon="-5.18569925"><ele>594</ele><speed>8.78</speed><time>2017-04-09T12:58:32Z</time><pdop>4.0</pdop><geoidheight>0.00</geoidheight><course>137.1</course><type>1</type></trkpt>
      <trkpt lat="40.14891243" lon="-5.1856191"><ele>595</ele><speed>8.93</speed><time>2017-04-09T12:58:33Z</time><pdop>4.0</pdop><geoidheight>0.00</geoidheight><course>128.3</course><type>1</type></trkpt>
      <trkpt lat="40.1488679" lon="-5.18554247"><ele>597</ele><speed>8.36</speed><time>2017-04-09T12:58:34Z</time><pdop>3.0</pdop><geoidheight>0.00</geoidheight><course>125.2</course><type>1</type></trkpt>
      <trkpt lat="40.14882605" lon="-5.18546413"><ele>599</ele><speed>7.00</speed><time>2017-04-09T12:58:35Z</time><pdop>3.0</pdop><geoidheight>0.00</geoidheight><course>127.0</course><type>1</type></trkpt>
      <trkpt lat="40.14879871" lon="-5.18540152"><ele>600</ele><speed>6.24</speed><time>2017-04-09T12:58:36Z</time><pdop>3.0</pdop><geoidheight>0.00</geoidheight><course>124.2</course><type>1</type></trkpt>
      <trkpt lat="40.14872125" lon="-5.18529337"><ele>600</ele><speed>7.07</speed><time>2017-04-09T12:58:38Z</time><pdop>4.0</pdop><geoidheight>0.00</geoidheight><course>123.8</course><type>1</type></trkpt>
      <trkpt lat="40.14865343" lon="-5.18513755"><ele>602</ele><speed>8.26</speed><time>2017-04-09T12:58:40Z</time><pdop>4.0</pdop><geoidheight>0.00</geoidheight><course>121.3</course><type>1</type></trkpt>
      <trkpt lat="40.1485774" lon="-5.1849901"><ele>606</ele><speed>6.96</speed><time>2017-04-09T12:58:42Z</time><pdop>4.0</pdop><geoidheight>0.00</geoidheight><course>125.8</course><type>1</type></trkpt>
      <trkpt lat="40.14850962" lon="-5.18485231"><ele>608</ele><speed>7.57</speed><time>2017-04-09T12:58:44Z</time><pdop>4.0</pdop><geoidheight>0.00</geoidheight><course>123.1</course><type>1</type></trkpt>
      <trkpt lat="40.14843444" lon="-5.18469527"><ele>612</ele><speed>6.75</speed><time>2017-04-09T12:58:46Z</time><pdop>4.0</pdop><geoidheight>0.00</geoidheight><course>123.7</course><type>1</type></trkpt>
      <trkpt lat="40.14839656" lon="-5.18459323"><ele>616</ele><speed>3.07</speed><time>2017-04-09T12:58:48Z</time><pdop>4.0</pdop><geoidheight>0.00</geoidheight><course>94.0</course><type>1</type></trkpt>
      <trkpt lat="40.148408" lon="-5.18446715"><ele>614</ele><speed>3.08</speed><time>2017-04-09T12:58:51Z</time><pdop>3.0</pdop><geoidheight>0.00</geoidheight><course>83.2</course><type>1</type></trkpt>
      <trkpt lat="40.14847789" lon="-5.18442404"><ele>612</ele><speed>6.44</speed><time>2017-04-09T12:58:53Z</time><pdop>3.0</pdop><geoidheight>0.00</geoidheight><course>2.8</course><type>1</type></trkpt>
      <trkpt lat="40.14855464" lon="-5.18444269"><ele>612</ele><speed>9.32</speed><time>2017-04-09T12:58:54Z</time><pdop>3.0</pdop><geoidheight>0.00</geoidheight><course>340.1</course><type>1</type></trkpt>
      <trkpt lat="40.14868478" lon="-5.18455944"><ele>613</ele><speed>12.45</speed><time>2017-04-09T12:58:56Z</time><pdop>4.0</pdop><geoidheight>0.00</geoidheight><course>312.1</course><type>1</type></trkpt>
      <trkpt lat="40.14876106" lon="-5.18469558"><ele>614</ele><speed>12.66</speed><time>2017-04-09T12:58:57Z</time><pdop>4.0</pdop><geoidheight>0.00</geoidheight><course>299.6</course><type>1</type></trkpt>
      <trkpt lat="40.14881217" lon="-5.18484236"><ele>614</ele><speed>12.94</speed><time>2017-04-09T12:58:58Z</time><pdop>3.0</pdop><geoidheight>0.00</geoidheight><course>287.7</course><type>1</type></trkpt>
      <trkpt lat="40.14883854" lon="-5.18499642"><ele>615</ele><speed>13.42</speed><time>2017-04-09T12:58:59Z</time><pdop>3.0</pdop><geoidheight>0.00</geoidheight><course>282.1</course><type>1</type></trkpt>
      <trkpt lat="40.14884808" lon="-5.18515171"><ele>615</ele><speed>13.50</speed><time>2017-04-09T12:59:00Z</time><pdop>3.0</pdop><geoidheight>0.00</geoidheight><course>273.1</course><type>1</type></trkpt>
      <trkpt lat="40.14885973" lon="-5.18530798"><ele>614</ele><speed>13.17</speed><time>2017-04-09T12:59:01Z</time><pdop>3.0</pdop><geoidheight>0.00</geoidheight><course>271.1</course><type>1</type></trkpt>
      <trkpt lat="40.14885605" lon="-5.1854704"><ele>614</ele><speed>13.43</speed><time>2017-04-09T12:59:02Z</time><pdop>3.0</pdop><geoidheight>0.00</geoidheight><course>261.8</course><type>1</type></trkpt>
      <trkpt lat="40.14881916" lon="-5.18563264"><ele>613</ele><speed>14.03</speed><time>2017-04-09T12:59:03Z</time><pdop>3.0</pdop><geoidheight>0.00</geoidheight><course>253.2</course><type>1</type></trkpt>
      <trkpt lat="40.14878007" lon="-5.18579398"><ele>614</ele><speed>14.13</speed><time>2017-04-09T12:59:04Z</time><pdop>3.0</pdop><geoidheight>0.00</geoidheight><course>244.3</course><type>1</type></trkpt>
      <trkpt lat="40.14871895" lon="-5.18594181"><ele>615</ele><speed>14.16</speed><time>2017-04-09T12:59:05Z</time><pdop>3.0</pdop><geoidheight>0.00</geoidheight><course>237.2</course><type>1</type></trkpt>
      <trkpt lat="40.14865155" lon="-5.18606625"><ele>616</ele><speed>13.36</speed><time>2017-04-09T12:59:06Z</time><pdop>3.0</pdop><geoidheight>0.00</geoidheight><course>233.7</course><type>1</type></trkpt>
      <trkpt lat="40.1485866" lon="-5.1861932"><ele>618</ele><speed>12.41</speed><time>2017-04-09T12:59:07Z</time><pdop>3.0</pdop><geoidheight>0.00</geoidheight><course>234.6</course><type>1</type></trkpt>
      <trkpt lat="40.14852438" lon="-5.18630477"><ele>621</ele><speed>11.65</speed><time>2017-04-09T12:59:08Z</time><pdop>3.0</pdop><geoidheight>0.00</geoidheight><course>237.6</course><type>1</type></trkpt>
      <trkpt lat="40.14846874" lon="-5.18641935"><ele>623</ele><speed>11.52</speed><time>2017-04-09T12:59:09Z</time><pdop>3.0</pdop><geoidheight>0.00</geoidheight><course>237.7</course><type>1</type></trkpt>
      <trkpt lat="40.14841328" lon="-5.1865398"><ele>626</ele><speed>10.73</speed><time>2017-04-09T12:59:10Z</time><pdop>3.0</pdop><geoidheight>0.00</geoidheight><course>233.2</course><type>1</type></trkpt>
      <trkpt lat="40.14835409" lon="-5.18663702"><ele>628</ele><speed>10.12</speed><time>2017-04-09T12:59:11Z</time><pdop>3.0</pdop><geoidheight>0.00</geoidheight><course>226.4</course><type>1</type></trkpt>
      <trkpt lat="40.14828732" lon="-5.18671661"><ele>631</ele><speed>9.72</speed><time>2017-04-09T12:59:12Z</time><pdop>3.0</pdop><geoidheight>0.00</geoidheight><course>222.5</course><type>1</type></trkpt>
      <trkpt lat="40.14822276" lon="-5.18677343"><ele>633</ele><speed>9.11</speed><time>2017-04-09T12:59:13Z</time><pdop>3.0</pdop><geoidheight>0.00</geoidheight><course>187.0</course><type>1</type></trkpt>
      <trkpt lat="40.14814855" lon="-5.18682327"><ele>634</ele><speed>8.61</speed><time>2017-04-09T12:59:14Z</time><pdop>3.0</pdop><geoidheight>0.00</geoidheight><course>204.0</course><type>1</type></trkpt>
      <trkpt lat="40.14807181" lon="-5.18683874"><ele>634</ele><speed>8.45</speed><time>2017-04-09T12:59:15Z</time><pdop>3.0</pdop><geoidheight>0.00</geoidheight><course>188.2</course><type>1</type></trkpt>
      <trkpt lat="40.14799738" lon="-5.18684538"><ele>635</ele><speed>8.65</speed><time>2017-04-09T12:59:16Z</time><pdop>3.0</pdop><geoidheight>0.00</geoidheight><course>180.6</course><type>1</type></trkpt>
      <trkpt lat="40.14793113" lon="-5.18684191"><ele>637</ele><speed>8.74</speed><time>2017-04-09T12:59:17Z</time><pdop>3.0</pdop><geoidheight>0.00</geoidheight><course>179.8</course><type>1</type></trkpt>
      <trkpt lat="40.14785567" lon="-5.18684224"><ele>638</ele><speed>7.99</speed><time>2017-04-09T12:59:18Z</time><pdop>3.0</pdop><geoidheight>0.00</geoidheight><course>176.2</course><type>1</type></trkpt>
      <trkpt lat="40.14778062" lon="-5.18683974"><ele>640</ele><speed>7.44</speed><time>2017-04-09T12:59:19Z</time><pdop>3.0</pdop><geoidheight>0.00</geoidheight><course>172.8</course><type>1</type></trkpt>
      <trkpt lat="40.14772398" lon="-5.18683142"><ele>640</ele><speed>6.06</speed><time>2017-04-09T12:59:20Z</time><pdop>3.0</pdop><geoidheight>0.00</geoidheight><course>160.3</course><type>1</type></trkpt>
      <trkpt lat="40.14765902" lon="-5.18677742"><ele>642</ele><speed>2.97</speed><time>2017-04-09T12:59:22Z</time><pdop>3.0</pdop><geoidheight>0.00</geoidheight><course>93.3</course><type>1</type></trkpt>
      <trkpt lat="40.14772991" lon="-5.18674391"><ele>641</ele><speed>3.71</speed><time>2017-04-09T12:59:25Z</time><pdop>4.0</pdop><geoidheight>0.00</geoidheight><course>19.1</course><type>1</type></trkpt>
      <trkpt lat="40.14784174" lon="-5.18686263"><ele>638</ele><speed>9.16</speed><time>2017-04-09T12:59:27Z</time><pdop>4.0</pdop><geoidheight>0.00</geoidheight><course>307.9</course><type>1</type></trkpt>
      <trkpt lat="40.14789961" lon="-5.18696113"><ele>638</ele><speed>11.67</speed><time>2017-04-09T12:59:28Z</time><pdop>3.0</pdop><geoidheight>0.00</geoidheight><course>309.3</course><type>1</type></trkpt>
      <trkpt lat="40.1479774" lon="-5.18707688"><ele>638</ele><speed>13.34</speed><time>2017-04-09T12:59:29Z</time><pdop>3.0</pdop><geoidheight>0.00</geoidheight><course>310.8</course><type>1</type></trkpt>
      <trkpt lat="40.1480459" lon="-5.18719659"><ele>642</ele><speed>12.02</speed><time>2017-04-09T12:59:30Z</time><pdop>3.0</pdop><geoidheight>0.00</geoidheight><course>307.6</course><type>1</type></trkpt>
      <trkpt lat="40.14809936" lon="-5.18730387"><ele>646</ele><speed>9.45</speed><time>2017-04-09T12:59:31Z</time><pdop>3.0</pdop><geoidheight>0.00</geoidheight><course>297.1</course><type>1</type></trkpt>
      <trkpt lat="40.14812853" lon="-5.18739464"><ele>649</ele><speed>7.81</speed><time>2017-04-09T12:59:32Z</time><pdop>3.0</pdop><geoidheight>0.00</geoidheight><course>288.8</course><type>1</type></trkpt>
      <trkpt lat="40.14814884" lon="-5.1874881"><ele>651</ele><speed>8.39</speed><time>2017-04-09T12:59:33Z</time><pdop>3.0</pdop><geoidheight>0.00</geoidheight><course>282.6</course><type>1</type></trkpt>
      <trkpt lat="40.14816035" lon="-5.18759705"><ele>651</ele><speed>10.52</speed><time>2017-04-09T12:59:34Z</time><pdop>3.0</pdop><geoidheight>0.00</geoidheight><course>279.4</course><type>1</type></trkpt>
      <trkpt lat="40.14816809" lon="-5.18773662"><ele>651</ele><speed>12.55</speed><time>2017-04-09T12:59:35Z</time><pdop>3.0</pdop><geoidheight>0.00</geoidheight><course>272.1</course><type>1</type></trkpt>
      <trkpt lat="40.14817442" lon="-5.18789854"><ele>652</ele><speed>13.93</speed><time>2017-04-09T12:59:36Z</time><pdop>3.0</pdop><geoidheight>0.00</geoidheight><course>270.8</course><type>1</type></trkpt>
      <trkpt lat="40.14816921" lon="-5.18806384"><ele>654</ele><speed>13.63</speed><time>2017-04-09T12:59:37Z</time><pdop>4.0</pdop><geoidheight>0.00</geoidheight><course>266.7</course><type>1</type></trkpt>
      <trkpt lat="40.14815808" lon="-5.18820424"><ele>656</ele><speed>12.40</speed><time>2017-04-09T12:59:38Z</time><pdop>4.0</pdop><geoidheight>0.00</geoidheight><course>263.9</course><type>1</type></trkpt>
      <trkpt lat="40.14814469" lon="-5.18834369"><ele>659</ele><speed>11.34</speed><time>2017-04-09T12:59:39Z</time><pdop>3.0</pdop><geoidheight>0.00</geoidheight><course>261.2</course><type>1</type></trkpt>
      <trkpt lat="40.14813386" lon="-5.18847404"><ele>661</ele><speed>10.61</speed><time>2017-04-09T12:59:40Z</time><pdop>3.0</pdop><geoidheight>0.00</geoidheight><course>257.2</course><type>1</type></trkpt>
      <trkpt lat="40.14811292" lon="-5.18858402"><ele>663</ele><speed>10.29</speed><time>2017-04-09T12:59:41Z</time><pdop>3.0</pdop><geoidheight>0.00</geoidheight><course>247.8</course><type>1</type></trkpt>
      <trkpt lat="40.14804117" lon="-5.18869152"><ele>663</ele><speed>10.39</speed><time>2017-04-09T12:59:42Z</time><pdop>3.0</pdop><geoidheight>0.00</geoidheight><course>230.6</course><type>1</type></trkpt>
      <trkpt lat="40.14796504" lon="-5.18877382"><ele>663</ele><speed>10.97</speed><time>2017-04-09T12:59:43Z</time><pdop>4.0</pdop><geoidheight>0.00</geoidheight><course>206.7</course><type>1</type></trkpt>
      <trkpt lat="40.14787832" lon="-5.18879384"><ele>663</ele><speed>10.59</speed><time>2017-04-09T12:59:44Z</time><pdop>3.0</pdop><geoidheight>0.00</geoidheight><course>183.1</course><type>1</type></trkpt>
      <trkpt lat="40.14779808" lon="-5.18877526"><ele>665</ele><speed>9.39</speed><time>2017-04-09T12:59:45Z</time><pdop>3.0</pdop><geoidheight>0.00</geoidheight><course>157.3</course><type>1</type></trkpt>
      <trkpt lat="40.14774402" lon="-5.18871628"><ele>666</ele><speed>8.21</speed><time>2017-04-09T12:59:46Z</time><pdop>3.0</pdop><geoidheight>0.00</geoidheight><course>131.1</course><type>1</type></trkpt>
      <trkpt lat="40.14771596" lon="-5.18862323"><ele>667</ele><speed>7.82</speed><time>2017-04-09T12:59:47Z</time><pdop>3.0</pdop><geoidheight>0.00</geoidheight><course>99.3</course><type>1</type></trkpt>
      <trkpt lat="40.14772826" lon="-5.18851884"><ele>668</ele><speed>8.55</speed><time>2017-04-09T12:59:48Z</time><pdop>3.0</pdop><geoidheight>0.00</geoidheight><course>79.6</course><type>1</type></trkpt>
      <trkpt lat="40.14775383" lon="-5.18841829"><ele>669</ele><speed>8.78</speed><time>2017-04-09T12:59:49Z</time><pdop>3.0</pdop><geoidheight>0.00</geoidheight><course>72.5</course><type>1</type></trkpt>
      <trkpt lat="40.14777231" lon="-5.18832572"><ele>671</ele><speed>8.06</speed><time>2017-04-09T12:59:50Z</time><pdop>3.0</pdop><geoidheight>0.00</geoidheight><course>75.5</course><type>1</type></trkpt>
      <trkpt lat="40.14778676" lon="-5.18823314"><ele>673</ele><speed>7.54</speed><time>2017-04-09T12:59:51Z</time><pdop>3.0</pdop><geoidheight>0.00</geoidheight><course>80.6</course><type>1</type></trkpt>
      <trkpt lat="40.14780694" lon="-5.1881588"><ele>676</ele><speed>7.17</speed><time>2017-04-09T12:59:52Z</time><pdop>3.0</pdop><geoidheight>0.00</geoidheight><course>77.6</course><type>1</type></trkpt>
      <trkpt lat="40.1478269" lon="-5.1880874"><ele>676</ele><speed>6.80</speed><time>2017-04-09T12:59:53Z</time><pdop>3.0</pdop><geoidheight>0.00</geoidheight><course>69.3</course><type>1</type></trkpt>
      <trkpt lat="40.147861" lon="-5.18801937"><ele>678</ele><speed>6.86</speed><time>2017-04-09T12:59:54Z</time><pdop>3.0</pdop><geoidheight>0.00</geoidheight><course>51.6</course><type>1</type></trkpt>
      <trkpt lat="40.14790728" lon="-5.18795852"><ele>680</ele><speed>7.54</speed><time>2017-04-09T12:59:55Z</time><pdop>3.0</pdop><geoidheight>0.00</geoidheight><course>46.6</course><type>1</type></trkpt>
      <trkpt lat="40.14796084" lon="-5.18789237"><ele>683</ele><speed>6.78</speed><time>2017-04-09T12:59:56Z</time><pdop>3.0</pdop><geoidheight>0.00</geoidheight><course>40.3</course><type>1</type></trkpt>
      <trkpt lat="40.14800613" lon="-5.18784907"><ele>685</ele><speed>5.39</speed><time>2017-04-09T12:59:57Z</time><pdop>3.0</pdop><geoidheight>0.00</geoidheight><course>31.9</course><type>1</type></trkpt>
      <trkpt lat="40.14812471" lon="-5.18784592"><ele>687</ele><speed>8.16</speed><time>2017-04-09T12:59:59Z</time><pdop>3.0</pdop><geoidheight>0.00</geoidheight><course>348.5</course><type>1</type></trkpt>
      <trkpt lat="40.14820307" lon="-5.18789353"><ele>688</ele><speed>10.29</speed><time>2017-04-09T13:00:00Z</time><pdop>3.0</pdop><geoidheight>0.00</geoidheight><course>331.6</course><type>1</type></trkpt>
      <trkpt lat="40.14827799" lon="-5.18797164"><ele>689</ele><speed>11.52</speed><time>2017-04-09T13:00:01Z</time><pdop>3.0</pdop><geoidheight>0.00</geoidheight><course>316.0</course><type>1</type></trkpt>
      <trkpt lat="40.1483486" lon="-5.18807012"><ele>689</ele><speed>11.68</speed><time>2017-04-09T13:00:02Z</time><pdop>3.0</pdop><geoidheight>0.00</geoidheight><course>308.7</course><type>1</type></trkpt>
      <trkpt lat="40.14840646" lon="-5.18817866"><ele>690</ele><speed>11.31</speed><time>2017-04-09T13:00:03Z</time><pdop>3.0</pdop><geoidheight>0.00</geoidheight><course>302.3</course><type>1</type></trkpt>
      <trkpt lat="40.14845271" lon="-5.1883162"><ele>688</ele><speed>11.67</speed><time>2017-04-09T13:00:04Z</time><pdop>3.0</pdop><geoidheight>0.00</geoidheight><course>293.8</course><type>1</type></trkpt>
      <trkpt lat="40.14847465" lon="-5.18844765"><ele>688</ele><speed>13.30</speed><time>2017-04-09T13:00:05Z</time><pdop>3.0</pdop><geoidheight>0.00</geoidheight><course>280.1</course><type>1</type></trkpt>
      <trkpt lat="40.14846029" lon="-5.18861922"><ele>688</ele><speed>15.00</speed><time>2017-04-09T13:00:06Z</time><pdop>3.0</pdop><geoidheight>0.00</geoidheight><course>263.2</course><type>1</type></trkpt>
      <trkpt lat="40.14842952" lon="-5.18879374"><ele>689</ele><speed>15.29</speed><time>2017-04-09T13:00:07Z</time><pdop>3.0</pdop><geoidheight>0.00</geoidheight><course>253.1</course><type>1</type></trkpt>
      <trkpt lat="40.14839033" lon="-5.18895728"><ele>691</ele><speed>14.21</speed><time>2017-04-09T13:00:08Z</time><pdop>3.0</pdop><geoidheight>0.00</geoidheight><course>251.9</course><type>1</type></trkpt>
      <trkpt lat="40.14835143" lon="-5.1890935"><ele>692</ele><speed>13.09</speed><time>2017-04-09T13:00:09Z</time><pdop>3.0</pdop><geoidheight>0.00</geoidheight><course>252.3</course><type>1</type></trkpt>
      <trkpt lat="40.14832613" lon="-5.18924671"><ele>693</ele><speed>13.21</speed><time>2017-04-09T13:00:10Z</time><pdop>4.0</pdop><geoidheight>0.00</geoidheight><course>257.0</course><type>1</type></trkpt>
      <trkpt lat="40.14829364" lon="-5.18940338"><ele>694</ele><speed>14.11</speed><time>2017-04-09T13:00:11Z</time><pdop>4.0</pdop><geoidheight>0.00</geoidheight><course>255.7</course><type>1</type></trkpt>
      <trkpt lat="40.14824361" lon="-5.18955732"><ele>693</ele><speed>15.31</speed><time>2017-04-09T13:00:12Z</time><pdop>4.0</pdop><geoidheight>0.00</geoidheight><course>249.7</course><type>1</type></trkpt>
      <trkpt lat="40.14818961" lon="-5.18973048"><ele>694</ele><speed>16.02</speed><time>2017-04-09T13:00:13Z</time><pdop>4.0</pdop><geoidheight>0.00</geoidheight><course>249.4</course><type>1</type></trkpt>
      <trkpt lat="40.14815001" lon="-5.18991046"><ele>696</ele><speed>15.21</speed><time>2017-04-09T13:00:14Z</time><pdop>4.0</pdop><geoidheight>0.00</geoidheight><course>251.6</course><type>1</type></trkpt>
      <trkpt lat="40.14810983" lon="-5.19007379"><ele>697</ele><speed>14.33</speed><time>2017-04-09T13:00:15Z</time><pdop>4.0</pdop><geoidheight>0.00</geoidheight><course>248.9</course><type>1</type></trkpt>
      <trkpt lat="40.14807074" lon="-5.1902263"><ele>699</ele><speed>13.29</speed><time>2017-04-09T13:00:16Z</time><pdop>4.0</pdop><geoidheight>0.00</geoidheight><course>250.9</course><type>1</type></trkpt>
      <trkpt lat="40.14803118" lon="-5.190386"><ele>701</ele><speed>12.73</speed><time>2017-04-09T13:00:17Z</time><pdop>4.0</pdop><geoidheight>0.00</geoidheight><course>247.2</course><type>1</type></trkpt>
      <trkpt lat="40.14798728" lon="-5.19051253"><ele>702</ele><speed>12.34</speed><time>2017-04-09T13:00:18Z</time><pdop>4.0</pdop><geoidheight>0.00</geoidheight><course>245.4</course><type>1</type></trkpt>
      <trkpt lat="40.14794122" lon="-5.19064676"><ele>704</ele><speed>12.78</speed><time>2017-04-09T13:00:19Z</time><pdop>4.0</pdop><geoidheight>0.00</geoidheight><course>245.6</course><type>1</type></trkpt>
      <trkpt lat="40.14789318" lon="-5.19079905"><ele>706</ele><speed>12.80</speed><time>2017-04-09T13:00:20Z</time><pdop>4.0</pdop><geoidheight>0.00</geoidheight><course>245.3</course><type>1</type></trkpt>
      <trkpt lat="40.14784546" lon="-5.1909216"><ele>709</ele><speed>11.82</speed><time>2017-04-09T13:00:21Z</time><pdop>4.0</pdop><geoidheight>0.00</geoidheight><course>242.6</course><type>1</type></trkpt>
      <trkpt lat="40.14780212" lon="-5.19104674"><ele>712</ele><speed>11.16</speed><time>2017-04-09T13:00:22Z</time><pdop>3.0</pdop><geoidheight>0.00</geoidheight><course>242.1</course><type>1</type></trkpt>
      <trkpt lat="40.14774808" lon="-5.19116216"><ele>714</ele><speed>10.77</speed><time>2017-04-09T13:00:23Z</time><pdop>3.0</pdop><geoidheight>0.00</geoidheight><course>237.5</course><type>1</type></trkpt>
      <trkpt lat="40.14768408" lon="-5.19126719"><ele>715</ele><speed>10.43</speed><time>2017-04-09T13:00:24Z</time><pdop>3.0</pdop><geoidheight>0.00</geoidheight><course>226.9</course><type>1</type></trkpt>
      <trkpt lat="40.14761724" lon="-5.19133875"><ele>716</ele><speed>9.75</speed><time>2017-04-09T13:00:25Z</time><pdop>3.0</pdop><geoidheight>0.00</geoidheight><course>212.5</course><type>1</type></trkpt>
      <trkpt lat="40.14753319" lon="-5.19137708"><ele>716</ele><speed>9.50</speed><time>2017-04-09T13:00:26Z</time><pdop>4.0</pdop><geoidheight>0.00</geoidheight><course>194.1</course><type>1</type></trkpt>
      <trkpt lat="40.14743026" lon="-5.19129753"><ele>715</ele><speed>10.54</speed><time>2017-04-09T13:00:27Z</time><pdop>5.0</pdop><geoidheight>0.00</geoidheight><course>157.6</course><type>1</type></trkpt>
      <trkpt lat="40.14734677" lon="-5.19114587"><ele>714</ele><speed>8.48</speed><time>2017-04-09T13:00:29Z</time><pdop>4.0</pdop><geoidheight>0.00</geoidheight><course>100.9</course><type>1</type></trkpt>
      <trkpt lat="40.14736998" lon="-5.19098332"><ele>718</ele><speed>5.32</speed><time>2017-04-09T13:00:31Z</time><pdop>4.0</pdop><geoidheight>0.00</geoidheight><course>66.8</course><type>1</type></trkpt>
      <trkpt lat="40.14740118" lon="-5.19089541"><ele>721</ele><speed>4.26</speed><time>2017-04-09T13:00:33Z</time><pdop>4.0</pdop><geoidheight>0.00</geoidheight><course>71.9</course><type>1</type></trkpt>
      <trkpt lat="40.14745576" lon="-5.19078203"><ele>720</ele><speed>7.47</speed><time>2017-04-09T13:00:35Z</time><pdop>4.0</pdop><geoidheight>0.00</geoidheight><course>50.5</course><type>1</type></trkpt>
      <trkpt lat="40.14757438" lon="-5.19068121"><ele>721</ele><speed>8.72</speed><time>2017-04-09T13:00:37Z</time><pdop>4.0</pdop><geoidheight>0.00</geoidheight><course>3.0</course><type>1</type></trkpt>
      <trkpt lat="40.14765679" lon="-5.19072088"><ele>723</ele><speed>9.43</speed><time>2017-04-09T13:00:38Z</time><pdop>3.0</pdop><geoidheight>0.00</geoidheight><course>332.4</course><type>1</type></trkpt>
      <trkpt lat="40.14773428" lon="-5.19079015"><ele>722</ele><speed>10.31</speed><time>2017-04-09T13:00:39Z</time><pdop>3.0</pdop><geoidheight>0.00</geoidheight><course>309.4</course><type>1</type></trkpt>
      <trkpt lat="40.14779529" lon="-5.19088367"><ele>722</ele><speed>10.92</speed><time>2017-04-09T13:00:40Z</time><pdop>3.0</pdop><geoidheight>0.00</geoidheight><course>310.8</course><type>1</type></trkpt>
      <trkpt lat="40.14781025" lon="-5.19105273"><ele>721</ele><speed>13.67</speed><time>2017-04-09T13:00:41Z</time><pdop>4.0</pdop><geoidheight>0.00</geoidheight><course>275.8</course><type>1</type></trkpt>
      <trkpt lat="40.14780243" lon="-5.19123347"><ele>721</ele><speed>15.48</speed><time>2017-04-09T13:00:42Z</time><pdop>4.0</pdop><geoidheight>0.00</geoidheight><course>264.6</course><type>1</type></trkpt>
      <trkpt lat="40.14777657" lon="-5.19140648"><ele>722</ele><speed>15.75</speed><time>2017-04-09T13:00:43Z</time><pdop>4.0</pdop><geoidheight>0.00</geoidheight><course>257.3</course><type>1</type></trkpt>
      <trkpt lat="40.1477522" lon="-5.19158652"><ele>723</ele><speed>15.16</speed><time>2017-04-09T13:00:44Z</time><pdop>4.0</pdop><geoidheight>0.00</geoidheight><course>254.6</course><type>1</type></trkpt>
      <trkpt lat="40.14771585" lon="-5.19174036"><ele>724</ele><speed>14.63</speed><time>2017-04-09T13:00:45Z</time><pdop>3.0</pdop><geoidheight>0.00</geoidheight><course>254.8</course><type>1</type></trkpt>
      <trkpt lat="40.14768194" lon="-5.19190808"><ele>725</ele><speed>14.85</speed><time>2017-04-09T13:00:46Z</time><pdop>3.0</pdop><geoidheight>0.00</geoidheight><course>254.9</course><type>1</type></trkpt>
      <trkpt lat="40.1476433" lon="-5.19207668"><ele>727</ele><speed>15.21</speed><time>2017-04-09T13:00:47Z</time><pdop>3.0</pdop><geoidheight>0.00</geoidheight><course>253.5</course><type>1</type></trkpt>
      <trkpt lat="40.14759836" lon="-5.19223249"><ele>728</ele><speed>15.13</speed><time>2017-04-09T13:00:48Z</time><pdop>3.0</pdop><geoidheight>0.00</geoidheight><course>251.6</course><type>1</type></trkpt>
      <trkpt lat="40.14755169" lon="-5.19239418"><ele>729</ele><speed>15.15</speed><time>2017-04-09T13:00:49Z</time><pdop>3.0</pdop><geoidheight>0.00</geoidheight><course>251.0</course><type>1</type></trkpt>
      <trkpt lat="40.14750968" lon="-5.19256274"><ele>731</ele><speed>14.77</speed><time>2017-04-09T13:00:50Z</time><pdop>3.0</pdop><geoidheight>0.00</geoidheight><course>252.1</course><type>1</type></trkpt>
      <trkpt lat="40.14746719" lon="-5.19272888"><ele>733</ele><speed>13.62</speed><time>2017-04-09T13:00:51Z</time><pdop>3.0</pdop><geoidheight>0.00</geoidheight><course>252.1</course><type>1</type></trkpt>
      <trkpt lat="40.14742757" lon="-5.19287771"><ele>736</ele><speed>12.60</speed><time>2017-04-09T13:00:52Z</time><pdop>3.0</pdop><geoidheight>0.00</geoidheight><course>249.4</course><type>1</type></trkpt>
      <trkpt lat="40.1473913" lon="-5.19301661"><ele>738</ele><speed>12.14</speed><time>2017-04-09T13:00:53Z</time><pdop>3.0</pdop><geoidheight>0.00</geoidheight><course>245.7</course><type>1</type></trkpt>
      <trkpt lat="40.14733869" lon="-5.19314707"><ele>739</ele><speed>12.15</speed><time>2017-04-09T13:00:54Z</time><pdop>3.0</pdop><geoidheight>0.00</geoidheight><course>242.4</course><type>1</type></trkpt>
      <trkpt lat="40.14728523" lon="-5.19328362"><ele>739</ele><speed>12.42</speed><time>2017-04-09T13:00:55Z</time><pdop>3.0</pdop><geoidheight>0.00</geoidheight><course>241.4</course><type>1</type></trkpt>
      <trkpt lat="40.14723742" lon="-5.19341951"><ele>740</ele><speed>12.70</speed><time>2017-04-09T13:00:56Z</time><pdop>3.0</pdop><geoidheight>0.00</geoidheight><course>243.5</course><type>1</type></trkpt>
      <trkpt lat="40.14719261" lon="-5.19355144"><ele>740</ele><speed>13.32</speed><time>2017-04-09T13:00:57Z</time><pdop>3.0</pdop><geoidheight>0.00</geoidheight><course>249.5</course><type>1</type></trkpt>
      <trkpt lat="40.14715642" lon="-5.19370222"><ele>742</ele><speed>13.77</speed><time>2017-04-09T13:00:58Z</time><pdop>3.0</pdop><geoidheight>0.00</geoidheight><course>252.9</course><type>1</type></trkpt>
      <trkpt lat="40.14711653" lon="-5.19387219"><ele>743</ele><speed>14.15</speed><time>2017-04-09T13:00:59Z</time><pdop>3.0</pdop><geoidheight>0.00</geoidheight><course>249.7</course><type>1</type></trkpt>
      <trkpt lat="40.1470643" lon="-5.19401937"><ele>745</ele><speed>13.59</speed><time>2017-04-09T13:01:00Z</time><pdop>3.0</pdop><geoidheight>0.00</geoidheight><course>241.3</course><type>1</type></trkpt>
      <trkpt lat="40.14700454" lon="-5.19414796"><ele>746</ele><speed>12.39</speed><time>2017-04-09T13:01:01Z</time><pdop>3.0</pdop><geoidheight>0.00</geoidheight><course>235.8</course><type>1</type></trkpt>
      <trkpt lat="40.14694507" lon="-5.19426379"><ele>748</ele><speed>10.71</speed><time>2017-04-09T13:01:02Z</time><pdop>3.0</pdop><geoidheight>0.00</geoidheight><course>235.3</course><type>1</type></trkpt>
      <trkpt lat="40.14687287" lon="-5.19436488"><ele>749</ele><speed>9.57</speed><time>2017-04-09T13:01:03Z</time><pdop>3.0</pdop><geoidheight>0.00</geoidheight><course>230.3</course><type>1</type></trkpt>
      <trkpt lat="40.14681293" lon="-5.19444601"><ele>751</ele><speed>9.31</speed><time>2017-04-09T13:01:04Z</time><pdop>3.0</pdop><geoidheight>0.00</geoidheight><course>221.8</course><type>1</type></trkpt>
      <trkpt lat="40.1467391" lon="-5.19450344"><ele>750</ele><speed>9.41</speed><time>2017-04-09T13:01:05Z</time><pdop>3.0</pdop><geoidheight>0.00</geoidheight><course>209.9</course><type>1</type></trkpt>
      <trkpt lat="40.14666572" lon="-5.19455213"><ele>750</ele><speed>9.23</speed><time>2017-04-09T13:01:06Z</time><pdop>3.0</pdop><geoidheight>0.00</geoidheight><course>195.1</course><type>1</type></trkpt>
      <trkpt lat="40.14658528" lon="-5.1945578"><ele>749</ele><speed>8.42</speed><time>2017-04-09T13:01:07Z</time><pdop>3.0</pdop><geoidheight>0.00</geoidheight><course>174.0</course><type>1</type></trkpt>
      <trkpt lat="40.14651977" lon="-5.19452488"><ele>748</ele><speed>7.05</speed><time>2017-04-09T13:01:08Z</time><pdop>3.0</pdop><geoidheight>0.00</geoidheight><course>143.2</course><type>1</type></trkpt>
      <trkpt lat="40.14648015" lon="-5.19446629"><ele>748</ele><speed>6.18</speed><time>2017-04-09T13:01:09Z</time><pdop>3.0</pdop><geoidheight>0.00</geoidheight><course>117.8</course><type>1</type></trkpt>
      <trkpt lat="40.14647965" lon="-5.1943276"><ele>749</ele><speed>4.59</speed><time>2017-04-09T13:01:11Z</time><pdop>3.0</pdop><geoidheight>0.00</geoidheight><course>73.9</course><type>1</type></trkpt>
      <trkpt lat="40.14651198" lon="-5.19424925"><ele>750</ele><speed>3.49</speed><time>2017-04-09T13:01:13Z</time><pdop>3.0</pdop><geoidheight>0.00</geoidheight><course>63.7</course><type>1</type></trkpt>
      <trkpt lat="40.14657147" lon="-5.19419922"><ele>749</ele><speed>4.54</speed><time>2017-04-09T13:01:15Z</time><pdop>3.0</pdop><geoidheight>0.00</geoidheight><course>41.4</course><type>1</type></trkpt>
      <trkpt lat="40.14667092" lon="-5.19419947"><ele>748</ele><speed>9.34</speed><time>2017-04-09T13:01:16Z</time><pdop>3.0</pdop><geoidheight>0.00</geoidheight><course>351.8</course><type>1</type></trkpt>
      <trkpt lat="40.14675506" lon="-5.19426766"><ele>747</ele><speed>11.59</speed><time>2017-04-09T13:01:17Z</time><pdop>3.0</pdop><geoidheight>0.00</geoidheight><course>331.9</course><type>1</type></trkpt>
      <trkpt lat="40.1468301" lon="-5.19436364"><ele>748</ele><speed>12.49</speed><time>2017-04-09T13:01:18Z</time><pdop>3.0</pdop><geoidheight>0.00</geoidheight><course>313.2</course><type>1</type></trkpt>
      <trkpt lat="40.14689885" lon="-5.1945093"><ele>749</ele><speed>13.80</speed><time>2017-04-09T13:01:19Z</time><pdop>3.0</pdop><geoidheight>0.00</geoidheight><course>294.8</course><type>1</type></trkpt>
      <trkpt lat="40.14695584" lon="-5.19465558"><ele>748</ele><speed>14.38</speed><time>2017-04-09T13:01:20Z</time><pdop>3.0</pdop><geoidheight>0.00</geoidheight><course>284.8</course><type>1</type></trkpt>
      <trkpt lat="40.14698666" lon="-5.19481258"><ele>749</ele><speed>14.55</speed><time>2017-04-09T13:01:21Z</time><pdop>3.0</pdop><geoidheight>0.00</geoidheight><course>281.9</course><type>1</type></trkpt>
      <trkpt lat="40.14701735" lon="-5.19497734"><ele>751</ele><speed>14.34</speed><time>2017-04-09T13:01:22Z</time><pdop>3.0</pdop><geoidheight>0.00</geoidheight><course>283.5</course><type>1</type></trkpt>
      <trkpt lat="40.14705035" lon="-5.19513703"><ele>752</ele><speed>13.29</speed><time>2017-04-09T13:01:23Z</time><pdop>3.0</pdop><geoidheight>0.00</geoidheight><course>283.3</course><type>1</type></trkpt>
      <trkpt lat="40.14706484" lon="-5.19529525"><ele>752</ele><speed>12.90</speed><time>2017-04-09T13:01:24Z</time><pdop>3.0</pdop><geoidheight>0.00</geoidheight><course>276.6</course><type>1</type></trkpt>
      <trkpt lat="40.14706952" lon="-5.19544972"><ele>753</ele><speed>13.17</speed><time>2017-04-09T13:01:25Z</time><pdop>3.0</pdop><geoidheight>0.00</geoidheight><course>271.5</course><type>1</type></trkpt>
      <trkpt lat="40.14706757" lon="-5.19560333"><ele>754</ele><speed>13.18</speed><time>2017-04-09T13:01:26Z</time><pdop>3.0</pdop><geoidheight>0.00</geoidheight><course>266.6</course><type>1</type></trkpt>
      <trkpt lat="40.1470403" lon="-5.19576141"><ele>754</ele><speed>13.08</speed><time>2017-04-09T13:01:27Z</time><pdop>3.0</pdop><geoidheight>0.00</geoidheight><course>261.8</course><type>1</type></trkpt>
      <trkpt lat="40.14701652" lon="-5.19590877"><ele>755</ele><speed>12.79</speed><time>2017-04-09T13:01:28Z</time><pdop>3.0</pdop><geoidheight>0.00</geoidheight><course>257.9</course><type>1</type></trkpt>
      <trkpt lat="40.14699002" lon="-5.19605508"><ele>756</ele><speed>12.69</speed><time>2017-04-09T13:01:29Z</time><pdop>4.0</pdop><geoidheight>0.00</geoidheight><course>255.7</course><type>1</type></trkpt>
      <trkpt lat="40.14697097" lon="-5.19620677"><ele>757</ele><speed>12.59</speed><time>2017-04-09T13:01:30Z</time><pdop>4.0</pdop><geoidheight>0.00</geoidheight><course>258.9</course><type>1</type></trkpt>
      <trkpt lat="40.14695386" lon="-5.19634603"><ele>758</ele><speed>12.93</speed><time>2017-04-09T13:01:31Z</time><pdop>4.0</pdop><geoidheight>0.00</geoidheight><course>263.4</course><type>1</type></trkpt>
      <trkpt lat="40.146941" lon="-5.19649842"><ele>759</ele><speed>13.71</speed><time>2017-04-09T13:01:32Z</time><pdop>4.0</pdop><geoidheight>0.00</geoidheight><course>262.2</course><type>1</type></trkpt>
      <trkpt lat="40.14692577" lon="-5.19666923"><ele>759</ele><speed>14.68</speed><time>2017-04-09T13:01:33Z</time><pdop>4.0</pdop><geoidheight>0.00</geoidheight><course>259.3</course><type>1</type></trkpt>
      <trkpt lat="40.14689487" lon="-5.19683669"><ele>761</ele><speed>14.74</speed><time>2017-04-09T13:01:34Z</time><pdop>4.0</pdop><geoidheight>0.00</geoidheight><course>256.7</course><type>1</type></trkpt>
      <trkpt lat="40.14686955" lon="-5.19699648"><ele>762</ele><speed>14.24</speed><time>2017-04-09T13:01:35Z</time><pdop>3.0</pdop><geoidheight>0.00</geoidheight><course>258.0</course><type>1</type></trkpt>
      <trkpt lat="40.14684483" lon="-5.19715941"><ele>765</ele><speed>13.33</speed><time>2017-04-09T13:01:36Z</time><pdop>3.0</pdop><geoidheight>0.00</geoidheight><course>259.2</course><type>1</type></trkpt>
      <trkpt lat="40.14682253" lon="-5.19729543"><ele>766</ele><speed>12.62</speed><time>2017-04-09T13:01:37Z</time><pdop>3.0</pdop><geoidheight>0.00</geoidheight><course>258.6</course><type>1</type></trkpt>
      <trkpt lat="40.14679861" lon="-5.19744715"><ele>766</ele><speed>13.31</speed><time>2017-04-09T13:01:38Z</time><pdop>3.0</pdop><geoidheight>0.00</geoidheight><course>259.8</course><type>1</type></trkpt>
      <trkpt lat="40.14677492" lon="-5.19760282"><ele>767</ele><speed>14.29</speed><time>2017-04-09T13:01:39Z</time><pdop>3.0</pdop><geoidheight>0.00</geoidheight><course>255.8</course><type>1</type></trkpt>
      <trkpt lat="40.14674009" lon="-5.19775407"><ele>767</ele><speed>14.13</speed><time>2017-04-09T13:01:40Z</time><pdop>3.0</pdop><geoidheight>0.00</geoidheight><course>249.1</course><type>1</type></trkpt>
      <trkpt lat="40.14668939" lon="-5.1978973"><ele>767</ele><speed>13.54</speed><time>2017-04-09T13:01:41Z</time><pdop>3.0</pdop><geoidheight>0.00</geoidheight><course>238.3</course><type>1</type></trkpt>
      <trkpt lat="40.14661121" lon="-5.1980231"><ele>768</ele><speed>13.19</speed><time>2017-04-09T13:01:42Z</time><pdop>3.0</pdop><geoidheight>0.00</geoidheight><course>227.1</course><type>1</type></trkpt>
      <trkpt lat="40.1465205" lon="-5.19812272"><ele>768</ele><speed>12.50</speed><time>2017-04-09T13:01:43Z</time><pdop>3.0</pdop><geoidheight>0.00</geoidheight><course>216.1</course><type>1</type></trkpt>
      <trkpt lat="40.14642788" lon="-5.19819012"><ele>769</ele><speed>11.54</speed><time>2017-04-09T13:01:44Z</time><pdop>3.0</pdop><geoidheight>0.00</geoidheight><course>202.6</course><type>1</type></trkpt>
      <trkpt lat="40.14633011" lon="-5.19822797"><ele>770</ele><speed>10.81</speed><time>2017-04-09T13:01:45Z</time><pdop>3.0</pdop><geoidheight>0.00</geoidheight><course>196.2</course><type>1</type></trkpt>
      <trkpt lat="40.14623976" lon="-5.19822106"><ele>770</ele><speed>8.37</speed><time>2017-04-09T13:01:46Z</time><pdop>3.0</pdop><geoidheight>0.00</geoidheight><course>178.8</course><type>1</type></trkpt>
      <trkpt lat="40.14612531" lon="-5.19820287"><ele>772</ele><speed>5.59</speed><time>2017-04-09T13:01:48Z</time><pdop>4.0</pdop><geoidheight>0.00</geoidheight><course>163.8</course><type>1</type></trkpt>
      <trkpt lat="40.14603523" lon="-5.1981645"><ele>770</ele><speed>4.43</speed><time>2017-04-09T13:01:50Z</time><pdop>4.0</pdop><geoidheight>0.00</geoidheight><course>143.6</course><type>1</type></trkpt>
      <trkpt lat="40.14601642" lon="-5.19805808"><ele>770</ele><speed>6.28</speed><time>2017-04-09T13:01:52Z</time><pdop>4.0</pdop><geoidheight>0.00</geoidheight><course>71.5</course><type>1</type></trkpt>
      <trkpt lat="40.14609386" lon="-5.19792674"><ele>769</ele><speed>7.36</speed><time>2017-04-09T13:01:54Z</time><pdop>5.0</pdop><geoidheight>0.00</geoidheight><course>41.8</course><type>1</type></trkpt>
      <trkpt lat="40.14619164" lon="-5.19796778"><ele>770</ele><speed>9.56</speed><time>2017-04-09T13:01:55Z</time><pdop>5.0</pdop><geoidheight>0.00</geoidheight><course>347.7</course><type>1</type></trkpt>
      <trkpt lat="40.14635843" lon="-5.19807222"><ele>770</ele><speed>10.79</speed><time>2017-04-09T13:01:57Z</time><pdop>5.0</pdop><geoidheight>0.00</geoidheight><course>323.3</course><type>1</type></trkpt>
      <trkpt lat="40.1464385" lon="-5.19816861"><ele>771</ele><speed>12.28</speed><time>2017-04-09T13:01:58Z</time><pdop>5.0</pdop><geoidheight>0.00</geoidheight><course>314.8</course><type>1</type></trkpt>
      <trkpt lat="40.14652266" lon="-5.1982973"><ele>771</ele><speed>13.66</speed><time>2017-04-09T13:01:59Z</time><pdop>4.0</pdop><geoidheight>0.00</geoidheight><course>305.7</course><type>1</type></trkpt>
      <trkpt lat="40.14658588" lon="-5.19844687"><ele>773</ele><speed>13.86</speed><time>2017-04-09T13:02:00Z</time><pdop>4.0</pdop><geoidheight>0.00</geoidheight><course>290.8</course><type>1</type></trkpt>
      <trkpt lat="40.1465812" lon="-5.19859668"><ele>774</ele><speed>15.15</speed><time>2017-04-09T13:02:01Z</time><pdop>4.0</pdop><geoidheight>0.00</geoidheight><course>274.7</course><type>1</type></trkpt>
      <trkpt lat="40.14657881" lon="-5.19876777"><ele>775</ele><speed>14.64</speed><time>2017-04-09T13:02:02Z</time><pdop>4.0</pdop><geoidheight>0.00</geoidheight><course>258.4</course><type>1</type></trkpt>
      <trkpt lat="40.14654553" lon="-5.19893378"><ele>776</ele><speed>13.90</speed><time>2017-04-09T13:02:03Z</time><pdop>4.0</pdop><geoidheight>0.00</geoidheight><course>249.1</course><type>1</type></trkpt>
      <trkpt lat="40.14650108" lon="-5.19907061"><ele>778</ele><speed>13.07</speed><time>2017-04-09T13:02:04Z</time><pdop>4.0</pdop><geoidheight>0.00</geoidheight><course>245.3</course><type>1</type></trkpt>
      <trkpt lat="40.14645306" lon="-5.19921698"><ele>778</ele><speed>13.09</speed><time>2017-04-09T13:02:05Z</time><pdop>4.0</pdop><geoidheight>0.00</geoidheight><course>244.2</course><type>1</type></trkpt>
      <trkpt lat="40.14640678" lon="-5.19936522"><ele>777</ele><speed>14.30</speed><time>2017-04-09T13:02:06Z</time><pdop>3.0</pdop><geoidheight>0.00</geoidheight><course>244.6</course><type>1</type></trkpt>
      <trkpt lat="40.14634533" lon="-5.19952935"><ele>776</ele><speed>15.58</speed><time>2017-04-09T13:02:07Z</time><pdop>3.0</pdop><geoidheight>0.00</geoidheight><course>246.4</course><type>1</type></trkpt>
      <trkpt lat="40.14628727" lon="-5.19970524"><ele>776</ele><speed>15.93</speed><time>2017-04-09T13:02:08Z</time><pdop>3.0</pdop><geoidheight>0.00</geoidheight><course>247.0</course><type>1</type></trkpt>
      <trkpt lat="40.146236" lon="-5.19986847"><ele>777</ele><speed>14.84</speed><time>2017-04-09T13:02:09Z</time><pdop>3.0</pdop><geoidheight>0.00</geoidheight><course>247.7</course><type>1</type></trkpt>
      <trkpt lat="40.14619525" lon="-5.20002268"><ele>778</ele><speed>13.12</speed><time>2017-04-09T13:02:10Z</time><pdop>3.0</pdop><geoidheight>0.00</geoidheight><course>250.4</course><type>1</type></trkpt>
      <trkpt lat="40.14616064" lon="-5.20017076"><ele>778</ele><speed>12.63</speed><time>2017-04-09T13:02:11Z</time><pdop>3.0</pdop><geoidheight>0.00</geoidheight><course>253.4</course><type>1</type></trkpt>
      <trkpt lat="40.14613038" lon="-5.20032093"><ele>778</ele><speed>12.93</speed><time>2017-04-09T13:02:12Z</time><pdop>3.0</pdop><geoidheight>0.00</geoidheight><course>251.5</course><type>1</type></trkpt>
      <trkpt lat="40.14608998" lon="-5.20047401"><ele>777</ele><speed>13.63</speed><time>2017-04-09T13:02:13Z</time><pdop>3.0</pdop><geoidheight>0.00</geoidheight><course>247.7</course><type>1</type></trkpt>
      <trkpt lat="40.14603722" lon="-5.20062178"><ele>776</ele><speed>13.77</speed><time>2017-04-09T13:02:14Z</time><pdop>3.0</pdop><geoidheight>0.00</geoidheight><course>242.0</course><type>1</type></trkpt>
      <trkpt lat="40.14597384" lon="-5.20075241"><ele>776</ele><speed>13.18</speed><time>2017-04-09T13:02:15Z</time><pdop>3.0</pdop><geoidheight>0.00</geoidheight><course>236.9</course><type>1</type></trkpt>
      <trkpt lat="40.14589897" lon="-5.20087623"><ele>775</ele><speed>12.09</speed><time>2017-04-09T13:02:16Z</time><pdop>3.0</pdop><geoidheight>0.00</geoidheight><course>230.3</course><type>1</type></trkpt>
      <trkpt lat="40.14582943" lon="-5.20097469"><ele>775</ele><speed>10.82</speed><time>2017-04-09T13:02:17Z</time><pdop>3.0</pdop><geoidheight>0.00</geoidheight><course>179.2</course><type>1</type></trkpt>
      <trkpt lat="40.14575402" lon="-5.20104381"><ele>774</ele><speed>9.76</speed><time>2017-04-09T13:02:18Z</time><pdop>3.0</pdop><geoidheight>0.00</geoidheight><course>167.1</course><type>1</type></trkpt>
      <trkpt lat="40.1456675" lon="-5.20109494"><ele>772</ele><speed>9.07</speed><time>2017-04-09T13:02:19Z</time><pdop>3.0</pdop><geoidheight>0.00</geoidheight><course>155.5</course><type>1</type></trkpt>
      <trkpt lat="40.14557071" lon="-5.20114199"><ele>773</ele><speed>10.78</speed><time>2017-04-09T13:02:20Z</time><pdop>3.0</pdop><geoidheight>0.00</geoidheight><course>196.9</course><type>1</type></trkpt>
      <trkpt lat="40.14548815" lon="-5.20116809"><ele>773</ele><speed>9.49</speed><time>2017-04-09T13:02:21Z</time><pdop>3.0</pdop><geoidheight>0.00</geoidheight><course>189.8</course><type>1</type></trkpt>
      <trkpt lat="40.14541569" lon="-5.20117897"><ele>771</ele><speed>8.04</speed><time>2017-04-09T13:02:22Z</time><pdop>3.0</pdop><geoidheight>0.00</geoidheight><course>181.1</course><type>1</type></trkpt>
      <trkpt lat="40.14535145" lon="-5.20117362"><ele>771</ele><speed>7.25</speed><time>2017-04-09T13:02:23Z</time><pdop>3.0</pdop><geoidheight>0.00</geoidheight><course>169.1</course><type>1</type></trkpt>
      <trkpt lat="40.14524409" lon="-5.20112132"><ele>770</ele><speed>5.93</speed><time>2017-04-09T13:02:25Z</time><pdop>4.0</pdop><geoidheight>0.00</geoidheight><course>135.1</course><type>1</type></trkpt>
      <trkpt lat="40.14519787" lon="-5.20101855"><ele>768</ele><speed>5.35</speed><time>2017-04-09T13:02:27Z</time><pdop>4.0</pdop><geoidheight>0.00</geoidheight><course>99.6</course><type>1</type></trkpt>
      <trkpt lat="40.14516473" lon="-5.20090937"><ele>766</ele><speed>4.04</speed><time>2017-04-09T13:02:29Z</time><pdop>4.0</pdop><geoidheight>0.00</geoidheight><course>97.8</course><type>1</type></trkpt>
      <trkpt lat="40.14520944" lon="-5.20077744"><ele>763</ele><speed>5.88</speed><time>2017-04-09T13:02:32Z</time><pdop>4.0</pdop><geoidheight>0.00</geoidheight><course>55.7</course><type>1</type></trkpt>
      <trkpt lat="40.14530163" lon="-5.20068944"><ele>763</ele><speed>6.99</speed><time>2017-04-09T13:02:34Z</time><pdop>3.0</pdop><geoidheight>0.00</geoidheight><course>22.8</course><type>1</type></trkpt>
      <trkpt lat="40.1453908" lon="-5.20069328"><ele>762</ele><speed>9.82</speed><time>2017-04-09T13:02:35Z</time><pdop>3.0</pdop><geoidheight>0.00</geoidheight><course>346.1</course><type>1</type></trkpt>
      <trkpt lat="40.14548183" lon="-5.20075357"><ele>762</ele><speed>12.46</speed><time>2017-04-09T13:02:36Z</time><pdop>3.0</pdop><geoidheight>0.00</geoidheight><course>328.3</course><type>1</type></trkpt>
      <trkpt lat="40.14556699" lon="-5.20086011"><ele>761</ele><speed>13.69</speed><time>2017-04-09T13:02:37Z</time><pdop>3.0</pdop><geoidheight>0.00</geoidheight><course>314.8</course><type>1</type></trkpt>
      <trkpt lat="40.14564858" lon="-5.20099443"><ele>760</ele><speed>14.32</speed><time>2017-04-09T13:02:38Z</time><pdop>3.0</pdop><geoidheight>0.00</geoidheight><course>302.6</course><type>1</type></trkpt>
      <trkpt lat="40.14571159" lon="-5.20115282"><ele>760</ele><speed>15.12</speed><time>2017-04-09T13:02:39Z</time><pdop>3.0</pdop><geoidheight>0.00</geoidheight><course>291.1</course><type>1</type></trkpt>
      <trkpt lat="40.14575228" lon="-5.20131803"><ele>760</ele><speed>15.53</speed><time>2017-04-09T13:02:40Z</time><pdop>3.0</pdop><geoidheight>0.00</geoidheight><course>283.6</course><type>1</type></trkpt>
      <trkpt lat="40.14577452" lon="-5.20149143"><ele>760</ele><speed>14.40</speed><time>2017-04-09T13:02:41Z</time><pdop>3.0</pdop><geoidheight>0.00</geoidheight><course>276.8</course><type>1</type></trkpt>
      <trkpt lat="40.14577936" lon="-5.2016588"><ele>759</ele><speed>13.50</speed><time>2017-04-09T13:02:42Z</time><pdop>3.0</pdop><geoidheight>0.00</geoidheight><course>268.1</course><type>1</type></trkpt>
      <trkpt lat="40.14577384" lon="-5.20182436"><ele>758</ele><speed>13.33</speed><time>2017-04-09T13:02:43Z</time><pdop>3.0</pdop><geoidheight>0.00</geoidheight><course>257.7</course><type>1</type></trkpt>
      <trkpt lat="40.14573858" lon="-5.20197372"><ele>757</ele><speed>13.57</speed><time>2017-04-09T13:02:44Z</time><pdop>3.0</pdop><geoidheight>0.00</geoidheight><course>248.8</course><type>1</type></trkpt>
      <trkpt lat="40.14569225" lon="-5.20212048"><ele>756</ele><speed>14.19</speed><time>2017-04-09T13:02:45Z</time><pdop>3.0</pdop><geoidheight>0.00</geoidheight><course>244.0</course><type>1</type></trkpt>
      <trkpt lat="40.14563986" lon="-5.20227583"><ele>754</ele><speed>14.97</speed><time>2017-04-09T13:02:46Z</time><pdop>3.0</pdop><geoidheight>0.00</geoidheight><course>241.6</course><type>1</type></trkpt>
      <trkpt lat="40.14558025" lon="-5.20243472"><ele>754</ele><speed>14.89</speed><time>2017-04-09T13:02:47Z</time><pdop>3.0</pdop><geoidheight>0.00</geoidheight><course>239.8</course><type>1</type></trkpt>
      <trkpt lat="40.14551864" lon="-5.20258272"><ele>753</ele><speed>14.28</speed><time>2017-04-09T13:02:48Z</time><pdop>3.0</pdop><geoidheight>0.00</geoidheight><course>239.6</course><type>1</type></trkpt>
      <trkpt lat="40.14545542" lon="-5.20272787"><ele>752</ele><speed>13.88</speed><time>2017-04-09T13:02:49Z</time><pdop>3.0</pdop><geoidheight>0.00</geoidheight><course>240.5</course><type>1</type></trkpt>
      <trkpt lat="40.14539192" lon="-5.20288104"><ele>750</ele><speed>14.75</speed><time>2017-04-09T13:02:50Z</time><pdop>3.0</pdop><geoidheight>0.00</geoidheight><course>242.7</course><type>1</type></trkpt>
      <trkpt lat="40.14532721" lon="-5.20305065"><ele>749</ele><speed>16.22</speed><time>2017-04-09T13:02:51Z</time><pdop>3.0</pdop><geoidheight>0.00</geoidheight><course>243.3</course><type>1</type></trkpt>
      <trkpt lat="40.14525404" lon="-5.20322072"><ele>746</ele><speed>16.67</speed><time>2017-04-09T13:02:52Z</time><pdop>3.0</pdop><geoidheight>0.00</geoidheight><course>238.2</course><type>1</type></trkpt>
      <trkpt lat="40.14517127" lon="-5.20338119"><ele>743</ele><speed>16.95</speed><time>2017-04-09T13:02:53Z</time><pdop>3.0</pdop><geoidheight>0.00</geoidheight><course>233.7</course><type>1</type></trkpt>
      <trkpt lat="40.14508499" lon="-5.20354215"><ele>742</ele><speed>16.65</speed><time>2017-04-09T13:02:54Z</time><pdop>3.0</pdop><geoidheight>0.00</geoidheight><course>234.1</course><type>1</type></trkpt>
      <trkpt lat="40.14500147" lon="-5.20369468"><ele>742</ele><speed>15.84</speed><time>2017-04-09T13:02:55Z</time><pdop>3.0</pdop><geoidheight>0.00</geoidheight><course>236.1</course><type>1</type></trkpt>
      <trkpt lat="40.14493527" lon="-5.20384284"><ele>740</ele><speed>14.75</speed><time>2017-04-09T13:02:56Z</time><pdop>3.0</pdop><geoidheight>0.00</geoidheight><course>239.9</course><type>1</type></trkpt>
      <trkpt lat="40.14487345" lon="-5.20398477"><ele>738</ele><speed>14.40</speed><time>2017-04-09T13:02:57Z</time><pdop>3.0</pdop><geoidheight>0.00</geoidheight><course>238.0</course><type>1</type></trkpt>
      <trkpt lat="40.14479566" lon="-5.20412892"><ele>735</ele><speed>15.20</speed><time>2017-04-09T13:02:58Z</time><pdop>3.0</pdop><geoidheight>0.00</geoidheight><course>234.5</course><type>1</type></trkpt>
      <trkpt lat="40.14470795" lon="-5.20428179"><ele>732</ele><speed>16.25</speed><time>2017-04-09T13:02:59Z</time><pdop>3.0</pdop><geoidheight>0.00</geoidheight><course>231.5</course><type>1</type></trkpt>
      <trkpt lat="40.14461354" lon="-5.2044321"><ele>730</ele><speed>16.56</speed><time>2017-04-09T13:03:00Z</time><pdop>3.0</pdop><geoidheight>0.00</geoidheight><course>228.5</course><type>1</type></trkpt>
      <trkpt lat="40.14451604" lon="-5.20457629"><ele>729</ele><speed>16.02</speed><time>2017-04-09T13:03:01Z</time><pdop>3.0</pdop><geoidheight>0.00</geoidheight><course>226.0</course><type>1</type></trkpt>
      <trkpt lat="40.14441637" lon="-5.20470863"><ele>729</ele><speed>15.10</speed><time>2017-04-09T13:03:02Z</time><pdop>3.0</pdop><geoidheight>0.00</geoidheight><course>222.0</course><type>1</type></trkpt>
      <trkpt lat="40.14432327" lon="-5.20482931"><ele>728</ele><speed>14.77</speed><time>2017-04-09T13:03:03Z</time><pdop>3.0</pdop><geoidheight>0.00</geoidheight><course>222.0</course><type>1</type></trkpt>
      <trkpt lat="40.14422269" lon="-5.20494683"><ele>727</ele><speed>15.00</speed><time>2017-04-09T13:03:04Z</time><pdop>3.0</pdop><geoidheight>0.00</geoidheight><course>223.8</course><type>1</type></trkpt>
      <trkpt lat="40.14412147" lon="-5.20507343"><ele>726</ele><speed>15.74</speed><time>2017-04-09T13:03:05Z</time><pdop>3.0</pdop><geoidheight>0.00</geoidheight><course>226.4</course><type>1</type></trkpt>
      <trkpt lat="40.14402641" lon="-5.20519423"><ele>724</ele><speed>16.44</speed><time>2017-04-09T13:03:06Z</time><pdop>3.0</pdop><geoidheight>0.00</geoidheight><course>225.5</course><type>1</type></trkpt>
      <trkpt lat="40.14391789" lon="-5.20532264"><ele>723</ele><speed>16.65</speed><time>2017-04-09T13:03:07Z</time><pdop>3.0</pdop><geoidheight>0.00</geoidheight><course>223.5</course><type>1</type></trkpt>
      <trkpt lat="40.14381403" lon="-5.20546738"><ele>723</ele><speed>16.77</speed><time>2017-04-09T13:03:08Z</time><pdop>3.0</pdop><geoidheight>0.00</geoidheight><course>223.1</course><type>1</type></trkpt>
      <trkpt lat="40.14370136" lon="-5.20560688"><ele>723</ele><speed>16.79</speed><time>2017-04-09T13:03:09Z</time><pdop>3.0</pdop><geoidheight>0.00</geoidheight><course>224.2</course><type>1</type></trkpt>
      <trkpt lat="40.14359383" lon="-5.20575407"><ele>723</ele><speed>16.66</speed><time>2017-04-09T13:03:10Z</time><pdop>3.0</pdop><geoidheight>0.00</geoidheight><course>224.6</course><type>1</type></trkpt>
      <trkpt lat="40.14348799" lon="-5.20589343"><ele>723</ele><speed>16.38</speed><time>2017-04-09T13:03:11Z</time><pdop>3.0</pdop><geoidheight>0.00</geoidheight><course>223.9</course><type>1</type></trkpt>
      <trkpt lat="40.14337614" lon="-5.20601947"><ele>723</ele><speed>16.13</speed><time>2017-04-09T13:03:12Z</time><pdop>4.0</pdop><geoidheight>0.00</geoidheight><course>221.3</course><type>1</type></trkpt>
      <trkpt lat="40.14326051" lon="-5.20613781"><ele>724</ele><speed>16.04</speed><time>2017-04-09T13:03:13Z</time><pdop>4.0</pdop><geoidheight>0.00</geoidheight><course>217.3</course><type>1</type></trkpt>
      <trkpt lat="40.14315007" lon="-5.2062363"><ele>723</ele><speed>15.77</speed><time>2017-04-09T13:03:14Z</time><pdop>4.0</pdop><geoidheight>0.00</geoidheight><course>222.1</course><type>1</type></trkpt>
      <trkpt lat="40.14304612" lon="-5.20636669"><ele>723</ele><speed>16.08</speed><time>2017-04-09T13:03:15Z</time><pdop>4.0</pdop><geoidheight>0.00</geoidheight><course>225.5</course><type>1</type></trkpt>
      <trkpt lat="40.14294919" lon="-5.20649692"><ele>721</ele><speed>16.28</speed><time>2017-04-09T13:03:16Z</time><pdop>4.0</pdop><geoidheight>0.00</geoidheight><course>227.4</course><type>1</type></trkpt>
      <trkpt lat="40.14285196" lon="-5.20663771"><ele>720</ele><speed>15.95</speed><time>2017-04-09T13:03:17Z</time><pdop>3.0</pdop><geoidheight>0.00</geoidheight><course>229.2</course><type>1</type></trkpt>
      <trkpt lat="40.14275838" lon="-5.20676886"><ele>718</ele><speed>15.69</speed><time>2017-04-09T13:03:18Z</time><pdop>3.0</pdop><geoidheight>0.00</geoidheight><course>228.7</course><type>1</type></trkpt>
      <trkpt lat="40.1426626" lon="-5.20691418"><ele>717</ele><speed>16.01</speed><time>2017-04-09T13:03:19Z</time><pdop>3.0</pdop><geoidheight>0.00</geoidheight><course>230.0</course><type>1</type></trkpt>
      <trkpt lat="40.14256472" lon="-5.20705274"><ele>714</ele><speed>15.83</speed><time>2017-04-09T13:03:20Z</time><pdop>3.0</pdop><geoidheight>0.00</geoidheight><course>228.4</course><type>1</type></trkpt>
      <trkpt lat="40.14246855" lon="-5.20719177"><ele>712</ele><speed>15.99</speed><time>2017-04-09T13:03:21Z</time><pdop>3.0</pdop><geoidheight>0.00</geoidheight><course>226.8</course><type>1</type></trkpt>
      <trkpt lat="40.14237117" lon="-5.2073283"><ele>710</ele><speed>15.83</speed><time>2017-04-09T13:03:22Z</time><pdop>3.0</pdop><geoidheight>0.00</geoidheight><course>227.1</course><type>1</type></trkpt>
      <trkpt lat="40.14227101" lon="-5.20746458"><ele>708</ele><speed>15.59</speed><time>2017-04-09T13:03:23Z</time><pdop>3.0</pdop><geoidheight>0.00</geoidheight><course>227.1</course><type>1</type></trkpt>
      <trkpt lat="40.14217164" lon="-5.20759952"><ele>706</ele><speed>15.47</speed><time>2017-04-09T13:03:24Z</time><pdop>3.0</pdop><geoidheight>0.00</geoidheight><course>226.9</course><type>1</type></trkpt>
      <trkpt lat="40.14207813" lon="-5.20773039"><ele>704</ele><speed>15.51</speed><time>2017-04-09T13:03:25Z</time><pdop>3.0</pdop><geoidheight>0.00</geoidheight><course>224.6</course><type>1</type></trkpt>
      <trkpt lat="40.14197926" lon="-5.20785526"><ele>701</ele><speed>15.52</speed><time>2017-04-09T13:03:26Z</time><pdop>3.0</pdop><geoidheight>0.00</geoidheight><course>223.9</course><type>1</type></trkpt>
      <trkpt lat="40.14188312" lon="-5.20799229"><ele>699</ele><speed>15.39</speed><time>2017-04-09T13:03:27Z</time><pdop>3.0</pdop><geoidheight>0.00</geoidheight><course>225.5</course><type>1</type></trkpt>
      <trkpt lat="40.14179183" lon="-5.20812852"><ele>696</ele><speed>15.14</speed><time>2017-04-09T13:03:28Z</time><pdop>3.0</pdop><geoidheight>0.00</geoidheight><course>227.0</course><type>1</type></trkpt>
      <trkpt lat="40.14169278" lon="-5.20825619"><ele>693</ele><speed>15.31</speed><time>2017-04-09T13:03:29Z</time><pdop>3.0</pdop><geoidheight>0.00</geoidheight><course>226.8</course><type>1</type></trkpt>
      <trkpt lat="40.14159538" lon="-5.20838868"><ele>689</ele><speed>15.61</speed><time>2017-04-09T13:03:30Z</time><pdop>3.0</pdop><geoidheight>0.00</geoidheight><course>226.7</course><type>1</type></trkpt>
      <trkpt lat="40.14149062" lon="-5.20851761"><ele>686</ele><speed>16.04</speed><time>2017-04-09T13:03:31Z</time><pdop>3.0</pdop><geoidheight>0.00</geoidheight><course>226.1</course><type>1</type></trkpt>
      <trkpt lat="40.14138324" lon="-5.20864391"><ele>683</ele><speed>16.01</speed><time>2017-04-09T13:03:32Z</time><pdop>3.0</pdop><geoidheight>0.00</geoidheight><course>223.2</course><type>1</type></trkpt>
      <trkpt lat="40.14128091" lon="-5.2087818"><ele>681</ele><speed>15.92</speed><time>2017-04-09T13:03:33Z</time><pdop>4.0</pdop><geoidheight>0.00</geoidheight><course>224.3</course><type>1</type></trkpt>
      <trkpt lat="40.14117523" lon="-5.2089194"><ele>680</ele><speed>16.00</speed><time>2017-04-09T13:03:34Z</time><pdop>4.0</pdop><geoidheight>0.00</geoidheight><course>226.1</course><type>1</type></trkpt>
      <trkpt lat="40.14107972" lon="-5.20905542"><ele>677</ele><speed>16.18</speed><time>2017-04-09T13:03:35Z</time><pdop>4.0</pdop><geoidheight>0.00</geoidheight><course>225.3</course><type>1</type></trkpt>
      <trkpt lat="40.14097728" lon="-5.20919309"><ele>675</ele><speed>16.46</speed><time>2017-04-09T13:03:36Z</time><pdop>4.0</pdop><geoidheight>0.00</geoidheight><course>224.9</course><type>1</type></trkpt>
      <trkpt lat="40.14086635" lon="-5.20932637"><ele>674</ele><speed>17.25</speed><time>2017-04-09T13:03:37Z</time><pdop>4.0</pdop><geoidheight>0.00</geoidheight><course>223.9</course><type>1</type></trkpt>
      <trkpt lat="40.14076752" lon="-5.20946377"><ele>672</ele><speed>16.96</speed><time>2017-04-09T13:03:38Z</time><pdop>4.0</pdop><geoidheight>0.00</geoidheight><course>227.9</course><type>1</type></trkpt>
      <trkpt lat="40.14066781" lon="-5.20962006"><ele>672</ele><speed>16.57</speed><time>2017-04-09T13:03:39Z</time><pdop>4.0</pdop><geoidheight>0.00</geoidheight><course>228.9</course><type>1</type></trkpt>
      <trkpt lat="40.14058243" lon="-5.20975282"><ele>670</ele><speed>15.69</speed><time>2017-04-09T13:03:40Z</time><pdop>4.0</pdop><geoidheight>0.00</geoidheight><course>232.1</course><type>1</type></trkpt>
      <trkpt lat="40.14047281" lon="-5.20989292"><ele>669</ele><speed>15.19</speed><time>2017-04-09T13:03:41Z</time><pdop>4.0</pdop><geoidheight>0.00</geoidheight><course>230.1</course><type>1</type></trkpt>
      <trkpt lat="40.14037746" lon="-5.21003075"><ele>668</ele><speed>15.95</speed><time>2017-04-09T13:03:42Z</time><pdop>4.0</pdop><geoidheight>0.00</geoidheight><course>227.2</course><type>1</type></trkpt>
      <trkpt lat="40.14027764" lon="-5.21016042"><ele>667</ele><speed>16.76</speed><time>2017-04-09T13:03:43Z</time><pdop>4.0</pdop><geoidheight>0.00</geoidheight><course>225.8</course><type>1</type></trkpt>
      <trkpt lat="40.14018322" lon="-5.21030544"><ele>666</ele><speed>17.03</speed><time>2017-04-09T13:03:44Z</time><pdop>4.0</pdop><geoidheight>0.00</geoidheight><course>229.0</course><type>1</type></trkpt>
      <trkpt lat="40.14008483" lon="-5.2104476"><ele>665</ele><speed>17.23</speed><time>2017-04-09T13:03:45Z</time><pdop>3.0</pdop><geoidheight>0.00</geoidheight><course>231.2</course><type>1</type></trkpt>
      <trkpt lat="40.13998577" lon="-5.21060931"><ele>665</ele><speed>17.44</speed><time>2017-04-09T13:03:46Z</time><pdop>3.0</pdop><geoidheight>0.00</geoidheight><course>229.2</course><type>1</type></trkpt>
      <trkpt lat="40.13987958" lon="-5.21075062"><ele>665</ele><speed>17.64</speed><time>2017-04-09T13:03:47Z</time><pdop>4.0</pdop><geoidheight>0.00</geoidheight><course>226.1</course><type>1</type></trkpt>
      <trkpt lat="40.13974904" lon="-5.21089493"><ele>665</ele><speed>17.17</speed><time>2017-04-09T13:03:48Z</time><pdop>3.0</pdop><geoidheight>0.00</geoidheight><course>226.2</course><type>1</type></trkpt>
      <trkpt lat="40.1396384" lon="-5.21104236"><ele>664</ele><speed>16.70</speed><time>2017-04-09T13:03:49Z</time><pdop>4.0</pdop><geoidheight>0.00</geoidheight><course>228.0</course><type>1</type></trkpt>
      <trkpt lat="40.13954145" lon="-5.21118959"><ele>663</ele><speed>16.29</speed><time>2017-04-09T13:03:50Z</time><pdop>4.0</pdop><geoidheight>0.00</geoidheight><course>228.2</course><type>1</type></trkpt>
      <trkpt lat="40.139442" lon="-5.21133793"><ele>662</ele><speed>17.14</speed><time>2017-04-09T13:03:51Z</time><pdop>4.0</pdop><geoidheight>0.00</geoidheight><course>227.1</course><type>1</type></trkpt>
      <trkpt lat="40.13933576" lon="-5.21148649"><ele>660</ele><speed>16.93</speed><time>2017-04-09T13:03:52Z</time><pdop>3.0</pdop><geoidheight>0.00</geoidheight><course>226.9</course><type>1</type></trkpt>
      <trkpt lat="40.13922987" lon="-5.21162846"><ele>657</ele><speed>17.54</speed><time>2017-04-09T13:03:53Z</time><pdop>3.0</pdop><geoidheight>0.00</geoidheight><course>224.8</course><type>1</type></trkpt>
      <trkpt lat="40.1391213" lon="-5.21176256"><ele>653</ele><speed>17.79</speed><time>2017-04-09T13:03:54Z</time><pdop>3.0</pdop><geoidheight>0.00</geoidheight><course>221.9</course><type>1</type></trkpt>
      <trkpt lat="40.13900442" lon="-5.21190063"><ele>653</ele><speed>17.65</speed><time>2017-04-09T13:03:55Z</time><pdop>3.0</pdop><geoidheight>0.00</geoidheight><course>220.6</course><type>1</type></trkpt>
      <trkpt lat="40.13888996" lon="-5.21204382"><ele>651</ele><speed>17.65</speed><time>2017-04-09T13:03:56Z</time><pdop>3.0</pdop><geoidheight>0.00</geoidheight><course>222.7</course><type>1</type></trkpt>
      <trkpt lat="40.13876826" lon="-5.21218742"><ele>651</ele><speed>18.03</speed><time>2017-04-09T13:03:57Z</time><pdop>4.0</pdop><geoidheight>0.00</geoidheight><course>222.8</course><type>1</type></trkpt>
      <trkpt lat="40.13864395" lon="-5.21233063"><ele>649</ele><speed>17.60</speed><time>2017-04-09T13:03:58Z</time><pdop>4.0</pdop><geoidheight>0.00</geoidheight><course>221.6</course><type>1</type></trkpt>
      <trkpt lat="40.13852329" lon="-5.21247198"><ele>649</ele><speed>17.47</speed><time>2017-04-09T13:03:59Z</time><pdop>4.0</pdop><geoidheight>0.00</geoidheight><course>219.5</course><type>1</type></trkpt>
      <trkpt lat="40.13841432" lon="-5.2126042"><ele>647</ele><speed>17.07</speed><time>2017-04-09T13:04:00Z</time><pdop>4.0</pdop><geoidheight>0.00</geoidheight><course>218.6</course><type>1</type></trkpt>
      <trkpt lat="40.13829891" lon="-5.21272609"><ele>645</ele><speed>16.39</speed><time>2017-04-09T13:04:01Z</time><pdop>4.0</pdop><geoidheight>0.00</geoidheight><course>220.1</course><type>1</type></trkpt>
      <trkpt lat="40.13818411" lon="-5.21284799"><ele>644</ele><speed>16.30</speed><time>2017-04-09T13:04:02Z</time><pdop>3.0</pdop><geoidheight>0.00</geoidheight><course>223.5</course><type>1</type></trkpt>
      <trkpt lat="40.13808716" lon="-5.2129733"><ele>642</ele><speed>15.37</speed><time>2017-04-09T13:04:03Z</time><pdop>4.0</pdop><geoidheight>0.00</geoidheight><course>223.8</course><type>1</type></trkpt>
      <trkpt lat="40.13798061" lon="-5.2130998"><ele>640</ele><speed>15.63</speed><time>2017-04-09T13:04:04Z</time><pdop>4.0</pdop><geoidheight>0.00</geoidheight><course>220.6</course><type>1</type></trkpt>
      <trkpt lat="40.13787494" lon="-5.21322711"><ele>638</ele><speed>16.04</speed><time>2017-04-09T13:04:05Z</time><pdop>4.0</pdop><geoidheight>0.00</geoidheight><course>223.1</course><type>1</type></trkpt>
      <trkpt lat="40.1377734" lon="-5.21334502"><ele>636</ele><speed>16.40</speed><time>2017-04-09T13:04:06Z</time><pdop>4.0</pdop><geoidheight>0.00</geoidheight><course>223.4</course><type>1</type></trkpt>
      <trkpt lat="40.13766366" lon="-5.21346585"><ele>632</ele><speed>17.16</speed><time>2017-04-09T13:04:07Z</time><pdop>4.0</pdop><geoidheight>0.00</geoidheight><course>219.3</course><type>1</type></trkpt>
      <trkpt lat="40.13756643" lon="-5.21359385"><ele>628</ele><speed>16.76</speed><time>2017-04-09T13:04:08Z</time><pdop>4.0</pdop><geoidheight>0.00</geoidheight><course>220.3</course><type>1</type></trkpt>
      <trkpt lat="40.1374552" lon="-5.21371617"><ele>628</ele><speed>15.93</speed><time>2017-04-09T13:04:09Z</time><pdop>4.0</pdop><geoidheight>0.00</geoidheight><course>223.6</course><type>1</type></trkpt>
      <trkpt lat="40.13734939" lon="-5.2138427"><ele>625</ele><speed>15.02</speed><time>2017-04-09T13:04:10Z</time><pdop>4.0</pdop><geoidheight>0.00</geoidheight><course>225.5</course><type>1</type></trkpt>
      <trkpt lat="40.13725712" lon="-5.21397204"><ele>623</ele><speed>14.88</speed><time>2017-04-09T13:04:11Z</time><pdop>4.0</pdop><geoidheight>0.00</geoidheight><course>226.1</course><type>1</type></trkpt>
      <trkpt lat="40.13716687" lon="-5.21410286"><ele>621</ele><speed>15.20</speed><time>2017-04-09T13:04:12Z</time><pdop>4.0</pdop><geoidheight>0.00</geoidheight><course>224.7</course><type>1</type></trkpt>
      <trkpt lat="40.13706135" lon="-5.21422866"><ele>619</ele><speed>16.17</speed><time>2017-04-09T13:04:13Z</time><pdop>4.0</pdop><geoidheight>0.00</geoidheight><course>225.1</course><type>1</type></trkpt>
      <trkpt lat="40.13694971" lon="-5.21436611"><ele>617</ele><speed>17.05</speed><time>2017-04-09T13:04:14Z</time><pdop>4.0</pdop><geoidheight>0.00</geoidheight><course>223.7</course><type>1</type></trkpt>
      <trkpt lat="40.13683824" lon="-5.21449831"><ele>617</ele><speed>16.70</speed><time>2017-04-09T13:04:15Z</time><pdop>3.0</pdop><geoidheight>0.00</geoidheight><course>223.3</course><type>1</type></trkpt>
      <trkpt lat="40.13673551" lon="-5.21463594"><ele>615</ele><speed>15.97</speed><time>2017-04-09T13:04:16Z</time><pdop>3.0</pdop><geoidheight>0.00</geoidheight><course>224.7</course><type>1</type></trkpt>
      <trkpt lat="40.13663876" lon="-5.21477338"><ele>615</ele><speed>15.50</speed><time>2017-04-09T13:04:17Z</time><pdop>4.0</pdop><geoidheight>0.00</geoidheight><course>227.6</course><type>1</type></trkpt>
      <trkpt lat="40.1365455" lon="-5.21490994"><ele>614</ele><speed>15.21</speed><time>2017-04-09T13:04:18Z</time><pdop>4.0</pdop><geoidheight>0.00</geoidheight><course>228.3</course><type>1</type></trkpt>
      <trkpt lat="40.13645481" lon="-5.21503957"><ele>614</ele><speed>15.39</speed><time>2017-04-09T13:04:19Z</time><pdop>4.0</pdop><geoidheight>0.00</geoidheight><course>226.3</course><type>1</type></trkpt>
      <trkpt lat="40.13635511" lon="-5.21518196"><ele>612</ele><speed>16.24</speed><time>2017-04-09T13:04:20Z</time><pdop>4.0</pdop><geoidheight>0.00</geoidheight><course>228.1</course><type>1</type></trkpt>
      <trkpt lat="40.13626267" lon="-5.21532795"><ele>612</ele><speed>16.39</speed><time>2017-04-09T13:04:21Z</time><pdop>4.0</pdop><geoidheight>0.00</geoidheight><course>227.7</course><type>1</type></trkpt>
      <trkpt lat="40.13617081" lon="-5.21545432"><ele>610</ele><speed>16.16</speed><time>2017-04-09T13:04:22Z</time><pdop>4.0</pdop><geoidheight>0.00</geoidheight><course>225.3</course><type>1</type></trkpt>
      <trkpt lat="40.13606228" lon="-5.21558017"><ele>608</ele><speed>15.71</speed><time>2017-04-09T13:04:23Z</time><pdop>4.0</pdop><geoidheight>0.00</geoidheight><course>224.0</course><type>1</type></trkpt>
      <trkpt lat="40.13595981" lon="-5.21570975"><ele>606</ele><speed>15.77</speed><time>2017-04-09T13:04:24Z</time><pdop>4.0</pdop><geoidheight>0.00</geoidheight><course>226.4</course><type>1</type></trkpt>
      <trkpt lat="40.1358582" lon="-5.21584685"><ele>605</ele><speed>16.15</speed><time>2017-04-09T13:04:25Z</time><pdop>3.0</pdop><geoidheight>0.00</geoidheight><course>227.9</course><type>1</type></trkpt>
      <trkpt lat="40.13574259" lon="-5.21597788"><ele>603</ele><speed>15.90</speed><time>2017-04-09T13:04:26Z</time><pdop>3.0</pdop><geoidheight>0.00</geoidheight><course>225.3</course><type>1</type></trkpt>
      <trkpt lat="40.13565281" lon="-5.21607938"><ele>598</ele><speed>15.56</speed><time>2017-04-09T13:04:27Z</time><pdop>3.0</pdop><geoidheight>0.00</geoidheight><course>222.5</course><type>1</type></trkpt>
      <trkpt lat="40.13554033" lon="-5.21619305"><ele>596</ele><speed>15.39</speed><time>2017-04-09T13:04:28Z</time><pdop>3.0</pdop><geoidheight>0.00</geoidheight><course>220.6</course><type>1</type></trkpt>
      <trkpt lat="40.13543174" lon="-5.21630829"><ele>592</ele><speed>15.30</speed><time>2017-04-09T13:04:29Z</time><pdop>3.0</pdop><geoidheight>0.00</geoidheight><course>220.8</course><type>1</type></trkpt>
      <trkpt lat="40.13532894" lon="-5.21641351"><ele>588</ele><speed>15.26</speed><time>2017-04-09T13:04:30Z</time><pdop>3.0</pdop><geoidheight>0.00</geoidheight><course>220.1</course><type>1</type></trkpt>
      <trkpt lat="40.1352324" lon="-5.21651245"><ele>586</ele><speed>15.32</speed><time>2017-04-09T13:04:31Z</time><pdop>3.0</pdop><geoidheight>0.00</geoidheight><course>219.2</course><type>1</type></trkpt>
      <trkpt lat="40.13512753" lon="-5.21663051"><ele>585</ele><speed>15.40</speed><time>2017-04-09T13:04:32Z</time><pdop>3.0</pdop><geoidheight>0.00</geoidheight><course>218.9</course><type>1</type></trkpt>
      <trkpt lat="40.13502384" lon="-5.21673839"><ele>583</ele><speed>15.09</speed><time>2017-04-09T13:04:33Z</time><pdop>3.0</pdop><geoidheight>0.00</geoidheight><course>220.4</course><type>1</type></trkpt>
      <trkpt lat="40.13491373" lon="-5.21684296"><ele>581</ele><speed>14.59</speed><time>2017-04-09T13:04:34Z</time><pdop>3.0</pdop><geoidheight>0.00</geoidheight><course>221.3</course><type>1</type></trkpt>
      <trkpt lat="40.1348152" lon="-5.21695137"><ele>579</ele><speed>14.24</speed><time>2017-04-09T13:04:35Z</time><pdop>3.0</pdop><geoidheight>0.00</geoidheight><course>220.2</course><type>1</type></trkpt>
      <trkpt lat="40.13471359" lon="-5.21705651"><ele>577</ele><speed>14.28</speed><time>2017-04-09T13:04:36Z</time><pdop>3.0</pdop><geoidheight>0.00</geoidheight><course>218.3</course><type>1</type></trkpt>
      <trkpt lat="40.13460717" lon="-5.21716307"><ele>575</ele><speed>15.14</speed><time>2017-04-09T13:04:37Z</time><pdop>3.0</pdop><geoidheight>0.00</geoidheight><course>218.8</course><type>1</type></trkpt>
      <trkpt lat="40.13449857" lon="-5.21728197"><ele>573</ele><speed>15.79</speed><time>2017-04-09T13:04:38Z</time><pdop>3.0</pdop><geoidheight>0.00</geoidheight><course>220.5</course><type>1</type></trkpt>
      <trkpt lat="40.13438245" lon="-5.21739431"><ele>570</ele><speed>15.60</speed><time>2017-04-09T13:04:39Z</time><pdop>3.0</pdop><geoidheight>0.00</geoidheight><course>221.4</course><type>1</type></trkpt>
      <trkpt lat="40.13427905" lon="-5.21750916"><ele>569</ele><speed>14.75</speed><time>2017-04-09T13:04:40Z</time><pdop>3.0</pdop><geoidheight>0.00</geoidheight><course>220.6</course><type>1</type></trkpt>
      <trkpt lat="40.13418645" lon="-5.21762976"><ele>568</ele><speed>14.35</speed><time>2017-04-09T13:04:41Z</time><pdop>3.0</pdop><geoidheight>0.00</geoidheight><course>223.3</course><type>1</type></trkpt>
      <trkpt lat="40.13409772" lon="-5.21775331"><ele>566</ele><speed>14.43</speed><time>2017-04-09T13:04:42Z</time><pdop>4.0</pdop><geoidheight>0.00</geoidheight><course>225.8</course><type>1</type></trkpt>
      <trkpt lat="40.13400562" lon="-5.21787833"><ele>564</ele><speed>15.05</speed><time>2017-04-09T13:04:43Z</time><pdop>4.0</pdop><geoidheight>0.00</geoidheight><course>226.9</course><type>1</type></trkpt>
      <trkpt lat="40.1339126" lon="-5.21801203"><ele>561</ele><speed>15.55</speed><time>2017-04-09T13:04:44Z</time><pdop>4.0</pdop><geoidheight>0.00</geoidheight><course>225.7</course><type>1</type></trkpt>
      <trkpt lat="40.13381505" lon="-5.21814336"><ele>559</ele><speed>15.86</speed><time>2017-04-09T13:04:45Z</time><pdop>4.0</pdop><geoidheight>0.00</geoidheight><course>225.0</course><type>1</type></trkpt>
      <trkpt lat="40.13371133" lon="-5.21827426"><ele>557</ele><speed>15.89</speed><time>2017-04-09T13:04:46Z</time><pdop>4.0</pdop><geoidheight>0.00</geoidheight><course>224.9</course><type>1</type></trkpt>
      <trkpt lat="40.13361257" lon="-5.21840817"><ele>556</ele><speed>16.07</speed><time>2017-04-09T13:04:47Z</time><pdop>4.0</pdop><geoidheight>0.00</geoidheight><course>225.5</course><type>1</type></trkpt>
      <trkpt lat="40.13351237" lon="-5.21853825"><ele>555</ele><speed>15.88</speed><time>2017-04-09T13:04:48Z</time><pdop>4.0</pdop><geoidheight>0.00</geoidheight><course>227.8</course><type>1</type></trkpt>
      <trkpt lat="40.13341059" lon="-5.21867457"><ele>555</ele><speed>15.26</speed><time>2017-04-09T13:04:49Z</time><pdop>4.0</pdop><geoidheight>0.00</geoidheight><course>224.6</course><type>1</type></trkpt>
      <trkpt lat="40.1333094" lon="-5.21879859"><ele>554</ele><speed>15.08</speed><time>2017-04-09T13:04:50Z</time><pdop>4.0</pdop><geoidheight>0.00</geoidheight><course>223.6</course><type>1</type></trkpt>
      <trkpt lat="40.13321467" lon="-5.21892823"><ele>552</ele><speed>15.27</speed><time>2017-04-09T13:04:51Z</time><pdop>4.0</pdop><geoidheight>0.00</geoidheight><course>225.8</course><type>1</type></trkpt>
      <trkpt lat="40.13311006" lon="-5.21904272"><ele>551</ele><speed>15.62</speed><time>2017-04-09T13:04:52Z</time><pdop>3.0</pdop><geoidheight>0.00</geoidheight><course>224.5</course><type>1</type></trkpt>
      <trkpt lat="40.13301368" lon="-5.21917419"><ele>551</ele><speed>15.80</speed><time>2017-04-09T13:04:53Z</time><pdop>3.0</pdop><geoidheight>0.00</geoidheight><course>227.8</course><type>1</type></trkpt>
      <trkpt lat="40.13290853" lon="-5.21930785"><ele>550</ele><speed>16.05</speed><time>2017-04-09T13:04:54Z</time><pdop>4.0</pdop><geoidheight>0.00</geoidheight><course>224.4</course><type>1</type></trkpt>
      <trkpt lat="40.13280212" lon="-5.21943679"><ele>549</ele><speed>16.37</speed><time>2017-04-09T13:04:55Z</time><pdop>4.0</pdop><geoidheight>0.00</geoidheight><course>223.6</course><type>1</type></trkpt>
      <trkpt lat="40.13269252" lon="-5.21955777"><ele>546</ele><speed>16.06</speed><time>2017-04-09T13:04:56Z</time><pdop>4.0</pdop><geoidheight>0.00</geoidheight><course>221.2</course><type>1</type></trkpt>
      <trkpt lat="40.13258437" lon="-5.21968644"><ele>546</ele><speed>15.82</speed><time>2017-04-09T13:04:57Z</time><pdop>4.0</pdop><geoidheight>0.00</geoidheight><course>218.6</course><type>1</type></trkpt>
      <trkpt lat="40.13247583" lon="-5.21981177"><ele>545</ele><speed>16.12</speed><time>2017-04-09T13:04:58Z</time><pdop>3.0</pdop><geoidheight>0.00</geoidheight><course>222.0</course><type>1</type></trkpt>
      <trkpt lat="40.13237155" lon="-5.21994614"><ele>544</ele><speed>16.57</speed><time>2017-04-09T13:04:59Z</time><pdop>3.0</pdop><geoidheight>0.00</geoidheight><course>225.2</course><type>1</type></trkpt>
      <trkpt lat="40.13225943" lon="-5.22008917"><ele>543</ele><speed>16.72</speed><time>2017-04-09T13:05:00Z</time><pdop>3.0</pdop><geoidheight>0.00</geoidheight><course>224.9</course><type>1</type></trkpt>
      <trkpt lat="40.13215297" lon="-5.22021297"><ele>542</ele><speed>16.50</speed><time>2017-04-09T13:05:01Z</time><pdop>3.0</pdop><geoidheight>0.00</geoidheight><course>222.3</course><type>1</type></trkpt>
      <trkpt lat="40.13204517" lon="-5.22033902"><ele>542</ele><speed>16.03</speed><time>2017-04-09T13:05:02Z</time><pdop>4.0</pdop><geoidheight>0.00</geoidheight><course>221.8</course><type>1</type></trkpt>
      <trkpt lat="40.13194444" lon="-5.22047866"><ele>539</ele><speed>15.69</speed><time>2017-04-09T13:05:03Z</time><pdop>4.0</pdop><geoidheight>0.00</geoidheight><course>234.9</course><type>1</type></trkpt>
      <trkpt lat="40.1318461" lon="-5.22061098"><ele>538</ele><speed>15.99</speed><time>2017-04-09T13:05:04Z</time><pdop>3.0</pdop><geoidheight>0.00</geoidheight><course>226.4</course><type>1</type></trkpt>
      <trkpt lat="40.13174509" lon="-5.22075064"><ele>536</ele><speed>16.37</speed><time>2017-04-09T13:05:05Z</time><pdop>4.0</pdop><geoidheight>0.00</geoidheight><course>226.3</course><type>1</type></trkpt>
      <trkpt lat="40.13163956" lon="-5.22088879"><ele>533</ele><speed>16.74</speed><time>2017-04-09T13:05:06Z</time><pdop>4.0</pdop><geoidheight>0.00</geoidheight><course>223.5</course><type>1</type></trkpt>
      <trkpt lat="40.13153113" lon="-5.22102267"><ele>532</ele><speed>16.97</speed><time>2017-04-09T13:05:07Z</time><pdop>4.0</pdop><geoidheight>0.00</geoidheight><course>221.5</course><type>1</type></trkpt>
      <trkpt lat="40.13141913" lon="-5.22115946"><ele>530</ele><speed>17.09</speed><time>2017-04-09T13:05:08Z</time><pdop>3.0</pdop><geoidheight>0.00</geoidheight><course>221.8</course><type>1</type></trkpt>
      <trkpt lat="40.13130384" lon="-5.22129032"><ele>527</ele><speed>17.14</speed><time>2017-04-09T13:05:09Z</time><pdop>4.0</pdop><geoidheight>0.00</geoidheight><course>222.0</course><type>1</type></trkpt>
      <trkpt lat="40.13119442" lon="-5.22141391"><ele>524</ele><speed>16.72</speed><time>2017-04-09T13:05:10Z</time><pdop>3.0</pdop><geoidheight>0.00</geoidheight><course>220.8</course><type>1</type></trkpt>
      <trkpt lat="40.13109592" lon="-5.22152585"><ele>521</ele><speed>16.40</speed><time>2017-04-09T13:05:11Z</time><pdop>3.0</pdop><geoidheight>0.00</geoidheight><course>219.5</course><type>1</type></trkpt>
      <trkpt lat="40.13097895" lon="-5.22165258"><ele>519</ele><speed>16.59</speed><time>2017-04-09T13:05:12Z</time><pdop>3.0</pdop><geoidheight>0.00</geoidheight><course>220.6</course><type>1</type></trkpt>
      <trkpt lat="40.13086214" lon="-5.22178557"><ele>517</ele><speed>17.05</speed><time>2017-04-09T13:05:13Z</time><pdop>3.0</pdop><geoidheight>0.00</geoidheight><course>220.9</course><type>1</type></trkpt>
      <trkpt lat="40.13075022" lon="-5.22191414"><ele>514</ele><speed>17.43</speed><time>2017-04-09T13:05:14Z</time><pdop>3.0</pdop><geoidheight>0.00</geoidheight><course>219.6</course><type>1</type></trkpt>
      <trkpt lat="40.13062356" lon="-5.22204259"><ele>513</ele><speed>17.87</speed><time>2017-04-09T13:05:15Z</time><pdop>3.0</pdop><geoidheight>0.00</geoidheight><course>218.0</course><type>1</type></trkpt>
      <trkpt lat="40.13050369" lon="-5.22218283"><ele>512</ele><speed>17.84</speed><time>2017-04-09T13:05:16Z</time><pdop>3.0</pdop><geoidheight>0.00</geoidheight><course>222.1</course><type>1</type></trkpt>
      <trkpt lat="40.13040122" lon="-5.22233709"><ele>510</ele><speed>17.65</speed><time>2017-04-09T13:05:17Z</time><pdop>3.0</pdop><geoidheight>0.00</geoidheight><course>228.2</course><type>1</type></trkpt>
      <trkpt lat="40.13029797" lon="-5.22248634"><ele>510</ele><speed>16.83</speed><time>2017-04-09T13:05:18Z</time><pdop>3.0</pdop><geoidheight>0.00</geoidheight><course>231.3</course><type>1</type></trkpt>
      <trkpt lat="40.13021255" lon="-5.22264062"><ele>509</ele><speed>15.50</speed><time>2017-04-09T13:05:19Z</time><pdop>3.0</pdop><geoidheight>0.00</geoidheight><course>228.5</course><type>1</type></trkpt>
      <trkpt lat="40.1301231" lon="-5.22276621"><ele>507</ele><speed>14.60</speed><time>2017-04-09T13:05:20Z</time><pdop>3.0</pdop><geoidheight>0.00</geoidheight><course>224.7</course><type>1</type></trkpt>
      <trkpt lat="40.13002474" lon="-5.22288337"><ele>506</ele><speed>15.11</speed><time>2017-04-09T13:05:21Z</time><pdop>3.0</pdop><geoidheight>0.00</geoidheight><course>219.8</course><type>1</type></trkpt>
      <trkpt lat="40.12991936" lon="-5.22300759"><ele>505</ele><speed>16.51</speed><time>2017-04-09T13:05:22Z</time><pdop>3.0</pdop><geoidheight>0.00</geoidheight><course>220.4</course><type>1</type></trkpt>
      <trkpt lat="40.12979516" lon="-5.22315065"><ele>503</ele><speed>17.69</speed><time>2017-04-09T13:05:23Z</time><pdop>3.0</pdop><geoidheight>0.00</geoidheight><course>225.1</course><type>1</type></trkpt>
      <trkpt lat="40.12968426" lon="-5.223297"><ele>502</ele><speed>17.32</speed><time>2017-04-09T13:05:24Z</time><pdop>3.0</pdop><geoidheight>0.00</geoidheight><course>223.4</course><type>1</type></trkpt>
      <trkpt lat="40.12956886" lon="-5.22343379"><ele>500</ele><speed>16.99</speed><time>2017-04-09T13:05:25Z</time><pdop>3.0</pdop><geoidheight>0.00</geoidheight><course>219.4</course><type>1</type></trkpt>
      <trkpt lat="40.12945185" lon="-5.22356042"><ele>498</ele><speed>16.06</speed><time>2017-04-09T13:05:26Z</time><pdop>3.0</pdop><geoidheight>0.00</geoidheight><course>219.0</course><type>1</type></trkpt>
      <trkpt lat="40.12933796" lon="-5.22365908"><ele>496</ele><speed>15.82</speed><time>2017-04-09T13:05:27Z</time><pdop>3.0</pdop><geoidheight>0.00</geoidheight><course>212.9</course><type>1</type></trkpt>
      <trkpt lat="40.12922849" lon="-5.22376833"><ele>495</ele><speed>14.42</speed><time>2017-04-09T13:05:28Z</time><pdop>3.0</pdop><geoidheight>0.00</geoidheight><course>212.8</course><type>1</type></trkpt>
      <trkpt lat="40.12911444" lon="-5.2238572"><ele>494</ele><speed>13.85</speed><time>2017-04-09T13:05:29Z</time><pdop>4.0</pdop><geoidheight>0.00</geoidheight><course>207.7</course><type>1</type></trkpt>
      <trkpt lat="40.12901137" lon="-5.22392419"><ele>492</ele><speed>13.78</speed><time>2017-04-09T13:05:30Z</time><pdop>4.0</pdop><geoidheight>0.00</geoidheight><course>203.4</course><type>1</type></trkpt>
      <trkpt lat="40.12889529" lon="-5.22397334"><ele>492</ele><speed>14.10</speed><time>2017-04-09T13:05:31Z</time><pdop>4.0</pdop><geoidheight>0.00</geoidheight><course>203.5</course><type>1</type></trkpt>
      <trkpt lat="40.12877252" lon="-5.22404295"><ele>490</ele><speed>14.50</speed><time>2017-04-09T13:05:32Z</time><pdop>4.0</pdop><geoidheight>0.00</geoidheight><course>206.9</course><type>1</type></trkpt>
      <trkpt lat="40.12866007" lon="-5.22410678"><ele>485</ele><speed>13.91</speed><time>2017-04-09T13:05:33Z</time><pdop>4.0</pdop><geoidheight>0.00</geoidheight><course>208.2</course><type>1</type></trkpt>
      <trkpt lat="40.12855223" lon="-5.22417195"><ele>482</ele><speed>13.52</speed><time>2017-04-09T13:05:34Z</time><pdop>4.0</pdop><geoidheight>0.00</geoidheight><course>201.0</course><type>1</type></trkpt>
      <trkpt lat="40.12843614" lon="-5.22422373"><ele>480</ele><speed>13.75</speed><time>2017-04-09T13:05:35Z</time><pdop>4.0</pdop><geoidheight>0.00</geoidheight><course>193.1</course><type>1</type></trkpt>
      <trkpt lat="40.12831686" lon="-5.22426705"><ele>478</ele><speed>13.68</speed><time>2017-04-09T13:05:36Z</time><pdop>4.0</pdop><geoidheight>0.00</geoidheight><course>188.8</course><type>1</type></trkpt>
      <trkpt lat="40.12819414" lon="-5.22429461"><ele>476</ele><speed>13.53</speed><time>2017-04-09T13:05:37Z</time><pdop>4.0</pdop><geoidheight>0.00</geoidheight><course>191.3</course><type>1</type></trkpt>
      <trkpt lat="40.12809225" lon="-5.22432214"><ele>473</ele><speed>12.87</speed><time>2017-04-09T13:05:38Z</time><pdop>4.0</pdop><geoidheight>0.00</geoidheight><course>194.9</course><type>1</type></trkpt>
      <trkpt lat="40.12797544" lon="-5.22437387"><ele>471</ele><speed>12.86</speed><time>2017-04-09T13:05:39Z</time><pdop>4.0</pdop><geoidheight>0.00</geoidheight><course>194.9</course><type>1</type></trkpt>
      <trkpt lat="40.12785777" lon="-5.22440279"><ele>470</ele><speed>13.85</speed><time>2017-04-09T13:05:40Z</time><pdop>4.0</pdop><geoidheight>0.00</geoidheight><course>189.9</course><type>1</type></trkpt>
      <trkpt lat="40.12774766" lon="-5.22442385"><ele>467</ele><speed>13.78</speed><time>2017-04-09T13:05:41Z</time><pdop>4.0</pdop><geoidheight>0.00</geoidheight><course>184.9</course><type>1</type></trkpt>
      <trkpt lat="40.12761841" lon="-5.22443158"><ele>465</ele><speed>13.37</speed><time>2017-04-09T13:05:42Z</time><pdop>4.0</pdop><geoidheight>0.00</geoidheight><course>183.3</course><type>1</type></trkpt>
      <trkpt lat="40.12750634" lon="-5.22444284"><ele>464</ele><speed>12.97</speed><time>2017-04-09T13:05:43Z</time><pdop>4.0</pdop><geoidheight>0.00</geoidheight><course>185.9</course><type>1</type></trkpt>
      <trkpt lat="40.12739065" lon="-5.22446996"><ele>464</ele><speed>12.94</speed><time>2017-04-09T13:05:44Z</time><pdop>4.0</pdop><geoidheight>0.00</geoidheight><course>190.5</course><type>1</type></trkpt>
      <trkpt lat="40.12727727" lon="-5.22451127"><ele>463</ele><speed>13.49</speed><time>2017-04-09T13:05:45Z</time><pdop>4.0</pdop><geoidheight>0.00</geoidheight><course>195.7</course><type>1</type></trkpt>
      <trkpt lat="40.12715649" lon="-5.22455266"><ele>462</ele><speed>13.71</speed><time>2017-04-09T13:05:46Z</time><pdop>4.0</pdop><geoidheight>0.00</geoidheight><course>197.2</course><type>1</type></trkpt>
      <trkpt lat="40.1270448" lon="-5.22460108"><ele>462</ele><speed>13.41</speed><time>2017-04-09T13:05:47Z</time><pdop>4.0</pdop><geoidheight>0.00</geoidheight><course>203.2</course><type>1</type></trkpt>
      <trkpt lat="40.12694943" lon="-5.22468609"><ele>461</ele><speed>13.47</speed><time>2017-04-09T13:05:48Z</time><pdop>4.0</pdop><geoidheight>0.00</geoidheight><course>216.3</course><type>1</type></trkpt>
      <trkpt lat="40.12685606" lon="-5.22480454"><ele>458</ele><speed>14.81</speed><time>2017-04-09T13:05:49Z</time><pdop>4.0</pdop><geoidheight>0.00</geoidheight><course>228.8</course><type>1</type></trkpt>
      <trkpt lat="40.12677802" lon="-5.22493703"><ele>456</ele><speed>14.39</speed><time>2017-04-09T13:05:50Z</time><pdop>4.0</pdop><geoidheight>0.00</geoidheight><course>238.2</course><type>1</type></trkpt>
      <trkpt lat="40.1267168" lon="-5.22512243"><ele>455</ele><speed>17.13</speed><time>2017-04-09T13:05:51Z</time><pdop>4.0</pdop><geoidheight>0.00</geoidheight><course>249.3</course><type>1</type></trkpt>
      <trkpt lat="40.12666992" lon="-5.2253117"><ele>455</ele><speed>15.10</speed><time>2017-04-09T13:05:52Z</time><pdop>4.0</pdop><geoidheight>0.00</geoidheight><course>253.1</course><type>1</type></trkpt>
      <trkpt lat="40.12664352" lon="-5.22546013"><ele>456</ele><speed>11.71</speed><time>2017-04-09T13:05:53Z</time><pdop>4.0</pdop><geoidheight>0.00</geoidheight><course>261.3</course><type>1</type></trkpt>
      <trkpt lat="40.12664271" lon="-5.22558675"><ele>455</ele><speed>10.10</speed><time>2017-04-09T13:05:54Z</time><pdop>4.0</pdop><geoidheight>0.00</geoidheight><course>271.8</course><type>1</type></trkpt>
      <trkpt lat="40.12664243" lon="-5.22570602"><ele>454</ele><speed>10.42</speed><time>2017-04-09T13:05:55Z</time><pdop>4.0</pdop><geoidheight>0.00</geoidheight><course>278.0</course><type>1</type></trkpt>
      <trkpt lat="40.12665436" lon="-5.2258371"><ele>453</ele><speed>11.61</speed><time>2017-04-09T13:05:56Z</time><pdop>4.0</pdop><geoidheight>0.00</geoidheight><course>281.7</course><type>1</type></trkpt>
      <trkpt lat="40.12668384" lon="-5.22596797"><ele>452</ele><speed>11.64</speed><time>2017-04-09T13:05:57Z</time><pdop>3.0</pdop><geoidheight>0.00</geoidheight><course>288.5</course><type>1</type></trkpt>
      <trkpt lat="40.12672555" lon="-5.2260802"><ele>451</ele><speed>10.33</speed><time>2017-04-09T13:05:58Z</time><pdop>3.0</pdop><geoidheight>0.00</geoidheight><course>299.8</course><type>1</type></trkpt>
      <trkpt lat="40.12677313" lon="-5.22617223"><ele>450</ele><speed>9.08</speed><time>2017-04-09T13:05:59Z</time><pdop>3.0</pdop><geoidheight>0.00</geoidheight><course>313.0</course><type>1</type></trkpt>
      <trkpt lat="40.12683067" lon="-5.22623231"><ele>449</ele><speed>7.83</speed><time>2017-04-09T13:06:00Z</time><pdop>3.0</pdop><geoidheight>0.00</geoidheight><course>323.6</course><type>1</type></trkpt>
      <trkpt lat="40.12688689" lon="-5.22627198"><ele>448</ele><speed>7.08</speed><time>2017-04-09T13:06:01Z</time><pdop>3.0</pdop><geoidheight>0.00</geoidheight><course>334.6</course><type>1</type></trkpt>
      <trkpt lat="40.12693836" lon="-5.22630039"><ele>447</ele><speed>6.12</speed><time>2017-04-09T13:06:02Z</time><pdop>3.0</pdop><geoidheight>0.00</geoidheight><course>341.8</course><type>1</type></trkpt>
      <trkpt lat="40.12703981" lon="-5.22634064"><ele>443</ele><speed>6.36</speed><time>2017-04-09T13:06:04Z</time><pdop>3.0</pdop><geoidheight>0.00</geoidheight><course>348.8</course><type>1</type></trkpt>
      <trkpt lat="40.12709958" lon="-5.22636264"><ele>441</ele><speed>6.95</speed><time>2017-04-09T13:06:05Z</time><pdop>3.0</pdop><geoidheight>0.00</geoidheight><course>348.6</course><type>1</type></trkpt>
      <trkpt lat="40.12716007" lon="-5.22638639"><ele>437</ele><speed>6.70</speed><time>2017-04-09T13:06:06Z</time><pdop>3.0</pdop><geoidheight>0.00</geoidheight><course>347.6</course><type>1</type></trkpt>
      <trkpt lat="40.12721567" lon="-5.22639333"><ele>436</ele><speed>5.72</speed><time>2017-04-09T13:06:07Z</time><pdop>3.0</pdop><geoidheight>0.00</geoidheight><course>352.4</course><type>1</type></trkpt>
      <trkpt lat="40.12730473" lon="-5.22638385"><ele>433</ele><speed>3.83</speed><time>2017-04-09T13:06:09Z</time><pdop>3.0</pdop><geoidheight>0.00</geoidheight><course>8.9</course><type>1</type></trkpt>
      <trkpt lat="40.1273471" lon="-5.22633975"><ele>430</ele><speed>2.95</speed><time>2017-04-09T13:06:11Z</time><pdop>3.0</pdop><geoidheight>0.00</geoidheight><course>33.6</course><type>1</type></trkpt>
      <trkpt lat="40.12733063" lon="-5.22625548"><ele>427</ele><speed>5.06</speed><time>2017-04-09T13:06:13Z</time><pdop>3.0</pdop><geoidheight>0.00</geoidheight><course>124.1</course><type>1</type></trkpt>
      <trkpt lat="40.12725596" lon="-5.22615917"><ele>424</ele><speed>6.05</speed><time>2017-04-09T13:06:15Z</time><pdop>3.0</pdop><geoidheight>0.00</geoidheight><course>133.0</course><type>1</type></trkpt>
      <trkpt lat="40.12719432" lon="-5.2260659"><ele>421</ele><speed>4.59</speed><time>2017-04-09T13:06:17Z</time><pdop>3.0</pdop><geoidheight>0.00</geoidheight><course>119.2</course><type>1</type></trkpt>
      <trkpt lat="40.12716526" lon="-5.22598138"><ele>419</ele><speed>4.58</speed><time>2017-04-09T13:06:19Z</time><pdop>3.0</pdop><geoidheight>0.00</geoidheight><course>106.2</course><type>1</type></trkpt>
      <trkpt lat="40.12711199" lon="-5.22589986"><ele>416</ele><speed>4.52</speed><time>2017-04-09T13:06:21Z</time><pdop>3.0</pdop><geoidheight>0.00</geoidheight><course>135.0</course><type>1</type></trkpt>
      <trkpt lat="40.127072" lon="-5.22583591"><ele>412</ele><speed>2.63</speed><time>2017-04-09T13:06:23Z</time><pdop>3.0</pdop><geoidheight>0.00</geoidheight><course>114.8</course><type>1</type></trkpt>
      <trkpt lat="40.12705135" lon="-5.22576435"><ele>408</ele><speed>3.56</speed><time>2017-04-09T13:06:25Z</time><pdop>3.0</pdop><geoidheight>0.00</geoidheight><course>87.0</course><type>1</type></trkpt>
      <trkpt lat="40.12707901" lon="-5.22569737"><ele>404</ele><speed>3.85</speed><time>2017-04-09T13:06:27Z</time><pdop>3.0</pdop><geoidheight>0.00</geoidheight><course>69.1</course><type>1</type></trkpt>
      <trkpt lat="40.12718007" lon="-5.22573869"><ele>401</ele><speed>6.92</speed><time>2017-04-09T13:06:29Z</time><pdop>3.0</pdop><geoidheight>0.00</geoidheight><course>328.3</course><type>1</type></trkpt>
      <trkpt lat="40.12726634" lon="-5.22580899"><ele>399</ele><speed>4.27</speed><time>2017-04-09T13:06:31Z</time><pdop>3.0</pdop><geoidheight>0.00</geoidheight><course>340.5</course><type>1</type></trkpt>
      <trkpt lat="40.12733646" lon="-5.22582195"><ele>396</ele><speed>5.10</speed><time>2017-04-09T13:06:33Z</time><pdop>3.0</pdop><geoidheight>0.00</geoidheight><course>20.8</course><type>1</type></trkpt>
      <trkpt lat="40.12742874" lon="-5.22580093"><ele>395</ele><speed>4.77</speed><time>2017-04-09T13:06:35Z</time><pdop>3.0</pdop><geoidheight>0.00</geoidheight><course>12.7</course><type>1</type></trkpt>
      <trkpt lat="40.12749705" lon="-5.22582122"><ele>396</ele><speed>2.93</speed><time>2017-04-09T13:06:37Z</time><pdop>3.0</pdop><geoidheight>0.00</geoidheight><course>77.5</course><type>1</type></trkpt>
      <trkpt lat="40.12753576" lon="-5.22587128"><ele>394</ele><speed>3.68</speed><time>2017-04-09T13:06:39Z</time><pdop>3.0</pdop><geoidheight>0.00</geoidheight><course>325.6</course><type>1</type></trkpt>
      <trkpt lat="40.12760076" lon="-5.2258955"><ele>390</ele><speed>3.97</speed><time>2017-04-09T13:06:41Z</time><pdop>3.0</pdop><geoidheight>0.00</geoidheight><course>2.8</course><type>1</type></trkpt>
      <trkpt lat="40.12767122" lon="-5.22586566"><ele>385</ele><speed>2.45</speed><time>2017-04-09T13:06:44Z</time><pdop>3.0</pdop><geoidheight>0.00</geoidheight><course>111.0</course><type>1</type></trkpt>
      <trkpt lat="40.12772552" lon="-5.22581088"><ele>383</ele><speed>0.93</speed><time>2017-04-09T13:06:53Z</time><pdop>3.0</pdop><geoidheight>0.00</geoidheight><course>27.6</course><type>1</type></trkpt>
      <trkpt lat="40.12771538" lon="-5.22579914"><ele>381</ele><speed>0.00</speed><time>2017-04-09T13:07:53Z</time><pdop>3.0</pdop><geoidheight>0.00</geoidheight><course>0.0</course><type>1</type></trkpt>
      <trkpt lat="40.12771203" lon="-5.22577608"><ele>382</ele><speed>0.00</speed><time>2017-04-09T13:08:53Z</time><pdop>3.0</pdop><geoidheight>0.00</geoidheight><course>0.0</course><type>1</type></trkpt>
      <trkpt lat="40.12769481" lon="-5.22579164"><ele>382</ele><speed>0.00</speed><time>2017-04-09T13:09:53Z</time><pdop>6.0</pdop><geoidheight>0.00</geoidheight><course>0.0</course><type>1</type></trkpt>
      <trkpt lat="40.12769476" lon="-5.22579191"><ele>382</ele><speed>0.00</speed><time>2017-04-09T13:10:53Z</time><pdop>11.0</pdop><geoidheight>0.00</geoidheight><course>0.0</course><type>1</type></trkpt>
      <trkpt lat="40.12769472" lon="-5.22579201"><ele>382</ele><speed>0.00</speed><time>2017-04-09T13:11:53Z</time><pdop>11.0</pdop><geoidheight>0.00</geoidheight><course>0.0</course><type>1</type></trkpt>
      <trkpt lat="40.12769472" lon="-5.22579201"><ele>382</ele><speed>0.00</speed><time>2017-04-09T13:12:53Z</time><pdop>12.0</pdop><geoidheight>0.00</geoidheight><course>0.0</course><type>1</type></trkpt>
      <trkpt lat="40.12769476" lon="-5.22579203"><ele>382</ele><speed>0.00</speed><time>2017-04-09T13:13:53Z</time><pdop>10.0</pdop><geoidheight>0.00</geoidheight><course>0.0</course><type>1</type></trkpt>
      <trkpt lat="40.12768364" lon="-5.22579771"><ele>380</ele><speed>0.00</speed><time>2017-04-09T13:14:53Z</time><pdop>3.0</pdop><geoidheight>0.00</geoidheight><course>0.0</course><type>1</type></trkpt>
      <trkpt lat="40.1276297" lon="-5.22580395"><ele>377</ele><speed>0.48</speed><time>2017-04-09T13:15:16Z</time><pdop>3.0</pdop><geoidheight>0.00</geoidheight><course>145.3</course><type>1</type></trkpt>
      <trkpt lat="40.12768122" lon="-5.22575015"><ele>381</ele><speed>1.47</speed><time>2017-04-09T13:15:48Z</time><pdop>4.0</pdop><geoidheight>0.00</geoidheight><course>87.4</course><type>1</type></trkpt>
    </trkseg>
  </trk>
</gpx>